<?xml version="1.0" encoding="UTF-8"?>
<gpx xmlns="http://www.topografix.com/GPX/1/1"
     creator="GpsDump 4.92"
     version="1.1"
     xmlns:xsi="http://www.w3.org/2001/XMLSchema-instance"
     xsi:schemaLocation="http://www.topografix.com/GPX/1/1 http://www.topografix.com/GPX/1/1/gpx.xsd">
  <metadata>
    <link href="http://www.gethome.no/stein.sorensen/">
      <text>GPS dump for www.flightlog.org</text>
    </link>
    <time>2018-09-20T07:40:28Z</time>
    <bounds minlat="40.421700" minlon="-5.301400" maxlat="40.710367" maxlon="-4.942050"/>
  </metadata>
  <trk>
    <name>Track 001</name>
    <trkseg>
      <trkpt lat="40.421700" lon="-5.300800">
        <ele>1929.0</ele>
        <time>2018-09-02T11:14:23Z</time>
      </trkpt>
      <trkpt lat="40.421700" lon="-5.300817">
        <ele>1929.0</ele>
        <time>2018-09-02T11:14:24Z</time>
      </trkpt>
      <trkpt lat="40.421700" lon="-5.300817">
        <ele>1929.0</ele>
        <time>2018-09-02T11:14:25Z</time>
      </trkpt>
      <trkpt lat="40.421700" lon="-5.300817">
        <ele>1929.0</ele>
        <time>2018-09-02T11:14:26Z</time>
      </trkpt>
      <trkpt lat="40.421700" lon="-5.300817">
        <ele>1929.0</ele>
        <time>2018-09-02T11:14:27Z</time>
      </trkpt>
      <trkpt lat="40.421700" lon="-5.300833">
        <ele>1929.0</ele>
        <time>2018-09-02T11:14:28Z</time>
      </trkpt>
      <trkpt lat="40.421717" lon="-5.300833">
        <ele>1929.0</ele>
        <time>2018-09-02T11:14:29Z</time>
      </trkpt>
      <trkpt lat="40.421717" lon="-5.300817">
        <ele>1928.0</ele>
        <time>2018-09-02T11:14:30Z</time>
      </trkpt>
      <trkpt lat="40.421717" lon="-5.300817">
        <ele>1928.0</ele>
        <time>2018-09-02T11:14:31Z</time>
      </trkpt>
      <trkpt lat="40.421717" lon="-5.300800">
        <ele>1928.0</ele>
        <time>2018-09-02T11:14:32Z</time>
      </trkpt>
      <trkpt lat="40.421717" lon="-5.300800">
        <ele>1928.0</ele>
        <time>2018-09-02T11:14:33Z</time>
      </trkpt>
      <trkpt lat="40.421717" lon="-5.300800">
        <ele>1928.0</ele>
        <time>2018-09-02T11:14:34Z</time>
      </trkpt>
      <trkpt lat="40.421717" lon="-5.300800">
        <ele>1928.0</ele>
        <time>2018-09-02T11:14:35Z</time>
      </trkpt>
      <trkpt lat="40.421717" lon="-5.300800">
        <ele>1928.0</ele>
        <time>2018-09-02T11:14:36Z</time>
      </trkpt>
      <trkpt lat="40.421717" lon="-5.300800">
        <ele>1927.0</ele>
        <time>2018-09-02T11:14:37Z</time>
      </trkpt>
      <trkpt lat="40.421717" lon="-5.300817">
        <ele>1927.0</ele>
        <time>2018-09-02T11:14:38Z</time>
      </trkpt>
      <trkpt lat="40.421717" lon="-5.300833">
        <ele>1927.0</ele>
        <time>2018-09-02T11:14:39Z</time>
      </trkpt>
      <trkpt lat="40.421717" lon="-5.300833">
        <ele>1927.0</ele>
        <time>2018-09-02T11:14:40Z</time>
      </trkpt>
      <trkpt lat="40.421717" lon="-5.300850">
        <ele>1927.0</ele>
        <time>2018-09-02T11:14:41Z</time>
      </trkpt>
      <trkpt lat="40.421717" lon="-5.300850">
        <ele>1926.0</ele>
        <time>2018-09-02T11:14:42Z</time>
      </trkpt>
      <trkpt lat="40.421717" lon="-5.300850">
        <ele>1926.0</ele>
        <time>2018-09-02T11:14:43Z</time>
      </trkpt>
      <trkpt lat="40.421717" lon="-5.300850">
        <ele>1926.0</ele>
        <time>2018-09-02T11:14:44Z</time>
      </trkpt>
      <trkpt lat="40.421717" lon="-5.300850">
        <ele>1926.0</ele>
        <time>2018-09-02T11:14:45Z</time>
      </trkpt>
      <trkpt lat="40.421717" lon="-5.300850">
        <ele>1926.0</ele>
        <time>2018-09-02T11:14:46Z</time>
      </trkpt>
      <trkpt lat="40.421717" lon="-5.300850">
        <ele>1926.0</ele>
        <time>2018-09-02T11:14:47Z</time>
      </trkpt>
      <trkpt lat="40.421717" lon="-5.300850">
        <ele>1926.0</ele>
        <time>2018-09-02T11:14:48Z</time>
      </trkpt>
      <trkpt lat="40.421717" lon="-5.300850">
        <ele>1926.0</ele>
        <time>2018-09-02T11:14:49Z</time>
      </trkpt>
      <trkpt lat="40.421717" lon="-5.300850">
        <ele>1926.0</ele>
        <time>2018-09-02T11:14:50Z</time>
      </trkpt>
      <trkpt lat="40.421717" lon="-5.300850">
        <ele>1926.0</ele>
        <time>2018-09-02T11:14:51Z</time>
      </trkpt>
      <trkpt lat="40.421717" lon="-5.300850">
        <ele>1926.0</ele>
        <time>2018-09-02T11:14:52Z</time>
      </trkpt>
      <trkpt lat="40.421717" lon="-5.300850">
        <ele>1926.0</ele>
        <time>2018-09-02T11:14:53Z</time>
      </trkpt>
      <trkpt lat="40.421717" lon="-5.300850">
        <ele>1926.0</ele>
        <time>2018-09-02T11:14:54Z</time>
      </trkpt>
      <trkpt lat="40.421717" lon="-5.300850">
        <ele>1926.0</ele>
        <time>2018-09-02T11:14:55Z</time>
      </trkpt>
      <trkpt lat="40.421717" lon="-5.300850">
        <ele>1926.0</ele>
        <time>2018-09-02T11:14:56Z</time>
      </trkpt>
      <trkpt lat="40.421717" lon="-5.300850">
        <ele>1926.0</ele>
        <time>2018-09-02T11:14:57Z</time>
      </trkpt>
      <trkpt lat="40.421717" lon="-5.300850">
        <ele>1926.0</ele>
        <time>2018-09-02T11:14:58Z</time>
      </trkpt>
      <trkpt lat="40.421717" lon="-5.300850">
        <ele>1926.0</ele>
        <time>2018-09-02T11:14:59Z</time>
      </trkpt>
      <trkpt lat="40.421733" lon="-5.300850">
        <ele>1926.0</ele>
        <time>2018-09-02T11:15:00Z</time>
      </trkpt>
      <trkpt lat="40.421733" lon="-5.300850">
        <ele>1926.0</ele>
        <time>2018-09-02T11:15:01Z</time>
      </trkpt>
      <trkpt lat="40.421733" lon="-5.300850">
        <ele>1926.0</ele>
        <time>2018-09-02T11:15:02Z</time>
      </trkpt>
      <trkpt lat="40.421717" lon="-5.300850">
        <ele>1927.0</ele>
        <time>2018-09-02T11:15:03Z</time>
      </trkpt>
      <trkpt lat="40.421717" lon="-5.300833">
        <ele>1927.0</ele>
        <time>2018-09-02T11:15:04Z</time>
      </trkpt>
      <trkpt lat="40.421717" lon="-5.300850">
        <ele>1926.0</ele>
        <time>2018-09-02T11:15:05Z</time>
      </trkpt>
      <trkpt lat="40.421717" lon="-5.300850">
        <ele>1927.0</ele>
        <time>2018-09-02T11:15:06Z</time>
      </trkpt>
      <trkpt lat="40.421717" lon="-5.300850">
        <ele>1927.0</ele>
        <time>2018-09-02T11:15:07Z</time>
      </trkpt>
      <trkpt lat="40.421717" lon="-5.300850">
        <ele>1926.0</ele>
        <time>2018-09-02T11:15:08Z</time>
      </trkpt>
      <trkpt lat="40.421717" lon="-5.300850">
        <ele>1926.0</ele>
        <time>2018-09-02T11:15:09Z</time>
      </trkpt>
      <trkpt lat="40.421717" lon="-5.300850">
        <ele>1927.0</ele>
        <time>2018-09-02T11:15:10Z</time>
      </trkpt>
      <trkpt lat="40.421717" lon="-5.300850">
        <ele>1927.0</ele>
        <time>2018-09-02T11:15:11Z</time>
      </trkpt>
      <trkpt lat="40.421717" lon="-5.300850">
        <ele>1926.0</ele>
        <time>2018-09-02T11:15:12Z</time>
      </trkpt>
      <trkpt lat="40.421717" lon="-5.300850">
        <ele>1925.0</ele>
        <time>2018-09-02T11:15:13Z</time>
      </trkpt>
      <trkpt lat="40.421717" lon="-5.300850">
        <ele>1925.0</ele>
        <time>2018-09-02T11:15:14Z</time>
      </trkpt>
      <trkpt lat="40.421717" lon="-5.300850">
        <ele>1925.0</ele>
        <time>2018-09-02T11:15:15Z</time>
      </trkpt>
      <trkpt lat="40.421717" lon="-5.300850">
        <ele>1925.0</ele>
        <time>2018-09-02T11:15:16Z</time>
      </trkpt>
      <trkpt lat="40.421733" lon="-5.300850">
        <ele>1924.0</ele>
        <time>2018-09-02T11:15:17Z</time>
      </trkpt>
      <trkpt lat="40.421733" lon="-5.300867">
        <ele>1924.0</ele>
        <time>2018-09-02T11:15:18Z</time>
      </trkpt>
      <trkpt lat="40.421717" lon="-5.300867">
        <ele>1924.0</ele>
        <time>2018-09-02T11:15:19Z</time>
      </trkpt>
      <trkpt lat="40.421717" lon="-5.300883">
        <ele>1925.0</ele>
        <time>2018-09-02T11:15:20Z</time>
      </trkpt>
      <trkpt lat="40.421717" lon="-5.300883">
        <ele>1925.0</ele>
        <time>2018-09-02T11:15:21Z</time>
      </trkpt>
      <trkpt lat="40.421717" lon="-5.300883">
        <ele>1925.0</ele>
        <time>2018-09-02T11:15:22Z</time>
      </trkpt>
      <trkpt lat="40.421717" lon="-5.300883">
        <ele>1925.0</ele>
        <time>2018-09-02T11:15:23Z</time>
      </trkpt>
      <trkpt lat="40.421717" lon="-5.300883">
        <ele>1925.0</ele>
        <time>2018-09-02T11:15:24Z</time>
      </trkpt>
      <trkpt lat="40.421717" lon="-5.300883">
        <ele>1925.0</ele>
        <time>2018-09-02T11:15:25Z</time>
      </trkpt>
      <trkpt lat="40.421717" lon="-5.300883">
        <ele>1925.0</ele>
        <time>2018-09-02T11:15:26Z</time>
      </trkpt>
      <trkpt lat="40.421717" lon="-5.300883">
        <ele>1926.0</ele>
        <time>2018-09-02T11:15:27Z</time>
      </trkpt>
      <trkpt lat="40.421717" lon="-5.300900">
        <ele>1925.0</ele>
        <time>2018-09-02T11:15:28Z</time>
      </trkpt>
      <trkpt lat="40.421717" lon="-5.300917">
        <ele>1926.0</ele>
        <time>2018-09-02T11:15:29Z</time>
      </trkpt>
      <trkpt lat="40.421733" lon="-5.300917">
        <ele>1925.0</ele>
        <time>2018-09-02T11:15:30Z</time>
      </trkpt>
      <trkpt lat="40.421717" lon="-5.300917">
        <ele>1925.0</ele>
        <time>2018-09-02T11:15:31Z</time>
      </trkpt>
      <trkpt lat="40.421717" lon="-5.300917">
        <ele>1925.0</ele>
        <time>2018-09-02T11:15:32Z</time>
      </trkpt>
      <trkpt lat="40.421733" lon="-5.300900">
        <ele>1925.0</ele>
        <time>2018-09-02T11:15:33Z</time>
      </trkpt>
      <trkpt lat="40.421750" lon="-5.300900">
        <ele>1925.0</ele>
        <time>2018-09-02T11:15:34Z</time>
      </trkpt>
      <trkpt lat="40.421767" lon="-5.300883">
        <ele>1925.0</ele>
        <time>2018-09-02T11:15:35Z</time>
      </trkpt>
      <trkpt lat="40.421800" lon="-5.300933">
        <ele>1924.0</ele>
        <time>2018-09-02T11:15:36Z</time>
      </trkpt>
      <trkpt lat="40.421817" lon="-5.300950">
        <ele>1925.0</ele>
        <time>2018-09-02T11:15:37Z</time>
      </trkpt>
      <trkpt lat="40.421850" lon="-5.300967">
        <ele>1925.0</ele>
        <time>2018-09-02T11:15:38Z</time>
      </trkpt>
      <trkpt lat="40.421883" lon="-5.300967">
        <ele>1926.0</ele>
        <time>2018-09-02T11:15:39Z</time>
      </trkpt>
      <trkpt lat="40.421917" lon="-5.300950">
        <ele>1926.0</ele>
        <time>2018-09-02T11:15:40Z</time>
      </trkpt>
      <trkpt lat="40.421950" lon="-5.300967">
        <ele>1926.0</ele>
        <time>2018-09-02T11:15:41Z</time>
      </trkpt>
      <trkpt lat="40.421983" lon="-5.301000">
        <ele>1924.0</ele>
        <time>2018-09-02T11:15:42Z</time>
      </trkpt>
      <trkpt lat="40.422017" lon="-5.301050">
        <ele>1921.0</ele>
        <time>2018-09-02T11:15:43Z</time>
      </trkpt>
      <trkpt lat="40.422050" lon="-5.301083">
        <ele>1921.0</ele>
        <time>2018-09-02T11:15:44Z</time>
      </trkpt>
      <trkpt lat="40.422100" lon="-5.301100">
        <ele>1922.0</ele>
        <time>2018-09-02T11:15:45Z</time>
      </trkpt>
      <trkpt lat="40.422133" lon="-5.301100">
        <ele>1924.0</ele>
        <time>2018-09-02T11:15:46Z</time>
      </trkpt>
      <trkpt lat="40.422150" lon="-5.301083">
        <ele>1926.0</ele>
        <time>2018-09-02T11:15:47Z</time>
      </trkpt>
      <trkpt lat="40.422183" lon="-5.301083">
        <ele>1927.0</ele>
        <time>2018-09-02T11:15:48Z</time>
      </trkpt>
      <trkpt lat="40.422200" lon="-5.301100">
        <ele>1927.0</ele>
        <time>2018-09-02T11:15:49Z</time>
      </trkpt>
      <trkpt lat="40.422217" lon="-5.301133">
        <ele>1927.0</ele>
        <time>2018-09-02T11:15:50Z</time>
      </trkpt>
      <trkpt lat="40.422250" lon="-5.301167">
        <ele>1927.0</ele>
        <time>2018-09-02T11:15:51Z</time>
      </trkpt>
      <trkpt lat="40.422267" lon="-5.301200">
        <ele>1928.0</ele>
        <time>2018-09-02T11:15:52Z</time>
      </trkpt>
      <trkpt lat="40.422300" lon="-5.301217">
        <ele>1929.0</ele>
        <time>2018-09-02T11:15:53Z</time>
      </trkpt>
      <trkpt lat="40.422317" lon="-5.301233">
        <ele>1929.0</ele>
        <time>2018-09-02T11:15:54Z</time>
      </trkpt>
      <trkpt lat="40.422350" lon="-5.301250">
        <ele>1928.0</ele>
        <time>2018-09-02T11:15:55Z</time>
      </trkpt>
      <trkpt lat="40.422400" lon="-5.301267">
        <ele>1928.0</ele>
        <time>2018-09-02T11:15:56Z</time>
      </trkpt>
      <trkpt lat="40.422450" lon="-5.301283">
        <ele>1927.0</ele>
        <time>2018-09-02T11:15:57Z</time>
      </trkpt>
      <trkpt lat="40.422483" lon="-5.301300">
        <ele>1928.0</ele>
        <time>2018-09-02T11:15:58Z</time>
      </trkpt>
      <trkpt lat="40.422533" lon="-5.301300">
        <ele>1928.0</ele>
        <time>2018-09-02T11:15:59Z</time>
      </trkpt>
      <trkpt lat="40.422550" lon="-5.301317">
        <ele>1929.0</ele>
        <time>2018-09-02T11:16:00Z</time>
      </trkpt>
      <trkpt lat="40.422583" lon="-5.301317">
        <ele>1929.0</ele>
        <time>2018-09-02T11:16:01Z</time>
      </trkpt>
      <trkpt lat="40.422633" lon="-5.301317">
        <ele>1928.0</ele>
        <time>2018-09-02T11:16:02Z</time>
      </trkpt>
      <trkpt lat="40.422700" lon="-5.301333">
        <ele>1927.0</ele>
        <time>2018-09-02T11:16:03Z</time>
      </trkpt>
      <trkpt lat="40.422750" lon="-5.301367">
        <ele>1926.0</ele>
        <time>2018-09-02T11:16:04Z</time>
      </trkpt>
      <trkpt lat="40.422800" lon="-5.301383">
        <ele>1926.0</ele>
        <time>2018-09-02T11:16:05Z</time>
      </trkpt>
      <trkpt lat="40.422833" lon="-5.301400">
        <ele>1926.0</ele>
        <time>2018-09-02T11:16:06Z</time>
      </trkpt>
      <trkpt lat="40.422883" lon="-5.301383">
        <ele>1926.0</ele>
        <time>2018-09-02T11:16:07Z</time>
      </trkpt>
      <trkpt lat="40.422950" lon="-5.301383">
        <ele>1925.0</ele>
        <time>2018-09-02T11:16:08Z</time>
      </trkpt>
      <trkpt lat="40.423017" lon="-5.301367">
        <ele>1924.0</ele>
        <time>2018-09-02T11:16:09Z</time>
      </trkpt>
      <trkpt lat="40.423083" lon="-5.301367">
        <ele>1923.0</ele>
        <time>2018-09-02T11:16:10Z</time>
      </trkpt>
      <trkpt lat="40.423133" lon="-5.301367">
        <ele>1922.0</ele>
        <time>2018-09-02T11:16:11Z</time>
      </trkpt>
      <trkpt lat="40.423183" lon="-5.301350">
        <ele>1923.0</ele>
        <time>2018-09-02T11:16:12Z</time>
      </trkpt>
      <trkpt lat="40.423233" lon="-5.301333">
        <ele>1923.0</ele>
        <time>2018-09-02T11:16:13Z</time>
      </trkpt>
      <trkpt lat="40.423283" lon="-5.301317">
        <ele>1924.0</ele>
        <time>2018-09-02T11:16:14Z</time>
      </trkpt>
      <trkpt lat="40.423350" lon="-5.301300">
        <ele>1923.0</ele>
        <time>2018-09-02T11:16:15Z</time>
      </trkpt>
      <trkpt lat="40.423417" lon="-5.301283">
        <ele>1923.0</ele>
        <time>2018-09-02T11:16:16Z</time>
      </trkpt>
      <trkpt lat="40.423467" lon="-5.301283">
        <ele>1922.0</ele>
        <time>2018-09-02T11:16:17Z</time>
      </trkpt>
      <trkpt lat="40.423517" lon="-5.301267">
        <ele>1922.0</ele>
        <time>2018-09-02T11:16:18Z</time>
      </trkpt>
      <trkpt lat="40.423567" lon="-5.301250">
        <ele>1923.0</ele>
        <time>2018-09-02T11:16:19Z</time>
      </trkpt>
      <trkpt lat="40.423617" lon="-5.301233">
        <ele>1924.0</ele>
        <time>2018-09-02T11:16:20Z</time>
      </trkpt>
      <trkpt lat="40.423667" lon="-5.301233">
        <ele>1924.0</ele>
        <time>2018-09-02T11:16:21Z</time>
      </trkpt>
      <trkpt lat="40.423733" lon="-5.301233">
        <ele>1923.0</ele>
        <time>2018-09-02T11:16:22Z</time>
      </trkpt>
      <trkpt lat="40.423800" lon="-5.301250">
        <ele>1923.0</ele>
        <time>2018-09-02T11:16:23Z</time>
      </trkpt>
      <trkpt lat="40.423850" lon="-5.301250">
        <ele>1923.0</ele>
        <time>2018-09-02T11:16:24Z</time>
      </trkpt>
      <trkpt lat="40.423917" lon="-5.301233">
        <ele>1923.0</ele>
        <time>2018-09-02T11:16:25Z</time>
      </trkpt>
      <trkpt lat="40.423983" lon="-5.301217">
        <ele>1926.0</ele>
        <time>2018-09-02T11:16:26Z</time>
      </trkpt>
      <trkpt lat="40.424050" lon="-5.301217">
        <ele>1930.0</ele>
        <time>2018-09-02T11:16:27Z</time>
      </trkpt>
      <trkpt lat="40.424100" lon="-5.301200">
        <ele>1932.0</ele>
        <time>2018-09-02T11:16:28Z</time>
      </trkpt>
      <trkpt lat="40.424150" lon="-5.301200">
        <ele>1935.0</ele>
        <time>2018-09-02T11:16:29Z</time>
      </trkpt>
      <trkpt lat="40.424200" lon="-5.301200">
        <ele>1938.0</ele>
        <time>2018-09-02T11:16:30Z</time>
      </trkpt>
      <trkpt lat="40.424250" lon="-5.301200">
        <ele>1939.0</ele>
        <time>2018-09-02T11:16:31Z</time>
      </trkpt>
      <trkpt lat="40.424300" lon="-5.301200">
        <ele>1940.0</ele>
        <time>2018-09-02T11:16:32Z</time>
      </trkpt>
      <trkpt lat="40.424333" lon="-5.301200">
        <ele>1941.0</ele>
        <time>2018-09-02T11:16:33Z</time>
      </trkpt>
      <trkpt lat="40.424367" lon="-5.301217">
        <ele>1941.0</ele>
        <time>2018-09-02T11:16:34Z</time>
      </trkpt>
      <trkpt lat="40.424417" lon="-5.301233">
        <ele>1941.0</ele>
        <time>2018-09-02T11:16:35Z</time>
      </trkpt>
      <trkpt lat="40.424467" lon="-5.301250">
        <ele>1940.0</ele>
        <time>2018-09-02T11:16:36Z</time>
      </trkpt>
      <trkpt lat="40.424533" lon="-5.301250">
        <ele>1939.0</ele>
        <time>2018-09-02T11:16:37Z</time>
      </trkpt>
      <trkpt lat="40.424600" lon="-5.301267">
        <ele>1938.0</ele>
        <time>2018-09-02T11:16:38Z</time>
      </trkpt>
      <trkpt lat="40.424667" lon="-5.301250">
        <ele>1939.0</ele>
        <time>2018-09-02T11:16:39Z</time>
      </trkpt>
      <trkpt lat="40.424733" lon="-5.301217">
        <ele>1940.0</ele>
        <time>2018-09-02T11:16:40Z</time>
      </trkpt>
      <trkpt lat="40.424783" lon="-5.301167">
        <ele>1940.0</ele>
        <time>2018-09-02T11:16:41Z</time>
      </trkpt>
      <trkpt lat="40.424850" lon="-5.301117">
        <ele>1939.0</ele>
        <time>2018-09-02T11:16:42Z</time>
      </trkpt>
      <trkpt lat="40.424917" lon="-5.301083">
        <ele>1938.0</ele>
        <time>2018-09-02T11:16:43Z</time>
      </trkpt>
      <trkpt lat="40.424983" lon="-5.301033">
        <ele>1937.0</ele>
        <time>2018-09-02T11:16:44Z</time>
      </trkpt>
      <trkpt lat="40.425067" lon="-5.300967">
        <ele>1936.0</ele>
        <time>2018-09-02T11:16:45Z</time>
      </trkpt>
      <trkpt lat="40.425133" lon="-5.300917">
        <ele>1935.0</ele>
        <time>2018-09-02T11:16:46Z</time>
      </trkpt>
      <trkpt lat="40.425217" lon="-5.300867">
        <ele>1935.0</ele>
        <time>2018-09-02T11:16:47Z</time>
      </trkpt>
      <trkpt lat="40.425283" lon="-5.300817">
        <ele>1934.0</ele>
        <time>2018-09-02T11:16:48Z</time>
      </trkpt>
      <trkpt lat="40.425367" lon="-5.300750">
        <ele>1933.0</ele>
        <time>2018-09-02T11:16:49Z</time>
      </trkpt>
      <trkpt lat="40.425433" lon="-5.300683">
        <ele>1933.0</ele>
        <time>2018-09-02T11:16:50Z</time>
      </trkpt>
      <trkpt lat="40.425483" lon="-5.300600">
        <ele>1933.0</ele>
        <time>2018-09-02T11:16:51Z</time>
      </trkpt>
      <trkpt lat="40.425550" lon="-5.300533">
        <ele>1934.0</ele>
        <time>2018-09-02T11:16:52Z</time>
      </trkpt>
      <trkpt lat="40.425617" lon="-5.300483">
        <ele>1934.0</ele>
        <time>2018-09-02T11:16:53Z</time>
      </trkpt>
      <trkpt lat="40.425683" lon="-5.300433">
        <ele>1935.0</ele>
        <time>2018-09-02T11:16:54Z</time>
      </trkpt>
      <trkpt lat="40.425750" lon="-5.300367">
        <ele>1937.0</ele>
        <time>2018-09-02T11:16:55Z</time>
      </trkpt>
      <trkpt lat="40.425800" lon="-5.300283">
        <ele>1938.0</ele>
        <time>2018-09-02T11:16:56Z</time>
      </trkpt>
      <trkpt lat="40.425883" lon="-5.300200">
        <ele>1939.0</ele>
        <time>2018-09-02T11:16:57Z</time>
      </trkpt>
      <trkpt lat="40.425950" lon="-5.300150">
        <ele>1940.0</ele>
        <time>2018-09-02T11:16:58Z</time>
      </trkpt>
      <trkpt lat="40.426000" lon="-5.300117">
        <ele>1940.0</ele>
        <time>2018-09-02T11:16:59Z</time>
      </trkpt>
      <trkpt lat="40.426033" lon="-5.300133">
        <ele>1938.0</ele>
        <time>2018-09-02T11:17:00Z</time>
      </trkpt>
      <trkpt lat="40.426083" lon="-5.300167">
        <ele>1936.0</ele>
        <time>2018-09-02T11:17:01Z</time>
      </trkpt>
      <trkpt lat="40.426117" lon="-5.300217">
        <ele>1936.0</ele>
        <time>2018-09-02T11:17:02Z</time>
      </trkpt>
      <trkpt lat="40.426100" lon="-5.300267">
        <ele>1936.0</ele>
        <time>2018-09-02T11:17:03Z</time>
      </trkpt>
      <trkpt lat="40.426050" lon="-5.300300">
        <ele>1936.0</ele>
        <time>2018-09-02T11:17:04Z</time>
      </trkpt>
      <trkpt lat="40.426000" lon="-5.300333">
        <ele>1936.0</ele>
        <time>2018-09-02T11:17:05Z</time>
      </trkpt>
      <trkpt lat="40.425933" lon="-5.300350">
        <ele>1935.0</ele>
        <time>2018-09-02T11:17:06Z</time>
      </trkpt>
      <trkpt lat="40.425867" lon="-5.300383">
        <ele>1935.0</ele>
        <time>2018-09-02T11:17:07Z</time>
      </trkpt>
      <trkpt lat="40.425800" lon="-5.300400">
        <ele>1934.0</ele>
        <time>2018-09-02T11:17:08Z</time>
      </trkpt>
      <trkpt lat="40.425733" lon="-5.300417">
        <ele>1934.0</ele>
        <time>2018-09-02T11:17:09Z</time>
      </trkpt>
      <trkpt lat="40.425667" lon="-5.300450">
        <ele>1933.0</ele>
        <time>2018-09-02T11:17:10Z</time>
      </trkpt>
      <trkpt lat="40.425583" lon="-5.300500">
        <ele>1932.0</ele>
        <time>2018-09-02T11:17:11Z</time>
      </trkpt>
      <trkpt lat="40.425533" lon="-5.300550">
        <ele>1931.0</ele>
        <time>2018-09-02T11:17:12Z</time>
      </trkpt>
      <trkpt lat="40.425467" lon="-5.300583">
        <ele>1932.0</ele>
        <time>2018-09-02T11:17:13Z</time>
      </trkpt>
      <trkpt lat="40.425433" lon="-5.300600">
        <ele>1933.0</ele>
        <time>2018-09-02T11:17:14Z</time>
      </trkpt>
      <trkpt lat="40.425400" lon="-5.300617">
        <ele>1934.0</ele>
        <time>2018-09-02T11:17:15Z</time>
      </trkpt>
      <trkpt lat="40.425350" lon="-5.300650">
        <ele>1935.0</ele>
        <time>2018-09-02T11:17:16Z</time>
      </trkpt>
      <trkpt lat="40.425317" lon="-5.300683">
        <ele>1936.0</ele>
        <time>2018-09-02T11:17:17Z</time>
      </trkpt>
      <trkpt lat="40.425267" lon="-5.300733">
        <ele>1936.0</ele>
        <time>2018-09-02T11:17:18Z</time>
      </trkpt>
      <trkpt lat="40.425233" lon="-5.300767">
        <ele>1936.0</ele>
        <time>2018-09-02T11:17:19Z</time>
      </trkpt>
      <trkpt lat="40.425200" lon="-5.300817">
        <ele>1937.0</ele>
        <time>2018-09-02T11:17:20Z</time>
      </trkpt>
      <trkpt lat="40.425183" lon="-5.300850">
        <ele>1937.0</ele>
        <time>2018-09-02T11:17:21Z</time>
      </trkpt>
      <trkpt lat="40.425167" lon="-5.300867">
        <ele>1938.0</ele>
        <time>2018-09-02T11:17:22Z</time>
      </trkpt>
      <trkpt lat="40.425150" lon="-5.300900">
        <ele>1940.0</ele>
        <time>2018-09-02T11:17:23Z</time>
      </trkpt>
      <trkpt lat="40.425150" lon="-5.300933">
        <ele>1943.0</ele>
        <time>2018-09-02T11:17:24Z</time>
      </trkpt>
      <trkpt lat="40.425133" lon="-5.300967">
        <ele>1944.0</ele>
        <time>2018-09-02T11:17:25Z</time>
      </trkpt>
      <trkpt lat="40.425117" lon="-5.301017">
        <ele>1945.0</ele>
        <time>2018-09-02T11:17:26Z</time>
      </trkpt>
      <trkpt lat="40.425133" lon="-5.301050">
        <ele>1945.0</ele>
        <time>2018-09-02T11:17:27Z</time>
      </trkpt>
      <trkpt lat="40.425167" lon="-5.301067">
        <ele>1945.0</ele>
        <time>2018-09-02T11:17:28Z</time>
      </trkpt>
      <trkpt lat="40.425233" lon="-5.301067">
        <ele>1944.0</ele>
        <time>2018-09-02T11:17:29Z</time>
      </trkpt>
      <trkpt lat="40.425300" lon="-5.301033">
        <ele>1944.0</ele>
        <time>2018-09-02T11:17:30Z</time>
      </trkpt>
      <trkpt lat="40.425367" lon="-5.300950">
        <ele>1944.0</ele>
        <time>2018-09-02T11:17:31Z</time>
      </trkpt>
      <trkpt lat="40.425433" lon="-5.300850">
        <ele>1945.0</ele>
        <time>2018-09-02T11:17:32Z</time>
      </trkpt>
      <trkpt lat="40.425483" lon="-5.300717">
        <ele>1945.0</ele>
        <time>2018-09-02T11:17:33Z</time>
      </trkpt>
      <trkpt lat="40.425533" lon="-5.300583">
        <ele>1944.0</ele>
        <time>2018-09-02T11:17:34Z</time>
      </trkpt>
      <trkpt lat="40.425583" lon="-5.300417">
        <ele>1944.0</ele>
        <time>2018-09-02T11:17:35Z</time>
      </trkpt>
      <trkpt lat="40.425617" lon="-5.300267">
        <ele>1944.0</ele>
        <time>2018-09-02T11:17:36Z</time>
      </trkpt>
      <trkpt lat="40.425667" lon="-5.300150">
        <ele>1946.0</ele>
        <time>2018-09-02T11:17:37Z</time>
      </trkpt>
      <trkpt lat="40.425717" lon="-5.300050">
        <ele>1947.0</ele>
        <time>2018-09-02T11:17:38Z</time>
      </trkpt>
      <trkpt lat="40.425783" lon="-5.299967">
        <ele>1949.0</ele>
        <time>2018-09-02T11:17:39Z</time>
      </trkpt>
      <trkpt lat="40.425850" lon="-5.299917">
        <ele>1950.0</ele>
        <time>2018-09-02T11:17:40Z</time>
      </trkpt>
      <trkpt lat="40.425900" lon="-5.299900">
        <ele>1950.0</ele>
        <time>2018-09-02T11:17:41Z</time>
      </trkpt>
      <trkpt lat="40.425950" lon="-5.299917">
        <ele>1950.0</ele>
        <time>2018-09-02T11:17:42Z</time>
      </trkpt>
      <trkpt lat="40.425950" lon="-5.299967">
        <ele>1950.0</ele>
        <time>2018-09-02T11:17:43Z</time>
      </trkpt>
      <trkpt lat="40.425933" lon="-5.300017">
        <ele>1950.0</ele>
        <time>2018-09-02T11:17:44Z</time>
      </trkpt>
      <trkpt lat="40.425883" lon="-5.300050">
        <ele>1951.0</ele>
        <time>2018-09-02T11:17:45Z</time>
      </trkpt>
      <trkpt lat="40.425833" lon="-5.300067">
        <ele>1954.0</ele>
        <time>2018-09-02T11:17:46Z</time>
      </trkpt>
      <trkpt lat="40.425783" lon="-5.300067">
        <ele>1957.0</ele>
        <time>2018-09-02T11:17:47Z</time>
      </trkpt>
      <trkpt lat="40.425733" lon="-5.300083">
        <ele>1958.0</ele>
        <time>2018-09-02T11:17:48Z</time>
      </trkpt>
      <trkpt lat="40.425667" lon="-5.300100">
        <ele>1958.0</ele>
        <time>2018-09-02T11:17:49Z</time>
      </trkpt>
      <trkpt lat="40.425583" lon="-5.300100">
        <ele>1958.0</ele>
        <time>2018-09-02T11:17:50Z</time>
      </trkpt>
      <trkpt lat="40.425517" lon="-5.300133">
        <ele>1957.0</ele>
        <time>2018-09-02T11:17:51Z</time>
      </trkpt>
      <trkpt lat="40.425450" lon="-5.300150">
        <ele>1958.0</ele>
        <time>2018-09-02T11:17:52Z</time>
      </trkpt>
      <trkpt lat="40.425383" lon="-5.300183">
        <ele>1959.0</ele>
        <time>2018-09-02T11:17:53Z</time>
      </trkpt>
      <trkpt lat="40.425317" lon="-5.300200">
        <ele>1961.0</ele>
        <time>2018-09-02T11:17:54Z</time>
      </trkpt>
      <trkpt lat="40.425250" lon="-5.300233">
        <ele>1964.0</ele>
        <time>2018-09-02T11:17:55Z</time>
      </trkpt>
      <trkpt lat="40.425167" lon="-5.300267">
        <ele>1967.0</ele>
        <time>2018-09-02T11:17:56Z</time>
      </trkpt>
      <trkpt lat="40.425117" lon="-5.300283">
        <ele>1970.0</ele>
        <time>2018-09-02T11:17:57Z</time>
      </trkpt>
      <trkpt lat="40.425067" lon="-5.300317">
        <ele>1973.0</ele>
        <time>2018-09-02T11:17:58Z</time>
      </trkpt>
      <trkpt lat="40.425067" lon="-5.300350">
        <ele>1975.0</ele>
        <time>2018-09-02T11:17:59Z</time>
      </trkpt>
      <trkpt lat="40.425100" lon="-5.300383">
        <ele>1977.0</ele>
        <time>2018-09-02T11:18:00Z</time>
      </trkpt>
      <trkpt lat="40.425167" lon="-5.300383">
        <ele>1979.0</ele>
        <time>2018-09-02T11:18:01Z</time>
      </trkpt>
      <trkpt lat="40.425233" lon="-5.300333">
        <ele>1980.0</ele>
        <time>2018-09-02T11:18:02Z</time>
      </trkpt>
      <trkpt lat="40.425333" lon="-5.300250">
        <ele>1979.0</ele>
        <time>2018-09-02T11:18:03Z</time>
      </trkpt>
      <trkpt lat="40.425433" lon="-5.300133">
        <ele>1979.0</ele>
        <time>2018-09-02T11:18:04Z</time>
      </trkpt>
      <trkpt lat="40.425500" lon="-5.299950">
        <ele>1979.0</ele>
        <time>2018-09-02T11:18:05Z</time>
      </trkpt>
      <trkpt lat="40.425533" lon="-5.299750">
        <ele>1979.0</ele>
        <time>2018-09-02T11:18:06Z</time>
      </trkpt>
      <trkpt lat="40.425583" lon="-5.299583">
        <ele>1980.0</ele>
        <time>2018-09-02T11:18:07Z</time>
      </trkpt>
      <trkpt lat="40.425650" lon="-5.299433">
        <ele>1983.0</ele>
        <time>2018-09-02T11:18:08Z</time>
      </trkpt>
      <trkpt lat="40.425700" lon="-5.299300">
        <ele>1983.0</ele>
        <time>2018-09-02T11:18:09Z</time>
      </trkpt>
      <trkpt lat="40.425783" lon="-5.299183">
        <ele>1983.0</ele>
        <time>2018-09-02T11:18:10Z</time>
      </trkpt>
      <trkpt lat="40.425867" lon="-5.299100">
        <ele>1981.0</ele>
        <time>2018-09-02T11:18:11Z</time>
      </trkpt>
      <trkpt lat="40.425950" lon="-5.299083">
        <ele>1979.0</ele>
        <time>2018-09-02T11:18:12Z</time>
      </trkpt>
      <trkpt lat="40.426000" lon="-5.299100">
        <ele>1979.0</ele>
        <time>2018-09-02T11:18:13Z</time>
      </trkpt>
      <trkpt lat="40.426000" lon="-5.299150">
        <ele>1977.0</ele>
        <time>2018-09-02T11:18:14Z</time>
      </trkpt>
      <trkpt lat="40.425983" lon="-5.299183">
        <ele>1977.0</ele>
        <time>2018-09-02T11:18:15Z</time>
      </trkpt>
      <trkpt lat="40.425933" lon="-5.299200">
        <ele>1978.0</ele>
        <time>2018-09-02T11:18:16Z</time>
      </trkpt>
      <trkpt lat="40.425900" lon="-5.299183">
        <ele>1979.0</ele>
        <time>2018-09-02T11:18:17Z</time>
      </trkpt>
      <trkpt lat="40.425867" lon="-5.299200">
        <ele>1980.0</ele>
        <time>2018-09-02T11:18:18Z</time>
      </trkpt>
      <trkpt lat="40.425817" lon="-5.299217">
        <ele>1979.0</ele>
        <time>2018-09-02T11:18:19Z</time>
      </trkpt>
      <trkpt lat="40.425783" lon="-5.299250">
        <ele>1976.0</ele>
        <time>2018-09-02T11:18:20Z</time>
      </trkpt>
      <trkpt lat="40.425733" lon="-5.299300">
        <ele>1974.0</ele>
        <time>2018-09-02T11:18:21Z</time>
      </trkpt>
      <trkpt lat="40.425700" lon="-5.299333">
        <ele>1973.0</ele>
        <time>2018-09-02T11:18:22Z</time>
      </trkpt>
      <trkpt lat="40.425650" lon="-5.299383">
        <ele>1973.0</ele>
        <time>2018-09-02T11:18:23Z</time>
      </trkpt>
      <trkpt lat="40.425617" lon="-5.299417">
        <ele>1973.0</ele>
        <time>2018-09-02T11:18:24Z</time>
      </trkpt>
      <trkpt lat="40.425567" lon="-5.299450">
        <ele>1973.0</ele>
        <time>2018-09-02T11:18:25Z</time>
      </trkpt>
      <trkpt lat="40.425517" lon="-5.299467">
        <ele>1974.0</ele>
        <time>2018-09-02T11:18:26Z</time>
      </trkpt>
      <trkpt lat="40.425467" lon="-5.299483">
        <ele>1975.0</ele>
        <time>2018-09-02T11:18:27Z</time>
      </trkpt>
      <trkpt lat="40.425417" lon="-5.299500">
        <ele>1976.0</ele>
        <time>2018-09-02T11:18:28Z</time>
      </trkpt>
      <trkpt lat="40.425383" lon="-5.299500">
        <ele>1977.0</ele>
        <time>2018-09-02T11:18:29Z</time>
      </trkpt>
      <trkpt lat="40.425333" lon="-5.299517">
        <ele>1977.0</ele>
        <time>2018-09-02T11:18:30Z</time>
      </trkpt>
      <trkpt lat="40.425300" lon="-5.299533">
        <ele>1977.0</ele>
        <time>2018-09-02T11:18:31Z</time>
      </trkpt>
      <trkpt lat="40.425250" lon="-5.299550">
        <ele>1977.0</ele>
        <time>2018-09-02T11:18:32Z</time>
      </trkpt>
      <trkpt lat="40.425200" lon="-5.299583">
        <ele>1976.0</ele>
        <time>2018-09-02T11:18:33Z</time>
      </trkpt>
      <trkpt lat="40.425150" lon="-5.299633">
        <ele>1975.0</ele>
        <time>2018-09-02T11:18:34Z</time>
      </trkpt>
      <trkpt lat="40.425100" lon="-5.299667">
        <ele>1974.0</ele>
        <time>2018-09-02T11:18:35Z</time>
      </trkpt>
      <trkpt lat="40.425050" lon="-5.299700">
        <ele>1973.0</ele>
        <time>2018-09-02T11:18:36Z</time>
      </trkpt>
      <trkpt lat="40.424983" lon="-5.299733">
        <ele>1972.0</ele>
        <time>2018-09-02T11:18:37Z</time>
      </trkpt>
      <trkpt lat="40.424917" lon="-5.299750">
        <ele>1971.0</ele>
        <time>2018-09-02T11:18:38Z</time>
      </trkpt>
      <trkpt lat="40.424867" lon="-5.299800">
        <ele>1971.0</ele>
        <time>2018-09-02T11:18:39Z</time>
      </trkpt>
      <trkpt lat="40.424817" lon="-5.299850">
        <ele>1971.0</ele>
        <time>2018-09-02T11:18:40Z</time>
      </trkpt>
      <trkpt lat="40.424750" lon="-5.299933">
        <ele>1971.0</ele>
        <time>2018-09-02T11:18:41Z</time>
      </trkpt>
      <trkpt lat="40.424667" lon="-5.300000">
        <ele>1971.0</ele>
        <time>2018-09-02T11:18:42Z</time>
      </trkpt>
      <trkpt lat="40.424600" lon="-5.300050">
        <ele>1973.0</ele>
        <time>2018-09-02T11:18:43Z</time>
      </trkpt>
      <trkpt lat="40.424550" lon="-5.300100">
        <ele>1976.0</ele>
        <time>2018-09-02T11:18:44Z</time>
      </trkpt>
      <trkpt lat="40.424500" lon="-5.300133">
        <ele>1979.0</ele>
        <time>2018-09-02T11:18:45Z</time>
      </trkpt>
      <trkpt lat="40.424467" lon="-5.300167">
        <ele>1980.0</ele>
        <time>2018-09-02T11:18:46Z</time>
      </trkpt>
      <trkpt lat="40.424417" lon="-5.300217">
        <ele>1979.0</ele>
        <time>2018-09-02T11:18:47Z</time>
      </trkpt>
      <trkpt lat="40.424383" lon="-5.300267">
        <ele>1978.0</ele>
        <time>2018-09-02T11:18:48Z</time>
      </trkpt>
      <trkpt lat="40.424383" lon="-5.300317">
        <ele>1978.0</ele>
        <time>2018-09-02T11:18:49Z</time>
      </trkpt>
      <trkpt lat="40.424400" lon="-5.300333">
        <ele>1979.0</ele>
        <time>2018-09-02T11:18:50Z</time>
      </trkpt>
      <trkpt lat="40.424483" lon="-5.300333">
        <ele>1979.0</ele>
        <time>2018-09-02T11:18:51Z</time>
      </trkpt>
      <trkpt lat="40.424567" lon="-5.300283">
        <ele>1979.0</ele>
        <time>2018-09-02T11:18:52Z</time>
      </trkpt>
      <trkpt lat="40.424650" lon="-5.300183">
        <ele>1978.0</ele>
        <time>2018-09-02T11:18:53Z</time>
      </trkpt>
      <trkpt lat="40.424700" lon="-5.300033">
        <ele>1978.0</ele>
        <time>2018-09-02T11:18:54Z</time>
      </trkpt>
      <trkpt lat="40.424750" lon="-5.299883">
        <ele>1979.0</ele>
        <time>2018-09-02T11:18:55Z</time>
      </trkpt>
      <trkpt lat="40.424833" lon="-5.299767">
        <ele>1979.0</ele>
        <time>2018-09-02T11:18:56Z</time>
      </trkpt>
      <trkpt lat="40.424900" lon="-5.299683">
        <ele>1980.0</ele>
        <time>2018-09-02T11:18:57Z</time>
      </trkpt>
      <trkpt lat="40.424983" lon="-5.299617">
        <ele>1979.0</ele>
        <time>2018-09-02T11:18:58Z</time>
      </trkpt>
      <trkpt lat="40.425050" lon="-5.299583">
        <ele>1979.0</ele>
        <time>2018-09-02T11:18:59Z</time>
      </trkpt>
      <trkpt lat="40.425117" lon="-5.299567">
        <ele>1979.0</ele>
        <time>2018-09-02T11:19:00Z</time>
      </trkpt>
      <trkpt lat="40.425183" lon="-5.299567">
        <ele>1978.0</ele>
        <time>2018-09-02T11:19:01Z</time>
      </trkpt>
      <trkpt lat="40.425200" lon="-5.299617">
        <ele>1978.0</ele>
        <time>2018-09-02T11:19:02Z</time>
      </trkpt>
      <trkpt lat="40.425217" lon="-5.299667">
        <ele>1978.0</ele>
        <time>2018-09-02T11:19:03Z</time>
      </trkpt>
      <trkpt lat="40.425200" lon="-5.299700">
        <ele>1979.0</ele>
        <time>2018-09-02T11:19:04Z</time>
      </trkpt>
      <trkpt lat="40.425150" lon="-5.299733">
        <ele>1980.0</ele>
        <time>2018-09-02T11:19:05Z</time>
      </trkpt>
      <trkpt lat="40.425100" lon="-5.299750">
        <ele>1982.0</ele>
        <time>2018-09-02T11:19:06Z</time>
      </trkpt>
      <trkpt lat="40.425050" lon="-5.299750">
        <ele>1984.0</ele>
        <time>2018-09-02T11:19:07Z</time>
      </trkpt>
      <trkpt lat="40.425000" lon="-5.299750">
        <ele>1985.0</ele>
        <time>2018-09-02T11:19:08Z</time>
      </trkpt>
      <trkpt lat="40.424950" lon="-5.299750">
        <ele>1986.0</ele>
        <time>2018-09-02T11:19:09Z</time>
      </trkpt>
      <trkpt lat="40.424917" lon="-5.299767">
        <ele>1987.0</ele>
        <time>2018-09-02T11:19:10Z</time>
      </trkpt>
      <trkpt lat="40.424867" lon="-5.299783">
        <ele>1986.0</ele>
        <time>2018-09-02T11:19:11Z</time>
      </trkpt>
      <trkpt lat="40.424817" lon="-5.299833">
        <ele>1986.0</ele>
        <time>2018-09-02T11:19:12Z</time>
      </trkpt>
      <trkpt lat="40.424800" lon="-5.299867">
        <ele>1986.0</ele>
        <time>2018-09-02T11:19:13Z</time>
      </trkpt>
      <trkpt lat="40.424767" lon="-5.299917">
        <ele>1986.0</ele>
        <time>2018-09-02T11:19:14Z</time>
      </trkpt>
      <trkpt lat="40.424750" lon="-5.299950">
        <ele>1987.0</ele>
        <time>2018-09-02T11:19:15Z</time>
      </trkpt>
      <trkpt lat="40.424700" lon="-5.299983">
        <ele>1988.0</ele>
        <time>2018-09-02T11:19:16Z</time>
      </trkpt>
      <trkpt lat="40.424667" lon="-5.300000">
        <ele>1990.0</ele>
        <time>2018-09-02T11:19:17Z</time>
      </trkpt>
      <trkpt lat="40.424650" lon="-5.300017">
        <ele>1992.0</ele>
        <time>2018-09-02T11:19:18Z</time>
      </trkpt>
      <trkpt lat="40.424633" lon="-5.300033">
        <ele>1994.0</ele>
        <time>2018-09-02T11:19:19Z</time>
      </trkpt>
      <trkpt lat="40.424617" lon="-5.300050">
        <ele>1996.0</ele>
        <time>2018-09-02T11:19:20Z</time>
      </trkpt>
      <trkpt lat="40.424600" lon="-5.300067">
        <ele>1998.0</ele>
        <time>2018-09-02T11:19:21Z</time>
      </trkpt>
      <trkpt lat="40.424583" lon="-5.300083">
        <ele>1999.0</ele>
        <time>2018-09-02T11:19:22Z</time>
      </trkpt>
      <trkpt lat="40.424567" lon="-5.300100">
        <ele>1999.0</ele>
        <time>2018-09-02T11:19:23Z</time>
      </trkpt>
      <trkpt lat="40.424567" lon="-5.300133">
        <ele>1998.0</ele>
        <time>2018-09-02T11:19:24Z</time>
      </trkpt>
      <trkpt lat="40.424583" lon="-5.300167">
        <ele>1998.0</ele>
        <time>2018-09-02T11:19:25Z</time>
      </trkpt>
      <trkpt lat="40.424617" lon="-5.300183">
        <ele>1997.0</ele>
        <time>2018-09-02T11:19:26Z</time>
      </trkpt>
      <trkpt lat="40.424700" lon="-5.300183">
        <ele>1995.0</ele>
        <time>2018-09-02T11:19:27Z</time>
      </trkpt>
      <trkpt lat="40.424783" lon="-5.300133">
        <ele>1994.0</ele>
        <time>2018-09-02T11:19:28Z</time>
      </trkpt>
      <trkpt lat="40.424883" lon="-5.300050">
        <ele>1994.0</ele>
        <time>2018-09-02T11:19:29Z</time>
      </trkpt>
      <trkpt lat="40.424967" lon="-5.299950">
        <ele>1993.0</ele>
        <time>2018-09-02T11:19:30Z</time>
      </trkpt>
      <trkpt lat="40.425033" lon="-5.299817">
        <ele>1992.0</ele>
        <time>2018-09-02T11:19:31Z</time>
      </trkpt>
      <trkpt lat="40.425117" lon="-5.299700">
        <ele>1992.0</ele>
        <time>2018-09-02T11:19:32Z</time>
      </trkpt>
      <trkpt lat="40.425183" lon="-5.299600">
        <ele>1992.0</ele>
        <time>2018-09-02T11:19:33Z</time>
      </trkpt>
      <trkpt lat="40.425267" lon="-5.299500">
        <ele>1992.0</ele>
        <time>2018-09-02T11:19:34Z</time>
      </trkpt>
      <trkpt lat="40.425333" lon="-5.299400">
        <ele>1992.0</ele>
        <time>2018-09-02T11:19:35Z</time>
      </trkpt>
      <trkpt lat="40.425400" lon="-5.299283">
        <ele>1992.0</ele>
        <time>2018-09-02T11:19:36Z</time>
      </trkpt>
      <trkpt lat="40.425483" lon="-5.299183">
        <ele>1993.0</ele>
        <time>2018-09-02T11:19:37Z</time>
      </trkpt>
      <trkpt lat="40.425567" lon="-5.299067">
        <ele>1993.0</ele>
        <time>2018-09-02T11:19:38Z</time>
      </trkpt>
      <trkpt lat="40.425633" lon="-5.298950">
        <ele>1993.0</ele>
        <time>2018-09-02T11:19:39Z</time>
      </trkpt>
      <trkpt lat="40.425683" lon="-5.298850">
        <ele>1994.0</ele>
        <time>2018-09-02T11:19:40Z</time>
      </trkpt>
      <trkpt lat="40.425750" lon="-5.298733">
        <ele>1993.0</ele>
        <time>2018-09-02T11:19:41Z</time>
      </trkpt>
      <trkpt lat="40.425817" lon="-5.298617">
        <ele>1992.0</ele>
        <time>2018-09-02T11:19:42Z</time>
      </trkpt>
      <trkpt lat="40.425900" lon="-5.298500">
        <ele>1990.0</ele>
        <time>2018-09-02T11:19:43Z</time>
      </trkpt>
      <trkpt lat="40.426000" lon="-5.298400">
        <ele>1989.0</ele>
        <time>2018-09-02T11:19:44Z</time>
      </trkpt>
      <trkpt lat="40.426100" lon="-5.298300">
        <ele>1988.0</ele>
        <time>2018-09-02T11:19:45Z</time>
      </trkpt>
      <trkpt lat="40.426183" lon="-5.298200">
        <ele>1988.0</ele>
        <time>2018-09-02T11:19:46Z</time>
      </trkpt>
      <trkpt lat="40.426283" lon="-5.298117">
        <ele>1988.0</ele>
        <time>2018-09-02T11:19:47Z</time>
      </trkpt>
      <trkpt lat="40.426367" lon="-5.298033">
        <ele>1988.0</ele>
        <time>2018-09-02T11:19:48Z</time>
      </trkpt>
      <trkpt lat="40.426467" lon="-5.297950">
        <ele>1989.0</ele>
        <time>2018-09-02T11:19:49Z</time>
      </trkpt>
      <trkpt lat="40.426550" lon="-5.297850">
        <ele>1989.0</ele>
        <time>2018-09-02T11:19:50Z</time>
      </trkpt>
      <trkpt lat="40.426633" lon="-5.297733">
        <ele>1988.0</ele>
        <time>2018-09-02T11:19:51Z</time>
      </trkpt>
      <trkpt lat="40.426717" lon="-5.297633">
        <ele>1987.0</ele>
        <time>2018-09-02T11:19:52Z</time>
      </trkpt>
      <trkpt lat="40.426800" lon="-5.297500">
        <ele>1986.0</ele>
        <time>2018-09-02T11:19:53Z</time>
      </trkpt>
      <trkpt lat="40.426883" lon="-5.297383">
        <ele>1986.0</ele>
        <time>2018-09-02T11:19:54Z</time>
      </trkpt>
      <trkpt lat="40.426950" lon="-5.297283">
        <ele>1985.0</ele>
        <time>2018-09-02T11:19:55Z</time>
      </trkpt>
      <trkpt lat="40.427033" lon="-5.297167">
        <ele>1985.0</ele>
        <time>2018-09-02T11:19:56Z</time>
      </trkpt>
      <trkpt lat="40.427117" lon="-5.297067">
        <ele>1984.0</ele>
        <time>2018-09-02T11:19:57Z</time>
      </trkpt>
      <trkpt lat="40.427200" lon="-5.296967">
        <ele>1984.0</ele>
        <time>2018-09-02T11:19:58Z</time>
      </trkpt>
      <trkpt lat="40.427300" lon="-5.296867">
        <ele>1982.0</ele>
        <time>2018-09-02T11:19:59Z</time>
      </trkpt>
      <trkpt lat="40.427417" lon="-5.296783">
        <ele>1982.0</ele>
        <time>2018-09-02T11:20:00Z</time>
      </trkpt>
      <trkpt lat="40.427500" lon="-5.296717">
        <ele>1983.0</ele>
        <time>2018-09-02T11:20:01Z</time>
      </trkpt>
      <trkpt lat="40.427583" lon="-5.296617">
        <ele>1987.0</ele>
        <time>2018-09-02T11:20:02Z</time>
      </trkpt>
      <trkpt lat="40.427650" lon="-5.296517">
        <ele>1991.0</ele>
        <time>2018-09-02T11:20:03Z</time>
      </trkpt>
      <trkpt lat="40.427700" lon="-5.296433">
        <ele>1994.0</ele>
        <time>2018-09-02T11:20:04Z</time>
      </trkpt>
      <trkpt lat="40.427767" lon="-5.296367">
        <ele>1996.0</ele>
        <time>2018-09-02T11:20:05Z</time>
      </trkpt>
      <trkpt lat="40.427850" lon="-5.296317">
        <ele>1997.0</ele>
        <time>2018-09-02T11:20:06Z</time>
      </trkpt>
      <trkpt lat="40.427933" lon="-5.296267">
        <ele>1998.0</ele>
        <time>2018-09-02T11:20:07Z</time>
      </trkpt>
      <trkpt lat="40.428017" lon="-5.296200">
        <ele>1999.0</ele>
        <time>2018-09-02T11:20:08Z</time>
      </trkpt>
      <trkpt lat="40.428083" lon="-5.296167">
        <ele>2002.0</ele>
        <time>2018-09-02T11:20:09Z</time>
      </trkpt>
      <trkpt lat="40.428167" lon="-5.296133">
        <ele>2004.0</ele>
        <time>2018-09-02T11:20:10Z</time>
      </trkpt>
      <trkpt lat="40.428233" lon="-5.296133">
        <ele>2007.0</ele>
        <time>2018-09-02T11:20:11Z</time>
      </trkpt>
      <trkpt lat="40.428300" lon="-5.296133">
        <ele>2008.0</ele>
        <time>2018-09-02T11:20:12Z</time>
      </trkpt>
      <trkpt lat="40.428367" lon="-5.296117">
        <ele>2010.0</ele>
        <time>2018-09-02T11:20:13Z</time>
      </trkpt>
      <trkpt lat="40.428450" lon="-5.296117">
        <ele>2011.0</ele>
        <time>2018-09-02T11:20:14Z</time>
      </trkpt>
      <trkpt lat="40.428550" lon="-5.296100">
        <ele>2012.0</ele>
        <time>2018-09-02T11:20:15Z</time>
      </trkpt>
      <trkpt lat="40.428633" lon="-5.296050">
        <ele>2013.0</ele>
        <time>2018-09-02T11:20:16Z</time>
      </trkpt>
      <trkpt lat="40.428733" lon="-5.295950">
        <ele>2014.0</ele>
        <time>2018-09-02T11:20:17Z</time>
      </trkpt>
      <trkpt lat="40.428783" lon="-5.295800">
        <ele>2015.0</ele>
        <time>2018-09-02T11:20:18Z</time>
      </trkpt>
      <trkpt lat="40.428817" lon="-5.295617">
        <ele>2015.0</ele>
        <time>2018-09-02T11:20:19Z</time>
      </trkpt>
      <trkpt lat="40.428783" lon="-5.295433">
        <ele>2015.0</ele>
        <time>2018-09-02T11:20:20Z</time>
      </trkpt>
      <trkpt lat="40.428717" lon="-5.295283">
        <ele>2016.0</ele>
        <time>2018-09-02T11:20:21Z</time>
      </trkpt>
      <trkpt lat="40.428617" lon="-5.295183">
        <ele>2017.0</ele>
        <time>2018-09-02T11:20:22Z</time>
      </trkpt>
      <trkpt lat="40.428517" lon="-5.295150">
        <ele>2017.0</ele>
        <time>2018-09-02T11:20:23Z</time>
      </trkpt>
      <trkpt lat="40.428433" lon="-5.295183">
        <ele>2016.0</ele>
        <time>2018-09-02T11:20:24Z</time>
      </trkpt>
      <trkpt lat="40.428367" lon="-5.295233">
        <ele>2015.0</ele>
        <time>2018-09-02T11:20:25Z</time>
      </trkpt>
      <trkpt lat="40.428333" lon="-5.295300">
        <ele>2018.0</ele>
        <time>2018-09-02T11:20:26Z</time>
      </trkpt>
      <trkpt lat="40.428300" lon="-5.295350">
        <ele>2021.0</ele>
        <time>2018-09-02T11:20:27Z</time>
      </trkpt>
      <trkpt lat="40.428267" lon="-5.295400">
        <ele>2022.0</ele>
        <time>2018-09-02T11:20:28Z</time>
      </trkpt>
      <trkpt lat="40.428250" lon="-5.295433">
        <ele>2024.0</ele>
        <time>2018-09-02T11:20:29Z</time>
      </trkpt>
      <trkpt lat="40.428217" lon="-5.295483">
        <ele>2025.0</ele>
        <time>2018-09-02T11:20:30Z</time>
      </trkpt>
      <trkpt lat="40.428217" lon="-5.295517">
        <ele>2026.0</ele>
        <time>2018-09-02T11:20:31Z</time>
      </trkpt>
      <trkpt lat="40.428233" lon="-5.295567">
        <ele>2026.0</ele>
        <time>2018-09-02T11:20:32Z</time>
      </trkpt>
      <trkpt lat="40.428250" lon="-5.295617">
        <ele>2027.0</ele>
        <time>2018-09-02T11:20:33Z</time>
      </trkpt>
      <trkpt lat="40.428300" lon="-5.295633">
        <ele>2028.0</ele>
        <time>2018-09-02T11:20:34Z</time>
      </trkpt>
      <trkpt lat="40.428383" lon="-5.295633">
        <ele>2029.0</ele>
        <time>2018-09-02T11:20:35Z</time>
      </trkpt>
      <trkpt lat="40.428483" lon="-5.295600">
        <ele>2029.0</ele>
        <time>2018-09-02T11:20:36Z</time>
      </trkpt>
      <trkpt lat="40.428583" lon="-5.295517">
        <ele>2029.0</ele>
        <time>2018-09-02T11:20:37Z</time>
      </trkpt>
      <trkpt lat="40.428683" lon="-5.295417">
        <ele>2028.0</ele>
        <time>2018-09-02T11:20:38Z</time>
      </trkpt>
      <trkpt lat="40.428767" lon="-5.295267">
        <ele>2028.0</ele>
        <time>2018-09-02T11:20:39Z</time>
      </trkpt>
      <trkpt lat="40.428800" lon="-5.295100">
        <ele>2028.0</ele>
        <time>2018-09-02T11:20:40Z</time>
      </trkpt>
      <trkpt lat="40.428783" lon="-5.294917">
        <ele>2029.0</ele>
        <time>2018-09-02T11:20:41Z</time>
      </trkpt>
      <trkpt lat="40.428750" lon="-5.294750">
        <ele>2029.0</ele>
        <time>2018-09-02T11:20:42Z</time>
      </trkpt>
      <trkpt lat="40.428683" lon="-5.294617">
        <ele>2030.0</ele>
        <time>2018-09-02T11:20:43Z</time>
      </trkpt>
      <trkpt lat="40.428600" lon="-5.294517">
        <ele>2031.0</ele>
        <time>2018-09-02T11:20:44Z</time>
      </trkpt>
      <trkpt lat="40.428517" lon="-5.294467">
        <ele>2031.0</ele>
        <time>2018-09-02T11:20:45Z</time>
      </trkpt>
      <trkpt lat="40.428433" lon="-5.294450">
        <ele>2031.0</ele>
        <time>2018-09-02T11:20:46Z</time>
      </trkpt>
      <trkpt lat="40.428350" lon="-5.294467">
        <ele>2033.0</ele>
        <time>2018-09-02T11:20:47Z</time>
      </trkpt>
      <trkpt lat="40.428283" lon="-5.294483">
        <ele>2035.0</ele>
        <time>2018-09-02T11:20:48Z</time>
      </trkpt>
      <trkpt lat="40.428233" lon="-5.294500">
        <ele>2037.0</ele>
        <time>2018-09-02T11:20:49Z</time>
      </trkpt>
      <trkpt lat="40.428200" lon="-5.294517">
        <ele>2039.0</ele>
        <time>2018-09-02T11:20:50Z</time>
      </trkpt>
      <trkpt lat="40.428183" lon="-5.294533">
        <ele>2041.0</ele>
        <time>2018-09-02T11:20:51Z</time>
      </trkpt>
      <trkpt lat="40.428167" lon="-5.294550">
        <ele>2041.0</ele>
        <time>2018-09-02T11:20:52Z</time>
      </trkpt>
      <trkpt lat="40.428150" lon="-5.294583">
        <ele>2040.0</ele>
        <time>2018-09-02T11:20:53Z</time>
      </trkpt>
      <trkpt lat="40.428150" lon="-5.294633">
        <ele>2038.0</ele>
        <time>2018-09-02T11:20:54Z</time>
      </trkpt>
      <trkpt lat="40.428150" lon="-5.294683">
        <ele>2036.0</ele>
        <time>2018-09-02T11:20:55Z</time>
      </trkpt>
      <trkpt lat="40.428183" lon="-5.294750">
        <ele>2035.0</ele>
        <time>2018-09-02T11:20:56Z</time>
      </trkpt>
      <trkpt lat="40.428250" lon="-5.294783">
        <ele>2033.0</ele>
        <time>2018-09-02T11:20:57Z</time>
      </trkpt>
      <trkpt lat="40.428350" lon="-5.294767">
        <ele>2031.0</ele>
        <time>2018-09-02T11:20:58Z</time>
      </trkpt>
      <trkpt lat="40.428467" lon="-5.294717">
        <ele>2029.0</ele>
        <time>2018-09-02T11:20:59Z</time>
      </trkpt>
      <trkpt lat="40.428567" lon="-5.294633">
        <ele>2028.0</ele>
        <time>2018-09-02T11:21:00Z</time>
      </trkpt>
      <trkpt lat="40.428650" lon="-5.294517">
        <ele>2027.0</ele>
        <time>2018-09-02T11:21:01Z</time>
      </trkpt>
      <trkpt lat="40.428717" lon="-5.294367">
        <ele>2026.0</ele>
        <time>2018-09-02T11:21:02Z</time>
      </trkpt>
      <trkpt lat="40.428767" lon="-5.294200">
        <ele>2025.0</ele>
        <time>2018-09-02T11:21:03Z</time>
      </trkpt>
      <trkpt lat="40.428800" lon="-5.294033">
        <ele>2024.0</ele>
        <time>2018-09-02T11:21:04Z</time>
      </trkpt>
      <trkpt lat="40.428767" lon="-5.293850">
        <ele>2023.0</ele>
        <time>2018-09-02T11:21:05Z</time>
      </trkpt>
      <trkpt lat="40.428733" lon="-5.293700">
        <ele>2022.0</ele>
        <time>2018-09-02T11:21:06Z</time>
      </trkpt>
      <trkpt lat="40.428667" lon="-5.293550">
        <ele>2022.0</ele>
        <time>2018-09-02T11:21:07Z</time>
      </trkpt>
      <trkpt lat="40.428617" lon="-5.293450">
        <ele>2024.0</ele>
        <time>2018-09-02T11:21:08Z</time>
      </trkpt>
      <trkpt lat="40.428550" lon="-5.293367">
        <ele>2024.0</ele>
        <time>2018-09-02T11:21:09Z</time>
      </trkpt>
      <trkpt lat="40.428483" lon="-5.293317">
        <ele>2024.0</ele>
        <time>2018-09-02T11:21:10Z</time>
      </trkpt>
      <trkpt lat="40.428400" lon="-5.293283">
        <ele>2023.0</ele>
        <time>2018-09-02T11:21:11Z</time>
      </trkpt>
      <trkpt lat="40.428317" lon="-5.293300">
        <ele>2022.0</ele>
        <time>2018-09-02T11:21:12Z</time>
      </trkpt>
      <trkpt lat="40.428233" lon="-5.293350">
        <ele>2022.0</ele>
        <time>2018-09-02T11:21:13Z</time>
      </trkpt>
      <trkpt lat="40.428200" lon="-5.293417">
        <ele>2023.0</ele>
        <time>2018-09-02T11:21:14Z</time>
      </trkpt>
      <trkpt lat="40.428183" lon="-5.293467">
        <ele>2025.0</ele>
        <time>2018-09-02T11:21:15Z</time>
      </trkpt>
      <trkpt lat="40.428217" lon="-5.293533">
        <ele>2025.0</ele>
        <time>2018-09-02T11:21:16Z</time>
      </trkpt>
      <trkpt lat="40.428250" lon="-5.293583">
        <ele>2025.0</ele>
        <time>2018-09-02T11:21:17Z</time>
      </trkpt>
      <trkpt lat="40.428317" lon="-5.293633">
        <ele>2025.0</ele>
        <time>2018-09-02T11:21:18Z</time>
      </trkpt>
      <trkpt lat="40.428400" lon="-5.293650">
        <ele>2025.0</ele>
        <time>2018-09-02T11:21:19Z</time>
      </trkpt>
      <trkpt lat="40.428500" lon="-5.293633">
        <ele>2025.0</ele>
        <time>2018-09-02T11:21:20Z</time>
      </trkpt>
      <trkpt lat="40.428600" lon="-5.293583">
        <ele>2024.0</ele>
        <time>2018-09-02T11:21:21Z</time>
      </trkpt>
      <trkpt lat="40.428683" lon="-5.293483">
        <ele>2023.0</ele>
        <time>2018-09-02T11:21:22Z</time>
      </trkpt>
      <trkpt lat="40.428767" lon="-5.293350">
        <ele>2022.0</ele>
        <time>2018-09-02T11:21:23Z</time>
      </trkpt>
      <trkpt lat="40.428833" lon="-5.293217">
        <ele>2020.0</ele>
        <time>2018-09-02T11:21:24Z</time>
      </trkpt>
      <trkpt lat="40.428883" lon="-5.293067">
        <ele>2019.0</ele>
        <time>2018-09-02T11:21:25Z</time>
      </trkpt>
      <trkpt lat="40.428950" lon="-5.292917">
        <ele>2018.0</ele>
        <time>2018-09-02T11:21:26Z</time>
      </trkpt>
      <trkpt lat="40.429000" lon="-5.292783">
        <ele>2017.0</ele>
        <time>2018-09-02T11:21:27Z</time>
      </trkpt>
      <trkpt lat="40.429067" lon="-5.292633">
        <ele>2016.0</ele>
        <time>2018-09-02T11:21:28Z</time>
      </trkpt>
      <trkpt lat="40.429150" lon="-5.292483">
        <ele>2015.0</ele>
        <time>2018-09-02T11:21:29Z</time>
      </trkpt>
      <trkpt lat="40.429217" lon="-5.292317">
        <ele>2014.0</ele>
        <time>2018-09-02T11:21:30Z</time>
      </trkpt>
      <trkpt lat="40.429317" lon="-5.292183">
        <ele>2013.0</ele>
        <time>2018-09-02T11:21:31Z</time>
      </trkpt>
      <trkpt lat="40.429383" lon="-5.292050">
        <ele>2015.0</ele>
        <time>2018-09-02T11:21:32Z</time>
      </trkpt>
      <trkpt lat="40.429450" lon="-5.291917">
        <ele>2017.0</ele>
        <time>2018-09-02T11:21:33Z</time>
      </trkpt>
      <trkpt lat="40.429517" lon="-5.291783">
        <ele>2017.0</ele>
        <time>2018-09-02T11:21:34Z</time>
      </trkpt>
      <trkpt lat="40.429567" lon="-5.291650">
        <ele>2017.0</ele>
        <time>2018-09-02T11:21:35Z</time>
      </trkpt>
      <trkpt lat="40.429650" lon="-5.291533">
        <ele>2018.0</ele>
        <time>2018-09-02T11:21:36Z</time>
      </trkpt>
      <trkpt lat="40.429750" lon="-5.291417">
        <ele>2017.0</ele>
        <time>2018-09-02T11:21:37Z</time>
      </trkpt>
      <trkpt lat="40.429833" lon="-5.291333">
        <ele>2018.0</ele>
        <time>2018-09-02T11:21:38Z</time>
      </trkpt>
      <trkpt lat="40.429917" lon="-5.291300">
        <ele>2019.0</ele>
        <time>2018-09-02T11:21:39Z</time>
      </trkpt>
      <trkpt lat="40.429983" lon="-5.291283">
        <ele>2019.0</ele>
        <time>2018-09-02T11:21:40Z</time>
      </trkpt>
      <trkpt lat="40.430033" lon="-5.291300">
        <ele>2020.0</ele>
        <time>2018-09-02T11:21:41Z</time>
      </trkpt>
      <trkpt lat="40.430067" lon="-5.291317">
        <ele>2019.0</ele>
        <time>2018-09-02T11:21:42Z</time>
      </trkpt>
      <trkpt lat="40.430100" lon="-5.291333">
        <ele>2020.0</ele>
        <time>2018-09-02T11:21:43Z</time>
      </trkpt>
      <trkpt lat="40.430117" lon="-5.291367">
        <ele>2020.0</ele>
        <time>2018-09-02T11:21:44Z</time>
      </trkpt>
      <trkpt lat="40.430133" lon="-5.291417">
        <ele>2020.0</ele>
        <time>2018-09-02T11:21:45Z</time>
      </trkpt>
      <trkpt lat="40.430150" lon="-5.291467">
        <ele>2020.0</ele>
        <time>2018-09-02T11:21:46Z</time>
      </trkpt>
      <trkpt lat="40.430167" lon="-5.291500">
        <ele>2022.0</ele>
        <time>2018-09-02T11:21:47Z</time>
      </trkpt>
      <trkpt lat="40.430167" lon="-5.291533">
        <ele>2023.0</ele>
        <time>2018-09-02T11:21:48Z</time>
      </trkpt>
      <trkpt lat="40.430167" lon="-5.291567">
        <ele>2024.0</ele>
        <time>2018-09-02T11:21:49Z</time>
      </trkpt>
      <trkpt lat="40.430167" lon="-5.291617">
        <ele>2024.0</ele>
        <time>2018-09-02T11:21:50Z</time>
      </trkpt>
      <trkpt lat="40.430167" lon="-5.291650">
        <ele>2023.0</ele>
        <time>2018-09-02T11:21:51Z</time>
      </trkpt>
      <trkpt lat="40.430183" lon="-5.291717">
        <ele>2022.0</ele>
        <time>2018-09-02T11:21:52Z</time>
      </trkpt>
      <trkpt lat="40.430217" lon="-5.291767">
        <ele>2021.0</ele>
        <time>2018-09-02T11:21:53Z</time>
      </trkpt>
      <trkpt lat="40.430233" lon="-5.291817">
        <ele>2020.0</ele>
        <time>2018-09-02T11:21:54Z</time>
      </trkpt>
      <trkpt lat="40.430250" lon="-5.291867">
        <ele>2020.0</ele>
        <time>2018-09-02T11:21:55Z</time>
      </trkpt>
      <trkpt lat="40.430283" lon="-5.291917">
        <ele>2019.0</ele>
        <time>2018-09-02T11:21:56Z</time>
      </trkpt>
      <trkpt lat="40.430317" lon="-5.291967">
        <ele>2019.0</ele>
        <time>2018-09-02T11:21:57Z</time>
      </trkpt>
      <trkpt lat="40.430350" lon="-5.292000">
        <ele>2018.0</ele>
        <time>2018-09-02T11:21:58Z</time>
      </trkpt>
      <trkpt lat="40.430367" lon="-5.292050">
        <ele>2018.0</ele>
        <time>2018-09-02T11:21:59Z</time>
      </trkpt>
      <trkpt lat="40.430400" lon="-5.292100">
        <ele>2018.0</ele>
        <time>2018-09-02T11:22:00Z</time>
      </trkpt>
      <trkpt lat="40.430433" lon="-5.292150">
        <ele>2018.0</ele>
        <time>2018-09-02T11:22:01Z</time>
      </trkpt>
      <trkpt lat="40.430467" lon="-5.292200">
        <ele>2019.0</ele>
        <time>2018-09-02T11:22:02Z</time>
      </trkpt>
      <trkpt lat="40.430483" lon="-5.292233">
        <ele>2021.0</ele>
        <time>2018-09-02T11:22:03Z</time>
      </trkpt>
      <trkpt lat="40.430517" lon="-5.292267">
        <ele>2023.0</ele>
        <time>2018-09-02T11:22:04Z</time>
      </trkpt>
      <trkpt lat="40.430550" lon="-5.292300">
        <ele>2026.0</ele>
        <time>2018-09-02T11:22:05Z</time>
      </trkpt>
      <trkpt lat="40.430567" lon="-5.292333">
        <ele>2027.0</ele>
        <time>2018-09-02T11:22:06Z</time>
      </trkpt>
      <trkpt lat="40.430567" lon="-5.292383">
        <ele>2028.0</ele>
        <time>2018-09-02T11:22:07Z</time>
      </trkpt>
      <trkpt lat="40.430583" lon="-5.292417">
        <ele>2028.0</ele>
        <time>2018-09-02T11:22:08Z</time>
      </trkpt>
      <trkpt lat="40.430600" lon="-5.292450">
        <ele>2028.0</ele>
        <time>2018-09-02T11:22:09Z</time>
      </trkpt>
      <trkpt lat="40.430650" lon="-5.292450">
        <ele>2027.0</ele>
        <time>2018-09-02T11:22:10Z</time>
      </trkpt>
      <trkpt lat="40.430750" lon="-5.292433">
        <ele>2025.0</ele>
        <time>2018-09-02T11:22:11Z</time>
      </trkpt>
      <trkpt lat="40.430850" lon="-5.292350">
        <ele>2023.0</ele>
        <time>2018-09-02T11:22:12Z</time>
      </trkpt>
      <trkpt lat="40.430933" lon="-5.292217">
        <ele>2021.0</ele>
        <time>2018-09-02T11:22:13Z</time>
      </trkpt>
      <trkpt lat="40.431000" lon="-5.292050">
        <ele>2018.0</ele>
        <time>2018-09-02T11:22:14Z</time>
      </trkpt>
      <trkpt lat="40.431000" lon="-5.291850">
        <ele>2016.0</ele>
        <time>2018-09-02T11:22:15Z</time>
      </trkpt>
      <trkpt lat="40.430967" lon="-5.291667">
        <ele>2014.0</ele>
        <time>2018-09-02T11:22:16Z</time>
      </trkpt>
      <trkpt lat="40.430883" lon="-5.291533">
        <ele>2012.0</ele>
        <time>2018-09-02T11:22:17Z</time>
      </trkpt>
      <trkpt lat="40.430800" lon="-5.291433">
        <ele>2010.0</ele>
        <time>2018-09-02T11:22:18Z</time>
      </trkpt>
      <trkpt lat="40.430717" lon="-5.291383">
        <ele>2008.0</ele>
        <time>2018-09-02T11:22:19Z</time>
      </trkpt>
      <trkpt lat="40.430650" lon="-5.291400">
        <ele>2006.0</ele>
        <time>2018-09-02T11:22:20Z</time>
      </trkpt>
      <trkpt lat="40.430617" lon="-5.291450">
        <ele>2006.0</ele>
        <time>2018-09-02T11:22:21Z</time>
      </trkpt>
      <trkpt lat="40.430583" lon="-5.291483">
        <ele>2008.0</ele>
        <time>2018-09-02T11:22:22Z</time>
      </trkpt>
      <trkpt lat="40.430567" lon="-5.291533">
        <ele>2011.0</ele>
        <time>2018-09-02T11:22:23Z</time>
      </trkpt>
      <trkpt lat="40.430550" lon="-5.291550">
        <ele>2013.0</ele>
        <time>2018-09-02T11:22:24Z</time>
      </trkpt>
      <trkpt lat="40.430533" lon="-5.291583">
        <ele>2014.0</ele>
        <time>2018-09-02T11:22:25Z</time>
      </trkpt>
      <trkpt lat="40.430533" lon="-5.291600">
        <ele>2013.0</ele>
        <time>2018-09-02T11:22:26Z</time>
      </trkpt>
      <trkpt lat="40.430533" lon="-5.291633">
        <ele>2011.0</ele>
        <time>2018-09-02T11:22:27Z</time>
      </trkpt>
      <trkpt lat="40.430517" lon="-5.291700">
        <ele>2008.0</ele>
        <time>2018-09-02T11:22:28Z</time>
      </trkpt>
      <trkpt lat="40.430533" lon="-5.291750">
        <ele>2006.0</ele>
        <time>2018-09-02T11:22:29Z</time>
      </trkpt>
      <trkpt lat="40.430533" lon="-5.291817">
        <ele>2006.0</ele>
        <time>2018-09-02T11:22:30Z</time>
      </trkpt>
      <trkpt lat="40.430550" lon="-5.291850">
        <ele>2006.0</ele>
        <time>2018-09-02T11:22:31Z</time>
      </trkpt>
      <trkpt lat="40.430567" lon="-5.291883">
        <ele>2007.0</ele>
        <time>2018-09-02T11:22:32Z</time>
      </trkpt>
      <trkpt lat="40.430583" lon="-5.291917">
        <ele>2007.0</ele>
        <time>2018-09-02T11:22:33Z</time>
      </trkpt>
      <trkpt lat="40.430583" lon="-5.291950">
        <ele>2007.0</ele>
        <time>2018-09-02T11:22:34Z</time>
      </trkpt>
      <trkpt lat="40.430600" lon="-5.292000">
        <ele>2006.0</ele>
        <time>2018-09-02T11:22:35Z</time>
      </trkpt>
      <trkpt lat="40.430617" lon="-5.292050">
        <ele>2005.0</ele>
        <time>2018-09-02T11:22:36Z</time>
      </trkpt>
      <trkpt lat="40.430650" lon="-5.292083">
        <ele>2005.0</ele>
        <time>2018-09-02T11:22:37Z</time>
      </trkpt>
      <trkpt lat="40.430667" lon="-5.292117">
        <ele>2005.0</ele>
        <time>2018-09-02T11:22:38Z</time>
      </trkpt>
      <trkpt lat="40.430683" lon="-5.292150">
        <ele>2004.0</ele>
        <time>2018-09-02T11:22:39Z</time>
      </trkpt>
      <trkpt lat="40.430717" lon="-5.292200">
        <ele>2004.0</ele>
        <time>2018-09-02T11:22:40Z</time>
      </trkpt>
      <trkpt lat="40.430733" lon="-5.292250">
        <ele>2004.0</ele>
        <time>2018-09-02T11:22:41Z</time>
      </trkpt>
      <trkpt lat="40.430767" lon="-5.292283">
        <ele>2004.0</ele>
        <time>2018-09-02T11:22:42Z</time>
      </trkpt>
      <trkpt lat="40.430800" lon="-5.292317">
        <ele>2004.0</ele>
        <time>2018-09-02T11:22:43Z</time>
      </trkpt>
      <trkpt lat="40.430817" lon="-5.292383">
        <ele>2004.0</ele>
        <time>2018-09-02T11:22:44Z</time>
      </trkpt>
      <trkpt lat="40.430850" lon="-5.292433">
        <ele>2004.0</ele>
        <time>2018-09-02T11:22:45Z</time>
      </trkpt>
      <trkpt lat="40.430867" lon="-5.292483">
        <ele>2003.0</ele>
        <time>2018-09-02T11:22:46Z</time>
      </trkpt>
      <trkpt lat="40.430900" lon="-5.292533">
        <ele>2003.0</ele>
        <time>2018-09-02T11:22:47Z</time>
      </trkpt>
      <trkpt lat="40.430917" lon="-5.292567">
        <ele>2003.0</ele>
        <time>2018-09-02T11:22:48Z</time>
      </trkpt>
      <trkpt lat="40.430933" lon="-5.292617">
        <ele>2003.0</ele>
        <time>2018-09-02T11:22:49Z</time>
      </trkpt>
      <trkpt lat="40.430950" lon="-5.292683">
        <ele>2003.0</ele>
        <time>2018-09-02T11:22:50Z</time>
      </trkpt>
      <trkpt lat="40.430967" lon="-5.292733">
        <ele>2003.0</ele>
        <time>2018-09-02T11:22:51Z</time>
      </trkpt>
      <trkpt lat="40.431000" lon="-5.292800">
        <ele>2003.0</ele>
        <time>2018-09-02T11:22:52Z</time>
      </trkpt>
      <trkpt lat="40.431033" lon="-5.292850">
        <ele>2003.0</ele>
        <time>2018-09-02T11:22:53Z</time>
      </trkpt>
      <trkpt lat="40.431083" lon="-5.292900">
        <ele>2003.0</ele>
        <time>2018-09-02T11:22:54Z</time>
      </trkpt>
      <trkpt lat="40.431150" lon="-5.292917">
        <ele>2003.0</ele>
        <time>2018-09-02T11:22:55Z</time>
      </trkpt>
      <trkpt lat="40.431217" lon="-5.292933">
        <ele>2002.0</ele>
        <time>2018-09-02T11:22:56Z</time>
      </trkpt>
      <trkpt lat="40.431283" lon="-5.292933">
        <ele>2002.0</ele>
        <time>2018-09-02T11:22:57Z</time>
      </trkpt>
      <trkpt lat="40.431367" lon="-5.292900">
        <ele>2002.0</ele>
        <time>2018-09-02T11:22:58Z</time>
      </trkpt>
      <trkpt lat="40.431450" lon="-5.292850">
        <ele>2001.0</ele>
        <time>2018-09-02T11:22:59Z</time>
      </trkpt>
      <trkpt lat="40.431550" lon="-5.292800">
        <ele>2000.0</ele>
        <time>2018-09-02T11:23:00Z</time>
      </trkpt>
      <trkpt lat="40.431633" lon="-5.292733">
        <ele>1999.0</ele>
        <time>2018-09-02T11:23:01Z</time>
      </trkpt>
      <trkpt lat="40.431717" lon="-5.292667">
        <ele>1998.0</ele>
        <time>2018-09-02T11:23:02Z</time>
      </trkpt>
      <trkpt lat="40.431817" lon="-5.292583">
        <ele>1997.0</ele>
        <time>2018-09-02T11:23:03Z</time>
      </trkpt>
      <trkpt lat="40.431900" lon="-5.292517">
        <ele>1996.0</ele>
        <time>2018-09-02T11:23:04Z</time>
      </trkpt>
      <trkpt lat="40.432000" lon="-5.292433">
        <ele>1995.0</ele>
        <time>2018-09-02T11:23:05Z</time>
      </trkpt>
      <trkpt lat="40.432100" lon="-5.292367">
        <ele>1994.0</ele>
        <time>2018-09-02T11:23:06Z</time>
      </trkpt>
      <trkpt lat="40.432200" lon="-5.292300">
        <ele>1993.0</ele>
        <time>2018-09-02T11:23:07Z</time>
      </trkpt>
      <trkpt lat="40.432283" lon="-5.292233">
        <ele>1991.0</ele>
        <time>2018-09-02T11:23:08Z</time>
      </trkpt>
      <trkpt lat="40.432383" lon="-5.292150">
        <ele>1989.0</ele>
        <time>2018-09-02T11:23:09Z</time>
      </trkpt>
      <trkpt lat="40.432483" lon="-5.292083">
        <ele>1986.0</ele>
        <time>2018-09-02T11:23:10Z</time>
      </trkpt>
      <trkpt lat="40.432583" lon="-5.292017">
        <ele>1984.0</ele>
        <time>2018-09-02T11:23:11Z</time>
      </trkpt>
      <trkpt lat="40.432683" lon="-5.291933">
        <ele>1983.0</ele>
        <time>2018-09-02T11:23:12Z</time>
      </trkpt>
      <trkpt lat="40.432783" lon="-5.291867">
        <ele>1981.0</ele>
        <time>2018-09-02T11:23:13Z</time>
      </trkpt>
      <trkpt lat="40.432867" lon="-5.291800">
        <ele>1979.0</ele>
        <time>2018-09-02T11:23:14Z</time>
      </trkpt>
      <trkpt lat="40.432967" lon="-5.291717">
        <ele>1977.0</ele>
        <time>2018-09-02T11:23:15Z</time>
      </trkpt>
      <trkpt lat="40.433067" lon="-5.291650">
        <ele>1976.0</ele>
        <time>2018-09-02T11:23:16Z</time>
      </trkpt>
      <trkpt lat="40.433167" lon="-5.291567">
        <ele>1975.0</ele>
        <time>2018-09-02T11:23:17Z</time>
      </trkpt>
      <trkpt lat="40.433267" lon="-5.291500">
        <ele>1973.0</ele>
        <time>2018-09-02T11:23:18Z</time>
      </trkpt>
      <trkpt lat="40.433367" lon="-5.291433">
        <ele>1972.0</ele>
        <time>2018-09-02T11:23:19Z</time>
      </trkpt>
      <trkpt lat="40.433467" lon="-5.291367">
        <ele>1972.0</ele>
        <time>2018-09-02T11:23:20Z</time>
      </trkpt>
      <trkpt lat="40.433550" lon="-5.291300">
        <ele>1973.0</ele>
        <time>2018-09-02T11:23:21Z</time>
      </trkpt>
      <trkpt lat="40.433633" lon="-5.291233">
        <ele>1974.0</ele>
        <time>2018-09-02T11:23:22Z</time>
      </trkpt>
      <trkpt lat="40.433717" lon="-5.291167">
        <ele>1976.0</ele>
        <time>2018-09-02T11:23:23Z</time>
      </trkpt>
      <trkpt lat="40.433783" lon="-5.291100">
        <ele>1978.0</ele>
        <time>2018-09-02T11:23:24Z</time>
      </trkpt>
      <trkpt lat="40.433850" lon="-5.291033">
        <ele>1980.0</ele>
        <time>2018-09-02T11:23:25Z</time>
      </trkpt>
      <trkpt lat="40.433917" lon="-5.290933">
        <ele>1979.0</ele>
        <time>2018-09-02T11:23:26Z</time>
      </trkpt>
      <trkpt lat="40.434017" lon="-5.290850">
        <ele>1980.0</ele>
        <time>2018-09-02T11:23:27Z</time>
      </trkpt>
      <trkpt lat="40.434100" lon="-5.290783">
        <ele>1980.0</ele>
        <time>2018-09-02T11:23:28Z</time>
      </trkpt>
      <trkpt lat="40.434200" lon="-5.290717">
        <ele>1981.0</ele>
        <time>2018-09-02T11:23:29Z</time>
      </trkpt>
      <trkpt lat="40.434267" lon="-5.290650">
        <ele>1982.0</ele>
        <time>2018-09-02T11:23:30Z</time>
      </trkpt>
      <trkpt lat="40.434333" lon="-5.290583">
        <ele>1983.0</ele>
        <time>2018-09-02T11:23:31Z</time>
      </trkpt>
      <trkpt lat="40.434417" lon="-5.290500">
        <ele>1983.0</ele>
        <time>2018-09-02T11:23:32Z</time>
      </trkpt>
      <trkpt lat="40.434517" lon="-5.290433">
        <ele>1983.0</ele>
        <time>2018-09-02T11:23:33Z</time>
      </trkpt>
      <trkpt lat="40.434617" lon="-5.290367">
        <ele>1983.0</ele>
        <time>2018-09-02T11:23:34Z</time>
      </trkpt>
      <trkpt lat="40.434700" lon="-5.290300">
        <ele>1983.0</ele>
        <time>2018-09-02T11:23:35Z</time>
      </trkpt>
      <trkpt lat="40.434800" lon="-5.290267">
        <ele>1983.0</ele>
        <time>2018-09-02T11:23:36Z</time>
      </trkpt>
      <trkpt lat="40.434883" lon="-5.290217">
        <ele>1983.0</ele>
        <time>2018-09-02T11:23:37Z</time>
      </trkpt>
      <trkpt lat="40.434967" lon="-5.290150">
        <ele>1984.0</ele>
        <time>2018-09-02T11:23:38Z</time>
      </trkpt>
      <trkpt lat="40.435050" lon="-5.290083">
        <ele>1985.0</ele>
        <time>2018-09-02T11:23:36Z</time>
      </trkpt>
      <trkpt lat="40.435233" lon="-5.289967">
        <ele>1988.0</ele>
        <time>2018-09-02T11:23:38Z</time>
      </trkpt>
      <trkpt lat="40.435417" lon="-5.289850">
        <ele>1989.0</ele>
        <time>2018-09-02T11:23:40Z</time>
      </trkpt>
      <trkpt lat="40.435500" lon="-5.289783">
        <ele>1989.0</ele>
        <time>2018-09-02T11:23:41Z</time>
      </trkpt>
      <trkpt lat="40.435600" lon="-5.289717">
        <ele>1989.0</ele>
        <time>2018-09-02T11:23:42Z</time>
      </trkpt>
      <trkpt lat="40.435683" lon="-5.289650">
        <ele>1989.0</ele>
        <time>2018-09-02T11:23:43Z</time>
      </trkpt>
      <trkpt lat="40.435767" lon="-5.289567">
        <ele>1989.0</ele>
        <time>2018-09-02T11:23:44Z</time>
      </trkpt>
      <trkpt lat="40.435850" lon="-5.289500">
        <ele>1989.0</ele>
        <time>2018-09-02T11:23:45Z</time>
      </trkpt>
      <trkpt lat="40.435950" lon="-5.289417">
        <ele>1988.0</ele>
        <time>2018-09-02T11:23:46Z</time>
      </trkpt>
      <trkpt lat="40.436033" lon="-5.289333">
        <ele>1988.0</ele>
        <time>2018-09-02T11:23:47Z</time>
      </trkpt>
      <trkpt lat="40.436133" lon="-5.289250">
        <ele>1987.0</ele>
        <time>2018-09-02T11:23:48Z</time>
      </trkpt>
      <trkpt lat="40.436233" lon="-5.289183">
        <ele>1988.0</ele>
        <time>2018-09-02T11:23:49Z</time>
      </trkpt>
      <trkpt lat="40.436300" lon="-5.289117">
        <ele>1988.0</ele>
        <time>2018-09-02T11:23:50Z</time>
      </trkpt>
      <trkpt lat="40.436467" lon="-5.288983">
        <ele>1988.0</ele>
        <time>2018-09-02T11:23:52Z</time>
      </trkpt>
      <trkpt lat="40.436567" lon="-5.288900">
        <ele>1988.0</ele>
        <time>2018-09-02T11:23:53Z</time>
      </trkpt>
      <trkpt lat="40.436650" lon="-5.288833">
        <ele>1987.0</ele>
        <time>2018-09-02T11:23:54Z</time>
      </trkpt>
      <trkpt lat="40.436817" lon="-5.288683">
        <ele>1988.0</ele>
        <time>2018-09-02T11:23:56Z</time>
      </trkpt>
      <trkpt lat="40.436900" lon="-5.288617">
        <ele>1988.0</ele>
        <time>2018-09-02T11:23:57Z</time>
      </trkpt>
      <trkpt lat="40.436983" lon="-5.288550">
        <ele>1989.0</ele>
        <time>2018-09-02T11:23:58Z</time>
      </trkpt>
      <trkpt lat="40.437067" lon="-5.288467">
        <ele>1989.0</ele>
        <time>2018-09-02T11:23:59Z</time>
      </trkpt>
      <trkpt lat="40.437150" lon="-5.288383">
        <ele>1990.0</ele>
        <time>2018-09-02T11:24:00Z</time>
      </trkpt>
      <trkpt lat="40.437250" lon="-5.288317">
        <ele>1990.0</ele>
        <time>2018-09-02T11:24:01Z</time>
      </trkpt>
      <trkpt lat="40.437350" lon="-5.288250">
        <ele>1991.0</ele>
        <time>2018-09-02T11:24:02Z</time>
      </trkpt>
      <trkpt lat="40.437433" lon="-5.288167">
        <ele>1992.0</ele>
        <time>2018-09-02T11:24:03Z</time>
      </trkpt>
      <trkpt lat="40.437517" lon="-5.288083">
        <ele>1992.0</ele>
        <time>2018-09-02T11:24:04Z</time>
      </trkpt>
      <trkpt lat="40.437600" lon="-5.288000">
        <ele>1992.0</ele>
        <time>2018-09-02T11:24:05Z</time>
      </trkpt>
      <trkpt lat="40.437700" lon="-5.287900">
        <ele>1992.0</ele>
        <time>2018-09-02T11:24:06Z</time>
      </trkpt>
      <trkpt lat="40.437800" lon="-5.287817">
        <ele>1992.0</ele>
        <time>2018-09-02T11:24:07Z</time>
      </trkpt>
      <trkpt lat="40.437883" lon="-5.287733">
        <ele>1992.0</ele>
        <time>2018-09-02T11:24:08Z</time>
      </trkpt>
      <trkpt lat="40.438067" lon="-5.287583">
        <ele>1991.0</ele>
        <time>2018-09-02T11:24:10Z</time>
      </trkpt>
      <trkpt lat="40.438233" lon="-5.287417">
        <ele>1991.0</ele>
        <time>2018-09-02T11:24:12Z</time>
      </trkpt>
      <trkpt lat="40.438333" lon="-5.287317">
        <ele>1991.0</ele>
        <time>2018-09-02T11:24:13Z</time>
      </trkpt>
      <trkpt lat="40.438433" lon="-5.287233">
        <ele>1991.0</ele>
        <time>2018-09-02T11:24:14Z</time>
      </trkpt>
      <trkpt lat="40.438517" lon="-5.287150">
        <ele>1991.0</ele>
        <time>2018-09-02T11:24:15Z</time>
      </trkpt>
      <trkpt lat="40.438617" lon="-5.287067">
        <ele>1990.0</ele>
        <time>2018-09-02T11:24:16Z</time>
      </trkpt>
      <trkpt lat="40.438700" lon="-5.286983">
        <ele>1990.0</ele>
        <time>2018-09-02T11:24:17Z</time>
      </trkpt>
      <trkpt lat="40.438800" lon="-5.286900">
        <ele>1990.0</ele>
        <time>2018-09-02T11:24:18Z</time>
      </trkpt>
      <trkpt lat="40.438883" lon="-5.286817">
        <ele>1989.0</ele>
        <time>2018-09-02T11:24:19Z</time>
      </trkpt>
      <trkpt lat="40.438967" lon="-5.286717">
        <ele>1989.0</ele>
        <time>2018-09-02T11:24:20Z</time>
      </trkpt>
      <trkpt lat="40.439067" lon="-5.286633">
        <ele>1989.0</ele>
        <time>2018-09-02T11:24:21Z</time>
      </trkpt>
      <trkpt lat="40.439150" lon="-5.286550">
        <ele>1989.0</ele>
        <time>2018-09-02T11:24:22Z</time>
      </trkpt>
      <trkpt lat="40.439250" lon="-5.286467">
        <ele>1988.0</ele>
        <time>2018-09-02T11:24:23Z</time>
      </trkpt>
      <trkpt lat="40.439333" lon="-5.286383">
        <ele>1988.0</ele>
        <time>2018-09-02T11:24:24Z</time>
      </trkpt>
      <trkpt lat="40.439417" lon="-5.286300">
        <ele>1988.0</ele>
        <time>2018-09-02T11:24:25Z</time>
      </trkpt>
      <trkpt lat="40.439500" lon="-5.286217">
        <ele>1987.0</ele>
        <time>2018-09-02T11:24:26Z</time>
      </trkpt>
      <trkpt lat="40.439600" lon="-5.286133">
        <ele>1986.0</ele>
        <time>2018-09-02T11:24:27Z</time>
      </trkpt>
      <trkpt lat="40.439683" lon="-5.286050">
        <ele>1985.0</ele>
        <time>2018-09-02T11:24:28Z</time>
      </trkpt>
      <trkpt lat="40.439783" lon="-5.285967">
        <ele>1985.0</ele>
        <time>2018-09-02T11:24:29Z</time>
      </trkpt>
      <trkpt lat="40.439867" lon="-5.285867">
        <ele>1985.0</ele>
        <time>2018-09-02T11:24:30Z</time>
      </trkpt>
      <trkpt lat="40.439950" lon="-5.285767">
        <ele>1985.0</ele>
        <time>2018-09-02T11:24:31Z</time>
      </trkpt>
      <trkpt lat="40.440033" lon="-5.285683">
        <ele>1985.0</ele>
        <time>2018-09-02T11:24:32Z</time>
      </trkpt>
      <trkpt lat="40.440133" lon="-5.285583">
        <ele>1986.0</ele>
        <time>2018-09-02T11:24:33Z</time>
      </trkpt>
      <trkpt lat="40.440217" lon="-5.285483">
        <ele>1986.0</ele>
        <time>2018-09-02T11:24:34Z</time>
      </trkpt>
      <trkpt lat="40.440300" lon="-5.285383">
        <ele>1986.0</ele>
        <time>2018-09-02T11:24:35Z</time>
      </trkpt>
      <trkpt lat="40.440400" lon="-5.285300">
        <ele>1988.0</ele>
        <time>2018-09-02T11:24:36Z</time>
      </trkpt>
      <trkpt lat="40.440500" lon="-5.285200">
        <ele>1989.0</ele>
        <time>2018-09-02T11:24:37Z</time>
      </trkpt>
      <trkpt lat="40.440583" lon="-5.285100">
        <ele>1989.0</ele>
        <time>2018-09-02T11:24:38Z</time>
      </trkpt>
      <trkpt lat="40.440667" lon="-5.285000">
        <ele>1990.0</ele>
        <time>2018-09-02T11:24:39Z</time>
      </trkpt>
      <trkpt lat="40.440733" lon="-5.284917">
        <ele>1990.0</ele>
        <time>2018-09-02T11:24:40Z</time>
      </trkpt>
      <trkpt lat="40.440817" lon="-5.284850">
        <ele>1988.0</ele>
        <time>2018-09-02T11:24:41Z</time>
      </trkpt>
      <trkpt lat="40.440917" lon="-5.284800">
        <ele>1986.0</ele>
        <time>2018-09-02T11:24:42Z</time>
      </trkpt>
      <trkpt lat="40.441017" lon="-5.284783">
        <ele>1985.0</ele>
        <time>2018-09-02T11:24:43Z</time>
      </trkpt>
      <trkpt lat="40.441100" lon="-5.284783">
        <ele>1985.0</ele>
        <time>2018-09-02T11:24:44Z</time>
      </trkpt>
      <trkpt lat="40.441150" lon="-5.284817">
        <ele>1986.0</ele>
        <time>2018-09-02T11:24:45Z</time>
      </trkpt>
      <trkpt lat="40.441200" lon="-5.284850">
        <ele>1986.0</ele>
        <time>2018-09-02T11:24:46Z</time>
      </trkpt>
      <trkpt lat="40.441233" lon="-5.284900">
        <ele>1987.0</ele>
        <time>2018-09-02T11:24:47Z</time>
      </trkpt>
      <trkpt lat="40.441267" lon="-5.284950">
        <ele>1987.0</ele>
        <time>2018-09-02T11:24:48Z</time>
      </trkpt>
      <trkpt lat="40.441283" lon="-5.284983">
        <ele>1987.0</ele>
        <time>2018-09-02T11:24:49Z</time>
      </trkpt>
      <trkpt lat="40.441300" lon="-5.285033">
        <ele>1987.0</ele>
        <time>2018-09-02T11:24:50Z</time>
      </trkpt>
      <trkpt lat="40.441300" lon="-5.285100">
        <ele>1986.0</ele>
        <time>2018-09-02T11:24:51Z</time>
      </trkpt>
      <trkpt lat="40.441283" lon="-5.285150">
        <ele>1986.0</ele>
        <time>2018-09-02T11:24:52Z</time>
      </trkpt>
      <trkpt lat="40.441233" lon="-5.285167">
        <ele>1985.0</ele>
        <time>2018-09-02T11:24:53Z</time>
      </trkpt>
      <trkpt lat="40.441183" lon="-5.285183">
        <ele>1985.0</ele>
        <time>2018-09-02T11:24:54Z</time>
      </trkpt>
      <trkpt lat="40.441117" lon="-5.285167">
        <ele>1985.0</ele>
        <time>2018-09-02T11:24:55Z</time>
      </trkpt>
      <trkpt lat="40.441050" lon="-5.285133">
        <ele>1985.0</ele>
        <time>2018-09-02T11:24:56Z</time>
      </trkpt>
      <trkpt lat="40.440967" lon="-5.285100">
        <ele>1986.0</ele>
        <time>2018-09-02T11:24:57Z</time>
      </trkpt>
      <trkpt lat="40.440900" lon="-5.285033">
        <ele>1987.0</ele>
        <time>2018-09-02T11:24:58Z</time>
      </trkpt>
      <trkpt lat="40.440833" lon="-5.284933">
        <ele>1987.0</ele>
        <time>2018-09-02T11:24:59Z</time>
      </trkpt>
      <trkpt lat="40.440767" lon="-5.284800">
        <ele>1987.0</ele>
        <time>2018-09-02T11:25:00Z</time>
      </trkpt>
      <trkpt lat="40.440717" lon="-5.284667">
        <ele>1987.0</ele>
        <time>2018-09-02T11:25:01Z</time>
      </trkpt>
      <trkpt lat="40.440683" lon="-5.284500">
        <ele>1988.0</ele>
        <time>2018-09-02T11:25:02Z</time>
      </trkpt>
      <trkpt lat="40.440650" lon="-5.284333">
        <ele>1988.0</ele>
        <time>2018-09-02T11:25:03Z</time>
      </trkpt>
      <trkpt lat="40.440650" lon="-5.284167">
        <ele>1989.0</ele>
        <time>2018-09-02T11:25:04Z</time>
      </trkpt>
      <trkpt lat="40.440667" lon="-5.283983">
        <ele>1990.0</ele>
        <time>2018-09-02T11:25:05Z</time>
      </trkpt>
      <trkpt lat="40.440700" lon="-5.283817">
        <ele>1992.0</ele>
        <time>2018-09-02T11:25:06Z</time>
      </trkpt>
      <trkpt lat="40.440717" lon="-5.283667">
        <ele>1992.0</ele>
        <time>2018-09-02T11:25:07Z</time>
      </trkpt>
      <trkpt lat="40.440733" lon="-5.283500">
        <ele>1993.0</ele>
        <time>2018-09-02T11:25:08Z</time>
      </trkpt>
      <trkpt lat="40.440783" lon="-5.283350">
        <ele>1994.0</ele>
        <time>2018-09-02T11:25:09Z</time>
      </trkpt>
      <trkpt lat="40.440833" lon="-5.283200">
        <ele>1994.0</ele>
        <time>2018-09-02T11:25:10Z</time>
      </trkpt>
      <trkpt lat="40.440900" lon="-5.283083">
        <ele>1995.0</ele>
        <time>2018-09-02T11:25:11Z</time>
      </trkpt>
      <trkpt lat="40.440983" lon="-5.283000">
        <ele>1996.0</ele>
        <time>2018-09-02T11:25:12Z</time>
      </trkpt>
      <trkpt lat="40.441050" lon="-5.282933">
        <ele>1997.0</ele>
        <time>2018-09-02T11:25:13Z</time>
      </trkpt>
      <trkpt lat="40.441117" lon="-5.282883">
        <ele>1999.0</ele>
        <time>2018-09-02T11:25:14Z</time>
      </trkpt>
      <trkpt lat="40.441200" lon="-5.282833">
        <ele>1999.0</ele>
        <time>2018-09-02T11:25:15Z</time>
      </trkpt>
      <trkpt lat="40.441267" lon="-5.282800">
        <ele>1999.0</ele>
        <time>2018-09-02T11:25:16Z</time>
      </trkpt>
      <trkpt lat="40.441350" lon="-5.282800">
        <ele>1999.0</ele>
        <time>2018-09-02T11:25:17Z</time>
      </trkpt>
      <trkpt lat="40.441417" lon="-5.282817">
        <ele>1999.0</ele>
        <time>2018-09-02T11:25:18Z</time>
      </trkpt>
      <trkpt lat="40.441467" lon="-5.282833">
        <ele>1999.0</ele>
        <time>2018-09-02T11:25:19Z</time>
      </trkpt>
      <trkpt lat="40.441483" lon="-5.282867">
        <ele>2000.0</ele>
        <time>2018-09-02T11:25:20Z</time>
      </trkpt>
      <trkpt lat="40.441483" lon="-5.282917">
        <ele>2000.0</ele>
        <time>2018-09-02T11:25:21Z</time>
      </trkpt>
      <trkpt lat="40.441467" lon="-5.282967">
        <ele>1999.0</ele>
        <time>2018-09-02T11:25:22Z</time>
      </trkpt>
      <trkpt lat="40.441400" lon="-5.282983">
        <ele>1998.0</ele>
        <time>2018-09-02T11:25:23Z</time>
      </trkpt>
      <trkpt lat="40.441333" lon="-5.282983">
        <ele>1997.0</ele>
        <time>2018-09-02T11:25:24Z</time>
      </trkpt>
      <trkpt lat="40.441250" lon="-5.282967">
        <ele>1997.0</ele>
        <time>2018-09-02T11:25:25Z</time>
      </trkpt>
      <trkpt lat="40.441167" lon="-5.282917">
        <ele>1997.0</ele>
        <time>2018-09-02T11:25:26Z</time>
      </trkpt>
      <trkpt lat="40.441117" lon="-5.282900">
        <ele>1998.0</ele>
        <time>2018-09-02T11:25:27Z</time>
      </trkpt>
      <trkpt lat="40.441067" lon="-5.282867">
        <ele>2000.0</ele>
        <time>2018-09-02T11:25:28Z</time>
      </trkpt>
      <trkpt lat="40.441017" lon="-5.282850">
        <ele>2001.0</ele>
        <time>2018-09-02T11:25:29Z</time>
      </trkpt>
      <trkpt lat="40.440967" lon="-5.282850">
        <ele>2002.0</ele>
        <time>2018-09-02T11:25:30Z</time>
      </trkpt>
      <trkpt lat="40.440900" lon="-5.282833">
        <ele>2001.0</ele>
        <time>2018-09-02T11:25:31Z</time>
      </trkpt>
      <trkpt lat="40.440850" lon="-5.282833">
        <ele>2001.0</ele>
        <time>2018-09-02T11:25:32Z</time>
      </trkpt>
      <trkpt lat="40.440800" lon="-5.282833">
        <ele>2001.0</ele>
        <time>2018-09-02T11:25:33Z</time>
      </trkpt>
      <trkpt lat="40.440767" lon="-5.282850">
        <ele>2001.0</ele>
        <time>2018-09-02T11:25:34Z</time>
      </trkpt>
      <trkpt lat="40.440717" lon="-5.282850">
        <ele>2001.0</ele>
        <time>2018-09-02T11:25:35Z</time>
      </trkpt>
      <trkpt lat="40.440683" lon="-5.282850">
        <ele>2000.0</ele>
        <time>2018-09-02T11:25:36Z</time>
      </trkpt>
      <trkpt lat="40.440650" lon="-5.282867">
        <ele>1999.0</ele>
        <time>2018-09-02T11:25:37Z</time>
      </trkpt>
      <trkpt lat="40.440633" lon="-5.282900">
        <ele>1998.0</ele>
        <time>2018-09-02T11:25:38Z</time>
      </trkpt>
      <trkpt lat="40.440617" lon="-5.282967">
        <ele>1995.0</ele>
        <time>2018-09-02T11:25:39Z</time>
      </trkpt>
      <trkpt lat="40.440633" lon="-5.283067">
        <ele>1993.0</ele>
        <time>2018-09-02T11:25:40Z</time>
      </trkpt>
      <trkpt lat="40.440683" lon="-5.283133">
        <ele>1992.0</ele>
        <time>2018-09-02T11:25:41Z</time>
      </trkpt>
      <trkpt lat="40.440733" lon="-5.283183">
        <ele>1992.0</ele>
        <time>2018-09-02T11:25:42Z</time>
      </trkpt>
      <trkpt lat="40.440800" lon="-5.283217">
        <ele>1991.0</ele>
        <time>2018-09-02T11:25:43Z</time>
      </trkpt>
      <trkpt lat="40.440867" lon="-5.283233">
        <ele>1992.0</ele>
        <time>2018-09-02T11:25:44Z</time>
      </trkpt>
      <trkpt lat="40.440900" lon="-5.283267">
        <ele>1992.0</ele>
        <time>2018-09-02T11:25:45Z</time>
      </trkpt>
      <trkpt lat="40.440933" lon="-5.283300">
        <ele>1994.0</ele>
        <time>2018-09-02T11:25:46Z</time>
      </trkpt>
      <trkpt lat="40.440967" lon="-5.283333">
        <ele>1995.0</ele>
        <time>2018-09-02T11:25:47Z</time>
      </trkpt>
      <trkpt lat="40.440983" lon="-5.283367">
        <ele>1997.0</ele>
        <time>2018-09-02T11:25:48Z</time>
      </trkpt>
      <trkpt lat="40.440983" lon="-5.283400">
        <ele>1998.0</ele>
        <time>2018-09-02T11:25:49Z</time>
      </trkpt>
      <trkpt lat="40.440967" lon="-5.283433">
        <ele>1999.0</ele>
        <time>2018-09-02T11:25:50Z</time>
      </trkpt>
      <trkpt lat="40.440917" lon="-5.283433">
        <ele>2000.0</ele>
        <time>2018-09-02T11:25:51Z</time>
      </trkpt>
      <trkpt lat="40.440833" lon="-5.283400">
        <ele>2001.0</ele>
        <time>2018-09-02T11:25:52Z</time>
      </trkpt>
      <trkpt lat="40.440767" lon="-5.283333">
        <ele>2002.0</ele>
        <time>2018-09-02T11:25:53Z</time>
      </trkpt>
      <trkpt lat="40.440717" lon="-5.283200">
        <ele>2003.0</ele>
        <time>2018-09-02T11:25:54Z</time>
      </trkpt>
      <trkpt lat="40.440683" lon="-5.283033">
        <ele>2003.0</ele>
        <time>2018-09-02T11:25:55Z</time>
      </trkpt>
      <trkpt lat="40.440717" lon="-5.282850">
        <ele>2003.0</ele>
        <time>2018-09-02T11:25:56Z</time>
      </trkpt>
      <trkpt lat="40.440767" lon="-5.282700">
        <ele>2004.0</ele>
        <time>2018-09-02T11:25:57Z</time>
      </trkpt>
      <trkpt lat="40.440833" lon="-5.282583">
        <ele>2004.0</ele>
        <time>2018-09-02T11:25:58Z</time>
      </trkpt>
      <trkpt lat="40.440917" lon="-5.282500">
        <ele>2005.0</ele>
        <time>2018-09-02T11:25:59Z</time>
      </trkpt>
      <trkpt lat="40.441000" lon="-5.282483">
        <ele>2005.0</ele>
        <time>2018-09-02T11:26:00Z</time>
      </trkpt>
      <trkpt lat="40.441050" lon="-5.282483">
        <ele>2006.0</ele>
        <time>2018-09-02T11:26:01Z</time>
      </trkpt>
      <trkpt lat="40.441100" lon="-5.282483">
        <ele>2008.0</ele>
        <time>2018-09-02T11:26:02Z</time>
      </trkpt>
      <trkpt lat="40.441133" lon="-5.282483">
        <ele>2010.0</ele>
        <time>2018-09-02T11:26:03Z</time>
      </trkpt>
      <trkpt lat="40.441183" lon="-5.282500">
        <ele>2011.0</ele>
        <time>2018-09-02T11:26:04Z</time>
      </trkpt>
      <trkpt lat="40.441217" lon="-5.282517">
        <ele>2011.0</ele>
        <time>2018-09-02T11:26:05Z</time>
      </trkpt>
      <trkpt lat="40.441233" lon="-5.282567">
        <ele>2012.0</ele>
        <time>2018-09-02T11:26:06Z</time>
      </trkpt>
      <trkpt lat="40.441233" lon="-5.282617">
        <ele>2013.0</ele>
        <time>2018-09-02T11:26:07Z</time>
      </trkpt>
      <trkpt lat="40.441200" lon="-5.282650">
        <ele>2014.0</ele>
        <time>2018-09-02T11:26:08Z</time>
      </trkpt>
      <trkpt lat="40.441167" lon="-5.282667">
        <ele>2015.0</ele>
        <time>2018-09-02T11:26:09Z</time>
      </trkpt>
      <trkpt lat="40.441117" lon="-5.282667">
        <ele>2017.0</ele>
        <time>2018-09-02T11:26:10Z</time>
      </trkpt>
      <trkpt lat="40.441067" lon="-5.282650">
        <ele>2019.0</ele>
        <time>2018-09-02T11:26:11Z</time>
      </trkpt>
      <trkpt lat="40.441000" lon="-5.282600">
        <ele>2020.0</ele>
        <time>2018-09-02T11:26:12Z</time>
      </trkpt>
      <trkpt lat="40.440950" lon="-5.282567">
        <ele>2021.0</ele>
        <time>2018-09-02T11:26:13Z</time>
      </trkpt>
      <trkpt lat="40.440883" lon="-5.282550">
        <ele>2021.0</ele>
        <time>2018-09-02T11:26:14Z</time>
      </trkpt>
      <trkpt lat="40.440833" lon="-5.282667">
        <ele>2020.0</ele>
        <time>2018-09-02T11:26:17Z</time>
      </trkpt>
      <trkpt lat="40.440867" lon="-5.282717">
        <ele>2021.0</ele>
        <time>2018-09-02T11:26:18Z</time>
      </trkpt>
      <trkpt lat="40.440883" lon="-5.282750">
        <ele>2022.0</ele>
        <time>2018-09-02T11:26:19Z</time>
      </trkpt>
      <trkpt lat="40.440917" lon="-5.282783">
        <ele>2023.0</ele>
        <time>2018-09-02T11:26:20Z</time>
      </trkpt>
      <trkpt lat="40.440933" lon="-5.282817">
        <ele>2023.0</ele>
        <time>2018-09-02T11:26:21Z</time>
      </trkpt>
      <trkpt lat="40.440983" lon="-5.282850">
        <ele>2023.0</ele>
        <time>2018-09-02T11:26:22Z</time>
      </trkpt>
      <trkpt lat="40.441050" lon="-5.282883">
        <ele>2022.0</ele>
        <time>2018-09-02T11:26:23Z</time>
      </trkpt>
      <trkpt lat="40.441133" lon="-5.282917">
        <ele>2021.0</ele>
        <time>2018-09-02T11:26:24Z</time>
      </trkpt>
      <trkpt lat="40.441217" lon="-5.282917">
        <ele>2021.0</ele>
        <time>2018-09-02T11:26:25Z</time>
      </trkpt>
      <trkpt lat="40.441317" lon="-5.282883">
        <ele>2021.0</ele>
        <time>2018-09-02T11:26:26Z</time>
      </trkpt>
      <trkpt lat="40.441417" lon="-5.282817">
        <ele>2021.0</ele>
        <time>2018-09-02T11:26:27Z</time>
      </trkpt>
      <trkpt lat="40.441500" lon="-5.282733">
        <ele>2021.0</ele>
        <time>2018-09-02T11:26:28Z</time>
      </trkpt>
      <trkpt lat="40.441583" lon="-5.282667">
        <ele>2021.0</ele>
        <time>2018-09-02T11:26:29Z</time>
      </trkpt>
      <trkpt lat="40.441667" lon="-5.282583">
        <ele>2023.0</ele>
        <time>2018-09-02T11:26:30Z</time>
      </trkpt>
      <trkpt lat="40.441733" lon="-5.282533">
        <ele>2023.0</ele>
        <time>2018-09-02T11:26:31Z</time>
      </trkpt>
      <trkpt lat="40.441833" lon="-5.282483">
        <ele>2023.0</ele>
        <time>2018-09-02T11:26:32Z</time>
      </trkpt>
      <trkpt lat="40.441917" lon="-5.282450">
        <ele>2023.0</ele>
        <time>2018-09-02T11:26:33Z</time>
      </trkpt>
      <trkpt lat="40.441983" lon="-5.282467">
        <ele>2022.0</ele>
        <time>2018-09-02T11:26:34Z</time>
      </trkpt>
      <trkpt lat="40.442050" lon="-5.282500">
        <ele>2021.0</ele>
        <time>2018-09-02T11:26:35Z</time>
      </trkpt>
      <trkpt lat="40.442083" lon="-5.282550">
        <ele>2020.0</ele>
        <time>2018-09-02T11:26:36Z</time>
      </trkpt>
      <trkpt lat="40.442083" lon="-5.282617">
        <ele>2019.0</ele>
        <time>2018-09-02T11:26:37Z</time>
      </trkpt>
      <trkpt lat="40.442050" lon="-5.282667">
        <ele>2019.0</ele>
        <time>2018-09-02T11:26:38Z</time>
      </trkpt>
      <trkpt lat="40.442017" lon="-5.282683">
        <ele>2019.0</ele>
        <time>2018-09-02T11:26:39Z</time>
      </trkpt>
      <trkpt lat="40.441967" lon="-5.282683">
        <ele>2019.0</ele>
        <time>2018-09-02T11:26:40Z</time>
      </trkpt>
      <trkpt lat="40.441900" lon="-5.282683">
        <ele>2019.0</ele>
        <time>2018-09-02T11:26:41Z</time>
      </trkpt>
      <trkpt lat="40.441850" lon="-5.282667">
        <ele>2019.0</ele>
        <time>2018-09-02T11:26:42Z</time>
      </trkpt>
      <trkpt lat="40.441800" lon="-5.282667">
        <ele>2019.0</ele>
        <time>2018-09-02T11:26:43Z</time>
      </trkpt>
      <trkpt lat="40.441750" lon="-5.282650">
        <ele>2019.0</ele>
        <time>2018-09-02T11:26:44Z</time>
      </trkpt>
      <trkpt lat="40.441700" lon="-5.282633">
        <ele>2020.0</ele>
        <time>2018-09-02T11:26:45Z</time>
      </trkpt>
      <trkpt lat="40.441667" lon="-5.282633">
        <ele>2020.0</ele>
        <time>2018-09-02T11:26:46Z</time>
      </trkpt>
      <trkpt lat="40.441617" lon="-5.282633">
        <ele>2020.0</ele>
        <time>2018-09-02T11:26:47Z</time>
      </trkpt>
      <trkpt lat="40.441567" lon="-5.282650">
        <ele>2020.0</ele>
        <time>2018-09-02T11:26:48Z</time>
      </trkpt>
      <trkpt lat="40.441517" lon="-5.282667">
        <ele>2020.0</ele>
        <time>2018-09-02T11:26:49Z</time>
      </trkpt>
      <trkpt lat="40.441483" lon="-5.282700">
        <ele>2021.0</ele>
        <time>2018-09-02T11:26:50Z</time>
      </trkpt>
      <trkpt lat="40.441467" lon="-5.282733">
        <ele>2023.0</ele>
        <time>2018-09-02T11:26:51Z</time>
      </trkpt>
      <trkpt lat="40.441433" lon="-5.282750">
        <ele>2025.0</ele>
        <time>2018-09-02T11:26:52Z</time>
      </trkpt>
      <trkpt lat="40.441383" lon="-5.282767">
        <ele>2026.0</ele>
        <time>2018-09-02T11:26:53Z</time>
      </trkpt>
      <trkpt lat="40.441333" lon="-5.282783">
        <ele>2028.0</ele>
        <time>2018-09-02T11:26:54Z</time>
      </trkpt>
      <trkpt lat="40.441283" lon="-5.282833">
        <ele>2029.0</ele>
        <time>2018-09-02T11:26:55Z</time>
      </trkpt>
      <trkpt lat="40.441233" lon="-5.282867">
        <ele>2032.0</ele>
        <time>2018-09-02T11:26:56Z</time>
      </trkpt>
      <trkpt lat="40.441200" lon="-5.282900">
        <ele>2035.0</ele>
        <time>2018-09-02T11:26:57Z</time>
      </trkpt>
      <trkpt lat="40.441167" lon="-5.282900">
        <ele>2037.0</ele>
        <time>2018-09-02T11:26:58Z</time>
      </trkpt>
      <trkpt lat="40.441133" lon="-5.282900">
        <ele>2039.0</ele>
        <time>2018-09-02T11:26:59Z</time>
      </trkpt>
      <trkpt lat="40.441100" lon="-5.282900">
        <ele>2038.0</ele>
        <time>2018-09-02T11:27:00Z</time>
      </trkpt>
      <trkpt lat="40.441067" lon="-5.282950">
        <ele>2037.0</ele>
        <time>2018-09-02T11:27:01Z</time>
      </trkpt>
      <trkpt lat="40.441050" lon="-5.283017">
        <ele>2035.0</ele>
        <time>2018-09-02T11:27:02Z</time>
      </trkpt>
      <trkpt lat="40.441083" lon="-5.283083">
        <ele>2034.0</ele>
        <time>2018-09-02T11:27:03Z</time>
      </trkpt>
      <trkpt lat="40.441150" lon="-5.283117">
        <ele>2033.0</ele>
        <time>2018-09-02T11:27:04Z</time>
      </trkpt>
      <trkpt lat="40.441250" lon="-5.283117">
        <ele>2032.0</ele>
        <time>2018-09-02T11:27:05Z</time>
      </trkpt>
      <trkpt lat="40.441350" lon="-5.283067">
        <ele>2030.0</ele>
        <time>2018-09-02T11:27:06Z</time>
      </trkpt>
      <trkpt lat="40.441467" lon="-5.282983">
        <ele>2028.0</ele>
        <time>2018-09-02T11:27:07Z</time>
      </trkpt>
      <trkpt lat="40.441567" lon="-5.282833">
        <ele>2027.0</ele>
        <time>2018-09-02T11:27:08Z</time>
      </trkpt>
      <trkpt lat="40.441550" lon="-5.282350">
        <ele>2027.0</ele>
        <time>2018-09-02T11:27:11Z</time>
      </trkpt>
      <trkpt lat="40.441467" lon="-5.282283">
        <ele>2027.0</ele>
        <time>2018-09-02T11:27:12Z</time>
      </trkpt>
      <trkpt lat="40.441400" lon="-5.282283">
        <ele>2027.0</ele>
        <time>2018-09-02T11:27:13Z</time>
      </trkpt>
      <trkpt lat="40.441383" lon="-5.282333">
        <ele>2027.0</ele>
        <time>2018-09-02T11:27:14Z</time>
      </trkpt>
      <trkpt lat="40.441400" lon="-5.282400">
        <ele>2027.0</ele>
        <time>2018-09-02T11:27:15Z</time>
      </trkpt>
      <trkpt lat="40.441450" lon="-5.282467">
        <ele>2026.0</ele>
        <time>2018-09-02T11:27:16Z</time>
      </trkpt>
      <trkpt lat="40.441517" lon="-5.282517">
        <ele>2026.0</ele>
        <time>2018-09-02T11:27:17Z</time>
      </trkpt>
      <trkpt lat="40.441550" lon="-5.282567">
        <ele>2026.0</ele>
        <time>2018-09-02T11:27:18Z</time>
      </trkpt>
      <trkpt lat="40.441550" lon="-5.282633">
        <ele>2026.0</ele>
        <time>2018-09-02T11:27:19Z</time>
      </trkpt>
      <trkpt lat="40.441550" lon="-5.282683">
        <ele>2025.0</ele>
        <time>2018-09-02T11:27:20Z</time>
      </trkpt>
      <trkpt lat="40.441567" lon="-5.282750">
        <ele>2025.0</ele>
        <time>2018-09-02T11:27:21Z</time>
      </trkpt>
      <trkpt lat="40.441583" lon="-5.282817">
        <ele>2025.0</ele>
        <time>2018-09-02T11:27:22Z</time>
      </trkpt>
      <trkpt lat="40.441633" lon="-5.282867">
        <ele>2025.0</ele>
        <time>2018-09-02T11:27:23Z</time>
      </trkpt>
      <trkpt lat="40.441667" lon="-5.282933">
        <ele>2025.0</ele>
        <time>2018-09-02T11:27:24Z</time>
      </trkpt>
      <trkpt lat="40.441700" lon="-5.283000">
        <ele>2024.0</ele>
        <time>2018-09-02T11:27:25Z</time>
      </trkpt>
      <trkpt lat="40.441717" lon="-5.283067">
        <ele>2024.0</ele>
        <time>2018-09-02T11:27:26Z</time>
      </trkpt>
      <trkpt lat="40.441750" lon="-5.283133">
        <ele>2024.0</ele>
        <time>2018-09-02T11:27:27Z</time>
      </trkpt>
      <trkpt lat="40.441783" lon="-5.283200">
        <ele>2025.0</ele>
        <time>2018-09-02T11:27:28Z</time>
      </trkpt>
      <trkpt lat="40.441817" lon="-5.283267">
        <ele>2025.0</ele>
        <time>2018-09-02T11:27:29Z</time>
      </trkpt>
      <trkpt lat="40.441833" lon="-5.283317">
        <ele>2025.0</ele>
        <time>2018-09-02T11:27:30Z</time>
      </trkpt>
      <trkpt lat="40.441850" lon="-5.283383">
        <ele>2024.0</ele>
        <time>2018-09-02T11:27:31Z</time>
      </trkpt>
      <trkpt lat="40.441850" lon="-5.283450">
        <ele>2024.0</ele>
        <time>2018-09-02T11:27:32Z</time>
      </trkpt>
      <trkpt lat="40.441883" lon="-5.283533">
        <ele>2023.0</ele>
        <time>2018-09-02T11:27:33Z</time>
      </trkpt>
      <trkpt lat="40.441900" lon="-5.283600">
        <ele>2024.0</ele>
        <time>2018-09-02T11:27:34Z</time>
      </trkpt>
      <trkpt lat="40.441950" lon="-5.283633">
        <ele>2025.0</ele>
        <time>2018-09-02T11:27:35Z</time>
      </trkpt>
      <trkpt lat="40.441983" lon="-5.283667">
        <ele>2026.0</ele>
        <time>2018-09-02T11:27:36Z</time>
      </trkpt>
      <trkpt lat="40.442017" lon="-5.283700">
        <ele>2027.0</ele>
        <time>2018-09-02T11:27:37Z</time>
      </trkpt>
      <trkpt lat="40.442067" lon="-5.283750">
        <ele>2027.0</ele>
        <time>2018-09-02T11:27:38Z</time>
      </trkpt>
      <trkpt lat="40.442100" lon="-5.283817">
        <ele>2028.0</ele>
        <time>2018-09-02T11:27:39Z</time>
      </trkpt>
      <trkpt lat="40.442133" lon="-5.283883">
        <ele>2029.0</ele>
        <time>2018-09-02T11:27:40Z</time>
      </trkpt>
      <trkpt lat="40.442150" lon="-5.283933">
        <ele>2031.0</ele>
        <time>2018-09-02T11:27:41Z</time>
      </trkpt>
      <trkpt lat="40.442167" lon="-5.283983">
        <ele>2033.0</ele>
        <time>2018-09-02T11:27:42Z</time>
      </trkpt>
      <trkpt lat="40.442200" lon="-5.284033">
        <ele>2033.0</ele>
        <time>2018-09-02T11:27:43Z</time>
      </trkpt>
      <trkpt lat="40.442233" lon="-5.284117">
        <ele>2033.0</ele>
        <time>2018-09-02T11:27:44Z</time>
      </trkpt>
      <trkpt lat="40.442250" lon="-5.284233">
        <ele>2033.0</ele>
        <time>2018-09-02T11:27:45Z</time>
      </trkpt>
      <trkpt lat="40.442267" lon="-5.284317">
        <ele>2033.0</ele>
        <time>2018-09-02T11:27:46Z</time>
      </trkpt>
      <trkpt lat="40.442283" lon="-5.284417">
        <ele>2035.0</ele>
        <time>2018-09-02T11:27:47Z</time>
      </trkpt>
      <trkpt lat="40.442283" lon="-5.284483">
        <ele>2036.0</ele>
        <time>2018-09-02T11:27:48Z</time>
      </trkpt>
      <trkpt lat="40.442300" lon="-5.284567">
        <ele>2037.0</ele>
        <time>2018-09-02T11:27:49Z</time>
      </trkpt>
      <trkpt lat="40.442300" lon="-5.284650">
        <ele>2037.0</ele>
        <time>2018-09-02T11:27:50Z</time>
      </trkpt>
      <trkpt lat="40.442283" lon="-5.284733">
        <ele>2036.0</ele>
        <time>2018-09-02T11:27:51Z</time>
      </trkpt>
      <trkpt lat="40.442267" lon="-5.284817">
        <ele>2036.0</ele>
        <time>2018-09-02T11:27:52Z</time>
      </trkpt>
      <trkpt lat="40.442233" lon="-5.284883">
        <ele>2036.0</ele>
        <time>2018-09-02T11:27:53Z</time>
      </trkpt>
      <trkpt lat="40.442217" lon="-5.284933">
        <ele>2037.0</ele>
        <time>2018-09-02T11:27:54Z</time>
      </trkpt>
      <trkpt lat="40.442233" lon="-5.285000">
        <ele>2038.0</ele>
        <time>2018-09-02T11:27:55Z</time>
      </trkpt>
      <trkpt lat="40.442233" lon="-5.285067">
        <ele>2038.0</ele>
        <time>2018-09-02T11:27:56Z</time>
      </trkpt>
      <trkpt lat="40.442250" lon="-5.285133">
        <ele>2036.0</ele>
        <time>2018-09-02T11:27:57Z</time>
      </trkpt>
      <trkpt lat="40.442283" lon="-5.285200">
        <ele>2035.0</ele>
        <time>2018-09-02T11:27:58Z</time>
      </trkpt>
      <trkpt lat="40.442350" lon="-5.285250">
        <ele>2033.0</ele>
        <time>2018-09-02T11:27:59Z</time>
      </trkpt>
      <trkpt lat="40.442433" lon="-5.285267">
        <ele>2030.0</ele>
        <time>2018-09-02T11:28:00Z</time>
      </trkpt>
      <trkpt lat="40.442533" lon="-5.285250">
        <ele>2028.0</ele>
        <time>2018-09-02T11:28:01Z</time>
      </trkpt>
      <trkpt lat="40.442617" lon="-5.285200">
        <ele>2026.0</ele>
        <time>2018-09-02T11:28:02Z</time>
      </trkpt>
      <trkpt lat="40.442700" lon="-5.285117">
        <ele>2026.0</ele>
        <time>2018-09-02T11:28:03Z</time>
      </trkpt>
      <trkpt lat="40.442767" lon="-5.285033">
        <ele>2026.0</ele>
        <time>2018-09-02T11:28:04Z</time>
      </trkpt>
      <trkpt lat="40.442817" lon="-5.284933">
        <ele>2026.0</ele>
        <time>2018-09-02T11:28:05Z</time>
      </trkpt>
      <trkpt lat="40.442883" lon="-5.284817">
        <ele>2025.0</ele>
        <time>2018-09-02T11:28:06Z</time>
      </trkpt>
      <trkpt lat="40.442950" lon="-5.284683">
        <ele>2024.0</ele>
        <time>2018-09-02T11:28:07Z</time>
      </trkpt>
      <trkpt lat="40.443000" lon="-5.284533">
        <ele>2023.0</ele>
        <time>2018-09-02T11:28:08Z</time>
      </trkpt>
      <trkpt lat="40.443050" lon="-5.284383">
        <ele>2022.0</ele>
        <time>2018-09-02T11:28:09Z</time>
      </trkpt>
      <trkpt lat="40.443083" lon="-5.284233">
        <ele>2021.0</ele>
        <time>2018-09-02T11:28:10Z</time>
      </trkpt>
      <trkpt lat="40.443083" lon="-5.284100">
        <ele>2019.0</ele>
        <time>2018-09-02T11:28:11Z</time>
      </trkpt>
      <trkpt lat="40.443050" lon="-5.283967">
        <ele>2017.0</ele>
        <time>2018-09-02T11:28:12Z</time>
      </trkpt>
      <trkpt lat="40.443000" lon="-5.283850">
        <ele>2015.0</ele>
        <time>2018-09-02T11:28:13Z</time>
      </trkpt>
      <trkpt lat="40.442933" lon="-5.283750">
        <ele>2013.0</ele>
        <time>2018-09-02T11:28:14Z</time>
      </trkpt>
      <trkpt lat="40.442867" lon="-5.283650">
        <ele>2012.0</ele>
        <time>2018-09-02T11:28:15Z</time>
      </trkpt>
      <trkpt lat="40.442767" lon="-5.283600">
        <ele>2010.0</ele>
        <time>2018-09-02T11:28:16Z</time>
      </trkpt>
      <trkpt lat="40.442683" lon="-5.283583">
        <ele>2009.0</ele>
        <time>2018-09-02T11:28:17Z</time>
      </trkpt>
      <trkpt lat="40.442600" lon="-5.283567">
        <ele>2009.0</ele>
        <time>2018-09-02T11:28:18Z</time>
      </trkpt>
      <trkpt lat="40.442533" lon="-5.283550">
        <ele>2008.0</ele>
        <time>2018-09-02T11:28:19Z</time>
      </trkpt>
      <trkpt lat="40.442467" lon="-5.283533">
        <ele>2007.0</ele>
        <time>2018-09-02T11:28:20Z</time>
      </trkpt>
      <trkpt lat="40.442383" lon="-5.283500">
        <ele>2010.0</ele>
        <time>2018-09-02T11:28:21Z</time>
      </trkpt>
      <trkpt lat="40.442300" lon="-5.283500">
        <ele>2010.0</ele>
        <time>2018-09-02T11:28:22Z</time>
      </trkpt>
      <trkpt lat="40.442217" lon="-5.283533">
        <ele>2010.0</ele>
        <time>2018-09-02T11:28:23Z</time>
      </trkpt>
      <trkpt lat="40.442133" lon="-5.283567">
        <ele>2009.0</ele>
        <time>2018-09-02T11:28:24Z</time>
      </trkpt>
      <trkpt lat="40.442050" lon="-5.283600">
        <ele>2009.0</ele>
        <time>2018-09-02T11:28:25Z</time>
      </trkpt>
      <trkpt lat="40.441983" lon="-5.283617">
        <ele>2009.0</ele>
        <time>2018-09-02T11:28:26Z</time>
      </trkpt>
      <trkpt lat="40.441917" lon="-5.283633">
        <ele>2009.0</ele>
        <time>2018-09-02T11:28:27Z</time>
      </trkpt>
      <trkpt lat="40.441850" lon="-5.283650">
        <ele>2009.0</ele>
        <time>2018-09-02T11:28:28Z</time>
      </trkpt>
      <trkpt lat="40.441783" lon="-5.283667">
        <ele>2009.0</ele>
        <time>2018-09-02T11:28:29Z</time>
      </trkpt>
      <trkpt lat="40.441733" lon="-5.283700">
        <ele>2009.0</ele>
        <time>2018-09-02T11:28:30Z</time>
      </trkpt>
      <trkpt lat="40.441700" lon="-5.283750">
        <ele>2008.0</ele>
        <time>2018-09-02T11:28:31Z</time>
      </trkpt>
      <trkpt lat="40.441700" lon="-5.283833">
        <ele>2006.0</ele>
        <time>2018-09-02T11:28:32Z</time>
      </trkpt>
      <trkpt lat="40.441717" lon="-5.283933">
        <ele>2005.0</ele>
        <time>2018-09-02T11:28:33Z</time>
      </trkpt>
      <trkpt lat="40.441767" lon="-5.284017">
        <ele>2002.0</ele>
        <time>2018-09-02T11:28:34Z</time>
      </trkpt>
      <trkpt lat="40.441850" lon="-5.284033">
        <ele>2001.0</ele>
        <time>2018-09-02T11:28:35Z</time>
      </trkpt>
      <trkpt lat="40.441950" lon="-5.284000">
        <ele>2000.0</ele>
        <time>2018-09-02T11:28:36Z</time>
      </trkpt>
      <trkpt lat="40.442017" lon="-5.283883">
        <ele>1998.0</ele>
        <time>2018-09-02T11:28:37Z</time>
      </trkpt>
      <trkpt lat="40.442050" lon="-5.283733">
        <ele>1996.0</ele>
        <time>2018-09-02T11:28:38Z</time>
      </trkpt>
      <trkpt lat="40.442067" lon="-5.283583">
        <ele>1995.0</ele>
        <time>2018-09-02T11:28:39Z</time>
      </trkpt>
      <trkpt lat="40.442017" lon="-5.283433">
        <ele>1994.0</ele>
        <time>2018-09-02T11:28:40Z</time>
      </trkpt>
      <trkpt lat="40.441967" lon="-5.283300">
        <ele>1994.0</ele>
        <time>2018-09-02T11:28:41Z</time>
      </trkpt>
      <trkpt lat="40.441900" lon="-5.283200">
        <ele>1993.0</ele>
        <time>2018-09-02T11:28:42Z</time>
      </trkpt>
      <trkpt lat="40.441850" lon="-5.283117">
        <ele>1992.0</ele>
        <time>2018-09-02T11:28:43Z</time>
      </trkpt>
      <trkpt lat="40.441767" lon="-5.283017">
        <ele>1991.0</ele>
        <time>2018-09-02T11:28:44Z</time>
      </trkpt>
      <trkpt lat="40.441683" lon="-5.282950">
        <ele>1990.0</ele>
        <time>2018-09-02T11:28:45Z</time>
      </trkpt>
      <trkpt lat="40.441600" lon="-5.282900">
        <ele>1990.0</ele>
        <time>2018-09-02T11:28:46Z</time>
      </trkpt>
      <trkpt lat="40.441517" lon="-5.282867">
        <ele>1989.0</ele>
        <time>2018-09-02T11:28:47Z</time>
      </trkpt>
      <trkpt lat="40.441433" lon="-5.282850">
        <ele>1989.0</ele>
        <time>2018-09-02T11:28:48Z</time>
      </trkpt>
      <trkpt lat="40.441350" lon="-5.282850">
        <ele>1989.0</ele>
        <time>2018-09-02T11:28:49Z</time>
      </trkpt>
      <trkpt lat="40.441267" lon="-5.282867">
        <ele>1988.0</ele>
        <time>2018-09-02T11:28:50Z</time>
      </trkpt>
      <trkpt lat="40.441200" lon="-5.282933">
        <ele>1988.0</ele>
        <time>2018-09-02T11:28:51Z</time>
      </trkpt>
      <trkpt lat="40.441117" lon="-5.282983">
        <ele>1987.0</ele>
        <time>2018-09-02T11:28:52Z</time>
      </trkpt>
      <trkpt lat="40.441067" lon="-5.283017">
        <ele>1990.0</ele>
        <time>2018-09-02T11:28:53Z</time>
      </trkpt>
      <trkpt lat="40.441000" lon="-5.283033">
        <ele>1992.0</ele>
        <time>2018-09-02T11:28:54Z</time>
      </trkpt>
      <trkpt lat="40.440950" lon="-5.283050">
        <ele>1992.0</ele>
        <time>2018-09-02T11:28:55Z</time>
      </trkpt>
      <trkpt lat="40.440900" lon="-5.283083">
        <ele>1992.0</ele>
        <time>2018-09-02T11:28:56Z</time>
      </trkpt>
      <trkpt lat="40.440850" lon="-5.283133">
        <ele>1992.0</ele>
        <time>2018-09-02T11:28:57Z</time>
      </trkpt>
      <trkpt lat="40.440817" lon="-5.283217">
        <ele>1992.0</ele>
        <time>2018-09-02T11:28:58Z</time>
      </trkpt>
      <trkpt lat="40.440817" lon="-5.283283">
        <ele>1992.0</ele>
        <time>2018-09-02T11:28:59Z</time>
      </trkpt>
      <trkpt lat="40.440867" lon="-5.283350">
        <ele>1991.0</ele>
        <time>2018-09-02T11:29:00Z</time>
      </trkpt>
      <trkpt lat="40.441117" lon="-5.283250">
        <ele>1991.0</ele>
        <time>2018-09-02T11:29:03Z</time>
      </trkpt>
      <trkpt lat="40.441183" lon="-5.283133">
        <ele>1993.0</ele>
        <time>2018-09-02T11:29:04Z</time>
      </trkpt>
      <trkpt lat="40.441217" lon="-5.283017">
        <ele>1994.0</ele>
        <time>2018-09-02T11:29:05Z</time>
      </trkpt>
      <trkpt lat="40.441250" lon="-5.282883">
        <ele>1995.0</ele>
        <time>2018-09-02T11:29:06Z</time>
      </trkpt>
      <trkpt lat="40.441233" lon="-5.282750">
        <ele>1994.0</ele>
        <time>2018-09-02T11:29:07Z</time>
      </trkpt>
      <trkpt lat="40.441200" lon="-5.282600">
        <ele>1994.0</ele>
        <time>2018-09-02T11:29:08Z</time>
      </trkpt>
      <trkpt lat="40.441133" lon="-5.282467">
        <ele>1993.0</ele>
        <time>2018-09-02T11:29:09Z</time>
      </trkpt>
      <trkpt lat="40.441033" lon="-5.282367">
        <ele>1992.0</ele>
        <time>2018-09-02T11:29:10Z</time>
      </trkpt>
      <trkpt lat="40.440917" lon="-5.282317">
        <ele>1991.0</ele>
        <time>2018-09-02T11:29:11Z</time>
      </trkpt>
      <trkpt lat="40.440717" lon="-5.282300">
        <ele>1990.0</ele>
        <time>2018-09-02T11:29:13Z</time>
      </trkpt>
      <trkpt lat="40.440633" lon="-5.282300">
        <ele>1992.0</ele>
        <time>2018-09-02T11:29:14Z</time>
      </trkpt>
      <trkpt lat="40.440567" lon="-5.282300">
        <ele>1995.0</ele>
        <time>2018-09-02T11:29:15Z</time>
      </trkpt>
      <trkpt lat="40.440483" lon="-5.282283">
        <ele>1995.0</ele>
        <time>2018-09-02T11:29:16Z</time>
      </trkpt>
      <trkpt lat="40.440400" lon="-5.282283">
        <ele>1995.0</ele>
        <time>2018-09-02T11:29:17Z</time>
      </trkpt>
      <trkpt lat="40.440333" lon="-5.282317">
        <ele>1995.0</ele>
        <time>2018-09-02T11:29:18Z</time>
      </trkpt>
      <trkpt lat="40.440267" lon="-5.282367">
        <ele>1996.0</ele>
        <time>2018-09-02T11:29:19Z</time>
      </trkpt>
      <trkpt lat="40.440250" lon="-5.282417">
        <ele>1996.0</ele>
        <time>2018-09-02T11:29:20Z</time>
      </trkpt>
      <trkpt lat="40.440267" lon="-5.282483">
        <ele>1996.0</ele>
        <time>2018-09-02T11:29:21Z</time>
      </trkpt>
      <trkpt lat="40.440300" lon="-5.282550">
        <ele>1995.0</ele>
        <time>2018-09-02T11:29:22Z</time>
      </trkpt>
      <trkpt lat="40.440350" lon="-5.282583">
        <ele>1995.0</ele>
        <time>2018-09-02T11:29:23Z</time>
      </trkpt>
      <trkpt lat="40.440467" lon="-5.282633">
        <ele>1995.0</ele>
        <time>2018-09-02T11:29:25Z</time>
      </trkpt>
      <trkpt lat="40.440500" lon="-5.282683">
        <ele>1995.0</ele>
        <time>2018-09-02T11:29:26Z</time>
      </trkpt>
      <trkpt lat="40.440533" lon="-5.282717">
        <ele>1996.0</ele>
        <time>2018-09-02T11:29:27Z</time>
      </trkpt>
      <trkpt lat="40.440550" lon="-5.282767">
        <ele>1996.0</ele>
        <time>2018-09-02T11:29:28Z</time>
      </trkpt>
      <trkpt lat="40.440583" lon="-5.282817">
        <ele>1996.0</ele>
        <time>2018-09-02T11:29:29Z</time>
      </trkpt>
      <trkpt lat="40.440633" lon="-5.282850">
        <ele>1996.0</ele>
        <time>2018-09-02T11:29:30Z</time>
      </trkpt>
      <trkpt lat="40.440667" lon="-5.282900">
        <ele>1996.0</ele>
        <time>2018-09-02T11:29:31Z</time>
      </trkpt>
      <trkpt lat="40.440700" lon="-5.282950">
        <ele>1996.0</ele>
        <time>2018-09-02T11:29:32Z</time>
      </trkpt>
      <trkpt lat="40.440733" lon="-5.282983">
        <ele>1997.0</ele>
        <time>2018-09-02T11:29:33Z</time>
      </trkpt>
      <trkpt lat="40.440767" lon="-5.283033">
        <ele>1997.0</ele>
        <time>2018-09-02T11:29:34Z</time>
      </trkpt>
      <trkpt lat="40.440800" lon="-5.283083">
        <ele>1998.0</ele>
        <time>2018-09-02T11:29:35Z</time>
      </trkpt>
      <trkpt lat="40.440833" lon="-5.283133">
        <ele>1998.0</ele>
        <time>2018-09-02T11:29:36Z</time>
      </trkpt>
      <trkpt lat="40.440867" lon="-5.283150">
        <ele>1999.0</ele>
        <time>2018-09-02T11:29:37Z</time>
      </trkpt>
      <trkpt lat="40.440883" lon="-5.283183">
        <ele>1999.0</ele>
        <time>2018-09-02T11:29:38Z</time>
      </trkpt>
      <trkpt lat="40.440900" lon="-5.283217">
        <ele>2000.0</ele>
        <time>2018-09-02T11:29:39Z</time>
      </trkpt>
      <trkpt lat="40.440933" lon="-5.283250">
        <ele>2000.0</ele>
        <time>2018-09-02T11:29:40Z</time>
      </trkpt>
      <trkpt lat="40.440967" lon="-5.283300">
        <ele>1999.0</ele>
        <time>2018-09-02T11:29:41Z</time>
      </trkpt>
      <trkpt lat="40.440983" lon="-5.283383">
        <ele>1998.0</ele>
        <time>2018-09-02T11:29:42Z</time>
      </trkpt>
      <trkpt lat="40.441000" lon="-5.283450">
        <ele>1997.0</ele>
        <time>2018-09-02T11:29:43Z</time>
      </trkpt>
      <trkpt lat="40.441000" lon="-5.283517">
        <ele>1997.0</ele>
        <time>2018-09-02T11:29:44Z</time>
      </trkpt>
      <trkpt lat="40.440983" lon="-5.283567">
        <ele>1998.0</ele>
        <time>2018-09-02T11:29:45Z</time>
      </trkpt>
      <trkpt lat="40.441000" lon="-5.283633">
        <ele>1999.0</ele>
        <time>2018-09-02T11:29:46Z</time>
      </trkpt>
      <trkpt lat="40.441017" lon="-5.283683">
        <ele>1998.0</ele>
        <time>2018-09-02T11:29:47Z</time>
      </trkpt>
      <trkpt lat="40.441067" lon="-5.283733">
        <ele>1998.0</ele>
        <time>2018-09-02T11:29:48Z</time>
      </trkpt>
      <trkpt lat="40.441100" lon="-5.283783">
        <ele>1998.0</ele>
        <time>2018-09-02T11:29:49Z</time>
      </trkpt>
      <trkpt lat="40.441150" lon="-5.283817">
        <ele>1997.0</ele>
        <time>2018-09-02T11:29:50Z</time>
      </trkpt>
      <trkpt lat="40.441183" lon="-5.283833">
        <ele>1997.0</ele>
        <time>2018-09-02T11:29:51Z</time>
      </trkpt>
      <trkpt lat="40.441200" lon="-5.283883">
        <ele>1996.0</ele>
        <time>2018-09-02T11:29:52Z</time>
      </trkpt>
      <trkpt lat="40.441233" lon="-5.283933">
        <ele>1993.0</ele>
        <time>2018-09-02T11:29:53Z</time>
      </trkpt>
      <trkpt lat="40.441267" lon="-5.284000">
        <ele>1991.0</ele>
        <time>2018-09-02T11:29:54Z</time>
      </trkpt>
      <trkpt lat="40.441317" lon="-5.284050">
        <ele>1989.0</ele>
        <time>2018-09-02T11:29:55Z</time>
      </trkpt>
      <trkpt lat="40.441350" lon="-5.284100">
        <ele>1990.0</ele>
        <time>2018-09-02T11:29:56Z</time>
      </trkpt>
      <trkpt lat="40.441383" lon="-5.284150">
        <ele>1990.0</ele>
        <time>2018-09-02T11:29:57Z</time>
      </trkpt>
      <trkpt lat="40.441400" lon="-5.284200">
        <ele>1991.0</ele>
        <time>2018-09-02T11:29:58Z</time>
      </trkpt>
      <trkpt lat="40.441450" lon="-5.284250">
        <ele>1992.0</ele>
        <time>2018-09-02T11:29:59Z</time>
      </trkpt>
      <trkpt lat="40.441483" lon="-5.284300">
        <ele>1993.0</ele>
        <time>2018-09-02T11:30:00Z</time>
      </trkpt>
      <trkpt lat="40.441533" lon="-5.284350">
        <ele>1994.0</ele>
        <time>2018-09-02T11:30:01Z</time>
      </trkpt>
      <trkpt lat="40.441550" lon="-5.284383">
        <ele>1997.0</ele>
        <time>2018-09-02T11:30:02Z</time>
      </trkpt>
      <trkpt lat="40.441567" lon="-5.284400">
        <ele>1998.0</ele>
        <time>2018-09-02T11:30:03Z</time>
      </trkpt>
      <trkpt lat="40.441600" lon="-5.284450">
        <ele>1999.0</ele>
        <time>2018-09-02T11:30:04Z</time>
      </trkpt>
      <trkpt lat="40.441617" lon="-5.284500">
        <ele>1999.0</ele>
        <time>2018-09-02T11:30:05Z</time>
      </trkpt>
      <trkpt lat="40.441667" lon="-5.284550">
        <ele>1999.0</ele>
        <time>2018-09-02T11:30:06Z</time>
      </trkpt>
      <trkpt lat="40.441700" lon="-5.284583">
        <ele>1999.0</ele>
        <time>2018-09-02T11:30:07Z</time>
      </trkpt>
      <trkpt lat="40.441717" lon="-5.284617">
        <ele>1999.0</ele>
        <time>2018-09-02T11:30:08Z</time>
      </trkpt>
      <trkpt lat="40.441733" lon="-5.284650">
        <ele>2000.0</ele>
        <time>2018-09-02T11:30:09Z</time>
      </trkpt>
      <trkpt lat="40.441750" lon="-5.284700">
        <ele>2000.0</ele>
        <time>2018-09-02T11:30:10Z</time>
      </trkpt>
      <trkpt lat="40.441783" lon="-5.284750">
        <ele>2001.0</ele>
        <time>2018-09-02T11:30:11Z</time>
      </trkpt>
      <trkpt lat="40.441800" lon="-5.284817">
        <ele>2001.0</ele>
        <time>2018-09-02T11:30:12Z</time>
      </trkpt>
      <trkpt lat="40.441833" lon="-5.284883">
        <ele>2000.0</ele>
        <time>2018-09-02T11:30:13Z</time>
      </trkpt>
      <trkpt lat="40.441850" lon="-5.284933">
        <ele>2000.0</ele>
        <time>2018-09-02T11:30:14Z</time>
      </trkpt>
      <trkpt lat="40.441883" lon="-5.284967">
        <ele>2001.0</ele>
        <time>2018-09-02T11:30:15Z</time>
      </trkpt>
      <trkpt lat="40.441933" lon="-5.285000">
        <ele>2002.0</ele>
        <time>2018-09-02T11:30:16Z</time>
      </trkpt>
      <trkpt lat="40.441950" lon="-5.285033">
        <ele>2002.0</ele>
        <time>2018-09-02T11:30:17Z</time>
      </trkpt>
      <trkpt lat="40.441983" lon="-5.285067">
        <ele>2001.0</ele>
        <time>2018-09-02T11:30:18Z</time>
      </trkpt>
      <trkpt lat="40.442017" lon="-5.285117">
        <ele>2000.0</ele>
        <time>2018-09-02T11:30:19Z</time>
      </trkpt>
      <trkpt lat="40.442050" lon="-5.285167">
        <ele>1999.0</ele>
        <time>2018-09-02T11:30:20Z</time>
      </trkpt>
      <trkpt lat="40.442100" lon="-5.285200">
        <ele>1999.0</ele>
        <time>2018-09-02T11:30:21Z</time>
      </trkpt>
      <trkpt lat="40.442133" lon="-5.285233">
        <ele>2000.0</ele>
        <time>2018-09-02T11:30:22Z</time>
      </trkpt>
      <trkpt lat="40.442167" lon="-5.285267">
        <ele>2001.0</ele>
        <time>2018-09-02T11:30:23Z</time>
      </trkpt>
      <trkpt lat="40.442217" lon="-5.285317">
        <ele>2002.0</ele>
        <time>2018-09-02T11:30:24Z</time>
      </trkpt>
      <trkpt lat="40.442267" lon="-5.285367">
        <ele>2002.0</ele>
        <time>2018-09-02T11:30:25Z</time>
      </trkpt>
      <trkpt lat="40.442300" lon="-5.285417">
        <ele>2003.0</ele>
        <time>2018-09-02T11:30:26Z</time>
      </trkpt>
      <trkpt lat="40.442333" lon="-5.285483">
        <ele>2004.0</ele>
        <time>2018-09-02T11:30:27Z</time>
      </trkpt>
      <trkpt lat="40.442367" lon="-5.285550">
        <ele>2005.0</ele>
        <time>2018-09-02T11:30:28Z</time>
      </trkpt>
      <trkpt lat="40.442400" lon="-5.285617">
        <ele>2007.0</ele>
        <time>2018-09-02T11:30:29Z</time>
      </trkpt>
      <trkpt lat="40.442417" lon="-5.285667">
        <ele>2010.0</ele>
        <time>2018-09-02T11:30:30Z</time>
      </trkpt>
      <trkpt lat="40.442450" lon="-5.285733">
        <ele>2012.0</ele>
        <time>2018-09-02T11:30:31Z</time>
      </trkpt>
      <trkpt lat="40.442483" lon="-5.285783">
        <ele>2015.0</ele>
        <time>2018-09-02T11:30:32Z</time>
      </trkpt>
      <trkpt lat="40.442500" lon="-5.285833">
        <ele>2017.0</ele>
        <time>2018-09-02T11:30:33Z</time>
      </trkpt>
      <trkpt lat="40.442533" lon="-5.285900">
        <ele>2020.0</ele>
        <time>2018-09-02T11:30:34Z</time>
      </trkpt>
      <trkpt lat="40.442550" lon="-5.285900">
        <ele>2022.0</ele>
        <time>2018-09-02T11:30:35Z</time>
      </trkpt>
      <trkpt lat="40.442617" lon="-5.285933">
        <ele>2019.0</ele>
        <time>2018-09-02T11:30:36Z</time>
      </trkpt>
      <trkpt lat="40.442700" lon="-5.285917">
        <ele>2021.0</ele>
        <time>2018-09-02T11:30:37Z</time>
      </trkpt>
      <trkpt lat="40.442783" lon="-5.285867">
        <ele>2022.0</ele>
        <time>2018-09-02T11:30:38Z</time>
      </trkpt>
      <trkpt lat="40.442867" lon="-5.285767">
        <ele>2023.0</ele>
        <time>2018-09-02T11:30:39Z</time>
      </trkpt>
      <trkpt lat="40.442933" lon="-5.285617">
        <ele>2024.0</ele>
        <time>2018-09-02T11:30:40Z</time>
      </trkpt>
      <trkpt lat="40.442967" lon="-5.285450">
        <ele>2026.0</ele>
        <time>2018-09-02T11:30:41Z</time>
      </trkpt>
      <trkpt lat="40.442933" lon="-5.285300">
        <ele>2028.0</ele>
        <time>2018-09-02T11:30:42Z</time>
      </trkpt>
      <trkpt lat="40.442883" lon="-5.285150">
        <ele>2030.0</ele>
        <time>2018-09-02T11:30:43Z</time>
      </trkpt>
      <trkpt lat="40.442800" lon="-5.285050">
        <ele>2032.0</ele>
        <time>2018-09-02T11:30:44Z</time>
      </trkpt>
      <trkpt lat="40.442700" lon="-5.284983">
        <ele>2034.0</ele>
        <time>2018-09-02T11:30:45Z</time>
      </trkpt>
      <trkpt lat="40.442600" lon="-5.284950">
        <ele>2037.0</ele>
        <time>2018-09-02T11:30:46Z</time>
      </trkpt>
      <trkpt lat="40.442533" lon="-5.284967">
        <ele>2039.0</ele>
        <time>2018-09-02T11:30:47Z</time>
      </trkpt>
      <trkpt lat="40.442467" lon="-5.285000">
        <ele>2040.0</ele>
        <time>2018-09-02T11:30:48Z</time>
      </trkpt>
      <trkpt lat="40.442400" lon="-5.285050">
        <ele>2043.0</ele>
        <time>2018-09-02T11:30:49Z</time>
      </trkpt>
      <trkpt lat="40.442350" lon="-5.285100">
        <ele>2046.0</ele>
        <time>2018-09-02T11:30:50Z</time>
      </trkpt>
      <trkpt lat="40.442317" lon="-5.285150">
        <ele>2048.0</ele>
        <time>2018-09-02T11:30:51Z</time>
      </trkpt>
      <trkpt lat="40.442283" lon="-5.285233">
        <ele>2051.0</ele>
        <time>2018-09-02T11:30:52Z</time>
      </trkpt>
      <trkpt lat="40.442300" lon="-5.285283">
        <ele>2052.0</ele>
        <time>2018-09-02T11:30:53Z</time>
      </trkpt>
      <trkpt lat="40.442333" lon="-5.285333">
        <ele>2053.0</ele>
        <time>2018-09-02T11:30:54Z</time>
      </trkpt>
      <trkpt lat="40.442417" lon="-5.285350">
        <ele>2054.0</ele>
        <time>2018-09-02T11:30:55Z</time>
      </trkpt>
      <trkpt lat="40.442500" lon="-5.285333">
        <ele>2054.0</ele>
        <time>2018-09-02T11:30:56Z</time>
      </trkpt>
      <trkpt lat="40.442583" lon="-5.285267">
        <ele>2054.0</ele>
        <time>2018-09-02T11:30:57Z</time>
      </trkpt>
      <trkpt lat="40.442667" lon="-5.285167">
        <ele>2053.0</ele>
        <time>2018-09-02T11:30:58Z</time>
      </trkpt>
      <trkpt lat="40.442733" lon="-5.285017">
        <ele>2053.0</ele>
        <time>2018-09-02T11:30:59Z</time>
      </trkpt>
      <trkpt lat="40.442767" lon="-5.284850">
        <ele>2053.0</ele>
        <time>2018-09-02T11:31:00Z</time>
      </trkpt>
      <trkpt lat="40.442767" lon="-5.284683">
        <ele>2054.0</ele>
        <time>2018-09-02T11:31:01Z</time>
      </trkpt>
      <trkpt lat="40.442750" lon="-5.284550">
        <ele>2054.0</ele>
        <time>2018-09-02T11:31:02Z</time>
      </trkpt>
      <trkpt lat="40.442717" lon="-5.284400">
        <ele>2055.0</ele>
        <time>2018-09-02T11:31:03Z</time>
      </trkpt>
      <trkpt lat="40.442700" lon="-5.284267">
        <ele>2056.0</ele>
        <time>2018-09-02T11:31:04Z</time>
      </trkpt>
      <trkpt lat="40.442667" lon="-5.284133">
        <ele>2058.0</ele>
        <time>2018-09-02T11:31:05Z</time>
      </trkpt>
      <trkpt lat="40.442633" lon="-5.284017">
        <ele>2060.0</ele>
        <time>2018-09-02T11:31:06Z</time>
      </trkpt>
      <trkpt lat="40.442567" lon="-5.283917">
        <ele>2064.0</ele>
        <time>2018-09-02T11:31:07Z</time>
      </trkpt>
      <trkpt lat="40.442500" lon="-5.283833">
        <ele>2066.0</ele>
        <time>2018-09-02T11:31:08Z</time>
      </trkpt>
      <trkpt lat="40.442400" lon="-5.283767">
        <ele>2067.0</ele>
        <time>2018-09-02T11:31:09Z</time>
      </trkpt>
      <trkpt lat="40.442300" lon="-5.283717">
        <ele>2070.0</ele>
        <time>2018-09-02T11:31:10Z</time>
      </trkpt>
      <trkpt lat="40.442217" lon="-5.283717">
        <ele>2072.0</ele>
        <time>2018-09-02T11:31:11Z</time>
      </trkpt>
      <trkpt lat="40.442133" lon="-5.283750">
        <ele>2074.0</ele>
        <time>2018-09-02T11:31:12Z</time>
      </trkpt>
      <trkpt lat="40.442083" lon="-5.283817">
        <ele>2073.0</ele>
        <time>2018-09-02T11:31:13Z</time>
      </trkpt>
      <trkpt lat="40.442050" lon="-5.283917">
        <ele>2074.0</ele>
        <time>2018-09-02T11:31:14Z</time>
      </trkpt>
      <trkpt lat="40.442067" lon="-5.284000">
        <ele>2075.0</ele>
        <time>2018-09-02T11:31:15Z</time>
      </trkpt>
      <trkpt lat="40.442083" lon="-5.284067">
        <ele>2077.0</ele>
        <time>2018-09-02T11:31:16Z</time>
      </trkpt>
      <trkpt lat="40.442117" lon="-5.284117">
        <ele>2079.0</ele>
        <time>2018-09-02T11:31:17Z</time>
      </trkpt>
      <trkpt lat="40.442150" lon="-5.284150">
        <ele>2081.0</ele>
        <time>2018-09-02T11:31:18Z</time>
      </trkpt>
      <trkpt lat="40.442200" lon="-5.284167">
        <ele>2082.0</ele>
        <time>2018-09-02T11:31:19Z</time>
      </trkpt>
      <trkpt lat="40.442267" lon="-5.284183">
        <ele>2081.0</ele>
        <time>2018-09-02T11:31:20Z</time>
      </trkpt>
      <trkpt lat="40.442350" lon="-5.284167">
        <ele>2080.0</ele>
        <time>2018-09-02T11:31:21Z</time>
      </trkpt>
      <trkpt lat="40.442450" lon="-5.284117">
        <ele>2079.0</ele>
        <time>2018-09-02T11:31:22Z</time>
      </trkpt>
      <trkpt lat="40.442550" lon="-5.284017">
        <ele>2078.0</ele>
        <time>2018-09-02T11:31:23Z</time>
      </trkpt>
      <trkpt lat="40.442617" lon="-5.283867">
        <ele>2078.0</ele>
        <time>2018-09-02T11:31:24Z</time>
      </trkpt>
      <trkpt lat="40.442633" lon="-5.283683">
        <ele>2077.0</ele>
        <time>2018-09-02T11:31:25Z</time>
      </trkpt>
      <trkpt lat="40.442633" lon="-5.283517">
        <ele>2077.0</ele>
        <time>2018-09-02T11:31:26Z</time>
      </trkpt>
      <trkpt lat="40.442617" lon="-5.283350">
        <ele>2078.0</ele>
        <time>2018-09-02T11:31:27Z</time>
      </trkpt>
      <trkpt lat="40.442550" lon="-5.283217">
        <ele>2078.0</ele>
        <time>2018-09-02T11:31:28Z</time>
      </trkpt>
      <trkpt lat="40.442483" lon="-5.283100">
        <ele>2079.0</ele>
        <time>2018-09-02T11:31:29Z</time>
      </trkpt>
      <trkpt lat="40.442400" lon="-5.283017">
        <ele>2079.0</ele>
        <time>2018-09-02T11:31:30Z</time>
      </trkpt>
      <trkpt lat="40.442333" lon="-5.282950">
        <ele>2079.0</ele>
        <time>2018-09-02T11:31:31Z</time>
      </trkpt>
      <trkpt lat="40.442250" lon="-5.282900">
        <ele>2079.0</ele>
        <time>2018-09-02T11:31:32Z</time>
      </trkpt>
      <trkpt lat="40.442183" lon="-5.282883">
        <ele>2080.0</ele>
        <time>2018-09-02T11:31:33Z</time>
      </trkpt>
      <trkpt lat="40.442117" lon="-5.282867">
        <ele>2081.0</ele>
        <time>2018-09-02T11:31:34Z</time>
      </trkpt>
      <trkpt lat="40.442067" lon="-5.282867">
        <ele>2082.0</ele>
        <time>2018-09-02T11:31:35Z</time>
      </trkpt>
      <trkpt lat="40.442000" lon="-5.282867">
        <ele>2083.0</ele>
        <time>2018-09-02T11:31:36Z</time>
      </trkpt>
      <trkpt lat="40.441950" lon="-5.282883">
        <ele>2084.0</ele>
        <time>2018-09-02T11:31:37Z</time>
      </trkpt>
      <trkpt lat="40.441900" lon="-5.282883">
        <ele>2086.0</ele>
        <time>2018-09-02T11:31:38Z</time>
      </trkpt>
      <trkpt lat="40.441833" lon="-5.282883">
        <ele>2087.0</ele>
        <time>2018-09-02T11:31:39Z</time>
      </trkpt>
      <trkpt lat="40.441767" lon="-5.282917">
        <ele>2088.0</ele>
        <time>2018-09-02T11:31:40Z</time>
      </trkpt>
      <trkpt lat="40.441717" lon="-5.282950">
        <ele>2089.0</ele>
        <time>2018-09-02T11:31:41Z</time>
      </trkpt>
      <trkpt lat="40.441683" lon="-5.283000">
        <ele>2091.0</ele>
        <time>2018-09-02T11:31:42Z</time>
      </trkpt>
      <trkpt lat="40.441650" lon="-5.283033">
        <ele>2093.0</ele>
        <time>2018-09-02T11:31:43Z</time>
      </trkpt>
      <trkpt lat="40.441633" lon="-5.283067">
        <ele>2095.0</ele>
        <time>2018-09-02T11:31:44Z</time>
      </trkpt>
      <trkpt lat="40.441600" lon="-5.283117">
        <ele>2095.0</ele>
        <time>2018-09-02T11:31:45Z</time>
      </trkpt>
      <trkpt lat="40.441583" lon="-5.283167">
        <ele>2095.0</ele>
        <time>2018-09-02T11:31:46Z</time>
      </trkpt>
      <trkpt lat="40.441600" lon="-5.283233">
        <ele>2095.0</ele>
        <time>2018-09-02T11:31:47Z</time>
      </trkpt>
      <trkpt lat="40.441650" lon="-5.283283">
        <ele>2094.0</ele>
        <time>2018-09-02T11:31:48Z</time>
      </trkpt>
      <trkpt lat="40.441717" lon="-5.283283">
        <ele>2092.0</ele>
        <time>2018-09-02T11:31:49Z</time>
      </trkpt>
      <trkpt lat="40.441800" lon="-5.283250">
        <ele>2090.0</ele>
        <time>2018-09-02T11:31:50Z</time>
      </trkpt>
      <trkpt lat="40.441900" lon="-5.283150">
        <ele>2088.0</ele>
        <time>2018-09-02T11:31:51Z</time>
      </trkpt>
      <trkpt lat="40.441967" lon="-5.283017">
        <ele>2086.0</ele>
        <time>2018-09-02T11:31:52Z</time>
      </trkpt>
      <trkpt lat="40.442050" lon="-5.282900">
        <ele>2084.0</ele>
        <time>2018-09-02T11:31:53Z</time>
      </trkpt>
      <trkpt lat="40.442117" lon="-5.282783">
        <ele>2083.0</ele>
        <time>2018-09-02T11:31:54Z</time>
      </trkpt>
      <trkpt lat="40.442200" lon="-5.282700">
        <ele>2082.0</ele>
        <time>2018-09-02T11:31:55Z</time>
      </trkpt>
      <trkpt lat="40.442267" lon="-5.282633">
        <ele>2081.0</ele>
        <time>2018-09-02T11:31:56Z</time>
      </trkpt>
      <trkpt lat="40.442350" lon="-5.282533">
        <ele>2079.0</ele>
        <time>2018-09-02T11:31:57Z</time>
      </trkpt>
      <trkpt lat="40.442417" lon="-5.282433">
        <ele>2078.0</ele>
        <time>2018-09-02T11:31:58Z</time>
      </trkpt>
      <trkpt lat="40.442483" lon="-5.282333">
        <ele>2076.0</ele>
        <time>2018-09-02T11:31:59Z</time>
      </trkpt>
      <trkpt lat="40.442567" lon="-5.282233">
        <ele>2073.0</ele>
        <time>2018-09-02T11:32:00Z</time>
      </trkpt>
      <trkpt lat="40.442650" lon="-5.282167">
        <ele>2072.0</ele>
        <time>2018-09-02T11:32:01Z</time>
      </trkpt>
      <trkpt lat="40.442750" lon="-5.282100">
        <ele>2070.0</ele>
        <time>2018-09-02T11:32:02Z</time>
      </trkpt>
      <trkpt lat="40.442833" lon="-5.282033">
        <ele>2069.0</ele>
        <time>2018-09-02T11:32:03Z</time>
      </trkpt>
      <trkpt lat="40.442917" lon="-5.281983">
        <ele>2068.0</ele>
        <time>2018-09-02T11:32:04Z</time>
      </trkpt>
      <trkpt lat="40.443000" lon="-5.281933">
        <ele>2067.0</ele>
        <time>2018-09-02T11:32:05Z</time>
      </trkpt>
      <trkpt lat="40.443083" lon="-5.281900">
        <ele>2066.0</ele>
        <time>2018-09-02T11:32:06Z</time>
      </trkpt>
      <trkpt lat="40.443150" lon="-5.281867">
        <ele>2065.0</ele>
        <time>2018-09-02T11:32:07Z</time>
      </trkpt>
      <trkpt lat="40.443233" lon="-5.281833">
        <ele>2063.0</ele>
        <time>2018-09-02T11:32:08Z</time>
      </trkpt>
      <trkpt lat="40.443300" lon="-5.281783">
        <ele>2063.0</ele>
        <time>2018-09-02T11:32:09Z</time>
      </trkpt>
      <trkpt lat="40.443383" lon="-5.281750">
        <ele>2062.0</ele>
        <time>2018-09-02T11:32:10Z</time>
      </trkpt>
      <trkpt lat="40.443450" lon="-5.281700">
        <ele>2060.0</ele>
        <time>2018-09-02T11:32:11Z</time>
      </trkpt>
      <trkpt lat="40.443533" lon="-5.281650">
        <ele>2058.0</ele>
        <time>2018-09-02T11:32:12Z</time>
      </trkpt>
      <trkpt lat="40.443633" lon="-5.281600">
        <ele>2057.0</ele>
        <time>2018-09-02T11:32:13Z</time>
      </trkpt>
      <trkpt lat="40.443717" lon="-5.281567">
        <ele>2055.0</ele>
        <time>2018-09-02T11:32:14Z</time>
      </trkpt>
      <trkpt lat="40.443800" lon="-5.281550">
        <ele>2055.0</ele>
        <time>2018-09-02T11:32:15Z</time>
      </trkpt>
      <trkpt lat="40.443867" lon="-5.281517">
        <ele>2054.0</ele>
        <time>2018-09-02T11:32:16Z</time>
      </trkpt>
      <trkpt lat="40.443933" lon="-5.281517">
        <ele>2052.0</ele>
        <time>2018-09-02T11:32:17Z</time>
      </trkpt>
      <trkpt lat="40.444000" lon="-5.281500">
        <ele>2049.0</ele>
        <time>2018-09-02T11:32:18Z</time>
      </trkpt>
      <trkpt lat="40.444083" lon="-5.281467">
        <ele>2047.0</ele>
        <time>2018-09-02T11:32:19Z</time>
      </trkpt>
      <trkpt lat="40.444167" lon="-5.281450">
        <ele>2044.0</ele>
        <time>2018-09-02T11:32:20Z</time>
      </trkpt>
      <trkpt lat="40.444283" lon="-5.281417">
        <ele>2041.0</ele>
        <time>2018-09-02T11:32:21Z</time>
      </trkpt>
      <trkpt lat="40.444367" lon="-5.281400">
        <ele>2039.0</ele>
        <time>2018-09-02T11:32:22Z</time>
      </trkpt>
      <trkpt lat="40.444450" lon="-5.281367">
        <ele>2038.0</ele>
        <time>2018-09-02T11:32:23Z</time>
      </trkpt>
      <trkpt lat="40.444533" lon="-5.281333">
        <ele>2037.0</ele>
        <time>2018-09-02T11:32:24Z</time>
      </trkpt>
      <trkpt lat="40.444617" lon="-5.281283">
        <ele>2035.0</ele>
        <time>2018-09-02T11:32:25Z</time>
      </trkpt>
      <trkpt lat="40.444717" lon="-5.281233">
        <ele>2033.0</ele>
        <time>2018-09-02T11:32:26Z</time>
      </trkpt>
      <trkpt lat="40.444800" lon="-5.281183">
        <ele>2031.0</ele>
        <time>2018-09-02T11:32:27Z</time>
      </trkpt>
      <trkpt lat="40.444900" lon="-5.281133">
        <ele>2028.0</ele>
        <time>2018-09-02T11:32:28Z</time>
      </trkpt>
      <trkpt lat="40.445000" lon="-5.281083">
        <ele>2026.0</ele>
        <time>2018-09-02T11:32:29Z</time>
      </trkpt>
      <trkpt lat="40.445100" lon="-5.281033">
        <ele>2023.0</ele>
        <time>2018-09-02T11:32:30Z</time>
      </trkpt>
      <trkpt lat="40.445200" lon="-5.280983">
        <ele>2020.0</ele>
        <time>2018-09-02T11:32:31Z</time>
      </trkpt>
      <trkpt lat="40.445317" lon="-5.280950">
        <ele>2016.0</ele>
        <time>2018-09-02T11:32:32Z</time>
      </trkpt>
      <trkpt lat="40.445433" lon="-5.280917">
        <ele>2013.0</ele>
        <time>2018-09-02T11:32:33Z</time>
      </trkpt>
      <trkpt lat="40.445550" lon="-5.280883">
        <ele>2010.0</ele>
        <time>2018-09-02T11:32:34Z</time>
      </trkpt>
      <trkpt lat="40.445650" lon="-5.280850">
        <ele>2009.0</ele>
        <time>2018-09-02T11:32:35Z</time>
      </trkpt>
      <trkpt lat="40.445750" lon="-5.280817">
        <ele>2011.0</ele>
        <time>2018-09-02T11:32:36Z</time>
      </trkpt>
      <trkpt lat="40.445850" lon="-5.280783">
        <ele>2011.0</ele>
        <time>2018-09-02T11:32:37Z</time>
      </trkpt>
      <trkpt lat="40.445950" lon="-5.280750">
        <ele>2011.0</ele>
        <time>2018-09-02T11:32:38Z</time>
      </trkpt>
      <trkpt lat="40.446050" lon="-5.280700">
        <ele>2010.0</ele>
        <time>2018-09-02T11:32:39Z</time>
      </trkpt>
      <trkpt lat="40.446150" lon="-5.280633">
        <ele>2010.0</ele>
        <time>2018-09-02T11:32:40Z</time>
      </trkpt>
      <trkpt lat="40.446250" lon="-5.280600">
        <ele>2009.0</ele>
        <time>2018-09-02T11:32:41Z</time>
      </trkpt>
      <trkpt lat="40.446350" lon="-5.280567">
        <ele>2009.0</ele>
        <time>2018-09-02T11:32:42Z</time>
      </trkpt>
      <trkpt lat="40.446433" lon="-5.280533">
        <ele>2009.0</ele>
        <time>2018-09-02T11:32:43Z</time>
      </trkpt>
      <trkpt lat="40.446517" lon="-5.280500">
        <ele>2009.0</ele>
        <time>2018-09-02T11:32:44Z</time>
      </trkpt>
      <trkpt lat="40.446700" lon="-5.280483">
        <ele>2006.0</ele>
        <time>2018-09-02T11:32:46Z</time>
      </trkpt>
      <trkpt lat="40.446783" lon="-5.280483">
        <ele>2005.0</ele>
        <time>2018-09-02T11:32:47Z</time>
      </trkpt>
      <trkpt lat="40.446867" lon="-5.280483">
        <ele>2005.0</ele>
        <time>2018-09-02T11:32:48Z</time>
      </trkpt>
      <trkpt lat="40.446933" lon="-5.280467">
        <ele>2006.0</ele>
        <time>2018-09-02T11:32:49Z</time>
      </trkpt>
      <trkpt lat="40.447000" lon="-5.280467">
        <ele>2006.0</ele>
        <time>2018-09-02T11:32:50Z</time>
      </trkpt>
      <trkpt lat="40.447067" lon="-5.280467">
        <ele>2006.0</ele>
        <time>2018-09-02T11:32:51Z</time>
      </trkpt>
      <trkpt lat="40.447133" lon="-5.280483">
        <ele>2005.0</ele>
        <time>2018-09-02T11:32:52Z</time>
      </trkpt>
      <trkpt lat="40.447200" lon="-5.280517">
        <ele>2005.0</ele>
        <time>2018-09-02T11:32:53Z</time>
      </trkpt>
      <trkpt lat="40.447250" lon="-5.280550">
        <ele>2005.0</ele>
        <time>2018-09-02T11:32:54Z</time>
      </trkpt>
      <trkpt lat="40.447267" lon="-5.280600">
        <ele>2006.0</ele>
        <time>2018-09-02T11:32:55Z</time>
      </trkpt>
      <trkpt lat="40.447283" lon="-5.280650">
        <ele>2007.0</ele>
        <time>2018-09-02T11:32:56Z</time>
      </trkpt>
      <trkpt lat="40.447283" lon="-5.280667">
        <ele>2008.0</ele>
        <time>2018-09-02T11:32:57Z</time>
      </trkpt>
      <trkpt lat="40.447283" lon="-5.280700">
        <ele>2009.0</ele>
        <time>2018-09-02T11:32:58Z</time>
      </trkpt>
      <trkpt lat="40.447283" lon="-5.280733">
        <ele>2009.0</ele>
        <time>2018-09-02T11:32:59Z</time>
      </trkpt>
      <trkpt lat="40.447283" lon="-5.280783">
        <ele>2009.0</ele>
        <time>2018-09-02T11:33:00Z</time>
      </trkpt>
      <trkpt lat="40.447283" lon="-5.280817">
        <ele>2009.0</ele>
        <time>2018-09-02T11:33:01Z</time>
      </trkpt>
      <trkpt lat="40.447267" lon="-5.280850">
        <ele>2009.0</ele>
        <time>2018-09-02T11:33:02Z</time>
      </trkpt>
      <trkpt lat="40.447250" lon="-5.280867">
        <ele>2010.0</ele>
        <time>2018-09-02T11:33:03Z</time>
      </trkpt>
      <trkpt lat="40.447233" lon="-5.280883">
        <ele>2011.0</ele>
        <time>2018-09-02T11:33:04Z</time>
      </trkpt>
      <trkpt lat="40.447217" lon="-5.280900">
        <ele>2012.0</ele>
        <time>2018-09-02T11:33:05Z</time>
      </trkpt>
      <trkpt lat="40.447217" lon="-5.280917">
        <ele>2013.0</ele>
        <time>2018-09-02T11:33:06Z</time>
      </trkpt>
      <trkpt lat="40.447217" lon="-5.280950">
        <ele>2013.0</ele>
        <time>2018-09-02T11:33:07Z</time>
      </trkpt>
      <trkpt lat="40.447217" lon="-5.280983">
        <ele>2012.0</ele>
        <time>2018-09-02T11:33:08Z</time>
      </trkpt>
      <trkpt lat="40.447217" lon="-5.281017">
        <ele>2012.0</ele>
        <time>2018-09-02T11:33:09Z</time>
      </trkpt>
      <trkpt lat="40.447233" lon="-5.281033">
        <ele>2012.0</ele>
        <time>2018-09-02T11:33:10Z</time>
      </trkpt>
      <trkpt lat="40.447250" lon="-5.281067">
        <ele>2012.0</ele>
        <time>2018-09-02T11:33:11Z</time>
      </trkpt>
      <trkpt lat="40.447267" lon="-5.281083">
        <ele>2011.0</ele>
        <time>2018-09-02T11:33:12Z</time>
      </trkpt>
      <trkpt lat="40.447267" lon="-5.281100">
        <ele>2011.0</ele>
        <time>2018-09-02T11:33:13Z</time>
      </trkpt>
      <trkpt lat="40.447267" lon="-5.281133">
        <ele>2009.0</ele>
        <time>2018-09-02T11:33:14Z</time>
      </trkpt>
      <trkpt lat="40.447233" lon="-5.281150">
        <ele>2007.0</ele>
        <time>2018-09-02T11:33:15Z</time>
      </trkpt>
      <trkpt lat="40.447200" lon="-5.281183">
        <ele>2006.0</ele>
        <time>2018-09-02T11:33:16Z</time>
      </trkpt>
      <trkpt lat="40.447150" lon="-5.281200">
        <ele>2004.0</ele>
        <time>2018-09-02T11:33:17Z</time>
      </trkpt>
      <trkpt lat="40.447100" lon="-5.281183">
        <ele>2002.0</ele>
        <time>2018-09-02T11:33:18Z</time>
      </trkpt>
      <trkpt lat="40.447033" lon="-5.281167">
        <ele>2001.0</ele>
        <time>2018-09-02T11:33:19Z</time>
      </trkpt>
      <trkpt lat="40.446967" lon="-5.281150">
        <ele>1999.0</ele>
        <time>2018-09-02T11:33:20Z</time>
      </trkpt>
      <trkpt lat="40.446900" lon="-5.281133">
        <ele>1997.0</ele>
        <time>2018-09-02T11:33:21Z</time>
      </trkpt>
      <trkpt lat="40.446833" lon="-5.281133">
        <ele>1995.0</ele>
        <time>2018-09-02T11:33:22Z</time>
      </trkpt>
      <trkpt lat="40.446783" lon="-5.281150">
        <ele>1995.0</ele>
        <time>2018-09-02T11:33:23Z</time>
      </trkpt>
      <trkpt lat="40.446750" lon="-5.281150">
        <ele>1995.0</ele>
        <time>2018-09-02T11:33:24Z</time>
      </trkpt>
      <trkpt lat="40.446717" lon="-5.281167">
        <ele>1996.0</ele>
        <time>2018-09-02T11:33:25Z</time>
      </trkpt>
      <trkpt lat="40.446700" lon="-5.281167">
        <ele>1996.0</ele>
        <time>2018-09-02T11:33:26Z</time>
      </trkpt>
      <trkpt lat="40.446700" lon="-5.281183">
        <ele>1996.0</ele>
        <time>2018-09-02T11:33:27Z</time>
      </trkpt>
      <trkpt lat="40.446650" lon="-5.281267">
        <ele>1993.0</ele>
        <time>2018-09-02T11:33:29Z</time>
      </trkpt>
      <trkpt lat="40.446633" lon="-5.281317">
        <ele>1992.0</ele>
        <time>2018-09-02T11:33:30Z</time>
      </trkpt>
      <trkpt lat="40.446617" lon="-5.281367">
        <ele>1991.0</ele>
        <time>2018-09-02T11:33:31Z</time>
      </trkpt>
      <trkpt lat="40.446600" lon="-5.281400">
        <ele>1992.0</ele>
        <time>2018-09-02T11:33:32Z</time>
      </trkpt>
      <trkpt lat="40.446583" lon="-5.281433">
        <ele>1992.0</ele>
        <time>2018-09-02T11:33:33Z</time>
      </trkpt>
      <trkpt lat="40.446550" lon="-5.281467">
        <ele>1992.0</ele>
        <time>2018-09-02T11:33:34Z</time>
      </trkpt>
      <trkpt lat="40.446517" lon="-5.281500">
        <ele>1992.0</ele>
        <time>2018-09-02T11:33:35Z</time>
      </trkpt>
      <trkpt lat="40.446483" lon="-5.281533">
        <ele>1993.0</ele>
        <time>2018-09-02T11:33:36Z</time>
      </trkpt>
      <trkpt lat="40.446467" lon="-5.281567">
        <ele>1995.0</ele>
        <time>2018-09-02T11:33:37Z</time>
      </trkpt>
      <trkpt lat="40.446433" lon="-5.281583">
        <ele>1996.0</ele>
        <time>2018-09-02T11:33:38Z</time>
      </trkpt>
      <trkpt lat="40.446383" lon="-5.281600">
        <ele>1998.0</ele>
        <time>2018-09-02T11:33:39Z</time>
      </trkpt>
      <trkpt lat="40.446350" lon="-5.281617">
        <ele>1998.0</ele>
        <time>2018-09-02T11:33:40Z</time>
      </trkpt>
      <trkpt lat="40.446317" lon="-5.281633">
        <ele>1999.0</ele>
        <time>2018-09-02T11:33:41Z</time>
      </trkpt>
      <trkpt lat="40.446283" lon="-5.281650">
        <ele>2000.0</ele>
        <time>2018-09-02T11:33:42Z</time>
      </trkpt>
      <trkpt lat="40.446217" lon="-5.281700">
        <ele>2001.0</ele>
        <time>2018-09-02T11:33:44Z</time>
      </trkpt>
      <trkpt lat="40.446167" lon="-5.281700">
        <ele>2001.0</ele>
        <time>2018-09-02T11:33:45Z</time>
      </trkpt>
      <trkpt lat="40.446133" lon="-5.281717">
        <ele>2002.0</ele>
        <time>2018-09-02T11:33:46Z</time>
      </trkpt>
      <trkpt lat="40.446100" lon="-5.281750">
        <ele>2001.0</ele>
        <time>2018-09-02T11:33:47Z</time>
      </trkpt>
      <trkpt lat="40.446083" lon="-5.281800">
        <ele>2001.0</ele>
        <time>2018-09-02T11:33:48Z</time>
      </trkpt>
      <trkpt lat="40.446083" lon="-5.281850">
        <ele>2000.0</ele>
        <time>2018-09-02T11:33:49Z</time>
      </trkpt>
      <trkpt lat="40.446133" lon="-5.281900">
        <ele>2000.0</ele>
        <time>2018-09-02T11:33:50Z</time>
      </trkpt>
      <trkpt lat="40.446183" lon="-5.281917">
        <ele>1999.0</ele>
        <time>2018-09-02T11:33:51Z</time>
      </trkpt>
      <trkpt lat="40.446317" lon="-5.281867">
        <ele>1999.0</ele>
        <time>2018-09-02T11:33:53Z</time>
      </trkpt>
      <trkpt lat="40.446400" lon="-5.281817">
        <ele>1999.0</ele>
        <time>2018-09-02T11:33:54Z</time>
      </trkpt>
      <trkpt lat="40.446483" lon="-5.281717">
        <ele>1999.0</ele>
        <time>2018-09-02T11:33:55Z</time>
      </trkpt>
      <trkpt lat="40.446550" lon="-5.281600">
        <ele>2000.0</ele>
        <time>2018-09-02T11:33:56Z</time>
      </trkpt>
      <trkpt lat="40.446600" lon="-5.281450">
        <ele>1999.0</ele>
        <time>2018-09-02T11:33:57Z</time>
      </trkpt>
      <trkpt lat="40.446633" lon="-5.281283">
        <ele>1999.0</ele>
        <time>2018-09-02T11:33:58Z</time>
      </trkpt>
      <trkpt lat="40.446650" lon="-5.281100">
        <ele>1999.0</ele>
        <time>2018-09-02T11:33:59Z</time>
      </trkpt>
      <trkpt lat="40.446633" lon="-5.280933">
        <ele>1998.0</ele>
        <time>2018-09-02T11:34:00Z</time>
      </trkpt>
      <trkpt lat="40.446567" lon="-5.280800">
        <ele>1998.0</ele>
        <time>2018-09-02T11:34:01Z</time>
      </trkpt>
      <trkpt lat="40.446500" lon="-5.280700">
        <ele>1997.0</ele>
        <time>2018-09-02T11:34:02Z</time>
      </trkpt>
      <trkpt lat="40.446417" lon="-5.280667">
        <ele>1995.0</ele>
        <time>2018-09-02T11:34:03Z</time>
      </trkpt>
      <trkpt lat="40.446367" lon="-5.280667">
        <ele>1993.0</ele>
        <time>2018-09-02T11:34:04Z</time>
      </trkpt>
      <trkpt lat="40.446317" lon="-5.280683">
        <ele>1996.0</ele>
        <time>2018-09-02T11:34:05Z</time>
      </trkpt>
      <trkpt lat="40.446283" lon="-5.280700">
        <ele>1999.0</ele>
        <time>2018-09-02T11:34:06Z</time>
      </trkpt>
      <trkpt lat="40.446250" lon="-5.280700">
        <ele>1999.0</ele>
        <time>2018-09-02T11:34:07Z</time>
      </trkpt>
      <trkpt lat="40.446200" lon="-5.280700">
        <ele>1998.0</ele>
        <time>2018-09-02T11:34:08Z</time>
      </trkpt>
      <trkpt lat="40.446150" lon="-5.280733">
        <ele>1998.0</ele>
        <time>2018-09-02T11:34:09Z</time>
      </trkpt>
      <trkpt lat="40.446117" lon="-5.280767">
        <ele>1998.0</ele>
        <time>2018-09-02T11:34:10Z</time>
      </trkpt>
      <trkpt lat="40.446083" lon="-5.280833">
        <ele>1998.0</ele>
        <time>2018-09-02T11:34:11Z</time>
      </trkpt>
      <trkpt lat="40.446067" lon="-5.280867">
        <ele>1998.0</ele>
        <time>2018-09-02T11:34:12Z</time>
      </trkpt>
      <trkpt lat="40.446067" lon="-5.280900">
        <ele>1999.0</ele>
        <time>2018-09-02T11:34:13Z</time>
      </trkpt>
      <trkpt lat="40.446050" lon="-5.280933">
        <ele>2000.0</ele>
        <time>2018-09-02T11:34:14Z</time>
      </trkpt>
      <trkpt lat="40.446017" lon="-5.280950">
        <ele>2000.0</ele>
        <time>2018-09-02T11:34:15Z</time>
      </trkpt>
      <trkpt lat="40.445983" lon="-5.281000">
        <ele>2000.0</ele>
        <time>2018-09-02T11:34:16Z</time>
      </trkpt>
      <trkpt lat="40.445950" lon="-5.281033">
        <ele>1999.0</ele>
        <time>2018-09-02T11:34:17Z</time>
      </trkpt>
      <trkpt lat="40.445933" lon="-5.281083">
        <ele>1999.0</ele>
        <time>2018-09-02T11:34:18Z</time>
      </trkpt>
      <trkpt lat="40.445917" lon="-5.281117">
        <ele>1999.0</ele>
        <time>2018-09-02T11:34:19Z</time>
      </trkpt>
      <trkpt lat="40.445917" lon="-5.281167">
        <ele>1999.0</ele>
        <time>2018-09-02T11:34:20Z</time>
      </trkpt>
      <trkpt lat="40.445950" lon="-5.281200">
        <ele>1999.0</ele>
        <time>2018-09-02T11:34:21Z</time>
      </trkpt>
      <trkpt lat="40.445983" lon="-5.281233">
        <ele>1998.0</ele>
        <time>2018-09-02T11:34:22Z</time>
      </trkpt>
      <trkpt lat="40.446067" lon="-5.281250">
        <ele>1997.0</ele>
        <time>2018-09-02T11:34:23Z</time>
      </trkpt>
      <trkpt lat="40.446150" lon="-5.281200">
        <ele>1996.0</ele>
        <time>2018-09-02T11:34:24Z</time>
      </trkpt>
      <trkpt lat="40.446250" lon="-5.281100">
        <ele>1995.0</ele>
        <time>2018-09-02T11:34:25Z</time>
      </trkpt>
      <trkpt lat="40.446317" lon="-5.280967">
        <ele>1993.0</ele>
        <time>2018-09-02T11:34:26Z</time>
      </trkpt>
      <trkpt lat="40.446367" lon="-5.280800">
        <ele>1992.0</ele>
        <time>2018-09-02T11:34:27Z</time>
      </trkpt>
      <trkpt lat="40.446383" lon="-5.280617">
        <ele>1991.0</ele>
        <time>2018-09-02T11:34:28Z</time>
      </trkpt>
      <trkpt lat="40.446350" lon="-5.280450">
        <ele>1990.0</ele>
        <time>2018-09-02T11:34:29Z</time>
      </trkpt>
      <trkpt lat="40.446283" lon="-5.280333">
        <ele>1988.0</ele>
        <time>2018-09-02T11:34:30Z</time>
      </trkpt>
      <trkpt lat="40.446183" lon="-5.280267">
        <ele>1987.0</ele>
        <time>2018-09-02T11:34:31Z</time>
      </trkpt>
      <trkpt lat="40.446117" lon="-5.280267">
        <ele>1985.0</ele>
        <time>2018-09-02T11:34:32Z</time>
      </trkpt>
      <trkpt lat="40.446067" lon="-5.280300">
        <ele>1984.0</ele>
        <time>2018-09-02T11:34:33Z</time>
      </trkpt>
      <trkpt lat="40.446033" lon="-5.280333">
        <ele>1984.0</ele>
        <time>2018-09-02T11:34:34Z</time>
      </trkpt>
      <trkpt lat="40.446017" lon="-5.280367">
        <ele>1985.0</ele>
        <time>2018-09-02T11:34:35Z</time>
      </trkpt>
      <trkpt lat="40.445983" lon="-5.280383">
        <ele>1985.0</ele>
        <time>2018-09-02T11:34:36Z</time>
      </trkpt>
      <trkpt lat="40.445950" lon="-5.280433">
        <ele>1984.0</ele>
        <time>2018-09-02T11:34:37Z</time>
      </trkpt>
      <trkpt lat="40.445917" lon="-5.280483">
        <ele>1983.0</ele>
        <time>2018-09-02T11:34:38Z</time>
      </trkpt>
      <trkpt lat="40.445883" lon="-5.280550">
        <ele>1983.0</ele>
        <time>2018-09-02T11:34:39Z</time>
      </trkpt>
      <trkpt lat="40.445883" lon="-5.280600">
        <ele>1984.0</ele>
        <time>2018-09-02T11:34:40Z</time>
      </trkpt>
      <trkpt lat="40.445883" lon="-5.280650">
        <ele>1984.0</ele>
        <time>2018-09-02T11:34:41Z</time>
      </trkpt>
      <trkpt lat="40.445883" lon="-5.280700">
        <ele>1984.0</ele>
        <time>2018-09-02T11:34:42Z</time>
      </trkpt>
      <trkpt lat="40.445867" lon="-5.280750">
        <ele>1984.0</ele>
        <time>2018-09-02T11:34:43Z</time>
      </trkpt>
      <trkpt lat="40.445850" lon="-5.280800">
        <ele>1985.0</ele>
        <time>2018-09-02T11:34:44Z</time>
      </trkpt>
      <trkpt lat="40.445833" lon="-5.280833">
        <ele>1987.0</ele>
        <time>2018-09-02T11:34:45Z</time>
      </trkpt>
      <trkpt lat="40.445800" lon="-5.280867">
        <ele>1988.0</ele>
        <time>2018-09-02T11:34:46Z</time>
      </trkpt>
      <trkpt lat="40.445767" lon="-5.280900">
        <ele>1989.0</ele>
        <time>2018-09-02T11:34:47Z</time>
      </trkpt>
      <trkpt lat="40.445717" lon="-5.280933">
        <ele>1990.0</ele>
        <time>2018-09-02T11:34:48Z</time>
      </trkpt>
      <trkpt lat="40.445667" lon="-5.280950">
        <ele>1991.0</ele>
        <time>2018-09-02T11:34:49Z</time>
      </trkpt>
      <trkpt lat="40.445617" lon="-5.280967">
        <ele>1992.0</ele>
        <time>2018-09-02T11:34:50Z</time>
      </trkpt>
      <trkpt lat="40.445567" lon="-5.280983">
        <ele>1994.0</ele>
        <time>2018-09-02T11:34:51Z</time>
      </trkpt>
      <trkpt lat="40.445500" lon="-5.280983">
        <ele>1996.0</ele>
        <time>2018-09-02T11:34:52Z</time>
      </trkpt>
      <trkpt lat="40.445433" lon="-5.280967">
        <ele>1999.0</ele>
        <time>2018-09-02T11:34:53Z</time>
      </trkpt>
      <trkpt lat="40.445367" lon="-5.280933">
        <ele>2000.0</ele>
        <time>2018-09-02T11:34:54Z</time>
      </trkpt>
      <trkpt lat="40.445300" lon="-5.280900">
        <ele>2002.0</ele>
        <time>2018-09-02T11:34:55Z</time>
      </trkpt>
      <trkpt lat="40.445217" lon="-5.280850">
        <ele>2004.0</ele>
        <time>2018-09-02T11:34:56Z</time>
      </trkpt>
      <trkpt lat="40.445150" lon="-5.280833">
        <ele>2003.0</ele>
        <time>2018-09-02T11:34:57Z</time>
      </trkpt>
      <trkpt lat="40.445100" lon="-5.280833">
        <ele>2004.0</ele>
        <time>2018-09-02T11:34:58Z</time>
      </trkpt>
      <trkpt lat="40.445083" lon="-5.280883">
        <ele>2004.0</ele>
        <time>2018-09-02T11:34:59Z</time>
      </trkpt>
      <trkpt lat="40.445100" lon="-5.280933">
        <ele>2004.0</ele>
        <time>2018-09-02T11:35:00Z</time>
      </trkpt>
      <trkpt lat="40.445150" lon="-5.280967">
        <ele>2004.0</ele>
        <time>2018-09-02T11:35:01Z</time>
      </trkpt>
      <trkpt lat="40.445233" lon="-5.280933">
        <ele>2004.0</ele>
        <time>2018-09-02T11:35:02Z</time>
      </trkpt>
      <trkpt lat="40.445317" lon="-5.280850">
        <ele>2002.0</ele>
        <time>2018-09-02T11:35:03Z</time>
      </trkpt>
      <trkpt lat="40.445417" lon="-5.280733">
        <ele>2001.0</ele>
        <time>2018-09-02T11:35:04Z</time>
      </trkpt>
      <trkpt lat="40.445500" lon="-5.280600">
        <ele>2001.0</ele>
        <time>2018-09-02T11:35:05Z</time>
      </trkpt>
      <trkpt lat="40.445567" lon="-5.280517">
        <ele>2002.0</ele>
        <time>2018-09-02T11:35:06Z</time>
      </trkpt>
      <trkpt lat="40.445633" lon="-5.280467">
        <ele>2003.0</ele>
        <time>2018-09-02T11:35:07Z</time>
      </trkpt>
      <trkpt lat="40.445700" lon="-5.280450">
        <ele>2004.0</ele>
        <time>2018-09-02T11:35:08Z</time>
      </trkpt>
      <trkpt lat="40.445750" lon="-5.280450">
        <ele>2005.0</ele>
        <time>2018-09-02T11:35:09Z</time>
      </trkpt>
      <trkpt lat="40.445800" lon="-5.280450">
        <ele>2005.0</ele>
        <time>2018-09-02T11:35:10Z</time>
      </trkpt>
      <trkpt lat="40.445850" lon="-5.280467">
        <ele>2007.0</ele>
        <time>2018-09-02T11:35:11Z</time>
      </trkpt>
      <trkpt lat="40.445867" lon="-5.280517">
        <ele>2008.0</ele>
        <time>2018-09-02T11:35:12Z</time>
      </trkpt>
      <trkpt lat="40.445833" lon="-5.280567">
        <ele>2009.0</ele>
        <time>2018-09-02T11:35:13Z</time>
      </trkpt>
      <trkpt lat="40.445767" lon="-5.280583">
        <ele>2010.0</ele>
        <time>2018-09-02T11:35:14Z</time>
      </trkpt>
      <trkpt lat="40.445683" lon="-5.280550">
        <ele>2011.0</ele>
        <time>2018-09-02T11:35:15Z</time>
      </trkpt>
      <trkpt lat="40.445600" lon="-5.280483">
        <ele>2013.0</ele>
        <time>2018-09-02T11:35:16Z</time>
      </trkpt>
      <trkpt lat="40.445533" lon="-5.280417">
        <ele>2015.0</ele>
        <time>2018-09-02T11:35:17Z</time>
      </trkpt>
      <trkpt lat="40.445467" lon="-5.280350">
        <ele>2017.0</ele>
        <time>2018-09-02T11:35:18Z</time>
      </trkpt>
      <trkpt lat="40.445400" lon="-5.280300">
        <ele>2019.0</ele>
        <time>2018-09-02T11:35:19Z</time>
      </trkpt>
      <trkpt lat="40.445333" lon="-5.280250">
        <ele>2019.0</ele>
        <time>2018-09-02T11:35:20Z</time>
      </trkpt>
      <trkpt lat="40.445250" lon="-5.280217">
        <ele>2019.0</ele>
        <time>2018-09-02T11:35:21Z</time>
      </trkpt>
      <trkpt lat="40.445200" lon="-5.280217">
        <ele>2020.0</ele>
        <time>2018-09-02T11:35:22Z</time>
      </trkpt>
      <trkpt lat="40.445167" lon="-5.280233">
        <ele>2020.0</ele>
        <time>2018-09-02T11:35:23Z</time>
      </trkpt>
      <trkpt lat="40.445150" lon="-5.280283">
        <ele>2020.0</ele>
        <time>2018-09-02T11:35:24Z</time>
      </trkpt>
      <trkpt lat="40.445150" lon="-5.280317">
        <ele>2020.0</ele>
        <time>2018-09-02T11:35:25Z</time>
      </trkpt>
      <trkpt lat="40.445167" lon="-5.280350">
        <ele>2021.0</ele>
        <time>2018-09-02T11:35:26Z</time>
      </trkpt>
      <trkpt lat="40.445183" lon="-5.280367">
        <ele>2021.0</ele>
        <time>2018-09-02T11:35:27Z</time>
      </trkpt>
      <trkpt lat="40.445217" lon="-5.280383">
        <ele>2022.0</ele>
        <time>2018-09-02T11:35:28Z</time>
      </trkpt>
      <trkpt lat="40.445233" lon="-5.280417">
        <ele>2023.0</ele>
        <time>2018-09-02T11:35:29Z</time>
      </trkpt>
      <trkpt lat="40.445250" lon="-5.280450">
        <ele>2022.0</ele>
        <time>2018-09-02T11:35:30Z</time>
      </trkpt>
      <trkpt lat="40.445250" lon="-5.280483">
        <ele>2022.0</ele>
        <time>2018-09-02T11:35:31Z</time>
      </trkpt>
      <trkpt lat="40.445283" lon="-5.280517">
        <ele>2022.0</ele>
        <time>2018-09-02T11:35:32Z</time>
      </trkpt>
      <trkpt lat="40.445333" lon="-5.280550">
        <ele>2022.0</ele>
        <time>2018-09-02T11:35:33Z</time>
      </trkpt>
      <trkpt lat="40.445367" lon="-5.280567">
        <ele>2022.0</ele>
        <time>2018-09-02T11:35:34Z</time>
      </trkpt>
      <trkpt lat="40.445383" lon="-5.280600">
        <ele>2022.0</ele>
        <time>2018-09-02T11:35:35Z</time>
      </trkpt>
      <trkpt lat="40.445417" lon="-5.280633">
        <ele>2022.0</ele>
        <time>2018-09-02T11:35:36Z</time>
      </trkpt>
      <trkpt lat="40.445450" lon="-5.280667">
        <ele>2022.0</ele>
        <time>2018-09-02T11:35:37Z</time>
      </trkpt>
      <trkpt lat="40.445483" lon="-5.280683">
        <ele>2022.0</ele>
        <time>2018-09-02T11:35:38Z</time>
      </trkpt>
      <trkpt lat="40.445517" lon="-5.280717">
        <ele>2021.0</ele>
        <time>2018-09-02T11:35:39Z</time>
      </trkpt>
      <trkpt lat="40.445533" lon="-5.280767">
        <ele>2019.0</ele>
        <time>2018-09-02T11:35:40Z</time>
      </trkpt>
      <trkpt lat="40.445533" lon="-5.280817">
        <ele>2017.0</ele>
        <time>2018-09-02T11:35:41Z</time>
      </trkpt>
      <trkpt lat="40.445500" lon="-5.280833">
        <ele>2015.0</ele>
        <time>2018-09-02T11:35:42Z</time>
      </trkpt>
      <trkpt lat="40.445450" lon="-5.280850">
        <ele>2014.0</ele>
        <time>2018-09-02T11:35:43Z</time>
      </trkpt>
      <trkpt lat="40.445383" lon="-5.280800">
        <ele>2012.0</ele>
        <time>2018-09-02T11:35:44Z</time>
      </trkpt>
      <trkpt lat="40.445317" lon="-5.280750">
        <ele>2010.0</ele>
        <time>2018-09-02T11:35:45Z</time>
      </trkpt>
      <trkpt lat="40.445233" lon="-5.280683">
        <ele>2008.0</ele>
        <time>2018-09-02T11:35:46Z</time>
      </trkpt>
      <trkpt lat="40.445167" lon="-5.280633">
        <ele>2007.0</ele>
        <time>2018-09-02T11:35:47Z</time>
      </trkpt>
      <trkpt lat="40.445100" lon="-5.280567">
        <ele>2005.0</ele>
        <time>2018-09-02T11:35:48Z</time>
      </trkpt>
      <trkpt lat="40.445033" lon="-5.280517">
        <ele>2004.0</ele>
        <time>2018-09-02T11:35:49Z</time>
      </trkpt>
      <trkpt lat="40.444967" lon="-5.280500">
        <ele>2003.0</ele>
        <time>2018-09-02T11:35:50Z</time>
      </trkpt>
      <trkpt lat="40.444917" lon="-5.280467">
        <ele>2002.0</ele>
        <time>2018-09-02T11:35:51Z</time>
      </trkpt>
      <trkpt lat="40.444867" lon="-5.280450">
        <ele>2001.0</ele>
        <time>2018-09-02T11:35:52Z</time>
      </trkpt>
      <trkpt lat="40.444817" lon="-5.280450">
        <ele>1999.0</ele>
        <time>2018-09-02T11:35:53Z</time>
      </trkpt>
      <trkpt lat="40.444783" lon="-5.280467">
        <ele>1996.0</ele>
        <time>2018-09-02T11:35:54Z</time>
      </trkpt>
      <trkpt lat="40.444767" lon="-5.280517">
        <ele>1992.0</ele>
        <time>2018-09-02T11:35:55Z</time>
      </trkpt>
      <trkpt lat="40.444783" lon="-5.280567">
        <ele>1989.0</ele>
        <time>2018-09-02T11:35:56Z</time>
      </trkpt>
      <trkpt lat="40.444817" lon="-5.280633">
        <ele>1986.0</ele>
        <time>2018-09-02T11:35:57Z</time>
      </trkpt>
      <trkpt lat="40.444917" lon="-5.280717">
        <ele>1983.0</ele>
        <time>2018-09-02T11:35:59Z</time>
      </trkpt>
      <trkpt lat="40.444950" lon="-5.280750">
        <ele>1982.0</ele>
        <time>2018-09-02T11:36:00Z</time>
      </trkpt>
      <trkpt lat="40.444983" lon="-5.280783">
        <ele>1981.0</ele>
        <time>2018-09-02T11:36:01Z</time>
      </trkpt>
      <trkpt lat="40.445033" lon="-5.280817">
        <ele>1979.0</ele>
        <time>2018-09-02T11:36:02Z</time>
      </trkpt>
      <trkpt lat="40.445083" lon="-5.280867">
        <ele>1977.0</ele>
        <time>2018-09-02T11:36:03Z</time>
      </trkpt>
      <trkpt lat="40.445150" lon="-5.280933">
        <ele>1975.0</ele>
        <time>2018-09-02T11:36:04Z</time>
      </trkpt>
      <trkpt lat="40.445217" lon="-5.281000">
        <ele>1974.0</ele>
        <time>2018-09-02T11:36:05Z</time>
      </trkpt>
      <trkpt lat="40.445267" lon="-5.281050">
        <ele>1974.0</ele>
        <time>2018-09-02T11:36:06Z</time>
      </trkpt>
      <trkpt lat="40.445317" lon="-5.281100">
        <ele>1976.0</ele>
        <time>2018-09-02T11:36:07Z</time>
      </trkpt>
      <trkpt lat="40.445367" lon="-5.281133">
        <ele>1976.0</ele>
        <time>2018-09-02T11:36:08Z</time>
      </trkpt>
      <trkpt lat="40.445417" lon="-5.281167">
        <ele>1975.0</ele>
        <time>2018-09-02T11:36:09Z</time>
      </trkpt>
      <trkpt lat="40.445483" lon="-5.281217">
        <ele>1976.0</ele>
        <time>2018-09-02T11:36:10Z</time>
      </trkpt>
      <trkpt lat="40.445533" lon="-5.281267">
        <ele>1976.0</ele>
        <time>2018-09-02T11:36:11Z</time>
      </trkpt>
      <trkpt lat="40.445567" lon="-5.281333">
        <ele>1975.0</ele>
        <time>2018-09-02T11:36:12Z</time>
      </trkpt>
      <trkpt lat="40.445600" lon="-5.281400">
        <ele>1975.0</ele>
        <time>2018-09-02T11:36:13Z</time>
      </trkpt>
      <trkpt lat="40.445633" lon="-5.281483">
        <ele>1975.0</ele>
        <time>2018-09-02T11:36:14Z</time>
      </trkpt>
      <trkpt lat="40.445650" lon="-5.281550">
        <ele>1975.0</ele>
        <time>2018-09-02T11:36:15Z</time>
      </trkpt>
      <trkpt lat="40.445650" lon="-5.281617">
        <ele>1974.0</ele>
        <time>2018-09-02T11:36:16Z</time>
      </trkpt>
      <trkpt lat="40.445650" lon="-5.281683">
        <ele>1975.0</ele>
        <time>2018-09-02T11:36:17Z</time>
      </trkpt>
      <trkpt lat="40.445650" lon="-5.281750">
        <ele>1975.0</ele>
        <time>2018-09-02T11:36:18Z</time>
      </trkpt>
      <trkpt lat="40.445667" lon="-5.281817">
        <ele>1975.0</ele>
        <time>2018-09-02T11:36:19Z</time>
      </trkpt>
      <trkpt lat="40.445667" lon="-5.281900">
        <ele>1975.0</ele>
        <time>2018-09-02T11:36:20Z</time>
      </trkpt>
      <trkpt lat="40.445683" lon="-5.281933">
        <ele>1975.0</ele>
        <time>2018-09-02T11:36:21Z</time>
      </trkpt>
      <trkpt lat="40.445683" lon="-5.282000">
        <ele>1975.0</ele>
        <time>2018-09-02T11:36:22Z</time>
      </trkpt>
      <trkpt lat="40.445683" lon="-5.282050">
        <ele>1976.0</ele>
        <time>2018-09-02T11:36:23Z</time>
      </trkpt>
      <trkpt lat="40.445683" lon="-5.282100">
        <ele>1977.0</ele>
        <time>2018-09-02T11:36:24Z</time>
      </trkpt>
      <trkpt lat="40.445667" lon="-5.282167">
        <ele>1978.0</ele>
        <time>2018-09-02T11:36:25Z</time>
      </trkpt>
      <trkpt lat="40.445667" lon="-5.282233">
        <ele>1979.0</ele>
        <time>2018-09-02T11:36:26Z</time>
      </trkpt>
      <trkpt lat="40.445650" lon="-5.282283">
        <ele>1981.0</ele>
        <time>2018-09-02T11:36:27Z</time>
      </trkpt>
      <trkpt lat="40.445633" lon="-5.282333">
        <ele>1982.0</ele>
        <time>2018-09-02T11:36:28Z</time>
      </trkpt>
      <trkpt lat="40.445617" lon="-5.282383">
        <ele>1983.0</ele>
        <time>2018-09-02T11:36:29Z</time>
      </trkpt>
      <trkpt lat="40.445617" lon="-5.282450">
        <ele>1985.0</ele>
        <time>2018-09-02T11:36:30Z</time>
      </trkpt>
      <trkpt lat="40.445617" lon="-5.282517">
        <ele>1986.0</ele>
        <time>2018-09-02T11:36:31Z</time>
      </trkpt>
      <trkpt lat="40.445617" lon="-5.282583">
        <ele>1987.0</ele>
        <time>2018-09-02T11:36:32Z</time>
      </trkpt>
      <trkpt lat="40.445600" lon="-5.282633">
        <ele>1989.0</ele>
        <time>2018-09-02T11:36:33Z</time>
      </trkpt>
      <trkpt lat="40.445600" lon="-5.282667">
        <ele>1992.0</ele>
        <time>2018-09-02T11:36:34Z</time>
      </trkpt>
      <trkpt lat="40.445583" lon="-5.282700">
        <ele>1995.0</ele>
        <time>2018-09-02T11:36:35Z</time>
      </trkpt>
      <trkpt lat="40.445583" lon="-5.282750">
        <ele>1996.0</ele>
        <time>2018-09-02T11:36:36Z</time>
      </trkpt>
      <trkpt lat="40.445583" lon="-5.282800">
        <ele>1996.0</ele>
        <time>2018-09-02T11:36:37Z</time>
      </trkpt>
      <trkpt lat="40.445617" lon="-5.282867">
        <ele>1997.0</ele>
        <time>2018-09-02T11:36:38Z</time>
      </trkpt>
      <trkpt lat="40.445667" lon="-5.282917">
        <ele>1997.0</ele>
        <time>2018-09-02T11:36:39Z</time>
      </trkpt>
      <trkpt lat="40.445750" lon="-5.282933">
        <ele>1998.0</ele>
        <time>2018-09-02T11:36:40Z</time>
      </trkpt>
      <trkpt lat="40.445850" lon="-5.282900">
        <ele>1998.0</ele>
        <time>2018-09-02T11:36:41Z</time>
      </trkpt>
      <trkpt lat="40.445950" lon="-5.282817">
        <ele>1997.0</ele>
        <time>2018-09-02T11:36:42Z</time>
      </trkpt>
      <trkpt lat="40.446017" lon="-5.282683">
        <ele>1996.0</ele>
        <time>2018-09-02T11:36:43Z</time>
      </trkpt>
      <trkpt lat="40.446067" lon="-5.282550">
        <ele>1995.0</ele>
        <time>2018-09-02T11:36:44Z</time>
      </trkpt>
      <trkpt lat="40.446050" lon="-5.282200">
        <ele>1992.0</ele>
        <time>2018-09-02T11:36:46Z</time>
      </trkpt>
      <trkpt lat="40.446000" lon="-5.282067">
        <ele>1991.0</ele>
        <time>2018-09-02T11:36:47Z</time>
      </trkpt>
      <trkpt lat="40.445933" lon="-5.281950">
        <ele>1991.0</ele>
        <time>2018-09-02T11:36:48Z</time>
      </trkpt>
      <trkpt lat="40.445867" lon="-5.281867">
        <ele>1991.0</ele>
        <time>2018-09-02T11:36:49Z</time>
      </trkpt>
      <trkpt lat="40.445800" lon="-5.281800">
        <ele>1991.0</ele>
        <time>2018-09-02T11:36:50Z</time>
      </trkpt>
      <trkpt lat="40.445733" lon="-5.281717">
        <ele>1993.0</ele>
        <time>2018-09-02T11:36:51Z</time>
      </trkpt>
      <trkpt lat="40.445667" lon="-5.281650">
        <ele>1994.0</ele>
        <time>2018-09-02T11:36:52Z</time>
      </trkpt>
      <trkpt lat="40.445617" lon="-5.281633">
        <ele>1995.0</ele>
        <time>2018-09-02T11:36:53Z</time>
      </trkpt>
      <trkpt lat="40.445583" lon="-5.281650">
        <ele>1995.0</ele>
        <time>2018-09-02T11:36:54Z</time>
      </trkpt>
      <trkpt lat="40.445567" lon="-5.281717">
        <ele>1995.0</ele>
        <time>2018-09-02T11:36:55Z</time>
      </trkpt>
      <trkpt lat="40.445567" lon="-5.281750">
        <ele>1995.0</ele>
        <time>2018-09-02T11:36:56Z</time>
      </trkpt>
      <trkpt lat="40.445567" lon="-5.281800">
        <ele>1996.0</ele>
        <time>2018-09-02T11:36:57Z</time>
      </trkpt>
      <trkpt lat="40.445583" lon="-5.281833">
        <ele>1997.0</ele>
        <time>2018-09-02T11:36:58Z</time>
      </trkpt>
      <trkpt lat="40.445583" lon="-5.281867">
        <ele>1999.0</ele>
        <time>2018-09-02T11:36:59Z</time>
      </trkpt>
      <trkpt lat="40.445583" lon="-5.281900">
        <ele>2000.0</ele>
        <time>2018-09-02T11:37:00Z</time>
      </trkpt>
      <trkpt lat="40.445583" lon="-5.281933">
        <ele>2001.0</ele>
        <time>2018-09-02T11:37:01Z</time>
      </trkpt>
      <trkpt lat="40.445583" lon="-5.281983">
        <ele>2003.0</ele>
        <time>2018-09-02T11:37:02Z</time>
      </trkpt>
      <trkpt lat="40.445567" lon="-5.282050">
        <ele>2004.0</ele>
        <time>2018-09-02T11:37:03Z</time>
      </trkpt>
      <trkpt lat="40.445567" lon="-5.282100">
        <ele>2005.0</ele>
        <time>2018-09-02T11:37:04Z</time>
      </trkpt>
      <trkpt lat="40.445567" lon="-5.282150">
        <ele>2006.0</ele>
        <time>2018-09-02T11:37:05Z</time>
      </trkpt>
      <trkpt lat="40.445550" lon="-5.282183">
        <ele>2008.0</ele>
        <time>2018-09-02T11:37:06Z</time>
      </trkpt>
      <trkpt lat="40.445550" lon="-5.282233">
        <ele>2010.0</ele>
        <time>2018-09-02T11:37:07Z</time>
      </trkpt>
      <trkpt lat="40.445533" lon="-5.282283">
        <ele>2012.0</ele>
        <time>2018-09-02T11:37:08Z</time>
      </trkpt>
      <trkpt lat="40.445533" lon="-5.282350">
        <ele>2013.0</ele>
        <time>2018-09-02T11:37:09Z</time>
      </trkpt>
      <trkpt lat="40.445533" lon="-5.282400">
        <ele>2015.0</ele>
        <time>2018-09-02T11:37:10Z</time>
      </trkpt>
      <trkpt lat="40.445517" lon="-5.282450">
        <ele>2016.0</ele>
        <time>2018-09-02T11:37:11Z</time>
      </trkpt>
      <trkpt lat="40.445483" lon="-5.282483">
        <ele>2018.0</ele>
        <time>2018-09-02T11:37:12Z</time>
      </trkpt>
      <trkpt lat="40.445467" lon="-5.282533">
        <ele>2019.0</ele>
        <time>2018-09-02T11:37:13Z</time>
      </trkpt>
      <trkpt lat="40.445433" lon="-5.282583">
        <ele>2021.0</ele>
        <time>2018-09-02T11:37:14Z</time>
      </trkpt>
      <trkpt lat="40.445417" lon="-5.282617">
        <ele>2022.0</ele>
        <time>2018-09-02T11:37:15Z</time>
      </trkpt>
      <trkpt lat="40.445383" lon="-5.282683">
        <ele>2021.0</ele>
        <time>2018-09-02T11:37:16Z</time>
      </trkpt>
      <trkpt lat="40.445367" lon="-5.282717">
        <ele>2022.0</ele>
        <time>2018-09-02T11:37:17Z</time>
      </trkpt>
      <trkpt lat="40.445367" lon="-5.282783">
        <ele>2020.0</ele>
        <time>2018-09-02T11:37:18Z</time>
      </trkpt>
      <trkpt lat="40.445383" lon="-5.282833">
        <ele>2020.0</ele>
        <time>2018-09-02T11:37:19Z</time>
      </trkpt>
      <trkpt lat="40.445433" lon="-5.282850">
        <ele>2020.0</ele>
        <time>2018-09-02T11:37:20Z</time>
      </trkpt>
      <trkpt lat="40.445500" lon="-5.282867">
        <ele>2018.0</ele>
        <time>2018-09-02T11:37:21Z</time>
      </trkpt>
      <trkpt lat="40.445600" lon="-5.282833">
        <ele>2017.0</ele>
        <time>2018-09-02T11:37:22Z</time>
      </trkpt>
      <trkpt lat="40.445683" lon="-5.282750">
        <ele>2016.0</ele>
        <time>2018-09-02T11:37:23Z</time>
      </trkpt>
      <trkpt lat="40.445767" lon="-5.282633">
        <ele>2014.0</ele>
        <time>2018-09-02T11:37:24Z</time>
      </trkpt>
      <trkpt lat="40.445817" lon="-5.282483">
        <ele>2012.0</ele>
        <time>2018-09-02T11:37:25Z</time>
      </trkpt>
      <trkpt lat="40.445833" lon="-5.282317">
        <ele>2010.0</ele>
        <time>2018-09-02T11:37:26Z</time>
      </trkpt>
      <trkpt lat="40.445817" lon="-5.282167">
        <ele>2008.0</ele>
        <time>2018-09-02T11:37:27Z</time>
      </trkpt>
      <trkpt lat="40.445767" lon="-5.282033">
        <ele>2006.0</ele>
        <time>2018-09-02T11:37:28Z</time>
      </trkpt>
      <trkpt lat="40.445700" lon="-5.281917">
        <ele>2005.0</ele>
        <time>2018-09-02T11:37:29Z</time>
      </trkpt>
      <trkpt lat="40.445600" lon="-5.281850">
        <ele>2003.0</ele>
        <time>2018-09-02T11:37:30Z</time>
      </trkpt>
      <trkpt lat="40.445517" lon="-5.281817">
        <ele>2002.0</ele>
        <time>2018-09-02T11:37:31Z</time>
      </trkpt>
      <trkpt lat="40.445467" lon="-5.281833">
        <ele>2000.0</ele>
        <time>2018-09-02T11:37:32Z</time>
      </trkpt>
      <trkpt lat="40.445433" lon="-5.281883">
        <ele>1999.0</ele>
        <time>2018-09-02T11:37:33Z</time>
      </trkpt>
      <trkpt lat="40.445433" lon="-5.281933">
        <ele>2002.0</ele>
        <time>2018-09-02T11:37:34Z</time>
      </trkpt>
      <trkpt lat="40.445450" lon="-5.281967">
        <ele>2002.0</ele>
        <time>2018-09-02T11:37:35Z</time>
      </trkpt>
      <trkpt lat="40.445450" lon="-5.282017">
        <ele>2001.0</ele>
        <time>2018-09-02T11:37:36Z</time>
      </trkpt>
      <trkpt lat="40.445467" lon="-5.282067">
        <ele>2001.0</ele>
        <time>2018-09-02T11:37:37Z</time>
      </trkpt>
      <trkpt lat="40.445500" lon="-5.282133">
        <ele>2001.0</ele>
        <time>2018-09-02T11:37:38Z</time>
      </trkpt>
      <trkpt lat="40.445550" lon="-5.282200">
        <ele>2001.0</ele>
        <time>2018-09-02T11:37:39Z</time>
      </trkpt>
      <trkpt lat="40.445567" lon="-5.282267">
        <ele>2001.0</ele>
        <time>2018-09-02T11:37:40Z</time>
      </trkpt>
      <trkpt lat="40.445583" lon="-5.282333">
        <ele>2000.0</ele>
        <time>2018-09-02T11:37:41Z</time>
      </trkpt>
      <trkpt lat="40.445600" lon="-5.282383">
        <ele>2000.0</ele>
        <time>2018-09-02T11:37:42Z</time>
      </trkpt>
      <trkpt lat="40.445633" lon="-5.282417">
        <ele>2001.0</ele>
        <time>2018-09-02T11:37:43Z</time>
      </trkpt>
      <trkpt lat="40.445650" lon="-5.282450">
        <ele>2001.0</ele>
        <time>2018-09-02T11:37:44Z</time>
      </trkpt>
      <trkpt lat="40.445683" lon="-5.282500">
        <ele>2001.0</ele>
        <time>2018-09-02T11:37:45Z</time>
      </trkpt>
      <trkpt lat="40.445700" lon="-5.282567">
        <ele>2000.0</ele>
        <time>2018-09-02T11:37:46Z</time>
      </trkpt>
      <trkpt lat="40.445717" lon="-5.282633">
        <ele>1999.0</ele>
        <time>2018-09-02T11:37:47Z</time>
      </trkpt>
      <trkpt lat="40.445717" lon="-5.282700">
        <ele>1998.0</ele>
        <time>2018-09-02T11:37:48Z</time>
      </trkpt>
      <trkpt lat="40.445717" lon="-5.282733">
        <ele>1998.0</ele>
        <time>2018-09-02T11:37:49Z</time>
      </trkpt>
      <trkpt lat="40.445717" lon="-5.282767">
        <ele>1998.0</ele>
        <time>2018-09-02T11:37:50Z</time>
      </trkpt>
      <trkpt lat="40.445717" lon="-5.282800">
        <ele>1997.0</ele>
        <time>2018-09-02T11:37:51Z</time>
      </trkpt>
      <trkpt lat="40.445733" lon="-5.282850">
        <ele>1997.0</ele>
        <time>2018-09-02T11:37:52Z</time>
      </trkpt>
      <trkpt lat="40.445750" lon="-5.282883">
        <ele>1996.0</ele>
        <time>2018-09-02T11:37:53Z</time>
      </trkpt>
      <trkpt lat="40.445767" lon="-5.282917">
        <ele>1995.0</ele>
        <time>2018-09-02T11:37:54Z</time>
      </trkpt>
      <trkpt lat="40.445783" lon="-5.282967">
        <ele>1994.0</ele>
        <time>2018-09-02T11:37:55Z</time>
      </trkpt>
      <trkpt lat="40.445800" lon="-5.283033">
        <ele>1993.0</ele>
        <time>2018-09-02T11:37:56Z</time>
      </trkpt>
      <trkpt lat="40.445883" lon="-5.283167">
        <ele>1990.0</ele>
        <time>2018-09-02T11:37:58Z</time>
      </trkpt>
      <trkpt lat="40.445933" lon="-5.283217">
        <ele>1990.0</ele>
        <time>2018-09-02T11:37:59Z</time>
      </trkpt>
      <trkpt lat="40.445967" lon="-5.283250">
        <ele>1991.0</ele>
        <time>2018-09-02T11:38:00Z</time>
      </trkpt>
      <trkpt lat="40.446017" lon="-5.283300">
        <ele>1992.0</ele>
        <time>2018-09-02T11:38:01Z</time>
      </trkpt>
      <trkpt lat="40.446050" lon="-5.283333">
        <ele>1992.0</ele>
        <time>2018-09-02T11:38:02Z</time>
      </trkpt>
      <trkpt lat="40.446083" lon="-5.283367">
        <ele>1992.0</ele>
        <time>2018-09-02T11:38:03Z</time>
      </trkpt>
      <trkpt lat="40.446133" lon="-5.283417">
        <ele>1991.0</ele>
        <time>2018-09-02T11:38:04Z</time>
      </trkpt>
      <trkpt lat="40.446167" lon="-5.283450">
        <ele>1991.0</ele>
        <time>2018-09-02T11:38:05Z</time>
      </trkpt>
      <trkpt lat="40.446183" lon="-5.283500">
        <ele>1991.0</ele>
        <time>2018-09-02T11:38:06Z</time>
      </trkpt>
      <trkpt lat="40.446200" lon="-5.283550">
        <ele>1990.0</ele>
        <time>2018-09-02T11:38:07Z</time>
      </trkpt>
      <trkpt lat="40.446217" lon="-5.283617">
        <ele>1990.0</ele>
        <time>2018-09-02T11:38:08Z</time>
      </trkpt>
      <trkpt lat="40.446233" lon="-5.283667">
        <ele>1989.0</ele>
        <time>2018-09-02T11:38:09Z</time>
      </trkpt>
      <trkpt lat="40.446283" lon="-5.283717">
        <ele>1989.0</ele>
        <time>2018-09-02T11:38:10Z</time>
      </trkpt>
      <trkpt lat="40.446317" lon="-5.283767">
        <ele>1990.0</ele>
        <time>2018-09-02T11:38:11Z</time>
      </trkpt>
      <trkpt lat="40.446383" lon="-5.283800">
        <ele>1990.0</ele>
        <time>2018-09-02T11:38:12Z</time>
      </trkpt>
      <trkpt lat="40.446417" lon="-5.283867">
        <ele>1990.0</ele>
        <time>2018-09-02T11:38:13Z</time>
      </trkpt>
      <trkpt lat="40.446467" lon="-5.283933">
        <ele>1990.0</ele>
        <time>2018-09-02T11:38:14Z</time>
      </trkpt>
      <trkpt lat="40.446517" lon="-5.284000">
        <ele>1991.0</ele>
        <time>2018-09-02T11:38:15Z</time>
      </trkpt>
      <trkpt lat="40.446617" lon="-5.284100">
        <ele>1993.0</ele>
        <time>2018-09-02T11:38:17Z</time>
      </trkpt>
      <trkpt lat="40.446667" lon="-5.284150">
        <ele>1993.0</ele>
        <time>2018-09-02T11:38:18Z</time>
      </trkpt>
      <trkpt lat="40.446717" lon="-5.284200">
        <ele>1993.0</ele>
        <time>2018-09-02T11:38:19Z</time>
      </trkpt>
      <trkpt lat="40.446750" lon="-5.284250">
        <ele>1992.0</ele>
        <time>2018-09-02T11:38:20Z</time>
      </trkpt>
      <trkpt lat="40.446800" lon="-5.284317">
        <ele>1991.0</ele>
        <time>2018-09-02T11:38:21Z</time>
      </trkpt>
      <trkpt lat="40.446867" lon="-5.284383">
        <ele>1989.0</ele>
        <time>2018-09-02T11:38:22Z</time>
      </trkpt>
      <trkpt lat="40.446917" lon="-5.284450">
        <ele>1986.0</ele>
        <time>2018-09-02T11:38:23Z</time>
      </trkpt>
      <trkpt lat="40.447000" lon="-5.284517">
        <ele>1984.0</ele>
        <time>2018-09-02T11:38:24Z</time>
      </trkpt>
      <trkpt lat="40.447067" lon="-5.284567">
        <ele>1983.0</ele>
        <time>2018-09-02T11:38:25Z</time>
      </trkpt>
      <trkpt lat="40.447133" lon="-5.284600">
        <ele>1984.0</ele>
        <time>2018-09-02T11:38:26Z</time>
      </trkpt>
      <trkpt lat="40.447200" lon="-5.284617">
        <ele>1984.0</ele>
        <time>2018-09-02T11:38:27Z</time>
      </trkpt>
      <trkpt lat="40.447267" lon="-5.284650">
        <ele>1983.0</ele>
        <time>2018-09-02T11:38:28Z</time>
      </trkpt>
      <trkpt lat="40.447433" lon="-5.284733">
        <ele>1978.0</ele>
        <time>2018-09-02T11:38:30Z</time>
      </trkpt>
      <trkpt lat="40.447617" lon="-5.284800">
        <ele>1974.0</ele>
        <time>2018-09-02T11:38:32Z</time>
      </trkpt>
      <trkpt lat="40.447717" lon="-5.284817">
        <ele>1973.0</ele>
        <time>2018-09-02T11:38:33Z</time>
      </trkpt>
      <trkpt lat="40.447800" lon="-5.284817">
        <ele>1972.0</ele>
        <time>2018-09-02T11:38:34Z</time>
      </trkpt>
      <trkpt lat="40.447867" lon="-5.284833">
        <ele>1972.0</ele>
        <time>2018-09-02T11:38:35Z</time>
      </trkpt>
      <trkpt lat="40.447950" lon="-5.284883">
        <ele>1970.0</ele>
        <time>2018-09-02T11:38:36Z</time>
      </trkpt>
      <trkpt lat="40.448050" lon="-5.284917">
        <ele>1968.0</ele>
        <time>2018-09-02T11:38:37Z</time>
      </trkpt>
      <trkpt lat="40.448133" lon="-5.284967">
        <ele>1967.0</ele>
        <time>2018-09-02T11:38:38Z</time>
      </trkpt>
      <trkpt lat="40.448233" lon="-5.285000">
        <ele>1965.0</ele>
        <time>2018-09-02T11:38:39Z</time>
      </trkpt>
      <trkpt lat="40.448333" lon="-5.285017">
        <ele>1964.0</ele>
        <time>2018-09-02T11:38:40Z</time>
      </trkpt>
      <trkpt lat="40.448417" lon="-5.285017">
        <ele>1963.0</ele>
        <time>2018-09-02T11:38:41Z</time>
      </trkpt>
      <trkpt lat="40.448517" lon="-5.285033">
        <ele>1962.0</ele>
        <time>2018-09-02T11:38:42Z</time>
      </trkpt>
      <trkpt lat="40.448617" lon="-5.285050">
        <ele>1964.0</ele>
        <time>2018-09-02T11:38:43Z</time>
      </trkpt>
      <trkpt lat="40.448733" lon="-5.285067">
        <ele>1962.0</ele>
        <time>2018-09-02T11:38:44Z</time>
      </trkpt>
      <trkpt lat="40.448833" lon="-5.285067">
        <ele>1961.0</ele>
        <time>2018-09-02T11:38:45Z</time>
      </trkpt>
      <trkpt lat="40.448950" lon="-5.285067">
        <ele>1959.0</ele>
        <time>2018-09-02T11:38:46Z</time>
      </trkpt>
      <trkpt lat="40.449050" lon="-5.285050">
        <ele>1958.0</ele>
        <time>2018-09-02T11:38:47Z</time>
      </trkpt>
      <trkpt lat="40.449167" lon="-5.285033">
        <ele>1957.0</ele>
        <time>2018-09-02T11:38:48Z</time>
      </trkpt>
      <trkpt lat="40.449267" lon="-5.285017">
        <ele>1956.0</ele>
        <time>2018-09-02T11:38:49Z</time>
      </trkpt>
      <trkpt lat="40.449367" lon="-5.285000">
        <ele>1955.0</ele>
        <time>2018-09-02T11:38:50Z</time>
      </trkpt>
      <trkpt lat="40.449483" lon="-5.284967">
        <ele>1954.0</ele>
        <time>2018-09-02T11:38:51Z</time>
      </trkpt>
      <trkpt lat="40.449600" lon="-5.284933">
        <ele>1953.0</ele>
        <time>2018-09-02T11:38:52Z</time>
      </trkpt>
      <trkpt lat="40.449717" lon="-5.284900">
        <ele>1952.0</ele>
        <time>2018-09-02T11:38:53Z</time>
      </trkpt>
      <trkpt lat="40.449817" lon="-5.284883">
        <ele>1952.0</ele>
        <time>2018-09-02T11:38:54Z</time>
      </trkpt>
      <trkpt lat="40.449933" lon="-5.284883">
        <ele>1951.0</ele>
        <time>2018-09-02T11:38:55Z</time>
      </trkpt>
      <trkpt lat="40.450050" lon="-5.284867">
        <ele>1950.0</ele>
        <time>2018-09-02T11:38:56Z</time>
      </trkpt>
      <trkpt lat="40.450167" lon="-5.284850">
        <ele>1949.0</ele>
        <time>2018-09-02T11:38:57Z</time>
      </trkpt>
      <trkpt lat="40.450267" lon="-5.284800">
        <ele>1948.0</ele>
        <time>2018-09-02T11:38:58Z</time>
      </trkpt>
      <trkpt lat="40.450367" lon="-5.284750">
        <ele>1947.0</ele>
        <time>2018-09-02T11:38:59Z</time>
      </trkpt>
      <trkpt lat="40.450467" lon="-5.284700">
        <ele>1945.0</ele>
        <time>2018-09-02T11:39:00Z</time>
      </trkpt>
      <trkpt lat="40.450583" lon="-5.284650">
        <ele>1944.0</ele>
        <time>2018-09-02T11:39:01Z</time>
      </trkpt>
      <trkpt lat="40.450683" lon="-5.284617">
        <ele>1941.0</ele>
        <time>2018-09-02T11:39:02Z</time>
      </trkpt>
      <trkpt lat="40.450817" lon="-5.284550">
        <ele>1939.0</ele>
        <time>2018-09-02T11:39:03Z</time>
      </trkpt>
      <trkpt lat="40.450933" lon="-5.284500">
        <ele>1937.0</ele>
        <time>2018-09-02T11:39:04Z</time>
      </trkpt>
      <trkpt lat="40.451067" lon="-5.284417">
        <ele>1934.0</ele>
        <time>2018-09-02T11:39:05Z</time>
      </trkpt>
      <trkpt lat="40.451183" lon="-5.284317">
        <ele>1932.0</ele>
        <time>2018-09-02T11:39:06Z</time>
      </trkpt>
      <trkpt lat="40.451283" lon="-5.284233">
        <ele>1931.0</ele>
        <time>2018-09-02T11:39:07Z</time>
      </trkpt>
      <trkpt lat="40.451367" lon="-5.284150">
        <ele>1930.0</ele>
        <time>2018-09-02T11:39:08Z</time>
      </trkpt>
      <trkpt lat="40.451467" lon="-5.284067">
        <ele>1929.0</ele>
        <time>2018-09-02T11:39:09Z</time>
      </trkpt>
      <trkpt lat="40.451550" lon="-5.283967">
        <ele>1927.0</ele>
        <time>2018-09-02T11:39:10Z</time>
      </trkpt>
      <trkpt lat="40.451667" lon="-5.283867">
        <ele>1924.0</ele>
        <time>2018-09-02T11:39:11Z</time>
      </trkpt>
      <trkpt lat="40.451783" lon="-5.283750">
        <ele>1921.0</ele>
        <time>2018-09-02T11:39:12Z</time>
      </trkpt>
      <trkpt lat="40.451883" lon="-5.283617">
        <ele>1919.0</ele>
        <time>2018-09-02T11:39:13Z</time>
      </trkpt>
      <trkpt lat="40.451983" lon="-5.283500">
        <ele>1917.0</ele>
        <time>2018-09-02T11:39:14Z</time>
      </trkpt>
      <trkpt lat="40.452083" lon="-5.283383">
        <ele>1915.0</ele>
        <time>2018-09-02T11:39:15Z</time>
      </trkpt>
      <trkpt lat="40.452167" lon="-5.283267">
        <ele>1914.0</ele>
        <time>2018-09-02T11:39:16Z</time>
      </trkpt>
      <trkpt lat="40.452267" lon="-5.283167">
        <ele>1912.0</ele>
        <time>2018-09-02T11:39:17Z</time>
      </trkpt>
      <trkpt lat="40.452350" lon="-5.283033">
        <ele>1910.0</ele>
        <time>2018-09-02T11:39:18Z</time>
      </trkpt>
      <trkpt lat="40.452450" lon="-5.282900">
        <ele>1908.0</ele>
        <time>2018-09-02T11:39:19Z</time>
      </trkpt>
      <trkpt lat="40.452533" lon="-5.282767">
        <ele>1906.0</ele>
        <time>2018-09-02T11:39:20Z</time>
      </trkpt>
      <trkpt lat="40.452617" lon="-5.282633">
        <ele>1903.0</ele>
        <time>2018-09-02T11:39:21Z</time>
      </trkpt>
      <trkpt lat="40.452700" lon="-5.282533">
        <ele>1901.0</ele>
        <time>2018-09-02T11:39:22Z</time>
      </trkpt>
      <trkpt lat="40.452800" lon="-5.282433">
        <ele>1898.0</ele>
        <time>2018-09-02T11:39:23Z</time>
      </trkpt>
      <trkpt lat="40.452900" lon="-5.282300">
        <ele>1893.0</ele>
        <time>2018-09-02T11:39:24Z</time>
      </trkpt>
      <trkpt lat="40.453017" lon="-5.282183">
        <ele>1890.0</ele>
        <time>2018-09-02T11:39:25Z</time>
      </trkpt>
      <trkpt lat="40.453150" lon="-5.282067">
        <ele>1886.0</ele>
        <time>2018-09-02T11:39:26Z</time>
      </trkpt>
      <trkpt lat="40.453267" lon="-5.281950">
        <ele>1884.0</ele>
        <time>2018-09-02T11:39:27Z</time>
      </trkpt>
      <trkpt lat="40.453367" lon="-5.281833">
        <ele>1882.0</ele>
        <time>2018-09-02T11:39:28Z</time>
      </trkpt>
      <trkpt lat="40.453450" lon="-5.281717">
        <ele>1881.0</ele>
        <time>2018-09-02T11:39:29Z</time>
      </trkpt>
      <trkpt lat="40.453533" lon="-5.281583">
        <ele>1878.0</ele>
        <time>2018-09-02T11:39:30Z</time>
      </trkpt>
      <trkpt lat="40.453617" lon="-5.281450">
        <ele>1875.0</ele>
        <time>2018-09-02T11:39:31Z</time>
      </trkpt>
      <trkpt lat="40.453700" lon="-5.281300">
        <ele>1872.0</ele>
        <time>2018-09-02T11:39:32Z</time>
      </trkpt>
      <trkpt lat="40.453783" lon="-5.281167">
        <ele>1870.0</ele>
        <time>2018-09-02T11:39:33Z</time>
      </trkpt>
      <trkpt lat="40.453867" lon="-5.281050">
        <ele>1869.0</ele>
        <time>2018-09-02T11:39:34Z</time>
      </trkpt>
      <trkpt lat="40.453933" lon="-5.280950">
        <ele>1867.0</ele>
        <time>2018-09-02T11:39:35Z</time>
      </trkpt>
      <trkpt lat="40.454000" lon="-5.280817">
        <ele>1866.0</ele>
        <time>2018-09-02T11:39:36Z</time>
      </trkpt>
      <trkpt lat="40.454067" lon="-5.280700">
        <ele>1864.0</ele>
        <time>2018-09-02T11:39:37Z</time>
      </trkpt>
      <trkpt lat="40.454133" lon="-5.280567">
        <ele>1861.0</ele>
        <time>2018-09-02T11:39:38Z</time>
      </trkpt>
      <trkpt lat="40.454200" lon="-5.280450">
        <ele>1859.0</ele>
        <time>2018-09-02T11:39:39Z</time>
      </trkpt>
      <trkpt lat="40.454250" lon="-5.280333">
        <ele>1857.0</ele>
        <time>2018-09-02T11:39:40Z</time>
      </trkpt>
      <trkpt lat="40.454383" lon="-5.280083">
        <ele>1851.0</ele>
        <time>2018-09-02T11:39:42Z</time>
      </trkpt>
      <trkpt lat="40.454467" lon="-5.279933">
        <ele>1846.0</ele>
        <time>2018-09-02T11:39:43Z</time>
      </trkpt>
      <trkpt lat="40.454550" lon="-5.279800">
        <ele>1843.0</ele>
        <time>2018-09-02T11:39:44Z</time>
      </trkpt>
      <trkpt lat="40.454633" lon="-5.279650">
        <ele>1841.0</ele>
        <time>2018-09-02T11:39:45Z</time>
      </trkpt>
      <trkpt lat="40.454700" lon="-5.279533">
        <ele>1839.0</ele>
        <time>2018-09-02T11:39:46Z</time>
      </trkpt>
      <trkpt lat="40.454750" lon="-5.279400">
        <ele>1838.0</ele>
        <time>2018-09-02T11:39:47Z</time>
      </trkpt>
      <trkpt lat="40.454817" lon="-5.279283">
        <ele>1835.0</ele>
        <time>2018-09-02T11:39:48Z</time>
      </trkpt>
      <trkpt lat="40.455083" lon="-5.278917">
        <ele>1829.0</ele>
        <time>2018-09-02T11:39:51Z</time>
      </trkpt>
      <trkpt lat="40.455183" lon="-5.278783">
        <ele>1827.0</ele>
        <time>2018-09-02T11:39:52Z</time>
      </trkpt>
      <trkpt lat="40.455267" lon="-5.278667">
        <ele>1826.0</ele>
        <time>2018-09-02T11:39:53Z</time>
      </trkpt>
      <trkpt lat="40.455350" lon="-5.278550">
        <ele>1826.0</ele>
        <time>2018-09-02T11:39:54Z</time>
      </trkpt>
      <trkpt lat="40.455433" lon="-5.278417">
        <ele>1825.0</ele>
        <time>2018-09-02T11:39:55Z</time>
      </trkpt>
      <trkpt lat="40.455500" lon="-5.278283">
        <ele>1823.0</ele>
        <time>2018-09-02T11:39:56Z</time>
      </trkpt>
      <trkpt lat="40.455583" lon="-5.278150">
        <ele>1822.0</ele>
        <time>2018-09-02T11:39:57Z</time>
      </trkpt>
      <trkpt lat="40.455667" lon="-5.278033">
        <ele>1821.0</ele>
        <time>2018-09-02T11:39:58Z</time>
      </trkpt>
      <trkpt lat="40.455750" lon="-5.277917">
        <ele>1820.0</ele>
        <time>2018-09-02T11:39:59Z</time>
      </trkpt>
      <trkpt lat="40.455833" lon="-5.277783">
        <ele>1818.0</ele>
        <time>2018-09-02T11:40:00Z</time>
      </trkpt>
      <trkpt lat="40.455933" lon="-5.277667">
        <ele>1817.0</ele>
        <time>2018-09-02T11:40:01Z</time>
      </trkpt>
      <trkpt lat="40.456017" lon="-5.277533">
        <ele>1815.0</ele>
        <time>2018-09-02T11:40:02Z</time>
      </trkpt>
      <trkpt lat="40.456083" lon="-5.277400">
        <ele>1814.0</ele>
        <time>2018-09-02T11:40:03Z</time>
      </trkpt>
      <trkpt lat="40.456150" lon="-5.277267">
        <ele>1813.0</ele>
        <time>2018-09-02T11:40:04Z</time>
      </trkpt>
      <trkpt lat="40.456217" lon="-5.277133">
        <ele>1812.0</ele>
        <time>2018-09-02T11:40:05Z</time>
      </trkpt>
      <trkpt lat="40.456367" lon="-5.276917">
        <ele>1811.0</ele>
        <time>2018-09-02T11:40:07Z</time>
      </trkpt>
      <trkpt lat="40.456450" lon="-5.276800">
        <ele>1810.0</ele>
        <time>2018-09-02T11:40:08Z</time>
      </trkpt>
      <trkpt lat="40.456533" lon="-5.276683">
        <ele>1809.0</ele>
        <time>2018-09-02T11:40:09Z</time>
      </trkpt>
      <trkpt lat="40.456617" lon="-5.276567">
        <ele>1809.0</ele>
        <time>2018-09-02T11:40:10Z</time>
      </trkpt>
      <trkpt lat="40.456683" lon="-5.276467">
        <ele>1808.0</ele>
        <time>2018-09-02T11:40:11Z</time>
      </trkpt>
      <trkpt lat="40.456750" lon="-5.276367">
        <ele>1807.0</ele>
        <time>2018-09-02T11:40:12Z</time>
      </trkpt>
      <trkpt lat="40.456833" lon="-5.276250">
        <ele>1806.0</ele>
        <time>2018-09-02T11:40:13Z</time>
      </trkpt>
      <trkpt lat="40.456900" lon="-5.276133">
        <ele>1805.0</ele>
        <time>2018-09-02T11:40:14Z</time>
      </trkpt>
      <trkpt lat="40.456983" lon="-5.276033">
        <ele>1804.0</ele>
        <time>2018-09-02T11:40:15Z</time>
      </trkpt>
      <trkpt lat="40.457050" lon="-5.275917">
        <ele>1803.0</ele>
        <time>2018-09-02T11:40:16Z</time>
      </trkpt>
      <trkpt lat="40.457117" lon="-5.275817">
        <ele>1803.0</ele>
        <time>2018-09-02T11:40:17Z</time>
      </trkpt>
      <trkpt lat="40.457200" lon="-5.275700">
        <ele>1803.0</ele>
        <time>2018-09-02T11:40:18Z</time>
      </trkpt>
      <trkpt lat="40.457267" lon="-5.275600">
        <ele>1803.0</ele>
        <time>2018-09-02T11:40:19Z</time>
      </trkpt>
      <trkpt lat="40.457350" lon="-5.275483">
        <ele>1802.0</ele>
        <time>2018-09-02T11:40:20Z</time>
      </trkpt>
      <trkpt lat="40.457417" lon="-5.275350">
        <ele>1801.0</ele>
        <time>2018-09-02T11:40:21Z</time>
      </trkpt>
      <trkpt lat="40.457500" lon="-5.275217">
        <ele>1802.0</ele>
        <time>2018-09-02T11:40:22Z</time>
      </trkpt>
      <trkpt lat="40.457567" lon="-5.275083">
        <ele>1803.0</ele>
        <time>2018-09-02T11:40:23Z</time>
      </trkpt>
      <trkpt lat="40.457633" lon="-5.274950">
        <ele>1806.0</ele>
        <time>2018-09-02T11:40:24Z</time>
      </trkpt>
      <trkpt lat="40.457717" lon="-5.274850">
        <ele>1809.0</ele>
        <time>2018-09-02T11:40:25Z</time>
      </trkpt>
      <trkpt lat="40.457783" lon="-5.274750">
        <ele>1812.0</ele>
        <time>2018-09-02T11:40:26Z</time>
      </trkpt>
      <trkpt lat="40.457867" lon="-5.274650">
        <ele>1814.0</ele>
        <time>2018-09-02T11:40:27Z</time>
      </trkpt>
      <trkpt lat="40.457933" lon="-5.274567">
        <ele>1817.0</ele>
        <time>2018-09-02T11:40:28Z</time>
      </trkpt>
      <trkpt lat="40.457983" lon="-5.274467">
        <ele>1820.0</ele>
        <time>2018-09-02T11:40:29Z</time>
      </trkpt>
      <trkpt lat="40.458017" lon="-5.274333">
        <ele>1823.0</ele>
        <time>2018-09-02T11:40:30Z</time>
      </trkpt>
      <trkpt lat="40.458033" lon="-5.274200">
        <ele>1826.0</ele>
        <time>2018-09-02T11:40:31Z</time>
      </trkpt>
      <trkpt lat="40.458017" lon="-5.274050">
        <ele>1828.0</ele>
        <time>2018-09-02T11:40:32Z</time>
      </trkpt>
      <trkpt lat="40.457967" lon="-5.273917">
        <ele>1830.0</ele>
        <time>2018-09-02T11:40:33Z</time>
      </trkpt>
      <trkpt lat="40.457883" lon="-5.273833">
        <ele>1833.0</ele>
        <time>2018-09-02T11:40:34Z</time>
      </trkpt>
      <trkpt lat="40.457800" lon="-5.273783">
        <ele>1835.0</ele>
        <time>2018-09-02T11:40:35Z</time>
      </trkpt>
      <trkpt lat="40.457717" lon="-5.273783">
        <ele>1837.0</ele>
        <time>2018-09-02T11:40:36Z</time>
      </trkpt>
      <trkpt lat="40.457667" lon="-5.273833">
        <ele>1839.0</ele>
        <time>2018-09-02T11:40:37Z</time>
      </trkpt>
      <trkpt lat="40.457650" lon="-5.273900">
        <ele>1841.0</ele>
        <time>2018-09-02T11:40:38Z</time>
      </trkpt>
      <trkpt lat="40.457667" lon="-5.273967">
        <ele>1844.0</ele>
        <time>2018-09-02T11:40:39Z</time>
      </trkpt>
      <trkpt lat="40.457733" lon="-5.274017">
        <ele>1846.0</ele>
        <time>2018-09-02T11:40:40Z</time>
      </trkpt>
      <trkpt lat="40.457800" lon="-5.274017">
        <ele>1848.0</ele>
        <time>2018-09-02T11:40:41Z</time>
      </trkpt>
      <trkpt lat="40.457900" lon="-5.273983">
        <ele>1842.0</ele>
        <time>2018-09-02T11:40:42Z</time>
      </trkpt>
      <trkpt lat="40.458083" lon="-5.273833">
        <ele>1846.0</ele>
        <time>2018-09-02T11:40:44Z</time>
      </trkpt>
      <trkpt lat="40.458117" lon="-5.273700">
        <ele>1850.0</ele>
        <time>2018-09-02T11:40:45Z</time>
      </trkpt>
      <trkpt lat="40.458150" lon="-5.273533">
        <ele>1852.0</ele>
        <time>2018-09-02T11:40:46Z</time>
      </trkpt>
      <trkpt lat="40.458100" lon="-5.273250">
        <ele>1858.0</ele>
        <time>2018-09-02T11:40:48Z</time>
      </trkpt>
      <trkpt lat="40.458033" lon="-5.273150">
        <ele>1860.0</ele>
        <time>2018-09-02T11:40:49Z</time>
      </trkpt>
      <trkpt lat="40.457933" lon="-5.273100">
        <ele>1862.0</ele>
        <time>2018-09-02T11:40:50Z</time>
      </trkpt>
      <trkpt lat="40.457833" lon="-5.273083">
        <ele>1863.0</ele>
        <time>2018-09-02T11:40:51Z</time>
      </trkpt>
      <trkpt lat="40.457767" lon="-5.273150">
        <ele>1866.0</ele>
        <time>2018-09-02T11:40:52Z</time>
      </trkpt>
      <trkpt lat="40.457733" lon="-5.273250">
        <ele>1870.0</ele>
        <time>2018-09-02T11:40:53Z</time>
      </trkpt>
      <trkpt lat="40.457767" lon="-5.273333">
        <ele>1873.0</ele>
        <time>2018-09-02T11:40:54Z</time>
      </trkpt>
      <trkpt lat="40.457817" lon="-5.273383">
        <ele>1878.0</ele>
        <time>2018-09-02T11:40:55Z</time>
      </trkpt>
      <trkpt lat="40.457883" lon="-5.273417">
        <ele>1882.0</ele>
        <time>2018-09-02T11:40:56Z</time>
      </trkpt>
      <trkpt lat="40.457950" lon="-5.273433">
        <ele>1884.0</ele>
        <time>2018-09-02T11:40:57Z</time>
      </trkpt>
      <trkpt lat="40.458017" lon="-5.273483">
        <ele>1887.0</ele>
        <time>2018-09-02T11:40:58Z</time>
      </trkpt>
      <trkpt lat="40.458067" lon="-5.273533">
        <ele>1890.0</ele>
        <time>2018-09-02T11:40:59Z</time>
      </trkpt>
      <trkpt lat="40.458167" lon="-5.273550">
        <ele>1886.0</ele>
        <time>2018-09-02T11:41:00Z</time>
      </trkpt>
      <trkpt lat="40.458283" lon="-5.273483">
        <ele>1886.0</ele>
        <time>2018-09-02T11:41:01Z</time>
      </trkpt>
      <trkpt lat="40.458383" lon="-5.273333">
        <ele>1886.0</ele>
        <time>2018-09-02T11:41:02Z</time>
      </trkpt>
      <trkpt lat="40.458433" lon="-5.273150">
        <ele>1887.0</ele>
        <time>2018-09-02T11:41:03Z</time>
      </trkpt>
      <trkpt lat="40.458383" lon="-5.272883">
        <ele>1890.0</ele>
        <time>2018-09-02T11:41:05Z</time>
      </trkpt>
      <trkpt lat="40.458317" lon="-5.272850">
        <ele>1891.0</ele>
        <time>2018-09-02T11:41:06Z</time>
      </trkpt>
      <trkpt lat="40.458233" lon="-5.272867">
        <ele>1890.0</ele>
        <time>2018-09-02T11:41:07Z</time>
      </trkpt>
      <trkpt lat="40.458167" lon="-5.272933">
        <ele>1890.0</ele>
        <time>2018-09-02T11:41:08Z</time>
      </trkpt>
      <trkpt lat="40.458167" lon="-5.273033">
        <ele>1891.0</ele>
        <time>2018-09-02T11:41:09Z</time>
      </trkpt>
      <trkpt lat="40.458233" lon="-5.273117">
        <ele>1892.0</ele>
        <time>2018-09-02T11:41:10Z</time>
      </trkpt>
      <trkpt lat="40.458350" lon="-5.273117">
        <ele>1892.0</ele>
        <time>2018-09-02T11:41:11Z</time>
      </trkpt>
      <trkpt lat="40.458467" lon="-5.273033">
        <ele>1893.0</ele>
        <time>2018-09-02T11:41:12Z</time>
      </trkpt>
      <trkpt lat="40.458550" lon="-5.272883">
        <ele>1894.0</ele>
        <time>2018-09-02T11:41:13Z</time>
      </trkpt>
      <trkpt lat="40.458600" lon="-5.272700">
        <ele>1896.0</ele>
        <time>2018-09-02T11:41:14Z</time>
      </trkpt>
      <trkpt lat="40.458600" lon="-5.272533">
        <ele>1897.0</ele>
        <time>2018-09-02T11:41:15Z</time>
      </trkpt>
      <trkpt lat="40.458533" lon="-5.272417">
        <ele>1899.0</ele>
        <time>2018-09-02T11:41:16Z</time>
      </trkpt>
      <trkpt lat="40.458450" lon="-5.272400">
        <ele>1900.0</ele>
        <time>2018-09-02T11:41:17Z</time>
      </trkpt>
      <trkpt lat="40.458383" lon="-5.272433">
        <ele>1901.0</ele>
        <time>2018-09-02T11:41:18Z</time>
      </trkpt>
      <trkpt lat="40.458367" lon="-5.272517">
        <ele>1900.0</ele>
        <time>2018-09-02T11:41:19Z</time>
      </trkpt>
      <trkpt lat="40.458417" lon="-5.272600">
        <ele>1901.0</ele>
        <time>2018-09-02T11:41:20Z</time>
      </trkpt>
      <trkpt lat="40.458483" lon="-5.272667">
        <ele>1901.0</ele>
        <time>2018-09-02T11:41:21Z</time>
      </trkpt>
      <trkpt lat="40.458583" lon="-5.272667">
        <ele>1903.0</ele>
        <time>2018-09-02T11:41:22Z</time>
      </trkpt>
      <trkpt lat="40.458683" lon="-5.272583">
        <ele>1905.0</ele>
        <time>2018-09-02T11:41:23Z</time>
      </trkpt>
      <trkpt lat="40.458767" lon="-5.272483">
        <ele>1909.0</ele>
        <time>2018-09-02T11:41:24Z</time>
      </trkpt>
      <trkpt lat="40.458817" lon="-5.272350">
        <ele>1914.0</ele>
        <time>2018-09-02T11:41:25Z</time>
      </trkpt>
      <trkpt lat="40.458867" lon="-5.272233">
        <ele>1918.0</ele>
        <time>2018-09-02T11:41:26Z</time>
      </trkpt>
      <trkpt lat="40.458900" lon="-5.272100">
        <ele>1922.0</ele>
        <time>2018-09-02T11:41:27Z</time>
      </trkpt>
      <trkpt lat="40.458917" lon="-5.271967">
        <ele>1925.0</ele>
        <time>2018-09-02T11:41:28Z</time>
      </trkpt>
      <trkpt lat="40.458883" lon="-5.271833">
        <ele>1928.0</ele>
        <time>2018-09-02T11:41:29Z</time>
      </trkpt>
      <trkpt lat="40.458817" lon="-5.271750">
        <ele>1930.0</ele>
        <time>2018-09-02T11:41:30Z</time>
      </trkpt>
      <trkpt lat="40.458733" lon="-5.271767">
        <ele>1932.0</ele>
        <time>2018-09-02T11:41:31Z</time>
      </trkpt>
      <trkpt lat="40.458667" lon="-5.271833">
        <ele>1933.0</ele>
        <time>2018-09-02T11:41:32Z</time>
      </trkpt>
      <trkpt lat="40.458667" lon="-5.271950">
        <ele>1935.0</ele>
        <time>2018-09-02T11:41:33Z</time>
      </trkpt>
      <trkpt lat="40.458717" lon="-5.272033">
        <ele>1939.0</ele>
        <time>2018-09-02T11:41:34Z</time>
      </trkpt>
      <trkpt lat="40.458800" lon="-5.272083">
        <ele>1944.0</ele>
        <time>2018-09-02T11:41:35Z</time>
      </trkpt>
      <trkpt lat="40.458867" lon="-5.272117">
        <ele>1950.0</ele>
        <time>2018-09-02T11:41:36Z</time>
      </trkpt>
      <trkpt lat="40.458900" lon="-5.272167">
        <ele>1954.0</ele>
        <time>2018-09-02T11:41:37Z</time>
      </trkpt>
      <trkpt lat="40.458983" lon="-5.272200">
        <ele>1948.0</ele>
        <time>2018-09-02T11:41:38Z</time>
      </trkpt>
      <trkpt lat="40.459050" lon="-5.272217">
        <ele>1948.0</ele>
        <time>2018-09-02T11:41:39Z</time>
      </trkpt>
      <trkpt lat="40.459167" lon="-5.272217">
        <ele>1948.0</ele>
        <time>2018-09-02T11:41:40Z</time>
      </trkpt>
      <trkpt lat="40.459283" lon="-5.272133">
        <ele>1949.0</ele>
        <time>2018-09-02T11:41:41Z</time>
      </trkpt>
      <trkpt lat="40.459383" lon="-5.272000">
        <ele>1950.0</ele>
        <time>2018-09-02T11:41:42Z</time>
      </trkpt>
      <trkpt lat="40.459450" lon="-5.271817">
        <ele>1950.0</ele>
        <time>2018-09-02T11:41:43Z</time>
      </trkpt>
      <trkpt lat="40.459483" lon="-5.271633">
        <ele>1951.0</ele>
        <time>2018-09-02T11:41:44Z</time>
      </trkpt>
      <trkpt lat="40.459483" lon="-5.271500">
        <ele>1952.0</ele>
        <time>2018-09-02T11:41:45Z</time>
      </trkpt>
      <trkpt lat="40.459450" lon="-5.271383">
        <ele>1953.0</ele>
        <time>2018-09-02T11:41:46Z</time>
      </trkpt>
      <trkpt lat="40.459383" lon="-5.271317">
        <ele>1954.0</ele>
        <time>2018-09-02T11:41:47Z</time>
      </trkpt>
      <trkpt lat="40.459333" lon="-5.271300">
        <ele>1955.0</ele>
        <time>2018-09-02T11:41:48Z</time>
      </trkpt>
      <trkpt lat="40.459283" lon="-5.271333">
        <ele>1956.0</ele>
        <time>2018-09-02T11:41:49Z</time>
      </trkpt>
      <trkpt lat="40.459283" lon="-5.271400">
        <ele>1958.0</ele>
        <time>2018-09-02T11:41:50Z</time>
      </trkpt>
      <trkpt lat="40.459317" lon="-5.271467">
        <ele>1959.0</ele>
        <time>2018-09-02T11:41:51Z</time>
      </trkpt>
      <trkpt lat="40.459400" lon="-5.271483">
        <ele>1962.0</ele>
        <time>2018-09-02T11:41:52Z</time>
      </trkpt>
      <trkpt lat="40.459500" lon="-5.271417">
        <ele>1966.0</ele>
        <time>2018-09-02T11:41:53Z</time>
      </trkpt>
      <trkpt lat="40.459600" lon="-5.271300">
        <ele>1969.0</ele>
        <time>2018-09-02T11:41:54Z</time>
      </trkpt>
      <trkpt lat="40.459683" lon="-5.271167">
        <ele>1972.0</ele>
        <time>2018-09-02T11:41:55Z</time>
      </trkpt>
      <trkpt lat="40.459717" lon="-5.271000">
        <ele>1974.0</ele>
        <time>2018-09-02T11:41:56Z</time>
      </trkpt>
      <trkpt lat="40.459733" lon="-5.270833">
        <ele>1977.0</ele>
        <time>2018-09-02T11:41:57Z</time>
      </trkpt>
      <trkpt lat="40.459700" lon="-5.270683">
        <ele>1979.0</ele>
        <time>2018-09-02T11:41:58Z</time>
      </trkpt>
      <trkpt lat="40.459650" lon="-5.270550">
        <ele>1981.0</ele>
        <time>2018-09-02T11:41:59Z</time>
      </trkpt>
      <trkpt lat="40.459567" lon="-5.270467">
        <ele>1983.0</ele>
        <time>2018-09-02T11:42:00Z</time>
      </trkpt>
      <trkpt lat="40.459500" lon="-5.270417">
        <ele>1984.0</ele>
        <time>2018-09-02T11:42:01Z</time>
      </trkpt>
      <trkpt lat="40.459433" lon="-5.270400">
        <ele>1985.0</ele>
        <time>2018-09-02T11:42:02Z</time>
      </trkpt>
      <trkpt lat="40.459400" lon="-5.270433">
        <ele>1985.0</ele>
        <time>2018-09-02T11:42:03Z</time>
      </trkpt>
      <trkpt lat="40.459383" lon="-5.270483">
        <ele>1984.0</ele>
        <time>2018-09-02T11:42:04Z</time>
      </trkpt>
      <trkpt lat="40.459383" lon="-5.270567">
        <ele>1984.0</ele>
        <time>2018-09-02T11:42:05Z</time>
      </trkpt>
      <trkpt lat="40.459433" lon="-5.270650">
        <ele>1984.0</ele>
        <time>2018-09-02T11:42:06Z</time>
      </trkpt>
      <trkpt lat="40.459517" lon="-5.270683">
        <ele>1983.0</ele>
        <time>2018-09-02T11:42:07Z</time>
      </trkpt>
      <trkpt lat="40.459633" lon="-5.270683">
        <ele>1984.0</ele>
        <time>2018-09-02T11:42:08Z</time>
      </trkpt>
      <trkpt lat="40.459750" lon="-5.270633">
        <ele>1984.0</ele>
        <time>2018-09-02T11:42:09Z</time>
      </trkpt>
      <trkpt lat="40.459833" lon="-5.270567">
        <ele>1984.0</ele>
        <time>2018-09-02T11:42:10Z</time>
      </trkpt>
      <trkpt lat="40.459933" lon="-5.270517">
        <ele>1985.0</ele>
        <time>2018-09-02T11:42:11Z</time>
      </trkpt>
      <trkpt lat="40.460017" lon="-5.270517">
        <ele>1987.0</ele>
        <time>2018-09-02T11:42:12Z</time>
      </trkpt>
      <trkpt lat="40.460100" lon="-5.270517">
        <ele>1988.0</ele>
        <time>2018-09-02T11:42:13Z</time>
      </trkpt>
      <trkpt lat="40.460200" lon="-5.270517">
        <ele>1989.0</ele>
        <time>2018-09-02T11:42:14Z</time>
      </trkpt>
      <trkpt lat="40.460283" lon="-5.270533">
        <ele>1991.0</ele>
        <time>2018-09-02T11:42:15Z</time>
      </trkpt>
      <trkpt lat="40.460350" lon="-5.270567">
        <ele>1992.0</ele>
        <time>2018-09-02T11:42:16Z</time>
      </trkpt>
      <trkpt lat="40.460400" lon="-5.270633">
        <ele>1993.0</ele>
        <time>2018-09-02T11:42:17Z</time>
      </trkpt>
      <trkpt lat="40.460417" lon="-5.270717">
        <ele>1993.0</ele>
        <time>2018-09-02T11:42:18Z</time>
      </trkpt>
      <trkpt lat="40.460433" lon="-5.270800">
        <ele>1993.0</ele>
        <time>2018-09-02T11:42:19Z</time>
      </trkpt>
      <trkpt lat="40.460417" lon="-5.270867">
        <ele>1994.0</ele>
        <time>2018-09-02T11:42:20Z</time>
      </trkpt>
      <trkpt lat="40.460400" lon="-5.270917">
        <ele>1995.0</ele>
        <time>2018-09-02T11:42:21Z</time>
      </trkpt>
      <trkpt lat="40.460367" lon="-5.270967">
        <ele>1996.0</ele>
        <time>2018-09-02T11:42:22Z</time>
      </trkpt>
      <trkpt lat="40.460333" lon="-5.271017">
        <ele>1996.0</ele>
        <time>2018-09-02T11:42:23Z</time>
      </trkpt>
      <trkpt lat="40.460283" lon="-5.271067">
        <ele>1996.0</ele>
        <time>2018-09-02T11:42:24Z</time>
      </trkpt>
      <trkpt lat="40.460233" lon="-5.271100">
        <ele>1996.0</ele>
        <time>2018-09-02T11:42:25Z</time>
      </trkpt>
      <trkpt lat="40.460167" lon="-5.271117">
        <ele>1997.0</ele>
        <time>2018-09-02T11:42:26Z</time>
      </trkpt>
      <trkpt lat="40.460100" lon="-5.271100">
        <ele>1998.0</ele>
        <time>2018-09-02T11:42:27Z</time>
      </trkpt>
      <trkpt lat="40.460033" lon="-5.271100">
        <ele>1999.0</ele>
        <time>2018-09-02T11:42:28Z</time>
      </trkpt>
      <trkpt lat="40.459967" lon="-5.271083">
        <ele>1999.0</ele>
        <time>2018-09-02T11:42:29Z</time>
      </trkpt>
      <trkpt lat="40.459917" lon="-5.271083">
        <ele>1999.0</ele>
        <time>2018-09-02T11:42:30Z</time>
      </trkpt>
      <trkpt lat="40.459833" lon="-5.271067">
        <ele>1999.0</ele>
        <time>2018-09-02T11:42:31Z</time>
      </trkpt>
      <trkpt lat="40.459767" lon="-5.271050">
        <ele>1996.0</ele>
        <time>2018-09-02T11:42:32Z</time>
      </trkpt>
      <trkpt lat="40.459683" lon="-5.271000">
        <ele>1994.0</ele>
        <time>2018-09-02T11:42:33Z</time>
      </trkpt>
      <trkpt lat="40.459617" lon="-5.270917">
        <ele>1993.0</ele>
        <time>2018-09-02T11:42:34Z</time>
      </trkpt>
      <trkpt lat="40.459550" lon="-5.270817">
        <ele>1992.0</ele>
        <time>2018-09-02T11:42:35Z</time>
      </trkpt>
      <trkpt lat="40.459517" lon="-5.270700">
        <ele>1991.0</ele>
        <time>2018-09-02T11:42:36Z</time>
      </trkpt>
      <trkpt lat="40.459500" lon="-5.270550">
        <ele>1990.0</ele>
        <time>2018-09-02T11:42:37Z</time>
      </trkpt>
      <trkpt lat="40.459517" lon="-5.270400">
        <ele>1989.0</ele>
        <time>2018-09-02T11:42:38Z</time>
      </trkpt>
      <trkpt lat="40.459550" lon="-5.270250">
        <ele>1988.0</ele>
        <time>2018-09-02T11:42:39Z</time>
      </trkpt>
      <trkpt lat="40.459600" lon="-5.270083">
        <ele>1988.0</ele>
        <time>2018-09-02T11:42:40Z</time>
      </trkpt>
      <trkpt lat="40.459667" lon="-5.269917">
        <ele>1988.0</ele>
        <time>2018-09-02T11:42:41Z</time>
      </trkpt>
      <trkpt lat="40.459733" lon="-5.269783">
        <ele>1991.0</ele>
        <time>2018-09-02T11:42:42Z</time>
      </trkpt>
      <trkpt lat="40.459817" lon="-5.269650">
        <ele>1994.0</ele>
        <time>2018-09-02T11:42:43Z</time>
      </trkpt>
      <trkpt lat="40.459900" lon="-5.269550">
        <ele>1995.0</ele>
        <time>2018-09-02T11:42:44Z</time>
      </trkpt>
      <trkpt lat="40.459983" lon="-5.269450">
        <ele>1996.0</ele>
        <time>2018-09-02T11:42:45Z</time>
      </trkpt>
      <trkpt lat="40.460067" lon="-5.269367">
        <ele>1997.0</ele>
        <time>2018-09-02T11:42:46Z</time>
      </trkpt>
      <trkpt lat="40.460150" lon="-5.269283">
        <ele>1998.0</ele>
        <time>2018-09-02T11:42:47Z</time>
      </trkpt>
      <trkpt lat="40.460250" lon="-5.269233">
        <ele>1999.0</ele>
        <time>2018-09-02T11:42:48Z</time>
      </trkpt>
      <trkpt lat="40.460350" lon="-5.269217">
        <ele>1999.0</ele>
        <time>2018-09-02T11:42:49Z</time>
      </trkpt>
      <trkpt lat="40.460433" lon="-5.269217">
        <ele>1998.0</ele>
        <time>2018-09-02T11:42:50Z</time>
      </trkpt>
      <trkpt lat="40.460517" lon="-5.269233">
        <ele>1998.0</ele>
        <time>2018-09-02T11:42:51Z</time>
      </trkpt>
      <trkpt lat="40.460583" lon="-5.269267">
        <ele>1998.0</ele>
        <time>2018-09-02T11:42:52Z</time>
      </trkpt>
      <trkpt lat="40.460650" lon="-5.269333">
        <ele>1998.0</ele>
        <time>2018-09-02T11:42:53Z</time>
      </trkpt>
      <trkpt lat="40.460683" lon="-5.269400">
        <ele>1997.0</ele>
        <time>2018-09-02T11:42:54Z</time>
      </trkpt>
      <trkpt lat="40.460717" lon="-5.269467">
        <ele>1996.0</ele>
        <time>2018-09-02T11:42:55Z</time>
      </trkpt>
      <trkpt lat="40.460717" lon="-5.269550">
        <ele>1996.0</ele>
        <time>2018-09-02T11:42:56Z</time>
      </trkpt>
      <trkpt lat="40.460683" lon="-5.269600">
        <ele>1995.0</ele>
        <time>2018-09-02T11:42:57Z</time>
      </trkpt>
      <trkpt lat="40.460617" lon="-5.269633">
        <ele>1995.0</ele>
        <time>2018-09-02T11:42:58Z</time>
      </trkpt>
      <trkpt lat="40.460550" lon="-5.269650">
        <ele>1994.0</ele>
        <time>2018-09-02T11:42:59Z</time>
      </trkpt>
      <trkpt lat="40.460483" lon="-5.269617">
        <ele>1994.0</ele>
        <time>2018-09-02T11:43:00Z</time>
      </trkpt>
      <trkpt lat="40.460417" lon="-5.269550">
        <ele>1993.0</ele>
        <time>2018-09-02T11:43:01Z</time>
      </trkpt>
      <trkpt lat="40.460367" lon="-5.269433">
        <ele>1993.0</ele>
        <time>2018-09-02T11:43:02Z</time>
      </trkpt>
      <trkpt lat="40.460333" lon="-5.269300">
        <ele>1992.0</ele>
        <time>2018-09-02T11:43:03Z</time>
      </trkpt>
      <trkpt lat="40.460333" lon="-5.269150">
        <ele>1990.0</ele>
        <time>2018-09-02T11:43:04Z</time>
      </trkpt>
      <trkpt lat="40.460350" lon="-5.269000">
        <ele>1989.0</ele>
        <time>2018-09-02T11:43:05Z</time>
      </trkpt>
      <trkpt lat="40.460417" lon="-5.268850">
        <ele>1988.0</ele>
        <time>2018-09-02T11:43:06Z</time>
      </trkpt>
      <trkpt lat="40.460500" lon="-5.268717">
        <ele>1987.0</ele>
        <time>2018-09-02T11:43:07Z</time>
      </trkpt>
      <trkpt lat="40.460583" lon="-5.268617">
        <ele>1986.0</ele>
        <time>2018-09-02T11:43:08Z</time>
      </trkpt>
      <trkpt lat="40.460667" lon="-5.268550">
        <ele>1987.0</ele>
        <time>2018-09-02T11:43:09Z</time>
      </trkpt>
      <trkpt lat="40.460750" lon="-5.268483">
        <ele>1987.0</ele>
        <time>2018-09-02T11:43:10Z</time>
      </trkpt>
      <trkpt lat="40.460833" lon="-5.268433">
        <ele>1988.0</ele>
        <time>2018-09-02T11:43:11Z</time>
      </trkpt>
      <trkpt lat="40.460917" lon="-5.268383">
        <ele>1988.0</ele>
        <time>2018-09-02T11:43:12Z</time>
      </trkpt>
      <trkpt lat="40.461017" lon="-5.268333">
        <ele>1988.0</ele>
        <time>2018-09-02T11:43:13Z</time>
      </trkpt>
      <trkpt lat="40.461117" lon="-5.268300">
        <ele>1988.0</ele>
        <time>2018-09-02T11:43:14Z</time>
      </trkpt>
      <trkpt lat="40.461200" lon="-5.268283">
        <ele>1987.0</ele>
        <time>2018-09-02T11:43:15Z</time>
      </trkpt>
      <trkpt lat="40.461300" lon="-5.268250">
        <ele>1988.0</ele>
        <time>2018-09-02T11:43:16Z</time>
      </trkpt>
      <trkpt lat="40.461400" lon="-5.268250">
        <ele>1988.0</ele>
        <time>2018-09-02T11:43:17Z</time>
      </trkpt>
      <trkpt lat="40.461483" lon="-5.268250">
        <ele>1988.0</ele>
        <time>2018-09-02T11:43:18Z</time>
      </trkpt>
      <trkpt lat="40.461567" lon="-5.268250">
        <ele>1988.0</ele>
        <time>2018-09-02T11:43:19Z</time>
      </trkpt>
      <trkpt lat="40.461650" lon="-5.268250">
        <ele>1988.0</ele>
        <time>2018-09-02T11:43:20Z</time>
      </trkpt>
      <trkpt lat="40.461717" lon="-5.268267">
        <ele>1989.0</ele>
        <time>2018-09-02T11:43:21Z</time>
      </trkpt>
      <trkpt lat="40.461783" lon="-5.268283">
        <ele>1989.0</ele>
        <time>2018-09-02T11:43:22Z</time>
      </trkpt>
      <trkpt lat="40.461850" lon="-5.268317">
        <ele>1988.0</ele>
        <time>2018-09-02T11:43:23Z</time>
      </trkpt>
      <trkpt lat="40.461917" lon="-5.268350">
        <ele>1987.0</ele>
        <time>2018-09-02T11:43:24Z</time>
      </trkpt>
      <trkpt lat="40.461983" lon="-5.268417">
        <ele>1986.0</ele>
        <time>2018-09-02T11:43:25Z</time>
      </trkpt>
      <trkpt lat="40.462017" lon="-5.268467">
        <ele>1986.0</ele>
        <time>2018-09-02T11:43:26Z</time>
      </trkpt>
      <trkpt lat="40.462033" lon="-5.268533">
        <ele>1987.0</ele>
        <time>2018-09-02T11:43:27Z</time>
      </trkpt>
      <trkpt lat="40.462033" lon="-5.268583">
        <ele>1988.0</ele>
        <time>2018-09-02T11:43:28Z</time>
      </trkpt>
      <trkpt lat="40.462050" lon="-5.268633">
        <ele>1989.0</ele>
        <time>2018-09-02T11:43:29Z</time>
      </trkpt>
      <trkpt lat="40.462067" lon="-5.268683">
        <ele>1989.0</ele>
        <time>2018-09-02T11:43:30Z</time>
      </trkpt>
      <trkpt lat="40.462067" lon="-5.268750">
        <ele>1989.0</ele>
        <time>2018-09-02T11:43:31Z</time>
      </trkpt>
      <trkpt lat="40.462067" lon="-5.268817">
        <ele>1989.0</ele>
        <time>2018-09-02T11:43:32Z</time>
      </trkpt>
      <trkpt lat="40.462050" lon="-5.268867">
        <ele>1989.0</ele>
        <time>2018-09-02T11:43:33Z</time>
      </trkpt>
      <trkpt lat="40.462033" lon="-5.268917">
        <ele>1990.0</ele>
        <time>2018-09-02T11:43:34Z</time>
      </trkpt>
      <trkpt lat="40.462017" lon="-5.268967">
        <ele>1991.0</ele>
        <time>2018-09-02T11:43:35Z</time>
      </trkpt>
      <trkpt lat="40.462000" lon="-5.269017">
        <ele>1992.0</ele>
        <time>2018-09-02T11:43:36Z</time>
      </trkpt>
      <trkpt lat="40.461983" lon="-5.269083">
        <ele>1992.0</ele>
        <time>2018-09-02T11:43:37Z</time>
      </trkpt>
      <trkpt lat="40.461967" lon="-5.269150">
        <ele>1992.0</ele>
        <time>2018-09-02T11:43:38Z</time>
      </trkpt>
      <trkpt lat="40.461950" lon="-5.269217">
        <ele>1992.0</ele>
        <time>2018-09-02T11:43:39Z</time>
      </trkpt>
      <trkpt lat="40.461917" lon="-5.269267">
        <ele>1993.0</ele>
        <time>2018-09-02T11:43:40Z</time>
      </trkpt>
      <trkpt lat="40.461883" lon="-5.269317">
        <ele>1995.0</ele>
        <time>2018-09-02T11:43:41Z</time>
      </trkpt>
      <trkpt lat="40.461850" lon="-5.269367">
        <ele>1996.0</ele>
        <time>2018-09-02T11:43:42Z</time>
      </trkpt>
      <trkpt lat="40.461817" lon="-5.269417">
        <ele>1996.0</ele>
        <time>2018-09-02T11:43:43Z</time>
      </trkpt>
      <trkpt lat="40.461800" lon="-5.269450">
        <ele>1996.0</ele>
        <time>2018-09-02T11:43:44Z</time>
      </trkpt>
      <trkpt lat="40.461767" lon="-5.269500">
        <ele>1996.0</ele>
        <time>2018-09-02T11:43:45Z</time>
      </trkpt>
      <trkpt lat="40.461717" lon="-5.269550">
        <ele>1996.0</ele>
        <time>2018-09-02T11:43:46Z</time>
      </trkpt>
      <trkpt lat="40.461700" lon="-5.269617">
        <ele>1994.0</ele>
        <time>2018-09-02T11:43:47Z</time>
      </trkpt>
      <trkpt lat="40.461683" lon="-5.269667">
        <ele>1993.0</ele>
        <time>2018-09-02T11:43:48Z</time>
      </trkpt>
      <trkpt lat="40.461650" lon="-5.269733">
        <ele>1992.0</ele>
        <time>2018-09-02T11:43:49Z</time>
      </trkpt>
      <trkpt lat="40.461617" lon="-5.269800">
        <ele>1991.0</ele>
        <time>2018-09-02T11:43:50Z</time>
      </trkpt>
      <trkpt lat="40.461567" lon="-5.269850">
        <ele>1988.0</ele>
        <time>2018-09-02T11:43:51Z</time>
      </trkpt>
      <trkpt lat="40.461500" lon="-5.269867">
        <ele>1987.0</ele>
        <time>2018-09-02T11:43:52Z</time>
      </trkpt>
      <trkpt lat="40.461417" lon="-5.269833">
        <ele>1986.0</ele>
        <time>2018-09-02T11:43:53Z</time>
      </trkpt>
      <trkpt lat="40.461350" lon="-5.269767">
        <ele>1985.0</ele>
        <time>2018-09-02T11:43:54Z</time>
      </trkpt>
      <trkpt lat="40.461317" lon="-5.269650">
        <ele>1984.0</ele>
        <time>2018-09-02T11:43:55Z</time>
      </trkpt>
      <trkpt lat="40.461300" lon="-5.269517">
        <ele>1984.0</ele>
        <time>2018-09-02T11:43:56Z</time>
      </trkpt>
      <trkpt lat="40.461300" lon="-5.269383">
        <ele>1983.0</ele>
        <time>2018-09-02T11:43:57Z</time>
      </trkpt>
      <trkpt lat="40.461317" lon="-5.269250">
        <ele>1983.0</ele>
        <time>2018-09-02T11:43:58Z</time>
      </trkpt>
      <trkpt lat="40.461350" lon="-5.269133">
        <ele>1983.0</ele>
        <time>2018-09-02T11:43:59Z</time>
      </trkpt>
      <trkpt lat="40.461417" lon="-5.269000">
        <ele>1982.0</ele>
        <time>2018-09-02T11:44:00Z</time>
      </trkpt>
      <trkpt lat="40.461500" lon="-5.268867">
        <ele>1981.0</ele>
        <time>2018-09-02T11:44:01Z</time>
      </trkpt>
      <trkpt lat="40.461583" lon="-5.268750">
        <ele>1980.0</ele>
        <time>2018-09-02T11:44:02Z</time>
      </trkpt>
      <trkpt lat="40.461667" lon="-5.268633">
        <ele>1980.0</ele>
        <time>2018-09-02T11:44:03Z</time>
      </trkpt>
      <trkpt lat="40.461733" lon="-5.268517">
        <ele>1981.0</ele>
        <time>2018-09-02T11:44:04Z</time>
      </trkpt>
      <trkpt lat="40.461817" lon="-5.268417">
        <ele>1981.0</ele>
        <time>2018-09-02T11:44:05Z</time>
      </trkpt>
      <trkpt lat="40.461900" lon="-5.268317">
        <ele>1981.0</ele>
        <time>2018-09-02T11:44:06Z</time>
      </trkpt>
      <trkpt lat="40.461983" lon="-5.268200">
        <ele>1981.0</ele>
        <time>2018-09-02T11:44:07Z</time>
      </trkpt>
      <trkpt lat="40.462067" lon="-5.268117">
        <ele>1981.0</ele>
        <time>2018-09-02T11:44:08Z</time>
      </trkpt>
      <trkpt lat="40.462150" lon="-5.268017">
        <ele>1982.0</ele>
        <time>2018-09-02T11:44:09Z</time>
      </trkpt>
      <trkpt lat="40.462233" lon="-5.267933">
        <ele>1982.0</ele>
        <time>2018-09-02T11:44:10Z</time>
      </trkpt>
      <trkpt lat="40.462317" lon="-5.267833">
        <ele>1982.0</ele>
        <time>2018-09-02T11:44:11Z</time>
      </trkpt>
      <trkpt lat="40.462383" lon="-5.267717">
        <ele>1981.0</ele>
        <time>2018-09-02T11:44:12Z</time>
      </trkpt>
      <trkpt lat="40.462433" lon="-5.267567">
        <ele>1981.0</ele>
        <time>2018-09-02T11:44:13Z</time>
      </trkpt>
      <trkpt lat="40.462467" lon="-5.267433">
        <ele>1981.0</ele>
        <time>2018-09-02T11:44:14Z</time>
      </trkpt>
      <trkpt lat="40.462450" lon="-5.267300">
        <ele>1982.0</ele>
        <time>2018-09-02T11:44:15Z</time>
      </trkpt>
      <trkpt lat="40.462417" lon="-5.267183">
        <ele>1983.0</ele>
        <time>2018-09-02T11:44:16Z</time>
      </trkpt>
      <trkpt lat="40.462367" lon="-5.267083">
        <ele>1983.0</ele>
        <time>2018-09-02T11:44:17Z</time>
      </trkpt>
      <trkpt lat="40.462300" lon="-5.266983">
        <ele>1984.0</ele>
        <time>2018-09-02T11:44:18Z</time>
      </trkpt>
      <trkpt lat="40.462217" lon="-5.266917">
        <ele>1985.0</ele>
        <time>2018-09-02T11:44:19Z</time>
      </trkpt>
      <trkpt lat="40.462150" lon="-5.266867">
        <ele>1986.0</ele>
        <time>2018-09-02T11:44:20Z</time>
      </trkpt>
      <trkpt lat="40.462083" lon="-5.266833">
        <ele>1987.0</ele>
        <time>2018-09-02T11:44:21Z</time>
      </trkpt>
      <trkpt lat="40.462000" lon="-5.266800">
        <ele>1988.0</ele>
        <time>2018-09-02T11:44:22Z</time>
      </trkpt>
      <trkpt lat="40.461917" lon="-5.266817">
        <ele>1989.0</ele>
        <time>2018-09-02T11:44:23Z</time>
      </trkpt>
      <trkpt lat="40.461867" lon="-5.266833">
        <ele>1990.0</ele>
        <time>2018-09-02T11:44:24Z</time>
      </trkpt>
      <trkpt lat="40.461817" lon="-5.266883">
        <ele>1990.0</ele>
        <time>2018-09-02T11:44:25Z</time>
      </trkpt>
      <trkpt lat="40.461800" lon="-5.266933">
        <ele>1991.0</ele>
        <time>2018-09-02T11:44:26Z</time>
      </trkpt>
      <trkpt lat="40.461767" lon="-5.266967">
        <ele>1992.0</ele>
        <time>2018-09-02T11:44:27Z</time>
      </trkpt>
      <trkpt lat="40.461717" lon="-5.267017">
        <ele>1993.0</ele>
        <time>2018-09-02T11:44:28Z</time>
      </trkpt>
      <trkpt lat="40.461683" lon="-5.267067">
        <ele>1993.0</ele>
        <time>2018-09-02T11:44:29Z</time>
      </trkpt>
      <trkpt lat="40.461650" lon="-5.267117">
        <ele>1993.0</ele>
        <time>2018-09-02T11:44:30Z</time>
      </trkpt>
      <trkpt lat="40.461650" lon="-5.267200">
        <ele>1991.0</ele>
        <time>2018-09-02T11:44:31Z</time>
      </trkpt>
      <trkpt lat="40.461700" lon="-5.267300">
        <ele>1990.0</ele>
        <time>2018-09-02T11:44:32Z</time>
      </trkpt>
      <trkpt lat="40.461767" lon="-5.267367">
        <ele>1988.0</ele>
        <time>2018-09-02T11:44:33Z</time>
      </trkpt>
      <trkpt lat="40.461850" lon="-5.267400">
        <ele>1987.0</ele>
        <time>2018-09-02T11:44:34Z</time>
      </trkpt>
      <trkpt lat="40.461950" lon="-5.267383">
        <ele>1986.0</ele>
        <time>2018-09-02T11:44:35Z</time>
      </trkpt>
      <trkpt lat="40.462050" lon="-5.267350">
        <ele>1985.0</ele>
        <time>2018-09-02T11:44:36Z</time>
      </trkpt>
      <trkpt lat="40.462150" lon="-5.267300">
        <ele>1984.0</ele>
        <time>2018-09-02T11:44:37Z</time>
      </trkpt>
      <trkpt lat="40.462250" lon="-5.267217">
        <ele>1983.0</ele>
        <time>2018-09-02T11:44:38Z</time>
      </trkpt>
      <trkpt lat="40.462333" lon="-5.267100">
        <ele>1982.0</ele>
        <time>2018-09-02T11:44:39Z</time>
      </trkpt>
      <trkpt lat="40.462400" lon="-5.266983">
        <ele>1981.0</ele>
        <time>2018-09-02T11:44:40Z</time>
      </trkpt>
      <trkpt lat="40.462467" lon="-5.266867">
        <ele>1980.0</ele>
        <time>2018-09-02T11:44:41Z</time>
      </trkpt>
      <trkpt lat="40.462517" lon="-5.266733">
        <ele>1980.0</ele>
        <time>2018-09-02T11:44:42Z</time>
      </trkpt>
      <trkpt lat="40.462567" lon="-5.266617">
        <ele>1980.0</ele>
        <time>2018-09-02T11:44:43Z</time>
      </trkpt>
      <trkpt lat="40.462633" lon="-5.266483">
        <ele>1979.0</ele>
        <time>2018-09-02T11:44:44Z</time>
      </trkpt>
      <trkpt lat="40.462717" lon="-5.266367">
        <ele>1978.0</ele>
        <time>2018-09-02T11:44:45Z</time>
      </trkpt>
      <trkpt lat="40.462817" lon="-5.266283">
        <ele>1978.0</ele>
        <time>2018-09-02T11:44:46Z</time>
      </trkpt>
      <trkpt lat="40.462917" lon="-5.266200">
        <ele>1979.0</ele>
        <time>2018-09-02T11:44:47Z</time>
      </trkpt>
      <trkpt lat="40.463000" lon="-5.266133">
        <ele>1981.0</ele>
        <time>2018-09-02T11:44:48Z</time>
      </trkpt>
      <trkpt lat="40.463083" lon="-5.266067">
        <ele>1983.0</ele>
        <time>2018-09-02T11:44:49Z</time>
      </trkpt>
      <trkpt lat="40.463150" lon="-5.265983">
        <ele>1984.0</ele>
        <time>2018-09-02T11:44:50Z</time>
      </trkpt>
      <trkpt lat="40.463217" lon="-5.265900">
        <ele>1984.0</ele>
        <time>2018-09-02T11:44:51Z</time>
      </trkpt>
      <trkpt lat="40.463283" lon="-5.265800">
        <ele>1984.0</ele>
        <time>2018-09-02T11:44:52Z</time>
      </trkpt>
      <trkpt lat="40.463317" lon="-5.265667">
        <ele>1981.0</ele>
        <time>2018-09-02T11:44:53Z</time>
      </trkpt>
      <trkpt lat="40.463333" lon="-5.265500">
        <ele>1979.0</ele>
        <time>2018-09-02T11:44:54Z</time>
      </trkpt>
      <trkpt lat="40.463300" lon="-5.265350">
        <ele>1977.0</ele>
        <time>2018-09-02T11:44:55Z</time>
      </trkpt>
      <trkpt lat="40.463233" lon="-5.265217">
        <ele>1975.0</ele>
        <time>2018-09-02T11:44:56Z</time>
      </trkpt>
      <trkpt lat="40.463150" lon="-5.265133">
        <ele>1974.0</ele>
        <time>2018-09-02T11:44:57Z</time>
      </trkpt>
      <trkpt lat="40.463050" lon="-5.265117">
        <ele>1972.0</ele>
        <time>2018-09-02T11:44:58Z</time>
      </trkpt>
      <trkpt lat="40.462967" lon="-5.265133">
        <ele>1970.0</ele>
        <time>2018-09-02T11:44:59Z</time>
      </trkpt>
      <trkpt lat="40.462900" lon="-5.265183">
        <ele>1969.0</ele>
        <time>2018-09-02T11:45:00Z</time>
      </trkpt>
      <trkpt lat="40.462867" lon="-5.265267">
        <ele>1967.0</ele>
        <time>2018-09-02T11:45:01Z</time>
      </trkpt>
      <trkpt lat="40.462867" lon="-5.265333">
        <ele>1966.0</ele>
        <time>2018-09-02T11:45:02Z</time>
      </trkpt>
      <trkpt lat="40.462850" lon="-5.265400">
        <ele>1966.0</ele>
        <time>2018-09-02T11:45:03Z</time>
      </trkpt>
      <trkpt lat="40.462833" lon="-5.265467">
        <ele>1969.0</ele>
        <time>2018-09-02T11:45:04Z</time>
      </trkpt>
      <trkpt lat="40.462800" lon="-5.265550">
        <ele>1968.0</ele>
        <time>2018-09-02T11:45:05Z</time>
      </trkpt>
      <trkpt lat="40.462800" lon="-5.265617">
        <ele>1968.0</ele>
        <time>2018-09-02T11:45:06Z</time>
      </trkpt>
      <trkpt lat="40.462800" lon="-5.265700">
        <ele>1967.0</ele>
        <time>2018-09-02T11:45:07Z</time>
      </trkpt>
      <trkpt lat="40.462783" lon="-5.265783">
        <ele>1966.0</ele>
        <time>2018-09-02T11:45:08Z</time>
      </trkpt>
      <trkpt lat="40.462783" lon="-5.265850">
        <ele>1966.0</ele>
        <time>2018-09-02T11:45:09Z</time>
      </trkpt>
      <trkpt lat="40.462767" lon="-5.265900">
        <ele>1966.0</ele>
        <time>2018-09-02T11:45:10Z</time>
      </trkpt>
      <trkpt lat="40.462767" lon="-5.265950">
        <ele>1966.0</ele>
        <time>2018-09-02T11:45:11Z</time>
      </trkpt>
      <trkpt lat="40.462750" lon="-5.266017">
        <ele>1966.0</ele>
        <time>2018-09-02T11:45:12Z</time>
      </trkpt>
      <trkpt lat="40.462733" lon="-5.266067">
        <ele>1965.0</ele>
        <time>2018-09-02T11:45:13Z</time>
      </trkpt>
      <trkpt lat="40.462700" lon="-5.266133">
        <ele>1964.0</ele>
        <time>2018-09-02T11:45:14Z</time>
      </trkpt>
      <trkpt lat="40.462667" lon="-5.266200">
        <ele>1963.0</ele>
        <time>2018-09-02T11:45:15Z</time>
      </trkpt>
      <trkpt lat="40.462650" lon="-5.266267">
        <ele>1962.0</ele>
        <time>2018-09-02T11:45:16Z</time>
      </trkpt>
      <trkpt lat="40.462617" lon="-5.266317">
        <ele>1961.0</ele>
        <time>2018-09-02T11:45:17Z</time>
      </trkpt>
      <trkpt lat="40.462583" lon="-5.266367">
        <ele>1961.0</ele>
        <time>2018-09-02T11:45:18Z</time>
      </trkpt>
      <trkpt lat="40.462550" lon="-5.266417">
        <ele>1961.0</ele>
        <time>2018-09-02T11:45:19Z</time>
      </trkpt>
      <trkpt lat="40.462517" lon="-5.266467">
        <ele>1960.0</ele>
        <time>2018-09-02T11:45:20Z</time>
      </trkpt>
      <trkpt lat="40.462500" lon="-5.266533">
        <ele>1959.0</ele>
        <time>2018-09-02T11:45:21Z</time>
      </trkpt>
      <trkpt lat="40.462483" lon="-5.266600">
        <ele>1958.0</ele>
        <time>2018-09-02T11:45:22Z</time>
      </trkpt>
      <trkpt lat="40.462450" lon="-5.266667">
        <ele>1957.0</ele>
        <time>2018-09-02T11:45:23Z</time>
      </trkpt>
      <trkpt lat="40.462433" lon="-5.266733">
        <ele>1957.0</ele>
        <time>2018-09-02T11:45:24Z</time>
      </trkpt>
      <trkpt lat="40.462417" lon="-5.266800">
        <ele>1955.0</ele>
        <time>2018-09-02T11:45:25Z</time>
      </trkpt>
      <trkpt lat="40.462417" lon="-5.266867">
        <ele>1953.0</ele>
        <time>2018-09-02T11:45:26Z</time>
      </trkpt>
      <trkpt lat="40.462400" lon="-5.266933">
        <ele>1950.0</ele>
        <time>2018-09-02T11:45:27Z</time>
      </trkpt>
      <trkpt lat="40.462400" lon="-5.267017">
        <ele>1948.0</ele>
        <time>2018-09-02T11:45:28Z</time>
      </trkpt>
      <trkpt lat="40.462383" lon="-5.267117">
        <ele>1946.0</ele>
        <time>2018-09-02T11:45:29Z</time>
      </trkpt>
      <trkpt lat="40.462367" lon="-5.267183">
        <ele>1945.0</ele>
        <time>2018-09-02T11:45:30Z</time>
      </trkpt>
      <trkpt lat="40.462350" lon="-5.267267">
        <ele>1944.0</ele>
        <time>2018-09-02T11:45:31Z</time>
      </trkpt>
      <trkpt lat="40.462333" lon="-5.267333">
        <ele>1943.0</ele>
        <time>2018-09-02T11:45:32Z</time>
      </trkpt>
      <trkpt lat="40.462317" lon="-5.267417">
        <ele>1942.0</ele>
        <time>2018-09-02T11:45:33Z</time>
      </trkpt>
      <trkpt lat="40.462300" lon="-5.267500">
        <ele>1940.0</ele>
        <time>2018-09-02T11:45:34Z</time>
      </trkpt>
      <trkpt lat="40.462300" lon="-5.267567">
        <ele>1938.0</ele>
        <time>2018-09-02T11:45:35Z</time>
      </trkpt>
      <trkpt lat="40.462300" lon="-5.267633">
        <ele>1938.0</ele>
        <time>2018-09-02T11:45:36Z</time>
      </trkpt>
      <trkpt lat="40.462317" lon="-5.267717">
        <ele>1937.0</ele>
        <time>2018-09-02T11:45:37Z</time>
      </trkpt>
      <trkpt lat="40.462350" lon="-5.267800">
        <ele>1935.0</ele>
        <time>2018-09-02T11:45:38Z</time>
      </trkpt>
      <trkpt lat="40.462400" lon="-5.267883">
        <ele>1931.0</ele>
        <time>2018-09-02T11:45:39Z</time>
      </trkpt>
      <trkpt lat="40.462467" lon="-5.267967">
        <ele>1928.0</ele>
        <time>2018-09-02T11:45:40Z</time>
      </trkpt>
      <trkpt lat="40.462550" lon="-5.268000">
        <ele>1925.0</ele>
        <time>2018-09-02T11:45:41Z</time>
      </trkpt>
      <trkpt lat="40.462633" lon="-5.268000">
        <ele>1922.0</ele>
        <time>2018-09-02T11:45:42Z</time>
      </trkpt>
      <trkpt lat="40.462733" lon="-5.267950">
        <ele>1919.0</ele>
        <time>2018-09-02T11:45:43Z</time>
      </trkpt>
      <trkpt lat="40.462833" lon="-5.267917">
        <ele>1917.0</ele>
        <time>2018-09-02T11:45:44Z</time>
      </trkpt>
      <trkpt lat="40.462917" lon="-5.267867">
        <ele>1914.0</ele>
        <time>2018-09-02T11:45:45Z</time>
      </trkpt>
      <trkpt lat="40.463000" lon="-5.267833">
        <ele>1916.0</ele>
        <time>2018-09-02T11:45:46Z</time>
      </trkpt>
      <trkpt lat="40.463067" lon="-5.267767">
        <ele>1914.0</ele>
        <time>2018-09-02T11:45:47Z</time>
      </trkpt>
      <trkpt lat="40.463167" lon="-5.267717">
        <ele>1912.0</ele>
        <time>2018-09-02T11:45:48Z</time>
      </trkpt>
      <trkpt lat="40.463250" lon="-5.267650">
        <ele>1910.0</ele>
        <time>2018-09-02T11:45:49Z</time>
      </trkpt>
      <trkpt lat="40.463350" lon="-5.267600">
        <ele>1908.0</ele>
        <time>2018-09-02T11:45:50Z</time>
      </trkpt>
      <trkpt lat="40.463433" lon="-5.267567">
        <ele>1906.0</ele>
        <time>2018-09-02T11:45:51Z</time>
      </trkpt>
      <trkpt lat="40.463500" lon="-5.267533">
        <ele>1904.0</ele>
        <time>2018-09-02T11:45:52Z</time>
      </trkpt>
      <trkpt lat="40.463583" lon="-5.267517">
        <ele>1903.0</ele>
        <time>2018-09-02T11:45:53Z</time>
      </trkpt>
      <trkpt lat="40.463667" lon="-5.267500">
        <ele>1901.0</ele>
        <time>2018-09-02T11:45:54Z</time>
      </trkpt>
      <trkpt lat="40.463750" lon="-5.267467">
        <ele>1900.0</ele>
        <time>2018-09-02T11:45:55Z</time>
      </trkpt>
      <trkpt lat="40.463833" lon="-5.267450">
        <ele>1897.0</ele>
        <time>2018-09-02T11:45:56Z</time>
      </trkpt>
      <trkpt lat="40.463917" lon="-5.267433">
        <ele>1895.0</ele>
        <time>2018-09-02T11:45:57Z</time>
      </trkpt>
      <trkpt lat="40.464000" lon="-5.267417">
        <ele>1894.0</ele>
        <time>2018-09-02T11:45:58Z</time>
      </trkpt>
      <trkpt lat="40.464067" lon="-5.267417">
        <ele>1891.0</ele>
        <time>2018-09-02T11:45:59Z</time>
      </trkpt>
      <trkpt lat="40.464150" lon="-5.267417">
        <ele>1889.0</ele>
        <time>2018-09-02T11:46:00Z</time>
      </trkpt>
      <trkpt lat="40.464250" lon="-5.267400">
        <ele>1886.0</ele>
        <time>2018-09-02T11:46:01Z</time>
      </trkpt>
      <trkpt lat="40.464333" lon="-5.267400">
        <ele>1883.0</ele>
        <time>2018-09-02T11:46:02Z</time>
      </trkpt>
      <trkpt lat="40.464417" lon="-5.267400">
        <ele>1880.0</ele>
        <time>2018-09-02T11:46:03Z</time>
      </trkpt>
      <trkpt lat="40.464517" lon="-5.267400">
        <ele>1878.0</ele>
        <time>2018-09-02T11:46:04Z</time>
      </trkpt>
      <trkpt lat="40.464583" lon="-5.267417">
        <ele>1876.0</ele>
        <time>2018-09-02T11:46:05Z</time>
      </trkpt>
      <trkpt lat="40.464667" lon="-5.267417">
        <ele>1874.0</ele>
        <time>2018-09-02T11:46:06Z</time>
      </trkpt>
      <trkpt lat="40.464750" lon="-5.267400">
        <ele>1871.0</ele>
        <time>2018-09-02T11:46:07Z</time>
      </trkpt>
      <trkpt lat="40.464833" lon="-5.267400">
        <ele>1874.0</ele>
        <time>2018-09-02T11:46:08Z</time>
      </trkpt>
      <trkpt lat="40.464933" lon="-5.267400">
        <ele>1872.0</ele>
        <time>2018-09-02T11:46:09Z</time>
      </trkpt>
      <trkpt lat="40.465033" lon="-5.267400">
        <ele>1870.0</ele>
        <time>2018-09-02T11:46:10Z</time>
      </trkpt>
      <trkpt lat="40.465133" lon="-5.267383">
        <ele>1869.0</ele>
        <time>2018-09-02T11:46:11Z</time>
      </trkpt>
      <trkpt lat="40.465217" lon="-5.267383">
        <ele>1867.0</ele>
        <time>2018-09-02T11:46:12Z</time>
      </trkpt>
      <trkpt lat="40.465300" lon="-5.267383">
        <ele>1866.0</ele>
        <time>2018-09-02T11:46:13Z</time>
      </trkpt>
      <trkpt lat="40.465383" lon="-5.267383">
        <ele>1864.0</ele>
        <time>2018-09-02T11:46:14Z</time>
      </trkpt>
      <trkpt lat="40.465467" lon="-5.267383">
        <ele>1863.0</ele>
        <time>2018-09-02T11:46:15Z</time>
      </trkpt>
      <trkpt lat="40.465567" lon="-5.267383">
        <ele>1860.0</ele>
        <time>2018-09-02T11:46:16Z</time>
      </trkpt>
      <trkpt lat="40.465683" lon="-5.267383">
        <ele>1858.0</ele>
        <time>2018-09-02T11:46:17Z</time>
      </trkpt>
      <trkpt lat="40.465783" lon="-5.267383">
        <ele>1856.0</ele>
        <time>2018-09-02T11:46:18Z</time>
      </trkpt>
      <trkpt lat="40.465883" lon="-5.267400">
        <ele>1854.0</ele>
        <time>2018-09-02T11:46:19Z</time>
      </trkpt>
      <trkpt lat="40.465967" lon="-5.267400">
        <ele>1852.0</ele>
        <time>2018-09-02T11:46:20Z</time>
      </trkpt>
      <trkpt lat="40.466067" lon="-5.267417">
        <ele>1850.0</ele>
        <time>2018-09-02T11:46:21Z</time>
      </trkpt>
      <trkpt lat="40.466167" lon="-5.267433">
        <ele>1848.0</ele>
        <time>2018-09-02T11:46:22Z</time>
      </trkpt>
      <trkpt lat="40.466267" lon="-5.267433">
        <ele>1845.0</ele>
        <time>2018-09-02T11:46:23Z</time>
      </trkpt>
      <trkpt lat="40.466367" lon="-5.267433">
        <ele>1842.0</ele>
        <time>2018-09-02T11:46:24Z</time>
      </trkpt>
      <trkpt lat="40.466467" lon="-5.267433">
        <ele>1840.0</ele>
        <time>2018-09-02T11:46:25Z</time>
      </trkpt>
      <trkpt lat="40.466550" lon="-5.267433">
        <ele>1838.0</ele>
        <time>2018-09-02T11:46:26Z</time>
      </trkpt>
      <trkpt lat="40.466650" lon="-5.267433">
        <ele>1837.0</ele>
        <time>2018-09-02T11:46:27Z</time>
      </trkpt>
      <trkpt lat="40.466750" lon="-5.267450">
        <ele>1840.0</ele>
        <time>2018-09-02T11:46:28Z</time>
      </trkpt>
      <trkpt lat="40.466850" lon="-5.267450">
        <ele>1840.0</ele>
        <time>2018-09-02T11:46:29Z</time>
      </trkpt>
      <trkpt lat="40.466933" lon="-5.267450">
        <ele>1838.0</ele>
        <time>2018-09-02T11:46:30Z</time>
      </trkpt>
      <trkpt lat="40.467033" lon="-5.267467">
        <ele>1837.0</ele>
        <time>2018-09-02T11:46:31Z</time>
      </trkpt>
      <trkpt lat="40.467117" lon="-5.267483">
        <ele>1835.0</ele>
        <time>2018-09-02T11:46:32Z</time>
      </trkpt>
      <trkpt lat="40.467217" lon="-5.267500">
        <ele>1833.0</ele>
        <time>2018-09-02T11:46:33Z</time>
      </trkpt>
      <trkpt lat="40.467317" lon="-5.267500">
        <ele>1830.0</ele>
        <time>2018-09-02T11:46:34Z</time>
      </trkpt>
      <trkpt lat="40.467400" lon="-5.267533">
        <ele>1826.0</ele>
        <time>2018-09-02T11:46:35Z</time>
      </trkpt>
      <trkpt lat="40.467500" lon="-5.267567">
        <ele>1821.0</ele>
        <time>2018-09-02T11:46:36Z</time>
      </trkpt>
      <trkpt lat="40.467600" lon="-5.267600">
        <ele>1817.0</ele>
        <time>2018-09-02T11:46:37Z</time>
      </trkpt>
      <trkpt lat="40.467700" lon="-5.267617">
        <ele>1813.0</ele>
        <time>2018-09-02T11:46:38Z</time>
      </trkpt>
      <trkpt lat="40.467817" lon="-5.267650">
        <ele>1808.0</ele>
        <time>2018-09-02T11:46:39Z</time>
      </trkpt>
      <trkpt lat="40.467933" lon="-5.267667">
        <ele>1805.0</ele>
        <time>2018-09-02T11:46:40Z</time>
      </trkpt>
      <trkpt lat="40.468033" lon="-5.267683">
        <ele>1801.0</ele>
        <time>2018-09-02T11:46:41Z</time>
      </trkpt>
      <trkpt lat="40.468117" lon="-5.267717">
        <ele>1798.0</ele>
        <time>2018-09-02T11:46:42Z</time>
      </trkpt>
      <trkpt lat="40.468217" lon="-5.267733">
        <ele>1794.0</ele>
        <time>2018-09-02T11:46:43Z</time>
      </trkpt>
      <trkpt lat="40.468317" lon="-5.267750">
        <ele>1791.0</ele>
        <time>2018-09-02T11:46:44Z</time>
      </trkpt>
      <trkpt lat="40.468417" lon="-5.267767">
        <ele>1788.0</ele>
        <time>2018-09-02T11:46:45Z</time>
      </trkpt>
      <trkpt lat="40.468500" lon="-5.267767">
        <ele>1784.0</ele>
        <time>2018-09-02T11:46:46Z</time>
      </trkpt>
      <trkpt lat="40.468583" lon="-5.267767">
        <ele>1781.0</ele>
        <time>2018-09-02T11:46:47Z</time>
      </trkpt>
      <trkpt lat="40.468683" lon="-5.267783">
        <ele>1787.0</ele>
        <time>2018-09-02T11:46:48Z</time>
      </trkpt>
      <trkpt lat="40.468783" lon="-5.267800">
        <ele>1784.0</ele>
        <time>2018-09-02T11:46:49Z</time>
      </trkpt>
      <trkpt lat="40.468883" lon="-5.267817">
        <ele>1780.0</ele>
        <time>2018-09-02T11:46:50Z</time>
      </trkpt>
      <trkpt lat="40.468983" lon="-5.267833">
        <ele>1777.0</ele>
        <time>2018-09-02T11:46:51Z</time>
      </trkpt>
      <trkpt lat="40.469083" lon="-5.267850">
        <ele>1775.0</ele>
        <time>2018-09-02T11:46:52Z</time>
      </trkpt>
      <trkpt lat="40.469183" lon="-5.267867">
        <ele>1774.0</ele>
        <time>2018-09-02T11:46:53Z</time>
      </trkpt>
      <trkpt lat="40.469267" lon="-5.267867">
        <ele>1771.0</ele>
        <time>2018-09-02T11:46:54Z</time>
      </trkpt>
      <trkpt lat="40.469350" lon="-5.267883">
        <ele>1769.0</ele>
        <time>2018-09-02T11:46:55Z</time>
      </trkpt>
      <trkpt lat="40.469450" lon="-5.267900">
        <ele>1767.0</ele>
        <time>2018-09-02T11:46:56Z</time>
      </trkpt>
      <trkpt lat="40.469550" lon="-5.267917">
        <ele>1764.0</ele>
        <time>2018-09-02T11:46:57Z</time>
      </trkpt>
      <trkpt lat="40.469650" lon="-5.267917">
        <ele>1763.0</ele>
        <time>2018-09-02T11:46:58Z</time>
      </trkpt>
      <trkpt lat="40.469750" lon="-5.267917">
        <ele>1761.0</ele>
        <time>2018-09-02T11:46:59Z</time>
      </trkpt>
      <trkpt lat="40.469850" lon="-5.267917">
        <ele>1759.0</ele>
        <time>2018-09-02T11:47:00Z</time>
      </trkpt>
      <trkpt lat="40.469950" lon="-5.267933">
        <ele>1757.0</ele>
        <time>2018-09-02T11:47:01Z</time>
      </trkpt>
      <trkpt lat="40.470050" lon="-5.267950">
        <ele>1756.0</ele>
        <time>2018-09-02T11:47:02Z</time>
      </trkpt>
      <trkpt lat="40.470150" lon="-5.267967">
        <ele>1755.0</ele>
        <time>2018-09-02T11:47:03Z</time>
      </trkpt>
      <trkpt lat="40.470233" lon="-5.267983">
        <ele>1753.0</ele>
        <time>2018-09-02T11:47:04Z</time>
      </trkpt>
      <trkpt lat="40.470333" lon="-5.268000">
        <ele>1751.0</ele>
        <time>2018-09-02T11:47:05Z</time>
      </trkpt>
      <trkpt lat="40.470433" lon="-5.268017">
        <ele>1749.0</ele>
        <time>2018-09-02T11:47:06Z</time>
      </trkpt>
      <trkpt lat="40.470533" lon="-5.268017">
        <ele>1747.0</ele>
        <time>2018-09-02T11:47:07Z</time>
      </trkpt>
      <trkpt lat="40.470617" lon="-5.268033">
        <ele>1746.0</ele>
        <time>2018-09-02T11:47:08Z</time>
      </trkpt>
      <trkpt lat="40.470700" lon="-5.268033">
        <ele>1744.0</ele>
        <time>2018-09-02T11:47:09Z</time>
      </trkpt>
      <trkpt lat="40.470800" lon="-5.268050">
        <ele>1742.0</ele>
        <time>2018-09-02T11:47:10Z</time>
      </trkpt>
      <trkpt lat="40.470883" lon="-5.268033">
        <ele>1741.0</ele>
        <time>2018-09-02T11:47:11Z</time>
      </trkpt>
      <trkpt lat="40.471100" lon="-5.268000">
        <ele>1744.0</ele>
        <time>2018-09-02T11:47:13Z</time>
      </trkpt>
      <trkpt lat="40.471217" lon="-5.268000">
        <ele>1742.0</ele>
        <time>2018-09-02T11:47:14Z</time>
      </trkpt>
      <trkpt lat="40.471317" lon="-5.268000">
        <ele>1741.0</ele>
        <time>2018-09-02T11:47:15Z</time>
      </trkpt>
      <trkpt lat="40.471400" lon="-5.268017">
        <ele>1740.0</ele>
        <time>2018-09-02T11:47:16Z</time>
      </trkpt>
      <trkpt lat="40.471483" lon="-5.268017">
        <ele>1739.0</ele>
        <time>2018-09-02T11:47:17Z</time>
      </trkpt>
      <trkpt lat="40.471583" lon="-5.268017">
        <ele>1737.0</ele>
        <time>2018-09-02T11:47:18Z</time>
      </trkpt>
      <trkpt lat="40.471683" lon="-5.268033">
        <ele>1735.0</ele>
        <time>2018-09-02T11:47:19Z</time>
      </trkpt>
      <trkpt lat="40.471800" lon="-5.268033">
        <ele>1732.0</ele>
        <time>2018-09-02T11:47:20Z</time>
      </trkpt>
      <trkpt lat="40.471917" lon="-5.268050">
        <ele>1730.0</ele>
        <time>2018-09-02T11:47:21Z</time>
      </trkpt>
      <trkpt lat="40.472017" lon="-5.268067">
        <ele>1728.0</ele>
        <time>2018-09-02T11:47:22Z</time>
      </trkpt>
      <trkpt lat="40.472117" lon="-5.268083">
        <ele>1726.0</ele>
        <time>2018-09-02T11:47:23Z</time>
      </trkpt>
      <trkpt lat="40.472217" lon="-5.268100">
        <ele>1724.0</ele>
        <time>2018-09-02T11:47:24Z</time>
      </trkpt>
      <trkpt lat="40.472333" lon="-5.268100">
        <ele>1722.0</ele>
        <time>2018-09-02T11:47:25Z</time>
      </trkpt>
      <trkpt lat="40.472433" lon="-5.268117">
        <ele>1720.0</ele>
        <time>2018-09-02T11:47:26Z</time>
      </trkpt>
      <trkpt lat="40.472550" lon="-5.268133">
        <ele>1718.0</ele>
        <time>2018-09-02T11:47:27Z</time>
      </trkpt>
      <trkpt lat="40.472650" lon="-5.268133">
        <ele>1716.0</ele>
        <time>2018-09-02T11:47:28Z</time>
      </trkpt>
      <trkpt lat="40.472750" lon="-5.268150">
        <ele>1713.0</ele>
        <time>2018-09-02T11:47:29Z</time>
      </trkpt>
      <trkpt lat="40.472850" lon="-5.268167">
        <ele>1711.0</ele>
        <time>2018-09-02T11:47:30Z</time>
      </trkpt>
      <trkpt lat="40.472967" lon="-5.268167">
        <ele>1709.0</ele>
        <time>2018-09-02T11:47:31Z</time>
      </trkpt>
      <trkpt lat="40.473083" lon="-5.268183">
        <ele>1706.0</ele>
        <time>2018-09-02T11:47:32Z</time>
      </trkpt>
      <trkpt lat="40.473200" lon="-5.268217">
        <ele>1704.0</ele>
        <time>2018-09-02T11:47:33Z</time>
      </trkpt>
      <trkpt lat="40.473317" lon="-5.268233">
        <ele>1701.0</ele>
        <time>2018-09-02T11:47:34Z</time>
      </trkpt>
      <trkpt lat="40.473433" lon="-5.268250">
        <ele>1698.0</ele>
        <time>2018-09-02T11:47:35Z</time>
      </trkpt>
      <trkpt lat="40.473550" lon="-5.268267">
        <ele>1694.0</ele>
        <time>2018-09-02T11:47:36Z</time>
      </trkpt>
      <trkpt lat="40.473667" lon="-5.268283">
        <ele>1692.0</ele>
        <time>2018-09-02T11:47:37Z</time>
      </trkpt>
      <trkpt lat="40.473783" lon="-5.268317">
        <ele>1691.0</ele>
        <time>2018-09-02T11:47:38Z</time>
      </trkpt>
      <trkpt lat="40.474017" lon="-5.268350">
        <ele>1685.0</ele>
        <time>2018-09-02T11:47:40Z</time>
      </trkpt>
      <trkpt lat="40.474133" lon="-5.268367">
        <ele>1682.0</ele>
        <time>2018-09-02T11:47:41Z</time>
      </trkpt>
      <trkpt lat="40.474250" lon="-5.268383">
        <ele>1679.0</ele>
        <time>2018-09-02T11:47:42Z</time>
      </trkpt>
      <trkpt lat="40.474467" lon="-5.268467">
        <ele>1674.0</ele>
        <time>2018-09-02T11:47:44Z</time>
      </trkpt>
      <trkpt lat="40.474583" lon="-5.268483">
        <ele>1671.0</ele>
        <time>2018-09-02T11:47:45Z</time>
      </trkpt>
      <trkpt lat="40.474683" lon="-5.268500">
        <ele>1669.0</ele>
        <time>2018-09-02T11:47:46Z</time>
      </trkpt>
      <trkpt lat="40.474800" lon="-5.268500">
        <ele>1666.0</ele>
        <time>2018-09-02T11:47:47Z</time>
      </trkpt>
      <trkpt lat="40.474917" lon="-5.268517">
        <ele>1664.0</ele>
        <time>2018-09-02T11:47:48Z</time>
      </trkpt>
      <trkpt lat="40.475017" lon="-5.268517">
        <ele>1662.0</ele>
        <time>2018-09-02T11:47:49Z</time>
      </trkpt>
      <trkpt lat="40.475117" lon="-5.268533">
        <ele>1661.0</ele>
        <time>2018-09-02T11:47:50Z</time>
      </trkpt>
      <trkpt lat="40.475217" lon="-5.268567">
        <ele>1660.0</ele>
        <time>2018-09-02T11:47:51Z</time>
      </trkpt>
      <trkpt lat="40.475317" lon="-5.268583">
        <ele>1658.0</ele>
        <time>2018-09-02T11:47:52Z</time>
      </trkpt>
      <trkpt lat="40.475417" lon="-5.268600">
        <ele>1657.0</ele>
        <time>2018-09-02T11:47:53Z</time>
      </trkpt>
      <trkpt lat="40.475533" lon="-5.268617">
        <ele>1655.0</ele>
        <time>2018-09-02T11:47:54Z</time>
      </trkpt>
      <trkpt lat="40.475633" lon="-5.268633">
        <ele>1653.0</ele>
        <time>2018-09-02T11:47:55Z</time>
      </trkpt>
      <trkpt lat="40.475733" lon="-5.268667">
        <ele>1652.0</ele>
        <time>2018-09-02T11:47:56Z</time>
      </trkpt>
      <trkpt lat="40.475833" lon="-5.268683">
        <ele>1650.0</ele>
        <time>2018-09-02T11:47:57Z</time>
      </trkpt>
      <trkpt lat="40.475933" lon="-5.268717">
        <ele>1649.0</ele>
        <time>2018-09-02T11:47:58Z</time>
      </trkpt>
      <trkpt lat="40.476033" lon="-5.268733">
        <ele>1648.0</ele>
        <time>2018-09-02T11:47:59Z</time>
      </trkpt>
      <trkpt lat="40.476117" lon="-5.268750">
        <ele>1647.0</ele>
        <time>2018-09-02T11:48:00Z</time>
      </trkpt>
      <trkpt lat="40.476217" lon="-5.268750">
        <ele>1645.0</ele>
        <time>2018-09-02T11:48:01Z</time>
      </trkpt>
      <trkpt lat="40.476317" lon="-5.268767">
        <ele>1651.0</ele>
        <time>2018-09-02T11:48:02Z</time>
      </trkpt>
      <trkpt lat="40.476417" lon="-5.268767">
        <ele>1650.0</ele>
        <time>2018-09-02T11:48:03Z</time>
      </trkpt>
      <trkpt lat="40.476517" lon="-5.268783">
        <ele>1649.0</ele>
        <time>2018-09-02T11:48:04Z</time>
      </trkpt>
      <trkpt lat="40.476600" lon="-5.268800">
        <ele>1648.0</ele>
        <time>2018-09-02T11:48:05Z</time>
      </trkpt>
      <trkpt lat="40.476700" lon="-5.268817">
        <ele>1647.0</ele>
        <time>2018-09-02T11:48:06Z</time>
      </trkpt>
      <trkpt lat="40.476800" lon="-5.268850">
        <ele>1645.0</ele>
        <time>2018-09-02T11:48:07Z</time>
      </trkpt>
      <trkpt lat="40.476883" lon="-5.268867">
        <ele>1643.0</ele>
        <time>2018-09-02T11:48:08Z</time>
      </trkpt>
      <trkpt lat="40.476983" lon="-5.268883">
        <ele>1641.0</ele>
        <time>2018-09-02T11:48:09Z</time>
      </trkpt>
      <trkpt lat="40.477083" lon="-5.268883">
        <ele>1638.0</ele>
        <time>2018-09-02T11:48:10Z</time>
      </trkpt>
      <trkpt lat="40.477183" lon="-5.268900">
        <ele>1634.0</ele>
        <time>2018-09-02T11:48:11Z</time>
      </trkpt>
      <trkpt lat="40.477283" lon="-5.268917">
        <ele>1631.0</ele>
        <time>2018-09-02T11:48:12Z</time>
      </trkpt>
      <trkpt lat="40.477400" lon="-5.268933">
        <ele>1628.0</ele>
        <time>2018-09-02T11:48:13Z</time>
      </trkpt>
      <trkpt lat="40.477500" lon="-5.268933">
        <ele>1625.0</ele>
        <time>2018-09-02T11:48:14Z</time>
      </trkpt>
      <trkpt lat="40.477583" lon="-5.268950">
        <ele>1622.0</ele>
        <time>2018-09-02T11:48:15Z</time>
      </trkpt>
      <trkpt lat="40.477683" lon="-5.268983">
        <ele>1618.0</ele>
        <time>2018-09-02T11:48:16Z</time>
      </trkpt>
      <trkpt lat="40.477783" lon="-5.269017">
        <ele>1615.0</ele>
        <time>2018-09-02T11:48:17Z</time>
      </trkpt>
      <trkpt lat="40.477883" lon="-5.269083">
        <ele>1612.0</ele>
        <time>2018-09-02T11:48:18Z</time>
      </trkpt>
      <trkpt lat="40.477967" lon="-5.269133">
        <ele>1609.0</ele>
        <time>2018-09-02T11:48:19Z</time>
      </trkpt>
      <trkpt lat="40.478050" lon="-5.269167">
        <ele>1608.0</ele>
        <time>2018-09-02T11:48:20Z</time>
      </trkpt>
      <trkpt lat="40.478133" lon="-5.269217">
        <ele>1606.0</ele>
        <time>2018-09-02T11:48:21Z</time>
      </trkpt>
      <trkpt lat="40.478233" lon="-5.269233">
        <ele>1603.0</ele>
        <time>2018-09-02T11:48:22Z</time>
      </trkpt>
      <trkpt lat="40.478333" lon="-5.269267">
        <ele>1608.0</ele>
        <time>2018-09-02T11:48:23Z</time>
      </trkpt>
      <trkpt lat="40.478417" lon="-5.269300">
        <ele>1607.0</ele>
        <time>2018-09-02T11:48:24Z</time>
      </trkpt>
      <trkpt lat="40.478517" lon="-5.269333">
        <ele>1605.0</ele>
        <time>2018-09-02T11:48:25Z</time>
      </trkpt>
      <trkpt lat="40.478600" lon="-5.269383">
        <ele>1604.0</ele>
        <time>2018-09-02T11:48:26Z</time>
      </trkpt>
      <trkpt lat="40.478683" lon="-5.269417">
        <ele>1602.0</ele>
        <time>2018-09-02T11:48:27Z</time>
      </trkpt>
      <trkpt lat="40.478767" lon="-5.269450">
        <ele>1600.0</ele>
        <time>2018-09-02T11:48:28Z</time>
      </trkpt>
      <trkpt lat="40.478850" lon="-5.269467">
        <ele>1598.0</ele>
        <time>2018-09-02T11:48:29Z</time>
      </trkpt>
      <trkpt lat="40.478933" lon="-5.269500">
        <ele>1597.0</ele>
        <time>2018-09-02T11:48:30Z</time>
      </trkpt>
      <trkpt lat="40.479017" lon="-5.269533">
        <ele>1595.0</ele>
        <time>2018-09-02T11:48:31Z</time>
      </trkpt>
      <trkpt lat="40.479100" lon="-5.269550">
        <ele>1594.0</ele>
        <time>2018-09-02T11:48:32Z</time>
      </trkpt>
      <trkpt lat="40.479167" lon="-5.269583">
        <ele>1591.0</ele>
        <time>2018-09-02T11:48:33Z</time>
      </trkpt>
      <trkpt lat="40.479267" lon="-5.269617">
        <ele>1589.0</ele>
        <time>2018-09-02T11:48:34Z</time>
      </trkpt>
      <trkpt lat="40.479367" lon="-5.269633">
        <ele>1588.0</ele>
        <time>2018-09-02T11:48:35Z</time>
      </trkpt>
      <trkpt lat="40.479467" lon="-5.269667">
        <ele>1586.0</ele>
        <time>2018-09-02T11:48:36Z</time>
      </trkpt>
      <trkpt lat="40.479567" lon="-5.269683">
        <ele>1585.0</ele>
        <time>2018-09-02T11:48:37Z</time>
      </trkpt>
      <trkpt lat="40.479650" lon="-5.269700">
        <ele>1584.0</ele>
        <time>2018-09-02T11:48:38Z</time>
      </trkpt>
      <trkpt lat="40.479733" lon="-5.269717">
        <ele>1583.0</ele>
        <time>2018-09-02T11:48:39Z</time>
      </trkpt>
      <trkpt lat="40.479850" lon="-5.269750">
        <ele>1582.0</ele>
        <time>2018-09-02T11:48:40Z</time>
      </trkpt>
      <trkpt lat="40.479950" lon="-5.269783">
        <ele>1580.0</ele>
        <time>2018-09-02T11:48:41Z</time>
      </trkpt>
      <trkpt lat="40.480067" lon="-5.269833">
        <ele>1579.0</ele>
        <time>2018-09-02T11:48:42Z</time>
      </trkpt>
      <trkpt lat="40.480167" lon="-5.269883">
        <ele>1578.0</ele>
        <time>2018-09-02T11:48:43Z</time>
      </trkpt>
      <trkpt lat="40.480267" lon="-5.269917">
        <ele>1578.0</ele>
        <time>2018-09-02T11:48:44Z</time>
      </trkpt>
      <trkpt lat="40.480350" lon="-5.269950">
        <ele>1577.0</ele>
        <time>2018-09-02T11:48:45Z</time>
      </trkpt>
      <trkpt lat="40.480450" lon="-5.269983">
        <ele>1576.0</ele>
        <time>2018-09-02T11:48:46Z</time>
      </trkpt>
      <trkpt lat="40.480533" lon="-5.270017">
        <ele>1575.0</ele>
        <time>2018-09-02T11:48:47Z</time>
      </trkpt>
      <trkpt lat="40.480617" lon="-5.270050">
        <ele>1574.0</ele>
        <time>2018-09-02T11:48:48Z</time>
      </trkpt>
      <trkpt lat="40.480717" lon="-5.270083">
        <ele>1572.0</ele>
        <time>2018-09-02T11:48:49Z</time>
      </trkpt>
      <trkpt lat="40.480817" lon="-5.270133">
        <ele>1570.0</ele>
        <time>2018-09-02T11:48:50Z</time>
      </trkpt>
      <trkpt lat="40.480933" lon="-5.270183">
        <ele>1566.0</ele>
        <time>2018-09-02T11:48:51Z</time>
      </trkpt>
      <trkpt lat="40.481017" lon="-5.270217">
        <ele>1565.0</ele>
        <time>2018-09-02T11:48:52Z</time>
      </trkpt>
      <trkpt lat="40.481117" lon="-5.270267">
        <ele>1563.0</ele>
        <time>2018-09-02T11:48:53Z</time>
      </trkpt>
      <trkpt lat="40.481200" lon="-5.270300">
        <ele>1560.0</ele>
        <time>2018-09-02T11:48:54Z</time>
      </trkpt>
      <trkpt lat="40.481300" lon="-5.270333">
        <ele>1557.0</ele>
        <time>2018-09-02T11:48:55Z</time>
      </trkpt>
      <trkpt lat="40.481400" lon="-5.270367">
        <ele>1553.0</ele>
        <time>2018-09-02T11:48:56Z</time>
      </trkpt>
      <trkpt lat="40.481500" lon="-5.270400">
        <ele>1550.0</ele>
        <time>2018-09-02T11:48:57Z</time>
      </trkpt>
      <trkpt lat="40.481600" lon="-5.270433">
        <ele>1547.0</ele>
        <time>2018-09-02T11:48:58Z</time>
      </trkpt>
      <trkpt lat="40.481700" lon="-5.270450">
        <ele>1544.0</ele>
        <time>2018-09-02T11:48:59Z</time>
      </trkpt>
      <trkpt lat="40.481800" lon="-5.270467">
        <ele>1542.0</ele>
        <time>2018-09-02T11:49:00Z</time>
      </trkpt>
      <trkpt lat="40.481900" lon="-5.270483">
        <ele>1540.0</ele>
        <time>2018-09-02T11:49:01Z</time>
      </trkpt>
      <trkpt lat="40.482000" lon="-5.270483">
        <ele>1538.0</ele>
        <time>2018-09-02T11:49:02Z</time>
      </trkpt>
      <trkpt lat="40.482100" lon="-5.270483">
        <ele>1536.0</ele>
        <time>2018-09-02T11:49:03Z</time>
      </trkpt>
      <trkpt lat="40.482200" lon="-5.270483">
        <ele>1534.0</ele>
        <time>2018-09-02T11:49:04Z</time>
      </trkpt>
      <trkpt lat="40.482300" lon="-5.270500">
        <ele>1532.0</ele>
        <time>2018-09-02T11:49:05Z</time>
      </trkpt>
      <trkpt lat="40.482383" lon="-5.270500">
        <ele>1529.0</ele>
        <time>2018-09-02T11:49:06Z</time>
      </trkpt>
      <trkpt lat="40.482483" lon="-5.270517">
        <ele>1527.0</ele>
        <time>2018-09-02T11:49:07Z</time>
      </trkpt>
      <trkpt lat="40.482583" lon="-5.270517">
        <ele>1525.0</ele>
        <time>2018-09-02T11:49:08Z</time>
      </trkpt>
      <trkpt lat="40.482683" lon="-5.270517">
        <ele>1522.0</ele>
        <time>2018-09-02T11:49:09Z</time>
      </trkpt>
      <trkpt lat="40.482783" lon="-5.270533">
        <ele>1519.0</ele>
        <time>2018-09-02T11:49:10Z</time>
      </trkpt>
      <trkpt lat="40.482883" lon="-5.270533">
        <ele>1515.0</ele>
        <time>2018-09-02T11:49:11Z</time>
      </trkpt>
      <trkpt lat="40.482983" lon="-5.270550">
        <ele>1511.0</ele>
        <time>2018-09-02T11:49:12Z</time>
      </trkpt>
      <trkpt lat="40.483067" lon="-5.270567">
        <ele>1507.0</ele>
        <time>2018-09-02T11:49:13Z</time>
      </trkpt>
      <trkpt lat="40.483150" lon="-5.270583">
        <ele>1503.0</ele>
        <time>2018-09-02T11:49:14Z</time>
      </trkpt>
      <trkpt lat="40.483233" lon="-5.270600">
        <ele>1499.0</ele>
        <time>2018-09-02T11:49:15Z</time>
      </trkpt>
      <trkpt lat="40.483350" lon="-5.270633">
        <ele>1494.0</ele>
        <time>2018-09-02T11:49:16Z</time>
      </trkpt>
      <trkpt lat="40.483450" lon="-5.270650">
        <ele>1488.0</ele>
        <time>2018-09-02T11:49:17Z</time>
      </trkpt>
      <trkpt lat="40.483550" lon="-5.270667">
        <ele>1483.0</ele>
        <time>2018-09-02T11:49:18Z</time>
      </trkpt>
      <trkpt lat="40.483667" lon="-5.270700">
        <ele>1479.0</ele>
        <time>2018-09-02T11:49:19Z</time>
      </trkpt>
      <trkpt lat="40.483767" lon="-5.270717">
        <ele>1475.0</ele>
        <time>2018-09-02T11:49:20Z</time>
      </trkpt>
      <trkpt lat="40.483883" lon="-5.270750">
        <ele>1471.0</ele>
        <time>2018-09-02T11:49:21Z</time>
      </trkpt>
      <trkpt lat="40.483983" lon="-5.270767">
        <ele>1467.0</ele>
        <time>2018-09-02T11:49:22Z</time>
      </trkpt>
      <trkpt lat="40.484100" lon="-5.270783">
        <ele>1464.0</ele>
        <time>2018-09-02T11:49:23Z</time>
      </trkpt>
      <trkpt lat="40.484217" lon="-5.270817">
        <ele>1460.0</ele>
        <time>2018-09-02T11:49:24Z</time>
      </trkpt>
      <trkpt lat="40.484450" lon="-5.270867">
        <ele>1453.0</ele>
        <time>2018-09-02T11:49:26Z</time>
      </trkpt>
      <trkpt lat="40.484567" lon="-5.270900">
        <ele>1450.0</ele>
        <time>2018-09-02T11:49:27Z</time>
      </trkpt>
      <trkpt lat="40.484667" lon="-5.270933">
        <ele>1448.0</ele>
        <time>2018-09-02T11:49:28Z</time>
      </trkpt>
      <trkpt lat="40.484767" lon="-5.270967">
        <ele>1446.0</ele>
        <time>2018-09-02T11:49:29Z</time>
      </trkpt>
      <trkpt lat="40.484867" lon="-5.271000">
        <ele>1444.0</ele>
        <time>2018-09-02T11:49:30Z</time>
      </trkpt>
      <trkpt lat="40.484950" lon="-5.271017">
        <ele>1442.0</ele>
        <time>2018-09-02T11:49:31Z</time>
      </trkpt>
      <trkpt lat="40.485033" lon="-5.271033">
        <ele>1440.0</ele>
        <time>2018-09-02T11:49:32Z</time>
      </trkpt>
      <trkpt lat="40.485133" lon="-5.271067">
        <ele>1437.0</ele>
        <time>2018-09-02T11:49:33Z</time>
      </trkpt>
      <trkpt lat="40.485233" lon="-5.271083">
        <ele>1434.0</ele>
        <time>2018-09-02T11:49:34Z</time>
      </trkpt>
      <trkpt lat="40.485350" lon="-5.271117">
        <ele>1431.0</ele>
        <time>2018-09-02T11:49:35Z</time>
      </trkpt>
      <trkpt lat="40.485467" lon="-5.271133">
        <ele>1429.0</ele>
        <time>2018-09-02T11:49:36Z</time>
      </trkpt>
      <trkpt lat="40.485567" lon="-5.271150">
        <ele>1429.0</ele>
        <time>2018-09-02T11:49:37Z</time>
      </trkpt>
      <trkpt lat="40.485650" lon="-5.271183">
        <ele>1429.0</ele>
        <time>2018-09-02T11:49:38Z</time>
      </trkpt>
      <trkpt lat="40.485717" lon="-5.271200">
        <ele>1431.0</ele>
        <time>2018-09-02T11:49:39Z</time>
      </trkpt>
      <trkpt lat="40.485800" lon="-5.271200">
        <ele>1432.0</ele>
        <time>2018-09-02T11:49:40Z</time>
      </trkpt>
      <trkpt lat="40.485883" lon="-5.271217">
        <ele>1432.0</ele>
        <time>2018-09-02T11:49:41Z</time>
      </trkpt>
      <trkpt lat="40.485967" lon="-5.271233">
        <ele>1433.0</ele>
        <time>2018-09-02T11:49:42Z</time>
      </trkpt>
      <trkpt lat="40.486050" lon="-5.271267">
        <ele>1434.0</ele>
        <time>2018-09-02T11:49:43Z</time>
      </trkpt>
      <trkpt lat="40.486117" lon="-5.271350">
        <ele>1435.0</ele>
        <time>2018-09-02T11:49:44Z</time>
      </trkpt>
      <trkpt lat="40.486133" lon="-5.271433">
        <ele>1435.0</ele>
        <time>2018-09-02T11:49:45Z</time>
      </trkpt>
      <trkpt lat="40.486117" lon="-5.271533">
        <ele>1435.0</ele>
        <time>2018-09-02T11:49:46Z</time>
      </trkpt>
      <trkpt lat="40.486050" lon="-5.271583">
        <ele>1435.0</ele>
        <time>2018-09-02T11:49:47Z</time>
      </trkpt>
      <trkpt lat="40.485967" lon="-5.271600">
        <ele>1436.0</ele>
        <time>2018-09-02T11:49:48Z</time>
      </trkpt>
      <trkpt lat="40.485900" lon="-5.271583">
        <ele>1437.0</ele>
        <time>2018-09-02T11:49:49Z</time>
      </trkpt>
      <trkpt lat="40.485833" lon="-5.271500">
        <ele>1438.0</ele>
        <time>2018-09-02T11:49:50Z</time>
      </trkpt>
      <trkpt lat="40.485817" lon="-5.271383">
        <ele>1440.0</ele>
        <time>2018-09-02T11:49:51Z</time>
      </trkpt>
      <trkpt lat="40.485833" lon="-5.271250">
        <ele>1441.0</ele>
        <time>2018-09-02T11:49:52Z</time>
      </trkpt>
      <trkpt lat="40.485900" lon="-5.271117">
        <ele>1443.0</ele>
        <time>2018-09-02T11:49:53Z</time>
      </trkpt>
      <trkpt lat="40.485983" lon="-5.271017">
        <ele>1444.0</ele>
        <time>2018-09-02T11:49:54Z</time>
      </trkpt>
      <trkpt lat="40.486083" lon="-5.270967">
        <ele>1445.0</ele>
        <time>2018-09-02T11:49:55Z</time>
      </trkpt>
      <trkpt lat="40.486183" lon="-5.270967">
        <ele>1446.0</ele>
        <time>2018-09-02T11:49:56Z</time>
      </trkpt>
      <trkpt lat="40.486250" lon="-5.271017">
        <ele>1448.0</ele>
        <time>2018-09-02T11:49:57Z</time>
      </trkpt>
      <trkpt lat="40.486317" lon="-5.271083">
        <ele>1448.0</ele>
        <time>2018-09-02T11:49:58Z</time>
      </trkpt>
      <trkpt lat="40.486367" lon="-5.271150">
        <ele>1448.0</ele>
        <time>2018-09-02T11:49:59Z</time>
      </trkpt>
      <trkpt lat="40.486417" lon="-5.271233">
        <ele>1448.0</ele>
        <time>2018-09-02T11:50:00Z</time>
      </trkpt>
      <trkpt lat="40.486417" lon="-5.271333">
        <ele>1448.0</ele>
        <time>2018-09-02T11:50:01Z</time>
      </trkpt>
      <trkpt lat="40.486383" lon="-5.271433">
        <ele>1447.0</ele>
        <time>2018-09-02T11:50:02Z</time>
      </trkpt>
      <trkpt lat="40.486333" lon="-5.271500">
        <ele>1447.0</ele>
        <time>2018-09-02T11:50:03Z</time>
      </trkpt>
      <trkpt lat="40.486267" lon="-5.271533">
        <ele>1448.0</ele>
        <time>2018-09-02T11:50:04Z</time>
      </trkpt>
      <trkpt lat="40.486200" lon="-5.271517">
        <ele>1450.0</ele>
        <time>2018-09-02T11:50:05Z</time>
      </trkpt>
      <trkpt lat="40.486150" lon="-5.271467">
        <ele>1452.0</ele>
        <time>2018-09-02T11:50:06Z</time>
      </trkpt>
      <trkpt lat="40.486117" lon="-5.271383">
        <ele>1453.0</ele>
        <time>2018-09-02T11:50:07Z</time>
      </trkpt>
      <trkpt lat="40.486100" lon="-5.271267">
        <ele>1454.0</ele>
        <time>2018-09-02T11:50:08Z</time>
      </trkpt>
      <trkpt lat="40.486083" lon="-5.271150">
        <ele>1455.0</ele>
        <time>2018-09-02T11:50:09Z</time>
      </trkpt>
      <trkpt lat="40.486083" lon="-5.271033">
        <ele>1456.0</ele>
        <time>2018-09-02T11:50:10Z</time>
      </trkpt>
      <trkpt lat="40.486133" lon="-5.270900">
        <ele>1457.0</ele>
        <time>2018-09-02T11:50:11Z</time>
      </trkpt>
      <trkpt lat="40.486217" lon="-5.270783">
        <ele>1458.0</ele>
        <time>2018-09-02T11:50:12Z</time>
      </trkpt>
      <trkpt lat="40.486317" lon="-5.270717">
        <ele>1458.0</ele>
        <time>2018-09-02T11:50:13Z</time>
      </trkpt>
      <trkpt lat="40.486417" lon="-5.270700">
        <ele>1459.0</ele>
        <time>2018-09-02T11:50:14Z</time>
      </trkpt>
      <trkpt lat="40.486517" lon="-5.270717">
        <ele>1460.0</ele>
        <time>2018-09-02T11:50:15Z</time>
      </trkpt>
      <trkpt lat="40.486583" lon="-5.270783">
        <ele>1461.0</ele>
        <time>2018-09-02T11:50:16Z</time>
      </trkpt>
      <trkpt lat="40.486633" lon="-5.270883">
        <ele>1461.0</ele>
        <time>2018-09-02T11:50:17Z</time>
      </trkpt>
      <trkpt lat="40.486667" lon="-5.270983">
        <ele>1462.0</ele>
        <time>2018-09-02T11:50:18Z</time>
      </trkpt>
      <trkpt lat="40.486667" lon="-5.271067">
        <ele>1462.0</ele>
        <time>2018-09-02T11:50:19Z</time>
      </trkpt>
      <trkpt lat="40.486633" lon="-5.271150">
        <ele>1462.0</ele>
        <time>2018-09-02T11:50:20Z</time>
      </trkpt>
      <trkpt lat="40.486600" lon="-5.271217">
        <ele>1463.0</ele>
        <time>2018-09-02T11:50:21Z</time>
      </trkpt>
      <trkpt lat="40.486550" lon="-5.271267">
        <ele>1463.0</ele>
        <time>2018-09-02T11:50:22Z</time>
      </trkpt>
      <trkpt lat="40.486500" lon="-5.271300">
        <ele>1463.0</ele>
        <time>2018-09-02T11:50:23Z</time>
      </trkpt>
      <trkpt lat="40.486450" lon="-5.271300">
        <ele>1464.0</ele>
        <time>2018-09-02T11:50:24Z</time>
      </trkpt>
      <trkpt lat="40.486400" lon="-5.271300">
        <ele>1465.0</ele>
        <time>2018-09-02T11:50:25Z</time>
      </trkpt>
      <trkpt lat="40.486350" lon="-5.271300">
        <ele>1465.0</ele>
        <time>2018-09-02T11:50:26Z</time>
      </trkpt>
      <trkpt lat="40.486300" lon="-5.271300">
        <ele>1466.0</ele>
        <time>2018-09-02T11:50:27Z</time>
      </trkpt>
      <trkpt lat="40.486250" lon="-5.271267">
        <ele>1465.0</ele>
        <time>2018-09-02T11:50:28Z</time>
      </trkpt>
      <trkpt lat="40.486200" lon="-5.271233">
        <ele>1465.0</ele>
        <time>2018-09-02T11:50:29Z</time>
      </trkpt>
      <trkpt lat="40.486150" lon="-5.271200">
        <ele>1466.0</ele>
        <time>2018-09-02T11:50:30Z</time>
      </trkpt>
      <trkpt lat="40.486100" lon="-5.271167">
        <ele>1467.0</ele>
        <time>2018-09-02T11:50:31Z</time>
      </trkpt>
      <trkpt lat="40.486033" lon="-5.271150">
        <ele>1468.0</ele>
        <time>2018-09-02T11:50:32Z</time>
      </trkpt>
      <trkpt lat="40.485917" lon="-5.271183">
        <ele>1468.0</ele>
        <time>2018-09-02T11:50:34Z</time>
      </trkpt>
      <trkpt lat="40.485867" lon="-5.271217">
        <ele>1468.0</ele>
        <time>2018-09-02T11:50:35Z</time>
      </trkpt>
      <trkpt lat="40.485833" lon="-5.271283">
        <ele>1466.0</ele>
        <time>2018-09-02T11:50:36Z</time>
      </trkpt>
      <trkpt lat="40.485833" lon="-5.271367">
        <ele>1464.0</ele>
        <time>2018-09-02T11:50:37Z</time>
      </trkpt>
      <trkpt lat="40.485850" lon="-5.271450">
        <ele>1462.0</ele>
        <time>2018-09-02T11:50:38Z</time>
      </trkpt>
      <trkpt lat="40.485917" lon="-5.271533">
        <ele>1460.0</ele>
        <time>2018-09-02T11:50:39Z</time>
      </trkpt>
      <trkpt lat="40.486000" lon="-5.271583">
        <ele>1457.0</ele>
        <time>2018-09-02T11:50:40Z</time>
      </trkpt>
      <trkpt lat="40.486117" lon="-5.271583">
        <ele>1456.0</ele>
        <time>2018-09-02T11:50:41Z</time>
      </trkpt>
      <trkpt lat="40.486217" lon="-5.271533">
        <ele>1454.0</ele>
        <time>2018-09-02T11:50:42Z</time>
      </trkpt>
      <trkpt lat="40.486317" lon="-5.271450">
        <ele>1451.0</ele>
        <time>2018-09-02T11:50:43Z</time>
      </trkpt>
      <trkpt lat="40.486400" lon="-5.271317">
        <ele>1449.0</ele>
        <time>2018-09-02T11:50:44Z</time>
      </trkpt>
      <trkpt lat="40.486433" lon="-5.271183">
        <ele>1448.0</ele>
        <time>2018-09-02T11:50:45Z</time>
      </trkpt>
      <trkpt lat="40.486417" lon="-5.271067">
        <ele>1447.0</ele>
        <time>2018-09-02T11:50:46Z</time>
      </trkpt>
      <trkpt lat="40.486383" lon="-5.270983">
        <ele>1446.0</ele>
        <time>2018-09-02T11:50:47Z</time>
      </trkpt>
      <trkpt lat="40.486333" lon="-5.270900">
        <ele>1446.0</ele>
        <time>2018-09-02T11:50:48Z</time>
      </trkpt>
      <trkpt lat="40.486267" lon="-5.270800">
        <ele>1445.0</ele>
        <time>2018-09-02T11:50:49Z</time>
      </trkpt>
      <trkpt lat="40.486200" lon="-5.270733">
        <ele>1444.0</ele>
        <time>2018-09-02T11:50:50Z</time>
      </trkpt>
      <trkpt lat="40.486133" lon="-5.270683">
        <ele>1444.0</ele>
        <time>2018-09-02T11:50:51Z</time>
      </trkpt>
      <trkpt lat="40.486083" lon="-5.270683">
        <ele>1444.0</ele>
        <time>2018-09-02T11:50:52Z</time>
      </trkpt>
      <trkpt lat="40.486017" lon="-5.270700">
        <ele>1444.0</ele>
        <time>2018-09-02T11:50:53Z</time>
      </trkpt>
      <trkpt lat="40.485950" lon="-5.270750">
        <ele>1444.0</ele>
        <time>2018-09-02T11:50:54Z</time>
      </trkpt>
      <trkpt lat="40.485917" lon="-5.270800">
        <ele>1444.0</ele>
        <time>2018-09-02T11:50:55Z</time>
      </trkpt>
      <trkpt lat="40.485883" lon="-5.270867">
        <ele>1445.0</ele>
        <time>2018-09-02T11:50:56Z</time>
      </trkpt>
      <trkpt lat="40.485900" lon="-5.270950">
        <ele>1444.0</ele>
        <time>2018-09-02T11:50:57Z</time>
      </trkpt>
      <trkpt lat="40.485917" lon="-5.271033">
        <ele>1444.0</ele>
        <time>2018-09-02T11:50:58Z</time>
      </trkpt>
      <trkpt lat="40.485983" lon="-5.271100">
        <ele>1443.0</ele>
        <time>2018-09-02T11:50:59Z</time>
      </trkpt>
      <trkpt lat="40.486050" lon="-5.271150">
        <ele>1444.0</ele>
        <time>2018-09-02T11:51:00Z</time>
      </trkpt>
      <trkpt lat="40.486150" lon="-5.271150">
        <ele>1444.0</ele>
        <time>2018-09-02T11:51:01Z</time>
      </trkpt>
      <trkpt lat="40.486233" lon="-5.271100">
        <ele>1444.0</ele>
        <time>2018-09-02T11:51:02Z</time>
      </trkpt>
      <trkpt lat="40.486317" lon="-5.271033">
        <ele>1442.0</ele>
        <time>2018-09-02T11:51:03Z</time>
      </trkpt>
      <trkpt lat="40.486400" lon="-5.270967">
        <ele>1442.0</ele>
        <time>2018-09-02T11:51:04Z</time>
      </trkpt>
      <trkpt lat="40.486467" lon="-5.270867">
        <ele>1441.0</ele>
        <time>2018-09-02T11:51:05Z</time>
      </trkpt>
      <trkpt lat="40.486533" lon="-5.270767">
        <ele>1441.0</ele>
        <time>2018-09-02T11:51:06Z</time>
      </trkpt>
      <trkpt lat="40.486550" lon="-5.270633">
        <ele>1441.0</ele>
        <time>2018-09-02T11:51:07Z</time>
      </trkpt>
      <trkpt lat="40.486550" lon="-5.270517">
        <ele>1441.0</ele>
        <time>2018-09-02T11:51:08Z</time>
      </trkpt>
      <trkpt lat="40.486550" lon="-5.270383">
        <ele>1441.0</ele>
        <time>2018-09-02T11:51:09Z</time>
      </trkpt>
      <trkpt lat="40.486533" lon="-5.270267">
        <ele>1442.0</ele>
        <time>2018-09-02T11:51:10Z</time>
      </trkpt>
      <trkpt lat="40.486533" lon="-5.270183">
        <ele>1443.0</ele>
        <time>2018-09-02T11:51:11Z</time>
      </trkpt>
      <trkpt lat="40.486517" lon="-5.270100">
        <ele>1444.0</ele>
        <time>2018-09-02T11:51:12Z</time>
      </trkpt>
      <trkpt lat="40.486483" lon="-5.270017">
        <ele>1444.0</ele>
        <time>2018-09-02T11:51:13Z</time>
      </trkpt>
      <trkpt lat="40.486417" lon="-5.269950">
        <ele>1444.0</ele>
        <time>2018-09-02T11:51:14Z</time>
      </trkpt>
      <trkpt lat="40.486350" lon="-5.269917">
        <ele>1443.0</ele>
        <time>2018-09-02T11:51:15Z</time>
      </trkpt>
      <trkpt lat="40.486267" lon="-5.269900">
        <ele>1443.0</ele>
        <time>2018-09-02T11:51:16Z</time>
      </trkpt>
      <trkpt lat="40.486200" lon="-5.269933">
        <ele>1442.0</ele>
        <time>2018-09-02T11:51:17Z</time>
      </trkpt>
      <trkpt lat="40.486150" lon="-5.270017">
        <ele>1441.0</ele>
        <time>2018-09-02T11:51:18Z</time>
      </trkpt>
      <trkpt lat="40.486150" lon="-5.270117">
        <ele>1440.0</ele>
        <time>2018-09-02T11:51:19Z</time>
      </trkpt>
      <trkpt lat="40.486167" lon="-5.270200">
        <ele>1439.0</ele>
        <time>2018-09-02T11:51:20Z</time>
      </trkpt>
      <trkpt lat="40.486200" lon="-5.270250">
        <ele>1440.0</ele>
        <time>2018-09-02T11:51:21Z</time>
      </trkpt>
      <trkpt lat="40.486267" lon="-5.270300">
        <ele>1440.0</ele>
        <time>2018-09-02T11:51:22Z</time>
      </trkpt>
      <trkpt lat="40.486333" lon="-5.270317">
        <ele>1440.0</ele>
        <time>2018-09-02T11:51:23Z</time>
      </trkpt>
      <trkpt lat="40.486417" lon="-5.270317">
        <ele>1440.0</ele>
        <time>2018-09-02T11:51:24Z</time>
      </trkpt>
      <trkpt lat="40.486517" lon="-5.270300">
        <ele>1440.0</ele>
        <time>2018-09-02T11:51:25Z</time>
      </trkpt>
      <trkpt lat="40.486583" lon="-5.270217">
        <ele>1440.0</ele>
        <time>2018-09-02T11:51:26Z</time>
      </trkpt>
      <trkpt lat="40.486667" lon="-5.270117">
        <ele>1440.0</ele>
        <time>2018-09-02T11:51:27Z</time>
      </trkpt>
      <trkpt lat="40.486717" lon="-5.269900">
        <ele>1440.0</ele>
        <time>2018-09-02T11:51:29Z</time>
      </trkpt>
      <trkpt lat="40.486700" lon="-5.269817">
        <ele>1440.0</ele>
        <time>2018-09-02T11:51:30Z</time>
      </trkpt>
      <trkpt lat="40.486667" lon="-5.269733">
        <ele>1440.0</ele>
        <time>2018-09-02T11:51:31Z</time>
      </trkpt>
      <trkpt lat="40.486617" lon="-5.269667">
        <ele>1440.0</ele>
        <time>2018-09-02T11:51:32Z</time>
      </trkpt>
      <trkpt lat="40.486550" lon="-5.269617">
        <ele>1439.0</ele>
        <time>2018-09-02T11:51:33Z</time>
      </trkpt>
      <trkpt lat="40.486483" lon="-5.269600">
        <ele>1439.0</ele>
        <time>2018-09-02T11:51:34Z</time>
      </trkpt>
      <trkpt lat="40.486417" lon="-5.269617">
        <ele>1438.0</ele>
        <time>2018-09-02T11:51:35Z</time>
      </trkpt>
      <trkpt lat="40.486333" lon="-5.269650">
        <ele>1438.0</ele>
        <time>2018-09-02T11:51:36Z</time>
      </trkpt>
      <trkpt lat="40.486267" lon="-5.269667">
        <ele>1437.0</ele>
        <time>2018-09-02T11:51:37Z</time>
      </trkpt>
      <trkpt lat="40.486217" lon="-5.269683">
        <ele>1438.0</ele>
        <time>2018-09-02T11:51:38Z</time>
      </trkpt>
      <trkpt lat="40.486183" lon="-5.269717">
        <ele>1438.0</ele>
        <time>2018-09-02T11:51:39Z</time>
      </trkpt>
      <trkpt lat="40.486133" lon="-5.269750">
        <ele>1438.0</ele>
        <time>2018-09-02T11:51:40Z</time>
      </trkpt>
      <trkpt lat="40.486100" lon="-5.269800">
        <ele>1438.0</ele>
        <time>2018-09-02T11:51:41Z</time>
      </trkpt>
      <trkpt lat="40.486033" lon="-5.269867">
        <ele>1438.0</ele>
        <time>2018-09-02T11:51:42Z</time>
      </trkpt>
      <trkpt lat="40.485983" lon="-5.269933">
        <ele>1438.0</ele>
        <time>2018-09-02T11:51:43Z</time>
      </trkpt>
      <trkpt lat="40.485917" lon="-5.269983">
        <ele>1438.0</ele>
        <time>2018-09-02T11:51:44Z</time>
      </trkpt>
      <trkpt lat="40.485867" lon="-5.270017">
        <ele>1438.0</ele>
        <time>2018-09-02T11:51:45Z</time>
      </trkpt>
      <trkpt lat="40.485800" lon="-5.270033">
        <ele>1438.0</ele>
        <time>2018-09-02T11:51:46Z</time>
      </trkpt>
      <trkpt lat="40.485733" lon="-5.270050">
        <ele>1438.0</ele>
        <time>2018-09-02T11:51:47Z</time>
      </trkpt>
      <trkpt lat="40.485667" lon="-5.270083">
        <ele>1438.0</ele>
        <time>2018-09-02T11:51:48Z</time>
      </trkpt>
      <trkpt lat="40.485583" lon="-5.270117">
        <ele>1438.0</ele>
        <time>2018-09-02T11:51:49Z</time>
      </trkpt>
      <trkpt lat="40.485533" lon="-5.270167">
        <ele>1438.0</ele>
        <time>2018-09-02T11:51:50Z</time>
      </trkpt>
      <trkpt lat="40.485517" lon="-5.270250">
        <ele>1438.0</ele>
        <time>2018-09-02T11:51:51Z</time>
      </trkpt>
      <trkpt lat="40.485517" lon="-5.270333">
        <ele>1437.0</ele>
        <time>2018-09-02T11:51:52Z</time>
      </trkpt>
      <trkpt lat="40.485533" lon="-5.270417">
        <ele>1436.0</ele>
        <time>2018-09-02T11:51:53Z</time>
      </trkpt>
      <trkpt lat="40.485583" lon="-5.270467">
        <ele>1436.0</ele>
        <time>2018-09-02T11:51:54Z</time>
      </trkpt>
      <trkpt lat="40.485650" lon="-5.270483">
        <ele>1437.0</ele>
        <time>2018-09-02T11:51:55Z</time>
      </trkpt>
      <trkpt lat="40.485883" lon="-5.270383">
        <ele>1435.0</ele>
        <time>2018-09-02T11:51:58Z</time>
      </trkpt>
      <trkpt lat="40.485933" lon="-5.270300">
        <ele>1436.0</ele>
        <time>2018-09-02T11:51:59Z</time>
      </trkpt>
      <trkpt lat="40.485967" lon="-5.270183">
        <ele>1436.0</ele>
        <time>2018-09-02T11:52:00Z</time>
      </trkpt>
      <trkpt lat="40.486000" lon="-5.270050">
        <ele>1435.0</ele>
        <time>2018-09-02T11:52:01Z</time>
      </trkpt>
      <trkpt lat="40.486017" lon="-5.269900">
        <ele>1434.0</ele>
        <time>2018-09-02T11:52:02Z</time>
      </trkpt>
      <trkpt lat="40.486017" lon="-5.269767">
        <ele>1435.0</ele>
        <time>2018-09-02T11:52:03Z</time>
      </trkpt>
      <trkpt lat="40.486000" lon="-5.269650">
        <ele>1435.0</ele>
        <time>2018-09-02T11:52:04Z</time>
      </trkpt>
      <trkpt lat="40.485950" lon="-5.269533">
        <ele>1435.0</ele>
        <time>2018-09-02T11:52:05Z</time>
      </trkpt>
      <trkpt lat="40.485883" lon="-5.269450">
        <ele>1435.0</ele>
        <time>2018-09-02T11:52:06Z</time>
      </trkpt>
      <trkpt lat="40.485800" lon="-5.269400">
        <ele>1435.0</ele>
        <time>2018-09-02T11:52:07Z</time>
      </trkpt>
      <trkpt lat="40.485700" lon="-5.269367">
        <ele>1435.0</ele>
        <time>2018-09-02T11:52:08Z</time>
      </trkpt>
      <trkpt lat="40.485633" lon="-5.269400">
        <ele>1436.0</ele>
        <time>2018-09-02T11:52:09Z</time>
      </trkpt>
      <trkpt lat="40.485583" lon="-5.269450">
        <ele>1436.0</ele>
        <time>2018-09-02T11:52:10Z</time>
      </trkpt>
      <trkpt lat="40.485550" lon="-5.269517">
        <ele>1436.0</ele>
        <time>2018-09-02T11:52:11Z</time>
      </trkpt>
      <trkpt lat="40.485567" lon="-5.269600">
        <ele>1435.0</ele>
        <time>2018-09-02T11:52:12Z</time>
      </trkpt>
      <trkpt lat="40.485600" lon="-5.269667">
        <ele>1434.0</ele>
        <time>2018-09-02T11:52:13Z</time>
      </trkpt>
      <trkpt lat="40.485650" lon="-5.269700">
        <ele>1435.0</ele>
        <time>2018-09-02T11:52:14Z</time>
      </trkpt>
      <trkpt lat="40.485800" lon="-5.269617">
        <ele>1435.0</ele>
        <time>2018-09-02T11:52:16Z</time>
      </trkpt>
      <trkpt lat="40.485867" lon="-5.269533">
        <ele>1435.0</ele>
        <time>2018-09-02T11:52:17Z</time>
      </trkpt>
      <trkpt lat="40.485900" lon="-5.269417">
        <ele>1435.0</ele>
        <time>2018-09-02T11:52:18Z</time>
      </trkpt>
      <trkpt lat="40.485900" lon="-5.269300">
        <ele>1435.0</ele>
        <time>2018-09-02T11:52:19Z</time>
      </trkpt>
      <trkpt lat="40.485850" lon="-5.269183">
        <ele>1435.0</ele>
        <time>2018-09-02T11:52:20Z</time>
      </trkpt>
      <trkpt lat="40.485783" lon="-5.269100">
        <ele>1435.0</ele>
        <time>2018-09-02T11:52:21Z</time>
      </trkpt>
      <trkpt lat="40.485700" lon="-5.269067">
        <ele>1435.0</ele>
        <time>2018-09-02T11:52:22Z</time>
      </trkpt>
      <trkpt lat="40.485617" lon="-5.269083">
        <ele>1434.0</ele>
        <time>2018-09-02T11:52:23Z</time>
      </trkpt>
      <trkpt lat="40.485550" lon="-5.269133">
        <ele>1434.0</ele>
        <time>2018-09-02T11:52:24Z</time>
      </trkpt>
      <trkpt lat="40.485500" lon="-5.269200">
        <ele>1434.0</ele>
        <time>2018-09-02T11:52:25Z</time>
      </trkpt>
      <trkpt lat="40.485467" lon="-5.269283">
        <ele>1436.0</ele>
        <time>2018-09-02T11:52:26Z</time>
      </trkpt>
      <trkpt lat="40.485483" lon="-5.269367">
        <ele>1436.0</ele>
        <time>2018-09-02T11:52:27Z</time>
      </trkpt>
      <trkpt lat="40.485533" lon="-5.269433">
        <ele>1436.0</ele>
        <time>2018-09-02T11:52:28Z</time>
      </trkpt>
      <trkpt lat="40.485600" lon="-5.269467">
        <ele>1435.0</ele>
        <time>2018-09-02T11:52:29Z</time>
      </trkpt>
      <trkpt lat="40.485667" lon="-5.269450">
        <ele>1436.0</ele>
        <time>2018-09-02T11:52:30Z</time>
      </trkpt>
      <trkpt lat="40.485717" lon="-5.269400">
        <ele>1435.0</ele>
        <time>2018-09-02T11:52:31Z</time>
      </trkpt>
      <trkpt lat="40.485767" lon="-5.269317">
        <ele>1435.0</ele>
        <time>2018-09-02T11:52:32Z</time>
      </trkpt>
      <trkpt lat="40.485833" lon="-5.269217">
        <ele>1435.0</ele>
        <time>2018-09-02T11:52:33Z</time>
      </trkpt>
      <trkpt lat="40.485883" lon="-5.269100">
        <ele>1434.0</ele>
        <time>2018-09-02T11:52:34Z</time>
      </trkpt>
      <trkpt lat="40.485883" lon="-5.268983">
        <ele>1434.0</ele>
        <time>2018-09-02T11:52:35Z</time>
      </trkpt>
      <trkpt lat="40.485867" lon="-5.268867">
        <ele>1435.0</ele>
        <time>2018-09-02T11:52:36Z</time>
      </trkpt>
      <trkpt lat="40.485817" lon="-5.268767">
        <ele>1434.0</ele>
        <time>2018-09-02T11:52:37Z</time>
      </trkpt>
      <trkpt lat="40.485733" lon="-5.268700">
        <ele>1434.0</ele>
        <time>2018-09-02T11:52:38Z</time>
      </trkpt>
      <trkpt lat="40.485650" lon="-5.268683">
        <ele>1433.0</ele>
        <time>2018-09-02T11:52:39Z</time>
      </trkpt>
      <trkpt lat="40.485583" lon="-5.268700">
        <ele>1433.0</ele>
        <time>2018-09-02T11:52:40Z</time>
      </trkpt>
      <trkpt lat="40.485517" lon="-5.268717">
        <ele>1434.0</ele>
        <time>2018-09-02T11:52:41Z</time>
      </trkpt>
      <trkpt lat="40.485450" lon="-5.268717">
        <ele>1434.0</ele>
        <time>2018-09-02T11:52:42Z</time>
      </trkpt>
      <trkpt lat="40.485400" lon="-5.268717">
        <ele>1434.0</ele>
        <time>2018-09-02T11:52:43Z</time>
      </trkpt>
      <trkpt lat="40.485333" lon="-5.268700">
        <ele>1434.0</ele>
        <time>2018-09-02T11:52:44Z</time>
      </trkpt>
      <trkpt lat="40.485267" lon="-5.268700">
        <ele>1435.0</ele>
        <time>2018-09-02T11:52:45Z</time>
      </trkpt>
      <trkpt lat="40.485217" lon="-5.268733">
        <ele>1435.0</ele>
        <time>2018-09-02T11:52:46Z</time>
      </trkpt>
      <trkpt lat="40.485183" lon="-5.268800">
        <ele>1434.0</ele>
        <time>2018-09-02T11:52:47Z</time>
      </trkpt>
      <trkpt lat="40.485167" lon="-5.268883">
        <ele>1433.0</ele>
        <time>2018-09-02T11:52:48Z</time>
      </trkpt>
      <trkpt lat="40.485183" lon="-5.268967">
        <ele>1432.0</ele>
        <time>2018-09-02T11:52:49Z</time>
      </trkpt>
      <trkpt lat="40.485233" lon="-5.269033">
        <ele>1431.0</ele>
        <time>2018-09-02T11:52:50Z</time>
      </trkpt>
      <trkpt lat="40.485300" lon="-5.269067">
        <ele>1431.0</ele>
        <time>2018-09-02T11:52:51Z</time>
      </trkpt>
      <trkpt lat="40.485383" lon="-5.269050">
        <ele>1430.0</ele>
        <time>2018-09-02T11:52:52Z</time>
      </trkpt>
      <trkpt lat="40.485467" lon="-5.268983">
        <ele>1429.0</ele>
        <time>2018-09-02T11:52:53Z</time>
      </trkpt>
      <trkpt lat="40.485550" lon="-5.268883">
        <ele>1429.0</ele>
        <time>2018-09-02T11:52:54Z</time>
      </trkpt>
      <trkpt lat="40.485583" lon="-5.268733">
        <ele>1429.0</ele>
        <time>2018-09-02T11:52:55Z</time>
      </trkpt>
      <trkpt lat="40.485583" lon="-5.268600">
        <ele>1429.0</ele>
        <time>2018-09-02T11:52:56Z</time>
      </trkpt>
      <trkpt lat="40.485550" lon="-5.268483">
        <ele>1429.0</ele>
        <time>2018-09-02T11:52:57Z</time>
      </trkpt>
      <trkpt lat="40.485500" lon="-5.268383">
        <ele>1430.0</ele>
        <time>2018-09-02T11:52:58Z</time>
      </trkpt>
      <trkpt lat="40.485450" lon="-5.268317">
        <ele>1430.0</ele>
        <time>2018-09-02T11:52:59Z</time>
      </trkpt>
      <trkpt lat="40.485383" lon="-5.268233">
        <ele>1430.0</ele>
        <time>2018-09-02T11:53:00Z</time>
      </trkpt>
      <trkpt lat="40.485333" lon="-5.268167">
        <ele>1431.0</ele>
        <time>2018-09-02T11:53:01Z</time>
      </trkpt>
      <trkpt lat="40.485267" lon="-5.268117">
        <ele>1432.0</ele>
        <time>2018-09-02T11:53:02Z</time>
      </trkpt>
      <trkpt lat="40.485183" lon="-5.268100">
        <ele>1431.0</ele>
        <time>2018-09-02T11:53:03Z</time>
      </trkpt>
      <trkpt lat="40.485067" lon="-5.268167">
        <ele>1431.0</ele>
        <time>2018-09-02T11:53:05Z</time>
      </trkpt>
      <trkpt lat="40.485067" lon="-5.268333">
        <ele>1431.0</ele>
        <time>2018-09-02T11:53:07Z</time>
      </trkpt>
      <trkpt lat="40.485100" lon="-5.268400">
        <ele>1431.0</ele>
        <time>2018-09-02T11:53:08Z</time>
      </trkpt>
      <trkpt lat="40.485167" lon="-5.268467">
        <ele>1431.0</ele>
        <time>2018-09-02T11:53:09Z</time>
      </trkpt>
      <trkpt lat="40.485233" lon="-5.268500">
        <ele>1432.0</ele>
        <time>2018-09-02T11:53:10Z</time>
      </trkpt>
      <trkpt lat="40.485317" lon="-5.268500">
        <ele>1433.0</ele>
        <time>2018-09-02T11:53:11Z</time>
      </trkpt>
      <trkpt lat="40.485400" lon="-5.268450">
        <ele>1433.0</ele>
        <time>2018-09-02T11:53:12Z</time>
      </trkpt>
      <trkpt lat="40.485467" lon="-5.268367">
        <ele>1433.0</ele>
        <time>2018-09-02T11:53:13Z</time>
      </trkpt>
      <trkpt lat="40.485517" lon="-5.268250">
        <ele>1433.0</ele>
        <time>2018-09-02T11:53:14Z</time>
      </trkpt>
      <trkpt lat="40.485533" lon="-5.268133">
        <ele>1433.0</ele>
        <time>2018-09-02T11:53:15Z</time>
      </trkpt>
      <trkpt lat="40.485517" lon="-5.268000">
        <ele>1434.0</ele>
        <time>2018-09-02T11:53:16Z</time>
      </trkpt>
      <trkpt lat="40.485500" lon="-5.267883">
        <ele>1434.0</ele>
        <time>2018-09-02T11:53:17Z</time>
      </trkpt>
      <trkpt lat="40.485467" lon="-5.267783">
        <ele>1434.0</ele>
        <time>2018-09-02T11:53:18Z</time>
      </trkpt>
      <trkpt lat="40.485417" lon="-5.267667">
        <ele>1434.0</ele>
        <time>2018-09-02T11:53:19Z</time>
      </trkpt>
      <trkpt lat="40.485367" lon="-5.267567">
        <ele>1434.0</ele>
        <time>2018-09-02T11:53:20Z</time>
      </trkpt>
      <trkpt lat="40.485317" lon="-5.267483">
        <ele>1434.0</ele>
        <time>2018-09-02T11:53:21Z</time>
      </trkpt>
      <trkpt lat="40.485250" lon="-5.267400">
        <ele>1434.0</ele>
        <time>2018-09-02T11:53:22Z</time>
      </trkpt>
      <trkpt lat="40.485183" lon="-5.267350">
        <ele>1433.0</ele>
        <time>2018-09-02T11:53:23Z</time>
      </trkpt>
      <trkpt lat="40.485100" lon="-5.267283">
        <ele>1434.0</ele>
        <time>2018-09-02T11:53:24Z</time>
      </trkpt>
      <trkpt lat="40.485033" lon="-5.267250">
        <ele>1433.0</ele>
        <time>2018-09-02T11:53:25Z</time>
      </trkpt>
      <trkpt lat="40.484950" lon="-5.267250">
        <ele>1433.0</ele>
        <time>2018-09-02T11:53:26Z</time>
      </trkpt>
      <trkpt lat="40.484900" lon="-5.267250">
        <ele>1433.0</ele>
        <time>2018-09-02T11:53:27Z</time>
      </trkpt>
      <trkpt lat="40.484850" lon="-5.267283">
        <ele>1432.0</ele>
        <time>2018-09-02T11:53:28Z</time>
      </trkpt>
      <trkpt lat="40.484817" lon="-5.267333">
        <ele>1430.0</ele>
        <time>2018-09-02T11:53:29Z</time>
      </trkpt>
      <trkpt lat="40.484783" lon="-5.267383">
        <ele>1428.0</ele>
        <time>2018-09-02T11:53:30Z</time>
      </trkpt>
      <trkpt lat="40.484750" lon="-5.267450">
        <ele>1427.0</ele>
        <time>2018-09-02T11:53:31Z</time>
      </trkpt>
      <trkpt lat="40.484733" lon="-5.267517">
        <ele>1425.0</ele>
        <time>2018-09-02T11:53:32Z</time>
      </trkpt>
      <trkpt lat="40.484700" lon="-5.267567">
        <ele>1424.0</ele>
        <time>2018-09-02T11:53:33Z</time>
      </trkpt>
      <trkpt lat="40.484650" lon="-5.267617">
        <ele>1422.0</ele>
        <time>2018-09-02T11:53:34Z</time>
      </trkpt>
      <trkpt lat="40.484583" lon="-5.267667">
        <ele>1420.0</ele>
        <time>2018-09-02T11:53:35Z</time>
      </trkpt>
      <trkpt lat="40.484533" lon="-5.267700">
        <ele>1419.0</ele>
        <time>2018-09-02T11:53:36Z</time>
      </trkpt>
      <trkpt lat="40.484467" lon="-5.267717">
        <ele>1418.0</ele>
        <time>2018-09-02T11:53:37Z</time>
      </trkpt>
      <trkpt lat="40.484417" lon="-5.267733">
        <ele>1417.0</ele>
        <time>2018-09-02T11:53:38Z</time>
      </trkpt>
      <trkpt lat="40.484350" lon="-5.267750">
        <ele>1415.0</ele>
        <time>2018-09-02T11:53:39Z</time>
      </trkpt>
      <trkpt lat="40.484300" lon="-5.267750">
        <ele>1414.0</ele>
        <time>2018-09-02T11:53:40Z</time>
      </trkpt>
      <trkpt lat="40.484233" lon="-5.267767">
        <ele>1413.0</ele>
        <time>2018-09-02T11:53:41Z</time>
      </trkpt>
      <trkpt lat="40.484167" lon="-5.267783">
        <ele>1411.0</ele>
        <time>2018-09-02T11:53:42Z</time>
      </trkpt>
      <trkpt lat="40.484117" lon="-5.267833">
        <ele>1411.0</ele>
        <time>2018-09-02T11:53:43Z</time>
      </trkpt>
      <trkpt lat="40.484100" lon="-5.267883">
        <ele>1410.0</ele>
        <time>2018-09-02T11:53:44Z</time>
      </trkpt>
      <trkpt lat="40.484100" lon="-5.267967">
        <ele>1408.0</ele>
        <time>2018-09-02T11:53:45Z</time>
      </trkpt>
      <trkpt lat="40.484133" lon="-5.268050">
        <ele>1406.0</ele>
        <time>2018-09-02T11:53:46Z</time>
      </trkpt>
      <trkpt lat="40.484200" lon="-5.268117">
        <ele>1405.0</ele>
        <time>2018-09-02T11:53:47Z</time>
      </trkpt>
      <trkpt lat="40.484283" lon="-5.268167">
        <ele>1404.0</ele>
        <time>2018-09-02T11:53:48Z</time>
      </trkpt>
      <trkpt lat="40.484367" lon="-5.268167">
        <ele>1405.0</ele>
        <time>2018-09-02T11:53:49Z</time>
      </trkpt>
      <trkpt lat="40.484450" lon="-5.268183">
        <ele>1404.0</ele>
        <time>2018-09-02T11:53:50Z</time>
      </trkpt>
      <trkpt lat="40.484533" lon="-5.268200">
        <ele>1404.0</ele>
        <time>2018-09-02T11:53:51Z</time>
      </trkpt>
      <trkpt lat="40.484600" lon="-5.268233">
        <ele>1404.0</ele>
        <time>2018-09-02T11:53:52Z</time>
      </trkpt>
      <trkpt lat="40.484683" lon="-5.268283">
        <ele>1404.0</ele>
        <time>2018-09-02T11:53:53Z</time>
      </trkpt>
      <trkpt lat="40.484750" lon="-5.268333">
        <ele>1405.0</ele>
        <time>2018-09-02T11:53:54Z</time>
      </trkpt>
      <trkpt lat="40.484817" lon="-5.268383">
        <ele>1405.0</ele>
        <time>2018-09-02T11:53:55Z</time>
      </trkpt>
      <trkpt lat="40.484883" lon="-5.268417">
        <ele>1406.0</ele>
        <time>2018-09-02T11:53:56Z</time>
      </trkpt>
      <trkpt lat="40.484933" lon="-5.268467">
        <ele>1408.0</ele>
        <time>2018-09-02T11:53:57Z</time>
      </trkpt>
      <trkpt lat="40.484983" lon="-5.268500">
        <ele>1410.0</ele>
        <time>2018-09-02T11:53:58Z</time>
      </trkpt>
      <trkpt lat="40.485050" lon="-5.268567">
        <ele>1410.0</ele>
        <time>2018-09-02T11:53:59Z</time>
      </trkpt>
      <trkpt lat="40.485083" lon="-5.268650">
        <ele>1410.0</ele>
        <time>2018-09-02T11:54:00Z</time>
      </trkpt>
      <trkpt lat="40.485100" lon="-5.268750">
        <ele>1411.0</ele>
        <time>2018-09-02T11:54:01Z</time>
      </trkpt>
      <trkpt lat="40.485067" lon="-5.268817">
        <ele>1412.0</ele>
        <time>2018-09-02T11:54:02Z</time>
      </trkpt>
      <trkpt lat="40.485017" lon="-5.268867">
        <ele>1412.0</ele>
        <time>2018-09-02T11:54:03Z</time>
      </trkpt>
      <trkpt lat="40.484933" lon="-5.268883">
        <ele>1413.0</ele>
        <time>2018-09-02T11:54:04Z</time>
      </trkpt>
      <trkpt lat="40.484833" lon="-5.268850">
        <ele>1413.0</ele>
        <time>2018-09-02T11:54:05Z</time>
      </trkpt>
      <trkpt lat="40.484767" lon="-5.268767">
        <ele>1413.0</ele>
        <time>2018-09-02T11:54:06Z</time>
      </trkpt>
      <trkpt lat="40.484717" lon="-5.268650">
        <ele>1414.0</ele>
        <time>2018-09-02T11:54:07Z</time>
      </trkpt>
      <trkpt lat="40.484717" lon="-5.268500">
        <ele>1414.0</ele>
        <time>2018-09-02T11:54:08Z</time>
      </trkpt>
      <trkpt lat="40.484750" lon="-5.268367">
        <ele>1415.0</ele>
        <time>2018-09-02T11:54:09Z</time>
      </trkpt>
      <trkpt lat="40.484833" lon="-5.268267">
        <ele>1415.0</ele>
        <time>2018-09-02T11:54:10Z</time>
      </trkpt>
      <trkpt lat="40.484917" lon="-5.268200">
        <ele>1416.0</ele>
        <time>2018-09-02T11:54:11Z</time>
      </trkpt>
      <trkpt lat="40.485067" lon="-5.268250">
        <ele>1418.0</ele>
        <time>2018-09-02T11:54:13Z</time>
      </trkpt>
      <trkpt lat="40.485100" lon="-5.268333">
        <ele>1419.0</ele>
        <time>2018-09-02T11:54:14Z</time>
      </trkpt>
      <trkpt lat="40.485100" lon="-5.268417">
        <ele>1420.0</ele>
        <time>2018-09-02T11:54:15Z</time>
      </trkpt>
      <trkpt lat="40.485067" lon="-5.268500">
        <ele>1422.0</ele>
        <time>2018-09-02T11:54:16Z</time>
      </trkpt>
      <trkpt lat="40.485017" lon="-5.268550">
        <ele>1423.0</ele>
        <time>2018-09-02T11:54:17Z</time>
      </trkpt>
      <trkpt lat="40.484933" lon="-5.268567">
        <ele>1423.0</ele>
        <time>2018-09-02T11:54:18Z</time>
      </trkpt>
      <trkpt lat="40.484850" lon="-5.268533">
        <ele>1424.0</ele>
        <time>2018-09-02T11:54:19Z</time>
      </trkpt>
      <trkpt lat="40.484767" lon="-5.268450">
        <ele>1424.0</ele>
        <time>2018-09-02T11:54:20Z</time>
      </trkpt>
      <trkpt lat="40.484733" lon="-5.268300">
        <ele>1424.0</ele>
        <time>2018-09-02T11:54:21Z</time>
      </trkpt>
      <trkpt lat="40.484750" lon="-5.268167">
        <ele>1424.0</ele>
        <time>2018-09-02T11:54:22Z</time>
      </trkpt>
      <trkpt lat="40.484800" lon="-5.268033">
        <ele>1425.0</ele>
        <time>2018-09-02T11:54:23Z</time>
      </trkpt>
      <trkpt lat="40.484867" lon="-5.267967">
        <ele>1425.0</ele>
        <time>2018-09-02T11:54:24Z</time>
      </trkpt>
      <trkpt lat="40.484950" lon="-5.267967">
        <ele>1426.0</ele>
        <time>2018-09-02T11:54:25Z</time>
      </trkpt>
      <trkpt lat="40.485017" lon="-5.268000">
        <ele>1427.0</ele>
        <time>2018-09-02T11:54:26Z</time>
      </trkpt>
      <trkpt lat="40.485067" lon="-5.268067">
        <ele>1428.0</ele>
        <time>2018-09-02T11:54:27Z</time>
      </trkpt>
      <trkpt lat="40.485083" lon="-5.268133">
        <ele>1431.0</ele>
        <time>2018-09-02T11:54:28Z</time>
      </trkpt>
      <trkpt lat="40.485100" lon="-5.268200">
        <ele>1433.0</ele>
        <time>2018-09-02T11:54:29Z</time>
      </trkpt>
      <trkpt lat="40.485083" lon="-5.268267">
        <ele>1435.0</ele>
        <time>2018-09-02T11:54:30Z</time>
      </trkpt>
      <trkpt lat="40.485067" lon="-5.268333">
        <ele>1436.0</ele>
        <time>2018-09-02T11:54:31Z</time>
      </trkpt>
      <trkpt lat="40.485033" lon="-5.268400">
        <ele>1438.0</ele>
        <time>2018-09-02T11:54:32Z</time>
      </trkpt>
      <trkpt lat="40.484967" lon="-5.268433">
        <ele>1439.0</ele>
        <time>2018-09-02T11:54:33Z</time>
      </trkpt>
      <trkpt lat="40.484867" lon="-5.268400">
        <ele>1440.0</ele>
        <time>2018-09-02T11:54:34Z</time>
      </trkpt>
      <trkpt lat="40.484800" lon="-5.268317">
        <ele>1441.0</ele>
        <time>2018-09-02T11:54:35Z</time>
      </trkpt>
      <trkpt lat="40.484750" lon="-5.268200">
        <ele>1441.0</ele>
        <time>2018-09-02T11:54:36Z</time>
      </trkpt>
      <trkpt lat="40.484750" lon="-5.268067">
        <ele>1442.0</ele>
        <time>2018-09-02T11:54:37Z</time>
      </trkpt>
      <trkpt lat="40.484817" lon="-5.267933">
        <ele>1443.0</ele>
        <time>2018-09-02T11:54:38Z</time>
      </trkpt>
      <trkpt lat="40.484900" lon="-5.267850">
        <ele>1443.0</ele>
        <time>2018-09-02T11:54:39Z</time>
      </trkpt>
      <trkpt lat="40.484983" lon="-5.267817">
        <ele>1444.0</ele>
        <time>2018-09-02T11:54:40Z</time>
      </trkpt>
      <trkpt lat="40.485050" lon="-5.267850">
        <ele>1446.0</ele>
        <time>2018-09-02T11:54:41Z</time>
      </trkpt>
      <trkpt lat="40.485100" lon="-5.267883">
        <ele>1449.0</ele>
        <time>2018-09-02T11:54:42Z</time>
      </trkpt>
      <trkpt lat="40.485133" lon="-5.267950">
        <ele>1450.0</ele>
        <time>2018-09-02T11:54:43Z</time>
      </trkpt>
      <trkpt lat="40.485150" lon="-5.268017">
        <ele>1452.0</ele>
        <time>2018-09-02T11:54:44Z</time>
      </trkpt>
      <trkpt lat="40.485150" lon="-5.268083">
        <ele>1453.0</ele>
        <time>2018-09-02T11:54:45Z</time>
      </trkpt>
      <trkpt lat="40.485117" lon="-5.268183">
        <ele>1454.0</ele>
        <time>2018-09-02T11:54:46Z</time>
      </trkpt>
      <trkpt lat="40.485050" lon="-5.268250">
        <ele>1455.0</ele>
        <time>2018-09-02T11:54:47Z</time>
      </trkpt>
      <trkpt lat="40.484950" lon="-5.268250">
        <ele>1455.0</ele>
        <time>2018-09-02T11:54:48Z</time>
      </trkpt>
      <trkpt lat="40.484867" lon="-5.268200">
        <ele>1456.0</ele>
        <time>2018-09-02T11:54:49Z</time>
      </trkpt>
      <trkpt lat="40.484800" lon="-5.268100">
        <ele>1456.0</ele>
        <time>2018-09-02T11:54:50Z</time>
      </trkpt>
      <trkpt lat="40.484783" lon="-5.267967">
        <ele>1457.0</ele>
        <time>2018-09-02T11:54:51Z</time>
      </trkpt>
      <trkpt lat="40.484800" lon="-5.267833">
        <ele>1457.0</ele>
        <time>2018-09-02T11:54:52Z</time>
      </trkpt>
      <trkpt lat="40.484850" lon="-5.267733">
        <ele>1459.0</ele>
        <time>2018-09-02T11:54:53Z</time>
      </trkpt>
      <trkpt lat="40.484933" lon="-5.267650">
        <ele>1460.0</ele>
        <time>2018-09-02T11:54:54Z</time>
      </trkpt>
      <trkpt lat="40.485017" lon="-5.267617">
        <ele>1461.0</ele>
        <time>2018-09-02T11:54:55Z</time>
      </trkpt>
      <trkpt lat="40.485100" lon="-5.267633">
        <ele>1463.0</ele>
        <time>2018-09-02T11:54:56Z</time>
      </trkpt>
      <trkpt lat="40.485150" lon="-5.267683">
        <ele>1465.0</ele>
        <time>2018-09-02T11:54:57Z</time>
      </trkpt>
      <trkpt lat="40.485150" lon="-5.267783">
        <ele>1465.0</ele>
        <time>2018-09-02T11:54:58Z</time>
      </trkpt>
      <trkpt lat="40.485117" lon="-5.267867">
        <ele>1466.0</ele>
        <time>2018-09-02T11:54:59Z</time>
      </trkpt>
      <trkpt lat="40.485067" lon="-5.267950">
        <ele>1467.0</ele>
        <time>2018-09-02T11:55:00Z</time>
      </trkpt>
      <trkpt lat="40.485017" lon="-5.268000">
        <ele>1469.0</ele>
        <time>2018-09-02T11:55:01Z</time>
      </trkpt>
      <trkpt lat="40.484967" lon="-5.268033">
        <ele>1472.0</ele>
        <time>2018-09-02T11:55:02Z</time>
      </trkpt>
      <trkpt lat="40.484883" lon="-5.268033">
        <ele>1473.0</ele>
        <time>2018-09-02T11:55:03Z</time>
      </trkpt>
      <trkpt lat="40.484800" lon="-5.268017">
        <ele>1474.0</ele>
        <time>2018-09-02T11:55:04Z</time>
      </trkpt>
      <trkpt lat="40.484717" lon="-5.267950">
        <ele>1475.0</ele>
        <time>2018-09-02T11:55:05Z</time>
      </trkpt>
      <trkpt lat="40.484650" lon="-5.267867">
        <ele>1476.0</ele>
        <time>2018-09-02T11:55:06Z</time>
      </trkpt>
      <trkpt lat="40.484633" lon="-5.267733">
        <ele>1477.0</ele>
        <time>2018-09-02T11:55:07Z</time>
      </trkpt>
      <trkpt lat="40.484667" lon="-5.267617">
        <ele>1477.0</ele>
        <time>2018-09-02T11:55:08Z</time>
      </trkpt>
      <trkpt lat="40.484717" lon="-5.267500">
        <ele>1478.0</ele>
        <time>2018-09-02T11:55:09Z</time>
      </trkpt>
      <trkpt lat="40.484800" lon="-5.267450">
        <ele>1478.0</ele>
        <time>2018-09-02T11:55:10Z</time>
      </trkpt>
      <trkpt lat="40.484883" lon="-5.267450">
        <ele>1479.0</ele>
        <time>2018-09-02T11:55:11Z</time>
      </trkpt>
      <trkpt lat="40.484950" lon="-5.267500">
        <ele>1479.0</ele>
        <time>2018-09-02T11:55:12Z</time>
      </trkpt>
      <trkpt lat="40.484983" lon="-5.267600">
        <ele>1479.0</ele>
        <time>2018-09-02T11:55:13Z</time>
      </trkpt>
      <trkpt lat="40.484983" lon="-5.267683">
        <ele>1480.0</ele>
        <time>2018-09-02T11:55:14Z</time>
      </trkpt>
      <trkpt lat="40.484967" lon="-5.267750">
        <ele>1482.0</ele>
        <time>2018-09-02T11:55:15Z</time>
      </trkpt>
      <trkpt lat="40.484917" lon="-5.267817">
        <ele>1483.0</ele>
        <time>2018-09-02T11:55:16Z</time>
      </trkpt>
      <trkpt lat="40.484867" lon="-5.267867">
        <ele>1485.0</ele>
        <time>2018-09-02T11:55:17Z</time>
      </trkpt>
      <trkpt lat="40.484817" lon="-5.267917">
        <ele>1486.0</ele>
        <time>2018-09-02T11:55:18Z</time>
      </trkpt>
      <trkpt lat="40.484733" lon="-5.268083">
        <ele>1487.0</ele>
        <time>2018-09-02T11:55:20Z</time>
      </trkpt>
      <trkpt lat="40.484717" lon="-5.268183">
        <ele>1489.0</ele>
        <time>2018-09-02T11:55:21Z</time>
      </trkpt>
      <trkpt lat="40.484750" lon="-5.268283">
        <ele>1490.0</ele>
        <time>2018-09-02T11:55:22Z</time>
      </trkpt>
      <trkpt lat="40.484817" lon="-5.268367">
        <ele>1490.0</ele>
        <time>2018-09-02T11:55:23Z</time>
      </trkpt>
      <trkpt lat="40.484900" lon="-5.268417">
        <ele>1490.0</ele>
        <time>2018-09-02T11:55:24Z</time>
      </trkpt>
      <trkpt lat="40.485017" lon="-5.268400">
        <ele>1489.0</ele>
        <time>2018-09-02T11:55:25Z</time>
      </trkpt>
      <trkpt lat="40.485117" lon="-5.268333">
        <ele>1489.0</ele>
        <time>2018-09-02T11:55:26Z</time>
      </trkpt>
      <trkpt lat="40.485183" lon="-5.268233">
        <ele>1489.0</ele>
        <time>2018-09-02T11:55:27Z</time>
      </trkpt>
      <trkpt lat="40.485217" lon="-5.268100">
        <ele>1487.0</ele>
        <time>2018-09-02T11:55:28Z</time>
      </trkpt>
      <trkpt lat="40.485217" lon="-5.267967">
        <ele>1487.0</ele>
        <time>2018-09-02T11:55:29Z</time>
      </trkpt>
      <trkpt lat="40.485183" lon="-5.267867">
        <ele>1487.0</ele>
        <time>2018-09-02T11:55:30Z</time>
      </trkpt>
      <trkpt lat="40.485117" lon="-5.267800">
        <ele>1488.0</ele>
        <time>2018-09-02T11:55:31Z</time>
      </trkpt>
      <trkpt lat="40.485050" lon="-5.267767">
        <ele>1489.0</ele>
        <time>2018-09-02T11:55:32Z</time>
      </trkpt>
      <trkpt lat="40.484983" lon="-5.267750">
        <ele>1490.0</ele>
        <time>2018-09-02T11:55:33Z</time>
      </trkpt>
      <trkpt lat="40.484933" lon="-5.267750">
        <ele>1493.0</ele>
        <time>2018-09-02T11:55:34Z</time>
      </trkpt>
      <trkpt lat="40.484867" lon="-5.267733">
        <ele>1494.0</ele>
        <time>2018-09-02T11:55:35Z</time>
      </trkpt>
      <trkpt lat="40.484817" lon="-5.267733">
        <ele>1495.0</ele>
        <time>2018-09-02T11:55:36Z</time>
      </trkpt>
      <trkpt lat="40.484750" lon="-5.267750">
        <ele>1495.0</ele>
        <time>2018-09-02T11:55:37Z</time>
      </trkpt>
      <trkpt lat="40.484683" lon="-5.267800">
        <ele>1495.0</ele>
        <time>2018-09-02T11:55:38Z</time>
      </trkpt>
      <trkpt lat="40.484667" lon="-5.267883">
        <ele>1495.0</ele>
        <time>2018-09-02T11:55:39Z</time>
      </trkpt>
      <trkpt lat="40.484717" lon="-5.267967">
        <ele>1494.0</ele>
        <time>2018-09-02T11:55:40Z</time>
      </trkpt>
      <trkpt lat="40.484783" lon="-5.268033">
        <ele>1493.0</ele>
        <time>2018-09-02T11:55:41Z</time>
      </trkpt>
      <trkpt lat="40.484883" lon="-5.268067">
        <ele>1492.0</ele>
        <time>2018-09-02T11:55:42Z</time>
      </trkpt>
      <trkpt lat="40.484983" lon="-5.268033">
        <ele>1492.0</ele>
        <time>2018-09-02T11:55:43Z</time>
      </trkpt>
      <trkpt lat="40.485083" lon="-5.267933">
        <ele>1492.0</ele>
        <time>2018-09-02T11:55:44Z</time>
      </trkpt>
      <trkpt lat="40.485133" lon="-5.267800">
        <ele>1492.0</ele>
        <time>2018-09-02T11:55:45Z</time>
      </trkpt>
      <trkpt lat="40.485150" lon="-5.267667">
        <ele>1493.0</ele>
        <time>2018-09-02T11:55:46Z</time>
      </trkpt>
      <trkpt lat="40.485117" lon="-5.267550">
        <ele>1494.0</ele>
        <time>2018-09-02T11:55:47Z</time>
      </trkpt>
      <trkpt lat="40.485050" lon="-5.267467">
        <ele>1495.0</ele>
        <time>2018-09-02T11:55:48Z</time>
      </trkpt>
      <trkpt lat="40.484967" lon="-5.267433">
        <ele>1496.0</ele>
        <time>2018-09-02T11:55:49Z</time>
      </trkpt>
      <trkpt lat="40.484917" lon="-5.267433">
        <ele>1496.0</ele>
        <time>2018-09-02T11:55:50Z</time>
      </trkpt>
      <trkpt lat="40.484867" lon="-5.267433">
        <ele>1497.0</ele>
        <time>2018-09-02T11:55:51Z</time>
      </trkpt>
      <trkpt lat="40.484817" lon="-5.267450">
        <ele>1498.0</ele>
        <time>2018-09-02T11:55:52Z</time>
      </trkpt>
      <trkpt lat="40.484783" lon="-5.267450">
        <ele>1498.0</ele>
        <time>2018-09-02T11:55:53Z</time>
      </trkpt>
      <trkpt lat="40.484733" lon="-5.267483">
        <ele>1497.0</ele>
        <time>2018-09-02T11:55:54Z</time>
      </trkpt>
      <trkpt lat="40.484700" lon="-5.267550">
        <ele>1497.0</ele>
        <time>2018-09-02T11:55:55Z</time>
      </trkpt>
      <trkpt lat="40.484683" lon="-5.267633">
        <ele>1497.0</ele>
        <time>2018-09-02T11:55:56Z</time>
      </trkpt>
      <trkpt lat="40.484717" lon="-5.267717">
        <ele>1497.0</ele>
        <time>2018-09-02T11:55:57Z</time>
      </trkpt>
      <trkpt lat="40.484783" lon="-5.267767">
        <ele>1498.0</ele>
        <time>2018-09-02T11:55:58Z</time>
      </trkpt>
      <trkpt lat="40.484883" lon="-5.267783">
        <ele>1497.0</ele>
        <time>2018-09-02T11:55:59Z</time>
      </trkpt>
      <trkpt lat="40.485067" lon="-5.267683">
        <ele>1498.0</ele>
        <time>2018-09-02T11:56:01Z</time>
      </trkpt>
      <trkpt lat="40.485150" lon="-5.267600">
        <ele>1499.0</ele>
        <time>2018-09-02T11:56:02Z</time>
      </trkpt>
      <trkpt lat="40.485200" lon="-5.267483">
        <ele>1500.0</ele>
        <time>2018-09-02T11:56:03Z</time>
      </trkpt>
      <trkpt lat="40.485233" lon="-5.267350">
        <ele>1500.0</ele>
        <time>2018-09-02T11:56:04Z</time>
      </trkpt>
      <trkpt lat="40.485217" lon="-5.267200">
        <ele>1501.0</ele>
        <time>2018-09-02T11:56:05Z</time>
      </trkpt>
      <trkpt lat="40.485167" lon="-5.267083">
        <ele>1503.0</ele>
        <time>2018-09-02T11:56:06Z</time>
      </trkpt>
      <trkpt lat="40.485117" lon="-5.267017">
        <ele>1504.0</ele>
        <time>2018-09-02T11:56:07Z</time>
      </trkpt>
      <trkpt lat="40.485067" lon="-5.266967">
        <ele>1506.0</ele>
        <time>2018-09-02T11:56:08Z</time>
      </trkpt>
      <trkpt lat="40.485033" lon="-5.266917">
        <ele>1507.0</ele>
        <time>2018-09-02T11:56:09Z</time>
      </trkpt>
      <trkpt lat="40.484967" lon="-5.266867">
        <ele>1508.0</ele>
        <time>2018-09-02T11:56:10Z</time>
      </trkpt>
      <trkpt lat="40.484900" lon="-5.266833">
        <ele>1509.0</ele>
        <time>2018-09-02T11:56:11Z</time>
      </trkpt>
      <trkpt lat="40.484817" lon="-5.266833">
        <ele>1509.0</ele>
        <time>2018-09-02T11:56:12Z</time>
      </trkpt>
      <trkpt lat="40.484767" lon="-5.266867">
        <ele>1509.0</ele>
        <time>2018-09-02T11:56:13Z</time>
      </trkpt>
      <trkpt lat="40.484733" lon="-5.266933">
        <ele>1510.0</ele>
        <time>2018-09-02T11:56:14Z</time>
      </trkpt>
      <trkpt lat="40.484733" lon="-5.267017">
        <ele>1510.0</ele>
        <time>2018-09-02T11:56:15Z</time>
      </trkpt>
      <trkpt lat="40.484783" lon="-5.267100">
        <ele>1510.0</ele>
        <time>2018-09-02T11:56:16Z</time>
      </trkpt>
      <trkpt lat="40.484850" lon="-5.267150">
        <ele>1510.0</ele>
        <time>2018-09-02T11:56:17Z</time>
      </trkpt>
      <trkpt lat="40.484950" lon="-5.267150">
        <ele>1510.0</ele>
        <time>2018-09-02T11:56:18Z</time>
      </trkpt>
      <trkpt lat="40.485033" lon="-5.267100">
        <ele>1511.0</ele>
        <time>2018-09-02T11:56:19Z</time>
      </trkpt>
      <trkpt lat="40.485117" lon="-5.267000">
        <ele>1512.0</ele>
        <time>2018-09-02T11:56:20Z</time>
      </trkpt>
      <trkpt lat="40.485167" lon="-5.266867">
        <ele>1512.0</ele>
        <time>2018-09-02T11:56:21Z</time>
      </trkpt>
      <trkpt lat="40.485183" lon="-5.266733">
        <ele>1513.0</ele>
        <time>2018-09-02T11:56:22Z</time>
      </trkpt>
      <trkpt lat="40.485183" lon="-5.266583">
        <ele>1514.0</ele>
        <time>2018-09-02T11:56:23Z</time>
      </trkpt>
      <trkpt lat="40.485150" lon="-5.266467">
        <ele>1516.0</ele>
        <time>2018-09-02T11:56:24Z</time>
      </trkpt>
      <trkpt lat="40.485100" lon="-5.266367">
        <ele>1518.0</ele>
        <time>2018-09-02T11:56:25Z</time>
      </trkpt>
      <trkpt lat="40.485033" lon="-5.266317">
        <ele>1520.0</ele>
        <time>2018-09-02T11:56:26Z</time>
      </trkpt>
      <trkpt lat="40.484967" lon="-5.266300">
        <ele>1521.0</ele>
        <time>2018-09-02T11:56:27Z</time>
      </trkpt>
      <trkpt lat="40.484900" lon="-5.266317">
        <ele>1521.0</ele>
        <time>2018-09-02T11:56:28Z</time>
      </trkpt>
      <trkpt lat="40.484850" lon="-5.266333">
        <ele>1522.0</ele>
        <time>2018-09-02T11:56:29Z</time>
      </trkpt>
      <trkpt lat="40.484817" lon="-5.266383">
        <ele>1523.0</ele>
        <time>2018-09-02T11:56:30Z</time>
      </trkpt>
      <trkpt lat="40.484817" lon="-5.266450">
        <ele>1523.0</ele>
        <time>2018-09-02T11:56:31Z</time>
      </trkpt>
      <trkpt lat="40.484850" lon="-5.266533">
        <ele>1523.0</ele>
        <time>2018-09-02T11:56:32Z</time>
      </trkpt>
      <trkpt lat="40.484917" lon="-5.266567">
        <ele>1523.0</ele>
        <time>2018-09-02T11:56:33Z</time>
      </trkpt>
      <trkpt lat="40.485000" lon="-5.266583">
        <ele>1522.0</ele>
        <time>2018-09-02T11:56:34Z</time>
      </trkpt>
      <trkpt lat="40.485100" lon="-5.266533">
        <ele>1522.0</ele>
        <time>2018-09-02T11:56:35Z</time>
      </trkpt>
      <trkpt lat="40.485183" lon="-5.266467">
        <ele>1522.0</ele>
        <time>2018-09-02T11:56:36Z</time>
      </trkpt>
      <trkpt lat="40.485267" lon="-5.266367">
        <ele>1523.0</ele>
        <time>2018-09-02T11:56:37Z</time>
      </trkpt>
      <trkpt lat="40.485350" lon="-5.266233">
        <ele>1524.0</ele>
        <time>2018-09-02T11:56:38Z</time>
      </trkpt>
      <trkpt lat="40.485383" lon="-5.266100">
        <ele>1526.0</ele>
        <time>2018-09-02T11:56:39Z</time>
      </trkpt>
      <trkpt lat="40.485400" lon="-5.265950">
        <ele>1528.0</ele>
        <time>2018-09-02T11:56:40Z</time>
      </trkpt>
      <trkpt lat="40.485367" lon="-5.265800">
        <ele>1531.0</ele>
        <time>2018-09-02T11:56:41Z</time>
      </trkpt>
      <trkpt lat="40.485333" lon="-5.265683">
        <ele>1534.0</ele>
        <time>2018-09-02T11:56:42Z</time>
      </trkpt>
      <trkpt lat="40.485267" lon="-5.265600">
        <ele>1535.0</ele>
        <time>2018-09-02T11:56:43Z</time>
      </trkpt>
      <trkpt lat="40.485217" lon="-5.265550">
        <ele>1537.0</ele>
        <time>2018-09-02T11:56:44Z</time>
      </trkpt>
      <trkpt lat="40.485150" lon="-5.265533">
        <ele>1538.0</ele>
        <time>2018-09-02T11:56:45Z</time>
      </trkpt>
      <trkpt lat="40.485100" lon="-5.265567">
        <ele>1538.0</ele>
        <time>2018-09-02T11:56:46Z</time>
      </trkpt>
      <trkpt lat="40.485083" lon="-5.265633">
        <ele>1539.0</ele>
        <time>2018-09-02T11:56:47Z</time>
      </trkpt>
      <trkpt lat="40.485100" lon="-5.265700">
        <ele>1539.0</ele>
        <time>2018-09-02T11:56:48Z</time>
      </trkpt>
      <trkpt lat="40.485150" lon="-5.265767">
        <ele>1539.0</ele>
        <time>2018-09-02T11:56:49Z</time>
      </trkpt>
      <trkpt lat="40.485217" lon="-5.265817">
        <ele>1539.0</ele>
        <time>2018-09-02T11:56:50Z</time>
      </trkpt>
      <trkpt lat="40.485300" lon="-5.265833">
        <ele>1540.0</ele>
        <time>2018-09-02T11:56:51Z</time>
      </trkpt>
      <trkpt lat="40.485400" lon="-5.265817">
        <ele>1542.0</ele>
        <time>2018-09-02T11:56:52Z</time>
      </trkpt>
      <trkpt lat="40.485483" lon="-5.265783">
        <ele>1543.0</ele>
        <time>2018-09-02T11:56:53Z</time>
      </trkpt>
      <trkpt lat="40.485583" lon="-5.265700">
        <ele>1544.0</ele>
        <time>2018-09-02T11:56:54Z</time>
      </trkpt>
      <trkpt lat="40.485650" lon="-5.265600">
        <ele>1546.0</ele>
        <time>2018-09-02T11:56:55Z</time>
      </trkpt>
      <trkpt lat="40.485683" lon="-5.265467">
        <ele>1548.0</ele>
        <time>2018-09-02T11:56:56Z</time>
      </trkpt>
      <trkpt lat="40.485683" lon="-5.265333">
        <ele>1550.0</ele>
        <time>2018-09-02T11:56:57Z</time>
      </trkpt>
      <trkpt lat="40.485667" lon="-5.265217">
        <ele>1551.0</ele>
        <time>2018-09-02T11:56:58Z</time>
      </trkpt>
      <trkpt lat="40.485600" lon="-5.265133">
        <ele>1553.0</ele>
        <time>2018-09-02T11:56:59Z</time>
      </trkpt>
      <trkpt lat="40.485533" lon="-5.265083">
        <ele>1554.0</ele>
        <time>2018-09-02T11:57:00Z</time>
      </trkpt>
      <trkpt lat="40.485450" lon="-5.265100">
        <ele>1555.0</ele>
        <time>2018-09-02T11:57:01Z</time>
      </trkpt>
      <trkpt lat="40.485367" lon="-5.265250">
        <ele>1557.0</ele>
        <time>2018-09-02T11:57:03Z</time>
      </trkpt>
      <trkpt lat="40.485400" lon="-5.265333">
        <ele>1558.0</ele>
        <time>2018-09-02T11:57:04Z</time>
      </trkpt>
      <trkpt lat="40.485450" lon="-5.265400">
        <ele>1559.0</ele>
        <time>2018-09-02T11:57:05Z</time>
      </trkpt>
      <trkpt lat="40.485517" lon="-5.265450">
        <ele>1560.0</ele>
        <time>2018-09-02T11:57:06Z</time>
      </trkpt>
      <trkpt lat="40.485617" lon="-5.265450">
        <ele>1560.0</ele>
        <time>2018-09-02T11:57:07Z</time>
      </trkpt>
      <trkpt lat="40.485700" lon="-5.265417">
        <ele>1560.0</ele>
        <time>2018-09-02T11:57:08Z</time>
      </trkpt>
      <trkpt lat="40.485800" lon="-5.265333">
        <ele>1561.0</ele>
        <time>2018-09-02T11:57:09Z</time>
      </trkpt>
      <trkpt lat="40.485850" lon="-5.265217">
        <ele>1562.0</ele>
        <time>2018-09-02T11:57:10Z</time>
      </trkpt>
      <trkpt lat="40.485867" lon="-5.265083">
        <ele>1563.0</ele>
        <time>2018-09-02T11:57:11Z</time>
      </trkpt>
      <trkpt lat="40.485833" lon="-5.264950">
        <ele>1564.0</ele>
        <time>2018-09-02T11:57:12Z</time>
      </trkpt>
      <trkpt lat="40.485783" lon="-5.264867">
        <ele>1566.0</ele>
        <time>2018-09-02T11:57:13Z</time>
      </trkpt>
      <trkpt lat="40.485700" lon="-5.264833">
        <ele>1566.0</ele>
        <time>2018-09-02T11:57:14Z</time>
      </trkpt>
      <trkpt lat="40.485633" lon="-5.264850">
        <ele>1567.0</ele>
        <time>2018-09-02T11:57:15Z</time>
      </trkpt>
      <trkpt lat="40.485567" lon="-5.264883">
        <ele>1568.0</ele>
        <time>2018-09-02T11:57:16Z</time>
      </trkpt>
      <trkpt lat="40.485550" lon="-5.264967">
        <ele>1569.0</ele>
        <time>2018-09-02T11:57:17Z</time>
      </trkpt>
      <trkpt lat="40.485567" lon="-5.265050">
        <ele>1570.0</ele>
        <time>2018-09-02T11:57:18Z</time>
      </trkpt>
      <trkpt lat="40.485633" lon="-5.265133">
        <ele>1570.0</ele>
        <time>2018-09-02T11:57:19Z</time>
      </trkpt>
      <trkpt lat="40.485717" lon="-5.265183">
        <ele>1570.0</ele>
        <time>2018-09-02T11:57:20Z</time>
      </trkpt>
      <trkpt lat="40.485817" lon="-5.265183">
        <ele>1570.0</ele>
        <time>2018-09-02T11:57:21Z</time>
      </trkpt>
      <trkpt lat="40.485917" lon="-5.265150">
        <ele>1570.0</ele>
        <time>2018-09-02T11:57:22Z</time>
      </trkpt>
      <trkpt lat="40.486017" lon="-5.265050">
        <ele>1570.0</ele>
        <time>2018-09-02T11:57:23Z</time>
      </trkpt>
      <trkpt lat="40.486083" lon="-5.264933">
        <ele>1570.0</ele>
        <time>2018-09-02T11:57:24Z</time>
      </trkpt>
      <trkpt lat="40.486117" lon="-5.264783">
        <ele>1571.0</ele>
        <time>2018-09-02T11:57:25Z</time>
      </trkpt>
      <trkpt lat="40.486100" lon="-5.264650">
        <ele>1572.0</ele>
        <time>2018-09-02T11:57:26Z</time>
      </trkpt>
      <trkpt lat="40.486083" lon="-5.264533">
        <ele>1573.0</ele>
        <time>2018-09-02T11:57:27Z</time>
      </trkpt>
      <trkpt lat="40.486033" lon="-5.264433">
        <ele>1575.0</ele>
        <time>2018-09-02T11:57:28Z</time>
      </trkpt>
      <trkpt lat="40.485983" lon="-5.264350">
        <ele>1577.0</ele>
        <time>2018-09-02T11:57:29Z</time>
      </trkpt>
      <trkpt lat="40.485933" lon="-5.264283">
        <ele>1580.0</ele>
        <time>2018-09-02T11:57:30Z</time>
      </trkpt>
      <trkpt lat="40.485867" lon="-5.264217">
        <ele>1581.0</ele>
        <time>2018-09-02T11:57:31Z</time>
      </trkpt>
      <trkpt lat="40.485800" lon="-5.264183">
        <ele>1583.0</ele>
        <time>2018-09-02T11:57:32Z</time>
      </trkpt>
      <trkpt lat="40.485733" lon="-5.264183">
        <ele>1584.0</ele>
        <time>2018-09-02T11:57:33Z</time>
      </trkpt>
      <trkpt lat="40.485683" lon="-5.264233">
        <ele>1584.0</ele>
        <time>2018-09-02T11:57:34Z</time>
      </trkpt>
      <trkpt lat="40.485667" lon="-5.264317">
        <ele>1584.0</ele>
        <time>2018-09-02T11:57:35Z</time>
      </trkpt>
      <trkpt lat="40.485683" lon="-5.264400">
        <ele>1585.0</ele>
        <time>2018-09-02T11:57:36Z</time>
      </trkpt>
      <trkpt lat="40.485750" lon="-5.264467">
        <ele>1585.0</ele>
        <time>2018-09-02T11:57:37Z</time>
      </trkpt>
      <trkpt lat="40.485833" lon="-5.264517">
        <ele>1586.0</ele>
        <time>2018-09-02T11:57:38Z</time>
      </trkpt>
      <trkpt lat="40.485950" lon="-5.264500">
        <ele>1587.0</ele>
        <time>2018-09-02T11:57:39Z</time>
      </trkpt>
      <trkpt lat="40.486117" lon="-5.264300">
        <ele>1586.0</ele>
        <time>2018-09-02T11:57:41Z</time>
      </trkpt>
      <trkpt lat="40.486167" lon="-5.264167">
        <ele>1586.0</ele>
        <time>2018-09-02T11:57:42Z</time>
      </trkpt>
      <trkpt lat="40.486183" lon="-5.264017">
        <ele>1586.0</ele>
        <time>2018-09-02T11:57:43Z</time>
      </trkpt>
      <trkpt lat="40.486167" lon="-5.263883">
        <ele>1587.0</ele>
        <time>2018-09-02T11:57:44Z</time>
      </trkpt>
      <trkpt lat="40.486150" lon="-5.263767">
        <ele>1588.0</ele>
        <time>2018-09-02T11:57:45Z</time>
      </trkpt>
      <trkpt lat="40.486100" lon="-5.263683">
        <ele>1590.0</ele>
        <time>2018-09-02T11:57:46Z</time>
      </trkpt>
      <trkpt lat="40.486067" lon="-5.263617">
        <ele>1591.0</ele>
        <time>2018-09-02T11:57:47Z</time>
      </trkpt>
      <trkpt lat="40.486033" lon="-5.263550">
        <ele>1591.0</ele>
        <time>2018-09-02T11:57:48Z</time>
      </trkpt>
      <trkpt lat="40.485983" lon="-5.263467">
        <ele>1592.0</ele>
        <time>2018-09-02T11:57:49Z</time>
      </trkpt>
      <trkpt lat="40.485933" lon="-5.263383">
        <ele>1592.0</ele>
        <time>2018-09-02T11:57:50Z</time>
      </trkpt>
      <trkpt lat="40.485867" lon="-5.263317">
        <ele>1591.0</ele>
        <time>2018-09-02T11:57:51Z</time>
      </trkpt>
      <trkpt lat="40.485817" lon="-5.263300">
        <ele>1592.0</ele>
        <time>2018-09-02T11:57:52Z</time>
      </trkpt>
      <trkpt lat="40.485767" lon="-5.263300">
        <ele>1592.0</ele>
        <time>2018-09-02T11:57:53Z</time>
      </trkpt>
      <trkpt lat="40.485733" lon="-5.263317">
        <ele>1592.0</ele>
        <time>2018-09-02T11:57:54Z</time>
      </trkpt>
      <trkpt lat="40.485700" lon="-5.263333">
        <ele>1593.0</ele>
        <time>2018-09-02T11:57:55Z</time>
      </trkpt>
      <trkpt lat="40.485667" lon="-5.263350">
        <ele>1594.0</ele>
        <time>2018-09-02T11:57:56Z</time>
      </trkpt>
      <trkpt lat="40.485617" lon="-5.263383">
        <ele>1594.0</ele>
        <time>2018-09-02T11:57:57Z</time>
      </trkpt>
      <trkpt lat="40.485583" lon="-5.263433">
        <ele>1595.0</ele>
        <time>2018-09-02T11:57:58Z</time>
      </trkpt>
      <trkpt lat="40.485583" lon="-5.263500">
        <ele>1596.0</ele>
        <time>2018-09-02T11:57:59Z</time>
      </trkpt>
      <trkpt lat="40.485600" lon="-5.263550">
        <ele>1597.0</ele>
        <time>2018-09-02T11:58:00Z</time>
      </trkpt>
      <trkpt lat="40.485633" lon="-5.263633">
        <ele>1596.0</ele>
        <time>2018-09-02T11:58:01Z</time>
      </trkpt>
      <trkpt lat="40.485683" lon="-5.263683">
        <ele>1596.0</ele>
        <time>2018-09-02T11:58:02Z</time>
      </trkpt>
      <trkpt lat="40.485850" lon="-5.263750">
        <ele>1594.0</ele>
        <time>2018-09-02T11:58:04Z</time>
      </trkpt>
      <trkpt lat="40.485967" lon="-5.263733">
        <ele>1593.0</ele>
        <time>2018-09-02T11:58:05Z</time>
      </trkpt>
      <trkpt lat="40.486083" lon="-5.263683">
        <ele>1593.0</ele>
        <time>2018-09-02T11:58:06Z</time>
      </trkpt>
      <trkpt lat="40.486183" lon="-5.263583">
        <ele>1592.0</ele>
        <time>2018-09-02T11:58:07Z</time>
      </trkpt>
      <trkpt lat="40.486250" lon="-5.263450">
        <ele>1592.0</ele>
        <time>2018-09-02T11:58:08Z</time>
      </trkpt>
      <trkpt lat="40.486283" lon="-5.263317">
        <ele>1591.0</ele>
        <time>2018-09-02T11:58:09Z</time>
      </trkpt>
      <trkpt lat="40.486283" lon="-5.263167">
        <ele>1591.0</ele>
        <time>2018-09-02T11:58:10Z</time>
      </trkpt>
      <trkpt lat="40.486267" lon="-5.263033">
        <ele>1591.0</ele>
        <time>2018-09-02T11:58:11Z</time>
      </trkpt>
      <trkpt lat="40.486233" lon="-5.262933">
        <ele>1592.0</ele>
        <time>2018-09-02T11:58:12Z</time>
      </trkpt>
      <trkpt lat="40.486183" lon="-5.262850">
        <ele>1592.0</ele>
        <time>2018-09-02T11:58:13Z</time>
      </trkpt>
      <trkpt lat="40.486150" lon="-5.262783">
        <ele>1593.0</ele>
        <time>2018-09-02T11:58:14Z</time>
      </trkpt>
      <trkpt lat="40.486100" lon="-5.262700">
        <ele>1594.0</ele>
        <time>2018-09-02T11:58:15Z</time>
      </trkpt>
      <trkpt lat="40.486050" lon="-5.262617">
        <ele>1596.0</ele>
        <time>2018-09-02T11:58:16Z</time>
      </trkpt>
      <trkpt lat="40.486000" lon="-5.262533">
        <ele>1597.0</ele>
        <time>2018-09-02T11:58:17Z</time>
      </trkpt>
      <trkpt lat="40.485950" lon="-5.262483">
        <ele>1598.0</ele>
        <time>2018-09-02T11:58:18Z</time>
      </trkpt>
      <trkpt lat="40.485900" lon="-5.262450">
        <ele>1598.0</ele>
        <time>2018-09-02T11:58:19Z</time>
      </trkpt>
      <trkpt lat="40.485850" lon="-5.262450">
        <ele>1598.0</ele>
        <time>2018-09-02T11:58:20Z</time>
      </trkpt>
      <trkpt lat="40.485800" lon="-5.262467">
        <ele>1597.0</ele>
        <time>2018-09-02T11:58:21Z</time>
      </trkpt>
      <trkpt lat="40.485767" lon="-5.262517">
        <ele>1596.0</ele>
        <time>2018-09-02T11:58:22Z</time>
      </trkpt>
      <trkpt lat="40.485767" lon="-5.262567">
        <ele>1594.0</ele>
        <time>2018-09-02T11:58:23Z</time>
      </trkpt>
      <trkpt lat="40.485800" lon="-5.262617">
        <ele>1593.0</ele>
        <time>2018-09-02T11:58:24Z</time>
      </trkpt>
      <trkpt lat="40.485950" lon="-5.262617">
        <ele>1589.0</ele>
        <time>2018-09-02T11:58:26Z</time>
      </trkpt>
      <trkpt lat="40.486067" lon="-5.262583">
        <ele>1586.0</ele>
        <time>2018-09-02T11:58:27Z</time>
      </trkpt>
      <trkpt lat="40.486167" lon="-5.262517">
        <ele>1584.0</ele>
        <time>2018-09-02T11:58:28Z</time>
      </trkpt>
      <trkpt lat="40.486283" lon="-5.262433">
        <ele>1583.0</ele>
        <time>2018-09-02T11:58:29Z</time>
      </trkpt>
      <trkpt lat="40.486367" lon="-5.262367">
        <ele>1587.0</ele>
        <time>2018-09-02T11:58:30Z</time>
      </trkpt>
      <trkpt lat="40.486450" lon="-5.262317">
        <ele>1589.0</ele>
        <time>2018-09-02T11:58:31Z</time>
      </trkpt>
      <trkpt lat="40.486533" lon="-5.262300">
        <ele>1591.0</ele>
        <time>2018-09-02T11:58:32Z</time>
      </trkpt>
      <trkpt lat="40.486617" lon="-5.262317">
        <ele>1591.0</ele>
        <time>2018-09-02T11:58:33Z</time>
      </trkpt>
      <trkpt lat="40.486700" lon="-5.262367">
        <ele>1592.0</ele>
        <time>2018-09-02T11:58:34Z</time>
      </trkpt>
      <trkpt lat="40.486767" lon="-5.262450">
        <ele>1593.0</ele>
        <time>2018-09-02T11:58:35Z</time>
      </trkpt>
      <trkpt lat="40.486783" lon="-5.262533">
        <ele>1593.0</ele>
        <time>2018-09-02T11:58:36Z</time>
      </trkpt>
      <trkpt lat="40.486767" lon="-5.262617">
        <ele>1594.0</ele>
        <time>2018-09-02T11:58:37Z</time>
      </trkpt>
      <trkpt lat="40.486717" lon="-5.262667">
        <ele>1595.0</ele>
        <time>2018-09-02T11:58:38Z</time>
      </trkpt>
      <trkpt lat="40.486667" lon="-5.262667">
        <ele>1595.0</ele>
        <time>2018-09-02T11:58:39Z</time>
      </trkpt>
      <trkpt lat="40.486600" lon="-5.262633">
        <ele>1595.0</ele>
        <time>2018-09-02T11:58:40Z</time>
      </trkpt>
      <trkpt lat="40.486550" lon="-5.262550">
        <ele>1596.0</ele>
        <time>2018-09-02T11:58:41Z</time>
      </trkpt>
      <trkpt lat="40.486533" lon="-5.262450">
        <ele>1597.0</ele>
        <time>2018-09-02T11:58:42Z</time>
      </trkpt>
      <trkpt lat="40.486533" lon="-5.262300">
        <ele>1596.0</ele>
        <time>2018-09-02T11:58:43Z</time>
      </trkpt>
      <trkpt lat="40.486567" lon="-5.262150">
        <ele>1596.0</ele>
        <time>2018-09-02T11:58:44Z</time>
      </trkpt>
      <trkpt lat="40.486633" lon="-5.262033">
        <ele>1596.0</ele>
        <time>2018-09-02T11:58:45Z</time>
      </trkpt>
      <trkpt lat="40.486733" lon="-5.261933">
        <ele>1596.0</ele>
        <time>2018-09-02T11:58:46Z</time>
      </trkpt>
      <trkpt lat="40.486850" lon="-5.261883">
        <ele>1597.0</ele>
        <time>2018-09-02T11:58:47Z</time>
      </trkpt>
      <trkpt lat="40.486967" lon="-5.261867">
        <ele>1598.0</ele>
        <time>2018-09-02T11:58:48Z</time>
      </trkpt>
      <trkpt lat="40.487050" lon="-5.261917">
        <ele>1600.0</ele>
        <time>2018-09-02T11:58:49Z</time>
      </trkpt>
      <trkpt lat="40.487117" lon="-5.261967">
        <ele>1602.0</ele>
        <time>2018-09-02T11:58:50Z</time>
      </trkpt>
      <trkpt lat="40.487167" lon="-5.262050">
        <ele>1604.0</ele>
        <time>2018-09-02T11:58:51Z</time>
      </trkpt>
      <trkpt lat="40.487200" lon="-5.262117">
        <ele>1606.0</ele>
        <time>2018-09-02T11:58:52Z</time>
      </trkpt>
      <trkpt lat="40.487183" lon="-5.262183">
        <ele>1607.0</ele>
        <time>2018-09-02T11:58:53Z</time>
      </trkpt>
      <trkpt lat="40.487150" lon="-5.262217">
        <ele>1608.0</ele>
        <time>2018-09-02T11:58:54Z</time>
      </trkpt>
      <trkpt lat="40.487100" lon="-5.262217">
        <ele>1607.0</ele>
        <time>2018-09-02T11:58:55Z</time>
      </trkpt>
      <trkpt lat="40.487033" lon="-5.262183">
        <ele>1607.0</ele>
        <time>2018-09-02T11:58:56Z</time>
      </trkpt>
      <trkpt lat="40.486983" lon="-5.262117">
        <ele>1607.0</ele>
        <time>2018-09-02T11:58:57Z</time>
      </trkpt>
      <trkpt lat="40.486950" lon="-5.262017">
        <ele>1606.0</ele>
        <time>2018-09-02T11:58:58Z</time>
      </trkpt>
      <trkpt lat="40.486933" lon="-5.261883">
        <ele>1607.0</ele>
        <time>2018-09-02T11:58:59Z</time>
      </trkpt>
      <trkpt lat="40.486967" lon="-5.261750">
        <ele>1607.0</ele>
        <time>2018-09-02T11:59:00Z</time>
      </trkpt>
      <trkpt lat="40.487033" lon="-5.261617">
        <ele>1608.0</ele>
        <time>2018-09-02T11:59:01Z</time>
      </trkpt>
      <trkpt lat="40.487117" lon="-5.261517">
        <ele>1608.0</ele>
        <time>2018-09-02T11:59:02Z</time>
      </trkpt>
      <trkpt lat="40.487233" lon="-5.261467">
        <ele>1609.0</ele>
        <time>2018-09-02T11:59:03Z</time>
      </trkpt>
      <trkpt lat="40.487333" lon="-5.261467">
        <ele>1611.0</ele>
        <time>2018-09-02T11:59:04Z</time>
      </trkpt>
      <trkpt lat="40.487417" lon="-5.261500">
        <ele>1613.0</ele>
        <time>2018-09-02T11:59:05Z</time>
      </trkpt>
      <trkpt lat="40.487467" lon="-5.261550">
        <ele>1613.0</ele>
        <time>2018-09-02T11:59:06Z</time>
      </trkpt>
      <trkpt lat="40.487517" lon="-5.261600">
        <ele>1614.0</ele>
        <time>2018-09-02T11:59:07Z</time>
      </trkpt>
      <trkpt lat="40.487567" lon="-5.261633">
        <ele>1614.0</ele>
        <time>2018-09-02T11:59:08Z</time>
      </trkpt>
      <trkpt lat="40.487600" lon="-5.261700">
        <ele>1614.0</ele>
        <time>2018-09-02T11:59:09Z</time>
      </trkpt>
      <trkpt lat="40.487600" lon="-5.261783">
        <ele>1613.0</ele>
        <time>2018-09-02T11:59:10Z</time>
      </trkpt>
      <trkpt lat="40.487567" lon="-5.261850">
        <ele>1611.0</ele>
        <time>2018-09-02T11:59:11Z</time>
      </trkpt>
      <trkpt lat="40.487500" lon="-5.261850">
        <ele>1610.0</ele>
        <time>2018-09-02T11:59:12Z</time>
      </trkpt>
      <trkpt lat="40.487433" lon="-5.261800">
        <ele>1609.0</ele>
        <time>2018-09-02T11:59:13Z</time>
      </trkpt>
      <trkpt lat="40.487400" lon="-5.261717">
        <ele>1608.0</ele>
        <time>2018-09-02T11:59:14Z</time>
      </trkpt>
      <trkpt lat="40.487383" lon="-5.261617">
        <ele>1608.0</ele>
        <time>2018-09-02T11:59:15Z</time>
      </trkpt>
      <trkpt lat="40.487367" lon="-5.261517">
        <ele>1609.0</ele>
        <time>2018-09-02T11:59:16Z</time>
      </trkpt>
      <trkpt lat="40.487350" lon="-5.261433">
        <ele>1610.0</ele>
        <time>2018-09-02T11:59:17Z</time>
      </trkpt>
      <trkpt lat="40.487317" lon="-5.261350">
        <ele>1610.0</ele>
        <time>2018-09-02T11:59:18Z</time>
      </trkpt>
      <trkpt lat="40.487267" lon="-5.261283">
        <ele>1610.0</ele>
        <time>2018-09-02T11:59:19Z</time>
      </trkpt>
      <trkpt lat="40.487200" lon="-5.261267">
        <ele>1611.0</ele>
        <time>2018-09-02T11:59:20Z</time>
      </trkpt>
      <trkpt lat="40.487150" lon="-5.261300">
        <ele>1612.0</ele>
        <time>2018-09-02T11:59:21Z</time>
      </trkpt>
      <trkpt lat="40.487117" lon="-5.261383">
        <ele>1613.0</ele>
        <time>2018-09-02T11:59:22Z</time>
      </trkpt>
      <trkpt lat="40.487133" lon="-5.261467">
        <ele>1614.0</ele>
        <time>2018-09-02T11:59:23Z</time>
      </trkpt>
      <trkpt lat="40.487183" lon="-5.261567">
        <ele>1616.0</ele>
        <time>2018-09-02T11:59:24Z</time>
      </trkpt>
      <trkpt lat="40.487267" lon="-5.261633">
        <ele>1617.0</ele>
        <time>2018-09-02T11:59:25Z</time>
      </trkpt>
      <trkpt lat="40.487383" lon="-5.261667">
        <ele>1618.0</ele>
        <time>2018-09-02T11:59:26Z</time>
      </trkpt>
      <trkpt lat="40.487500" lon="-5.261633">
        <ele>1619.0</ele>
        <time>2018-09-02T11:59:27Z</time>
      </trkpt>
      <trkpt lat="40.487600" lon="-5.261583">
        <ele>1620.0</ele>
        <time>2018-09-02T11:59:28Z</time>
      </trkpt>
      <trkpt lat="40.487667" lon="-5.261483">
        <ele>1621.0</ele>
        <time>2018-09-02T11:59:29Z</time>
      </trkpt>
      <trkpt lat="40.487683" lon="-5.261367">
        <ele>1622.0</ele>
        <time>2018-09-02T11:59:30Z</time>
      </trkpt>
      <trkpt lat="40.487683" lon="-5.261250">
        <ele>1621.0</ele>
        <time>2018-09-02T11:59:31Z</time>
      </trkpt>
      <trkpt lat="40.487633" lon="-5.261167">
        <ele>1622.0</ele>
        <time>2018-09-02T11:59:32Z</time>
      </trkpt>
      <trkpt lat="40.487583" lon="-5.261117">
        <ele>1622.0</ele>
        <time>2018-09-02T11:59:33Z</time>
      </trkpt>
      <trkpt lat="40.487533" lon="-5.261133">
        <ele>1623.0</ele>
        <time>2018-09-02T11:59:34Z</time>
      </trkpt>
      <trkpt lat="40.487483" lon="-5.261183">
        <ele>1624.0</ele>
        <time>2018-09-02T11:59:35Z</time>
      </trkpt>
      <trkpt lat="40.487450" lon="-5.261250">
        <ele>1625.0</ele>
        <time>2018-09-02T11:59:36Z</time>
      </trkpt>
      <trkpt lat="40.487433" lon="-5.261333">
        <ele>1628.0</ele>
        <time>2018-09-02T11:59:37Z</time>
      </trkpt>
      <trkpt lat="40.487433" lon="-5.261400">
        <ele>1631.0</ele>
        <time>2018-09-02T11:59:38Z</time>
      </trkpt>
      <trkpt lat="40.487467" lon="-5.261467">
        <ele>1634.0</ele>
        <time>2018-09-02T11:59:39Z</time>
      </trkpt>
      <trkpt lat="40.487500" lon="-5.261550">
        <ele>1636.0</ele>
        <time>2018-09-02T11:59:40Z</time>
      </trkpt>
      <trkpt lat="40.487550" lon="-5.261633">
        <ele>1637.0</ele>
        <time>2018-09-02T11:59:41Z</time>
      </trkpt>
      <trkpt lat="40.487633" lon="-5.261683">
        <ele>1636.0</ele>
        <time>2018-09-02T11:59:42Z</time>
      </trkpt>
      <trkpt lat="40.487733" lon="-5.261700">
        <ele>1637.0</ele>
        <time>2018-09-02T11:59:43Z</time>
      </trkpt>
      <trkpt lat="40.487850" lon="-5.261667">
        <ele>1639.0</ele>
        <time>2018-09-02T11:59:44Z</time>
      </trkpt>
      <trkpt lat="40.487950" lon="-5.261583">
        <ele>1640.0</ele>
        <time>2018-09-02T11:59:45Z</time>
      </trkpt>
      <trkpt lat="40.488017" lon="-5.261467">
        <ele>1641.0</ele>
        <time>2018-09-02T11:59:46Z</time>
      </trkpt>
      <trkpt lat="40.488050" lon="-5.261367">
        <ele>1642.0</ele>
        <time>2018-09-02T11:59:47Z</time>
      </trkpt>
      <trkpt lat="40.488033" lon="-5.261150">
        <ele>1643.0</ele>
        <time>2018-09-02T11:59:49Z</time>
      </trkpt>
      <trkpt lat="40.487983" lon="-5.261067">
        <ele>1644.0</ele>
        <time>2018-09-02T11:59:50Z</time>
      </trkpt>
      <trkpt lat="40.487917" lon="-5.261017">
        <ele>1644.0</ele>
        <time>2018-09-02T11:59:51Z</time>
      </trkpt>
      <trkpt lat="40.487850" lon="-5.261017">
        <ele>1643.0</ele>
        <time>2018-09-02T11:59:52Z</time>
      </trkpt>
      <trkpt lat="40.487783" lon="-5.261017">
        <ele>1643.0</ele>
        <time>2018-09-02T11:59:53Z</time>
      </trkpt>
      <trkpt lat="40.487733" lon="-5.261000">
        <ele>1644.0</ele>
        <time>2018-09-02T11:59:54Z</time>
      </trkpt>
      <trkpt lat="40.487683" lon="-5.260983">
        <ele>1646.0</ele>
        <time>2018-09-02T11:59:55Z</time>
      </trkpt>
      <trkpt lat="40.487633" lon="-5.260967">
        <ele>1648.0</ele>
        <time>2018-09-02T11:59:56Z</time>
      </trkpt>
      <trkpt lat="40.487583" lon="-5.260950">
        <ele>1650.0</ele>
        <time>2018-09-02T11:59:57Z</time>
      </trkpt>
      <trkpt lat="40.487517" lon="-5.260983">
        <ele>1652.0</ele>
        <time>2018-09-02T11:59:58Z</time>
      </trkpt>
      <trkpt lat="40.487467" lon="-5.261033">
        <ele>1653.0</ele>
        <time>2018-09-02T11:59:59Z</time>
      </trkpt>
      <trkpt lat="40.487450" lon="-5.261117">
        <ele>1654.0</ele>
        <time>2018-09-02T12:00:00Z</time>
      </trkpt>
      <trkpt lat="40.487483" lon="-5.261217">
        <ele>1654.0</ele>
        <time>2018-09-02T12:00:01Z</time>
      </trkpt>
      <trkpt lat="40.487567" lon="-5.261317">
        <ele>1653.0</ele>
        <time>2018-09-02T12:00:02Z</time>
      </trkpt>
      <trkpt lat="40.487650" lon="-5.261383">
        <ele>1653.0</ele>
        <time>2018-09-02T12:00:03Z</time>
      </trkpt>
      <trkpt lat="40.487750" lon="-5.261417">
        <ele>1655.0</ele>
        <time>2018-09-02T12:00:04Z</time>
      </trkpt>
      <trkpt lat="40.487867" lon="-5.261383">
        <ele>1657.0</ele>
        <time>2018-09-02T12:00:05Z</time>
      </trkpt>
      <trkpt lat="40.487967" lon="-5.261333">
        <ele>1657.0</ele>
        <time>2018-09-02T12:00:06Z</time>
      </trkpt>
      <trkpt lat="40.488050" lon="-5.261233">
        <ele>1657.0</ele>
        <time>2018-09-02T12:00:07Z</time>
      </trkpt>
      <trkpt lat="40.488100" lon="-5.261117">
        <ele>1659.0</ele>
        <time>2018-09-02T12:00:08Z</time>
      </trkpt>
      <trkpt lat="40.488133" lon="-5.260983">
        <ele>1660.0</ele>
        <time>2018-09-02T12:00:09Z</time>
      </trkpt>
      <trkpt lat="40.488117" lon="-5.260883">
        <ele>1662.0</ele>
        <time>2018-09-02T12:00:10Z</time>
      </trkpt>
      <trkpt lat="40.488050" lon="-5.260800">
        <ele>1662.0</ele>
        <time>2018-09-02T12:00:11Z</time>
      </trkpt>
      <trkpt lat="40.487967" lon="-5.260767">
        <ele>1663.0</ele>
        <time>2018-09-02T12:00:12Z</time>
      </trkpt>
      <trkpt lat="40.487883" lon="-5.260783">
        <ele>1663.0</ele>
        <time>2018-09-02T12:00:13Z</time>
      </trkpt>
      <trkpt lat="40.487833" lon="-5.260850">
        <ele>1664.0</ele>
        <time>2018-09-02T12:00:14Z</time>
      </trkpt>
      <trkpt lat="40.487833" lon="-5.260933">
        <ele>1664.0</ele>
        <time>2018-09-02T12:00:15Z</time>
      </trkpt>
      <trkpt lat="40.487867" lon="-5.261033">
        <ele>1664.0</ele>
        <time>2018-09-02T12:00:16Z</time>
      </trkpt>
      <trkpt lat="40.487933" lon="-5.261133">
        <ele>1664.0</ele>
        <time>2018-09-02T12:00:17Z</time>
      </trkpt>
      <trkpt lat="40.488017" lon="-5.261183">
        <ele>1664.0</ele>
        <time>2018-09-02T12:00:18Z</time>
      </trkpt>
      <trkpt lat="40.488133" lon="-5.261217">
        <ele>1664.0</ele>
        <time>2018-09-02T12:00:19Z</time>
      </trkpt>
      <trkpt lat="40.488350" lon="-5.261117">
        <ele>1666.0</ele>
        <time>2018-09-02T12:00:21Z</time>
      </trkpt>
      <trkpt lat="40.488417" lon="-5.261017">
        <ele>1667.0</ele>
        <time>2018-09-02T12:00:22Z</time>
      </trkpt>
      <trkpt lat="40.488450" lon="-5.260900">
        <ele>1668.0</ele>
        <time>2018-09-02T12:00:23Z</time>
      </trkpt>
      <trkpt lat="40.488450" lon="-5.260783">
        <ele>1670.0</ele>
        <time>2018-09-02T12:00:24Z</time>
      </trkpt>
      <trkpt lat="40.488417" lon="-5.260700">
        <ele>1671.0</ele>
        <time>2018-09-02T12:00:25Z</time>
      </trkpt>
      <trkpt lat="40.488350" lon="-5.260633">
        <ele>1672.0</ele>
        <time>2018-09-02T12:00:26Z</time>
      </trkpt>
      <trkpt lat="40.488283" lon="-5.260633">
        <ele>1672.0</ele>
        <time>2018-09-02T12:00:27Z</time>
      </trkpt>
      <trkpt lat="40.488233" lon="-5.260700">
        <ele>1673.0</ele>
        <time>2018-09-02T12:00:28Z</time>
      </trkpt>
      <trkpt lat="40.488217" lon="-5.260783">
        <ele>1673.0</ele>
        <time>2018-09-02T12:00:29Z</time>
      </trkpt>
      <trkpt lat="40.488250" lon="-5.260900">
        <ele>1673.0</ele>
        <time>2018-09-02T12:00:30Z</time>
      </trkpt>
      <trkpt lat="40.488317" lon="-5.261000">
        <ele>1672.0</ele>
        <time>2018-09-02T12:00:31Z</time>
      </trkpt>
      <trkpt lat="40.488400" lon="-5.261083">
        <ele>1673.0</ele>
        <time>2018-09-02T12:00:32Z</time>
      </trkpt>
      <trkpt lat="40.488633" lon="-5.261050">
        <ele>1674.0</ele>
        <time>2018-09-02T12:00:34Z</time>
      </trkpt>
      <trkpt lat="40.488750" lon="-5.260983">
        <ele>1674.0</ele>
        <time>2018-09-02T12:00:35Z</time>
      </trkpt>
      <trkpt lat="40.488833" lon="-5.260883">
        <ele>1675.0</ele>
        <time>2018-09-02T12:00:36Z</time>
      </trkpt>
      <trkpt lat="40.488900" lon="-5.260767">
        <ele>1676.0</ele>
        <time>2018-09-02T12:00:37Z</time>
      </trkpt>
      <trkpt lat="40.488900" lon="-5.260650">
        <ele>1677.0</ele>
        <time>2018-09-02T12:00:38Z</time>
      </trkpt>
      <trkpt lat="40.488883" lon="-5.260550">
        <ele>1678.0</ele>
        <time>2018-09-02T12:00:39Z</time>
      </trkpt>
      <trkpt lat="40.488833" lon="-5.260483">
        <ele>1679.0</ele>
        <time>2018-09-02T12:00:40Z</time>
      </trkpt>
      <trkpt lat="40.488767" lon="-5.260467">
        <ele>1680.0</ele>
        <time>2018-09-02T12:00:41Z</time>
      </trkpt>
      <trkpt lat="40.488717" lon="-5.260483">
        <ele>1681.0</ele>
        <time>2018-09-02T12:00:42Z</time>
      </trkpt>
      <trkpt lat="40.488667" lon="-5.260533">
        <ele>1681.0</ele>
        <time>2018-09-02T12:00:43Z</time>
      </trkpt>
      <trkpt lat="40.488650" lon="-5.260600">
        <ele>1681.0</ele>
        <time>2018-09-02T12:00:44Z</time>
      </trkpt>
      <trkpt lat="40.488650" lon="-5.260683">
        <ele>1682.0</ele>
        <time>2018-09-02T12:00:45Z</time>
      </trkpt>
      <trkpt lat="40.488700" lon="-5.260767">
        <ele>1684.0</ele>
        <time>2018-09-02T12:00:46Z</time>
      </trkpt>
      <trkpt lat="40.488767" lon="-5.260833">
        <ele>1684.0</ele>
        <time>2018-09-02T12:00:47Z</time>
      </trkpt>
      <trkpt lat="40.488867" lon="-5.260850">
        <ele>1685.0</ele>
        <time>2018-09-02T12:00:48Z</time>
      </trkpt>
      <trkpt lat="40.488983" lon="-5.260833">
        <ele>1685.0</ele>
        <time>2018-09-02T12:00:49Z</time>
      </trkpt>
      <trkpt lat="40.489083" lon="-5.260783">
        <ele>1686.0</ele>
        <time>2018-09-02T12:00:50Z</time>
      </trkpt>
      <trkpt lat="40.489183" lon="-5.260700">
        <ele>1687.0</ele>
        <time>2018-09-02T12:00:51Z</time>
      </trkpt>
      <trkpt lat="40.489250" lon="-5.260600">
        <ele>1688.0</ele>
        <time>2018-09-02T12:00:52Z</time>
      </trkpt>
      <trkpt lat="40.489300" lon="-5.260500">
        <ele>1689.0</ele>
        <time>2018-09-02T12:00:53Z</time>
      </trkpt>
      <trkpt lat="40.489317" lon="-5.260383">
        <ele>1690.0</ele>
        <time>2018-09-02T12:00:54Z</time>
      </trkpt>
      <trkpt lat="40.489300" lon="-5.260283">
        <ele>1691.0</ele>
        <time>2018-09-02T12:00:55Z</time>
      </trkpt>
      <trkpt lat="40.489250" lon="-5.260217">
        <ele>1691.0</ele>
        <time>2018-09-02T12:00:56Z</time>
      </trkpt>
      <trkpt lat="40.489183" lon="-5.260200">
        <ele>1691.0</ele>
        <time>2018-09-02T12:00:57Z</time>
      </trkpt>
      <trkpt lat="40.489117" lon="-5.260250">
        <ele>1691.0</ele>
        <time>2018-09-02T12:00:58Z</time>
      </trkpt>
      <trkpt lat="40.489083" lon="-5.260350">
        <ele>1690.0</ele>
        <time>2018-09-02T12:00:59Z</time>
      </trkpt>
      <trkpt lat="40.489100" lon="-5.260450">
        <ele>1689.0</ele>
        <time>2018-09-02T12:01:00Z</time>
      </trkpt>
      <trkpt lat="40.489150" lon="-5.260567">
        <ele>1688.0</ele>
        <time>2018-09-02T12:01:01Z</time>
      </trkpt>
      <trkpt lat="40.489217" lon="-5.260650">
        <ele>1688.0</ele>
        <time>2018-09-02T12:01:02Z</time>
      </trkpt>
      <trkpt lat="40.489317" lon="-5.260700">
        <ele>1688.0</ele>
        <time>2018-09-02T12:01:03Z</time>
      </trkpt>
      <trkpt lat="40.489400" lon="-5.260733">
        <ele>1689.0</ele>
        <time>2018-09-02T12:01:04Z</time>
      </trkpt>
      <trkpt lat="40.489483" lon="-5.260750">
        <ele>1693.0</ele>
        <time>2018-09-02T12:01:05Z</time>
      </trkpt>
      <trkpt lat="40.489550" lon="-5.260767">
        <ele>1696.0</ele>
        <time>2018-09-02T12:01:06Z</time>
      </trkpt>
      <trkpt lat="40.489617" lon="-5.260817">
        <ele>1698.0</ele>
        <time>2018-09-02T12:01:07Z</time>
      </trkpt>
      <trkpt lat="40.489700" lon="-5.260900">
        <ele>1698.0</ele>
        <time>2018-09-02T12:01:08Z</time>
      </trkpt>
      <trkpt lat="40.489767" lon="-5.261000">
        <ele>1698.0</ele>
        <time>2018-09-02T12:01:09Z</time>
      </trkpt>
      <trkpt lat="40.489783" lon="-5.261100">
        <ele>1699.0</ele>
        <time>2018-09-02T12:01:10Z</time>
      </trkpt>
      <trkpt lat="40.489767" lon="-5.261200">
        <ele>1700.0</ele>
        <time>2018-09-02T12:01:11Z</time>
      </trkpt>
      <trkpt lat="40.489700" lon="-5.261267">
        <ele>1699.0</ele>
        <time>2018-09-02T12:01:12Z</time>
      </trkpt>
      <trkpt lat="40.489633" lon="-5.261267">
        <ele>1699.0</ele>
        <time>2018-09-02T12:01:13Z</time>
      </trkpt>
      <trkpt lat="40.489567" lon="-5.261217">
        <ele>1699.0</ele>
        <time>2018-09-02T12:01:14Z</time>
      </trkpt>
      <trkpt lat="40.489517" lon="-5.261150">
        <ele>1700.0</ele>
        <time>2018-09-02T12:01:15Z</time>
      </trkpt>
      <trkpt lat="40.489483" lon="-5.261067">
        <ele>1701.0</ele>
        <time>2018-09-02T12:01:16Z</time>
      </trkpt>
      <trkpt lat="40.489467" lon="-5.260967">
        <ele>1703.0</ele>
        <time>2018-09-02T12:01:17Z</time>
      </trkpt>
      <trkpt lat="40.489467" lon="-5.260850">
        <ele>1703.0</ele>
        <time>2018-09-02T12:01:18Z</time>
      </trkpt>
      <trkpt lat="40.489483" lon="-5.260717">
        <ele>1704.0</ele>
        <time>2018-09-02T12:01:19Z</time>
      </trkpt>
      <trkpt lat="40.489517" lon="-5.260617">
        <ele>1705.0</ele>
        <time>2018-09-02T12:01:20Z</time>
      </trkpt>
      <trkpt lat="40.489567" lon="-5.260533">
        <ele>1705.0</ele>
        <time>2018-09-02T12:01:21Z</time>
      </trkpt>
      <trkpt lat="40.489600" lon="-5.260450">
        <ele>1706.0</ele>
        <time>2018-09-02T12:01:22Z</time>
      </trkpt>
      <trkpt lat="40.489617" lon="-5.260367">
        <ele>1705.0</ele>
        <time>2018-09-02T12:01:23Z</time>
      </trkpt>
      <trkpt lat="40.489617" lon="-5.260267">
        <ele>1704.0</ele>
        <time>2018-09-02T12:01:24Z</time>
      </trkpt>
      <trkpt lat="40.489583" lon="-5.260200">
        <ele>1700.0</ele>
        <time>2018-09-02T12:01:25Z</time>
      </trkpt>
      <trkpt lat="40.489533" lon="-5.260183">
        <ele>1698.0</ele>
        <time>2018-09-02T12:01:26Z</time>
      </trkpt>
      <trkpt lat="40.489500" lon="-5.260233">
        <ele>1695.0</ele>
        <time>2018-09-02T12:01:27Z</time>
      </trkpt>
      <trkpt lat="40.489567" lon="-5.260600">
        <ele>1686.0</ele>
        <time>2018-09-02T12:01:30Z</time>
      </trkpt>
      <trkpt lat="40.489600" lon="-5.260667">
        <ele>1685.0</ele>
        <time>2018-09-02T12:01:31Z</time>
      </trkpt>
      <trkpt lat="40.489617" lon="-5.260750">
        <ele>1691.0</ele>
        <time>2018-09-02T12:01:32Z</time>
      </trkpt>
      <trkpt lat="40.489633" lon="-5.260817">
        <ele>1689.0</ele>
        <time>2018-09-02T12:01:33Z</time>
      </trkpt>
      <trkpt lat="40.489633" lon="-5.260917">
        <ele>1687.0</ele>
        <time>2018-09-02T12:01:34Z</time>
      </trkpt>
      <trkpt lat="40.489600" lon="-5.261017">
        <ele>1684.0</ele>
        <time>2018-09-02T12:01:35Z</time>
      </trkpt>
      <trkpt lat="40.489550" lon="-5.261083">
        <ele>1683.0</ele>
        <time>2018-09-02T12:01:36Z</time>
      </trkpt>
      <trkpt lat="40.489483" lon="-5.261117">
        <ele>1682.0</ele>
        <time>2018-09-02T12:01:37Z</time>
      </trkpt>
      <trkpt lat="40.489417" lon="-5.261117">
        <ele>1682.0</ele>
        <time>2018-09-02T12:01:38Z</time>
      </trkpt>
      <trkpt lat="40.489367" lon="-5.261100">
        <ele>1682.0</ele>
        <time>2018-09-02T12:01:39Z</time>
      </trkpt>
      <trkpt lat="40.489300" lon="-5.261067">
        <ele>1682.0</ele>
        <time>2018-09-02T12:01:40Z</time>
      </trkpt>
      <trkpt lat="40.489250" lon="-5.261033">
        <ele>1682.0</ele>
        <time>2018-09-02T12:01:41Z</time>
      </trkpt>
      <trkpt lat="40.489200" lon="-5.261017">
        <ele>1682.0</ele>
        <time>2018-09-02T12:01:42Z</time>
      </trkpt>
      <trkpt lat="40.489133" lon="-5.260983">
        <ele>1683.0</ele>
        <time>2018-09-02T12:01:43Z</time>
      </trkpt>
      <trkpt lat="40.489067" lon="-5.260983">
        <ele>1683.0</ele>
        <time>2018-09-02T12:01:44Z</time>
      </trkpt>
      <trkpt lat="40.488983" lon="-5.261000">
        <ele>1684.0</ele>
        <time>2018-09-02T12:01:45Z</time>
      </trkpt>
      <trkpt lat="40.488917" lon="-5.261017">
        <ele>1685.0</ele>
        <time>2018-09-02T12:01:46Z</time>
      </trkpt>
      <trkpt lat="40.488850" lon="-5.261017">
        <ele>1686.0</ele>
        <time>2018-09-02T12:01:47Z</time>
      </trkpt>
      <trkpt lat="40.488783" lon="-5.261017">
        <ele>1688.0</ele>
        <time>2018-09-02T12:01:48Z</time>
      </trkpt>
      <trkpt lat="40.488733" lon="-5.261017">
        <ele>1690.0</ele>
        <time>2018-09-02T12:01:49Z</time>
      </trkpt>
      <trkpt lat="40.488667" lon="-5.261000">
        <ele>1692.0</ele>
        <time>2018-09-02T12:01:50Z</time>
      </trkpt>
      <trkpt lat="40.488617" lon="-5.261017">
        <ele>1693.0</ele>
        <time>2018-09-02T12:01:51Z</time>
      </trkpt>
      <trkpt lat="40.488567" lon="-5.261033">
        <ele>1695.0</ele>
        <time>2018-09-02T12:01:52Z</time>
      </trkpt>
      <trkpt lat="40.488500" lon="-5.261083">
        <ele>1695.0</ele>
        <time>2018-09-02T12:01:53Z</time>
      </trkpt>
      <trkpt lat="40.488467" lon="-5.261150">
        <ele>1696.0</ele>
        <time>2018-09-02T12:01:54Z</time>
      </trkpt>
      <trkpt lat="40.488450" lon="-5.261250">
        <ele>1696.0</ele>
        <time>2018-09-02T12:01:55Z</time>
      </trkpt>
      <trkpt lat="40.488450" lon="-5.261350">
        <ele>1696.0</ele>
        <time>2018-09-02T12:01:56Z</time>
      </trkpt>
      <trkpt lat="40.488500" lon="-5.261433">
        <ele>1696.0</ele>
        <time>2018-09-02T12:01:57Z</time>
      </trkpt>
      <trkpt lat="40.488583" lon="-5.261483">
        <ele>1695.0</ele>
        <time>2018-09-02T12:01:58Z</time>
      </trkpt>
      <trkpt lat="40.488683" lon="-5.261483">
        <ele>1695.0</ele>
        <time>2018-09-02T12:01:59Z</time>
      </trkpt>
      <trkpt lat="40.488783" lon="-5.261450">
        <ele>1696.0</ele>
        <time>2018-09-02T12:02:00Z</time>
      </trkpt>
      <trkpt lat="40.488867" lon="-5.261383">
        <ele>1696.0</ele>
        <time>2018-09-02T12:02:01Z</time>
      </trkpt>
      <trkpt lat="40.488933" lon="-5.261283">
        <ele>1696.0</ele>
        <time>2018-09-02T12:02:02Z</time>
      </trkpt>
      <trkpt lat="40.488983" lon="-5.261167">
        <ele>1697.0</ele>
        <time>2018-09-02T12:02:03Z</time>
      </trkpt>
      <trkpt lat="40.489000" lon="-5.261033">
        <ele>1697.0</ele>
        <time>2018-09-02T12:02:04Z</time>
      </trkpt>
      <trkpt lat="40.489000" lon="-5.260900">
        <ele>1698.0</ele>
        <time>2018-09-02T12:02:05Z</time>
      </trkpt>
      <trkpt lat="40.488967" lon="-5.260783">
        <ele>1699.0</ele>
        <time>2018-09-02T12:02:06Z</time>
      </trkpt>
      <trkpt lat="40.488933" lon="-5.260683">
        <ele>1701.0</ele>
        <time>2018-09-02T12:02:07Z</time>
      </trkpt>
      <trkpt lat="40.488883" lon="-5.260617">
        <ele>1703.0</ele>
        <time>2018-09-02T12:02:08Z</time>
      </trkpt>
      <trkpt lat="40.488833" lon="-5.260567">
        <ele>1705.0</ele>
        <time>2018-09-02T12:02:09Z</time>
      </trkpt>
      <trkpt lat="40.488767" lon="-5.260533">
        <ele>1706.0</ele>
        <time>2018-09-02T12:02:10Z</time>
      </trkpt>
      <trkpt lat="40.488717" lon="-5.260500">
        <ele>1708.0</ele>
        <time>2018-09-02T12:02:11Z</time>
      </trkpt>
      <trkpt lat="40.488650" lon="-5.260483">
        <ele>1709.0</ele>
        <time>2018-09-02T12:02:12Z</time>
      </trkpt>
      <trkpt lat="40.488600" lon="-5.260483">
        <ele>1710.0</ele>
        <time>2018-09-02T12:02:13Z</time>
      </trkpt>
      <trkpt lat="40.488533" lon="-5.260550">
        <ele>1712.0</ele>
        <time>2018-09-02T12:02:14Z</time>
      </trkpt>
      <trkpt lat="40.488483" lon="-5.260633">
        <ele>1712.0</ele>
        <time>2018-09-02T12:02:15Z</time>
      </trkpt>
      <trkpt lat="40.488467" lon="-5.260733">
        <ele>1713.0</ele>
        <time>2018-09-02T12:02:16Z</time>
      </trkpt>
      <trkpt lat="40.488483" lon="-5.260833">
        <ele>1714.0</ele>
        <time>2018-09-02T12:02:17Z</time>
      </trkpt>
      <trkpt lat="40.488550" lon="-5.260900">
        <ele>1714.0</ele>
        <time>2018-09-02T12:02:18Z</time>
      </trkpt>
      <trkpt lat="40.488650" lon="-5.260950">
        <ele>1713.0</ele>
        <time>2018-09-02T12:02:19Z</time>
      </trkpt>
      <trkpt lat="40.488733" lon="-5.260950">
        <ele>1712.0</ele>
        <time>2018-09-02T12:02:20Z</time>
      </trkpt>
      <trkpt lat="40.488833" lon="-5.260883">
        <ele>1711.0</ele>
        <time>2018-09-02T12:02:21Z</time>
      </trkpt>
      <trkpt lat="40.488917" lon="-5.260783">
        <ele>1712.0</ele>
        <time>2018-09-02T12:02:22Z</time>
      </trkpt>
      <trkpt lat="40.488967" lon="-5.260667">
        <ele>1712.0</ele>
        <time>2018-09-02T12:02:23Z</time>
      </trkpt>
      <trkpt lat="40.489000" lon="-5.260533">
        <ele>1712.0</ele>
        <time>2018-09-02T12:02:24Z</time>
      </trkpt>
      <trkpt lat="40.489017" lon="-5.260400">
        <ele>1713.0</ele>
        <time>2018-09-02T12:02:25Z</time>
      </trkpt>
      <trkpt lat="40.488983" lon="-5.260267">
        <ele>1714.0</ele>
        <time>2018-09-02T12:02:26Z</time>
      </trkpt>
      <trkpt lat="40.488933" lon="-5.260167">
        <ele>1714.0</ele>
        <time>2018-09-02T12:02:27Z</time>
      </trkpt>
      <trkpt lat="40.488867" lon="-5.260083">
        <ele>1716.0</ele>
        <time>2018-09-02T12:02:28Z</time>
      </trkpt>
      <trkpt lat="40.488833" lon="-5.260017">
        <ele>1718.0</ele>
        <time>2018-09-02T12:02:29Z</time>
      </trkpt>
      <trkpt lat="40.488783" lon="-5.259950">
        <ele>1716.0</ele>
        <time>2018-09-02T12:02:30Z</time>
      </trkpt>
      <trkpt lat="40.488717" lon="-5.259900">
        <ele>1717.0</ele>
        <time>2018-09-02T12:02:31Z</time>
      </trkpt>
      <trkpt lat="40.488650" lon="-5.259867">
        <ele>1717.0</ele>
        <time>2018-09-02T12:02:32Z</time>
      </trkpt>
      <trkpt lat="40.488583" lon="-5.259850">
        <ele>1719.0</ele>
        <time>2018-09-02T12:02:33Z</time>
      </trkpt>
      <trkpt lat="40.488500" lon="-5.259850">
        <ele>1720.0</ele>
        <time>2018-09-02T12:02:34Z</time>
      </trkpt>
      <trkpt lat="40.488433" lon="-5.259833">
        <ele>1721.0</ele>
        <time>2018-09-02T12:02:35Z</time>
      </trkpt>
      <trkpt lat="40.488367" lon="-5.259833">
        <ele>1723.0</ele>
        <time>2018-09-02T12:02:36Z</time>
      </trkpt>
      <trkpt lat="40.488283" lon="-5.259850">
        <ele>1724.0</ele>
        <time>2018-09-02T12:02:37Z</time>
      </trkpt>
      <trkpt lat="40.488217" lon="-5.259900">
        <ele>1725.0</ele>
        <time>2018-09-02T12:02:38Z</time>
      </trkpt>
      <trkpt lat="40.488183" lon="-5.259983">
        <ele>1726.0</ele>
        <time>2018-09-02T12:02:39Z</time>
      </trkpt>
      <trkpt lat="40.488167" lon="-5.260100">
        <ele>1728.0</ele>
        <time>2018-09-02T12:02:40Z</time>
      </trkpt>
      <trkpt lat="40.488200" lon="-5.260217">
        <ele>1729.0</ele>
        <time>2018-09-02T12:02:41Z</time>
      </trkpt>
      <trkpt lat="40.488250" lon="-5.260317">
        <ele>1729.0</ele>
        <time>2018-09-02T12:02:42Z</time>
      </trkpt>
      <trkpt lat="40.488317" lon="-5.260367">
        <ele>1729.0</ele>
        <time>2018-09-02T12:02:43Z</time>
      </trkpt>
      <trkpt lat="40.488417" lon="-5.260400">
        <ele>1729.0</ele>
        <time>2018-09-02T12:02:44Z</time>
      </trkpt>
      <trkpt lat="40.488517" lon="-5.260383">
        <ele>1729.0</ele>
        <time>2018-09-02T12:02:45Z</time>
      </trkpt>
      <trkpt lat="40.488617" lon="-5.260333">
        <ele>1730.0</ele>
        <time>2018-09-02T12:02:46Z</time>
      </trkpt>
      <trkpt lat="40.488683" lon="-5.260250">
        <ele>1731.0</ele>
        <time>2018-09-02T12:02:47Z</time>
      </trkpt>
      <trkpt lat="40.488733" lon="-5.260133">
        <ele>1731.0</ele>
        <time>2018-09-02T12:02:48Z</time>
      </trkpt>
      <trkpt lat="40.488767" lon="-5.260000">
        <ele>1732.0</ele>
        <time>2018-09-02T12:02:49Z</time>
      </trkpt>
      <trkpt lat="40.488750" lon="-5.259867">
        <ele>1733.0</ele>
        <time>2018-09-02T12:02:50Z</time>
      </trkpt>
      <trkpt lat="40.488717" lon="-5.259750">
        <ele>1734.0</ele>
        <time>2018-09-02T12:02:51Z</time>
      </trkpt>
      <trkpt lat="40.488667" lon="-5.259667">
        <ele>1735.0</ele>
        <time>2018-09-02T12:02:52Z</time>
      </trkpt>
      <trkpt lat="40.488600" lon="-5.259600">
        <ele>1735.0</ele>
        <time>2018-09-02T12:02:53Z</time>
      </trkpt>
      <trkpt lat="40.488550" lon="-5.259567">
        <ele>1736.0</ele>
        <time>2018-09-02T12:02:54Z</time>
      </trkpt>
      <trkpt lat="40.488483" lon="-5.259517">
        <ele>1737.0</ele>
        <time>2018-09-02T12:02:55Z</time>
      </trkpt>
      <trkpt lat="40.488433" lon="-5.259483">
        <ele>1738.0</ele>
        <time>2018-09-02T12:02:56Z</time>
      </trkpt>
      <trkpt lat="40.488367" lon="-5.259467">
        <ele>1739.0</ele>
        <time>2018-09-02T12:02:57Z</time>
      </trkpt>
      <trkpt lat="40.488300" lon="-5.259450">
        <ele>1739.0</ele>
        <time>2018-09-02T12:02:58Z</time>
      </trkpt>
      <trkpt lat="40.488233" lon="-5.259467">
        <ele>1739.0</ele>
        <time>2018-09-02T12:02:59Z</time>
      </trkpt>
      <trkpt lat="40.488183" lon="-5.259500">
        <ele>1739.0</ele>
        <time>2018-09-02T12:03:00Z</time>
      </trkpt>
      <trkpt lat="40.488100" lon="-5.259667">
        <ele>1739.0</ele>
        <time>2018-09-02T12:03:02Z</time>
      </trkpt>
      <trkpt lat="40.488100" lon="-5.259767">
        <ele>1739.0</ele>
        <time>2018-09-02T12:03:03Z</time>
      </trkpt>
      <trkpt lat="40.488133" lon="-5.259867">
        <ele>1739.0</ele>
        <time>2018-09-02T12:03:04Z</time>
      </trkpt>
      <trkpt lat="40.488200" lon="-5.259950">
        <ele>1739.0</ele>
        <time>2018-09-02T12:03:05Z</time>
      </trkpt>
      <trkpt lat="40.488283" lon="-5.259983">
        <ele>1739.0</ele>
        <time>2018-09-02T12:03:06Z</time>
      </trkpt>
      <trkpt lat="40.488383" lon="-5.260000">
        <ele>1738.0</ele>
        <time>2018-09-02T12:03:07Z</time>
      </trkpt>
      <trkpt lat="40.488467" lon="-5.259967">
        <ele>1737.0</ele>
        <time>2018-09-02T12:03:08Z</time>
      </trkpt>
      <trkpt lat="40.488550" lon="-5.259900">
        <ele>1737.0</ele>
        <time>2018-09-02T12:03:09Z</time>
      </trkpt>
      <trkpt lat="40.488633" lon="-5.259817">
        <ele>1737.0</ele>
        <time>2018-09-02T12:03:10Z</time>
      </trkpt>
      <trkpt lat="40.488683" lon="-5.259700">
        <ele>1736.0</ele>
        <time>2018-09-02T12:03:11Z</time>
      </trkpt>
      <trkpt lat="40.488700" lon="-5.259567">
        <ele>1735.0</ele>
        <time>2018-09-02T12:03:12Z</time>
      </trkpt>
      <trkpt lat="40.488683" lon="-5.259433">
        <ele>1735.0</ele>
        <time>2018-09-02T12:03:13Z</time>
      </trkpt>
      <trkpt lat="40.488633" lon="-5.259317">
        <ele>1734.0</ele>
        <time>2018-09-02T12:03:14Z</time>
      </trkpt>
      <trkpt lat="40.488600" lon="-5.259217">
        <ele>1735.0</ele>
        <time>2018-09-02T12:03:15Z</time>
      </trkpt>
      <trkpt lat="40.488550" lon="-5.259150">
        <ele>1736.0</ele>
        <time>2018-09-02T12:03:16Z</time>
      </trkpt>
      <trkpt lat="40.488517" lon="-5.259067">
        <ele>1737.0</ele>
        <time>2018-09-02T12:03:17Z</time>
      </trkpt>
      <trkpt lat="40.488483" lon="-5.258983">
        <ele>1737.0</ele>
        <time>2018-09-02T12:03:18Z</time>
      </trkpt>
      <trkpt lat="40.488417" lon="-5.258900">
        <ele>1737.0</ele>
        <time>2018-09-02T12:03:19Z</time>
      </trkpt>
      <trkpt lat="40.488333" lon="-5.258833">
        <ele>1737.0</ele>
        <time>2018-09-02T12:03:20Z</time>
      </trkpt>
      <trkpt lat="40.488267" lon="-5.258783">
        <ele>1737.0</ele>
        <time>2018-09-02T12:03:21Z</time>
      </trkpt>
      <trkpt lat="40.488200" lon="-5.258767">
        <ele>1737.0</ele>
        <time>2018-09-02T12:03:22Z</time>
      </trkpt>
      <trkpt lat="40.488133" lon="-5.258767">
        <ele>1738.0</ele>
        <time>2018-09-02T12:03:23Z</time>
      </trkpt>
      <trkpt lat="40.488083" lon="-5.258750">
        <ele>1740.0</ele>
        <time>2018-09-02T12:03:24Z</time>
      </trkpt>
      <trkpt lat="40.488017" lon="-5.258750">
        <ele>1740.0</ele>
        <time>2018-09-02T12:03:25Z</time>
      </trkpt>
      <trkpt lat="40.487950" lon="-5.258750">
        <ele>1740.0</ele>
        <time>2018-09-02T12:03:26Z</time>
      </trkpt>
      <trkpt lat="40.487900" lon="-5.258767">
        <ele>1741.0</ele>
        <time>2018-09-02T12:03:27Z</time>
      </trkpt>
      <trkpt lat="40.487850" lon="-5.258783">
        <ele>1741.0</ele>
        <time>2018-09-02T12:03:28Z</time>
      </trkpt>
      <trkpt lat="40.487817" lon="-5.258850">
        <ele>1741.0</ele>
        <time>2018-09-02T12:03:29Z</time>
      </trkpt>
      <trkpt lat="40.487800" lon="-5.258917">
        <ele>1741.0</ele>
        <time>2018-09-02T12:03:30Z</time>
      </trkpt>
      <trkpt lat="40.487800" lon="-5.259000">
        <ele>1740.0</ele>
        <time>2018-09-02T12:03:31Z</time>
      </trkpt>
      <trkpt lat="40.487817" lon="-5.259100">
        <ele>1738.0</ele>
        <time>2018-09-02T12:03:32Z</time>
      </trkpt>
      <trkpt lat="40.487833" lon="-5.259200">
        <ele>1738.0</ele>
        <time>2018-09-02T12:03:33Z</time>
      </trkpt>
      <trkpt lat="40.487900" lon="-5.259300">
        <ele>1739.0</ele>
        <time>2018-09-02T12:03:34Z</time>
      </trkpt>
      <trkpt lat="40.487983" lon="-5.259367">
        <ele>1738.0</ele>
        <time>2018-09-02T12:03:35Z</time>
      </trkpt>
      <trkpt lat="40.488067" lon="-5.259400">
        <ele>1737.0</ele>
        <time>2018-09-02T12:03:36Z</time>
      </trkpt>
      <trkpt lat="40.488183" lon="-5.259417">
        <ele>1736.0</ele>
        <time>2018-09-02T12:03:37Z</time>
      </trkpt>
      <trkpt lat="40.488283" lon="-5.259383">
        <ele>1735.0</ele>
        <time>2018-09-02T12:03:38Z</time>
      </trkpt>
      <trkpt lat="40.488383" lon="-5.259300">
        <ele>1734.0</ele>
        <time>2018-09-02T12:03:39Z</time>
      </trkpt>
      <trkpt lat="40.488433" lon="-5.259200">
        <ele>1734.0</ele>
        <time>2018-09-02T12:03:40Z</time>
      </trkpt>
      <trkpt lat="40.488467" lon="-5.259083">
        <ele>1735.0</ele>
        <time>2018-09-02T12:03:41Z</time>
      </trkpt>
      <trkpt lat="40.488483" lon="-5.259000">
        <ele>1736.0</ele>
        <time>2018-09-02T12:03:42Z</time>
      </trkpt>
      <trkpt lat="40.488500" lon="-5.258900">
        <ele>1737.0</ele>
        <time>2018-09-02T12:03:43Z</time>
      </trkpt>
      <trkpt lat="40.488500" lon="-5.258783">
        <ele>1737.0</ele>
        <time>2018-09-02T12:03:44Z</time>
      </trkpt>
      <trkpt lat="40.488483" lon="-5.258667">
        <ele>1737.0</ele>
        <time>2018-09-02T12:03:45Z</time>
      </trkpt>
      <trkpt lat="40.488433" lon="-5.258567">
        <ele>1737.0</ele>
        <time>2018-09-02T12:03:46Z</time>
      </trkpt>
      <trkpt lat="40.488383" lon="-5.258483">
        <ele>1736.0</ele>
        <time>2018-09-02T12:03:47Z</time>
      </trkpt>
      <trkpt lat="40.488317" lon="-5.258433">
        <ele>1735.0</ele>
        <time>2018-09-02T12:03:48Z</time>
      </trkpt>
      <trkpt lat="40.488250" lon="-5.258433">
        <ele>1735.0</ele>
        <time>2018-09-02T12:03:49Z</time>
      </trkpt>
      <trkpt lat="40.488200" lon="-5.258450">
        <ele>1735.0</ele>
        <time>2018-09-02T12:03:50Z</time>
      </trkpt>
      <trkpt lat="40.488150" lon="-5.258450">
        <ele>1734.0</ele>
        <time>2018-09-02T12:03:51Z</time>
      </trkpt>
      <trkpt lat="40.488100" lon="-5.258433">
        <ele>1734.0</ele>
        <time>2018-09-02T12:03:52Z</time>
      </trkpt>
      <trkpt lat="40.487983" lon="-5.258450">
        <ele>1732.0</ele>
        <time>2018-09-02T12:03:54Z</time>
      </trkpt>
      <trkpt lat="40.487917" lon="-5.258467">
        <ele>1732.0</ele>
        <time>2018-09-02T12:03:55Z</time>
      </trkpt>
      <trkpt lat="40.487850" lon="-5.258500">
        <ele>1734.0</ele>
        <time>2018-09-02T12:03:56Z</time>
      </trkpt>
      <trkpt lat="40.487800" lon="-5.258517">
        <ele>1735.0</ele>
        <time>2018-09-02T12:03:57Z</time>
      </trkpt>
      <trkpt lat="40.487750" lon="-5.258567">
        <ele>1735.0</ele>
        <time>2018-09-02T12:03:58Z</time>
      </trkpt>
      <trkpt lat="40.487733" lon="-5.258617">
        <ele>1735.0</ele>
        <time>2018-09-02T12:03:59Z</time>
      </trkpt>
      <trkpt lat="40.487700" lon="-5.258683">
        <ele>1735.0</ele>
        <time>2018-09-02T12:04:00Z</time>
      </trkpt>
      <trkpt lat="40.487683" lon="-5.258750">
        <ele>1735.0</ele>
        <time>2018-09-02T12:04:01Z</time>
      </trkpt>
      <trkpt lat="40.487667" lon="-5.258833">
        <ele>1734.0</ele>
        <time>2018-09-02T12:04:02Z</time>
      </trkpt>
      <trkpt lat="40.487650" lon="-5.258917">
        <ele>1734.0</ele>
        <time>2018-09-02T12:04:03Z</time>
      </trkpt>
      <trkpt lat="40.487667" lon="-5.259017">
        <ele>1733.0</ele>
        <time>2018-09-02T12:04:04Z</time>
      </trkpt>
      <trkpt lat="40.487700" lon="-5.259100">
        <ele>1733.0</ele>
        <time>2018-09-02T12:04:05Z</time>
      </trkpt>
      <trkpt lat="40.487850" lon="-5.259200">
        <ele>1731.0</ele>
        <time>2018-09-02T12:04:07Z</time>
      </trkpt>
      <trkpt lat="40.487933" lon="-5.259250">
        <ele>1730.0</ele>
        <time>2018-09-02T12:04:08Z</time>
      </trkpt>
      <trkpt lat="40.488000" lon="-5.259317">
        <ele>1730.0</ele>
        <time>2018-09-02T12:04:09Z</time>
      </trkpt>
      <trkpt lat="40.488150" lon="-5.259467">
        <ele>1731.0</ele>
        <time>2018-09-02T12:04:11Z</time>
      </trkpt>
      <trkpt lat="40.488217" lon="-5.259550">
        <ele>1730.0</ele>
        <time>2018-09-02T12:04:12Z</time>
      </trkpt>
      <trkpt lat="40.488300" lon="-5.259600">
        <ele>1731.0</ele>
        <time>2018-09-02T12:04:13Z</time>
      </trkpt>
      <trkpt lat="40.488383" lon="-5.259633">
        <ele>1732.0</ele>
        <time>2018-09-02T12:04:14Z</time>
      </trkpt>
      <trkpt lat="40.488433" lon="-5.259683">
        <ele>1733.0</ele>
        <time>2018-09-02T12:04:15Z</time>
      </trkpt>
      <trkpt lat="40.488500" lon="-5.259717">
        <ele>1734.0</ele>
        <time>2018-09-02T12:04:16Z</time>
      </trkpt>
      <trkpt lat="40.488550" lon="-5.259783">
        <ele>1734.0</ele>
        <time>2018-09-02T12:04:17Z</time>
      </trkpt>
      <trkpt lat="40.488617" lon="-5.259850">
        <ele>1734.0</ele>
        <time>2018-09-02T12:04:18Z</time>
      </trkpt>
      <trkpt lat="40.488650" lon="-5.259950">
        <ele>1733.0</ele>
        <time>2018-09-02T12:04:19Z</time>
      </trkpt>
      <trkpt lat="40.488650" lon="-5.260050">
        <ele>1733.0</ele>
        <time>2018-09-02T12:04:20Z</time>
      </trkpt>
      <trkpt lat="40.488583" lon="-5.260117">
        <ele>1734.0</ele>
        <time>2018-09-02T12:04:21Z</time>
      </trkpt>
      <trkpt lat="40.488517" lon="-5.260133">
        <ele>1735.0</ele>
        <time>2018-09-02T12:04:22Z</time>
      </trkpt>
      <trkpt lat="40.488433" lon="-5.260100">
        <ele>1735.0</ele>
        <time>2018-09-02T12:04:23Z</time>
      </trkpt>
      <trkpt lat="40.488350" lon="-5.260050">
        <ele>1735.0</ele>
        <time>2018-09-02T12:04:24Z</time>
      </trkpt>
      <trkpt lat="40.488283" lon="-5.259950">
        <ele>1735.0</ele>
        <time>2018-09-02T12:04:25Z</time>
      </trkpt>
      <trkpt lat="40.488217" lon="-5.259833">
        <ele>1736.0</ele>
        <time>2018-09-02T12:04:26Z</time>
      </trkpt>
      <trkpt lat="40.488200" lon="-5.259683">
        <ele>1735.0</ele>
        <time>2018-09-02T12:04:27Z</time>
      </trkpt>
      <trkpt lat="40.488183" lon="-5.259533">
        <ele>1735.0</ele>
        <time>2018-09-02T12:04:28Z</time>
      </trkpt>
      <trkpt lat="40.488217" lon="-5.259383">
        <ele>1736.0</ele>
        <time>2018-09-02T12:04:29Z</time>
      </trkpt>
      <trkpt lat="40.488267" lon="-5.259250">
        <ele>1736.0</ele>
        <time>2018-09-02T12:04:30Z</time>
      </trkpt>
      <trkpt lat="40.488350" lon="-5.259150">
        <ele>1736.0</ele>
        <time>2018-09-02T12:04:31Z</time>
      </trkpt>
      <trkpt lat="40.488433" lon="-5.259083">
        <ele>1736.0</ele>
        <time>2018-09-02T12:04:32Z</time>
      </trkpt>
      <trkpt lat="40.488517" lon="-5.259050">
        <ele>1737.0</ele>
        <time>2018-09-02T12:04:33Z</time>
      </trkpt>
      <trkpt lat="40.488600" lon="-5.259067">
        <ele>1737.0</ele>
        <time>2018-09-02T12:04:34Z</time>
      </trkpt>
      <trkpt lat="40.488667" lon="-5.259100">
        <ele>1737.0</ele>
        <time>2018-09-02T12:04:35Z</time>
      </trkpt>
      <trkpt lat="40.488733" lon="-5.259167">
        <ele>1737.0</ele>
        <time>2018-09-02T12:04:36Z</time>
      </trkpt>
      <trkpt lat="40.488767" lon="-5.259233">
        <ele>1737.0</ele>
        <time>2018-09-02T12:04:37Z</time>
      </trkpt>
      <trkpt lat="40.488817" lon="-5.259317">
        <ele>1738.0</ele>
        <time>2018-09-02T12:04:38Z</time>
      </trkpt>
      <trkpt lat="40.488833" lon="-5.259383">
        <ele>1738.0</ele>
        <time>2018-09-02T12:04:39Z</time>
      </trkpt>
      <trkpt lat="40.488850" lon="-5.259517">
        <ele>1739.0</ele>
        <time>2018-09-02T12:04:41Z</time>
      </trkpt>
      <trkpt lat="40.488867" lon="-5.259600">
        <ele>1740.0</ele>
        <time>2018-09-02T12:04:42Z</time>
      </trkpt>
      <trkpt lat="40.488883" lon="-5.259667">
        <ele>1739.0</ele>
        <time>2018-09-02T12:04:43Z</time>
      </trkpt>
      <trkpt lat="40.488917" lon="-5.259750">
        <ele>1739.0</ele>
        <time>2018-09-02T12:04:44Z</time>
      </trkpt>
      <trkpt lat="40.488967" lon="-5.259817">
        <ele>1738.0</ele>
        <time>2018-09-02T12:04:45Z</time>
      </trkpt>
      <trkpt lat="40.489033" lon="-5.259867">
        <ele>1738.0</ele>
        <time>2018-09-02T12:04:46Z</time>
      </trkpt>
      <trkpt lat="40.489100" lon="-5.259900">
        <ele>1737.0</ele>
        <time>2018-09-02T12:04:47Z</time>
      </trkpt>
      <trkpt lat="40.489183" lon="-5.259917">
        <ele>1737.0</ele>
        <time>2018-09-02T12:04:48Z</time>
      </trkpt>
      <trkpt lat="40.489267" lon="-5.259917">
        <ele>1737.0</ele>
        <time>2018-09-02T12:04:49Z</time>
      </trkpt>
      <trkpt lat="40.489500" lon="-5.259917">
        <ele>1738.0</ele>
        <time>2018-09-02T12:04:52Z</time>
      </trkpt>
      <trkpt lat="40.489667" lon="-5.259900">
        <ele>1739.0</ele>
        <time>2018-09-02T12:04:54Z</time>
      </trkpt>
      <trkpt lat="40.489767" lon="-5.259900">
        <ele>1740.0</ele>
        <time>2018-09-02T12:04:55Z</time>
      </trkpt>
      <trkpt lat="40.489850" lon="-5.259900">
        <ele>1741.0</ele>
        <time>2018-09-02T12:04:56Z</time>
      </trkpt>
      <trkpt lat="40.489950" lon="-5.259900">
        <ele>1741.0</ele>
        <time>2018-09-02T12:04:57Z</time>
      </trkpt>
      <trkpt lat="40.490033" lon="-5.259900">
        <ele>1742.0</ele>
        <time>2018-09-02T12:04:58Z</time>
      </trkpt>
      <trkpt lat="40.490117" lon="-5.259900">
        <ele>1743.0</ele>
        <time>2018-09-02T12:04:59Z</time>
      </trkpt>
      <trkpt lat="40.490217" lon="-5.259917">
        <ele>1744.0</ele>
        <time>2018-09-02T12:05:00Z</time>
      </trkpt>
      <trkpt lat="40.490317" lon="-5.259933">
        <ele>1745.0</ele>
        <time>2018-09-02T12:05:01Z</time>
      </trkpt>
      <trkpt lat="40.490433" lon="-5.259933">
        <ele>1746.0</ele>
        <time>2018-09-02T12:05:02Z</time>
      </trkpt>
      <trkpt lat="40.490533" lon="-5.259933">
        <ele>1747.0</ele>
        <time>2018-09-02T12:05:03Z</time>
      </trkpt>
      <trkpt lat="40.490633" lon="-5.259933">
        <ele>1749.0</ele>
        <time>2018-09-02T12:05:04Z</time>
      </trkpt>
      <trkpt lat="40.490733" lon="-5.259933">
        <ele>1753.0</ele>
        <time>2018-09-02T12:05:05Z</time>
      </trkpt>
      <trkpt lat="40.490833" lon="-5.259950">
        <ele>1753.0</ele>
        <time>2018-09-02T12:05:06Z</time>
      </trkpt>
      <trkpt lat="40.490933" lon="-5.260000">
        <ele>1753.0</ele>
        <time>2018-09-02T12:05:07Z</time>
      </trkpt>
      <trkpt lat="40.491017" lon="-5.260067">
        <ele>1754.0</ele>
        <time>2018-09-02T12:05:08Z</time>
      </trkpt>
      <trkpt lat="40.491083" lon="-5.260150">
        <ele>1755.0</ele>
        <time>2018-09-02T12:05:09Z</time>
      </trkpt>
      <trkpt lat="40.491100" lon="-5.260267">
        <ele>1756.0</ele>
        <time>2018-09-02T12:05:10Z</time>
      </trkpt>
      <trkpt lat="40.491083" lon="-5.260350">
        <ele>1757.0</ele>
        <time>2018-09-02T12:05:11Z</time>
      </trkpt>
      <trkpt lat="40.491033" lon="-5.260433">
        <ele>1757.0</ele>
        <time>2018-09-02T12:05:12Z</time>
      </trkpt>
      <trkpt lat="40.490950" lon="-5.260483">
        <ele>1758.0</ele>
        <time>2018-09-02T12:05:13Z</time>
      </trkpt>
      <trkpt lat="40.490867" lon="-5.260483">
        <ele>1761.0</ele>
        <time>2018-09-02T12:05:14Z</time>
      </trkpt>
      <trkpt lat="40.490800" lon="-5.260433">
        <ele>1764.0</ele>
        <time>2018-09-02T12:05:15Z</time>
      </trkpt>
      <trkpt lat="40.490750" lon="-5.260350">
        <ele>1766.0</ele>
        <time>2018-09-02T12:05:16Z</time>
      </trkpt>
      <trkpt lat="40.490717" lon="-5.260250">
        <ele>1768.0</ele>
        <time>2018-09-02T12:05:17Z</time>
      </trkpt>
      <trkpt lat="40.490700" lon="-5.260133">
        <ele>1771.0</ele>
        <time>2018-09-02T12:05:18Z</time>
      </trkpt>
      <trkpt lat="40.490700" lon="-5.260000">
        <ele>1773.0</ele>
        <time>2018-09-02T12:05:19Z</time>
      </trkpt>
      <trkpt lat="40.490750" lon="-5.259883">
        <ele>1774.0</ele>
        <time>2018-09-02T12:05:20Z</time>
      </trkpt>
      <trkpt lat="40.490817" lon="-5.259767">
        <ele>1775.0</ele>
        <time>2018-09-02T12:05:21Z</time>
      </trkpt>
      <trkpt lat="40.490900" lon="-5.259683">
        <ele>1776.0</ele>
        <time>2018-09-02T12:05:22Z</time>
      </trkpt>
      <trkpt lat="40.491017" lon="-5.259633">
        <ele>1776.0</ele>
        <time>2018-09-02T12:05:23Z</time>
      </trkpt>
      <trkpt lat="40.491133" lon="-5.259633">
        <ele>1778.0</ele>
        <time>2018-09-02T12:05:24Z</time>
      </trkpt>
      <trkpt lat="40.491217" lon="-5.259700">
        <ele>1779.0</ele>
        <time>2018-09-02T12:05:25Z</time>
      </trkpt>
      <trkpt lat="40.491300" lon="-5.259767">
        <ele>1781.0</ele>
        <time>2018-09-02T12:05:26Z</time>
      </trkpt>
      <trkpt lat="40.491350" lon="-5.259867">
        <ele>1783.0</ele>
        <time>2018-09-02T12:05:27Z</time>
      </trkpt>
      <trkpt lat="40.491367" lon="-5.259950">
        <ele>1785.0</ele>
        <time>2018-09-02T12:05:28Z</time>
      </trkpt>
      <trkpt lat="40.491383" lon="-5.260033">
        <ele>1786.0</ele>
        <time>2018-09-02T12:05:29Z</time>
      </trkpt>
      <trkpt lat="40.491383" lon="-5.260117">
        <ele>1788.0</ele>
        <time>2018-09-02T12:05:30Z</time>
      </trkpt>
      <trkpt lat="40.491350" lon="-5.260217">
        <ele>1789.0</ele>
        <time>2018-09-02T12:05:31Z</time>
      </trkpt>
      <trkpt lat="40.491283" lon="-5.260283">
        <ele>1791.0</ele>
        <time>2018-09-02T12:05:32Z</time>
      </trkpt>
      <trkpt lat="40.491200" lon="-5.260283">
        <ele>1792.0</ele>
        <time>2018-09-02T12:05:33Z</time>
      </trkpt>
      <trkpt lat="40.491117" lon="-5.260250">
        <ele>1793.0</ele>
        <time>2018-09-02T12:05:34Z</time>
      </trkpt>
      <trkpt lat="40.491033" lon="-5.260167">
        <ele>1794.0</ele>
        <time>2018-09-02T12:05:35Z</time>
      </trkpt>
      <trkpt lat="40.490983" lon="-5.260050">
        <ele>1796.0</ele>
        <time>2018-09-02T12:05:36Z</time>
      </trkpt>
      <trkpt lat="40.490950" lon="-5.259917">
        <ele>1798.0</ele>
        <time>2018-09-02T12:05:37Z</time>
      </trkpt>
      <trkpt lat="40.490950" lon="-5.259767">
        <ele>1800.0</ele>
        <time>2018-09-02T12:05:38Z</time>
      </trkpt>
      <trkpt lat="40.490983" lon="-5.259650">
        <ele>1803.0</ele>
        <time>2018-09-02T12:05:39Z</time>
      </trkpt>
      <trkpt lat="40.491067" lon="-5.259550">
        <ele>1805.0</ele>
        <time>2018-09-02T12:05:40Z</time>
      </trkpt>
      <trkpt lat="40.491150" lon="-5.259500">
        <ele>1808.0</ele>
        <time>2018-09-02T12:05:41Z</time>
      </trkpt>
      <trkpt lat="40.491250" lon="-5.259483">
        <ele>1809.0</ele>
        <time>2018-09-02T12:05:42Z</time>
      </trkpt>
      <trkpt lat="40.491350" lon="-5.259483">
        <ele>1811.0</ele>
        <time>2018-09-02T12:05:43Z</time>
      </trkpt>
      <trkpt lat="40.491450" lon="-5.259500">
        <ele>1813.0</ele>
        <time>2018-09-02T12:05:44Z</time>
      </trkpt>
      <trkpt lat="40.491550" lon="-5.259550">
        <ele>1814.0</ele>
        <time>2018-09-02T12:05:45Z</time>
      </trkpt>
      <trkpt lat="40.491617" lon="-5.259633">
        <ele>1816.0</ele>
        <time>2018-09-02T12:05:46Z</time>
      </trkpt>
      <trkpt lat="40.491667" lon="-5.259733">
        <ele>1818.0</ele>
        <time>2018-09-02T12:05:47Z</time>
      </trkpt>
      <trkpt lat="40.491667" lon="-5.259833">
        <ele>1819.0</ele>
        <time>2018-09-02T12:05:48Z</time>
      </trkpt>
      <trkpt lat="40.491633" lon="-5.259917">
        <ele>1820.0</ele>
        <time>2018-09-02T12:05:49Z</time>
      </trkpt>
      <trkpt lat="40.491550" lon="-5.259950">
        <ele>1821.0</ele>
        <time>2018-09-02T12:05:50Z</time>
      </trkpt>
      <trkpt lat="40.491450" lon="-5.259917">
        <ele>1821.0</ele>
        <time>2018-09-02T12:05:51Z</time>
      </trkpt>
      <trkpt lat="40.491383" lon="-5.259833">
        <ele>1821.0</ele>
        <time>2018-09-02T12:05:52Z</time>
      </trkpt>
      <trkpt lat="40.491333" lon="-5.259683">
        <ele>1821.0</ele>
        <time>2018-09-02T12:05:53Z</time>
      </trkpt>
      <trkpt lat="40.491350" lon="-5.259533">
        <ele>1823.0</ele>
        <time>2018-09-02T12:05:54Z</time>
      </trkpt>
      <trkpt lat="40.491383" lon="-5.259417">
        <ele>1826.0</ele>
        <time>2018-09-02T12:05:55Z</time>
      </trkpt>
      <trkpt lat="40.491433" lon="-5.259317">
        <ele>1829.0</ele>
        <time>2018-09-02T12:05:56Z</time>
      </trkpt>
      <trkpt lat="40.491500" lon="-5.259250">
        <ele>1831.0</ele>
        <time>2018-09-02T12:05:57Z</time>
      </trkpt>
      <trkpt lat="40.491583" lon="-5.259183">
        <ele>1833.0</ele>
        <time>2018-09-02T12:05:58Z</time>
      </trkpt>
      <trkpt lat="40.491683" lon="-5.259150">
        <ele>1834.0</ele>
        <time>2018-09-02T12:05:59Z</time>
      </trkpt>
      <trkpt lat="40.491800" lon="-5.259133">
        <ele>1834.0</ele>
        <time>2018-09-02T12:06:00Z</time>
      </trkpt>
      <trkpt lat="40.491883" lon="-5.259167">
        <ele>1836.0</ele>
        <time>2018-09-02T12:06:01Z</time>
      </trkpt>
      <trkpt lat="40.491950" lon="-5.259250">
        <ele>1837.0</ele>
        <time>2018-09-02T12:06:02Z</time>
      </trkpt>
      <trkpt lat="40.491983" lon="-5.259350">
        <ele>1838.0</ele>
        <time>2018-09-02T12:06:03Z</time>
      </trkpt>
      <trkpt lat="40.491967" lon="-5.259467">
        <ele>1838.0</ele>
        <time>2018-09-02T12:06:04Z</time>
      </trkpt>
      <trkpt lat="40.491900" lon="-5.259533">
        <ele>1839.0</ele>
        <time>2018-09-02T12:06:05Z</time>
      </trkpt>
      <trkpt lat="40.491833" lon="-5.259583">
        <ele>1840.0</ele>
        <time>2018-09-02T12:06:06Z</time>
      </trkpt>
      <trkpt lat="40.491750" lon="-5.259600">
        <ele>1842.0</ele>
        <time>2018-09-02T12:06:07Z</time>
      </trkpt>
      <trkpt lat="40.491683" lon="-5.259583">
        <ele>1844.0</ele>
        <time>2018-09-02T12:06:08Z</time>
      </trkpt>
      <trkpt lat="40.491600" lon="-5.259550">
        <ele>1845.0</ele>
        <time>2018-09-02T12:06:09Z</time>
      </trkpt>
      <trkpt lat="40.491533" lon="-5.259500">
        <ele>1845.0</ele>
        <time>2018-09-02T12:06:10Z</time>
      </trkpt>
      <trkpt lat="40.491467" lon="-5.259417">
        <ele>1845.0</ele>
        <time>2018-09-02T12:06:11Z</time>
      </trkpt>
      <trkpt lat="40.491400" lon="-5.259300">
        <ele>1846.0</ele>
        <time>2018-09-02T12:06:12Z</time>
      </trkpt>
      <trkpt lat="40.491383" lon="-5.259167">
        <ele>1848.0</ele>
        <time>2018-09-02T12:06:13Z</time>
      </trkpt>
      <trkpt lat="40.491383" lon="-5.259033">
        <ele>1850.0</ele>
        <time>2018-09-02T12:06:14Z</time>
      </trkpt>
      <trkpt lat="40.491417" lon="-5.258917">
        <ele>1853.0</ele>
        <time>2018-09-02T12:06:15Z</time>
      </trkpt>
      <trkpt lat="40.491450" lon="-5.258800">
        <ele>1855.0</ele>
        <time>2018-09-02T12:06:16Z</time>
      </trkpt>
      <trkpt lat="40.491500" lon="-5.258683">
        <ele>1857.0</ele>
        <time>2018-09-02T12:06:17Z</time>
      </trkpt>
      <trkpt lat="40.491550" lon="-5.258567">
        <ele>1860.0</ele>
        <time>2018-09-02T12:06:18Z</time>
      </trkpt>
      <trkpt lat="40.491617" lon="-5.258483">
        <ele>1863.0</ele>
        <time>2018-09-02T12:06:19Z</time>
      </trkpt>
      <trkpt lat="40.491717" lon="-5.258417">
        <ele>1865.0</ele>
        <time>2018-09-02T12:06:20Z</time>
      </trkpt>
      <trkpt lat="40.491833" lon="-5.258383">
        <ele>1865.0</ele>
        <time>2018-09-02T12:06:21Z</time>
      </trkpt>
      <trkpt lat="40.491933" lon="-5.258400">
        <ele>1866.0</ele>
        <time>2018-09-02T12:06:22Z</time>
      </trkpt>
      <trkpt lat="40.492033" lon="-5.258450">
        <ele>1868.0</ele>
        <time>2018-09-02T12:06:23Z</time>
      </trkpt>
      <trkpt lat="40.492100" lon="-5.258533">
        <ele>1871.0</ele>
        <time>2018-09-02T12:06:24Z</time>
      </trkpt>
      <trkpt lat="40.492117" lon="-5.258617">
        <ele>1873.0</ele>
        <time>2018-09-02T12:06:25Z</time>
      </trkpt>
      <trkpt lat="40.492117" lon="-5.258700">
        <ele>1875.0</ele>
        <time>2018-09-02T12:06:26Z</time>
      </trkpt>
      <trkpt lat="40.492100" lon="-5.258783">
        <ele>1876.0</ele>
        <time>2018-09-02T12:06:27Z</time>
      </trkpt>
      <trkpt lat="40.492050" lon="-5.258850">
        <ele>1877.0</ele>
        <time>2018-09-02T12:06:28Z</time>
      </trkpt>
      <trkpt lat="40.491967" lon="-5.258883">
        <ele>1878.0</ele>
        <time>2018-09-02T12:06:29Z</time>
      </trkpt>
      <trkpt lat="40.491867" lon="-5.258850">
        <ele>1878.0</ele>
        <time>2018-09-02T12:06:30Z</time>
      </trkpt>
      <trkpt lat="40.491800" lon="-5.258767">
        <ele>1879.0</ele>
        <time>2018-09-02T12:06:31Z</time>
      </trkpt>
      <trkpt lat="40.491750" lon="-5.258633">
        <ele>1879.0</ele>
        <time>2018-09-02T12:06:32Z</time>
      </trkpt>
      <trkpt lat="40.491733" lon="-5.258483">
        <ele>1881.0</ele>
        <time>2018-09-02T12:06:33Z</time>
      </trkpt>
      <trkpt lat="40.491750" lon="-5.258350">
        <ele>1883.0</ele>
        <time>2018-09-02T12:06:34Z</time>
      </trkpt>
      <trkpt lat="40.491783" lon="-5.258217">
        <ele>1886.0</ele>
        <time>2018-09-02T12:06:35Z</time>
      </trkpt>
      <trkpt lat="40.491833" lon="-5.258117">
        <ele>1888.0</ele>
        <time>2018-09-02T12:06:36Z</time>
      </trkpt>
      <trkpt lat="40.491900" lon="-5.258017">
        <ele>1890.0</ele>
        <time>2018-09-02T12:06:37Z</time>
      </trkpt>
      <trkpt lat="40.491967" lon="-5.257917">
        <ele>1891.0</ele>
        <time>2018-09-02T12:06:38Z</time>
      </trkpt>
      <trkpt lat="40.492067" lon="-5.257850">
        <ele>1893.0</ele>
        <time>2018-09-02T12:06:39Z</time>
      </trkpt>
      <trkpt lat="40.492167" lon="-5.257800">
        <ele>1894.0</ele>
        <time>2018-09-02T12:06:40Z</time>
      </trkpt>
      <trkpt lat="40.492267" lon="-5.257800">
        <ele>1895.0</ele>
        <time>2018-09-02T12:06:41Z</time>
      </trkpt>
      <trkpt lat="40.492350" lon="-5.257817">
        <ele>1896.0</ele>
        <time>2018-09-02T12:06:42Z</time>
      </trkpt>
      <trkpt lat="40.492433" lon="-5.257883">
        <ele>1898.0</ele>
        <time>2018-09-02T12:06:43Z</time>
      </trkpt>
      <trkpt lat="40.492467" lon="-5.257950">
        <ele>1899.0</ele>
        <time>2018-09-02T12:06:44Z</time>
      </trkpt>
      <trkpt lat="40.492500" lon="-5.258033">
        <ele>1901.0</ele>
        <time>2018-09-02T12:06:45Z</time>
      </trkpt>
      <trkpt lat="40.492483" lon="-5.258117">
        <ele>1902.0</ele>
        <time>2018-09-02T12:06:46Z</time>
      </trkpt>
      <trkpt lat="40.492467" lon="-5.258200">
        <ele>1902.0</ele>
        <time>2018-09-02T12:06:47Z</time>
      </trkpt>
      <trkpt lat="40.492417" lon="-5.258250">
        <ele>1903.0</ele>
        <time>2018-09-02T12:06:48Z</time>
      </trkpt>
      <trkpt lat="40.492333" lon="-5.258283">
        <ele>1902.0</ele>
        <time>2018-09-02T12:06:49Z</time>
      </trkpt>
      <trkpt lat="40.492233" lon="-5.258250">
        <ele>1901.0</ele>
        <time>2018-09-02T12:06:50Z</time>
      </trkpt>
      <trkpt lat="40.492133" lon="-5.258150">
        <ele>1901.0</ele>
        <time>2018-09-02T12:06:51Z</time>
      </trkpt>
      <trkpt lat="40.492083" lon="-5.258033">
        <ele>1901.0</ele>
        <time>2018-09-02T12:06:52Z</time>
      </trkpt>
      <trkpt lat="40.492033" lon="-5.257900">
        <ele>1903.0</ele>
        <time>2018-09-02T12:06:53Z</time>
      </trkpt>
      <trkpt lat="40.492000" lon="-5.257783">
        <ele>1905.0</ele>
        <time>2018-09-02T12:06:54Z</time>
      </trkpt>
      <trkpt lat="40.491983" lon="-5.257667">
        <ele>1908.0</ele>
        <time>2018-09-02T12:06:55Z</time>
      </trkpt>
      <trkpt lat="40.491983" lon="-5.257533">
        <ele>1910.0</ele>
        <time>2018-09-02T12:06:56Z</time>
      </trkpt>
      <trkpt lat="40.491983" lon="-5.257417">
        <ele>1912.0</ele>
        <time>2018-09-02T12:06:57Z</time>
      </trkpt>
      <trkpt lat="40.492017" lon="-5.257300">
        <ele>1914.0</ele>
        <time>2018-09-02T12:06:58Z</time>
      </trkpt>
      <trkpt lat="40.492067" lon="-5.257183">
        <ele>1916.0</ele>
        <time>2018-09-02T12:06:59Z</time>
      </trkpt>
      <trkpt lat="40.492150" lon="-5.257100">
        <ele>1917.0</ele>
        <time>2018-09-02T12:07:00Z</time>
      </trkpt>
      <trkpt lat="40.492250" lon="-5.257033">
        <ele>1918.0</ele>
        <time>2018-09-02T12:07:01Z</time>
      </trkpt>
      <trkpt lat="40.492350" lon="-5.257017">
        <ele>1920.0</ele>
        <time>2018-09-02T12:07:02Z</time>
      </trkpt>
      <trkpt lat="40.492450" lon="-5.257017">
        <ele>1922.0</ele>
        <time>2018-09-02T12:07:03Z</time>
      </trkpt>
      <trkpt lat="40.492517" lon="-5.257050">
        <ele>1924.0</ele>
        <time>2018-09-02T12:07:04Z</time>
      </trkpt>
      <trkpt lat="40.492550" lon="-5.257117">
        <ele>1926.0</ele>
        <time>2018-09-02T12:07:05Z</time>
      </trkpt>
      <trkpt lat="40.492567" lon="-5.257183">
        <ele>1927.0</ele>
        <time>2018-09-02T12:07:06Z</time>
      </trkpt>
      <trkpt lat="40.492550" lon="-5.257267">
        <ele>1928.0</ele>
        <time>2018-09-02T12:07:07Z</time>
      </trkpt>
      <trkpt lat="40.492483" lon="-5.257317">
        <ele>1929.0</ele>
        <time>2018-09-02T12:07:08Z</time>
      </trkpt>
      <trkpt lat="40.492400" lon="-5.257333">
        <ele>1930.0</ele>
        <time>2018-09-02T12:07:09Z</time>
      </trkpt>
      <trkpt lat="40.492317" lon="-5.257300">
        <ele>1933.0</ele>
        <time>2018-09-02T12:07:10Z</time>
      </trkpt>
      <trkpt lat="40.492233" lon="-5.257250">
        <ele>1935.0</ele>
        <time>2018-09-02T12:07:11Z</time>
      </trkpt>
      <trkpt lat="40.492167" lon="-5.257183">
        <ele>1938.0</ele>
        <time>2018-09-02T12:07:12Z</time>
      </trkpt>
      <trkpt lat="40.492100" lon="-5.257100">
        <ele>1941.0</ele>
        <time>2018-09-02T12:07:13Z</time>
      </trkpt>
      <trkpt lat="40.492033" lon="-5.257017">
        <ele>1944.0</ele>
        <time>2018-09-02T12:07:14Z</time>
      </trkpt>
      <trkpt lat="40.491983" lon="-5.256917">
        <ele>1945.0</ele>
        <time>2018-09-02T12:07:15Z</time>
      </trkpt>
      <trkpt lat="40.491917" lon="-5.256817">
        <ele>1947.0</ele>
        <time>2018-09-02T12:07:16Z</time>
      </trkpt>
      <trkpt lat="40.491883" lon="-5.256700">
        <ele>1947.0</ele>
        <time>2018-09-02T12:07:17Z</time>
      </trkpt>
      <trkpt lat="40.491883" lon="-5.256567">
        <ele>1947.0</ele>
        <time>2018-09-02T12:07:18Z</time>
      </trkpt>
      <trkpt lat="40.491917" lon="-5.256450">
        <ele>1947.0</ele>
        <time>2018-09-02T12:07:19Z</time>
      </trkpt>
      <trkpt lat="40.491967" lon="-5.256333">
        <ele>1945.0</ele>
        <time>2018-09-02T12:07:20Z</time>
      </trkpt>
      <trkpt lat="40.492033" lon="-5.256217">
        <ele>1945.0</ele>
        <time>2018-09-02T12:07:21Z</time>
      </trkpt>
      <trkpt lat="40.492117" lon="-5.256133">
        <ele>1944.0</ele>
        <time>2018-09-02T12:07:22Z</time>
      </trkpt>
      <trkpt lat="40.492217" lon="-5.256100">
        <ele>1944.0</ele>
        <time>2018-09-02T12:07:23Z</time>
      </trkpt>
      <trkpt lat="40.492300" lon="-5.256117">
        <ele>1944.0</ele>
        <time>2018-09-02T12:07:24Z</time>
      </trkpt>
      <trkpt lat="40.492367" lon="-5.256167">
        <ele>1943.0</ele>
        <time>2018-09-02T12:07:25Z</time>
      </trkpt>
      <trkpt lat="40.492383" lon="-5.256250">
        <ele>1944.0</ele>
        <time>2018-09-02T12:07:26Z</time>
      </trkpt>
      <trkpt lat="40.492367" lon="-5.256317">
        <ele>1944.0</ele>
        <time>2018-09-02T12:07:27Z</time>
      </trkpt>
      <trkpt lat="40.492300" lon="-5.256367">
        <ele>1944.0</ele>
        <time>2018-09-02T12:07:28Z</time>
      </trkpt>
      <trkpt lat="40.492233" lon="-5.256383">
        <ele>1945.0</ele>
        <time>2018-09-02T12:07:29Z</time>
      </trkpt>
      <trkpt lat="40.492167" lon="-5.256383">
        <ele>1947.0</ele>
        <time>2018-09-02T12:07:30Z</time>
      </trkpt>
      <trkpt lat="40.492100" lon="-5.256383">
        <ele>1948.0</ele>
        <time>2018-09-02T12:07:31Z</time>
      </trkpt>
      <trkpt lat="40.492017" lon="-5.256383">
        <ele>1949.0</ele>
        <time>2018-09-02T12:07:32Z</time>
      </trkpt>
      <trkpt lat="40.491917" lon="-5.256400">
        <ele>1951.0</ele>
        <time>2018-09-02T12:07:33Z</time>
      </trkpt>
      <trkpt lat="40.491850" lon="-5.256400">
        <ele>1952.0</ele>
        <time>2018-09-02T12:07:34Z</time>
      </trkpt>
      <trkpt lat="40.491783" lon="-5.256417">
        <ele>1954.0</ele>
        <time>2018-09-02T12:07:35Z</time>
      </trkpt>
      <trkpt lat="40.491717" lon="-5.256417">
        <ele>1955.0</ele>
        <time>2018-09-02T12:07:36Z</time>
      </trkpt>
      <trkpt lat="40.491633" lon="-5.256417">
        <ele>1956.0</ele>
        <time>2018-09-02T12:07:37Z</time>
      </trkpt>
      <trkpt lat="40.491533" lon="-5.256417">
        <ele>1956.0</ele>
        <time>2018-09-02T12:07:38Z</time>
      </trkpt>
      <trkpt lat="40.491450" lon="-5.256450">
        <ele>1957.0</ele>
        <time>2018-09-02T12:07:39Z</time>
      </trkpt>
      <trkpt lat="40.491367" lon="-5.256500">
        <ele>1958.0</ele>
        <time>2018-09-02T12:07:40Z</time>
      </trkpt>
      <trkpt lat="40.491317" lon="-5.256550">
        <ele>1961.0</ele>
        <time>2018-09-02T12:07:41Z</time>
      </trkpt>
      <trkpt lat="40.491250" lon="-5.256583">
        <ele>1963.0</ele>
        <time>2018-09-02T12:07:42Z</time>
      </trkpt>
      <trkpt lat="40.491200" lon="-5.256617">
        <ele>1965.0</ele>
        <time>2018-09-02T12:07:43Z</time>
      </trkpt>
      <trkpt lat="40.491133" lon="-5.256617">
        <ele>1965.0</ele>
        <time>2018-09-02T12:07:44Z</time>
      </trkpt>
      <trkpt lat="40.491067" lon="-5.256617">
        <ele>1963.0</ele>
        <time>2018-09-02T12:07:45Z</time>
      </trkpt>
      <trkpt lat="40.490983" lon="-5.256567">
        <ele>1963.0</ele>
        <time>2018-09-02T12:07:46Z</time>
      </trkpt>
      <trkpt lat="40.490917" lon="-5.256483">
        <ele>1963.0</ele>
        <time>2018-09-02T12:07:47Z</time>
      </trkpt>
      <trkpt lat="40.490867" lon="-5.256350">
        <ele>1964.0</ele>
        <time>2018-09-02T12:07:48Z</time>
      </trkpt>
      <trkpt lat="40.490850" lon="-5.256200">
        <ele>1964.0</ele>
        <time>2018-09-02T12:07:49Z</time>
      </trkpt>
      <trkpt lat="40.490867" lon="-5.256033">
        <ele>1965.0</ele>
        <time>2018-09-02T12:07:50Z</time>
      </trkpt>
      <trkpt lat="40.490917" lon="-5.255883">
        <ele>1965.0</ele>
        <time>2018-09-02T12:07:51Z</time>
      </trkpt>
      <trkpt lat="40.491000" lon="-5.255767">
        <ele>1965.0</ele>
        <time>2018-09-02T12:07:52Z</time>
      </trkpt>
      <trkpt lat="40.491100" lon="-5.255650">
        <ele>1965.0</ele>
        <time>2018-09-02T12:07:53Z</time>
      </trkpt>
      <trkpt lat="40.491200" lon="-5.255567">
        <ele>1965.0</ele>
        <time>2018-09-02T12:07:54Z</time>
      </trkpt>
      <trkpt lat="40.491283" lon="-5.255467">
        <ele>1965.0</ele>
        <time>2018-09-02T12:07:55Z</time>
      </trkpt>
      <trkpt lat="40.491383" lon="-5.255367">
        <ele>1965.0</ele>
        <time>2018-09-02T12:07:56Z</time>
      </trkpt>
      <trkpt lat="40.491467" lon="-5.255250">
        <ele>1965.0</ele>
        <time>2018-09-02T12:07:57Z</time>
      </trkpt>
      <trkpt lat="40.491550" lon="-5.255150">
        <ele>1966.0</ele>
        <time>2018-09-02T12:07:58Z</time>
      </trkpt>
      <trkpt lat="40.491633" lon="-5.255033">
        <ele>1966.0</ele>
        <time>2018-09-02T12:07:59Z</time>
      </trkpt>
      <trkpt lat="40.491717" lon="-5.254917">
        <ele>1967.0</ele>
        <time>2018-09-02T12:08:00Z</time>
      </trkpt>
      <trkpt lat="40.491783" lon="-5.254817">
        <ele>1969.0</ele>
        <time>2018-09-02T12:08:01Z</time>
      </trkpt>
      <trkpt lat="40.491867" lon="-5.254700">
        <ele>1970.0</ele>
        <time>2018-09-02T12:08:02Z</time>
      </trkpt>
      <trkpt lat="40.491950" lon="-5.254617">
        <ele>1970.0</ele>
        <time>2018-09-02T12:08:03Z</time>
      </trkpt>
      <trkpt lat="40.492050" lon="-5.254517">
        <ele>1970.0</ele>
        <time>2018-09-02T12:08:04Z</time>
      </trkpt>
      <trkpt lat="40.492133" lon="-5.254433">
        <ele>1970.0</ele>
        <time>2018-09-02T12:08:05Z</time>
      </trkpt>
      <trkpt lat="40.492233" lon="-5.254333">
        <ele>1970.0</ele>
        <time>2018-09-02T12:08:06Z</time>
      </trkpt>
      <trkpt lat="40.492317" lon="-5.254233">
        <ele>1970.0</ele>
        <time>2018-09-02T12:08:07Z</time>
      </trkpt>
      <trkpt lat="40.492417" lon="-5.254133">
        <ele>1969.0</ele>
        <time>2018-09-02T12:08:08Z</time>
      </trkpt>
      <trkpt lat="40.492600" lon="-5.253950">
        <ele>1969.0</ele>
        <time>2018-09-02T12:08:10Z</time>
      </trkpt>
      <trkpt lat="40.492683" lon="-5.253867">
        <ele>1968.0</ele>
        <time>2018-09-02T12:08:11Z</time>
      </trkpt>
      <trkpt lat="40.492783" lon="-5.253767">
        <ele>1969.0</ele>
        <time>2018-09-02T12:08:12Z</time>
      </trkpt>
      <trkpt lat="40.493000" lon="-5.253583">
        <ele>1970.0</ele>
        <time>2018-09-02T12:08:14Z</time>
      </trkpt>
      <trkpt lat="40.493083" lon="-5.253500">
        <ele>1974.0</ele>
        <time>2018-09-02T12:08:15Z</time>
      </trkpt>
      <trkpt lat="40.493167" lon="-5.253433">
        <ele>1981.0</ele>
        <time>2018-09-02T12:08:16Z</time>
      </trkpt>
      <trkpt lat="40.493233" lon="-5.253367">
        <ele>1986.0</ele>
        <time>2018-09-02T12:08:17Z</time>
      </trkpt>
      <trkpt lat="40.493300" lon="-5.253300">
        <ele>1990.0</ele>
        <time>2018-09-02T12:08:18Z</time>
      </trkpt>
      <trkpt lat="40.493383" lon="-5.253200">
        <ele>1993.0</ele>
        <time>2018-09-02T12:08:19Z</time>
      </trkpt>
      <trkpt lat="40.493467" lon="-5.253100">
        <ele>1996.0</ele>
        <time>2018-09-02T12:08:20Z</time>
      </trkpt>
      <trkpt lat="40.493550" lon="-5.253000">
        <ele>2000.0</ele>
        <time>2018-09-02T12:08:21Z</time>
      </trkpt>
      <trkpt lat="40.493633" lon="-5.252900">
        <ele>2004.0</ele>
        <time>2018-09-02T12:08:22Z</time>
      </trkpt>
      <trkpt lat="40.493700" lon="-5.252800">
        <ele>2009.0</ele>
        <time>2018-09-02T12:08:23Z</time>
      </trkpt>
      <trkpt lat="40.493750" lon="-5.252683">
        <ele>2014.0</ele>
        <time>2018-09-02T12:08:24Z</time>
      </trkpt>
      <trkpt lat="40.493800" lon="-5.252583">
        <ele>2018.0</ele>
        <time>2018-09-02T12:08:25Z</time>
      </trkpt>
      <trkpt lat="40.493850" lon="-5.252450">
        <ele>2022.0</ele>
        <time>2018-09-02T12:08:26Z</time>
      </trkpt>
      <trkpt lat="40.493917" lon="-5.252350">
        <ele>2024.0</ele>
        <time>2018-09-02T12:08:27Z</time>
      </trkpt>
      <trkpt lat="40.493983" lon="-5.252267">
        <ele>2026.0</ele>
        <time>2018-09-02T12:08:28Z</time>
      </trkpt>
      <trkpt lat="40.494150" lon="-5.252283">
        <ele>2029.0</ele>
        <time>2018-09-02T12:08:30Z</time>
      </trkpt>
      <trkpt lat="40.494200" lon="-5.252350">
        <ele>2030.0</ele>
        <time>2018-09-02T12:08:31Z</time>
      </trkpt>
      <trkpt lat="40.494217" lon="-5.252417">
        <ele>2032.0</ele>
        <time>2018-09-02T12:08:32Z</time>
      </trkpt>
      <trkpt lat="40.494217" lon="-5.252483">
        <ele>2037.0</ele>
        <time>2018-09-02T12:08:33Z</time>
      </trkpt>
      <trkpt lat="40.494233" lon="-5.252533">
        <ele>2042.0</ele>
        <time>2018-09-02T12:08:34Z</time>
      </trkpt>
      <trkpt lat="40.494250" lon="-5.252583">
        <ele>2047.0</ele>
        <time>2018-09-02T12:08:35Z</time>
      </trkpt>
      <trkpt lat="40.494250" lon="-5.252633">
        <ele>2051.0</ele>
        <time>2018-09-02T12:08:36Z</time>
      </trkpt>
      <trkpt lat="40.494250" lon="-5.252717">
        <ele>2055.0</ele>
        <time>2018-09-02T12:08:37Z</time>
      </trkpt>
      <trkpt lat="40.494217" lon="-5.252767">
        <ele>2058.0</ele>
        <time>2018-09-02T12:08:38Z</time>
      </trkpt>
      <trkpt lat="40.494167" lon="-5.252817">
        <ele>2063.0</ele>
        <time>2018-09-02T12:08:39Z</time>
      </trkpt>
      <trkpt lat="40.494083" lon="-5.252817">
        <ele>2066.0</ele>
        <time>2018-09-02T12:08:40Z</time>
      </trkpt>
      <trkpt lat="40.493983" lon="-5.252767">
        <ele>2069.0</ele>
        <time>2018-09-02T12:08:41Z</time>
      </trkpt>
      <trkpt lat="40.493900" lon="-5.252683">
        <ele>2072.0</ele>
        <time>2018-09-02T12:08:42Z</time>
      </trkpt>
      <trkpt lat="40.493833" lon="-5.252533">
        <ele>2076.0</ele>
        <time>2018-09-02T12:08:43Z</time>
      </trkpt>
      <trkpt lat="40.493833" lon="-5.252367">
        <ele>2079.0</ele>
        <time>2018-09-02T12:08:44Z</time>
      </trkpt>
      <trkpt lat="40.493883" lon="-5.252217">
        <ele>2082.0</ele>
        <time>2018-09-02T12:08:45Z</time>
      </trkpt>
      <trkpt lat="40.493967" lon="-5.252083">
        <ele>2086.0</ele>
        <time>2018-09-02T12:08:46Z</time>
      </trkpt>
      <trkpt lat="40.494083" lon="-5.252033">
        <ele>2090.0</ele>
        <time>2018-09-02T12:08:47Z</time>
      </trkpt>
      <trkpt lat="40.494183" lon="-5.252033">
        <ele>2094.0</ele>
        <time>2018-09-02T12:08:48Z</time>
      </trkpt>
      <trkpt lat="40.494250" lon="-5.252083">
        <ele>2098.0</ele>
        <time>2018-09-02T12:08:49Z</time>
      </trkpt>
      <trkpt lat="40.494300" lon="-5.252167">
        <ele>2103.0</ele>
        <time>2018-09-02T12:08:50Z</time>
      </trkpt>
      <trkpt lat="40.494317" lon="-5.252250">
        <ele>2108.0</ele>
        <time>2018-09-02T12:08:51Z</time>
      </trkpt>
      <trkpt lat="40.494300" lon="-5.252317">
        <ele>2112.0</ele>
        <time>2018-09-02T12:08:52Z</time>
      </trkpt>
      <trkpt lat="40.494283" lon="-5.252367">
        <ele>2116.0</ele>
        <time>2018-09-02T12:08:53Z</time>
      </trkpt>
      <trkpt lat="40.494267" lon="-5.252433">
        <ele>2119.0</ele>
        <time>2018-09-02T12:08:54Z</time>
      </trkpt>
      <trkpt lat="40.494233" lon="-5.252483">
        <ele>2123.0</ele>
        <time>2018-09-02T12:08:55Z</time>
      </trkpt>
      <trkpt lat="40.494183" lon="-5.252517">
        <ele>2125.0</ele>
        <time>2018-09-02T12:08:56Z</time>
      </trkpt>
      <trkpt lat="40.494083" lon="-5.252517">
        <ele>2128.0</ele>
        <time>2018-09-02T12:08:57Z</time>
      </trkpt>
      <trkpt lat="40.494000" lon="-5.252450">
        <ele>2130.0</ele>
        <time>2018-09-02T12:08:58Z</time>
      </trkpt>
      <trkpt lat="40.493933" lon="-5.252317">
        <ele>2133.0</ele>
        <time>2018-09-02T12:08:59Z</time>
      </trkpt>
      <trkpt lat="40.493900" lon="-5.252167">
        <ele>2137.0</ele>
        <time>2018-09-02T12:09:00Z</time>
      </trkpt>
      <trkpt lat="40.493900" lon="-5.252000">
        <ele>2142.0</ele>
        <time>2018-09-02T12:09:01Z</time>
      </trkpt>
      <trkpt lat="40.493917" lon="-5.251867">
        <ele>2147.0</ele>
        <time>2018-09-02T12:09:02Z</time>
      </trkpt>
      <trkpt lat="40.493950" lon="-5.251733">
        <ele>2153.0</ele>
        <time>2018-09-02T12:09:03Z</time>
      </trkpt>
      <trkpt lat="40.494000" lon="-5.251600">
        <ele>2158.0</ele>
        <time>2018-09-02T12:09:04Z</time>
      </trkpt>
      <trkpt lat="40.494067" lon="-5.251483">
        <ele>2163.0</ele>
        <time>2018-09-02T12:09:05Z</time>
      </trkpt>
      <trkpt lat="40.494150" lon="-5.251383">
        <ele>2167.0</ele>
        <time>2018-09-02T12:09:06Z</time>
      </trkpt>
      <trkpt lat="40.494250" lon="-5.251300">
        <ele>2171.0</ele>
        <time>2018-09-02T12:09:07Z</time>
      </trkpt>
      <trkpt lat="40.494333" lon="-5.251283">
        <ele>2176.0</ele>
        <time>2018-09-02T12:09:08Z</time>
      </trkpt>
      <trkpt lat="40.494417" lon="-5.251283">
        <ele>2182.0</ele>
        <time>2018-09-02T12:09:09Z</time>
      </trkpt>
      <trkpt lat="40.494483" lon="-5.251317">
        <ele>2187.0</ele>
        <time>2018-09-02T12:09:10Z</time>
      </trkpt>
      <trkpt lat="40.494533" lon="-5.251350">
        <ele>2192.0</ele>
        <time>2018-09-02T12:09:11Z</time>
      </trkpt>
      <trkpt lat="40.494600" lon="-5.251383">
        <ele>2195.0</ele>
        <time>2018-09-02T12:09:12Z</time>
      </trkpt>
      <trkpt lat="40.494633" lon="-5.251433">
        <ele>2197.0</ele>
        <time>2018-09-02T12:09:13Z</time>
      </trkpt>
      <trkpt lat="40.494667" lon="-5.251500">
        <ele>2199.0</ele>
        <time>2018-09-02T12:09:14Z</time>
      </trkpt>
      <trkpt lat="40.494667" lon="-5.251567">
        <ele>2200.0</ele>
        <time>2018-09-02T12:09:15Z</time>
      </trkpt>
      <trkpt lat="40.494633" lon="-5.251617">
        <ele>2201.0</ele>
        <time>2018-09-02T12:09:16Z</time>
      </trkpt>
      <trkpt lat="40.494583" lon="-5.251650">
        <ele>2204.0</ele>
        <time>2018-09-02T12:09:17Z</time>
      </trkpt>
      <trkpt lat="40.494550" lon="-5.251667">
        <ele>2206.0</ele>
        <time>2018-09-02T12:09:18Z</time>
      </trkpt>
      <trkpt lat="40.494517" lon="-5.251683">
        <ele>2208.0</ele>
        <time>2018-09-02T12:09:19Z</time>
      </trkpt>
      <trkpt lat="40.494467" lon="-5.251700">
        <ele>2210.0</ele>
        <time>2018-09-02T12:09:20Z</time>
      </trkpt>
      <trkpt lat="40.494400" lon="-5.251700">
        <ele>2212.0</ele>
        <time>2018-09-02T12:09:21Z</time>
      </trkpt>
      <trkpt lat="40.494333" lon="-5.251717">
        <ele>2213.0</ele>
        <time>2018-09-02T12:09:22Z</time>
      </trkpt>
      <trkpt lat="40.494250" lon="-5.251717">
        <ele>2215.0</ele>
        <time>2018-09-02T12:09:23Z</time>
      </trkpt>
      <trkpt lat="40.494167" lon="-5.251717">
        <ele>2218.0</ele>
        <time>2018-09-02T12:09:24Z</time>
      </trkpt>
      <trkpt lat="40.494100" lon="-5.251717">
        <ele>2221.0</ele>
        <time>2018-09-02T12:09:25Z</time>
      </trkpt>
      <trkpt lat="40.494033" lon="-5.251700">
        <ele>2225.0</ele>
        <time>2018-09-02T12:09:26Z</time>
      </trkpt>
      <trkpt lat="40.493983" lon="-5.251683">
        <ele>2228.0</ele>
        <time>2018-09-02T12:09:27Z</time>
      </trkpt>
      <trkpt lat="40.493917" lon="-5.251683">
        <ele>2231.0</ele>
        <time>2018-09-02T12:09:28Z</time>
      </trkpt>
      <trkpt lat="40.493850" lon="-5.251667">
        <ele>2234.0</ele>
        <time>2018-09-02T12:09:29Z</time>
      </trkpt>
      <trkpt lat="40.493767" lon="-5.251650">
        <ele>2236.0</ele>
        <time>2018-09-02T12:09:30Z</time>
      </trkpt>
      <trkpt lat="40.493700" lon="-5.251600">
        <ele>2239.0</ele>
        <time>2018-09-02T12:09:31Z</time>
      </trkpt>
      <trkpt lat="40.493617" lon="-5.251517">
        <ele>2241.0</ele>
        <time>2018-09-02T12:09:32Z</time>
      </trkpt>
      <trkpt lat="40.493550" lon="-5.251417">
        <ele>2243.0</ele>
        <time>2018-09-02T12:09:33Z</time>
      </trkpt>
      <trkpt lat="40.493517" lon="-5.251283">
        <ele>2245.0</ele>
        <time>2018-09-02T12:09:34Z</time>
      </trkpt>
      <trkpt lat="40.493500" lon="-5.251133">
        <ele>2245.0</ele>
        <time>2018-09-02T12:09:35Z</time>
      </trkpt>
      <trkpt lat="40.493533" lon="-5.250967">
        <ele>2246.0</ele>
        <time>2018-09-02T12:09:36Z</time>
      </trkpt>
      <trkpt lat="40.493617" lon="-5.250850">
        <ele>2248.0</ele>
        <time>2018-09-02T12:09:37Z</time>
      </trkpt>
      <trkpt lat="40.493700" lon="-5.250783">
        <ele>2251.0</ele>
        <time>2018-09-02T12:09:38Z</time>
      </trkpt>
      <trkpt lat="40.493783" lon="-5.250783">
        <ele>2254.0</ele>
        <time>2018-09-02T12:09:39Z</time>
      </trkpt>
      <trkpt lat="40.493850" lon="-5.250800">
        <ele>2258.0</ele>
        <time>2018-09-02T12:09:40Z</time>
      </trkpt>
      <trkpt lat="40.493917" lon="-5.250867">
        <ele>2261.0</ele>
        <time>2018-09-02T12:09:41Z</time>
      </trkpt>
      <trkpt lat="40.493950" lon="-5.250917">
        <ele>2265.0</ele>
        <time>2018-09-02T12:09:42Z</time>
      </trkpt>
      <trkpt lat="40.493967" lon="-5.250967">
        <ele>2268.0</ele>
        <time>2018-09-02T12:09:43Z</time>
      </trkpt>
      <trkpt lat="40.493950" lon="-5.251017">
        <ele>2270.0</ele>
        <time>2018-09-02T12:09:44Z</time>
      </trkpt>
      <trkpt lat="40.493900" lon="-5.251050">
        <ele>2272.0</ele>
        <time>2018-09-02T12:09:45Z</time>
      </trkpt>
      <trkpt lat="40.493850" lon="-5.251083">
        <ele>2273.0</ele>
        <time>2018-09-02T12:09:46Z</time>
      </trkpt>
      <trkpt lat="40.493767" lon="-5.251083">
        <ele>2274.0</ele>
        <time>2018-09-02T12:09:47Z</time>
      </trkpt>
      <trkpt lat="40.493683" lon="-5.251033">
        <ele>2277.0</ele>
        <time>2018-09-02T12:09:48Z</time>
      </trkpt>
      <trkpt lat="40.493617" lon="-5.250917">
        <ele>2279.0</ele>
        <time>2018-09-02T12:09:49Z</time>
      </trkpt>
      <trkpt lat="40.493583" lon="-5.250783">
        <ele>2281.0</ele>
        <time>2018-09-02T12:09:50Z</time>
      </trkpt>
      <trkpt lat="40.493583" lon="-5.250617">
        <ele>2282.0</ele>
        <time>2018-09-02T12:09:51Z</time>
      </trkpt>
      <trkpt lat="40.493617" lon="-5.250483">
        <ele>2283.0</ele>
        <time>2018-09-02T12:09:52Z</time>
      </trkpt>
      <trkpt lat="40.493700" lon="-5.250367">
        <ele>2283.0</ele>
        <time>2018-09-02T12:09:53Z</time>
      </trkpt>
      <trkpt lat="40.493783" lon="-5.250300">
        <ele>2284.0</ele>
        <time>2018-09-02T12:09:54Z</time>
      </trkpt>
      <trkpt lat="40.493867" lon="-5.250283">
        <ele>2286.0</ele>
        <time>2018-09-02T12:09:55Z</time>
      </trkpt>
      <trkpt lat="40.493950" lon="-5.250300">
        <ele>2287.0</ele>
        <time>2018-09-02T12:09:56Z</time>
      </trkpt>
      <trkpt lat="40.494017" lon="-5.250333">
        <ele>2289.0</ele>
        <time>2018-09-02T12:09:57Z</time>
      </trkpt>
      <trkpt lat="40.494067" lon="-5.250383">
        <ele>2291.0</ele>
        <time>2018-09-02T12:09:58Z</time>
      </trkpt>
      <trkpt lat="40.494117" lon="-5.250417">
        <ele>2294.0</ele>
        <time>2018-09-02T12:09:59Z</time>
      </trkpt>
      <trkpt lat="40.494150" lon="-5.250483">
        <ele>2296.0</ele>
        <time>2018-09-02T12:10:00Z</time>
      </trkpt>
      <trkpt lat="40.494183" lon="-5.250550">
        <ele>2298.0</ele>
        <time>2018-09-02T12:10:01Z</time>
      </trkpt>
      <trkpt lat="40.494183" lon="-5.250617">
        <ele>2301.0</ele>
        <time>2018-09-02T12:10:02Z</time>
      </trkpt>
      <trkpt lat="40.494183" lon="-5.250683">
        <ele>2303.0</ele>
        <time>2018-09-02T12:10:03Z</time>
      </trkpt>
      <trkpt lat="40.494183" lon="-5.250733">
        <ele>2306.0</ele>
        <time>2018-09-02T12:10:04Z</time>
      </trkpt>
      <trkpt lat="40.494167" lon="-5.250800">
        <ele>2309.0</ele>
        <time>2018-09-02T12:10:05Z</time>
      </trkpt>
      <trkpt lat="40.494167" lon="-5.250867">
        <ele>2313.0</ele>
        <time>2018-09-02T12:10:06Z</time>
      </trkpt>
      <trkpt lat="40.494167" lon="-5.250933">
        <ele>2316.0</ele>
        <time>2018-09-02T12:10:07Z</time>
      </trkpt>
      <trkpt lat="40.494150" lon="-5.250983">
        <ele>2319.0</ele>
        <time>2018-09-02T12:10:08Z</time>
      </trkpt>
      <trkpt lat="40.494117" lon="-5.251033">
        <ele>2321.0</ele>
        <time>2018-09-02T12:10:09Z</time>
      </trkpt>
      <trkpt lat="40.494050" lon="-5.251067">
        <ele>2323.0</ele>
        <time>2018-09-02T12:10:10Z</time>
      </trkpt>
      <trkpt lat="40.493983" lon="-5.251067">
        <ele>2324.0</ele>
        <time>2018-09-02T12:10:11Z</time>
      </trkpt>
      <trkpt lat="40.493900" lon="-5.251000">
        <ele>2326.0</ele>
        <time>2018-09-02T12:10:12Z</time>
      </trkpt>
      <trkpt lat="40.493833" lon="-5.250900">
        <ele>2328.0</ele>
        <time>2018-09-02T12:10:13Z</time>
      </trkpt>
      <trkpt lat="40.493800" lon="-5.250767">
        <ele>2330.0</ele>
        <time>2018-09-02T12:10:14Z</time>
      </trkpt>
      <trkpt lat="40.493800" lon="-5.250633">
        <ele>2333.0</ele>
        <time>2018-09-02T12:10:15Z</time>
      </trkpt>
      <trkpt lat="40.493833" lon="-5.250483">
        <ele>2336.0</ele>
        <time>2018-09-02T12:10:16Z</time>
      </trkpt>
      <trkpt lat="40.493883" lon="-5.250367">
        <ele>2339.0</ele>
        <time>2018-09-02T12:10:17Z</time>
      </trkpt>
      <trkpt lat="40.493933" lon="-5.250233">
        <ele>2342.0</ele>
        <time>2018-09-02T12:10:18Z</time>
      </trkpt>
      <trkpt lat="40.494000" lon="-5.250133">
        <ele>2346.0</ele>
        <time>2018-09-02T12:10:19Z</time>
      </trkpt>
      <trkpt lat="40.494083" lon="-5.250050">
        <ele>2349.0</ele>
        <time>2018-09-02T12:10:20Z</time>
      </trkpt>
      <trkpt lat="40.494183" lon="-5.249983">
        <ele>2353.0</ele>
        <time>2018-09-02T12:10:21Z</time>
      </trkpt>
      <trkpt lat="40.494283" lon="-5.249933">
        <ele>2356.0</ele>
        <time>2018-09-02T12:10:22Z</time>
      </trkpt>
      <trkpt lat="40.494383" lon="-5.249917">
        <ele>2359.0</ele>
        <time>2018-09-02T12:10:23Z</time>
      </trkpt>
      <trkpt lat="40.494467" lon="-5.249917">
        <ele>2362.0</ele>
        <time>2018-09-02T12:10:24Z</time>
      </trkpt>
      <trkpt lat="40.494533" lon="-5.249950">
        <ele>2366.0</ele>
        <time>2018-09-02T12:10:25Z</time>
      </trkpt>
      <trkpt lat="40.494600" lon="-5.250017">
        <ele>2368.0</ele>
        <time>2018-09-02T12:10:26Z</time>
      </trkpt>
      <trkpt lat="40.494650" lon="-5.250083">
        <ele>2370.0</ele>
        <time>2018-09-02T12:10:27Z</time>
      </trkpt>
      <trkpt lat="40.494683" lon="-5.250167">
        <ele>2372.0</ele>
        <time>2018-09-02T12:10:28Z</time>
      </trkpt>
      <trkpt lat="40.494700" lon="-5.250250">
        <ele>2373.0</ele>
        <time>2018-09-02T12:10:29Z</time>
      </trkpt>
      <trkpt lat="40.494683" lon="-5.250317">
        <ele>2375.0</ele>
        <time>2018-09-02T12:10:30Z</time>
      </trkpt>
      <trkpt lat="40.494650" lon="-5.250383">
        <ele>2377.0</ele>
        <time>2018-09-02T12:10:31Z</time>
      </trkpt>
      <trkpt lat="40.494600" lon="-5.250417">
        <ele>2379.0</ele>
        <time>2018-09-02T12:10:32Z</time>
      </trkpt>
      <trkpt lat="40.494550" lon="-5.250433">
        <ele>2382.0</ele>
        <time>2018-09-02T12:10:33Z</time>
      </trkpt>
      <trkpt lat="40.494483" lon="-5.250433">
        <ele>2384.0</ele>
        <time>2018-09-02T12:10:34Z</time>
      </trkpt>
      <trkpt lat="40.494433" lon="-5.250367">
        <ele>2386.0</ele>
        <time>2018-09-02T12:10:35Z</time>
      </trkpt>
      <trkpt lat="40.494367" lon="-5.250283">
        <ele>2387.0</ele>
        <time>2018-09-02T12:10:36Z</time>
      </trkpt>
      <trkpt lat="40.494317" lon="-5.250167">
        <ele>2388.0</ele>
        <time>2018-09-02T12:10:37Z</time>
      </trkpt>
      <trkpt lat="40.494300" lon="-5.250033">
        <ele>2391.0</ele>
        <time>2018-09-02T12:10:38Z</time>
      </trkpt>
      <trkpt lat="40.494283" lon="-5.249917">
        <ele>2396.0</ele>
        <time>2018-09-02T12:10:39Z</time>
      </trkpt>
      <trkpt lat="40.494250" lon="-5.249817">
        <ele>2400.0</ele>
        <time>2018-09-02T12:10:40Z</time>
      </trkpt>
      <trkpt lat="40.494233" lon="-5.249700">
        <ele>2403.0</ele>
        <time>2018-09-02T12:10:41Z</time>
      </trkpt>
      <trkpt lat="40.494217" lon="-5.249583">
        <ele>2406.0</ele>
        <time>2018-09-02T12:10:42Z</time>
      </trkpt>
      <trkpt lat="40.494183" lon="-5.249467">
        <ele>2409.0</ele>
        <time>2018-09-02T12:10:43Z</time>
      </trkpt>
      <trkpt lat="40.494167" lon="-5.249333">
        <ele>2412.0</ele>
        <time>2018-09-02T12:10:44Z</time>
      </trkpt>
      <trkpt lat="40.494167" lon="-5.249183">
        <ele>2415.0</ele>
        <time>2018-09-02T12:10:45Z</time>
      </trkpt>
      <trkpt lat="40.494183" lon="-5.249050">
        <ele>2418.0</ele>
        <time>2018-09-02T12:10:46Z</time>
      </trkpt>
      <trkpt lat="40.494233" lon="-5.248900">
        <ele>2420.0</ele>
        <time>2018-09-02T12:10:47Z</time>
      </trkpt>
      <trkpt lat="40.494283" lon="-5.248767">
        <ele>2423.0</ele>
        <time>2018-09-02T12:10:48Z</time>
      </trkpt>
      <trkpt lat="40.494350" lon="-5.248650">
        <ele>2426.0</ele>
        <time>2018-09-02T12:10:49Z</time>
      </trkpt>
      <trkpt lat="40.494433" lon="-5.248567">
        <ele>2429.0</ele>
        <time>2018-09-02T12:10:50Z</time>
      </trkpt>
      <trkpt lat="40.494533" lon="-5.248500">
        <ele>2432.0</ele>
        <time>2018-09-02T12:10:51Z</time>
      </trkpt>
      <trkpt lat="40.494633" lon="-5.248483">
        <ele>2435.0</ele>
        <time>2018-09-02T12:10:52Z</time>
      </trkpt>
      <trkpt lat="40.494717" lon="-5.248500">
        <ele>2439.0</ele>
        <time>2018-09-02T12:10:53Z</time>
      </trkpt>
      <trkpt lat="40.494800" lon="-5.248517">
        <ele>2442.0</ele>
        <time>2018-09-02T12:10:54Z</time>
      </trkpt>
      <trkpt lat="40.494867" lon="-5.248567">
        <ele>2445.0</ele>
        <time>2018-09-02T12:10:55Z</time>
      </trkpt>
      <trkpt lat="40.494900" lon="-5.248633">
        <ele>2447.0</ele>
        <time>2018-09-02T12:10:56Z</time>
      </trkpt>
      <trkpt lat="40.494933" lon="-5.248717">
        <ele>2449.0</ele>
        <time>2018-09-02T12:10:57Z</time>
      </trkpt>
      <trkpt lat="40.494950" lon="-5.248817">
        <ele>2450.0</ele>
        <time>2018-09-02T12:10:58Z</time>
      </trkpt>
      <trkpt lat="40.494933" lon="-5.248900">
        <ele>2452.0</ele>
        <time>2018-09-02T12:10:59Z</time>
      </trkpt>
      <trkpt lat="40.494917" lon="-5.248967">
        <ele>2454.0</ele>
        <time>2018-09-02T12:11:00Z</time>
      </trkpt>
      <trkpt lat="40.494867" lon="-5.249033">
        <ele>2456.0</ele>
        <time>2018-09-02T12:11:01Z</time>
      </trkpt>
      <trkpt lat="40.494833" lon="-5.249083">
        <ele>2458.0</ele>
        <time>2018-09-02T12:11:02Z</time>
      </trkpt>
      <trkpt lat="40.494783" lon="-5.249133">
        <ele>2460.0</ele>
        <time>2018-09-02T12:11:03Z</time>
      </trkpt>
      <trkpt lat="40.494733" lon="-5.249200">
        <ele>2462.0</ele>
        <time>2018-09-02T12:11:04Z</time>
      </trkpt>
      <trkpt lat="40.494683" lon="-5.249250">
        <ele>2464.0</ele>
        <time>2018-09-02T12:11:05Z</time>
      </trkpt>
      <trkpt lat="40.494633" lon="-5.249300">
        <ele>2466.0</ele>
        <time>2018-09-02T12:11:06Z</time>
      </trkpt>
      <trkpt lat="40.494583" lon="-5.249350">
        <ele>2469.0</ele>
        <time>2018-09-02T12:11:07Z</time>
      </trkpt>
      <trkpt lat="40.494500" lon="-5.249383">
        <ele>2471.0</ele>
        <time>2018-09-02T12:11:08Z</time>
      </trkpt>
      <trkpt lat="40.494433" lon="-5.249417">
        <ele>2474.0</ele>
        <time>2018-09-02T12:11:09Z</time>
      </trkpt>
      <trkpt lat="40.494383" lon="-5.249467">
        <ele>2477.0</ele>
        <time>2018-09-02T12:11:10Z</time>
      </trkpt>
      <trkpt lat="40.494333" lon="-5.249500">
        <ele>2480.0</ele>
        <time>2018-09-02T12:11:11Z</time>
      </trkpt>
      <trkpt lat="40.494283" lon="-5.249533">
        <ele>2484.0</ele>
        <time>2018-09-02T12:11:12Z</time>
      </trkpt>
      <trkpt lat="40.494233" lon="-5.249583">
        <ele>2488.0</ele>
        <time>2018-09-02T12:11:13Z</time>
      </trkpt>
      <trkpt lat="40.494183" lon="-5.249633">
        <ele>2491.0</ele>
        <time>2018-09-02T12:11:14Z</time>
      </trkpt>
      <trkpt lat="40.494117" lon="-5.249650">
        <ele>2495.0</ele>
        <time>2018-09-02T12:11:15Z</time>
      </trkpt>
      <trkpt lat="40.494033" lon="-5.249633">
        <ele>2498.0</ele>
        <time>2018-09-02T12:11:16Z</time>
      </trkpt>
      <trkpt lat="40.493950" lon="-5.249550">
        <ele>2501.0</ele>
        <time>2018-09-02T12:11:17Z</time>
      </trkpt>
      <trkpt lat="40.493900" lon="-5.249433">
        <ele>2504.0</ele>
        <time>2018-09-02T12:11:18Z</time>
      </trkpt>
      <trkpt lat="40.493883" lon="-5.249300">
        <ele>2507.0</ele>
        <time>2018-09-02T12:11:19Z</time>
      </trkpt>
      <trkpt lat="40.493917" lon="-5.249150">
        <ele>2510.0</ele>
        <time>2018-09-02T12:11:20Z</time>
      </trkpt>
      <trkpt lat="40.493967" lon="-5.249050">
        <ele>2513.0</ele>
        <time>2018-09-02T12:11:21Z</time>
      </trkpt>
      <trkpt lat="40.494033" lon="-5.248967">
        <ele>2517.0</ele>
        <time>2018-09-02T12:11:22Z</time>
      </trkpt>
      <trkpt lat="40.494117" lon="-5.248917">
        <ele>2521.0</ele>
        <time>2018-09-02T12:11:23Z</time>
      </trkpt>
      <trkpt lat="40.494217" lon="-5.248900">
        <ele>2524.0</ele>
        <time>2018-09-02T12:11:24Z</time>
      </trkpt>
      <trkpt lat="40.494300" lon="-5.248933">
        <ele>2527.0</ele>
        <time>2018-09-02T12:11:25Z</time>
      </trkpt>
      <trkpt lat="40.494367" lon="-5.249000">
        <ele>2530.0</ele>
        <time>2018-09-02T12:11:26Z</time>
      </trkpt>
      <trkpt lat="40.494383" lon="-5.249083">
        <ele>2533.0</ele>
        <time>2018-09-02T12:11:27Z</time>
      </trkpt>
      <trkpt lat="40.494367" lon="-5.249167">
        <ele>2536.0</ele>
        <time>2018-09-02T12:11:28Z</time>
      </trkpt>
      <trkpt lat="40.494317" lon="-5.249200">
        <ele>2539.0</ele>
        <time>2018-09-02T12:11:29Z</time>
      </trkpt>
      <trkpt lat="40.494250" lon="-5.249217">
        <ele>2544.0</ele>
        <time>2018-09-02T12:11:30Z</time>
      </trkpt>
      <trkpt lat="40.494183" lon="-5.249200">
        <ele>2549.0</ele>
        <time>2018-09-02T12:11:31Z</time>
      </trkpt>
      <trkpt lat="40.494133" lon="-5.249167">
        <ele>2553.0</ele>
        <time>2018-09-02T12:11:32Z</time>
      </trkpt>
      <trkpt lat="40.494083" lon="-5.249133">
        <ele>2557.0</ele>
        <time>2018-09-02T12:11:33Z</time>
      </trkpt>
      <trkpt lat="40.494033" lon="-5.249067">
        <ele>2560.0</ele>
        <time>2018-09-02T12:11:34Z</time>
      </trkpt>
      <trkpt lat="40.493967" lon="-5.248967">
        <ele>2562.0</ele>
        <time>2018-09-02T12:11:35Z</time>
      </trkpt>
      <trkpt lat="40.493933" lon="-5.248850">
        <ele>2565.0</ele>
        <time>2018-09-02T12:11:36Z</time>
      </trkpt>
      <trkpt lat="40.493933" lon="-5.248700">
        <ele>2567.0</ele>
        <time>2018-09-02T12:11:37Z</time>
      </trkpt>
      <trkpt lat="40.493983" lon="-5.248567">
        <ele>2570.0</ele>
        <time>2018-09-02T12:11:38Z</time>
      </trkpt>
      <trkpt lat="40.494067" lon="-5.248483">
        <ele>2573.0</ele>
        <time>2018-09-02T12:11:39Z</time>
      </trkpt>
      <trkpt lat="40.494250" lon="-5.248417">
        <ele>2580.0</ele>
        <time>2018-09-02T12:11:41Z</time>
      </trkpt>
      <trkpt lat="40.494333" lon="-5.248450">
        <ele>2584.0</ele>
        <time>2018-09-02T12:11:42Z</time>
      </trkpt>
      <trkpt lat="40.494400" lon="-5.248517">
        <ele>2587.0</ele>
        <time>2018-09-02T12:11:43Z</time>
      </trkpt>
      <trkpt lat="40.494433" lon="-5.248617">
        <ele>2589.0</ele>
        <time>2018-09-02T12:11:44Z</time>
      </trkpt>
      <trkpt lat="40.494417" lon="-5.248717">
        <ele>2592.0</ele>
        <time>2018-09-02T12:11:45Z</time>
      </trkpt>
      <trkpt lat="40.494367" lon="-5.248783">
        <ele>2595.0</ele>
        <time>2018-09-02T12:11:46Z</time>
      </trkpt>
      <trkpt lat="40.494283" lon="-5.248783">
        <ele>2600.0</ele>
        <time>2018-09-02T12:11:47Z</time>
      </trkpt>
      <trkpt lat="40.494217" lon="-5.248750">
        <ele>2604.0</ele>
        <time>2018-09-02T12:11:48Z</time>
      </trkpt>
      <trkpt lat="40.494150" lon="-5.248683">
        <ele>2608.0</ele>
        <time>2018-09-02T12:11:49Z</time>
      </trkpt>
      <trkpt lat="40.494100" lon="-5.248583">
        <ele>2612.0</ele>
        <time>2018-09-02T12:11:50Z</time>
      </trkpt>
      <trkpt lat="40.494083" lon="-5.248467">
        <ele>2615.0</ele>
        <time>2018-09-02T12:11:51Z</time>
      </trkpt>
      <trkpt lat="40.494083" lon="-5.248317">
        <ele>2617.0</ele>
        <time>2018-09-02T12:11:52Z</time>
      </trkpt>
      <trkpt lat="40.494100" lon="-5.248183">
        <ele>2619.0</ele>
        <time>2018-09-02T12:11:53Z</time>
      </trkpt>
      <trkpt lat="40.494167" lon="-5.248050">
        <ele>2621.0</ele>
        <time>2018-09-02T12:11:54Z</time>
      </trkpt>
      <trkpt lat="40.494250" lon="-5.247983">
        <ele>2624.0</ele>
        <time>2018-09-02T12:11:55Z</time>
      </trkpt>
      <trkpt lat="40.494350" lon="-5.247933">
        <ele>2628.0</ele>
        <time>2018-09-02T12:11:56Z</time>
      </trkpt>
      <trkpt lat="40.494450" lon="-5.247950">
        <ele>2631.0</ele>
        <time>2018-09-02T12:11:57Z</time>
      </trkpt>
      <trkpt lat="40.494533" lon="-5.247983">
        <ele>2634.0</ele>
        <time>2018-09-02T12:11:58Z</time>
      </trkpt>
      <trkpt lat="40.494583" lon="-5.248050">
        <ele>2638.0</ele>
        <time>2018-09-02T12:11:59Z</time>
      </trkpt>
      <trkpt lat="40.494617" lon="-5.248150">
        <ele>2641.0</ele>
        <time>2018-09-02T12:12:00Z</time>
      </trkpt>
      <trkpt lat="40.494583" lon="-5.248250">
        <ele>2644.0</ele>
        <time>2018-09-02T12:12:01Z</time>
      </trkpt>
      <trkpt lat="40.494533" lon="-5.248300">
        <ele>2646.0</ele>
        <time>2018-09-02T12:12:02Z</time>
      </trkpt>
      <trkpt lat="40.494467" lon="-5.248317">
        <ele>2649.0</ele>
        <time>2018-09-02T12:12:03Z</time>
      </trkpt>
      <trkpt lat="40.494383" lon="-5.248267">
        <ele>2652.0</ele>
        <time>2018-09-02T12:12:04Z</time>
      </trkpt>
      <trkpt lat="40.494333" lon="-5.248167">
        <ele>2655.0</ele>
        <time>2018-09-02T12:12:05Z</time>
      </trkpt>
      <trkpt lat="40.494317" lon="-5.248033">
        <ele>2657.0</ele>
        <time>2018-09-02T12:12:06Z</time>
      </trkpt>
      <trkpt lat="40.494317" lon="-5.247883">
        <ele>2661.0</ele>
        <time>2018-09-02T12:12:07Z</time>
      </trkpt>
      <trkpt lat="40.494367" lon="-5.247750">
        <ele>2664.0</ele>
        <time>2018-09-02T12:12:08Z</time>
      </trkpt>
      <trkpt lat="40.494450" lon="-5.247667">
        <ele>2666.0</ele>
        <time>2018-09-02T12:12:09Z</time>
      </trkpt>
      <trkpt lat="40.494550" lon="-5.247617">
        <ele>2669.0</ele>
        <time>2018-09-02T12:12:10Z</time>
      </trkpt>
      <trkpt lat="40.494650" lon="-5.247633">
        <ele>2673.0</ele>
        <time>2018-09-02T12:12:11Z</time>
      </trkpt>
      <trkpt lat="40.494733" lon="-5.247683">
        <ele>2677.0</ele>
        <time>2018-09-02T12:12:12Z</time>
      </trkpt>
      <trkpt lat="40.494800" lon="-5.247767">
        <ele>2680.0</ele>
        <time>2018-09-02T12:12:13Z</time>
      </trkpt>
      <trkpt lat="40.494817" lon="-5.247850">
        <ele>2684.0</ele>
        <time>2018-09-02T12:12:14Z</time>
      </trkpt>
      <trkpt lat="40.494833" lon="-5.247950">
        <ele>2687.0</ele>
        <time>2018-09-02T12:12:15Z</time>
      </trkpt>
      <trkpt lat="40.494817" lon="-5.248017">
        <ele>2691.0</ele>
        <time>2018-09-02T12:12:16Z</time>
      </trkpt>
      <trkpt lat="40.494767" lon="-5.248067">
        <ele>2695.0</ele>
        <time>2018-09-02T12:12:17Z</time>
      </trkpt>
      <trkpt lat="40.494717" lon="-5.248100">
        <ele>2698.0</ele>
        <time>2018-09-02T12:12:18Z</time>
      </trkpt>
      <trkpt lat="40.494650" lon="-5.248083">
        <ele>2701.0</ele>
        <time>2018-09-02T12:12:19Z</time>
      </trkpt>
      <trkpt lat="40.494583" lon="-5.248033">
        <ele>2703.0</ele>
        <time>2018-09-02T12:12:20Z</time>
      </trkpt>
      <trkpt lat="40.494533" lon="-5.247933">
        <ele>2706.0</ele>
        <time>2018-09-02T12:12:21Z</time>
      </trkpt>
      <trkpt lat="40.494500" lon="-5.247800">
        <ele>2708.0</ele>
        <time>2018-09-02T12:12:22Z</time>
      </trkpt>
      <trkpt lat="40.494533" lon="-5.247650">
        <ele>2710.0</ele>
        <time>2018-09-02T12:12:23Z</time>
      </trkpt>
      <trkpt lat="40.494717" lon="-5.247450">
        <ele>2714.0</ele>
        <time>2018-09-02T12:12:25Z</time>
      </trkpt>
      <trkpt lat="40.494833" lon="-5.247467">
        <ele>2716.0</ele>
        <time>2018-09-02T12:12:26Z</time>
      </trkpt>
      <trkpt lat="40.494933" lon="-5.247550">
        <ele>2718.0</ele>
        <time>2018-09-02T12:12:27Z</time>
      </trkpt>
      <trkpt lat="40.494983" lon="-5.247650">
        <ele>2723.0</ele>
        <time>2018-09-02T12:12:28Z</time>
      </trkpt>
      <trkpt lat="40.495017" lon="-5.247733">
        <ele>2728.0</ele>
        <time>2018-09-02T12:12:29Z</time>
      </trkpt>
      <trkpt lat="40.495033" lon="-5.247800">
        <ele>2732.0</ele>
        <time>2018-09-02T12:12:30Z</time>
      </trkpt>
      <trkpt lat="40.495033" lon="-5.247867">
        <ele>2736.0</ele>
        <time>2018-09-02T12:12:31Z</time>
      </trkpt>
      <trkpt lat="40.495033" lon="-5.247950">
        <ele>2739.0</ele>
        <time>2018-09-02T12:12:32Z</time>
      </trkpt>
      <trkpt lat="40.495000" lon="-5.248017">
        <ele>2740.0</ele>
        <time>2018-09-02T12:12:33Z</time>
      </trkpt>
      <trkpt lat="40.494933" lon="-5.248067">
        <ele>2742.0</ele>
        <time>2018-09-02T12:12:34Z</time>
      </trkpt>
      <trkpt lat="40.494850" lon="-5.248033">
        <ele>2744.0</ele>
        <time>2018-09-02T12:12:35Z</time>
      </trkpt>
      <trkpt lat="40.494767" lon="-5.247950">
        <ele>2746.0</ele>
        <time>2018-09-02T12:12:36Z</time>
      </trkpt>
      <trkpt lat="40.494733" lon="-5.247833">
        <ele>2750.0</ele>
        <time>2018-09-02T12:12:37Z</time>
      </trkpt>
      <trkpt lat="40.494700" lon="-5.247700">
        <ele>2754.0</ele>
        <time>2018-09-02T12:12:38Z</time>
      </trkpt>
      <trkpt lat="40.494700" lon="-5.247583">
        <ele>2758.0</ele>
        <time>2018-09-02T12:12:39Z</time>
      </trkpt>
      <trkpt lat="40.494717" lon="-5.247450">
        <ele>2762.0</ele>
        <time>2018-09-02T12:12:40Z</time>
      </trkpt>
      <trkpt lat="40.494750" lon="-5.247333">
        <ele>2765.0</ele>
        <time>2018-09-02T12:12:41Z</time>
      </trkpt>
      <trkpt lat="40.494817" lon="-5.247217">
        <ele>2768.0</ele>
        <time>2018-09-02T12:12:42Z</time>
      </trkpt>
      <trkpt lat="40.494917" lon="-5.247133">
        <ele>2770.0</ele>
        <time>2018-09-02T12:12:43Z</time>
      </trkpt>
      <trkpt lat="40.495017" lon="-5.247117">
        <ele>2772.0</ele>
        <time>2018-09-02T12:12:44Z</time>
      </trkpt>
      <trkpt lat="40.495117" lon="-5.247150">
        <ele>2774.0</ele>
        <time>2018-09-02T12:12:45Z</time>
      </trkpt>
      <trkpt lat="40.495200" lon="-5.247217">
        <ele>2777.0</ele>
        <time>2018-09-02T12:12:46Z</time>
      </trkpt>
      <trkpt lat="40.495250" lon="-5.247300">
        <ele>2780.0</ele>
        <time>2018-09-02T12:12:47Z</time>
      </trkpt>
      <trkpt lat="40.495267" lon="-5.247400">
        <ele>2782.0</ele>
        <time>2018-09-02T12:12:48Z</time>
      </trkpt>
      <trkpt lat="40.495267" lon="-5.247483">
        <ele>2785.0</ele>
        <time>2018-09-02T12:12:49Z</time>
      </trkpt>
      <trkpt lat="40.495250" lon="-5.247550">
        <ele>2787.0</ele>
        <time>2018-09-02T12:12:50Z</time>
      </trkpt>
      <trkpt lat="40.495200" lon="-5.247600">
        <ele>2789.0</ele>
        <time>2018-09-02T12:12:51Z</time>
      </trkpt>
      <trkpt lat="40.495117" lon="-5.247617">
        <ele>2791.0</ele>
        <time>2018-09-02T12:12:52Z</time>
      </trkpt>
      <trkpt lat="40.495050" lon="-5.247583">
        <ele>2793.0</ele>
        <time>2018-09-02T12:12:53Z</time>
      </trkpt>
      <trkpt lat="40.495000" lon="-5.247483">
        <ele>2795.0</ele>
        <time>2018-09-02T12:12:54Z</time>
      </trkpt>
      <trkpt lat="40.494967" lon="-5.247350">
        <ele>2797.0</ele>
        <time>2018-09-02T12:12:55Z</time>
      </trkpt>
      <trkpt lat="40.494983" lon="-5.247200">
        <ele>2798.0</ele>
        <time>2018-09-02T12:12:56Z</time>
      </trkpt>
      <trkpt lat="40.495033" lon="-5.247067">
        <ele>2800.0</ele>
        <time>2018-09-02T12:12:57Z</time>
      </trkpt>
      <trkpt lat="40.495117" lon="-5.246967">
        <ele>2803.0</ele>
        <time>2018-09-02T12:12:58Z</time>
      </trkpt>
      <trkpt lat="40.495183" lon="-5.246883">
        <ele>2805.0</ele>
        <time>2018-09-02T12:12:59Z</time>
      </trkpt>
      <trkpt lat="40.495267" lon="-5.246817">
        <ele>2807.0</ele>
        <time>2018-09-02T12:13:00Z</time>
      </trkpt>
      <trkpt lat="40.495350" lon="-5.246733">
        <ele>2809.0</ele>
        <time>2018-09-02T12:13:01Z</time>
      </trkpt>
      <trkpt lat="40.495433" lon="-5.246633">
        <ele>2811.0</ele>
        <time>2018-09-02T12:13:02Z</time>
      </trkpt>
      <trkpt lat="40.495683" lon="-5.245717">
        <ele>2827.0</ele>
        <time>2018-09-02T12:13:09Z</time>
      </trkpt>
      <trkpt lat="40.495667" lon="-5.245583">
        <ele>2830.0</ele>
        <time>2018-09-02T12:13:10Z</time>
      </trkpt>
      <trkpt lat="40.495683" lon="-5.245450">
        <ele>2834.0</ele>
        <time>2018-09-02T12:13:11Z</time>
      </trkpt>
      <trkpt lat="40.495683" lon="-5.245317">
        <ele>2838.0</ele>
        <time>2018-09-02T12:13:12Z</time>
      </trkpt>
      <trkpt lat="40.495683" lon="-5.245167">
        <ele>2843.0</ele>
        <time>2018-09-02T12:13:13Z</time>
      </trkpt>
      <trkpt lat="40.495700" lon="-5.245033">
        <ele>2846.0</ele>
        <time>2018-09-02T12:13:14Z</time>
      </trkpt>
      <trkpt lat="40.495733" lon="-5.244883">
        <ele>2849.0</ele>
        <time>2018-09-02T12:13:15Z</time>
      </trkpt>
      <trkpt lat="40.495817" lon="-5.244750">
        <ele>2852.0</ele>
        <time>2018-09-02T12:13:16Z</time>
      </trkpt>
      <trkpt lat="40.495917" lon="-5.244650">
        <ele>2854.0</ele>
        <time>2018-09-02T12:13:17Z</time>
      </trkpt>
      <trkpt lat="40.496050" lon="-5.244617">
        <ele>2858.0</ele>
        <time>2018-09-02T12:13:18Z</time>
      </trkpt>
      <trkpt lat="40.496150" lon="-5.244633">
        <ele>2862.0</ele>
        <time>2018-09-02T12:13:19Z</time>
      </trkpt>
      <trkpt lat="40.496217" lon="-5.244700">
        <ele>2866.0</ele>
        <time>2018-09-02T12:13:20Z</time>
      </trkpt>
      <trkpt lat="40.496267" lon="-5.244783">
        <ele>2870.0</ele>
        <time>2018-09-02T12:13:21Z</time>
      </trkpt>
      <trkpt lat="40.496317" lon="-5.244883">
        <ele>2874.0</ele>
        <time>2018-09-02T12:13:22Z</time>
      </trkpt>
      <trkpt lat="40.496317" lon="-5.244967">
        <ele>2879.0</ele>
        <time>2018-09-02T12:13:23Z</time>
      </trkpt>
      <trkpt lat="40.496300" lon="-5.245050">
        <ele>2884.0</ele>
        <time>2018-09-02T12:13:24Z</time>
      </trkpt>
      <trkpt lat="40.496233" lon="-5.245117">
        <ele>2888.0</ele>
        <time>2018-09-02T12:13:25Z</time>
      </trkpt>
      <trkpt lat="40.496150" lon="-5.245133">
        <ele>2892.0</ele>
        <time>2018-09-02T12:13:26Z</time>
      </trkpt>
      <trkpt lat="40.496083" lon="-5.245083">
        <ele>2895.0</ele>
        <time>2018-09-02T12:13:27Z</time>
      </trkpt>
      <trkpt lat="40.496033" lon="-5.244983">
        <ele>2899.0</ele>
        <time>2018-09-02T12:13:28Z</time>
      </trkpt>
      <trkpt lat="40.496017" lon="-5.244850">
        <ele>2902.0</ele>
        <time>2018-09-02T12:13:29Z</time>
      </trkpt>
      <trkpt lat="40.496050" lon="-5.244717">
        <ele>2904.0</ele>
        <time>2018-09-02T12:13:30Z</time>
      </trkpt>
      <trkpt lat="40.496083" lon="-5.244583">
        <ele>2906.0</ele>
        <time>2018-09-02T12:13:31Z</time>
      </trkpt>
      <trkpt lat="40.496167" lon="-5.244467">
        <ele>2908.0</ele>
        <time>2018-09-02T12:13:32Z</time>
      </trkpt>
      <trkpt lat="40.496267" lon="-5.244383">
        <ele>2912.0</ele>
        <time>2018-09-02T12:13:33Z</time>
      </trkpt>
      <trkpt lat="40.496367" lon="-5.244350">
        <ele>2914.0</ele>
        <time>2018-09-02T12:13:34Z</time>
      </trkpt>
      <trkpt lat="40.496483" lon="-5.244383">
        <ele>2916.0</ele>
        <time>2018-09-02T12:13:35Z</time>
      </trkpt>
      <trkpt lat="40.496583" lon="-5.244467">
        <ele>2919.0</ele>
        <time>2018-09-02T12:13:36Z</time>
      </trkpt>
      <trkpt lat="40.496617" lon="-5.244583">
        <ele>2924.0</ele>
        <time>2018-09-02T12:13:37Z</time>
      </trkpt>
      <trkpt lat="40.496617" lon="-5.244683">
        <ele>2929.0</ele>
        <time>2018-09-02T12:13:38Z</time>
      </trkpt>
      <trkpt lat="40.496600" lon="-5.244767">
        <ele>2933.0</ele>
        <time>2018-09-02T12:13:39Z</time>
      </trkpt>
      <trkpt lat="40.496583" lon="-5.244850">
        <ele>2939.0</ele>
        <time>2018-09-02T12:13:40Z</time>
      </trkpt>
      <trkpt lat="40.496567" lon="-5.244917">
        <ele>2944.0</ele>
        <time>2018-09-02T12:13:41Z</time>
      </trkpt>
      <trkpt lat="40.496550" lon="-5.244983">
        <ele>2949.0</ele>
        <time>2018-09-02T12:13:42Z</time>
      </trkpt>
      <trkpt lat="40.496517" lon="-5.245017">
        <ele>2952.0</ele>
        <time>2018-09-02T12:13:43Z</time>
      </trkpt>
      <trkpt lat="40.496450" lon="-5.245033">
        <ele>2955.0</ele>
        <time>2018-09-02T12:13:44Z</time>
      </trkpt>
      <trkpt lat="40.496400" lon="-5.245017">
        <ele>2957.0</ele>
        <time>2018-09-02T12:13:45Z</time>
      </trkpt>
      <trkpt lat="40.496333" lon="-5.244967">
        <ele>2960.0</ele>
        <time>2018-09-02T12:13:46Z</time>
      </trkpt>
      <trkpt lat="40.496283" lon="-5.244883">
        <ele>2962.0</ele>
        <time>2018-09-02T12:13:47Z</time>
      </trkpt>
      <trkpt lat="40.496250" lon="-5.244750">
        <ele>2964.0</ele>
        <time>2018-09-02T12:13:48Z</time>
      </trkpt>
      <trkpt lat="40.496283" lon="-5.244600">
        <ele>2966.0</ele>
        <time>2018-09-02T12:13:49Z</time>
      </trkpt>
      <trkpt lat="40.496350" lon="-5.244467">
        <ele>2967.0</ele>
        <time>2018-09-02T12:13:50Z</time>
      </trkpt>
      <trkpt lat="40.496467" lon="-5.244350">
        <ele>2968.0</ele>
        <time>2018-09-02T12:13:51Z</time>
      </trkpt>
      <trkpt lat="40.496600" lon="-5.244283">
        <ele>2968.0</ele>
        <time>2018-09-02T12:13:52Z</time>
      </trkpt>
      <trkpt lat="40.496717" lon="-5.244283">
        <ele>2971.0</ele>
        <time>2018-09-02T12:13:53Z</time>
      </trkpt>
      <trkpt lat="40.496817" lon="-5.244317">
        <ele>2975.0</ele>
        <time>2018-09-02T12:13:54Z</time>
      </trkpt>
      <trkpt lat="40.496917" lon="-5.244367">
        <ele>2979.0</ele>
        <time>2018-09-02T12:13:55Z</time>
      </trkpt>
      <trkpt lat="40.497000" lon="-5.244400">
        <ele>2983.0</ele>
        <time>2018-09-02T12:13:56Z</time>
      </trkpt>
      <trkpt lat="40.497083" lon="-5.244467">
        <ele>2987.0</ele>
        <time>2018-09-02T12:13:57Z</time>
      </trkpt>
      <trkpt lat="40.497167" lon="-5.244533">
        <ele>2990.0</ele>
        <time>2018-09-02T12:13:58Z</time>
      </trkpt>
      <trkpt lat="40.497217" lon="-5.244617">
        <ele>2993.0</ele>
        <time>2018-09-02T12:13:59Z</time>
      </trkpt>
      <trkpt lat="40.497233" lon="-5.244717">
        <ele>2996.0</ele>
        <time>2018-09-02T12:14:00Z</time>
      </trkpt>
      <trkpt lat="40.497217" lon="-5.244800">
        <ele>2998.0</ele>
        <time>2018-09-02T12:14:01Z</time>
      </trkpt>
      <trkpt lat="40.497167" lon="-5.244867">
        <ele>3001.0</ele>
        <time>2018-09-02T12:14:02Z</time>
      </trkpt>
      <trkpt lat="40.497117" lon="-5.244900">
        <ele>3003.0</ele>
        <time>2018-09-02T12:14:03Z</time>
      </trkpt>
      <trkpt lat="40.497067" lon="-5.244883">
        <ele>3006.0</ele>
        <time>2018-09-02T12:14:04Z</time>
      </trkpt>
      <trkpt lat="40.497017" lon="-5.244833">
        <ele>3008.0</ele>
        <time>2018-09-02T12:14:05Z</time>
      </trkpt>
      <trkpt lat="40.496983" lon="-5.244750">
        <ele>3009.0</ele>
        <time>2018-09-02T12:14:06Z</time>
      </trkpt>
      <trkpt lat="40.496983" lon="-5.244617">
        <ele>3009.0</ele>
        <time>2018-09-02T12:14:07Z</time>
      </trkpt>
      <trkpt lat="40.496983" lon="-5.244483">
        <ele>3009.0</ele>
        <time>2018-09-02T12:14:08Z</time>
      </trkpt>
      <trkpt lat="40.497033" lon="-5.244350">
        <ele>3011.0</ele>
        <time>2018-09-02T12:14:09Z</time>
      </trkpt>
      <trkpt lat="40.497117" lon="-5.244233">
        <ele>3012.0</ele>
        <time>2018-09-02T12:14:10Z</time>
      </trkpt>
      <trkpt lat="40.497233" lon="-5.244150">
        <ele>3014.0</ele>
        <time>2018-09-02T12:14:11Z</time>
      </trkpt>
      <trkpt lat="40.497350" lon="-5.244100">
        <ele>3016.0</ele>
        <time>2018-09-02T12:14:12Z</time>
      </trkpt>
      <trkpt lat="40.497467" lon="-5.244083">
        <ele>3019.0</ele>
        <time>2018-09-02T12:14:13Z</time>
      </trkpt>
      <trkpt lat="40.497583" lon="-5.244067">
        <ele>3022.0</ele>
        <time>2018-09-02T12:14:14Z</time>
      </trkpt>
      <trkpt lat="40.497683" lon="-5.244083">
        <ele>3025.0</ele>
        <time>2018-09-02T12:14:15Z</time>
      </trkpt>
      <trkpt lat="40.497783" lon="-5.244100">
        <ele>3027.0</ele>
        <time>2018-09-02T12:14:16Z</time>
      </trkpt>
      <trkpt lat="40.497883" lon="-5.244117">
        <ele>3030.0</ele>
        <time>2018-09-02T12:14:17Z</time>
      </trkpt>
      <trkpt lat="40.497983" lon="-5.244150">
        <ele>3032.0</ele>
        <time>2018-09-02T12:14:18Z</time>
      </trkpt>
      <trkpt lat="40.498083" lon="-5.244167">
        <ele>3034.0</ele>
        <time>2018-09-02T12:14:19Z</time>
      </trkpt>
      <trkpt lat="40.498300" lon="-5.244133">
        <ele>3038.0</ele>
        <time>2018-09-02T12:14:21Z</time>
      </trkpt>
      <trkpt lat="40.498417" lon="-5.244083">
        <ele>3040.0</ele>
        <time>2018-09-02T12:14:22Z</time>
      </trkpt>
      <trkpt lat="40.498517" lon="-5.243983">
        <ele>3042.0</ele>
        <time>2018-09-02T12:14:23Z</time>
      </trkpt>
      <trkpt lat="40.498583" lon="-5.243850">
        <ele>3045.0</ele>
        <time>2018-09-02T12:14:24Z</time>
      </trkpt>
      <trkpt lat="40.498617" lon="-5.243683">
        <ele>3048.0</ele>
        <time>2018-09-02T12:14:25Z</time>
      </trkpt>
      <trkpt lat="40.498617" lon="-5.243533">
        <ele>3051.0</ele>
        <time>2018-09-02T12:14:26Z</time>
      </trkpt>
      <trkpt lat="40.498583" lon="-5.243400">
        <ele>3054.0</ele>
        <time>2018-09-02T12:14:27Z</time>
      </trkpt>
      <trkpt lat="40.498550" lon="-5.243300">
        <ele>3058.0</ele>
        <time>2018-09-02T12:14:28Z</time>
      </trkpt>
      <trkpt lat="40.498500" lon="-5.243233">
        <ele>3061.0</ele>
        <time>2018-09-02T12:14:29Z</time>
      </trkpt>
      <trkpt lat="40.498433" lon="-5.243217">
        <ele>3063.0</ele>
        <time>2018-09-02T12:14:30Z</time>
      </trkpt>
      <trkpt lat="40.498383" lon="-5.243217">
        <ele>3066.0</ele>
        <time>2018-09-02T12:14:31Z</time>
      </trkpt>
      <trkpt lat="40.498333" lon="-5.243250">
        <ele>3062.0</ele>
        <time>2018-09-02T12:14:32Z</time>
      </trkpt>
      <trkpt lat="40.498283" lon="-5.243317">
        <ele>3062.0</ele>
        <time>2018-09-02T12:14:33Z</time>
      </trkpt>
      <trkpt lat="40.498283" lon="-5.243417">
        <ele>3063.0</ele>
        <time>2018-09-02T12:14:34Z</time>
      </trkpt>
      <trkpt lat="40.498317" lon="-5.243517">
        <ele>3065.0</ele>
        <time>2018-09-02T12:14:35Z</time>
      </trkpt>
      <trkpt lat="40.498417" lon="-5.243600">
        <ele>3065.0</ele>
        <time>2018-09-02T12:14:36Z</time>
      </trkpt>
      <trkpt lat="40.498533" lon="-5.243667">
        <ele>3067.0</ele>
        <time>2018-09-02T12:14:37Z</time>
      </trkpt>
      <trkpt lat="40.498650" lon="-5.243683">
        <ele>3068.0</ele>
        <time>2018-09-02T12:14:38Z</time>
      </trkpt>
      <trkpt lat="40.498883" lon="-5.243533">
        <ele>3070.0</ele>
        <time>2018-09-02T12:14:40Z</time>
      </trkpt>
      <trkpt lat="40.498967" lon="-5.243400">
        <ele>3072.0</ele>
        <time>2018-09-02T12:14:41Z</time>
      </trkpt>
      <trkpt lat="40.499033" lon="-5.243267">
        <ele>3074.0</ele>
        <time>2018-09-02T12:14:42Z</time>
      </trkpt>
      <trkpt lat="40.499083" lon="-5.243133">
        <ele>3077.0</ele>
        <time>2018-09-02T12:14:43Z</time>
      </trkpt>
      <trkpt lat="40.499083" lon="-5.243000">
        <ele>3079.0</ele>
        <time>2018-09-02T12:14:44Z</time>
      </trkpt>
      <trkpt lat="40.499050" lon="-5.242850">
        <ele>3081.0</ele>
        <time>2018-09-02T12:14:45Z</time>
      </trkpt>
      <trkpt lat="40.499017" lon="-5.242733">
        <ele>3083.0</ele>
        <time>2018-09-02T12:14:46Z</time>
      </trkpt>
      <trkpt lat="40.498950" lon="-5.242683">
        <ele>3086.0</ele>
        <time>2018-09-02T12:14:47Z</time>
      </trkpt>
      <trkpt lat="40.498883" lon="-5.242667">
        <ele>3088.0</ele>
        <time>2018-09-02T12:14:48Z</time>
      </trkpt>
      <trkpt lat="40.498833" lon="-5.242717">
        <ele>3089.0</ele>
        <time>2018-09-02T12:14:49Z</time>
      </trkpt>
      <trkpt lat="40.498800" lon="-5.242800">
        <ele>3091.0</ele>
        <time>2018-09-02T12:14:50Z</time>
      </trkpt>
      <trkpt lat="40.498800" lon="-5.242917">
        <ele>3094.0</ele>
        <time>2018-09-02T12:14:51Z</time>
      </trkpt>
      <trkpt lat="40.498850" lon="-5.243000">
        <ele>3095.0</ele>
        <time>2018-09-02T12:14:52Z</time>
      </trkpt>
      <trkpt lat="40.498950" lon="-5.243067">
        <ele>3097.0</ele>
        <time>2018-09-02T12:14:53Z</time>
      </trkpt>
      <trkpt lat="40.499067" lon="-5.243067">
        <ele>3098.0</ele>
        <time>2018-09-02T12:14:54Z</time>
      </trkpt>
      <trkpt lat="40.499200" lon="-5.243017">
        <ele>3099.0</ele>
        <time>2018-09-02T12:14:55Z</time>
      </trkpt>
      <trkpt lat="40.499333" lon="-5.242933">
        <ele>3099.0</ele>
        <time>2018-09-02T12:14:56Z</time>
      </trkpt>
      <trkpt lat="40.499450" lon="-5.242833">
        <ele>3099.0</ele>
        <time>2018-09-02T12:14:57Z</time>
      </trkpt>
      <trkpt lat="40.499550" lon="-5.242700">
        <ele>3100.0</ele>
        <time>2018-09-02T12:14:58Z</time>
      </trkpt>
      <trkpt lat="40.499633" lon="-5.242567">
        <ele>3102.0</ele>
        <time>2018-09-02T12:14:59Z</time>
      </trkpt>
      <trkpt lat="40.499700" lon="-5.242433">
        <ele>3104.0</ele>
        <time>2018-09-02T12:15:00Z</time>
      </trkpt>
      <trkpt lat="40.499767" lon="-5.242300">
        <ele>3105.0</ele>
        <time>2018-09-02T12:15:01Z</time>
      </trkpt>
      <trkpt lat="40.499833" lon="-5.242150">
        <ele>3107.0</ele>
        <time>2018-09-02T12:15:02Z</time>
      </trkpt>
      <trkpt lat="40.499933" lon="-5.241850">
        <ele>3112.0</ele>
        <time>2018-09-02T12:15:04Z</time>
      </trkpt>
      <trkpt lat="40.499950" lon="-5.241700">
        <ele>3113.0</ele>
        <time>2018-09-02T12:15:05Z</time>
      </trkpt>
      <trkpt lat="40.499933" lon="-5.241550">
        <ele>3114.0</ele>
        <time>2018-09-02T12:15:06Z</time>
      </trkpt>
      <trkpt lat="40.499883" lon="-5.241417">
        <ele>3114.0</ele>
        <time>2018-09-02T12:15:07Z</time>
      </trkpt>
      <trkpt lat="40.499833" lon="-5.241333">
        <ele>3115.0</ele>
        <time>2018-09-02T12:15:08Z</time>
      </trkpt>
      <trkpt lat="40.499767" lon="-5.241300">
        <ele>3116.0</ele>
        <time>2018-09-02T12:15:09Z</time>
      </trkpt>
      <trkpt lat="40.499700" lon="-5.241317">
        <ele>3118.0</ele>
        <time>2018-09-02T12:15:10Z</time>
      </trkpt>
      <trkpt lat="40.499683" lon="-5.241367">
        <ele>3119.0</ele>
        <time>2018-09-02T12:15:11Z</time>
      </trkpt>
      <trkpt lat="40.499683" lon="-5.241450">
        <ele>3121.0</ele>
        <time>2018-09-02T12:15:12Z</time>
      </trkpt>
      <trkpt lat="40.499733" lon="-5.241533">
        <ele>3122.0</ele>
        <time>2018-09-02T12:15:13Z</time>
      </trkpt>
      <trkpt lat="40.499817" lon="-5.241600">
        <ele>3124.0</ele>
        <time>2018-09-02T12:15:14Z</time>
      </trkpt>
      <trkpt lat="40.499900" lon="-5.241633">
        <ele>3122.0</ele>
        <time>2018-09-02T12:15:15Z</time>
      </trkpt>
      <trkpt lat="40.500017" lon="-5.241617">
        <ele>3122.0</ele>
        <time>2018-09-02T12:15:16Z</time>
      </trkpt>
      <trkpt lat="40.500150" lon="-5.241550">
        <ele>3123.0</ele>
        <time>2018-09-02T12:15:17Z</time>
      </trkpt>
      <trkpt lat="40.500250" lon="-5.241450">
        <ele>3123.0</ele>
        <time>2018-09-02T12:15:18Z</time>
      </trkpt>
      <trkpt lat="40.500333" lon="-5.241317">
        <ele>3123.0</ele>
        <time>2018-09-02T12:15:19Z</time>
      </trkpt>
      <trkpt lat="40.500383" lon="-5.241150">
        <ele>3124.0</ele>
        <time>2018-09-02T12:15:20Z</time>
      </trkpt>
      <trkpt lat="40.500400" lon="-5.240983">
        <ele>3126.0</ele>
        <time>2018-09-02T12:15:21Z</time>
      </trkpt>
      <trkpt lat="40.500400" lon="-5.240833">
        <ele>3127.0</ele>
        <time>2018-09-02T12:15:22Z</time>
      </trkpt>
      <trkpt lat="40.500383" lon="-5.240683">
        <ele>3129.0</ele>
        <time>2018-09-02T12:15:23Z</time>
      </trkpt>
      <trkpt lat="40.500333" lon="-5.240567">
        <ele>3131.0</ele>
        <time>2018-09-02T12:15:24Z</time>
      </trkpt>
      <trkpt lat="40.500267" lon="-5.240500">
        <ele>3133.0</ele>
        <time>2018-09-02T12:15:25Z</time>
      </trkpt>
      <trkpt lat="40.500200" lon="-5.240467">
        <ele>3135.0</ele>
        <time>2018-09-02T12:15:26Z</time>
      </trkpt>
      <trkpt lat="40.500150" lon="-5.240467">
        <ele>3136.0</ele>
        <time>2018-09-02T12:15:27Z</time>
      </trkpt>
      <trkpt lat="40.500117" lon="-5.240517">
        <ele>3138.0</ele>
        <time>2018-09-02T12:15:28Z</time>
      </trkpt>
      <trkpt lat="40.500117" lon="-5.240600">
        <ele>3140.0</ele>
        <time>2018-09-02T12:15:29Z</time>
      </trkpt>
      <trkpt lat="40.500167" lon="-5.240667">
        <ele>3142.0</ele>
        <time>2018-09-02T12:15:30Z</time>
      </trkpt>
      <trkpt lat="40.500233" lon="-5.240717">
        <ele>3144.0</ele>
        <time>2018-09-02T12:15:31Z</time>
      </trkpt>
      <trkpt lat="40.500317" lon="-5.240717">
        <ele>3145.0</ele>
        <time>2018-09-02T12:15:32Z</time>
      </trkpt>
      <trkpt lat="40.500433" lon="-5.240683">
        <ele>3146.0</ele>
        <time>2018-09-02T12:15:33Z</time>
      </trkpt>
      <trkpt lat="40.500567" lon="-5.240583">
        <ele>3147.0</ele>
        <time>2018-09-02T12:15:34Z</time>
      </trkpt>
      <trkpt lat="40.500667" lon="-5.240467">
        <ele>3147.0</ele>
        <time>2018-09-02T12:15:35Z</time>
      </trkpt>
      <trkpt lat="40.500750" lon="-5.240300">
        <ele>3149.0</ele>
        <time>2018-09-02T12:15:36Z</time>
      </trkpt>
      <trkpt lat="40.500800" lon="-5.240150">
        <ele>3149.0</ele>
        <time>2018-09-02T12:15:37Z</time>
      </trkpt>
      <trkpt lat="40.500850" lon="-5.239967">
        <ele>3150.0</ele>
        <time>2018-09-02T12:15:38Z</time>
      </trkpt>
      <trkpt lat="40.500883" lon="-5.239817">
        <ele>3153.0</ele>
        <time>2018-09-02T12:15:39Z</time>
      </trkpt>
      <trkpt lat="40.500900" lon="-5.239650">
        <ele>3155.0</ele>
        <time>2018-09-02T12:15:40Z</time>
      </trkpt>
      <trkpt lat="40.500883" lon="-5.239483">
        <ele>3156.0</ele>
        <time>2018-09-02T12:15:41Z</time>
      </trkpt>
      <trkpt lat="40.500850" lon="-5.239333">
        <ele>3157.0</ele>
        <time>2018-09-02T12:15:42Z</time>
      </trkpt>
      <trkpt lat="40.500783" lon="-5.239217">
        <ele>3158.0</ele>
        <time>2018-09-02T12:15:43Z</time>
      </trkpt>
      <trkpt lat="40.500733" lon="-5.239133">
        <ele>3159.0</ele>
        <time>2018-09-02T12:15:44Z</time>
      </trkpt>
      <trkpt lat="40.500683" lon="-5.239067">
        <ele>3162.0</ele>
        <time>2018-09-02T12:15:45Z</time>
      </trkpt>
      <trkpt lat="40.500633" lon="-5.239000">
        <ele>3165.0</ele>
        <time>2018-09-02T12:15:46Z</time>
      </trkpt>
      <trkpt lat="40.500583" lon="-5.238917">
        <ele>3167.0</ele>
        <time>2018-09-02T12:15:47Z</time>
      </trkpt>
      <trkpt lat="40.500533" lon="-5.238850">
        <ele>3170.0</ele>
        <time>2018-09-02T12:15:48Z</time>
      </trkpt>
      <trkpt lat="40.500467" lon="-5.238833">
        <ele>3171.0</ele>
        <time>2018-09-02T12:15:49Z</time>
      </trkpt>
      <trkpt lat="40.500400" lon="-5.238833">
        <ele>3174.0</ele>
        <time>2018-09-02T12:15:50Z</time>
      </trkpt>
      <trkpt lat="40.500383" lon="-5.238900">
        <ele>3176.0</ele>
        <time>2018-09-02T12:15:51Z</time>
      </trkpt>
      <trkpt lat="40.500383" lon="-5.238967">
        <ele>3178.0</ele>
        <time>2018-09-02T12:15:52Z</time>
      </trkpt>
      <trkpt lat="40.500533" lon="-5.239067">
        <ele>3184.0</ele>
        <time>2018-09-02T12:15:54Z</time>
      </trkpt>
      <trkpt lat="40.500650" lon="-5.239050">
        <ele>3186.0</ele>
        <time>2018-09-02T12:15:55Z</time>
      </trkpt>
      <trkpt lat="40.500883" lon="-5.238917">
        <ele>3189.0</ele>
        <time>2018-09-02T12:15:57Z</time>
      </trkpt>
      <trkpt lat="40.500983" lon="-5.238800">
        <ele>3191.0</ele>
        <time>2018-09-02T12:15:58Z</time>
      </trkpt>
      <trkpt lat="40.501067" lon="-5.238650">
        <ele>3192.0</ele>
        <time>2018-09-02T12:15:59Z</time>
      </trkpt>
      <trkpt lat="40.501117" lon="-5.238467">
        <ele>3193.0</ele>
        <time>2018-09-02T12:16:00Z</time>
      </trkpt>
      <trkpt lat="40.501133" lon="-5.238267">
        <ele>3194.0</ele>
        <time>2018-09-02T12:16:01Z</time>
      </trkpt>
      <trkpt lat="40.501117" lon="-5.238117">
        <ele>3196.0</ele>
        <time>2018-09-02T12:16:02Z</time>
      </trkpt>
      <trkpt lat="40.501067" lon="-5.237983">
        <ele>3198.0</ele>
        <time>2018-09-02T12:16:03Z</time>
      </trkpt>
      <trkpt lat="40.501000" lon="-5.237917">
        <ele>3199.0</ele>
        <time>2018-09-02T12:16:04Z</time>
      </trkpt>
      <trkpt lat="40.500950" lon="-5.237900">
        <ele>3201.0</ele>
        <time>2018-09-02T12:16:05Z</time>
      </trkpt>
      <trkpt lat="40.500900" lon="-5.237917">
        <ele>3203.0</ele>
        <time>2018-09-02T12:16:06Z</time>
      </trkpt>
      <trkpt lat="40.500900" lon="-5.237967">
        <ele>3205.0</ele>
        <time>2018-09-02T12:16:07Z</time>
      </trkpt>
      <trkpt lat="40.500917" lon="-5.238033">
        <ele>3207.0</ele>
        <time>2018-09-02T12:16:08Z</time>
      </trkpt>
      <trkpt lat="40.500983" lon="-5.238083">
        <ele>3209.0</ele>
        <time>2018-09-02T12:16:09Z</time>
      </trkpt>
      <trkpt lat="40.501083" lon="-5.238117">
        <ele>3210.0</ele>
        <time>2018-09-02T12:16:10Z</time>
      </trkpt>
      <trkpt lat="40.501200" lon="-5.238100">
        <ele>3211.0</ele>
        <time>2018-09-02T12:16:11Z</time>
      </trkpt>
      <trkpt lat="40.501333" lon="-5.238033">
        <ele>3213.0</ele>
        <time>2018-09-02T12:16:12Z</time>
      </trkpt>
      <trkpt lat="40.501450" lon="-5.237917">
        <ele>3214.0</ele>
        <time>2018-09-02T12:16:13Z</time>
      </trkpt>
      <trkpt lat="40.501533" lon="-5.237783">
        <ele>3214.0</ele>
        <time>2018-09-02T12:16:14Z</time>
      </trkpt>
      <trkpt lat="40.501617" lon="-5.237617">
        <ele>3214.0</ele>
        <time>2018-09-02T12:16:15Z</time>
      </trkpt>
      <trkpt lat="40.501650" lon="-5.237450">
        <ele>3213.0</ele>
        <time>2018-09-02T12:16:16Z</time>
      </trkpt>
      <trkpt lat="40.501667" lon="-5.237267">
        <ele>3212.0</ele>
        <time>2018-09-02T12:16:17Z</time>
      </trkpt>
      <trkpt lat="40.501567" lon="-5.237000">
        <ele>3216.0</ele>
        <time>2018-09-02T12:16:19Z</time>
      </trkpt>
      <trkpt lat="40.501500" lon="-5.236950">
        <ele>3217.0</ele>
        <time>2018-09-02T12:16:20Z</time>
      </trkpt>
      <trkpt lat="40.501450" lon="-5.236917">
        <ele>3218.0</ele>
        <time>2018-09-02T12:16:21Z</time>
      </trkpt>
      <trkpt lat="40.501400" lon="-5.236950">
        <ele>3220.0</ele>
        <time>2018-09-02T12:16:22Z</time>
      </trkpt>
      <trkpt lat="40.501383" lon="-5.237017">
        <ele>3222.0</ele>
        <time>2018-09-02T12:16:23Z</time>
      </trkpt>
      <trkpt lat="40.501383" lon="-5.237067">
        <ele>3225.0</ele>
        <time>2018-09-02T12:16:24Z</time>
      </trkpt>
      <trkpt lat="40.501433" lon="-5.237117">
        <ele>3229.0</ele>
        <time>2018-09-02T12:16:25Z</time>
      </trkpt>
      <trkpt lat="40.501517" lon="-5.237167">
        <ele>3231.0</ele>
        <time>2018-09-02T12:16:26Z</time>
      </trkpt>
      <trkpt lat="40.501617" lon="-5.237183">
        <ele>3233.0</ele>
        <time>2018-09-02T12:16:27Z</time>
      </trkpt>
      <trkpt lat="40.501717" lon="-5.237183">
        <ele>3234.0</ele>
        <time>2018-09-02T12:16:28Z</time>
      </trkpt>
      <trkpt lat="40.501833" lon="-5.237183">
        <ele>3236.0</ele>
        <time>2018-09-02T12:16:29Z</time>
      </trkpt>
      <trkpt lat="40.501933" lon="-5.237133">
        <ele>3238.0</ele>
        <time>2018-09-02T12:16:30Z</time>
      </trkpt>
      <trkpt lat="40.502067" lon="-5.237017">
        <ele>3239.0</ele>
        <time>2018-09-02T12:16:31Z</time>
      </trkpt>
      <trkpt lat="40.502183" lon="-5.236867">
        <ele>3238.0</ele>
        <time>2018-09-02T12:16:32Z</time>
      </trkpt>
      <trkpt lat="40.502267" lon="-5.236700">
        <ele>3239.0</ele>
        <time>2018-09-02T12:16:33Z</time>
      </trkpt>
      <trkpt lat="40.502317" lon="-5.236517">
        <ele>3239.0</ele>
        <time>2018-09-02T12:16:34Z</time>
      </trkpt>
      <trkpt lat="40.502333" lon="-5.236317">
        <ele>3240.0</ele>
        <time>2018-09-02T12:16:35Z</time>
      </trkpt>
      <trkpt lat="40.502333" lon="-5.236150">
        <ele>3242.0</ele>
        <time>2018-09-02T12:16:36Z</time>
      </trkpt>
      <trkpt lat="40.502300" lon="-5.236017">
        <ele>3243.0</ele>
        <time>2018-09-02T12:16:37Z</time>
      </trkpt>
      <trkpt lat="40.502267" lon="-5.235917">
        <ele>3244.0</ele>
        <time>2018-09-02T12:16:38Z</time>
      </trkpt>
      <trkpt lat="40.502200" lon="-5.235850">
        <ele>3243.0</ele>
        <time>2018-09-02T12:16:39Z</time>
      </trkpt>
      <trkpt lat="40.502150" lon="-5.235817">
        <ele>3244.0</ele>
        <time>2018-09-02T12:16:40Z</time>
      </trkpt>
      <trkpt lat="40.502100" lon="-5.235817">
        <ele>3244.0</ele>
        <time>2018-09-02T12:16:41Z</time>
      </trkpt>
      <trkpt lat="40.502067" lon="-5.235850">
        <ele>3244.0</ele>
        <time>2018-09-02T12:16:42Z</time>
      </trkpt>
      <trkpt lat="40.502050" lon="-5.235867">
        <ele>3246.0</ele>
        <time>2018-09-02T12:16:43Z</time>
      </trkpt>
      <trkpt lat="40.502050" lon="-5.235900">
        <ele>3249.0</ele>
        <time>2018-09-02T12:16:44Z</time>
      </trkpt>
      <trkpt lat="40.502067" lon="-5.235933">
        <ele>3252.0</ele>
        <time>2018-09-02T12:16:45Z</time>
      </trkpt>
      <trkpt lat="40.502067" lon="-5.235967">
        <ele>3254.0</ele>
        <time>2018-09-02T12:16:46Z</time>
      </trkpt>
      <trkpt lat="40.502083" lon="-5.236000">
        <ele>3255.0</ele>
        <time>2018-09-02T12:16:47Z</time>
      </trkpt>
      <trkpt lat="40.502100" lon="-5.236050">
        <ele>3255.0</ele>
        <time>2018-09-02T12:16:48Z</time>
      </trkpt>
      <trkpt lat="40.502150" lon="-5.236100">
        <ele>3255.0</ele>
        <time>2018-09-02T12:16:49Z</time>
      </trkpt>
      <trkpt lat="40.502250" lon="-5.236150">
        <ele>3255.0</ele>
        <time>2018-09-02T12:16:50Z</time>
      </trkpt>
      <trkpt lat="40.502350" lon="-5.236167">
        <ele>3256.0</ele>
        <time>2018-09-02T12:16:51Z</time>
      </trkpt>
      <trkpt lat="40.502483" lon="-5.236150">
        <ele>3257.0</ele>
        <time>2018-09-02T12:16:52Z</time>
      </trkpt>
      <trkpt lat="40.502600" lon="-5.236100">
        <ele>3259.0</ele>
        <time>2018-09-02T12:16:53Z</time>
      </trkpt>
      <trkpt lat="40.502717" lon="-5.236000">
        <ele>3260.0</ele>
        <time>2018-09-02T12:16:54Z</time>
      </trkpt>
      <trkpt lat="40.502800" lon="-5.235867">
        <ele>3261.0</ele>
        <time>2018-09-02T12:16:55Z</time>
      </trkpt>
      <trkpt lat="40.502883" lon="-5.235717">
        <ele>3261.0</ele>
        <time>2018-09-02T12:16:56Z</time>
      </trkpt>
      <trkpt lat="40.502967" lon="-5.235550">
        <ele>3261.0</ele>
        <time>2018-09-02T12:16:57Z</time>
      </trkpt>
      <trkpt lat="40.503050" lon="-5.235383">
        <ele>3261.0</ele>
        <time>2018-09-02T12:16:58Z</time>
      </trkpt>
      <trkpt lat="40.503100" lon="-5.235200">
        <ele>3261.0</ele>
        <time>2018-09-02T12:16:59Z</time>
      </trkpt>
      <trkpt lat="40.503117" lon="-5.235017">
        <ele>3262.0</ele>
        <time>2018-09-02T12:17:00Z</time>
      </trkpt>
      <trkpt lat="40.503100" lon="-5.234850">
        <ele>3262.0</ele>
        <time>2018-09-02T12:17:01Z</time>
      </trkpt>
      <trkpt lat="40.503050" lon="-5.234717">
        <ele>3262.0</ele>
        <time>2018-09-02T12:17:02Z</time>
      </trkpt>
      <trkpt lat="40.503017" lon="-5.234617">
        <ele>3262.0</ele>
        <time>2018-09-02T12:17:03Z</time>
      </trkpt>
      <trkpt lat="40.502967" lon="-5.234550">
        <ele>3262.0</ele>
        <time>2018-09-02T12:17:04Z</time>
      </trkpt>
      <trkpt lat="40.502917" lon="-5.234500">
        <ele>3261.0</ele>
        <time>2018-09-02T12:17:05Z</time>
      </trkpt>
      <trkpt lat="40.502867" lon="-5.234483">
        <ele>3260.0</ele>
        <time>2018-09-02T12:17:06Z</time>
      </trkpt>
      <trkpt lat="40.502833" lon="-5.234483">
        <ele>3259.0</ele>
        <time>2018-09-02T12:17:07Z</time>
      </trkpt>
      <trkpt lat="40.502817" lon="-5.234500">
        <ele>3259.0</ele>
        <time>2018-09-02T12:17:08Z</time>
      </trkpt>
      <trkpt lat="40.502800" lon="-5.234500">
        <ele>3259.0</ele>
        <time>2018-09-02T12:17:09Z</time>
      </trkpt>
      <trkpt lat="40.502783" lon="-5.234517">
        <ele>3261.0</ele>
        <time>2018-09-02T12:17:10Z</time>
      </trkpt>
      <trkpt lat="40.502750" lon="-5.234533">
        <ele>3261.0</ele>
        <time>2018-09-02T12:17:11Z</time>
      </trkpt>
      <trkpt lat="40.502717" lon="-5.234550">
        <ele>3261.0</ele>
        <time>2018-09-02T12:17:12Z</time>
      </trkpt>
      <trkpt lat="40.502700" lon="-5.234583">
        <ele>3261.0</ele>
        <time>2018-09-02T12:17:13Z</time>
      </trkpt>
      <trkpt lat="40.502683" lon="-5.234617">
        <ele>3261.0</ele>
        <time>2018-09-02T12:17:14Z</time>
      </trkpt>
      <trkpt lat="40.502683" lon="-5.234700">
        <ele>3262.0</ele>
        <time>2018-09-02T12:17:16Z</time>
      </trkpt>
      <trkpt lat="40.502700" lon="-5.234750">
        <ele>3263.0</ele>
        <time>2018-09-02T12:17:17Z</time>
      </trkpt>
      <trkpt lat="40.502700" lon="-5.234800">
        <ele>3264.0</ele>
        <time>2018-09-02T12:17:18Z</time>
      </trkpt>
      <trkpt lat="40.502700" lon="-5.234850">
        <ele>3265.0</ele>
        <time>2018-09-02T12:17:19Z</time>
      </trkpt>
      <trkpt lat="40.502717" lon="-5.234883">
        <ele>3266.0</ele>
        <time>2018-09-02T12:17:20Z</time>
      </trkpt>
      <trkpt lat="40.502750" lon="-5.234917">
        <ele>3268.0</ele>
        <time>2018-09-02T12:17:21Z</time>
      </trkpt>
      <trkpt lat="40.502767" lon="-5.234933">
        <ele>3270.0</ele>
        <time>2018-09-02T12:17:22Z</time>
      </trkpt>
      <trkpt lat="40.502767" lon="-5.234950">
        <ele>3272.0</ele>
        <time>2018-09-02T12:17:23Z</time>
      </trkpt>
      <trkpt lat="40.502767" lon="-5.234983">
        <ele>3274.0</ele>
        <time>2018-09-02T12:17:24Z</time>
      </trkpt>
      <trkpt lat="40.502800" lon="-5.235033">
        <ele>3275.0</ele>
        <time>2018-09-02T12:17:25Z</time>
      </trkpt>
      <trkpt lat="40.502850" lon="-5.235083">
        <ele>3277.0</ele>
        <time>2018-09-02T12:17:26Z</time>
      </trkpt>
      <trkpt lat="40.502933" lon="-5.235117">
        <ele>3278.0</ele>
        <time>2018-09-02T12:17:27Z</time>
      </trkpt>
      <trkpt lat="40.503033" lon="-5.235100">
        <ele>3279.0</ele>
        <time>2018-09-02T12:17:28Z</time>
      </trkpt>
      <trkpt lat="40.503150" lon="-5.235033">
        <ele>3280.0</ele>
        <time>2018-09-02T12:17:29Z</time>
      </trkpt>
      <trkpt lat="40.503250" lon="-5.234950">
        <ele>3282.0</ele>
        <time>2018-09-02T12:17:30Z</time>
      </trkpt>
      <trkpt lat="40.503350" lon="-5.234833">
        <ele>3283.0</ele>
        <time>2018-09-02T12:17:31Z</time>
      </trkpt>
      <trkpt lat="40.503450" lon="-5.234683">
        <ele>3284.0</ele>
        <time>2018-09-02T12:17:32Z</time>
      </trkpt>
      <trkpt lat="40.503533" lon="-5.234517">
        <ele>3285.0</ele>
        <time>2018-09-02T12:17:33Z</time>
      </trkpt>
      <trkpt lat="40.503583" lon="-5.234317">
        <ele>3287.0</ele>
        <time>2018-09-02T12:17:34Z</time>
      </trkpt>
      <trkpt lat="40.503600" lon="-5.234133">
        <ele>3289.0</ele>
        <time>2018-09-02T12:17:35Z</time>
      </trkpt>
      <trkpt lat="40.503583" lon="-5.233967">
        <ele>3291.0</ele>
        <time>2018-09-02T12:17:36Z</time>
      </trkpt>
      <trkpt lat="40.503533" lon="-5.233833">
        <ele>3292.0</ele>
        <time>2018-09-02T12:17:37Z</time>
      </trkpt>
      <trkpt lat="40.503467" lon="-5.233717">
        <ele>3292.0</ele>
        <time>2018-09-02T12:17:38Z</time>
      </trkpt>
      <trkpt lat="40.503400" lon="-5.233633">
        <ele>3293.0</ele>
        <time>2018-09-02T12:17:39Z</time>
      </trkpt>
      <trkpt lat="40.503333" lon="-5.233567">
        <ele>3294.0</ele>
        <time>2018-09-02T12:17:40Z</time>
      </trkpt>
      <trkpt lat="40.503267" lon="-5.233550">
        <ele>3295.0</ele>
        <time>2018-09-02T12:17:41Z</time>
      </trkpt>
      <trkpt lat="40.503217" lon="-5.233550">
        <ele>3296.0</ele>
        <time>2018-09-02T12:17:42Z</time>
      </trkpt>
      <trkpt lat="40.503183" lon="-5.233550">
        <ele>3297.0</ele>
        <time>2018-09-02T12:17:43Z</time>
      </trkpt>
      <trkpt lat="40.503150" lon="-5.233550">
        <ele>3299.0</ele>
        <time>2018-09-02T12:17:44Z</time>
      </trkpt>
      <trkpt lat="40.503117" lon="-5.233533">
        <ele>3301.0</ele>
        <time>2018-09-02T12:17:45Z</time>
      </trkpt>
      <trkpt lat="40.503083" lon="-5.233533">
        <ele>3302.0</ele>
        <time>2018-09-02T12:17:46Z</time>
      </trkpt>
      <trkpt lat="40.503083" lon="-5.233567">
        <ele>3303.0</ele>
        <time>2018-09-02T12:17:47Z</time>
      </trkpt>
      <trkpt lat="40.503100" lon="-5.233600">
        <ele>3303.0</ele>
        <time>2018-09-02T12:17:48Z</time>
      </trkpt>
      <trkpt lat="40.503167" lon="-5.233633">
        <ele>3302.0</ele>
        <time>2018-09-02T12:17:49Z</time>
      </trkpt>
      <trkpt lat="40.503233" lon="-5.233667">
        <ele>3299.0</ele>
        <time>2018-09-02T12:17:50Z</time>
      </trkpt>
      <trkpt lat="40.503333" lon="-5.233683">
        <ele>3300.0</ele>
        <time>2018-09-02T12:17:51Z</time>
      </trkpt>
      <trkpt lat="40.503433" lon="-5.233667">
        <ele>3300.0</ele>
        <time>2018-09-02T12:17:52Z</time>
      </trkpt>
      <trkpt lat="40.503550" lon="-5.233617">
        <ele>3300.0</ele>
        <time>2018-09-02T12:17:53Z</time>
      </trkpt>
      <trkpt lat="40.503667" lon="-5.233533">
        <ele>3299.0</ele>
        <time>2018-09-02T12:17:54Z</time>
      </trkpt>
      <trkpt lat="40.503783" lon="-5.233433">
        <ele>3298.0</ele>
        <time>2018-09-02T12:17:55Z</time>
      </trkpt>
      <trkpt lat="40.503900" lon="-5.233333">
        <ele>3297.0</ele>
        <time>2018-09-02T12:17:56Z</time>
      </trkpt>
      <trkpt lat="40.504000" lon="-5.233233">
        <ele>3297.0</ele>
        <time>2018-09-02T12:17:57Z</time>
      </trkpt>
      <trkpt lat="40.504100" lon="-5.233117">
        <ele>3297.0</ele>
        <time>2018-09-02T12:17:58Z</time>
      </trkpt>
      <trkpt lat="40.504200" lon="-5.233000">
        <ele>3297.0</ele>
        <time>2018-09-02T12:17:59Z</time>
      </trkpt>
      <trkpt lat="40.504317" lon="-5.232867">
        <ele>3296.0</ele>
        <time>2018-09-02T12:18:00Z</time>
      </trkpt>
      <trkpt lat="40.504433" lon="-5.232750">
        <ele>3296.0</ele>
        <time>2018-09-02T12:18:01Z</time>
      </trkpt>
      <trkpt lat="40.504567" lon="-5.232617">
        <ele>3296.0</ele>
        <time>2018-09-02T12:18:02Z</time>
      </trkpt>
      <trkpt lat="40.504667" lon="-5.232500">
        <ele>3297.0</ele>
        <time>2018-09-02T12:18:03Z</time>
      </trkpt>
      <trkpt lat="40.504767" lon="-5.232383">
        <ele>3297.0</ele>
        <time>2018-09-02T12:18:04Z</time>
      </trkpt>
      <trkpt lat="40.504867" lon="-5.232267">
        <ele>3298.0</ele>
        <time>2018-09-02T12:18:05Z</time>
      </trkpt>
      <trkpt lat="40.504967" lon="-5.232150">
        <ele>3297.0</ele>
        <time>2018-09-02T12:18:06Z</time>
      </trkpt>
      <trkpt lat="40.505083" lon="-5.232033">
        <ele>3297.0</ele>
        <time>2018-09-02T12:18:07Z</time>
      </trkpt>
      <trkpt lat="40.505217" lon="-5.231883">
        <ele>3298.0</ele>
        <time>2018-09-02T12:18:08Z</time>
      </trkpt>
      <trkpt lat="40.505350" lon="-5.231750">
        <ele>3302.0</ele>
        <time>2018-09-02T12:18:09Z</time>
      </trkpt>
      <trkpt lat="40.505483" lon="-5.231617">
        <ele>3307.0</ele>
        <time>2018-09-02T12:18:10Z</time>
      </trkpt>
      <trkpt lat="40.505717" lon="-5.231367">
        <ele>3315.0</ele>
        <time>2018-09-02T12:18:12Z</time>
      </trkpt>
      <trkpt lat="40.505850" lon="-5.231233">
        <ele>3320.0</ele>
        <time>2018-09-02T12:18:13Z</time>
      </trkpt>
      <trkpt lat="40.505950" lon="-5.231100">
        <ele>3319.0</ele>
        <time>2018-09-02T12:18:14Z</time>
      </trkpt>
      <trkpt lat="40.506067" lon="-5.230967">
        <ele>3310.0</ele>
        <time>2018-09-02T12:18:15Z</time>
      </trkpt>
      <trkpt lat="40.506183" lon="-5.230867">
        <ele>3305.0</ele>
        <time>2018-09-02T12:18:16Z</time>
      </trkpt>
      <trkpt lat="40.506300" lon="-5.230767">
        <ele>3303.0</ele>
        <time>2018-09-02T12:18:17Z</time>
      </trkpt>
      <trkpt lat="40.506400" lon="-5.230683">
        <ele>3302.0</ele>
        <time>2018-09-02T12:18:18Z</time>
      </trkpt>
      <trkpt lat="40.506517" lon="-5.230583">
        <ele>3299.0</ele>
        <time>2018-09-02T12:18:19Z</time>
      </trkpt>
      <trkpt lat="40.506633" lon="-5.230500">
        <ele>3295.0</ele>
        <time>2018-09-02T12:18:20Z</time>
      </trkpt>
      <trkpt lat="40.506750" lon="-5.230417">
        <ele>3290.0</ele>
        <time>2018-09-02T12:18:21Z</time>
      </trkpt>
      <trkpt lat="40.506850" lon="-5.230317">
        <ele>3285.0</ele>
        <time>2018-09-02T12:18:22Z</time>
      </trkpt>
      <trkpt lat="40.506950" lon="-5.230233">
        <ele>3281.0</ele>
        <time>2018-09-02T12:18:23Z</time>
      </trkpt>
      <trkpt lat="40.507067" lon="-5.230117">
        <ele>3279.0</ele>
        <time>2018-09-02T12:18:24Z</time>
      </trkpt>
      <trkpt lat="40.507167" lon="-5.230000">
        <ele>3276.0</ele>
        <time>2018-09-02T12:18:25Z</time>
      </trkpt>
      <trkpt lat="40.507250" lon="-5.229867">
        <ele>3274.0</ele>
        <time>2018-09-02T12:18:26Z</time>
      </trkpt>
      <trkpt lat="40.507350" lon="-5.229750">
        <ele>3270.0</ele>
        <time>2018-09-02T12:18:27Z</time>
      </trkpt>
      <trkpt lat="40.507450" lon="-5.229617">
        <ele>3267.0</ele>
        <time>2018-09-02T12:18:28Z</time>
      </trkpt>
      <trkpt lat="40.507550" lon="-5.229500">
        <ele>3264.0</ele>
        <time>2018-09-02T12:18:29Z</time>
      </trkpt>
      <trkpt lat="40.507667" lon="-5.229367">
        <ele>3260.0</ele>
        <time>2018-09-02T12:18:30Z</time>
      </trkpt>
      <trkpt lat="40.507767" lon="-5.229233">
        <ele>3256.0</ele>
        <time>2018-09-02T12:18:31Z</time>
      </trkpt>
      <trkpt lat="40.507883" lon="-5.229100">
        <ele>3253.0</ele>
        <time>2018-09-02T12:18:32Z</time>
      </trkpt>
      <trkpt lat="40.507983" lon="-5.228967">
        <ele>3249.0</ele>
        <time>2018-09-02T12:18:33Z</time>
      </trkpt>
      <trkpt lat="40.508083" lon="-5.228850">
        <ele>3246.0</ele>
        <time>2018-09-02T12:18:34Z</time>
      </trkpt>
      <trkpt lat="40.508183" lon="-5.228733">
        <ele>3242.0</ele>
        <time>2018-09-02T12:18:35Z</time>
      </trkpt>
      <trkpt lat="40.508300" lon="-5.228600">
        <ele>3238.0</ele>
        <time>2018-09-02T12:18:36Z</time>
      </trkpt>
      <trkpt lat="40.508417" lon="-5.228467">
        <ele>3235.0</ele>
        <time>2018-09-02T12:18:37Z</time>
      </trkpt>
      <trkpt lat="40.508517" lon="-5.228333">
        <ele>3230.0</ele>
        <time>2018-09-02T12:18:38Z</time>
      </trkpt>
      <trkpt lat="40.508617" lon="-5.228217">
        <ele>3227.0</ele>
        <time>2018-09-02T12:18:39Z</time>
      </trkpt>
      <trkpt lat="40.508717" lon="-5.228083">
        <ele>3223.0</ele>
        <time>2018-09-02T12:18:40Z</time>
      </trkpt>
      <trkpt lat="40.508817" lon="-5.227950">
        <ele>3220.0</ele>
        <time>2018-09-02T12:18:41Z</time>
      </trkpt>
      <trkpt lat="40.508917" lon="-5.227817">
        <ele>3216.0</ele>
        <time>2018-09-02T12:18:42Z</time>
      </trkpt>
      <trkpt lat="40.509267" lon="-5.227433">
        <ele>3205.0</ele>
        <time>2018-09-02T12:18:45Z</time>
      </trkpt>
      <trkpt lat="40.509383" lon="-5.227317">
        <ele>3200.0</ele>
        <time>2018-09-02T12:18:46Z</time>
      </trkpt>
      <trkpt lat="40.509500" lon="-5.227200">
        <ele>3197.0</ele>
        <time>2018-09-02T12:18:47Z</time>
      </trkpt>
      <trkpt lat="40.509617" lon="-5.227083">
        <ele>3194.0</ele>
        <time>2018-09-02T12:18:48Z</time>
      </trkpt>
      <trkpt lat="40.509733" lon="-5.226967">
        <ele>3191.0</ele>
        <time>2018-09-02T12:18:49Z</time>
      </trkpt>
      <trkpt lat="40.509850" lon="-5.226867">
        <ele>3187.0</ele>
        <time>2018-09-02T12:18:50Z</time>
      </trkpt>
      <trkpt lat="40.509967" lon="-5.226750">
        <ele>3183.0</ele>
        <time>2018-09-02T12:18:51Z</time>
      </trkpt>
      <trkpt lat="40.510083" lon="-5.226633">
        <ele>3180.0</ele>
        <time>2018-09-02T12:18:52Z</time>
      </trkpt>
      <trkpt lat="40.510183" lon="-5.226517">
        <ele>3177.0</ele>
        <time>2018-09-02T12:18:53Z</time>
      </trkpt>
      <trkpt lat="40.510283" lon="-5.226417">
        <ele>3176.0</ele>
        <time>2018-09-02T12:18:54Z</time>
      </trkpt>
      <trkpt lat="40.510350" lon="-5.226317">
        <ele>3175.0</ele>
        <time>2018-09-02T12:18:55Z</time>
      </trkpt>
      <trkpt lat="40.510433" lon="-5.226217">
        <ele>3173.0</ele>
        <time>2018-09-02T12:18:56Z</time>
      </trkpt>
      <trkpt lat="40.510500" lon="-5.226100">
        <ele>3172.0</ele>
        <time>2018-09-02T12:18:57Z</time>
      </trkpt>
      <trkpt lat="40.510583" lon="-5.225983">
        <ele>3170.0</ele>
        <time>2018-09-02T12:18:58Z</time>
      </trkpt>
      <trkpt lat="40.510683" lon="-5.225883">
        <ele>3168.0</ele>
        <time>2018-09-02T12:18:59Z</time>
      </trkpt>
      <trkpt lat="40.510783" lon="-5.225767">
        <ele>3166.0</ele>
        <time>2018-09-02T12:19:00Z</time>
      </trkpt>
      <trkpt lat="40.510883" lon="-5.225650">
        <ele>3165.0</ele>
        <time>2018-09-02T12:19:01Z</time>
      </trkpt>
      <trkpt lat="40.510967" lon="-5.225517">
        <ele>3163.0</ele>
        <time>2018-09-02T12:19:02Z</time>
      </trkpt>
      <trkpt lat="40.511050" lon="-5.225383">
        <ele>3162.0</ele>
        <time>2018-09-02T12:19:03Z</time>
      </trkpt>
      <trkpt lat="40.511117" lon="-5.225233">
        <ele>3161.0</ele>
        <time>2018-09-02T12:19:04Z</time>
      </trkpt>
      <trkpt lat="40.511200" lon="-5.225100">
        <ele>3159.0</ele>
        <time>2018-09-02T12:19:05Z</time>
      </trkpt>
      <trkpt lat="40.511300" lon="-5.224950">
        <ele>3158.0</ele>
        <time>2018-09-02T12:19:06Z</time>
      </trkpt>
      <trkpt lat="40.511400" lon="-5.224817">
        <ele>3156.0</ele>
        <time>2018-09-02T12:19:07Z</time>
      </trkpt>
      <trkpt lat="40.511500" lon="-5.224683">
        <ele>3155.0</ele>
        <time>2018-09-02T12:19:08Z</time>
      </trkpt>
      <trkpt lat="40.511583" lon="-5.224567">
        <ele>3154.0</ele>
        <time>2018-09-02T12:19:09Z</time>
      </trkpt>
      <trkpt lat="40.511683" lon="-5.224433">
        <ele>3154.0</ele>
        <time>2018-09-02T12:19:10Z</time>
      </trkpt>
      <trkpt lat="40.511767" lon="-5.224300">
        <ele>3153.0</ele>
        <time>2018-09-02T12:19:11Z</time>
      </trkpt>
      <trkpt lat="40.511850" lon="-5.224167">
        <ele>3152.0</ele>
        <time>2018-09-02T12:19:12Z</time>
      </trkpt>
      <trkpt lat="40.511933" lon="-5.224017">
        <ele>3151.0</ele>
        <time>2018-09-02T12:19:13Z</time>
      </trkpt>
      <trkpt lat="40.512017" lon="-5.223867">
        <ele>3150.0</ele>
        <time>2018-09-02T12:19:14Z</time>
      </trkpt>
      <trkpt lat="40.512117" lon="-5.223700">
        <ele>3149.0</ele>
        <time>2018-09-02T12:19:15Z</time>
      </trkpt>
      <trkpt lat="40.512200" lon="-5.223550">
        <ele>3148.0</ele>
        <time>2018-09-02T12:19:16Z</time>
      </trkpt>
      <trkpt lat="40.512283" lon="-5.223417">
        <ele>3148.0</ele>
        <time>2018-09-02T12:19:17Z</time>
      </trkpt>
      <trkpt lat="40.512367" lon="-5.223267">
        <ele>3148.0</ele>
        <time>2018-09-02T12:19:18Z</time>
      </trkpt>
      <trkpt lat="40.512450" lon="-5.223133">
        <ele>3147.0</ele>
        <time>2018-09-02T12:19:19Z</time>
      </trkpt>
      <trkpt lat="40.512533" lon="-5.223000">
        <ele>3146.0</ele>
        <time>2018-09-02T12:19:20Z</time>
      </trkpt>
      <trkpt lat="40.512633" lon="-5.222867">
        <ele>3143.0</ele>
        <time>2018-09-02T12:19:21Z</time>
      </trkpt>
      <trkpt lat="40.512733" lon="-5.222717">
        <ele>3141.0</ele>
        <time>2018-09-02T12:19:22Z</time>
      </trkpt>
      <trkpt lat="40.512817" lon="-5.222583">
        <ele>3140.0</ele>
        <time>2018-09-02T12:19:23Z</time>
      </trkpt>
      <trkpt lat="40.512917" lon="-5.222450">
        <ele>3138.0</ele>
        <time>2018-09-02T12:19:24Z</time>
      </trkpt>
      <trkpt lat="40.513017" lon="-5.222333">
        <ele>3137.0</ele>
        <time>2018-09-02T12:19:25Z</time>
      </trkpt>
      <trkpt lat="40.513100" lon="-5.222200">
        <ele>3136.0</ele>
        <time>2018-09-02T12:19:26Z</time>
      </trkpt>
      <trkpt lat="40.513200" lon="-5.222083">
        <ele>3134.0</ele>
        <time>2018-09-02T12:19:27Z</time>
      </trkpt>
      <trkpt lat="40.513300" lon="-5.221933">
        <ele>3133.0</ele>
        <time>2018-09-02T12:19:28Z</time>
      </trkpt>
      <trkpt lat="40.513417" lon="-5.221800">
        <ele>3131.0</ele>
        <time>2018-09-02T12:19:29Z</time>
      </trkpt>
      <trkpt lat="40.513533" lon="-5.221683">
        <ele>3130.0</ele>
        <time>2018-09-02T12:19:30Z</time>
      </trkpt>
      <trkpt lat="40.513633" lon="-5.221550">
        <ele>3129.0</ele>
        <time>2018-09-02T12:19:31Z</time>
      </trkpt>
      <trkpt lat="40.513700" lon="-5.221433">
        <ele>3129.0</ele>
        <time>2018-09-02T12:19:32Z</time>
      </trkpt>
      <trkpt lat="40.513800" lon="-5.221317">
        <ele>3128.0</ele>
        <time>2018-09-02T12:19:33Z</time>
      </trkpt>
      <trkpt lat="40.513883" lon="-5.221183">
        <ele>3128.0</ele>
        <time>2018-09-02T12:19:34Z</time>
      </trkpt>
      <trkpt lat="40.513983" lon="-5.221050">
        <ele>3126.0</ele>
        <time>2018-09-02T12:19:35Z</time>
      </trkpt>
      <trkpt lat="40.514100" lon="-5.220933">
        <ele>3125.0</ele>
        <time>2018-09-02T12:19:36Z</time>
      </trkpt>
      <trkpt lat="40.514200" lon="-5.220817">
        <ele>3125.0</ele>
        <time>2018-09-02T12:19:37Z</time>
      </trkpt>
      <trkpt lat="40.514300" lon="-5.220683">
        <ele>3126.0</ele>
        <time>2018-09-02T12:19:38Z</time>
      </trkpt>
      <trkpt lat="40.514383" lon="-5.220583">
        <ele>3127.0</ele>
        <time>2018-09-02T12:19:39Z</time>
      </trkpt>
      <trkpt lat="40.514483" lon="-5.220467">
        <ele>3127.0</ele>
        <time>2018-09-02T12:19:40Z</time>
      </trkpt>
      <trkpt lat="40.514567" lon="-5.220350">
        <ele>3127.0</ele>
        <time>2018-09-02T12:19:41Z</time>
      </trkpt>
      <trkpt lat="40.514667" lon="-5.220217">
        <ele>3127.0</ele>
        <time>2018-09-02T12:19:42Z</time>
      </trkpt>
      <trkpt lat="40.514767" lon="-5.220083">
        <ele>3127.0</ele>
        <time>2018-09-02T12:19:43Z</time>
      </trkpt>
      <trkpt lat="40.514883" lon="-5.219967">
        <ele>3126.0</ele>
        <time>2018-09-02T12:19:44Z</time>
      </trkpt>
      <trkpt lat="40.514983" lon="-5.219833">
        <ele>3126.0</ele>
        <time>2018-09-02T12:19:45Z</time>
      </trkpt>
      <trkpt lat="40.515100" lon="-5.219717">
        <ele>3127.0</ele>
        <time>2018-09-02T12:19:46Z</time>
      </trkpt>
      <trkpt lat="40.515183" lon="-5.219617">
        <ele>3127.0</ele>
        <time>2018-09-02T12:19:47Z</time>
      </trkpt>
      <trkpt lat="40.515283" lon="-5.219500">
        <ele>3127.0</ele>
        <time>2018-09-02T12:19:48Z</time>
      </trkpt>
      <trkpt lat="40.515383" lon="-5.219400">
        <ele>3127.0</ele>
        <time>2018-09-02T12:19:49Z</time>
      </trkpt>
      <trkpt lat="40.515483" lon="-5.219267">
        <ele>3125.0</ele>
        <time>2018-09-02T12:19:50Z</time>
      </trkpt>
      <trkpt lat="40.515583" lon="-5.219150">
        <ele>3125.0</ele>
        <time>2018-09-02T12:19:51Z</time>
      </trkpt>
      <trkpt lat="40.515683" lon="-5.219017">
        <ele>3125.0</ele>
        <time>2018-09-02T12:19:52Z</time>
      </trkpt>
      <trkpt lat="40.515783" lon="-5.218900">
        <ele>3125.0</ele>
        <time>2018-09-02T12:19:53Z</time>
      </trkpt>
      <trkpt lat="40.515883" lon="-5.218767">
        <ele>3125.0</ele>
        <time>2018-09-02T12:19:54Z</time>
      </trkpt>
      <trkpt lat="40.516000" lon="-5.218633">
        <ele>3125.0</ele>
        <time>2018-09-02T12:19:55Z</time>
      </trkpt>
      <trkpt lat="40.516117" lon="-5.218500">
        <ele>3123.0</ele>
        <time>2018-09-02T12:19:56Z</time>
      </trkpt>
      <trkpt lat="40.516233" lon="-5.218383">
        <ele>3122.0</ele>
        <time>2018-09-02T12:19:57Z</time>
      </trkpt>
      <trkpt lat="40.516333" lon="-5.218267">
        <ele>3122.0</ele>
        <time>2018-09-02T12:19:58Z</time>
      </trkpt>
      <trkpt lat="40.516433" lon="-5.218167">
        <ele>3122.0</ele>
        <time>2018-09-02T12:19:59Z</time>
      </trkpt>
      <trkpt lat="40.516550" lon="-5.218050">
        <ele>3120.0</ele>
        <time>2018-09-02T12:20:00Z</time>
      </trkpt>
      <trkpt lat="40.516650" lon="-5.217933">
        <ele>3118.0</ele>
        <time>2018-09-02T12:20:01Z</time>
      </trkpt>
      <trkpt lat="40.516767" lon="-5.217817">
        <ele>3116.0</ele>
        <time>2018-09-02T12:20:02Z</time>
      </trkpt>
      <trkpt lat="40.516883" lon="-5.217700">
        <ele>3114.0</ele>
        <time>2018-09-02T12:20:03Z</time>
      </trkpt>
      <trkpt lat="40.517000" lon="-5.217600">
        <ele>3112.0</ele>
        <time>2018-09-02T12:20:04Z</time>
      </trkpt>
      <trkpt lat="40.517117" lon="-5.217500">
        <ele>3110.0</ele>
        <time>2018-09-02T12:20:05Z</time>
      </trkpt>
      <trkpt lat="40.517217" lon="-5.217400">
        <ele>3108.0</ele>
        <time>2018-09-02T12:20:06Z</time>
      </trkpt>
      <trkpt lat="40.517317" lon="-5.217300">
        <ele>3107.0</ele>
        <time>2018-09-02T12:20:07Z</time>
      </trkpt>
      <trkpt lat="40.517433" lon="-5.217200">
        <ele>3104.0</ele>
        <time>2018-09-02T12:20:08Z</time>
      </trkpt>
      <trkpt lat="40.517533" lon="-5.217100">
        <ele>3101.0</ele>
        <time>2018-09-02T12:20:09Z</time>
      </trkpt>
      <trkpt lat="40.517650" lon="-5.216983">
        <ele>3099.0</ele>
        <time>2018-09-02T12:20:10Z</time>
      </trkpt>
      <trkpt lat="40.517767" lon="-5.216867">
        <ele>3097.0</ele>
        <time>2018-09-02T12:20:11Z</time>
      </trkpt>
      <trkpt lat="40.517883" lon="-5.216750">
        <ele>3094.0</ele>
        <time>2018-09-02T12:20:12Z</time>
      </trkpt>
      <trkpt lat="40.517983" lon="-5.216650">
        <ele>3092.0</ele>
        <time>2018-09-02T12:20:13Z</time>
      </trkpt>
      <trkpt lat="40.518083" lon="-5.216533">
        <ele>3090.0</ele>
        <time>2018-09-02T12:20:14Z</time>
      </trkpt>
      <trkpt lat="40.518183" lon="-5.216433">
        <ele>3087.0</ele>
        <time>2018-09-02T12:20:15Z</time>
      </trkpt>
      <trkpt lat="40.518283" lon="-5.216317">
        <ele>3084.0</ele>
        <time>2018-09-02T12:20:16Z</time>
      </trkpt>
      <trkpt lat="40.518400" lon="-5.216200">
        <ele>3081.0</ele>
        <time>2018-09-02T12:20:17Z</time>
      </trkpt>
      <trkpt lat="40.518617" lon="-5.215950">
        <ele>3076.0</ele>
        <time>2018-09-02T12:20:19Z</time>
      </trkpt>
      <trkpt lat="40.518717" lon="-5.215850">
        <ele>3073.0</ele>
        <time>2018-09-02T12:20:20Z</time>
      </trkpt>
      <trkpt lat="40.518817" lon="-5.215733">
        <ele>3071.0</ele>
        <time>2018-09-02T12:20:21Z</time>
      </trkpt>
      <trkpt lat="40.518933" lon="-5.215617">
        <ele>3069.0</ele>
        <time>2018-09-02T12:20:22Z</time>
      </trkpt>
      <trkpt lat="40.519033" lon="-5.215517">
        <ele>3065.0</ele>
        <time>2018-09-02T12:20:23Z</time>
      </trkpt>
      <trkpt lat="40.519133" lon="-5.215400">
        <ele>3062.0</ele>
        <time>2018-09-02T12:20:24Z</time>
      </trkpt>
      <trkpt lat="40.519233" lon="-5.215283">
        <ele>3059.0</ele>
        <time>2018-09-02T12:20:25Z</time>
      </trkpt>
      <trkpt lat="40.519333" lon="-5.215183">
        <ele>3057.0</ele>
        <time>2018-09-02T12:20:26Z</time>
      </trkpt>
      <trkpt lat="40.519433" lon="-5.215067">
        <ele>3054.0</ele>
        <time>2018-09-02T12:20:27Z</time>
      </trkpt>
      <trkpt lat="40.519533" lon="-5.214950">
        <ele>3051.0</ele>
        <time>2018-09-02T12:20:28Z</time>
      </trkpt>
      <trkpt lat="40.519617" lon="-5.214833">
        <ele>3048.0</ele>
        <time>2018-09-02T12:20:29Z</time>
      </trkpt>
      <trkpt lat="40.519733" lon="-5.214717">
        <ele>3045.0</ele>
        <time>2018-09-02T12:20:30Z</time>
      </trkpt>
      <trkpt lat="40.519833" lon="-5.214600">
        <ele>3041.0</ele>
        <time>2018-09-02T12:20:31Z</time>
      </trkpt>
      <trkpt lat="40.519933" lon="-5.214483">
        <ele>3038.0</ele>
        <time>2018-09-02T12:20:32Z</time>
      </trkpt>
      <trkpt lat="40.520033" lon="-5.214367">
        <ele>3034.0</ele>
        <time>2018-09-02T12:20:33Z</time>
      </trkpt>
      <trkpt lat="40.520133" lon="-5.214250">
        <ele>3032.0</ele>
        <time>2018-09-02T12:20:34Z</time>
      </trkpt>
      <trkpt lat="40.520217" lon="-5.214133">
        <ele>3029.0</ele>
        <time>2018-09-02T12:20:35Z</time>
      </trkpt>
      <trkpt lat="40.520317" lon="-5.214017">
        <ele>3026.0</ele>
        <time>2018-09-02T12:20:36Z</time>
      </trkpt>
      <trkpt lat="40.520417" lon="-5.213883">
        <ele>3023.0</ele>
        <time>2018-09-02T12:20:37Z</time>
      </trkpt>
      <trkpt lat="40.520517" lon="-5.213767">
        <ele>3020.0</ele>
        <time>2018-09-02T12:20:38Z</time>
      </trkpt>
      <trkpt lat="40.520600" lon="-5.213633">
        <ele>3017.0</ele>
        <time>2018-09-02T12:20:39Z</time>
      </trkpt>
      <trkpt lat="40.520700" lon="-5.213517">
        <ele>3014.0</ele>
        <time>2018-09-02T12:20:40Z</time>
      </trkpt>
      <trkpt lat="40.520800" lon="-5.213400">
        <ele>3011.0</ele>
        <time>2018-09-02T12:20:41Z</time>
      </trkpt>
      <trkpt lat="40.520883" lon="-5.213283">
        <ele>3009.0</ele>
        <time>2018-09-02T12:20:42Z</time>
      </trkpt>
      <trkpt lat="40.520967" lon="-5.213133">
        <ele>3007.0</ele>
        <time>2018-09-02T12:20:43Z</time>
      </trkpt>
      <trkpt lat="40.521067" lon="-5.213000">
        <ele>3004.0</ele>
        <time>2018-09-02T12:20:44Z</time>
      </trkpt>
      <trkpt lat="40.521150" lon="-5.212883">
        <ele>3002.0</ele>
        <time>2018-09-02T12:20:45Z</time>
      </trkpt>
      <trkpt lat="40.521250" lon="-5.212750">
        <ele>2999.0</ele>
        <time>2018-09-02T12:20:46Z</time>
      </trkpt>
      <trkpt lat="40.521350" lon="-5.212617">
        <ele>2997.0</ele>
        <time>2018-09-02T12:20:47Z</time>
      </trkpt>
      <trkpt lat="40.521450" lon="-5.212483">
        <ele>2995.0</ele>
        <time>2018-09-02T12:20:48Z</time>
      </trkpt>
      <trkpt lat="40.521550" lon="-5.212350">
        <ele>2993.0</ele>
        <time>2018-09-02T12:20:49Z</time>
      </trkpt>
      <trkpt lat="40.521650" lon="-5.212233">
        <ele>2991.0</ele>
        <time>2018-09-02T12:20:50Z</time>
      </trkpt>
      <trkpt lat="40.521750" lon="-5.212100">
        <ele>2989.0</ele>
        <time>2018-09-02T12:20:51Z</time>
      </trkpt>
      <trkpt lat="40.521850" lon="-5.211950">
        <ele>2987.0</ele>
        <time>2018-09-02T12:20:52Z</time>
      </trkpt>
      <trkpt lat="40.521950" lon="-5.211817">
        <ele>2984.0</ele>
        <time>2018-09-02T12:20:53Z</time>
      </trkpt>
      <trkpt lat="40.522050" lon="-5.211683">
        <ele>2982.0</ele>
        <time>2018-09-02T12:20:54Z</time>
      </trkpt>
      <trkpt lat="40.522150" lon="-5.211550">
        <ele>2979.0</ele>
        <time>2018-09-02T12:20:55Z</time>
      </trkpt>
      <trkpt lat="40.522250" lon="-5.211433">
        <ele>2977.0</ele>
        <time>2018-09-02T12:20:56Z</time>
      </trkpt>
      <trkpt lat="40.522350" lon="-5.211317">
        <ele>2974.0</ele>
        <time>2018-09-02T12:20:57Z</time>
      </trkpt>
      <trkpt lat="40.522467" lon="-5.211200">
        <ele>2972.0</ele>
        <time>2018-09-02T12:20:58Z</time>
      </trkpt>
      <trkpt lat="40.522567" lon="-5.211067">
        <ele>2970.0</ele>
        <time>2018-09-02T12:20:59Z</time>
      </trkpt>
      <trkpt lat="40.522683" lon="-5.210950">
        <ele>2968.0</ele>
        <time>2018-09-02T12:21:00Z</time>
      </trkpt>
      <trkpt lat="40.522800" lon="-5.210833">
        <ele>2966.0</ele>
        <time>2018-09-02T12:21:01Z</time>
      </trkpt>
      <trkpt lat="40.522900" lon="-5.210733">
        <ele>2964.0</ele>
        <time>2018-09-02T12:21:02Z</time>
      </trkpt>
      <trkpt lat="40.523017" lon="-5.210617">
        <ele>2962.0</ele>
        <time>2018-09-02T12:21:03Z</time>
      </trkpt>
      <trkpt lat="40.523133" lon="-5.210483">
        <ele>2959.0</ele>
        <time>2018-09-02T12:21:04Z</time>
      </trkpt>
      <trkpt lat="40.523250" lon="-5.210350">
        <ele>2957.0</ele>
        <time>2018-09-02T12:21:05Z</time>
      </trkpt>
      <trkpt lat="40.523350" lon="-5.210233">
        <ele>2955.0</ele>
        <time>2018-09-02T12:21:06Z</time>
      </trkpt>
      <trkpt lat="40.523467" lon="-5.210133">
        <ele>2954.0</ele>
        <time>2018-09-02T12:21:07Z</time>
      </trkpt>
      <trkpt lat="40.523567" lon="-5.210033">
        <ele>2953.0</ele>
        <time>2018-09-02T12:21:08Z</time>
      </trkpt>
      <trkpt lat="40.523667" lon="-5.209950">
        <ele>2951.0</ele>
        <time>2018-09-02T12:21:09Z</time>
      </trkpt>
      <trkpt lat="40.523783" lon="-5.209850">
        <ele>2949.0</ele>
        <time>2018-09-02T12:21:10Z</time>
      </trkpt>
      <trkpt lat="40.523900" lon="-5.209750">
        <ele>2946.0</ele>
        <time>2018-09-02T12:21:11Z</time>
      </trkpt>
      <trkpt lat="40.524017" lon="-5.209650">
        <ele>2944.0</ele>
        <time>2018-09-02T12:21:12Z</time>
      </trkpt>
      <trkpt lat="40.524133" lon="-5.209567">
        <ele>2942.0</ele>
        <time>2018-09-02T12:21:13Z</time>
      </trkpt>
      <trkpt lat="40.524267" lon="-5.209467">
        <ele>2940.0</ele>
        <time>2018-09-02T12:21:14Z</time>
      </trkpt>
      <trkpt lat="40.524367" lon="-5.209400">
        <ele>2937.0</ele>
        <time>2018-09-02T12:21:15Z</time>
      </trkpt>
      <trkpt lat="40.524483" lon="-5.209300">
        <ele>2934.0</ele>
        <time>2018-09-02T12:21:16Z</time>
      </trkpt>
      <trkpt lat="40.524600" lon="-5.209200">
        <ele>2932.0</ele>
        <time>2018-09-02T12:21:17Z</time>
      </trkpt>
      <trkpt lat="40.524733" lon="-5.209083">
        <ele>2928.0</ele>
        <time>2018-09-02T12:21:18Z</time>
      </trkpt>
      <trkpt lat="40.524833" lon="-5.208983">
        <ele>2927.0</ele>
        <time>2018-09-02T12:21:19Z</time>
      </trkpt>
      <trkpt lat="40.524950" lon="-5.208900">
        <ele>2926.0</ele>
        <time>2018-09-02T12:21:20Z</time>
      </trkpt>
      <trkpt lat="40.525067" lon="-5.208817">
        <ele>2923.0</ele>
        <time>2018-09-02T12:21:21Z</time>
      </trkpt>
      <trkpt lat="40.525183" lon="-5.208733">
        <ele>2921.0</ele>
        <time>2018-09-02T12:21:22Z</time>
      </trkpt>
      <trkpt lat="40.525317" lon="-5.208633">
        <ele>2918.0</ele>
        <time>2018-09-02T12:21:23Z</time>
      </trkpt>
      <trkpt lat="40.525433" lon="-5.208517">
        <ele>2916.0</ele>
        <time>2018-09-02T12:21:24Z</time>
      </trkpt>
      <trkpt lat="40.525567" lon="-5.208383">
        <ele>2913.0</ele>
        <time>2018-09-02T12:21:25Z</time>
      </trkpt>
      <trkpt lat="40.525667" lon="-5.208233">
        <ele>2911.0</ele>
        <time>2018-09-02T12:21:26Z</time>
      </trkpt>
      <trkpt lat="40.525767" lon="-5.208100">
        <ele>2909.0</ele>
        <time>2018-09-02T12:21:27Z</time>
      </trkpt>
      <trkpt lat="40.525867" lon="-5.207950">
        <ele>2907.0</ele>
        <time>2018-09-02T12:21:28Z</time>
      </trkpt>
      <trkpt lat="40.525983" lon="-5.207817">
        <ele>2905.0</ele>
        <time>2018-09-02T12:21:29Z</time>
      </trkpt>
      <trkpt lat="40.526100" lon="-5.207700">
        <ele>2902.0</ele>
        <time>2018-09-02T12:21:30Z</time>
      </trkpt>
      <trkpt lat="40.526217" lon="-5.207600">
        <ele>2900.0</ele>
        <time>2018-09-02T12:21:31Z</time>
      </trkpt>
      <trkpt lat="40.526467" lon="-5.207450">
        <ele>2896.0</ele>
        <time>2018-09-02T12:21:33Z</time>
      </trkpt>
      <trkpt lat="40.526567" lon="-5.207417">
        <ele>2897.0</ele>
        <time>2018-09-02T12:21:34Z</time>
      </trkpt>
      <trkpt lat="40.526667" lon="-5.207383">
        <ele>2898.0</ele>
        <time>2018-09-02T12:21:35Z</time>
      </trkpt>
      <trkpt lat="40.526750" lon="-5.207367">
        <ele>2898.0</ele>
        <time>2018-09-02T12:21:36Z</time>
      </trkpt>
      <trkpt lat="40.526850" lon="-5.207333">
        <ele>2897.0</ele>
        <time>2018-09-02T12:21:37Z</time>
      </trkpt>
      <trkpt lat="40.526967" lon="-5.207300">
        <ele>2895.0</ele>
        <time>2018-09-02T12:21:38Z</time>
      </trkpt>
      <trkpt lat="40.527083" lon="-5.207283">
        <ele>2893.0</ele>
        <time>2018-09-02T12:21:39Z</time>
      </trkpt>
      <trkpt lat="40.527200" lon="-5.207267">
        <ele>2892.0</ele>
        <time>2018-09-02T12:21:40Z</time>
      </trkpt>
      <trkpt lat="40.527300" lon="-5.207267">
        <ele>2891.0</ele>
        <time>2018-09-02T12:21:41Z</time>
      </trkpt>
      <trkpt lat="40.527400" lon="-5.207233">
        <ele>2891.0</ele>
        <time>2018-09-02T12:21:42Z</time>
      </trkpt>
      <trkpt lat="40.527500" lon="-5.207200">
        <ele>2891.0</ele>
        <time>2018-09-02T12:21:43Z</time>
      </trkpt>
      <trkpt lat="40.527617" lon="-5.207183">
        <ele>2891.0</ele>
        <time>2018-09-02T12:21:44Z</time>
      </trkpt>
      <trkpt lat="40.527717" lon="-5.207150">
        <ele>2890.0</ele>
        <time>2018-09-02T12:21:45Z</time>
      </trkpt>
      <trkpt lat="40.527817" lon="-5.207133">
        <ele>2889.0</ele>
        <time>2018-09-02T12:21:46Z</time>
      </trkpt>
      <trkpt lat="40.527933" lon="-5.207117">
        <ele>2888.0</ele>
        <time>2018-09-02T12:21:47Z</time>
      </trkpt>
      <trkpt lat="40.528050" lon="-5.207083">
        <ele>2886.0</ele>
        <time>2018-09-02T12:21:48Z</time>
      </trkpt>
      <trkpt lat="40.528183" lon="-5.207067">
        <ele>2885.0</ele>
        <time>2018-09-02T12:21:49Z</time>
      </trkpt>
      <trkpt lat="40.528300" lon="-5.207067">
        <ele>2884.0</ele>
        <time>2018-09-02T12:21:50Z</time>
      </trkpt>
      <trkpt lat="40.528400" lon="-5.207067">
        <ele>2884.0</ele>
        <time>2018-09-02T12:21:51Z</time>
      </trkpt>
      <trkpt lat="40.528483" lon="-5.207067">
        <ele>2884.0</ele>
        <time>2018-09-02T12:21:52Z</time>
      </trkpt>
      <trkpt lat="40.528583" lon="-5.207050">
        <ele>2884.0</ele>
        <time>2018-09-02T12:21:53Z</time>
      </trkpt>
      <trkpt lat="40.528667" lon="-5.207033">
        <ele>2884.0</ele>
        <time>2018-09-02T12:21:54Z</time>
      </trkpt>
      <trkpt lat="40.528767" lon="-5.207017">
        <ele>2883.0</ele>
        <time>2018-09-02T12:21:55Z</time>
      </trkpt>
      <trkpt lat="40.528867" lon="-5.207033">
        <ele>2882.0</ele>
        <time>2018-09-02T12:21:56Z</time>
      </trkpt>
      <trkpt lat="40.528950" lon="-5.207050">
        <ele>2882.0</ele>
        <time>2018-09-02T12:21:57Z</time>
      </trkpt>
      <trkpt lat="40.529033" lon="-5.207067">
        <ele>2882.0</ele>
        <time>2018-09-02T12:21:58Z</time>
      </trkpt>
      <trkpt lat="40.529100" lon="-5.207067">
        <ele>2883.0</ele>
        <time>2018-09-02T12:21:59Z</time>
      </trkpt>
      <trkpt lat="40.529183" lon="-5.207067">
        <ele>2882.0</ele>
        <time>2018-09-02T12:22:00Z</time>
      </trkpt>
      <trkpt lat="40.529267" lon="-5.207067">
        <ele>2881.0</ele>
        <time>2018-09-02T12:22:01Z</time>
      </trkpt>
      <trkpt lat="40.529350" lon="-5.207067">
        <ele>2881.0</ele>
        <time>2018-09-02T12:22:02Z</time>
      </trkpt>
      <trkpt lat="40.529433" lon="-5.207083">
        <ele>2881.0</ele>
        <time>2018-09-02T12:22:03Z</time>
      </trkpt>
      <trkpt lat="40.529500" lon="-5.207100">
        <ele>2882.0</ele>
        <time>2018-09-02T12:22:04Z</time>
      </trkpt>
      <trkpt lat="40.529567" lon="-5.207100">
        <ele>2883.0</ele>
        <time>2018-09-02T12:22:05Z</time>
      </trkpt>
      <trkpt lat="40.529700" lon="-5.207083">
        <ele>2882.0</ele>
        <time>2018-09-02T12:22:07Z</time>
      </trkpt>
      <trkpt lat="40.529783" lon="-5.207083">
        <ele>2882.0</ele>
        <time>2018-09-02T12:22:08Z</time>
      </trkpt>
      <trkpt lat="40.529850" lon="-5.207117">
        <ele>2882.0</ele>
        <time>2018-09-02T12:22:09Z</time>
      </trkpt>
      <trkpt lat="40.529917" lon="-5.207167">
        <ele>2883.0</ele>
        <time>2018-09-02T12:22:10Z</time>
      </trkpt>
      <trkpt lat="40.529983" lon="-5.207217">
        <ele>2883.0</ele>
        <time>2018-09-02T12:22:11Z</time>
      </trkpt>
      <trkpt lat="40.530033" lon="-5.207267">
        <ele>2883.0</ele>
        <time>2018-09-02T12:22:12Z</time>
      </trkpt>
      <trkpt lat="40.530100" lon="-5.207300">
        <ele>2883.0</ele>
        <time>2018-09-02T12:22:13Z</time>
      </trkpt>
      <trkpt lat="40.530167" lon="-5.207317">
        <ele>2883.0</ele>
        <time>2018-09-02T12:22:14Z</time>
      </trkpt>
      <trkpt lat="40.530267" lon="-5.207350">
        <ele>2882.0</ele>
        <time>2018-09-02T12:22:15Z</time>
      </trkpt>
      <trkpt lat="40.530367" lon="-5.207383">
        <ele>2881.0</ele>
        <time>2018-09-02T12:22:16Z</time>
      </trkpt>
      <trkpt lat="40.530483" lon="-5.207417">
        <ele>2880.0</ele>
        <time>2018-09-02T12:22:17Z</time>
      </trkpt>
      <trkpt lat="40.530583" lon="-5.207450">
        <ele>2880.0</ele>
        <time>2018-09-02T12:22:18Z</time>
      </trkpt>
      <trkpt lat="40.530667" lon="-5.207467">
        <ele>2881.0</ele>
        <time>2018-09-02T12:22:19Z</time>
      </trkpt>
      <trkpt lat="40.530750" lon="-5.207467">
        <ele>2883.0</ele>
        <time>2018-09-02T12:22:20Z</time>
      </trkpt>
      <trkpt lat="40.530817" lon="-5.207450">
        <ele>2884.0</ele>
        <time>2018-09-02T12:22:21Z</time>
      </trkpt>
      <trkpt lat="40.530900" lon="-5.207450">
        <ele>2885.0</ele>
        <time>2018-09-02T12:22:22Z</time>
      </trkpt>
      <trkpt lat="40.530983" lon="-5.207450">
        <ele>2884.0</ele>
        <time>2018-09-02T12:22:23Z</time>
      </trkpt>
      <trkpt lat="40.531067" lon="-5.207467">
        <ele>2884.0</ele>
        <time>2018-09-02T12:22:24Z</time>
      </trkpt>
      <trkpt lat="40.531150" lon="-5.207500">
        <ele>2884.0</ele>
        <time>2018-09-02T12:22:25Z</time>
      </trkpt>
      <trkpt lat="40.531233" lon="-5.207500">
        <ele>2885.0</ele>
        <time>2018-09-02T12:22:26Z</time>
      </trkpt>
      <trkpt lat="40.531300" lon="-5.207500">
        <ele>2885.0</ele>
        <time>2018-09-02T12:22:27Z</time>
      </trkpt>
      <trkpt lat="40.531400" lon="-5.207500">
        <ele>2885.0</ele>
        <time>2018-09-02T12:22:28Z</time>
      </trkpt>
      <trkpt lat="40.531500" lon="-5.207500">
        <ele>2885.0</ele>
        <time>2018-09-02T12:22:29Z</time>
      </trkpt>
      <trkpt lat="40.531583" lon="-5.207500">
        <ele>2886.0</ele>
        <time>2018-09-02T12:22:30Z</time>
      </trkpt>
      <trkpt lat="40.531667" lon="-5.207500">
        <ele>2886.0</ele>
        <time>2018-09-02T12:22:31Z</time>
      </trkpt>
      <trkpt lat="40.531750" lon="-5.207500">
        <ele>2886.0</ele>
        <time>2018-09-02T12:22:32Z</time>
      </trkpt>
      <trkpt lat="40.531833" lon="-5.207500">
        <ele>2887.0</ele>
        <time>2018-09-02T12:22:33Z</time>
      </trkpt>
      <trkpt lat="40.531933" lon="-5.207500">
        <ele>2888.0</ele>
        <time>2018-09-02T12:22:34Z</time>
      </trkpt>
      <trkpt lat="40.532033" lon="-5.207500">
        <ele>2889.0</ele>
        <time>2018-09-02T12:22:35Z</time>
      </trkpt>
      <trkpt lat="40.532117" lon="-5.207500">
        <ele>2891.0</ele>
        <time>2018-09-02T12:22:36Z</time>
      </trkpt>
      <trkpt lat="40.532183" lon="-5.207467">
        <ele>2894.0</ele>
        <time>2018-09-02T12:22:37Z</time>
      </trkpt>
      <trkpt lat="40.532250" lon="-5.207450">
        <ele>2898.0</ele>
        <time>2018-09-02T12:22:38Z</time>
      </trkpt>
      <trkpt lat="40.532333" lon="-5.207417">
        <ele>2901.0</ele>
        <time>2018-09-02T12:22:39Z</time>
      </trkpt>
      <trkpt lat="40.532417" lon="-5.207383">
        <ele>2904.0</ele>
        <time>2018-09-02T12:22:40Z</time>
      </trkpt>
      <trkpt lat="40.532500" lon="-5.207367">
        <ele>2906.0</ele>
        <time>2018-09-02T12:22:41Z</time>
      </trkpt>
      <trkpt lat="40.532567" lon="-5.207383">
        <ele>2907.0</ele>
        <time>2018-09-02T12:22:42Z</time>
      </trkpt>
      <trkpt lat="40.532617" lon="-5.207433">
        <ele>2909.0</ele>
        <time>2018-09-02T12:22:43Z</time>
      </trkpt>
      <trkpt lat="40.532617" lon="-5.207500">
        <ele>2910.0</ele>
        <time>2018-09-02T12:22:44Z</time>
      </trkpt>
      <trkpt lat="40.532550" lon="-5.207550">
        <ele>2911.0</ele>
        <time>2018-09-02T12:22:45Z</time>
      </trkpt>
      <trkpt lat="40.532467" lon="-5.207533">
        <ele>2912.0</ele>
        <time>2018-09-02T12:22:46Z</time>
      </trkpt>
      <trkpt lat="40.532383" lon="-5.207450">
        <ele>2914.0</ele>
        <time>2018-09-02T12:22:47Z</time>
      </trkpt>
      <trkpt lat="40.532333" lon="-5.207317">
        <ele>2917.0</ele>
        <time>2018-09-02T12:22:48Z</time>
      </trkpt>
      <trkpt lat="40.532300" lon="-5.207183">
        <ele>2920.0</ele>
        <time>2018-09-02T12:22:49Z</time>
      </trkpt>
      <trkpt lat="40.532267" lon="-5.207033">
        <ele>2922.0</ele>
        <time>2018-09-02T12:22:50Z</time>
      </trkpt>
      <trkpt lat="40.532267" lon="-5.206850">
        <ele>2924.0</ele>
        <time>2018-09-02T12:22:51Z</time>
      </trkpt>
      <trkpt lat="40.532267" lon="-5.206667">
        <ele>2925.0</ele>
        <time>2018-09-02T12:22:52Z</time>
      </trkpt>
      <trkpt lat="40.532283" lon="-5.206483">
        <ele>2926.0</ele>
        <time>2018-09-02T12:22:53Z</time>
      </trkpt>
      <trkpt lat="40.532350" lon="-5.206300">
        <ele>2928.0</ele>
        <time>2018-09-02T12:22:54Z</time>
      </trkpt>
      <trkpt lat="40.532417" lon="-5.206167">
        <ele>2929.0</ele>
        <time>2018-09-02T12:22:55Z</time>
      </trkpt>
      <trkpt lat="40.532533" lon="-5.206067">
        <ele>2932.0</ele>
        <time>2018-09-02T12:22:56Z</time>
      </trkpt>
      <trkpt lat="40.532633" lon="-5.206017">
        <ele>2936.0</ele>
        <time>2018-09-02T12:22:57Z</time>
      </trkpt>
      <trkpt lat="40.532700" lon="-5.206000">
        <ele>2939.0</ele>
        <time>2018-09-02T12:22:58Z</time>
      </trkpt>
      <trkpt lat="40.532767" lon="-5.206017">
        <ele>2942.0</ele>
        <time>2018-09-02T12:22:59Z</time>
      </trkpt>
      <trkpt lat="40.532817" lon="-5.206033">
        <ele>2945.0</ele>
        <time>2018-09-02T12:23:00Z</time>
      </trkpt>
      <trkpt lat="40.532850" lon="-5.206067">
        <ele>2947.0</ele>
        <time>2018-09-02T12:23:01Z</time>
      </trkpt>
      <trkpt lat="40.532867" lon="-5.206100">
        <ele>2948.0</ele>
        <time>2018-09-02T12:23:02Z</time>
      </trkpt>
      <trkpt lat="40.532867" lon="-5.206167">
        <ele>2950.0</ele>
        <time>2018-09-02T12:23:03Z</time>
      </trkpt>
      <trkpt lat="40.532833" lon="-5.206200">
        <ele>2951.0</ele>
        <time>2018-09-02T12:23:04Z</time>
      </trkpt>
      <trkpt lat="40.532767" lon="-5.206183">
        <ele>2953.0</ele>
        <time>2018-09-02T12:23:05Z</time>
      </trkpt>
      <trkpt lat="40.532700" lon="-5.206133">
        <ele>2954.0</ele>
        <time>2018-09-02T12:23:06Z</time>
      </trkpt>
      <trkpt lat="40.532617" lon="-5.206050">
        <ele>2955.0</ele>
        <time>2018-09-02T12:23:07Z</time>
      </trkpt>
      <trkpt lat="40.532533" lon="-5.205933">
        <ele>2956.0</ele>
        <time>2018-09-02T12:23:08Z</time>
      </trkpt>
      <trkpt lat="40.532483" lon="-5.205800">
        <ele>2958.0</ele>
        <time>2018-09-02T12:23:09Z</time>
      </trkpt>
      <trkpt lat="40.532450" lon="-5.205617">
        <ele>2960.0</ele>
        <time>2018-09-02T12:23:10Z</time>
      </trkpt>
      <trkpt lat="40.532450" lon="-5.205433">
        <ele>2962.0</ele>
        <time>2018-09-02T12:23:11Z</time>
      </trkpt>
      <trkpt lat="40.532483" lon="-5.205233">
        <ele>2963.0</ele>
        <time>2018-09-02T12:23:12Z</time>
      </trkpt>
      <trkpt lat="40.532550" lon="-5.205067">
        <ele>2965.0</ele>
        <time>2018-09-02T12:23:13Z</time>
      </trkpt>
      <trkpt lat="40.532633" lon="-5.204933">
        <ele>2967.0</ele>
        <time>2018-09-02T12:23:14Z</time>
      </trkpt>
      <trkpt lat="40.532717" lon="-5.204833">
        <ele>2970.0</ele>
        <time>2018-09-02T12:23:15Z</time>
      </trkpt>
      <trkpt lat="40.532817" lon="-5.204767">
        <ele>2973.0</ele>
        <time>2018-09-02T12:23:16Z</time>
      </trkpt>
      <trkpt lat="40.532900" lon="-5.204733">
        <ele>2975.0</ele>
        <time>2018-09-02T12:23:17Z</time>
      </trkpt>
      <trkpt lat="40.532983" lon="-5.204700">
        <ele>2976.0</ele>
        <time>2018-09-02T12:23:18Z</time>
      </trkpt>
      <trkpt lat="40.533067" lon="-5.204700">
        <ele>2978.0</ele>
        <time>2018-09-02T12:23:19Z</time>
      </trkpt>
      <trkpt lat="40.533150" lon="-5.204700">
        <ele>2979.0</ele>
        <time>2018-09-02T12:23:20Z</time>
      </trkpt>
      <trkpt lat="40.533317" lon="-5.204700">
        <ele>2982.0</ele>
        <time>2018-09-02T12:23:22Z</time>
      </trkpt>
      <trkpt lat="40.533400" lon="-5.204717">
        <ele>2983.0</ele>
        <time>2018-09-02T12:23:23Z</time>
      </trkpt>
      <trkpt lat="40.533483" lon="-5.204733">
        <ele>2985.0</ele>
        <time>2018-09-02T12:23:24Z</time>
      </trkpt>
      <trkpt lat="40.533567" lon="-5.204767">
        <ele>2986.0</ele>
        <time>2018-09-02T12:23:25Z</time>
      </trkpt>
      <trkpt lat="40.533650" lon="-5.204767">
        <ele>2988.0</ele>
        <time>2018-09-02T12:23:26Z</time>
      </trkpt>
      <trkpt lat="40.533733" lon="-5.204767">
        <ele>2989.0</ele>
        <time>2018-09-02T12:23:27Z</time>
      </trkpt>
      <trkpt lat="40.533800" lon="-5.204750">
        <ele>2991.0</ele>
        <time>2018-09-02T12:23:28Z</time>
      </trkpt>
      <trkpt lat="40.533883" lon="-5.204750">
        <ele>2992.0</ele>
        <time>2018-09-02T12:23:29Z</time>
      </trkpt>
      <trkpt lat="40.533967" lon="-5.204767">
        <ele>2993.0</ele>
        <time>2018-09-02T12:23:30Z</time>
      </trkpt>
      <trkpt lat="40.534033" lon="-5.204783">
        <ele>2993.0</ele>
        <time>2018-09-02T12:23:31Z</time>
      </trkpt>
      <trkpt lat="40.534117" lon="-5.204800">
        <ele>2993.0</ele>
        <time>2018-09-02T12:23:32Z</time>
      </trkpt>
      <trkpt lat="40.534183" lon="-5.204833">
        <ele>2993.0</ele>
        <time>2018-09-02T12:23:33Z</time>
      </trkpt>
      <trkpt lat="40.534267" lon="-5.204883">
        <ele>2993.0</ele>
        <time>2018-09-02T12:23:34Z</time>
      </trkpt>
      <trkpt lat="40.534367" lon="-5.204950">
        <ele>2993.0</ele>
        <time>2018-09-02T12:23:35Z</time>
      </trkpt>
      <trkpt lat="40.534467" lon="-5.205017">
        <ele>2994.0</ele>
        <time>2018-09-02T12:23:36Z</time>
      </trkpt>
      <trkpt lat="40.534533" lon="-5.205067">
        <ele>2998.0</ele>
        <time>2018-09-02T12:23:37Z</time>
      </trkpt>
      <trkpt lat="40.534600" lon="-5.205133">
        <ele>3001.0</ele>
        <time>2018-09-02T12:23:38Z</time>
      </trkpt>
      <trkpt lat="40.534667" lon="-5.205167">
        <ele>3005.0</ele>
        <time>2018-09-02T12:23:39Z</time>
      </trkpt>
      <trkpt lat="40.534733" lon="-5.205217">
        <ele>3008.0</ele>
        <time>2018-09-02T12:23:40Z</time>
      </trkpt>
      <trkpt lat="40.534800" lon="-5.205283">
        <ele>3011.0</ele>
        <time>2018-09-02T12:23:41Z</time>
      </trkpt>
      <trkpt lat="40.534850" lon="-5.205367">
        <ele>3014.0</ele>
        <time>2018-09-02T12:23:42Z</time>
      </trkpt>
      <trkpt lat="40.534850" lon="-5.205433">
        <ele>3017.0</ele>
        <time>2018-09-02T12:23:43Z</time>
      </trkpt>
      <trkpt lat="40.534800" lon="-5.205467">
        <ele>3019.0</ele>
        <time>2018-09-02T12:23:44Z</time>
      </trkpt>
      <trkpt lat="40.534750" lon="-5.205467">
        <ele>3021.0</ele>
        <time>2018-09-02T12:23:45Z</time>
      </trkpt>
      <trkpt lat="40.534700" lon="-5.205450">
        <ele>3024.0</ele>
        <time>2018-09-02T12:23:46Z</time>
      </trkpt>
      <trkpt lat="40.534667" lon="-5.205433">
        <ele>3027.0</ele>
        <time>2018-09-02T12:23:47Z</time>
      </trkpt>
      <trkpt lat="40.534633" lon="-5.205400">
        <ele>3030.0</ele>
        <time>2018-09-02T12:23:48Z</time>
      </trkpt>
      <trkpt lat="40.534583" lon="-5.205333">
        <ele>3032.0</ele>
        <time>2018-09-02T12:23:49Z</time>
      </trkpt>
      <trkpt lat="40.534550" lon="-5.205250">
        <ele>3033.0</ele>
        <time>2018-09-02T12:23:50Z</time>
      </trkpt>
      <trkpt lat="40.534500" lon="-5.205133">
        <ele>3033.0</ele>
        <time>2018-09-02T12:23:51Z</time>
      </trkpt>
      <trkpt lat="40.534483" lon="-5.204983">
        <ele>3034.0</ele>
        <time>2018-09-02T12:23:52Z</time>
      </trkpt>
      <trkpt lat="40.534483" lon="-5.204833">
        <ele>3036.0</ele>
        <time>2018-09-02T12:23:53Z</time>
      </trkpt>
      <trkpt lat="40.534517" lon="-5.204683">
        <ele>3037.0</ele>
        <time>2018-09-02T12:23:54Z</time>
      </trkpt>
      <trkpt lat="40.534567" lon="-5.204533">
        <ele>3037.0</ele>
        <time>2018-09-02T12:23:55Z</time>
      </trkpt>
      <trkpt lat="40.534633" lon="-5.204400">
        <ele>3037.0</ele>
        <time>2018-09-02T12:23:56Z</time>
      </trkpt>
      <trkpt lat="40.534717" lon="-5.204250">
        <ele>3037.0</ele>
        <time>2018-09-02T12:23:57Z</time>
      </trkpt>
      <trkpt lat="40.534783" lon="-5.204133">
        <ele>3038.0</ele>
        <time>2018-09-02T12:23:58Z</time>
      </trkpt>
      <trkpt lat="40.534883" lon="-5.204017">
        <ele>3039.0</ele>
        <time>2018-09-02T12:23:59Z</time>
      </trkpt>
      <trkpt lat="40.535000" lon="-5.203917">
        <ele>3040.0</ele>
        <time>2018-09-02T12:24:00Z</time>
      </trkpt>
      <trkpt lat="40.535133" lon="-5.203850">
        <ele>3040.0</ele>
        <time>2018-09-02T12:24:01Z</time>
      </trkpt>
      <trkpt lat="40.535267" lon="-5.203783">
        <ele>3041.0</ele>
        <time>2018-09-02T12:24:02Z</time>
      </trkpt>
      <trkpt lat="40.535383" lon="-5.203733">
        <ele>3042.0</ele>
        <time>2018-09-02T12:24:03Z</time>
      </trkpt>
      <trkpt lat="40.535500" lon="-5.203717">
        <ele>3044.0</ele>
        <time>2018-09-02T12:24:04Z</time>
      </trkpt>
      <trkpt lat="40.535600" lon="-5.203683">
        <ele>3046.0</ele>
        <time>2018-09-02T12:24:05Z</time>
      </trkpt>
      <trkpt lat="40.535717" lon="-5.203667">
        <ele>3048.0</ele>
        <time>2018-09-02T12:24:06Z</time>
      </trkpt>
      <trkpt lat="40.535817" lon="-5.203650">
        <ele>3050.0</ele>
        <time>2018-09-02T12:24:07Z</time>
      </trkpt>
      <trkpt lat="40.535933" lon="-5.203617">
        <ele>3052.0</ele>
        <time>2018-09-02T12:24:08Z</time>
      </trkpt>
      <trkpt lat="40.536050" lon="-5.203600">
        <ele>3054.0</ele>
        <time>2018-09-02T12:24:09Z</time>
      </trkpt>
      <trkpt lat="40.536183" lon="-5.203567">
        <ele>3057.0</ele>
        <time>2018-09-02T12:24:10Z</time>
      </trkpt>
      <trkpt lat="40.536317" lon="-5.203533">
        <ele>3060.0</ele>
        <time>2018-09-02T12:24:11Z</time>
      </trkpt>
      <trkpt lat="40.536433" lon="-5.203533">
        <ele>3064.0</ele>
        <time>2018-09-02T12:24:12Z</time>
      </trkpt>
      <trkpt lat="40.536533" lon="-5.203517">
        <ele>3069.0</ele>
        <time>2018-09-02T12:24:13Z</time>
      </trkpt>
      <trkpt lat="40.536633" lon="-5.203533">
        <ele>3072.0</ele>
        <time>2018-09-02T12:24:14Z</time>
      </trkpt>
      <trkpt lat="40.536700" lon="-5.203567">
        <ele>3073.0</ele>
        <time>2018-09-02T12:24:15Z</time>
      </trkpt>
      <trkpt lat="40.536783" lon="-5.203600">
        <ele>3075.0</ele>
        <time>2018-09-02T12:24:16Z</time>
      </trkpt>
      <trkpt lat="40.536883" lon="-5.203633">
        <ele>3078.0</ele>
        <time>2018-09-02T12:24:17Z</time>
      </trkpt>
      <trkpt lat="40.536967" lon="-5.203650">
        <ele>3080.0</ele>
        <time>2018-09-02T12:24:18Z</time>
      </trkpt>
      <trkpt lat="40.537033" lon="-5.203667">
        <ele>3083.0</ele>
        <time>2018-09-02T12:24:19Z</time>
      </trkpt>
      <trkpt lat="40.537083" lon="-5.203683">
        <ele>3085.0</ele>
        <time>2018-09-02T12:24:20Z</time>
      </trkpt>
      <trkpt lat="40.537133" lon="-5.203717">
        <ele>3086.0</ele>
        <time>2018-09-02T12:24:21Z</time>
      </trkpt>
      <trkpt lat="40.537167" lon="-5.203733">
        <ele>3086.0</ele>
        <time>2018-09-02T12:24:22Z</time>
      </trkpt>
      <trkpt lat="40.537200" lon="-5.203767">
        <ele>3085.0</ele>
        <time>2018-09-02T12:24:23Z</time>
      </trkpt>
      <trkpt lat="40.537200" lon="-5.203800">
        <ele>3085.0</ele>
        <time>2018-09-02T12:24:24Z</time>
      </trkpt>
      <trkpt lat="40.537150" lon="-5.203800">
        <ele>3085.0</ele>
        <time>2018-09-02T12:24:25Z</time>
      </trkpt>
      <trkpt lat="40.537083" lon="-5.203750">
        <ele>3083.0</ele>
        <time>2018-09-02T12:24:26Z</time>
      </trkpt>
      <trkpt lat="40.537000" lon="-5.203650">
        <ele>3081.0</ele>
        <time>2018-09-02T12:24:27Z</time>
      </trkpt>
      <trkpt lat="40.536950" lon="-5.203517">
        <ele>3080.0</ele>
        <time>2018-09-02T12:24:28Z</time>
      </trkpt>
      <trkpt lat="40.536933" lon="-5.203333">
        <ele>3082.0</ele>
        <time>2018-09-02T12:24:29Z</time>
      </trkpt>
      <trkpt lat="40.536950" lon="-5.203150">
        <ele>3086.0</ele>
        <time>2018-09-02T12:24:30Z</time>
      </trkpt>
      <trkpt lat="40.537000" lon="-5.202983">
        <ele>3089.0</ele>
        <time>2018-09-02T12:24:31Z</time>
      </trkpt>
      <trkpt lat="40.537067" lon="-5.202833">
        <ele>3091.0</ele>
        <time>2018-09-02T12:24:32Z</time>
      </trkpt>
      <trkpt lat="40.537150" lon="-5.202683">
        <ele>3094.0</ele>
        <time>2018-09-02T12:24:33Z</time>
      </trkpt>
      <trkpt lat="40.537250" lon="-5.202567">
        <ele>3096.0</ele>
        <time>2018-09-02T12:24:34Z</time>
      </trkpt>
      <trkpt lat="40.537367" lon="-5.202450">
        <ele>3098.0</ele>
        <time>2018-09-02T12:24:35Z</time>
      </trkpt>
      <trkpt lat="40.537467" lon="-5.202400">
        <ele>3099.0</ele>
        <time>2018-09-02T12:24:36Z</time>
      </trkpt>
      <trkpt lat="40.537567" lon="-5.202400">
        <ele>3099.0</ele>
        <time>2018-09-02T12:24:37Z</time>
      </trkpt>
      <trkpt lat="40.537633" lon="-5.202433">
        <ele>3098.0</ele>
        <time>2018-09-02T12:24:38Z</time>
      </trkpt>
      <trkpt lat="40.537683" lon="-5.202483">
        <ele>3097.0</ele>
        <time>2018-09-02T12:24:39Z</time>
      </trkpt>
      <trkpt lat="40.537683" lon="-5.202517">
        <ele>3097.0</ele>
        <time>2018-09-02T12:24:40Z</time>
      </trkpt>
      <trkpt lat="40.537650" lon="-5.202550">
        <ele>3097.0</ele>
        <time>2018-09-02T12:24:41Z</time>
      </trkpt>
      <trkpt lat="40.537617" lon="-5.202533">
        <ele>3097.0</ele>
        <time>2018-09-02T12:24:42Z</time>
      </trkpt>
      <trkpt lat="40.537550" lon="-5.202483">
        <ele>3098.0</ele>
        <time>2018-09-02T12:24:43Z</time>
      </trkpt>
      <trkpt lat="40.537500" lon="-5.202433">
        <ele>3098.0</ele>
        <time>2018-09-02T12:24:44Z</time>
      </trkpt>
      <trkpt lat="40.537450" lon="-5.202383">
        <ele>3098.0</ele>
        <time>2018-09-02T12:24:45Z</time>
      </trkpt>
      <trkpt lat="40.537400" lon="-5.202317">
        <ele>3099.0</ele>
        <time>2018-09-02T12:24:46Z</time>
      </trkpt>
      <trkpt lat="40.537333" lon="-5.202267">
        <ele>3100.0</ele>
        <time>2018-09-02T12:24:47Z</time>
      </trkpt>
      <trkpt lat="40.537283" lon="-5.202200">
        <ele>3100.0</ele>
        <time>2018-09-02T12:24:48Z</time>
      </trkpt>
      <trkpt lat="40.537233" lon="-5.202133">
        <ele>3102.0</ele>
        <time>2018-09-02T12:24:49Z</time>
      </trkpt>
      <trkpt lat="40.537183" lon="-5.202083">
        <ele>3103.0</ele>
        <time>2018-09-02T12:24:50Z</time>
      </trkpt>
      <trkpt lat="40.537150" lon="-5.202017">
        <ele>3105.0</ele>
        <time>2018-09-02T12:24:51Z</time>
      </trkpt>
      <trkpt lat="40.537117" lon="-5.201967">
        <ele>3106.0</ele>
        <time>2018-09-02T12:24:52Z</time>
      </trkpt>
      <trkpt lat="40.537083" lon="-5.201917">
        <ele>3108.0</ele>
        <time>2018-09-02T12:24:53Z</time>
      </trkpt>
      <trkpt lat="40.537050" lon="-5.201867">
        <ele>3108.0</ele>
        <time>2018-09-02T12:24:54Z</time>
      </trkpt>
      <trkpt lat="40.537017" lon="-5.201833">
        <ele>3108.0</ele>
        <time>2018-09-02T12:24:55Z</time>
      </trkpt>
      <trkpt lat="40.536983" lon="-5.201850">
        <ele>3107.0</ele>
        <time>2018-09-02T12:24:56Z</time>
      </trkpt>
      <trkpt lat="40.536967" lon="-5.201867">
        <ele>3107.0</ele>
        <time>2018-09-02T12:24:57Z</time>
      </trkpt>
      <trkpt lat="40.536967" lon="-5.201917">
        <ele>3107.0</ele>
        <time>2018-09-02T12:24:58Z</time>
      </trkpt>
      <trkpt lat="40.537017" lon="-5.201983">
        <ele>3107.0</ele>
        <time>2018-09-02T12:24:59Z</time>
      </trkpt>
      <trkpt lat="40.537100" lon="-5.202050">
        <ele>3105.0</ele>
        <time>2018-09-02T12:25:00Z</time>
      </trkpt>
      <trkpt lat="40.537200" lon="-5.202100">
        <ele>3104.0</ele>
        <time>2018-09-02T12:25:01Z</time>
      </trkpt>
      <trkpt lat="40.537317" lon="-5.202133">
        <ele>3104.0</ele>
        <time>2018-09-02T12:25:02Z</time>
      </trkpt>
      <trkpt lat="40.537433" lon="-5.202133">
        <ele>3104.0</ele>
        <time>2018-09-02T12:25:03Z</time>
      </trkpt>
      <trkpt lat="40.537550" lon="-5.202100">
        <ele>3106.0</ele>
        <time>2018-09-02T12:25:04Z</time>
      </trkpt>
      <trkpt lat="40.537667" lon="-5.202017">
        <ele>3106.0</ele>
        <time>2018-09-02T12:25:05Z</time>
      </trkpt>
      <trkpt lat="40.537800" lon="-5.201917">
        <ele>3107.0</ele>
        <time>2018-09-02T12:25:06Z</time>
      </trkpt>
      <trkpt lat="40.537900" lon="-5.201800">
        <ele>3108.0</ele>
        <time>2018-09-02T12:25:07Z</time>
      </trkpt>
      <trkpt lat="40.538000" lon="-5.201667">
        <ele>3109.0</ele>
        <time>2018-09-02T12:25:08Z</time>
      </trkpt>
      <trkpt lat="40.538117" lon="-5.201533">
        <ele>3110.0</ele>
        <time>2018-09-02T12:25:09Z</time>
      </trkpt>
      <trkpt lat="40.538200" lon="-5.201383">
        <ele>3112.0</ele>
        <time>2018-09-02T12:25:10Z</time>
      </trkpt>
      <trkpt lat="40.538283" lon="-5.201217">
        <ele>3113.0</ele>
        <time>2018-09-02T12:25:11Z</time>
      </trkpt>
      <trkpt lat="40.538367" lon="-5.201050">
        <ele>3114.0</ele>
        <time>2018-09-02T12:25:12Z</time>
      </trkpt>
      <trkpt lat="40.538417" lon="-5.200883">
        <ele>3115.0</ele>
        <time>2018-09-02T12:25:13Z</time>
      </trkpt>
      <trkpt lat="40.538450" lon="-5.200700">
        <ele>3115.0</ele>
        <time>2018-09-02T12:25:14Z</time>
      </trkpt>
      <trkpt lat="40.538467" lon="-5.200517">
        <ele>3115.0</ele>
        <time>2018-09-02T12:25:15Z</time>
      </trkpt>
      <trkpt lat="40.538467" lon="-5.200333">
        <ele>3115.0</ele>
        <time>2018-09-02T12:25:16Z</time>
      </trkpt>
      <trkpt lat="40.538450" lon="-5.200167">
        <ele>3115.0</ele>
        <time>2018-09-02T12:25:17Z</time>
      </trkpt>
      <trkpt lat="40.538417" lon="-5.200017">
        <ele>3114.0</ele>
        <time>2018-09-02T12:25:18Z</time>
      </trkpt>
      <trkpt lat="40.538350" lon="-5.199900">
        <ele>3114.0</ele>
        <time>2018-09-02T12:25:19Z</time>
      </trkpt>
      <trkpt lat="40.538283" lon="-5.199817">
        <ele>3113.0</ele>
        <time>2018-09-02T12:25:20Z</time>
      </trkpt>
      <trkpt lat="40.538200" lon="-5.199767">
        <ele>3112.0</ele>
        <time>2018-09-02T12:25:21Z</time>
      </trkpt>
      <trkpt lat="40.538150" lon="-5.199800">
        <ele>3111.0</ele>
        <time>2018-09-02T12:25:22Z</time>
      </trkpt>
      <trkpt lat="40.538117" lon="-5.199833">
        <ele>3110.0</ele>
        <time>2018-09-02T12:25:23Z</time>
      </trkpt>
      <trkpt lat="40.538083" lon="-5.199883">
        <ele>3110.0</ele>
        <time>2018-09-02T12:25:24Z</time>
      </trkpt>
      <trkpt lat="40.538050" lon="-5.199917">
        <ele>3110.0</ele>
        <time>2018-09-02T12:25:25Z</time>
      </trkpt>
      <trkpt lat="40.538033" lon="-5.199950">
        <ele>3111.0</ele>
        <time>2018-09-02T12:25:26Z</time>
      </trkpt>
      <trkpt lat="40.538000" lon="-5.199950">
        <ele>3111.0</ele>
        <time>2018-09-02T12:25:27Z</time>
      </trkpt>
      <trkpt lat="40.537983" lon="-5.199983">
        <ele>3112.0</ele>
        <time>2018-09-02T12:25:29Z</time>
      </trkpt>
      <trkpt lat="40.537967" lon="-5.200017">
        <ele>3112.0</ele>
        <time>2018-09-02T12:25:30Z</time>
      </trkpt>
      <trkpt lat="40.537933" lon="-5.200067">
        <ele>3111.0</ele>
        <time>2018-09-02T12:25:31Z</time>
      </trkpt>
      <trkpt lat="40.537900" lon="-5.200117">
        <ele>3111.0</ele>
        <time>2018-09-02T12:25:32Z</time>
      </trkpt>
      <trkpt lat="40.537883" lon="-5.200167">
        <ele>3111.0</ele>
        <time>2018-09-02T12:25:33Z</time>
      </trkpt>
      <trkpt lat="40.537867" lon="-5.200200">
        <ele>3112.0</ele>
        <time>2018-09-02T12:25:34Z</time>
      </trkpt>
      <trkpt lat="40.537850" lon="-5.200250">
        <ele>3113.0</ele>
        <time>2018-09-02T12:25:35Z</time>
      </trkpt>
      <trkpt lat="40.537833" lon="-5.200300">
        <ele>3113.0</ele>
        <time>2018-09-02T12:25:36Z</time>
      </trkpt>
      <trkpt lat="40.537817" lon="-5.200350">
        <ele>3112.0</ele>
        <time>2018-09-02T12:25:37Z</time>
      </trkpt>
      <trkpt lat="40.537783" lon="-5.200417">
        <ele>3112.0</ele>
        <time>2018-09-02T12:25:38Z</time>
      </trkpt>
      <trkpt lat="40.537767" lon="-5.200483">
        <ele>3112.0</ele>
        <time>2018-09-02T12:25:39Z</time>
      </trkpt>
      <trkpt lat="40.537733" lon="-5.200567">
        <ele>3112.0</ele>
        <time>2018-09-02T12:25:40Z</time>
      </trkpt>
      <trkpt lat="40.537700" lon="-5.200667">
        <ele>3114.0</ele>
        <time>2018-09-02T12:25:41Z</time>
      </trkpt>
      <trkpt lat="40.537683" lon="-5.200717">
        <ele>3117.0</ele>
        <time>2018-09-02T12:25:42Z</time>
      </trkpt>
      <trkpt lat="40.537667" lon="-5.200767">
        <ele>3120.0</ele>
        <time>2018-09-02T12:25:43Z</time>
      </trkpt>
      <trkpt lat="40.537667" lon="-5.200800">
        <ele>3123.0</ele>
        <time>2018-09-02T12:25:44Z</time>
      </trkpt>
      <trkpt lat="40.537650" lon="-5.200867">
        <ele>3124.0</ele>
        <time>2018-09-02T12:25:45Z</time>
      </trkpt>
      <trkpt lat="40.537633" lon="-5.200917">
        <ele>3125.0</ele>
        <time>2018-09-02T12:25:46Z</time>
      </trkpt>
      <trkpt lat="40.537617" lon="-5.201000">
        <ele>3125.0</ele>
        <time>2018-09-02T12:25:47Z</time>
      </trkpt>
      <trkpt lat="40.537600" lon="-5.201067">
        <ele>3125.0</ele>
        <time>2018-09-02T12:25:48Z</time>
      </trkpt>
      <trkpt lat="40.537583" lon="-5.201117">
        <ele>3127.0</ele>
        <time>2018-09-02T12:25:49Z</time>
      </trkpt>
      <trkpt lat="40.537567" lon="-5.201167">
        <ele>3128.0</ele>
        <time>2018-09-02T12:25:50Z</time>
      </trkpt>
      <trkpt lat="40.537550" lon="-5.201217">
        <ele>3130.0</ele>
        <time>2018-09-02T12:25:51Z</time>
      </trkpt>
      <trkpt lat="40.537533" lon="-5.201250">
        <ele>3132.0</ele>
        <time>2018-09-02T12:25:52Z</time>
      </trkpt>
      <trkpt lat="40.537517" lon="-5.201300">
        <ele>3133.0</ele>
        <time>2018-09-02T12:25:53Z</time>
      </trkpt>
      <trkpt lat="40.537500" lon="-5.201333">
        <ele>3136.0</ele>
        <time>2018-09-02T12:25:54Z</time>
      </trkpt>
      <trkpt lat="40.537450" lon="-5.201367">
        <ele>3137.0</ele>
        <time>2018-09-02T12:25:55Z</time>
      </trkpt>
      <trkpt lat="40.537400" lon="-5.201383">
        <ele>3139.0</ele>
        <time>2018-09-02T12:25:56Z</time>
      </trkpt>
      <trkpt lat="40.537367" lon="-5.201383">
        <ele>3141.0</ele>
        <time>2018-09-02T12:25:57Z</time>
      </trkpt>
      <trkpt lat="40.537317" lon="-5.201400">
        <ele>3143.0</ele>
        <time>2018-09-02T12:25:58Z</time>
      </trkpt>
      <trkpt lat="40.537283" lon="-5.201433">
        <ele>3145.0</ele>
        <time>2018-09-02T12:25:59Z</time>
      </trkpt>
      <trkpt lat="40.537233" lon="-5.201483">
        <ele>3145.0</ele>
        <time>2018-09-02T12:26:00Z</time>
      </trkpt>
      <trkpt lat="40.537217" lon="-5.201533">
        <ele>3146.0</ele>
        <time>2018-09-02T12:26:01Z</time>
      </trkpt>
      <trkpt lat="40.537217" lon="-5.201600">
        <ele>3146.0</ele>
        <time>2018-09-02T12:26:02Z</time>
      </trkpt>
      <trkpt lat="40.537250" lon="-5.201667">
        <ele>3146.0</ele>
        <time>2018-09-02T12:26:03Z</time>
      </trkpt>
      <trkpt lat="40.537333" lon="-5.201717">
        <ele>3146.0</ele>
        <time>2018-09-02T12:26:04Z</time>
      </trkpt>
      <trkpt lat="40.537450" lon="-5.201733">
        <ele>3146.0</ele>
        <time>2018-09-02T12:26:05Z</time>
      </trkpt>
      <trkpt lat="40.537567" lon="-5.201717">
        <ele>3146.0</ele>
        <time>2018-09-02T12:26:06Z</time>
      </trkpt>
      <trkpt lat="40.537700" lon="-5.201633">
        <ele>3147.0</ele>
        <time>2018-09-02T12:26:07Z</time>
      </trkpt>
      <trkpt lat="40.537817" lon="-5.201517">
        <ele>3147.0</ele>
        <time>2018-09-02T12:26:08Z</time>
      </trkpt>
      <trkpt lat="40.537900" lon="-5.201350">
        <ele>3147.0</ele>
        <time>2018-09-02T12:26:09Z</time>
      </trkpt>
      <trkpt lat="40.537950" lon="-5.201167">
        <ele>3148.0</ele>
        <time>2018-09-02T12:26:10Z</time>
      </trkpt>
      <trkpt lat="40.537967" lon="-5.201000">
        <ele>3149.0</ele>
        <time>2018-09-02T12:26:11Z</time>
      </trkpt>
      <trkpt lat="40.537950" lon="-5.200833">
        <ele>3151.0</ele>
        <time>2018-09-02T12:26:12Z</time>
      </trkpt>
      <trkpt lat="40.537900" lon="-5.200717">
        <ele>3152.0</ele>
        <time>2018-09-02T12:26:13Z</time>
      </trkpt>
      <trkpt lat="40.537850" lon="-5.200617">
        <ele>3152.0</ele>
        <time>2018-09-02T12:26:14Z</time>
      </trkpt>
      <trkpt lat="40.537783" lon="-5.200567">
        <ele>3153.0</ele>
        <time>2018-09-02T12:26:15Z</time>
      </trkpt>
      <trkpt lat="40.537717" lon="-5.200567">
        <ele>3154.0</ele>
        <time>2018-09-02T12:26:16Z</time>
      </trkpt>
      <trkpt lat="40.537700" lon="-5.200617">
        <ele>3155.0</ele>
        <time>2018-09-02T12:26:17Z</time>
      </trkpt>
      <trkpt lat="40.537717" lon="-5.200683">
        <ele>3155.0</ele>
        <time>2018-09-02T12:26:18Z</time>
      </trkpt>
      <trkpt lat="40.537767" lon="-5.200750">
        <ele>3154.0</ele>
        <time>2018-09-02T12:26:19Z</time>
      </trkpt>
      <trkpt lat="40.537833" lon="-5.200817">
        <ele>3155.0</ele>
        <time>2018-09-02T12:26:20Z</time>
      </trkpt>
      <trkpt lat="40.537933" lon="-5.200850">
        <ele>3156.0</ele>
        <time>2018-09-02T12:26:21Z</time>
      </trkpt>
      <trkpt lat="40.538033" lon="-5.200867">
        <ele>3158.0</ele>
        <time>2018-09-02T12:26:22Z</time>
      </trkpt>
      <trkpt lat="40.538150" lon="-5.200850">
        <ele>3159.0</ele>
        <time>2018-09-02T12:26:23Z</time>
      </trkpt>
      <trkpt lat="40.538283" lon="-5.200817">
        <ele>3159.0</ele>
        <time>2018-09-02T12:26:24Z</time>
      </trkpt>
      <trkpt lat="40.538417" lon="-5.200767">
        <ele>3161.0</ele>
        <time>2018-09-02T12:26:25Z</time>
      </trkpt>
      <trkpt lat="40.538550" lon="-5.200683">
        <ele>3163.0</ele>
        <time>2018-09-02T12:26:26Z</time>
      </trkpt>
      <trkpt lat="40.538667" lon="-5.200567">
        <ele>3165.0</ele>
        <time>2018-09-02T12:26:27Z</time>
      </trkpt>
      <trkpt lat="40.538783" lon="-5.200450">
        <ele>3168.0</ele>
        <time>2018-09-02T12:26:28Z</time>
      </trkpt>
      <trkpt lat="40.538883" lon="-5.200317">
        <ele>3170.0</ele>
        <time>2018-09-02T12:26:29Z</time>
      </trkpt>
      <trkpt lat="40.538983" lon="-5.200183">
        <ele>3172.0</ele>
        <time>2018-09-02T12:26:30Z</time>
      </trkpt>
      <trkpt lat="40.539083" lon="-5.200017">
        <ele>3173.0</ele>
        <time>2018-09-02T12:26:31Z</time>
      </trkpt>
      <trkpt lat="40.539150" lon="-5.199833">
        <ele>3174.0</ele>
        <time>2018-09-02T12:26:32Z</time>
      </trkpt>
      <trkpt lat="40.539183" lon="-5.199617">
        <ele>3175.0</ele>
        <time>2018-09-02T12:26:33Z</time>
      </trkpt>
      <trkpt lat="40.539167" lon="-5.199417">
        <ele>3175.0</ele>
        <time>2018-09-02T12:26:34Z</time>
      </trkpt>
      <trkpt lat="40.539133" lon="-5.199250">
        <ele>3175.0</ele>
        <time>2018-09-02T12:26:35Z</time>
      </trkpt>
      <trkpt lat="40.539067" lon="-5.199117">
        <ele>3176.0</ele>
        <time>2018-09-02T12:26:36Z</time>
      </trkpt>
      <trkpt lat="40.538983" lon="-5.199033">
        <ele>3176.0</ele>
        <time>2018-09-02T12:26:37Z</time>
      </trkpt>
      <trkpt lat="40.538900" lon="-5.199000">
        <ele>3177.0</ele>
        <time>2018-09-02T12:26:38Z</time>
      </trkpt>
      <trkpt lat="40.538850" lon="-5.199000">
        <ele>3179.0</ele>
        <time>2018-09-02T12:26:39Z</time>
      </trkpt>
      <trkpt lat="40.538800" lon="-5.198983">
        <ele>3182.0</ele>
        <time>2018-09-02T12:26:40Z</time>
      </trkpt>
      <trkpt lat="40.538750" lon="-5.198983">
        <ele>3184.0</ele>
        <time>2018-09-02T12:26:41Z</time>
      </trkpt>
      <trkpt lat="40.538717" lon="-5.198983">
        <ele>3185.0</ele>
        <time>2018-09-02T12:26:42Z</time>
      </trkpt>
      <trkpt lat="40.538683" lon="-5.199000">
        <ele>3186.0</ele>
        <time>2018-09-02T12:26:43Z</time>
      </trkpt>
      <trkpt lat="40.538667" lon="-5.199050">
        <ele>3187.0</ele>
        <time>2018-09-02T12:26:44Z</time>
      </trkpt>
      <trkpt lat="40.538683" lon="-5.199100">
        <ele>3187.0</ele>
        <time>2018-09-02T12:26:45Z</time>
      </trkpt>
      <trkpt lat="40.538733" lon="-5.199167">
        <ele>3186.0</ele>
        <time>2018-09-02T12:26:46Z</time>
      </trkpt>
      <trkpt lat="40.538833" lon="-5.199200">
        <ele>3186.0</ele>
        <time>2018-09-02T12:26:47Z</time>
      </trkpt>
      <trkpt lat="40.538950" lon="-5.199183">
        <ele>3187.0</ele>
        <time>2018-09-02T12:26:48Z</time>
      </trkpt>
      <trkpt lat="40.539067" lon="-5.199133">
        <ele>3188.0</ele>
        <time>2018-09-02T12:26:49Z</time>
      </trkpt>
      <trkpt lat="40.539167" lon="-5.199050">
        <ele>3189.0</ele>
        <time>2018-09-02T12:26:50Z</time>
      </trkpt>
      <trkpt lat="40.539283" lon="-5.198933">
        <ele>3189.0</ele>
        <time>2018-09-02T12:26:51Z</time>
      </trkpt>
      <trkpt lat="40.539367" lon="-5.198800">
        <ele>3190.0</ele>
        <time>2018-09-02T12:26:52Z</time>
      </trkpt>
      <trkpt lat="40.539450" lon="-5.198650">
        <ele>3191.0</ele>
        <time>2018-09-02T12:26:53Z</time>
      </trkpt>
      <trkpt lat="40.539500" lon="-5.198483">
        <ele>3192.0</ele>
        <time>2018-09-02T12:26:54Z</time>
      </trkpt>
      <trkpt lat="40.539533" lon="-5.198317">
        <ele>3193.0</ele>
        <time>2018-09-02T12:26:55Z</time>
      </trkpt>
      <trkpt lat="40.539517" lon="-5.198150">
        <ele>3194.0</ele>
        <time>2018-09-02T12:26:56Z</time>
      </trkpt>
      <trkpt lat="40.539483" lon="-5.198000">
        <ele>3195.0</ele>
        <time>2018-09-02T12:26:57Z</time>
      </trkpt>
      <trkpt lat="40.539433" lon="-5.197883">
        <ele>3196.0</ele>
        <time>2018-09-02T12:26:58Z</time>
      </trkpt>
      <trkpt lat="40.539367" lon="-5.197817">
        <ele>3197.0</ele>
        <time>2018-09-02T12:26:59Z</time>
      </trkpt>
      <trkpt lat="40.539300" lon="-5.197767">
        <ele>3198.0</ele>
        <time>2018-09-02T12:27:00Z</time>
      </trkpt>
      <trkpt lat="40.539233" lon="-5.197767">
        <ele>3199.0</ele>
        <time>2018-09-02T12:27:01Z</time>
      </trkpt>
      <trkpt lat="40.539183" lon="-5.197783">
        <ele>3201.0</ele>
        <time>2018-09-02T12:27:02Z</time>
      </trkpt>
      <trkpt lat="40.539167" lon="-5.197833">
        <ele>3201.0</ele>
        <time>2018-09-02T12:27:03Z</time>
      </trkpt>
      <trkpt lat="40.539167" lon="-5.197867">
        <ele>3202.0</ele>
        <time>2018-09-02T12:27:04Z</time>
      </trkpt>
      <trkpt lat="40.539183" lon="-5.197933">
        <ele>3203.0</ele>
        <time>2018-09-02T12:27:05Z</time>
      </trkpt>
      <trkpt lat="40.539217" lon="-5.197983">
        <ele>3202.0</ele>
        <time>2018-09-02T12:27:06Z</time>
      </trkpt>
      <trkpt lat="40.539267" lon="-5.198050">
        <ele>3203.0</ele>
        <time>2018-09-02T12:27:07Z</time>
      </trkpt>
      <trkpt lat="40.539333" lon="-5.198117">
        <ele>3203.0</ele>
        <time>2018-09-02T12:27:08Z</time>
      </trkpt>
      <trkpt lat="40.539433" lon="-5.198150">
        <ele>3203.0</ele>
        <time>2018-09-02T12:27:09Z</time>
      </trkpt>
      <trkpt lat="40.539550" lon="-5.198167">
        <ele>3204.0</ele>
        <time>2018-09-02T12:27:10Z</time>
      </trkpt>
      <trkpt lat="40.539767" lon="-5.198067">
        <ele>3206.0</ele>
        <time>2018-09-02T12:27:12Z</time>
      </trkpt>
      <trkpt lat="40.539883" lon="-5.197950">
        <ele>3206.0</ele>
        <time>2018-09-02T12:27:13Z</time>
      </trkpt>
      <trkpt lat="40.539967" lon="-5.197800">
        <ele>3207.0</ele>
        <time>2018-09-02T12:27:14Z</time>
      </trkpt>
      <trkpt lat="40.540050" lon="-5.197650">
        <ele>3207.0</ele>
        <time>2018-09-02T12:27:15Z</time>
      </trkpt>
      <trkpt lat="40.540083" lon="-5.197467">
        <ele>3208.0</ele>
        <time>2018-09-02T12:27:16Z</time>
      </trkpt>
      <trkpt lat="40.540100" lon="-5.197300">
        <ele>3209.0</ele>
        <time>2018-09-02T12:27:17Z</time>
      </trkpt>
      <trkpt lat="40.540100" lon="-5.197117">
        <ele>3210.0</ele>
        <time>2018-09-02T12:27:18Z</time>
      </trkpt>
      <trkpt lat="40.540083" lon="-5.196950">
        <ele>3210.0</ele>
        <time>2018-09-02T12:27:19Z</time>
      </trkpt>
      <trkpt lat="40.540050" lon="-5.196817">
        <ele>3212.0</ele>
        <time>2018-09-02T12:27:20Z</time>
      </trkpt>
      <trkpt lat="40.539983" lon="-5.196683">
        <ele>3212.0</ele>
        <time>2018-09-02T12:27:21Z</time>
      </trkpt>
      <trkpt lat="40.539933" lon="-5.196583">
        <ele>3213.0</ele>
        <time>2018-09-02T12:27:22Z</time>
      </trkpt>
      <trkpt lat="40.539850" lon="-5.196517">
        <ele>3214.0</ele>
        <time>2018-09-02T12:27:23Z</time>
      </trkpt>
      <trkpt lat="40.539783" lon="-5.196517">
        <ele>3215.0</ele>
        <time>2018-09-02T12:27:24Z</time>
      </trkpt>
      <trkpt lat="40.539750" lon="-5.196567">
        <ele>3215.0</ele>
        <time>2018-09-02T12:27:25Z</time>
      </trkpt>
      <trkpt lat="40.539733" lon="-5.196633">
        <ele>3215.0</ele>
        <time>2018-09-02T12:27:26Z</time>
      </trkpt>
      <trkpt lat="40.539733" lon="-5.196683">
        <ele>3216.0</ele>
        <time>2018-09-02T12:27:27Z</time>
      </trkpt>
      <trkpt lat="40.539767" lon="-5.196750">
        <ele>3216.0</ele>
        <time>2018-09-02T12:27:28Z</time>
      </trkpt>
      <trkpt lat="40.539817" lon="-5.196800">
        <ele>3217.0</ele>
        <time>2018-09-02T12:27:29Z</time>
      </trkpt>
      <trkpt lat="40.539867" lon="-5.196850">
        <ele>3217.0</ele>
        <time>2018-09-02T12:27:30Z</time>
      </trkpt>
      <trkpt lat="40.539950" lon="-5.196900">
        <ele>3217.0</ele>
        <time>2018-09-02T12:27:31Z</time>
      </trkpt>
      <trkpt lat="40.540017" lon="-5.196933">
        <ele>3217.0</ele>
        <time>2018-09-02T12:27:32Z</time>
      </trkpt>
      <trkpt lat="40.540117" lon="-5.196967">
        <ele>3218.0</ele>
        <time>2018-09-02T12:27:33Z</time>
      </trkpt>
      <trkpt lat="40.540217" lon="-5.196967">
        <ele>3218.0</ele>
        <time>2018-09-02T12:27:34Z</time>
      </trkpt>
      <trkpt lat="40.540317" lon="-5.196950">
        <ele>3219.0</ele>
        <time>2018-09-02T12:27:35Z</time>
      </trkpt>
      <trkpt lat="40.540417" lon="-5.196950">
        <ele>3219.0</ele>
        <time>2018-09-02T12:27:36Z</time>
      </trkpt>
      <trkpt lat="40.540533" lon="-5.196933">
        <ele>3219.0</ele>
        <time>2018-09-02T12:27:37Z</time>
      </trkpt>
      <trkpt lat="40.540650" lon="-5.196917">
        <ele>3219.0</ele>
        <time>2018-09-02T12:27:38Z</time>
      </trkpt>
      <trkpt lat="40.540783" lon="-5.196883">
        <ele>3219.0</ele>
        <time>2018-09-02T12:27:39Z</time>
      </trkpt>
      <trkpt lat="40.540917" lon="-5.196850">
        <ele>3219.0</ele>
        <time>2018-09-02T12:27:40Z</time>
      </trkpt>
      <trkpt lat="40.541050" lon="-5.196783">
        <ele>3219.0</ele>
        <time>2018-09-02T12:27:41Z</time>
      </trkpt>
      <trkpt lat="40.541183" lon="-5.196717">
        <ele>3220.0</ele>
        <time>2018-09-02T12:27:42Z</time>
      </trkpt>
      <trkpt lat="40.541317" lon="-5.196650">
        <ele>3220.0</ele>
        <time>2018-09-02T12:27:43Z</time>
      </trkpt>
      <trkpt lat="40.541450" lon="-5.196583">
        <ele>3220.0</ele>
        <time>2018-09-02T12:27:44Z</time>
      </trkpt>
      <trkpt lat="40.541600" lon="-5.196500">
        <ele>3220.0</ele>
        <time>2018-09-02T12:27:45Z</time>
      </trkpt>
      <trkpt lat="40.541733" lon="-5.196433">
        <ele>3220.0</ele>
        <time>2018-09-02T12:27:46Z</time>
      </trkpt>
      <trkpt lat="40.541883" lon="-5.196350">
        <ele>3220.0</ele>
        <time>2018-09-02T12:27:47Z</time>
      </trkpt>
      <trkpt lat="40.542150" lon="-5.196200">
        <ele>3223.0</ele>
        <time>2018-09-02T12:27:49Z</time>
      </trkpt>
      <trkpt lat="40.542300" lon="-5.196133">
        <ele>3224.0</ele>
        <time>2018-09-02T12:27:50Z</time>
      </trkpt>
      <trkpt lat="40.542433" lon="-5.196067">
        <ele>3226.0</ele>
        <time>2018-09-02T12:27:51Z</time>
      </trkpt>
      <trkpt lat="40.542567" lon="-5.196000">
        <ele>3228.0</ele>
        <time>2018-09-02T12:27:52Z</time>
      </trkpt>
      <trkpt lat="40.542683" lon="-5.195917">
        <ele>3231.0</ele>
        <time>2018-09-02T12:27:53Z</time>
      </trkpt>
      <trkpt lat="40.542783" lon="-5.195833">
        <ele>3233.0</ele>
        <time>2018-09-02T12:27:54Z</time>
      </trkpt>
      <trkpt lat="40.542900" lon="-5.195767">
        <ele>3233.0</ele>
        <time>2018-09-02T12:27:55Z</time>
      </trkpt>
      <trkpt lat="40.543033" lon="-5.195700">
        <ele>3234.0</ele>
        <time>2018-09-02T12:27:56Z</time>
      </trkpt>
      <trkpt lat="40.543167" lon="-5.195617">
        <ele>3233.0</ele>
        <time>2018-09-02T12:27:57Z</time>
      </trkpt>
      <trkpt lat="40.543300" lon="-5.195550">
        <ele>3233.0</ele>
        <time>2018-09-02T12:27:58Z</time>
      </trkpt>
      <trkpt lat="40.543433" lon="-5.195500">
        <ele>3232.0</ele>
        <time>2018-09-02T12:27:59Z</time>
      </trkpt>
      <trkpt lat="40.543567" lon="-5.195450">
        <ele>3231.0</ele>
        <time>2018-09-02T12:28:00Z</time>
      </trkpt>
      <trkpt lat="40.543800" lon="-5.195317">
        <ele>3229.0</ele>
        <time>2018-09-02T12:28:02Z</time>
      </trkpt>
      <trkpt lat="40.543917" lon="-5.195233">
        <ele>3226.0</ele>
        <time>2018-09-02T12:28:03Z</time>
      </trkpt>
      <trkpt lat="40.544050" lon="-5.195150">
        <ele>3222.0</ele>
        <time>2018-09-02T12:28:04Z</time>
      </trkpt>
      <trkpt lat="40.544167" lon="-5.195067">
        <ele>3219.0</ele>
        <time>2018-09-02T12:28:05Z</time>
      </trkpt>
      <trkpt lat="40.544300" lon="-5.195000">
        <ele>3214.0</ele>
        <time>2018-09-02T12:28:06Z</time>
      </trkpt>
      <trkpt lat="40.544550" lon="-5.194800">
        <ele>3209.0</ele>
        <time>2018-09-02T12:28:08Z</time>
      </trkpt>
      <trkpt lat="40.544650" lon="-5.194667">
        <ele>3206.0</ele>
        <time>2018-09-02T12:28:09Z</time>
      </trkpt>
      <trkpt lat="40.544750" lon="-5.194567">
        <ele>3203.0</ele>
        <time>2018-09-02T12:28:10Z</time>
      </trkpt>
      <trkpt lat="40.544850" lon="-5.194467">
        <ele>3201.0</ele>
        <time>2018-09-02T12:28:11Z</time>
      </trkpt>
      <trkpt lat="40.544967" lon="-5.194367">
        <ele>3199.0</ele>
        <time>2018-09-02T12:28:12Z</time>
      </trkpt>
      <trkpt lat="40.545100" lon="-5.194250">
        <ele>3196.0</ele>
        <time>2018-09-02T12:28:13Z</time>
      </trkpt>
      <trkpt lat="40.545217" lon="-5.194133">
        <ele>3194.0</ele>
        <time>2018-09-02T12:28:14Z</time>
      </trkpt>
      <trkpt lat="40.545333" lon="-5.194033">
        <ele>3192.0</ele>
        <time>2018-09-02T12:28:15Z</time>
      </trkpt>
      <trkpt lat="40.545450" lon="-5.193933">
        <ele>3190.0</ele>
        <time>2018-09-02T12:28:16Z</time>
      </trkpt>
      <trkpt lat="40.545550" lon="-5.193833">
        <ele>3189.0</ele>
        <time>2018-09-02T12:28:17Z</time>
      </trkpt>
      <trkpt lat="40.545683" lon="-5.193733">
        <ele>3187.0</ele>
        <time>2018-09-02T12:28:18Z</time>
      </trkpt>
      <trkpt lat="40.545800" lon="-5.193617">
        <ele>3184.0</ele>
        <time>2018-09-02T12:28:19Z</time>
      </trkpt>
      <trkpt lat="40.545933" lon="-5.193517">
        <ele>3181.0</ele>
        <time>2018-09-02T12:28:20Z</time>
      </trkpt>
      <trkpt lat="40.546067" lon="-5.193400">
        <ele>3179.0</ele>
        <time>2018-09-02T12:28:21Z</time>
      </trkpt>
      <trkpt lat="40.546183" lon="-5.193300">
        <ele>3176.0</ele>
        <time>2018-09-02T12:28:22Z</time>
      </trkpt>
      <trkpt lat="40.546300" lon="-5.193200">
        <ele>3174.0</ele>
        <time>2018-09-02T12:28:23Z</time>
      </trkpt>
      <trkpt lat="40.546417" lon="-5.193117">
        <ele>3172.0</ele>
        <time>2018-09-02T12:28:24Z</time>
      </trkpt>
      <trkpt lat="40.546750" lon="-5.192717">
        <ele>3164.0</ele>
        <time>2018-09-02T12:28:27Z</time>
      </trkpt>
      <trkpt lat="40.546850" lon="-5.192567">
        <ele>3162.0</ele>
        <time>2018-09-02T12:28:28Z</time>
      </trkpt>
      <trkpt lat="40.546967" lon="-5.192433">
        <ele>3160.0</ele>
        <time>2018-09-02T12:28:29Z</time>
      </trkpt>
      <trkpt lat="40.547067" lon="-5.192333">
        <ele>3159.0</ele>
        <time>2018-09-02T12:28:30Z</time>
      </trkpt>
      <trkpt lat="40.547183" lon="-5.192217">
        <ele>3157.0</ele>
        <time>2018-09-02T12:28:31Z</time>
      </trkpt>
      <trkpt lat="40.547300" lon="-5.192117">
        <ele>3155.0</ele>
        <time>2018-09-02T12:28:32Z</time>
      </trkpt>
      <trkpt lat="40.547417" lon="-5.192017">
        <ele>3153.0</ele>
        <time>2018-09-02T12:28:33Z</time>
      </trkpt>
      <trkpt lat="40.547533" lon="-5.191967">
        <ele>3152.0</ele>
        <time>2018-09-02T12:28:34Z</time>
      </trkpt>
      <trkpt lat="40.547633" lon="-5.191950">
        <ele>3150.0</ele>
        <time>2018-09-02T12:28:35Z</time>
      </trkpt>
      <trkpt lat="40.547733" lon="-5.191950">
        <ele>3148.0</ele>
        <time>2018-09-02T12:28:36Z</time>
      </trkpt>
      <trkpt lat="40.547833" lon="-5.191950">
        <ele>3146.0</ele>
        <time>2018-09-02T12:28:37Z</time>
      </trkpt>
      <trkpt lat="40.547917" lon="-5.191950">
        <ele>3145.0</ele>
        <time>2018-09-02T12:28:38Z</time>
      </trkpt>
      <trkpt lat="40.548000" lon="-5.191950">
        <ele>3144.0</ele>
        <time>2018-09-02T12:28:39Z</time>
      </trkpt>
      <trkpt lat="40.548083" lon="-5.191933">
        <ele>3142.0</ele>
        <time>2018-09-02T12:28:40Z</time>
      </trkpt>
      <trkpt lat="40.548183" lon="-5.191917">
        <ele>3141.0</ele>
        <time>2018-09-02T12:28:41Z</time>
      </trkpt>
      <trkpt lat="40.548267" lon="-5.191883">
        <ele>3139.0</ele>
        <time>2018-09-02T12:28:42Z</time>
      </trkpt>
      <trkpt lat="40.548367" lon="-5.191883">
        <ele>3136.0</ele>
        <time>2018-09-02T12:28:43Z</time>
      </trkpt>
      <trkpt lat="40.548483" lon="-5.191883">
        <ele>3132.0</ele>
        <time>2018-09-02T12:28:44Z</time>
      </trkpt>
      <trkpt lat="40.548617" lon="-5.191850">
        <ele>3128.0</ele>
        <time>2018-09-02T12:28:45Z</time>
      </trkpt>
      <trkpt lat="40.548750" lon="-5.191783">
        <ele>3125.0</ele>
        <time>2018-09-02T12:28:46Z</time>
      </trkpt>
      <trkpt lat="40.548883" lon="-5.191683">
        <ele>3122.0</ele>
        <time>2018-09-02T12:28:47Z</time>
      </trkpt>
      <trkpt lat="40.549017" lon="-5.191550">
        <ele>3120.0</ele>
        <time>2018-09-02T12:28:48Z</time>
      </trkpt>
      <trkpt lat="40.549117" lon="-5.191417">
        <ele>3117.0</ele>
        <time>2018-09-02T12:28:49Z</time>
      </trkpt>
      <trkpt lat="40.549233" lon="-5.191283">
        <ele>3114.0</ele>
        <time>2018-09-02T12:28:50Z</time>
      </trkpt>
      <trkpt lat="40.549333" lon="-5.191150">
        <ele>3111.0</ele>
        <time>2018-09-02T12:28:51Z</time>
      </trkpt>
      <trkpt lat="40.549433" lon="-5.191017">
        <ele>3107.0</ele>
        <time>2018-09-02T12:28:52Z</time>
      </trkpt>
      <trkpt lat="40.549550" lon="-5.190850">
        <ele>3104.0</ele>
        <time>2018-09-02T12:28:53Z</time>
      </trkpt>
      <trkpt lat="40.549667" lon="-5.190700">
        <ele>3100.0</ele>
        <time>2018-09-02T12:28:54Z</time>
      </trkpt>
      <trkpt lat="40.549800" lon="-5.190533">
        <ele>3096.0</ele>
        <time>2018-09-02T12:28:55Z</time>
      </trkpt>
      <trkpt lat="40.549950" lon="-5.190400">
        <ele>3091.0</ele>
        <time>2018-09-02T12:28:56Z</time>
      </trkpt>
      <trkpt lat="40.550083" lon="-5.190267">
        <ele>3090.0</ele>
        <time>2018-09-02T12:28:57Z</time>
      </trkpt>
      <trkpt lat="40.550217" lon="-5.190167">
        <ele>3088.0</ele>
        <time>2018-09-02T12:28:58Z</time>
      </trkpt>
      <trkpt lat="40.550333" lon="-5.190033">
        <ele>3085.0</ele>
        <time>2018-09-02T12:28:59Z</time>
      </trkpt>
      <trkpt lat="40.550433" lon="-5.189900">
        <ele>3083.0</ele>
        <time>2018-09-02T12:29:00Z</time>
      </trkpt>
      <trkpt lat="40.550550" lon="-5.189767">
        <ele>3080.0</ele>
        <time>2018-09-02T12:29:01Z</time>
      </trkpt>
      <trkpt lat="40.550667" lon="-5.189617">
        <ele>3077.0</ele>
        <time>2018-09-02T12:29:02Z</time>
      </trkpt>
      <trkpt lat="40.550800" lon="-5.189467">
        <ele>3074.0</ele>
        <time>2018-09-02T12:29:03Z</time>
      </trkpt>
      <trkpt lat="40.550933" lon="-5.189333">
        <ele>3071.0</ele>
        <time>2018-09-02T12:29:04Z</time>
      </trkpt>
      <trkpt lat="40.551067" lon="-5.189200">
        <ele>3068.0</ele>
        <time>2018-09-02T12:29:05Z</time>
      </trkpt>
      <trkpt lat="40.551167" lon="-5.189067">
        <ele>3066.0</ele>
        <time>2018-09-02T12:29:06Z</time>
      </trkpt>
      <trkpt lat="40.551283" lon="-5.188933">
        <ele>3064.0</ele>
        <time>2018-09-02T12:29:07Z</time>
      </trkpt>
      <trkpt lat="40.551417" lon="-5.188817">
        <ele>3061.0</ele>
        <time>2018-09-02T12:29:08Z</time>
      </trkpt>
      <trkpt lat="40.551533" lon="-5.188667">
        <ele>3058.0</ele>
        <time>2018-09-02T12:29:09Z</time>
      </trkpt>
      <trkpt lat="40.551667" lon="-5.188533">
        <ele>3055.0</ele>
        <time>2018-09-02T12:29:10Z</time>
      </trkpt>
      <trkpt lat="40.551783" lon="-5.188400">
        <ele>3053.0</ele>
        <time>2018-09-02T12:29:11Z</time>
      </trkpt>
      <trkpt lat="40.551917" lon="-5.188267">
        <ele>3050.0</ele>
        <time>2018-09-02T12:29:12Z</time>
      </trkpt>
      <trkpt lat="40.552050" lon="-5.188150">
        <ele>3049.0</ele>
        <time>2018-09-02T12:29:13Z</time>
      </trkpt>
      <trkpt lat="40.552167" lon="-5.188033">
        <ele>3048.0</ele>
        <time>2018-09-02T12:29:14Z</time>
      </trkpt>
      <trkpt lat="40.552300" lon="-5.187917">
        <ele>3046.0</ele>
        <time>2018-09-02T12:29:15Z</time>
      </trkpt>
      <trkpt lat="40.552433" lon="-5.187800">
        <ele>3044.0</ele>
        <time>2018-09-02T12:29:16Z</time>
      </trkpt>
      <trkpt lat="40.552567" lon="-5.187683">
        <ele>3043.0</ele>
        <time>2018-09-02T12:29:17Z</time>
      </trkpt>
      <trkpt lat="40.552700" lon="-5.187567">
        <ele>3042.0</ele>
        <time>2018-09-02T12:29:18Z</time>
      </trkpt>
      <trkpt lat="40.552850" lon="-5.187450">
        <ele>3041.0</ele>
        <time>2018-09-02T12:29:19Z</time>
      </trkpt>
      <trkpt lat="40.552983" lon="-5.187333">
        <ele>3039.0</ele>
        <time>2018-09-02T12:29:20Z</time>
      </trkpt>
      <trkpt lat="40.553117" lon="-5.187217">
        <ele>3037.0</ele>
        <time>2018-09-02T12:29:21Z</time>
      </trkpt>
      <trkpt lat="40.553250" lon="-5.187083">
        <ele>3035.0</ele>
        <time>2018-09-02T12:29:22Z</time>
      </trkpt>
      <trkpt lat="40.553383" lon="-5.186950">
        <ele>3033.0</ele>
        <time>2018-09-02T12:29:23Z</time>
      </trkpt>
      <trkpt lat="40.553533" lon="-5.186817">
        <ele>3031.0</ele>
        <time>2018-09-02T12:29:24Z</time>
      </trkpt>
      <trkpt lat="40.553667" lon="-5.186700">
        <ele>3029.0</ele>
        <time>2018-09-02T12:29:25Z</time>
      </trkpt>
      <trkpt lat="40.553783" lon="-5.186567">
        <ele>3028.0</ele>
        <time>2018-09-02T12:29:26Z</time>
      </trkpt>
      <trkpt lat="40.553900" lon="-5.186450">
        <ele>3026.0</ele>
        <time>2018-09-02T12:29:27Z</time>
      </trkpt>
      <trkpt lat="40.554033" lon="-5.186333">
        <ele>3024.0</ele>
        <time>2018-09-02T12:29:28Z</time>
      </trkpt>
      <trkpt lat="40.554167" lon="-5.186200">
        <ele>3022.0</ele>
        <time>2018-09-02T12:29:29Z</time>
      </trkpt>
      <trkpt lat="40.554300" lon="-5.186067">
        <ele>3020.0</ele>
        <time>2018-09-02T12:29:30Z</time>
      </trkpt>
      <trkpt lat="40.554433" lon="-5.185933">
        <ele>3018.0</ele>
        <time>2018-09-02T12:29:31Z</time>
      </trkpt>
      <trkpt lat="40.554550" lon="-5.185783">
        <ele>3016.0</ele>
        <time>2018-09-02T12:29:32Z</time>
      </trkpt>
      <trkpt lat="40.554650" lon="-5.185633">
        <ele>3014.0</ele>
        <time>2018-09-02T12:29:33Z</time>
      </trkpt>
      <trkpt lat="40.554883" lon="-5.185333">
        <ele>3008.0</ele>
        <time>2018-09-02T12:29:35Z</time>
      </trkpt>
      <trkpt lat="40.555000" lon="-5.185183">
        <ele>3006.0</ele>
        <time>2018-09-02T12:29:36Z</time>
      </trkpt>
      <trkpt lat="40.555117" lon="-5.185050">
        <ele>3002.0</ele>
        <time>2018-09-02T12:29:37Z</time>
      </trkpt>
      <trkpt lat="40.555250" lon="-5.184917">
        <ele>2999.0</ele>
        <time>2018-09-02T12:29:38Z</time>
      </trkpt>
      <trkpt lat="40.555367" lon="-5.184850">
        <ele>2997.0</ele>
        <time>2018-09-02T12:29:39Z</time>
      </trkpt>
      <trkpt lat="40.555483" lon="-5.184833">
        <ele>2995.0</ele>
        <time>2018-09-02T12:29:40Z</time>
      </trkpt>
      <trkpt lat="40.555583" lon="-5.184850">
        <ele>2989.0</ele>
        <time>2018-09-02T12:29:41Z</time>
      </trkpt>
      <trkpt lat="40.555650" lon="-5.184883">
        <ele>2983.0</ele>
        <time>2018-09-02T12:29:42Z</time>
      </trkpt>
      <trkpt lat="40.555700" lon="-5.184933">
        <ele>2980.0</ele>
        <time>2018-09-02T12:29:43Z</time>
      </trkpt>
      <trkpt lat="40.555767" lon="-5.184967">
        <ele>2976.0</ele>
        <time>2018-09-02T12:29:44Z</time>
      </trkpt>
      <trkpt lat="40.555800" lon="-5.185000">
        <ele>2973.0</ele>
        <time>2018-09-02T12:29:45Z</time>
      </trkpt>
      <trkpt lat="40.555833" lon="-5.185050">
        <ele>2968.0</ele>
        <time>2018-09-02T12:29:46Z</time>
      </trkpt>
      <trkpt lat="40.555867" lon="-5.185117">
        <ele>2965.0</ele>
        <time>2018-09-02T12:29:47Z</time>
      </trkpt>
      <trkpt lat="40.555900" lon="-5.185183">
        <ele>2961.0</ele>
        <time>2018-09-02T12:29:48Z</time>
      </trkpt>
      <trkpt lat="40.555917" lon="-5.185250">
        <ele>2959.0</ele>
        <time>2018-09-02T12:29:49Z</time>
      </trkpt>
      <trkpt lat="40.555933" lon="-5.185300">
        <ele>2957.0</ele>
        <time>2018-09-02T12:29:50Z</time>
      </trkpt>
      <trkpt lat="40.555950" lon="-5.185333">
        <ele>2955.0</ele>
        <time>2018-09-02T12:29:51Z</time>
      </trkpt>
      <trkpt lat="40.555967" lon="-5.185383">
        <ele>2954.0</ele>
        <time>2018-09-02T12:29:52Z</time>
      </trkpt>
      <trkpt lat="40.555983" lon="-5.185417">
        <ele>2952.0</ele>
        <time>2018-09-02T12:29:53Z</time>
      </trkpt>
      <trkpt lat="40.556000" lon="-5.185483">
        <ele>2951.0</ele>
        <time>2018-09-02T12:29:54Z</time>
      </trkpt>
      <trkpt lat="40.556000" lon="-5.185550">
        <ele>2949.0</ele>
        <time>2018-09-02T12:29:55Z</time>
      </trkpt>
      <trkpt lat="40.556017" lon="-5.185600">
        <ele>2948.0</ele>
        <time>2018-09-02T12:29:56Z</time>
      </trkpt>
      <trkpt lat="40.556017" lon="-5.185650">
        <ele>2947.0</ele>
        <time>2018-09-02T12:29:57Z</time>
      </trkpt>
      <trkpt lat="40.556033" lon="-5.185683">
        <ele>2947.0</ele>
        <time>2018-09-02T12:29:58Z</time>
      </trkpt>
      <trkpt lat="40.556050" lon="-5.185717">
        <ele>2946.0</ele>
        <time>2018-09-02T12:29:59Z</time>
      </trkpt>
      <trkpt lat="40.556050" lon="-5.185767">
        <ele>2945.0</ele>
        <time>2018-09-02T12:30:00Z</time>
      </trkpt>
      <trkpt lat="40.556067" lon="-5.185833">
        <ele>2943.0</ele>
        <time>2018-09-02T12:30:01Z</time>
      </trkpt>
      <trkpt lat="40.556083" lon="-5.185883">
        <ele>2942.0</ele>
        <time>2018-09-02T12:30:02Z</time>
      </trkpt>
      <trkpt lat="40.556100" lon="-5.185933">
        <ele>2940.0</ele>
        <time>2018-09-02T12:30:03Z</time>
      </trkpt>
      <trkpt lat="40.556117" lon="-5.185983">
        <ele>2939.0</ele>
        <time>2018-09-02T12:30:04Z</time>
      </trkpt>
      <trkpt lat="40.556150" lon="-5.186033">
        <ele>2938.0</ele>
        <time>2018-09-02T12:30:05Z</time>
      </trkpt>
      <trkpt lat="40.556167" lon="-5.186083">
        <ele>2936.0</ele>
        <time>2018-09-02T12:30:06Z</time>
      </trkpt>
      <trkpt lat="40.556200" lon="-5.186150">
        <ele>2941.0</ele>
        <time>2018-09-02T12:30:07Z</time>
      </trkpt>
      <trkpt lat="40.556250" lon="-5.186217">
        <ele>2941.0</ele>
        <time>2018-09-02T12:30:08Z</time>
      </trkpt>
      <trkpt lat="40.556283" lon="-5.186300">
        <ele>2940.0</ele>
        <time>2018-09-02T12:30:09Z</time>
      </trkpt>
      <trkpt lat="40.556317" lon="-5.186367">
        <ele>2940.0</ele>
        <time>2018-09-02T12:30:10Z</time>
      </trkpt>
      <trkpt lat="40.556333" lon="-5.186433">
        <ele>2940.0</ele>
        <time>2018-09-02T12:30:11Z</time>
      </trkpt>
      <trkpt lat="40.556350" lon="-5.186483">
        <ele>2939.0</ele>
        <time>2018-09-02T12:30:12Z</time>
      </trkpt>
      <trkpt lat="40.556383" lon="-5.186533">
        <ele>2938.0</ele>
        <time>2018-09-02T12:30:13Z</time>
      </trkpt>
      <trkpt lat="40.556400" lon="-5.186583">
        <ele>2937.0</ele>
        <time>2018-09-02T12:30:14Z</time>
      </trkpt>
      <trkpt lat="40.556433" lon="-5.186633">
        <ele>2936.0</ele>
        <time>2018-09-02T12:30:15Z</time>
      </trkpt>
      <trkpt lat="40.556467" lon="-5.186700">
        <ele>2935.0</ele>
        <time>2018-09-02T12:30:16Z</time>
      </trkpt>
      <trkpt lat="40.556483" lon="-5.186767">
        <ele>2933.0</ele>
        <time>2018-09-02T12:30:17Z</time>
      </trkpt>
      <trkpt lat="40.556483" lon="-5.186817">
        <ele>2931.0</ele>
        <time>2018-09-02T12:30:18Z</time>
      </trkpt>
      <trkpt lat="40.556483" lon="-5.186850">
        <ele>2928.0</ele>
        <time>2018-09-02T12:30:19Z</time>
      </trkpt>
      <trkpt lat="40.556483" lon="-5.186883">
        <ele>2927.0</ele>
        <time>2018-09-02T12:30:20Z</time>
      </trkpt>
      <trkpt lat="40.556483" lon="-5.186933">
        <ele>2924.0</ele>
        <time>2018-09-02T12:30:21Z</time>
      </trkpt>
      <trkpt lat="40.556483" lon="-5.186983">
        <ele>2921.0</ele>
        <time>2018-09-02T12:30:22Z</time>
      </trkpt>
      <trkpt lat="40.556500" lon="-5.187017">
        <ele>2918.0</ele>
        <time>2018-09-02T12:30:23Z</time>
      </trkpt>
      <trkpt lat="40.556483" lon="-5.187050">
        <ele>2915.0</ele>
        <time>2018-09-02T12:30:24Z</time>
      </trkpt>
      <trkpt lat="40.556467" lon="-5.187067">
        <ele>2911.0</ele>
        <time>2018-09-02T12:30:25Z</time>
      </trkpt>
      <trkpt lat="40.556450" lon="-5.187083">
        <ele>2907.0</ele>
        <time>2018-09-02T12:30:26Z</time>
      </trkpt>
      <trkpt lat="40.556417" lon="-5.187117">
        <ele>2904.0</ele>
        <time>2018-09-02T12:30:27Z</time>
      </trkpt>
      <trkpt lat="40.556400" lon="-5.187150">
        <ele>2901.0</ele>
        <time>2018-09-02T12:30:28Z</time>
      </trkpt>
      <trkpt lat="40.556400" lon="-5.187200">
        <ele>2898.0</ele>
        <time>2018-09-02T12:30:29Z</time>
      </trkpt>
      <trkpt lat="40.556400" lon="-5.187233">
        <ele>2895.0</ele>
        <time>2018-09-02T12:30:30Z</time>
      </trkpt>
      <trkpt lat="40.556400" lon="-5.187283">
        <ele>2892.0</ele>
        <time>2018-09-02T12:30:31Z</time>
      </trkpt>
      <trkpt lat="40.556417" lon="-5.187300">
        <ele>2899.0</ele>
        <time>2018-09-02T12:30:32Z</time>
      </trkpt>
      <trkpt lat="40.556417" lon="-5.187333">
        <ele>2900.0</ele>
        <time>2018-09-02T12:30:33Z</time>
      </trkpt>
      <trkpt lat="40.556417" lon="-5.187367">
        <ele>2899.0</ele>
        <time>2018-09-02T12:30:34Z</time>
      </trkpt>
      <trkpt lat="40.556417" lon="-5.187433">
        <ele>2898.0</ele>
        <time>2018-09-02T12:30:35Z</time>
      </trkpt>
      <trkpt lat="40.556417" lon="-5.187483">
        <ele>2897.0</ele>
        <time>2018-09-02T12:30:36Z</time>
      </trkpt>
      <trkpt lat="40.556400" lon="-5.187550">
        <ele>2896.0</ele>
        <time>2018-09-02T12:30:37Z</time>
      </trkpt>
      <trkpt lat="40.556383" lon="-5.187633">
        <ele>2895.0</ele>
        <time>2018-09-02T12:30:38Z</time>
      </trkpt>
      <trkpt lat="40.556400" lon="-5.187683">
        <ele>2891.0</ele>
        <time>2018-09-02T12:30:39Z</time>
      </trkpt>
      <trkpt lat="40.556400" lon="-5.187733">
        <ele>2887.0</ele>
        <time>2018-09-02T12:30:40Z</time>
      </trkpt>
      <trkpt lat="40.556400" lon="-5.187767">
        <ele>2883.0</ele>
        <time>2018-09-02T12:30:41Z</time>
      </trkpt>
      <trkpt lat="40.556400" lon="-5.187800">
        <ele>2880.0</ele>
        <time>2018-09-02T12:30:42Z</time>
      </trkpt>
      <trkpt lat="40.556383" lon="-5.187850">
        <ele>2876.0</ele>
        <time>2018-09-02T12:30:43Z</time>
      </trkpt>
      <trkpt lat="40.556367" lon="-5.187900">
        <ele>2872.0</ele>
        <time>2018-09-02T12:30:44Z</time>
      </trkpt>
      <trkpt lat="40.556367" lon="-5.187967">
        <ele>2867.0</ele>
        <time>2018-09-02T12:30:45Z</time>
      </trkpt>
      <trkpt lat="40.556367" lon="-5.188000">
        <ele>2863.0</ele>
        <time>2018-09-02T12:30:46Z</time>
      </trkpt>
      <trkpt lat="40.556367" lon="-5.188050">
        <ele>2859.0</ele>
        <time>2018-09-02T12:30:47Z</time>
      </trkpt>
      <trkpt lat="40.556367" lon="-5.188083">
        <ele>2855.0</ele>
        <time>2018-09-02T12:30:48Z</time>
      </trkpt>
      <trkpt lat="40.556350" lon="-5.188117">
        <ele>2851.0</ele>
        <time>2018-09-02T12:30:49Z</time>
      </trkpt>
      <trkpt lat="40.556333" lon="-5.188217">
        <ele>2842.0</ele>
        <time>2018-09-02T12:30:51Z</time>
      </trkpt>
      <trkpt lat="40.556333" lon="-5.188267">
        <ele>2837.0</ele>
        <time>2018-09-02T12:30:52Z</time>
      </trkpt>
      <trkpt lat="40.556333" lon="-5.188317">
        <ele>2833.0</ele>
        <time>2018-09-02T12:30:53Z</time>
      </trkpt>
      <trkpt lat="40.556317" lon="-5.188367">
        <ele>2829.0</ele>
        <time>2018-09-02T12:30:54Z</time>
      </trkpt>
      <trkpt lat="40.556317" lon="-5.188417">
        <ele>2825.0</ele>
        <time>2018-09-02T12:30:55Z</time>
      </trkpt>
      <trkpt lat="40.556300" lon="-5.188467">
        <ele>2821.0</ele>
        <time>2018-09-02T12:30:56Z</time>
      </trkpt>
      <trkpt lat="40.556300" lon="-5.188517">
        <ele>2817.0</ele>
        <time>2018-09-02T12:30:57Z</time>
      </trkpt>
      <trkpt lat="40.556300" lon="-5.188567">
        <ele>2813.0</ele>
        <time>2018-09-02T12:30:58Z</time>
      </trkpt>
      <trkpt lat="40.556283" lon="-5.188600">
        <ele>2809.0</ele>
        <time>2018-09-02T12:30:59Z</time>
      </trkpt>
      <trkpt lat="40.556267" lon="-5.188650">
        <ele>2806.0</ele>
        <time>2018-09-02T12:31:00Z</time>
      </trkpt>
      <trkpt lat="40.556250" lon="-5.188700">
        <ele>2801.0</ele>
        <time>2018-09-02T12:31:01Z</time>
      </trkpt>
      <trkpt lat="40.556233" lon="-5.188750">
        <ele>2797.0</ele>
        <time>2018-09-02T12:31:02Z</time>
      </trkpt>
      <trkpt lat="40.556200" lon="-5.188800">
        <ele>2793.0</ele>
        <time>2018-09-02T12:31:03Z</time>
      </trkpt>
      <trkpt lat="40.556167" lon="-5.188850">
        <ele>2789.0</ele>
        <time>2018-09-02T12:31:04Z</time>
      </trkpt>
      <trkpt lat="40.556150" lon="-5.188900">
        <ele>2786.0</ele>
        <time>2018-09-02T12:31:05Z</time>
      </trkpt>
      <trkpt lat="40.556117" lon="-5.188933">
        <ele>2782.0</ele>
        <time>2018-09-02T12:31:06Z</time>
      </trkpt>
      <trkpt lat="40.556100" lon="-5.188967">
        <ele>2779.0</ele>
        <time>2018-09-02T12:31:07Z</time>
      </trkpt>
      <trkpt lat="40.556083" lon="-5.189000">
        <ele>2787.0</ele>
        <time>2018-09-02T12:31:08Z</time>
      </trkpt>
      <trkpt lat="40.556067" lon="-5.189033">
        <ele>2787.0</ele>
        <time>2018-09-02T12:31:09Z</time>
      </trkpt>
      <trkpt lat="40.556017" lon="-5.189083">
        <ele>2787.0</ele>
        <time>2018-09-02T12:31:10Z</time>
      </trkpt>
      <trkpt lat="40.555983" lon="-5.189117">
        <ele>2786.0</ele>
        <time>2018-09-02T12:31:11Z</time>
      </trkpt>
      <trkpt lat="40.555950" lon="-5.189150">
        <ele>2784.0</ele>
        <time>2018-09-02T12:31:12Z</time>
      </trkpt>
      <trkpt lat="40.555933" lon="-5.189183">
        <ele>2783.0</ele>
        <time>2018-09-02T12:31:13Z</time>
      </trkpt>
      <trkpt lat="40.555917" lon="-5.189183">
        <ele>2781.0</ele>
        <time>2018-09-02T12:31:14Z</time>
      </trkpt>
      <trkpt lat="40.555900" lon="-5.189200">
        <ele>2779.0</ele>
        <time>2018-09-02T12:31:15Z</time>
      </trkpt>
      <trkpt lat="40.555867" lon="-5.189233">
        <ele>2776.0</ele>
        <time>2018-09-02T12:31:16Z</time>
      </trkpt>
      <trkpt lat="40.555833" lon="-5.189283">
        <ele>2772.0</ele>
        <time>2018-09-02T12:31:17Z</time>
      </trkpt>
      <trkpt lat="40.555817" lon="-5.189317">
        <ele>2769.0</ele>
        <time>2018-09-02T12:31:18Z</time>
      </trkpt>
      <trkpt lat="40.555800" lon="-5.189350">
        <ele>2766.0</ele>
        <time>2018-09-02T12:31:19Z</time>
      </trkpt>
      <trkpt lat="40.555783" lon="-5.189383">
        <ele>2763.0</ele>
        <time>2018-09-02T12:31:20Z</time>
      </trkpt>
      <trkpt lat="40.555783" lon="-5.189417">
        <ele>2758.0</ele>
        <time>2018-09-02T12:31:21Z</time>
      </trkpt>
      <trkpt lat="40.555733" lon="-5.189517">
        <ele>2762.0</ele>
        <time>2018-09-02T12:31:23Z</time>
      </trkpt>
      <trkpt lat="40.555683" lon="-5.189550">
        <ele>2759.0</ele>
        <time>2018-09-02T12:31:24Z</time>
      </trkpt>
      <trkpt lat="40.555667" lon="-5.189583">
        <ele>2756.0</ele>
        <time>2018-09-02T12:31:25Z</time>
      </trkpt>
      <trkpt lat="40.555633" lon="-5.189600">
        <ele>2753.0</ele>
        <time>2018-09-02T12:31:26Z</time>
      </trkpt>
      <trkpt lat="40.555617" lon="-5.189633">
        <ele>2750.0</ele>
        <time>2018-09-02T12:31:27Z</time>
      </trkpt>
      <trkpt lat="40.555617" lon="-5.189667">
        <ele>2747.0</ele>
        <time>2018-09-02T12:31:28Z</time>
      </trkpt>
      <trkpt lat="40.555600" lon="-5.189700">
        <ele>2743.0</ele>
        <time>2018-09-02T12:31:29Z</time>
      </trkpt>
      <trkpt lat="40.555583" lon="-5.189767">
        <ele>2738.0</ele>
        <time>2018-09-02T12:31:30Z</time>
      </trkpt>
      <trkpt lat="40.555567" lon="-5.189833">
        <ele>2731.0</ele>
        <time>2018-09-02T12:31:31Z</time>
      </trkpt>
      <trkpt lat="40.555550" lon="-5.189883">
        <ele>2726.0</ele>
        <time>2018-09-02T12:31:32Z</time>
      </trkpt>
      <trkpt lat="40.555550" lon="-5.189950">
        <ele>2721.0</ele>
        <time>2018-09-02T12:31:33Z</time>
      </trkpt>
      <trkpt lat="40.555583" lon="-5.190017">
        <ele>2717.0</ele>
        <time>2018-09-02T12:31:34Z</time>
      </trkpt>
      <trkpt lat="40.555600" lon="-5.190083">
        <ele>2712.0</ele>
        <time>2018-09-02T12:31:35Z</time>
      </trkpt>
      <trkpt lat="40.555633" lon="-5.190133">
        <ele>2707.0</ele>
        <time>2018-09-02T12:31:36Z</time>
      </trkpt>
      <trkpt lat="40.555650" lon="-5.190200">
        <ele>2703.0</ele>
        <time>2018-09-02T12:31:37Z</time>
      </trkpt>
      <trkpt lat="40.555667" lon="-5.190250">
        <ele>2698.0</ele>
        <time>2018-09-02T12:31:38Z</time>
      </trkpt>
      <trkpt lat="40.555683" lon="-5.190300">
        <ele>2692.0</ele>
        <time>2018-09-02T12:31:39Z</time>
      </trkpt>
      <trkpt lat="40.555717" lon="-5.190367">
        <ele>2687.0</ele>
        <time>2018-09-02T12:31:40Z</time>
      </trkpt>
      <trkpt lat="40.555733" lon="-5.190450">
        <ele>2682.0</ele>
        <time>2018-09-02T12:31:41Z</time>
      </trkpt>
      <trkpt lat="40.555750" lon="-5.190533">
        <ele>2677.0</ele>
        <time>2018-09-02T12:31:42Z</time>
      </trkpt>
      <trkpt lat="40.555767" lon="-5.190617">
        <ele>2672.0</ele>
        <time>2018-09-02T12:31:43Z</time>
      </trkpt>
      <trkpt lat="40.555767" lon="-5.190683">
        <ele>2668.0</ele>
        <time>2018-09-02T12:31:44Z</time>
      </trkpt>
      <trkpt lat="40.555767" lon="-5.190767">
        <ele>2664.0</ele>
        <time>2018-09-02T12:31:45Z</time>
      </trkpt>
      <trkpt lat="40.555767" lon="-5.190817">
        <ele>2660.0</ele>
        <time>2018-09-02T12:31:46Z</time>
      </trkpt>
      <trkpt lat="40.555750" lon="-5.190900">
        <ele>2657.0</ele>
        <time>2018-09-02T12:31:47Z</time>
      </trkpt>
      <trkpt lat="40.555750" lon="-5.190967">
        <ele>2654.0</ele>
        <time>2018-09-02T12:31:48Z</time>
      </trkpt>
      <trkpt lat="40.555750" lon="-5.191033">
        <ele>2651.0</ele>
        <time>2018-09-02T12:31:49Z</time>
      </trkpt>
      <trkpt lat="40.555733" lon="-5.191083">
        <ele>2648.0</ele>
        <time>2018-09-02T12:31:50Z</time>
      </trkpt>
      <trkpt lat="40.555733" lon="-5.191150">
        <ele>2645.0</ele>
        <time>2018-09-02T12:31:51Z</time>
      </trkpt>
      <trkpt lat="40.555717" lon="-5.191217">
        <ele>2643.0</ele>
        <time>2018-09-02T12:31:52Z</time>
      </trkpt>
      <trkpt lat="40.555700" lon="-5.191267">
        <ele>2640.0</ele>
        <time>2018-09-02T12:31:53Z</time>
      </trkpt>
      <trkpt lat="40.555683" lon="-5.191317">
        <ele>2638.0</ele>
        <time>2018-09-02T12:31:54Z</time>
      </trkpt>
      <trkpt lat="40.555683" lon="-5.191383">
        <ele>2635.0</ele>
        <time>2018-09-02T12:31:55Z</time>
      </trkpt>
      <trkpt lat="40.555667" lon="-5.191417">
        <ele>2632.0</ele>
        <time>2018-09-02T12:31:56Z</time>
      </trkpt>
      <trkpt lat="40.555650" lon="-5.191467">
        <ele>2639.0</ele>
        <time>2018-09-02T12:31:57Z</time>
      </trkpt>
      <trkpt lat="40.555633" lon="-5.191517">
        <ele>2637.0</ele>
        <time>2018-09-02T12:31:58Z</time>
      </trkpt>
      <trkpt lat="40.555600" lon="-5.191567">
        <ele>2635.0</ele>
        <time>2018-09-02T12:31:59Z</time>
      </trkpt>
      <trkpt lat="40.555583" lon="-5.191600">
        <ele>2633.0</ele>
        <time>2018-09-02T12:32:00Z</time>
      </trkpt>
      <trkpt lat="40.555533" lon="-5.191650">
        <ele>2631.0</ele>
        <time>2018-09-02T12:32:01Z</time>
      </trkpt>
      <trkpt lat="40.555500" lon="-5.191700">
        <ele>2628.0</ele>
        <time>2018-09-02T12:32:02Z</time>
      </trkpt>
      <trkpt lat="40.555483" lon="-5.191767">
        <ele>2626.0</ele>
        <time>2018-09-02T12:32:03Z</time>
      </trkpt>
      <trkpt lat="40.555450" lon="-5.191833">
        <ele>2623.0</ele>
        <time>2018-09-02T12:32:04Z</time>
      </trkpt>
      <trkpt lat="40.555433" lon="-5.191883">
        <ele>2620.0</ele>
        <time>2018-09-02T12:32:05Z</time>
      </trkpt>
      <trkpt lat="40.555417" lon="-5.191950">
        <ele>2616.0</ele>
        <time>2018-09-02T12:32:06Z</time>
      </trkpt>
      <trkpt lat="40.555383" lon="-5.192017">
        <ele>2613.0</ele>
        <time>2018-09-02T12:32:07Z</time>
      </trkpt>
      <trkpt lat="40.555367" lon="-5.192083">
        <ele>2610.0</ele>
        <time>2018-09-02T12:32:08Z</time>
      </trkpt>
      <trkpt lat="40.555350" lon="-5.192167">
        <ele>2613.0</ele>
        <time>2018-09-02T12:32:09Z</time>
      </trkpt>
      <trkpt lat="40.555317" lon="-5.192233">
        <ele>2611.0</ele>
        <time>2018-09-02T12:32:10Z</time>
      </trkpt>
      <trkpt lat="40.555300" lon="-5.192317">
        <ele>2608.0</ele>
        <time>2018-09-02T12:32:11Z</time>
      </trkpt>
      <trkpt lat="40.555283" lon="-5.192383">
        <ele>2606.0</ele>
        <time>2018-09-02T12:32:12Z</time>
      </trkpt>
      <trkpt lat="40.555267" lon="-5.192450">
        <ele>2603.0</ele>
        <time>2018-09-02T12:32:13Z</time>
      </trkpt>
      <trkpt lat="40.555250" lon="-5.192517">
        <ele>2600.0</ele>
        <time>2018-09-02T12:32:14Z</time>
      </trkpt>
      <trkpt lat="40.555250" lon="-5.192567">
        <ele>2597.0</ele>
        <time>2018-09-02T12:32:15Z</time>
      </trkpt>
      <trkpt lat="40.555233" lon="-5.192650">
        <ele>2593.0</ele>
        <time>2018-09-02T12:32:16Z</time>
      </trkpt>
      <trkpt lat="40.555217" lon="-5.192700">
        <ele>2589.0</ele>
        <time>2018-09-02T12:32:17Z</time>
      </trkpt>
      <trkpt lat="40.555200" lon="-5.192767">
        <ele>2594.0</ele>
        <time>2018-09-02T12:32:18Z</time>
      </trkpt>
      <trkpt lat="40.555183" lon="-5.192833">
        <ele>2593.0</ele>
        <time>2018-09-02T12:32:19Z</time>
      </trkpt>
      <trkpt lat="40.555150" lon="-5.192883">
        <ele>2591.0</ele>
        <time>2018-09-02T12:32:20Z</time>
      </trkpt>
      <trkpt lat="40.555117" lon="-5.192933">
        <ele>2590.0</ele>
        <time>2018-09-02T12:32:21Z</time>
      </trkpt>
      <trkpt lat="40.555083" lon="-5.193000">
        <ele>2589.0</ele>
        <time>2018-09-02T12:32:22Z</time>
      </trkpt>
      <trkpt lat="40.555067" lon="-5.193050">
        <ele>2587.0</ele>
        <time>2018-09-02T12:32:23Z</time>
      </trkpt>
      <trkpt lat="40.555050" lon="-5.193100">
        <ele>2586.0</ele>
        <time>2018-09-02T12:32:24Z</time>
      </trkpt>
      <trkpt lat="40.555050" lon="-5.193167">
        <ele>2583.0</ele>
        <time>2018-09-02T12:32:25Z</time>
      </trkpt>
      <trkpt lat="40.555033" lon="-5.193233">
        <ele>2581.0</ele>
        <time>2018-09-02T12:32:26Z</time>
      </trkpt>
      <trkpt lat="40.555000" lon="-5.193300">
        <ele>2581.0</ele>
        <time>2018-09-02T12:32:27Z</time>
      </trkpt>
      <trkpt lat="40.554967" lon="-5.193400">
        <ele>2579.0</ele>
        <time>2018-09-02T12:32:28Z</time>
      </trkpt>
      <trkpt lat="40.554933" lon="-5.193483">
        <ele>2576.0</ele>
        <time>2018-09-02T12:32:29Z</time>
      </trkpt>
      <trkpt lat="40.554917" lon="-5.193583">
        <ele>2575.0</ele>
        <time>2018-09-02T12:32:30Z</time>
      </trkpt>
      <trkpt lat="40.554900" lon="-5.193667">
        <ele>2573.0</ele>
        <time>2018-09-02T12:32:31Z</time>
      </trkpt>
      <trkpt lat="40.554867" lon="-5.193833">
        <ele>2570.0</ele>
        <time>2018-09-02T12:32:33Z</time>
      </trkpt>
      <trkpt lat="40.554833" lon="-5.194000">
        <ele>2567.0</ele>
        <time>2018-09-02T12:32:35Z</time>
      </trkpt>
      <trkpt lat="40.554817" lon="-5.194083">
        <ele>2566.0</ele>
        <time>2018-09-02T12:32:36Z</time>
      </trkpt>
      <trkpt lat="40.554800" lon="-5.194183">
        <ele>2564.0</ele>
        <time>2018-09-02T12:32:37Z</time>
      </trkpt>
      <trkpt lat="40.554783" lon="-5.194300">
        <ele>2563.0</ele>
        <time>2018-09-02T12:32:38Z</time>
      </trkpt>
      <trkpt lat="40.554800" lon="-5.194417">
        <ele>2562.0</ele>
        <time>2018-09-02T12:32:39Z</time>
      </trkpt>
      <trkpt lat="40.554817" lon="-5.194500">
        <ele>2560.0</ele>
        <time>2018-09-02T12:32:40Z</time>
      </trkpt>
      <trkpt lat="40.554817" lon="-5.194600">
        <ele>2556.0</ele>
        <time>2018-09-02T12:32:41Z</time>
      </trkpt>
      <trkpt lat="40.554817" lon="-5.194700">
        <ele>2553.0</ele>
        <time>2018-09-02T12:32:42Z</time>
      </trkpt>
      <trkpt lat="40.554817" lon="-5.194767">
        <ele>2550.0</ele>
        <time>2018-09-02T12:32:43Z</time>
      </trkpt>
      <trkpt lat="40.554800" lon="-5.194867">
        <ele>2546.0</ele>
        <time>2018-09-02T12:32:44Z</time>
      </trkpt>
      <trkpt lat="40.554817" lon="-5.194950">
        <ele>2541.0</ele>
        <time>2018-09-02T12:32:45Z</time>
      </trkpt>
      <trkpt lat="40.554800" lon="-5.195033">
        <ele>2535.0</ele>
        <time>2018-09-02T12:32:46Z</time>
      </trkpt>
      <trkpt lat="40.554800" lon="-5.195100">
        <ele>2528.0</ele>
        <time>2018-09-02T12:32:47Z</time>
      </trkpt>
      <trkpt lat="40.554783" lon="-5.195167">
        <ele>2522.0</ele>
        <time>2018-09-02T12:32:48Z</time>
      </trkpt>
      <trkpt lat="40.554767" lon="-5.195233">
        <ele>2516.0</ele>
        <time>2018-09-02T12:32:49Z</time>
      </trkpt>
      <trkpt lat="40.554750" lon="-5.195333">
        <ele>2522.0</ele>
        <time>2018-09-02T12:32:50Z</time>
      </trkpt>
      <trkpt lat="40.554733" lon="-5.195450">
        <ele>2520.0</ele>
        <time>2018-09-02T12:32:51Z</time>
      </trkpt>
      <trkpt lat="40.554717" lon="-5.195550">
        <ele>2518.0</ele>
        <time>2018-09-02T12:32:52Z</time>
      </trkpt>
      <trkpt lat="40.554700" lon="-5.195633">
        <ele>2516.0</ele>
        <time>2018-09-02T12:32:53Z</time>
      </trkpt>
      <trkpt lat="40.554683" lon="-5.195717">
        <ele>2513.0</ele>
        <time>2018-09-02T12:32:54Z</time>
      </trkpt>
      <trkpt lat="40.554650" lon="-5.195817">
        <ele>2512.0</ele>
        <time>2018-09-02T12:32:55Z</time>
      </trkpt>
      <trkpt lat="40.554633" lon="-5.195950">
        <ele>2510.0</ele>
        <time>2018-09-02T12:32:56Z</time>
      </trkpt>
      <trkpt lat="40.554617" lon="-5.196067">
        <ele>2508.0</ele>
        <time>2018-09-02T12:32:57Z</time>
      </trkpt>
      <trkpt lat="40.554600" lon="-5.196183">
        <ele>2507.0</ele>
        <time>2018-09-02T12:32:58Z</time>
      </trkpt>
      <trkpt lat="40.554583" lon="-5.196300">
        <ele>2506.0</ele>
        <time>2018-09-02T12:32:59Z</time>
      </trkpt>
      <trkpt lat="40.554567" lon="-5.196400">
        <ele>2505.0</ele>
        <time>2018-09-02T12:33:00Z</time>
      </trkpt>
      <trkpt lat="40.554550" lon="-5.196500">
        <ele>2504.0</ele>
        <time>2018-09-02T12:33:01Z</time>
      </trkpt>
      <trkpt lat="40.554517" lon="-5.196600">
        <ele>2503.0</ele>
        <time>2018-09-02T12:33:02Z</time>
      </trkpt>
      <trkpt lat="40.554450" lon="-5.196850">
        <ele>2501.0</ele>
        <time>2018-09-02T12:33:05Z</time>
      </trkpt>
      <trkpt lat="40.554450" lon="-5.196883">
        <ele>2500.0</ele>
        <time>2018-09-02T12:33:06Z</time>
      </trkpt>
      <trkpt lat="40.554450" lon="-5.196917">
        <ele>2498.0</ele>
        <time>2018-09-02T12:33:07Z</time>
      </trkpt>
      <trkpt lat="40.554433" lon="-5.196967">
        <ele>2496.0</ele>
        <time>2018-09-02T12:33:08Z</time>
      </trkpt>
      <trkpt lat="40.554417" lon="-5.197000">
        <ele>2495.0</ele>
        <time>2018-09-02T12:33:09Z</time>
      </trkpt>
      <trkpt lat="40.554417" lon="-5.197033">
        <ele>2493.0</ele>
        <time>2018-09-02T12:33:10Z</time>
      </trkpt>
      <trkpt lat="40.554383" lon="-5.197100">
        <ele>2492.0</ele>
        <time>2018-09-02T12:33:11Z</time>
      </trkpt>
      <trkpt lat="40.554383" lon="-5.197133">
        <ele>2490.0</ele>
        <time>2018-09-02T12:33:12Z</time>
      </trkpt>
      <trkpt lat="40.554383" lon="-5.197200">
        <ele>2487.0</ele>
        <time>2018-09-02T12:33:13Z</time>
      </trkpt>
      <trkpt lat="40.554400" lon="-5.197267">
        <ele>2484.0</ele>
        <time>2018-09-02T12:33:14Z</time>
      </trkpt>
      <trkpt lat="40.554417" lon="-5.197333">
        <ele>2481.0</ele>
        <time>2018-09-02T12:33:15Z</time>
      </trkpt>
      <trkpt lat="40.554450" lon="-5.197433">
        <ele>2477.0</ele>
        <time>2018-09-02T12:33:16Z</time>
      </trkpt>
      <trkpt lat="40.554500" lon="-5.197517">
        <ele>2473.0</ele>
        <time>2018-09-02T12:33:17Z</time>
      </trkpt>
      <trkpt lat="40.554517" lon="-5.197617">
        <ele>2473.0</ele>
        <time>2018-09-02T12:33:18Z</time>
      </trkpt>
      <trkpt lat="40.554533" lon="-5.197700">
        <ele>2467.0</ele>
        <time>2018-09-02T12:33:19Z</time>
      </trkpt>
      <trkpt lat="40.554533" lon="-5.197817">
        <ele>2461.0</ele>
        <time>2018-09-02T12:33:20Z</time>
      </trkpt>
      <trkpt lat="40.554550" lon="-5.197900">
        <ele>2455.0</ele>
        <time>2018-09-02T12:33:21Z</time>
      </trkpt>
      <trkpt lat="40.554550" lon="-5.197983">
        <ele>2451.0</ele>
        <time>2018-09-02T12:33:22Z</time>
      </trkpt>
      <trkpt lat="40.554567" lon="-5.198067">
        <ele>2448.0</ele>
        <time>2018-09-02T12:33:23Z</time>
      </trkpt>
      <trkpt lat="40.554583" lon="-5.198133">
        <ele>2444.0</ele>
        <time>2018-09-02T12:33:24Z</time>
      </trkpt>
      <trkpt lat="40.554600" lon="-5.198217">
        <ele>2439.0</ele>
        <time>2018-09-02T12:33:25Z</time>
      </trkpt>
      <trkpt lat="40.554617" lon="-5.198300">
        <ele>2435.0</ele>
        <time>2018-09-02T12:33:26Z</time>
      </trkpt>
      <trkpt lat="40.554617" lon="-5.198400">
        <ele>2430.0</ele>
        <time>2018-09-02T12:33:27Z</time>
      </trkpt>
      <trkpt lat="40.554633" lon="-5.198500">
        <ele>2425.0</ele>
        <time>2018-09-02T12:33:28Z</time>
      </trkpt>
      <trkpt lat="40.554633" lon="-5.198567">
        <ele>2419.0</ele>
        <time>2018-09-02T12:33:29Z</time>
      </trkpt>
      <trkpt lat="40.554650" lon="-5.198583">
        <ele>2413.0</ele>
        <time>2018-09-02T12:33:30Z</time>
      </trkpt>
      <trkpt lat="40.554650" lon="-5.198617">
        <ele>2404.0</ele>
        <time>2018-09-02T12:33:31Z</time>
      </trkpt>
      <trkpt lat="40.554650" lon="-5.198667">
        <ele>2395.0</ele>
        <time>2018-09-02T12:33:32Z</time>
      </trkpt>
      <trkpt lat="40.554650" lon="-5.198733">
        <ele>2388.0</ele>
        <time>2018-09-02T12:33:33Z</time>
      </trkpt>
      <trkpt lat="40.554633" lon="-5.198800">
        <ele>2381.0</ele>
        <time>2018-09-02T12:33:34Z</time>
      </trkpt>
      <trkpt lat="40.554633" lon="-5.198867">
        <ele>2374.0</ele>
        <time>2018-09-02T12:33:35Z</time>
      </trkpt>
      <trkpt lat="40.554617" lon="-5.198933">
        <ele>2368.0</ele>
        <time>2018-09-02T12:33:36Z</time>
      </trkpt>
      <trkpt lat="40.554617" lon="-5.199000">
        <ele>2362.0</ele>
        <time>2018-09-02T12:33:37Z</time>
      </trkpt>
      <trkpt lat="40.554617" lon="-5.199067">
        <ele>2356.0</ele>
        <time>2018-09-02T12:33:38Z</time>
      </trkpt>
      <trkpt lat="40.554617" lon="-5.199133">
        <ele>2351.0</ele>
        <time>2018-09-02T12:33:39Z</time>
      </trkpt>
      <trkpt lat="40.554633" lon="-5.199183">
        <ele>2346.0</ele>
        <time>2018-09-02T12:33:40Z</time>
      </trkpt>
      <trkpt lat="40.554633" lon="-5.199250">
        <ele>2341.0</ele>
        <time>2018-09-02T12:33:41Z</time>
      </trkpt>
      <trkpt lat="40.554650" lon="-5.199300">
        <ele>2336.0</ele>
        <time>2018-09-02T12:33:42Z</time>
      </trkpt>
      <trkpt lat="40.554667" lon="-5.199350">
        <ele>2331.0</ele>
        <time>2018-09-02T12:33:43Z</time>
      </trkpt>
      <trkpt lat="40.554683" lon="-5.199417">
        <ele>2326.0</ele>
        <time>2018-09-02T12:33:44Z</time>
      </trkpt>
      <trkpt lat="40.554683" lon="-5.199467">
        <ele>2321.0</ele>
        <time>2018-09-02T12:33:45Z</time>
      </trkpt>
      <trkpt lat="40.554683" lon="-5.199533">
        <ele>2317.0</ele>
        <time>2018-09-02T12:33:46Z</time>
      </trkpt>
      <trkpt lat="40.554700" lon="-5.199583">
        <ele>2314.0</ele>
        <time>2018-09-02T12:33:47Z</time>
      </trkpt>
      <trkpt lat="40.554700" lon="-5.199650">
        <ele>2310.0</ele>
        <time>2018-09-02T12:33:48Z</time>
      </trkpt>
      <trkpt lat="40.554700" lon="-5.199700">
        <ele>2306.0</ele>
        <time>2018-09-02T12:33:49Z</time>
      </trkpt>
      <trkpt lat="40.554700" lon="-5.199767">
        <ele>2302.0</ele>
        <time>2018-09-02T12:33:50Z</time>
      </trkpt>
      <trkpt lat="40.554700" lon="-5.199833">
        <ele>2299.0</ele>
        <time>2018-09-02T12:33:51Z</time>
      </trkpt>
      <trkpt lat="40.554700" lon="-5.199900">
        <ele>2295.0</ele>
        <time>2018-09-02T12:33:52Z</time>
      </trkpt>
      <trkpt lat="40.554700" lon="-5.199967">
        <ele>2292.0</ele>
        <time>2018-09-02T12:33:53Z</time>
      </trkpt>
      <trkpt lat="40.554700" lon="-5.200033">
        <ele>2288.0</ele>
        <time>2018-09-02T12:33:54Z</time>
      </trkpt>
      <trkpt lat="40.554700" lon="-5.200100">
        <ele>2285.0</ele>
        <time>2018-09-02T12:33:55Z</time>
      </trkpt>
      <trkpt lat="40.554717" lon="-5.200167">
        <ele>2282.0</ele>
        <time>2018-09-02T12:33:56Z</time>
      </trkpt>
      <trkpt lat="40.554717" lon="-5.200233">
        <ele>2279.0</ele>
        <time>2018-09-02T12:33:57Z</time>
      </trkpt>
      <trkpt lat="40.554733" lon="-5.200300">
        <ele>2276.0</ele>
        <time>2018-09-02T12:33:58Z</time>
      </trkpt>
      <trkpt lat="40.554750" lon="-5.200367">
        <ele>2273.0</ele>
        <time>2018-09-02T12:33:59Z</time>
      </trkpt>
      <trkpt lat="40.554750" lon="-5.200433">
        <ele>2271.0</ele>
        <time>2018-09-02T12:34:00Z</time>
      </trkpt>
      <trkpt lat="40.554750" lon="-5.200500">
        <ele>2268.0</ele>
        <time>2018-09-02T12:34:01Z</time>
      </trkpt>
      <trkpt lat="40.554767" lon="-5.200567">
        <ele>2265.0</ele>
        <time>2018-09-02T12:34:02Z</time>
      </trkpt>
      <trkpt lat="40.554767" lon="-5.200650">
        <ele>2263.0</ele>
        <time>2018-09-02T12:34:03Z</time>
      </trkpt>
      <trkpt lat="40.554767" lon="-5.200733">
        <ele>2261.0</ele>
        <time>2018-09-02T12:34:04Z</time>
      </trkpt>
      <trkpt lat="40.554783" lon="-5.200800">
        <ele>2259.0</ele>
        <time>2018-09-02T12:34:05Z</time>
      </trkpt>
      <trkpt lat="40.554783" lon="-5.200867">
        <ele>2257.0</ele>
        <time>2018-09-02T12:34:06Z</time>
      </trkpt>
      <trkpt lat="40.554800" lon="-5.200917">
        <ele>2255.0</ele>
        <time>2018-09-02T12:34:07Z</time>
      </trkpt>
      <trkpt lat="40.554817" lon="-5.200950">
        <ele>2253.0</ele>
        <time>2018-09-02T12:34:08Z</time>
      </trkpt>
      <trkpt lat="40.554867" lon="-5.200983">
        <ele>2253.0</ele>
        <time>2018-09-02T12:34:09Z</time>
      </trkpt>
      <trkpt lat="40.554917" lon="-5.201000">
        <ele>2251.0</ele>
        <time>2018-09-02T12:34:10Z</time>
      </trkpt>
      <trkpt lat="40.555000" lon="-5.201017">
        <ele>2250.0</ele>
        <time>2018-09-02T12:34:11Z</time>
      </trkpt>
      <trkpt lat="40.555100" lon="-5.201017">
        <ele>2248.0</ele>
        <time>2018-09-02T12:34:12Z</time>
      </trkpt>
      <trkpt lat="40.555217" lon="-5.200983">
        <ele>2246.0</ele>
        <time>2018-09-02T12:34:13Z</time>
      </trkpt>
      <trkpt lat="40.555317" lon="-5.200933">
        <ele>2244.0</ele>
        <time>2018-09-02T12:34:14Z</time>
      </trkpt>
      <trkpt lat="40.555433" lon="-5.200867">
        <ele>2241.0</ele>
        <time>2018-09-02T12:34:15Z</time>
      </trkpt>
      <trkpt lat="40.555533" lon="-5.200767">
        <ele>2239.0</ele>
        <time>2018-09-02T12:34:16Z</time>
      </trkpt>
      <trkpt lat="40.555633" lon="-5.200633">
        <ele>2237.0</ele>
        <time>2018-09-02T12:34:17Z</time>
      </trkpt>
      <trkpt lat="40.555750" lon="-5.200517">
        <ele>2237.0</ele>
        <time>2018-09-02T12:34:18Z</time>
      </trkpt>
      <trkpt lat="40.555867" lon="-5.200417">
        <ele>2238.0</ele>
        <time>2018-09-02T12:34:19Z</time>
      </trkpt>
      <trkpt lat="40.555967" lon="-5.200317">
        <ele>2236.0</ele>
        <time>2018-09-02T12:34:20Z</time>
      </trkpt>
      <trkpt lat="40.556083" lon="-5.200200">
        <ele>2235.0</ele>
        <time>2018-09-02T12:34:21Z</time>
      </trkpt>
      <trkpt lat="40.556200" lon="-5.200083">
        <ele>2235.0</ele>
        <time>2018-09-02T12:34:22Z</time>
      </trkpt>
      <trkpt lat="40.556333" lon="-5.199967">
        <ele>2237.0</ele>
        <time>2018-09-02T12:34:23Z</time>
      </trkpt>
      <trkpt lat="40.556450" lon="-5.199850">
        <ele>2236.0</ele>
        <time>2018-09-02T12:34:24Z</time>
      </trkpt>
      <trkpt lat="40.556583" lon="-5.199733">
        <ele>2238.0</ele>
        <time>2018-09-02T12:34:25Z</time>
      </trkpt>
      <trkpt lat="40.556700" lon="-5.199600">
        <ele>2238.0</ele>
        <time>2018-09-02T12:34:26Z</time>
      </trkpt>
      <trkpt lat="40.556817" lon="-5.199500">
        <ele>2238.0</ele>
        <time>2018-09-02T12:34:27Z</time>
      </trkpt>
      <trkpt lat="40.556950" lon="-5.199367">
        <ele>2238.0</ele>
        <time>2018-09-02T12:34:28Z</time>
      </trkpt>
      <trkpt lat="40.557067" lon="-5.199250">
        <ele>2242.0</ele>
        <time>2018-09-02T12:34:29Z</time>
      </trkpt>
      <trkpt lat="40.557167" lon="-5.199133">
        <ele>2245.0</ele>
        <time>2018-09-02T12:34:30Z</time>
      </trkpt>
      <trkpt lat="40.557283" lon="-5.199017">
        <ele>2246.0</ele>
        <time>2018-09-02T12:34:31Z</time>
      </trkpt>
      <trkpt lat="40.557400" lon="-5.198900">
        <ele>2245.0</ele>
        <time>2018-09-02T12:34:32Z</time>
      </trkpt>
      <trkpt lat="40.557517" lon="-5.198783">
        <ele>2244.0</ele>
        <time>2018-09-02T12:34:33Z</time>
      </trkpt>
      <trkpt lat="40.557633" lon="-5.198650">
        <ele>2243.0</ele>
        <time>2018-09-02T12:34:34Z</time>
      </trkpt>
      <trkpt lat="40.557750" lon="-5.198550">
        <ele>2242.0</ele>
        <time>2018-09-02T12:34:35Z</time>
      </trkpt>
      <trkpt lat="40.557867" lon="-5.198450">
        <ele>2242.0</ele>
        <time>2018-09-02T12:34:36Z</time>
      </trkpt>
      <trkpt lat="40.557967" lon="-5.198333">
        <ele>2241.0</ele>
        <time>2018-09-02T12:34:37Z</time>
      </trkpt>
      <trkpt lat="40.558083" lon="-5.198233">
        <ele>2240.0</ele>
        <time>2018-09-02T12:34:38Z</time>
      </trkpt>
      <trkpt lat="40.558217" lon="-5.198100">
        <ele>2239.0</ele>
        <time>2018-09-02T12:34:39Z</time>
      </trkpt>
      <trkpt lat="40.558333" lon="-5.197983">
        <ele>2237.0</ele>
        <time>2018-09-02T12:34:40Z</time>
      </trkpt>
      <trkpt lat="40.558467" lon="-5.197867">
        <ele>2236.0</ele>
        <time>2018-09-02T12:34:41Z</time>
      </trkpt>
      <trkpt lat="40.558583" lon="-5.197767">
        <ele>2236.0</ele>
        <time>2018-09-02T12:34:42Z</time>
      </trkpt>
      <trkpt lat="40.558700" lon="-5.197667">
        <ele>2235.0</ele>
        <time>2018-09-02T12:34:43Z</time>
      </trkpt>
      <trkpt lat="40.558817" lon="-5.197567">
        <ele>2234.0</ele>
        <time>2018-09-02T12:34:44Z</time>
      </trkpt>
      <trkpt lat="40.558933" lon="-5.197450">
        <ele>2234.0</ele>
        <time>2018-09-02T12:34:45Z</time>
      </trkpt>
      <trkpt lat="40.559050" lon="-5.197350">
        <ele>2234.0</ele>
        <time>2018-09-02T12:34:46Z</time>
      </trkpt>
      <trkpt lat="40.559167" lon="-5.197233">
        <ele>2234.0</ele>
        <time>2018-09-02T12:34:47Z</time>
      </trkpt>
      <trkpt lat="40.559283" lon="-5.197133">
        <ele>2234.0</ele>
        <time>2018-09-02T12:34:48Z</time>
      </trkpt>
      <trkpt lat="40.559400" lon="-5.197033">
        <ele>2235.0</ele>
        <time>2018-09-02T12:34:49Z</time>
      </trkpt>
      <trkpt lat="40.559517" lon="-5.196917">
        <ele>2236.0</ele>
        <time>2018-09-02T12:34:50Z</time>
      </trkpt>
      <trkpt lat="40.559617" lon="-5.196817">
        <ele>2236.0</ele>
        <time>2018-09-02T12:34:51Z</time>
      </trkpt>
      <trkpt lat="40.559733" lon="-5.196717">
        <ele>2236.0</ele>
        <time>2018-09-02T12:34:52Z</time>
      </trkpt>
      <trkpt lat="40.559850" lon="-5.196617">
        <ele>2236.0</ele>
        <time>2018-09-02T12:34:53Z</time>
      </trkpt>
      <trkpt lat="40.559967" lon="-5.196517">
        <ele>2236.0</ele>
        <time>2018-09-02T12:34:54Z</time>
      </trkpt>
      <trkpt lat="40.560083" lon="-5.196400">
        <ele>2236.0</ele>
        <time>2018-09-02T12:34:55Z</time>
      </trkpt>
      <trkpt lat="40.560200" lon="-5.196300">
        <ele>2237.0</ele>
        <time>2018-09-02T12:34:56Z</time>
      </trkpt>
      <trkpt lat="40.560317" lon="-5.196183">
        <ele>2237.0</ele>
        <time>2018-09-02T12:34:57Z</time>
      </trkpt>
      <trkpt lat="40.560433" lon="-5.196083">
        <ele>2238.0</ele>
        <time>2018-09-02T12:34:58Z</time>
      </trkpt>
      <trkpt lat="40.560550" lon="-5.195983">
        <ele>2239.0</ele>
        <time>2018-09-02T12:34:59Z</time>
      </trkpt>
      <trkpt lat="40.560650" lon="-5.195883">
        <ele>2239.0</ele>
        <time>2018-09-02T12:35:00Z</time>
      </trkpt>
      <trkpt lat="40.560767" lon="-5.195783">
        <ele>2240.0</ele>
        <time>2018-09-02T12:35:01Z</time>
      </trkpt>
      <trkpt lat="40.560867" lon="-5.195667">
        <ele>2239.0</ele>
        <time>2018-09-02T12:35:02Z</time>
      </trkpt>
      <trkpt lat="40.560967" lon="-5.195550">
        <ele>2239.0</ele>
        <time>2018-09-02T12:35:03Z</time>
      </trkpt>
      <trkpt lat="40.561083" lon="-5.195433">
        <ele>2238.0</ele>
        <time>2018-09-02T12:35:04Z</time>
      </trkpt>
      <trkpt lat="40.561183" lon="-5.195317">
        <ele>2238.0</ele>
        <time>2018-09-02T12:35:05Z</time>
      </trkpt>
      <trkpt lat="40.561283" lon="-5.195200">
        <ele>2237.0</ele>
        <time>2018-09-02T12:35:06Z</time>
      </trkpt>
      <trkpt lat="40.561400" lon="-5.195083">
        <ele>2237.0</ele>
        <time>2018-09-02T12:35:07Z</time>
      </trkpt>
      <trkpt lat="40.561500" lon="-5.194967">
        <ele>2236.0</ele>
        <time>2018-09-02T12:35:08Z</time>
      </trkpt>
      <trkpt lat="40.561600" lon="-5.194833">
        <ele>2237.0</ele>
        <time>2018-09-02T12:35:09Z</time>
      </trkpt>
      <trkpt lat="40.561717" lon="-5.194700">
        <ele>2237.0</ele>
        <time>2018-09-02T12:35:10Z</time>
      </trkpt>
      <trkpt lat="40.561817" lon="-5.194583">
        <ele>2236.0</ele>
        <time>2018-09-02T12:35:11Z</time>
      </trkpt>
      <trkpt lat="40.561917" lon="-5.194450">
        <ele>2235.0</ele>
        <time>2018-09-02T12:35:12Z</time>
      </trkpt>
      <trkpt lat="40.562033" lon="-5.194350">
        <ele>2235.0</ele>
        <time>2018-09-02T12:35:13Z</time>
      </trkpt>
      <trkpt lat="40.562133" lon="-5.194233">
        <ele>2234.0</ele>
        <time>2018-09-02T12:35:14Z</time>
      </trkpt>
      <trkpt lat="40.562233" lon="-5.194117">
        <ele>2233.0</ele>
        <time>2018-09-02T12:35:15Z</time>
      </trkpt>
      <trkpt lat="40.562350" lon="-5.194017">
        <ele>2232.0</ele>
        <time>2018-09-02T12:35:16Z</time>
      </trkpt>
      <trkpt lat="40.562450" lon="-5.193900">
        <ele>2230.0</ele>
        <time>2018-09-02T12:35:17Z</time>
      </trkpt>
      <trkpt lat="40.562567" lon="-5.193783">
        <ele>2229.0</ele>
        <time>2018-09-02T12:35:18Z</time>
      </trkpt>
      <trkpt lat="40.562667" lon="-5.193650">
        <ele>2229.0</ele>
        <time>2018-09-02T12:35:19Z</time>
      </trkpt>
      <trkpt lat="40.562767" lon="-5.193550">
        <ele>2228.0</ele>
        <time>2018-09-02T12:35:20Z</time>
      </trkpt>
      <trkpt lat="40.562850" lon="-5.193433">
        <ele>2226.0</ele>
        <time>2018-09-02T12:35:21Z</time>
      </trkpt>
      <trkpt lat="40.562967" lon="-5.193300">
        <ele>2224.0</ele>
        <time>2018-09-02T12:35:22Z</time>
      </trkpt>
      <trkpt lat="40.563067" lon="-5.193183">
        <ele>2222.0</ele>
        <time>2018-09-02T12:35:23Z</time>
      </trkpt>
      <trkpt lat="40.563183" lon="-5.193067">
        <ele>2220.0</ele>
        <time>2018-09-02T12:35:24Z</time>
      </trkpt>
      <trkpt lat="40.563283" lon="-5.192933">
        <ele>2218.0</ele>
        <time>2018-09-02T12:35:25Z</time>
      </trkpt>
      <trkpt lat="40.563383" lon="-5.192817">
        <ele>2216.0</ele>
        <time>2018-09-02T12:35:26Z</time>
      </trkpt>
      <trkpt lat="40.563483" lon="-5.192700">
        <ele>2215.0</ele>
        <time>2018-09-02T12:35:27Z</time>
      </trkpt>
      <trkpt lat="40.563583" lon="-5.192583">
        <ele>2213.0</ele>
        <time>2018-09-02T12:35:28Z</time>
      </trkpt>
      <trkpt lat="40.563700" lon="-5.192467">
        <ele>2212.0</ele>
        <time>2018-09-02T12:35:29Z</time>
      </trkpt>
      <trkpt lat="40.563800" lon="-5.192350">
        <ele>2210.0</ele>
        <time>2018-09-02T12:35:30Z</time>
      </trkpt>
      <trkpt lat="40.563917" lon="-5.192233">
        <ele>2210.0</ele>
        <time>2018-09-02T12:35:31Z</time>
      </trkpt>
      <trkpt lat="40.564033" lon="-5.192133">
        <ele>2210.0</ele>
        <time>2018-09-02T12:35:32Z</time>
      </trkpt>
      <trkpt lat="40.564133" lon="-5.192033">
        <ele>2209.0</ele>
        <time>2018-09-02T12:35:33Z</time>
      </trkpt>
      <trkpt lat="40.564250" lon="-5.191917">
        <ele>2209.0</ele>
        <time>2018-09-02T12:35:34Z</time>
      </trkpt>
      <trkpt lat="40.564350" lon="-5.191800">
        <ele>2209.0</ele>
        <time>2018-09-02T12:35:35Z</time>
      </trkpt>
      <trkpt lat="40.564467" lon="-5.191683">
        <ele>2208.0</ele>
        <time>2018-09-02T12:35:36Z</time>
      </trkpt>
      <trkpt lat="40.564583" lon="-5.191583">
        <ele>2207.0</ele>
        <time>2018-09-02T12:35:37Z</time>
      </trkpt>
      <trkpt lat="40.564683" lon="-5.191483">
        <ele>2207.0</ele>
        <time>2018-09-02T12:35:38Z</time>
      </trkpt>
      <trkpt lat="40.564783" lon="-5.191383">
        <ele>2206.0</ele>
        <time>2018-09-02T12:35:39Z</time>
      </trkpt>
      <trkpt lat="40.564867" lon="-5.191267">
        <ele>2206.0</ele>
        <time>2018-09-02T12:35:40Z</time>
      </trkpt>
      <trkpt lat="40.564950" lon="-5.191167">
        <ele>2205.0</ele>
        <time>2018-09-02T12:35:41Z</time>
      </trkpt>
      <trkpt lat="40.565033" lon="-5.191067">
        <ele>2204.0</ele>
        <time>2018-09-02T12:35:42Z</time>
      </trkpt>
      <trkpt lat="40.565133" lon="-5.190950">
        <ele>2204.0</ele>
        <time>2018-09-02T12:35:43Z</time>
      </trkpt>
      <trkpt lat="40.565217" lon="-5.190850">
        <ele>2203.0</ele>
        <time>2018-09-02T12:35:44Z</time>
      </trkpt>
      <trkpt lat="40.565317" lon="-5.190733">
        <ele>2202.0</ele>
        <time>2018-09-02T12:35:45Z</time>
      </trkpt>
      <trkpt lat="40.565433" lon="-5.190650">
        <ele>2200.0</ele>
        <time>2018-09-02T12:35:46Z</time>
      </trkpt>
      <trkpt lat="40.565533" lon="-5.190550">
        <ele>2199.0</ele>
        <time>2018-09-02T12:35:47Z</time>
      </trkpt>
      <trkpt lat="40.565650" lon="-5.190450">
        <ele>2197.0</ele>
        <time>2018-09-02T12:35:48Z</time>
      </trkpt>
      <trkpt lat="40.565767" lon="-5.190333">
        <ele>2194.0</ele>
        <time>2018-09-02T12:35:49Z</time>
      </trkpt>
      <trkpt lat="40.565883" lon="-5.190200">
        <ele>2192.0</ele>
        <time>2018-09-02T12:35:50Z</time>
      </trkpt>
      <trkpt lat="40.565983" lon="-5.190067">
        <ele>2190.0</ele>
        <time>2018-09-02T12:35:51Z</time>
      </trkpt>
      <trkpt lat="40.566083" lon="-5.189950">
        <ele>2188.0</ele>
        <time>2018-09-02T12:35:52Z</time>
      </trkpt>
      <trkpt lat="40.566200" lon="-5.189817">
        <ele>2186.0</ele>
        <time>2018-09-02T12:35:53Z</time>
      </trkpt>
      <trkpt lat="40.566300" lon="-5.189683">
        <ele>2184.0</ele>
        <time>2018-09-02T12:35:54Z</time>
      </trkpt>
      <trkpt lat="40.566400" lon="-5.189550">
        <ele>2182.0</ele>
        <time>2018-09-02T12:35:55Z</time>
      </trkpt>
      <trkpt lat="40.566483" lon="-5.189433">
        <ele>2181.0</ele>
        <time>2018-09-02T12:35:56Z</time>
      </trkpt>
      <trkpt lat="40.566567" lon="-5.189317">
        <ele>2179.0</ele>
        <time>2018-09-02T12:35:57Z</time>
      </trkpt>
      <trkpt lat="40.566650" lon="-5.189200">
        <ele>2178.0</ele>
        <time>2018-09-02T12:35:58Z</time>
      </trkpt>
      <trkpt lat="40.566733" lon="-5.189083">
        <ele>2176.0</ele>
        <time>2018-09-02T12:35:59Z</time>
      </trkpt>
      <trkpt lat="40.566833" lon="-5.188967">
        <ele>2175.0</ele>
        <time>2018-09-02T12:36:00Z</time>
      </trkpt>
      <trkpt lat="40.566950" lon="-5.188850">
        <ele>2173.0</ele>
        <time>2018-09-02T12:36:01Z</time>
      </trkpt>
      <trkpt lat="40.567050" lon="-5.188750">
        <ele>2172.0</ele>
        <time>2018-09-02T12:36:02Z</time>
      </trkpt>
      <trkpt lat="40.567150" lon="-5.188650">
        <ele>2170.0</ele>
        <time>2018-09-02T12:36:03Z</time>
      </trkpt>
      <trkpt lat="40.567250" lon="-5.188533">
        <ele>2169.0</ele>
        <time>2018-09-02T12:36:04Z</time>
      </trkpt>
      <trkpt lat="40.567333" lon="-5.188450">
        <ele>2170.0</ele>
        <time>2018-09-02T12:36:05Z</time>
      </trkpt>
      <trkpt lat="40.567433" lon="-5.188350">
        <ele>2168.0</ele>
        <time>2018-09-02T12:36:06Z</time>
      </trkpt>
      <trkpt lat="40.567517" lon="-5.188233">
        <ele>2167.0</ele>
        <time>2018-09-02T12:36:07Z</time>
      </trkpt>
      <trkpt lat="40.567617" lon="-5.188117">
        <ele>2166.0</ele>
        <time>2018-09-02T12:36:08Z</time>
      </trkpt>
      <trkpt lat="40.567750" lon="-5.188017">
        <ele>2164.0</ele>
        <time>2018-09-02T12:36:09Z</time>
      </trkpt>
      <trkpt lat="40.567867" lon="-5.187917">
        <ele>2162.0</ele>
        <time>2018-09-02T12:36:10Z</time>
      </trkpt>
      <trkpt lat="40.567983" lon="-5.187833">
        <ele>2159.0</ele>
        <time>2018-09-02T12:36:11Z</time>
      </trkpt>
      <trkpt lat="40.568100" lon="-5.187717">
        <ele>2157.0</ele>
        <time>2018-09-02T12:36:12Z</time>
      </trkpt>
      <trkpt lat="40.568200" lon="-5.187600">
        <ele>2155.0</ele>
        <time>2018-09-02T12:36:13Z</time>
      </trkpt>
      <trkpt lat="40.568317" lon="-5.187483">
        <ele>2151.0</ele>
        <time>2018-09-02T12:36:14Z</time>
      </trkpt>
      <trkpt lat="40.568433" lon="-5.187367">
        <ele>2147.0</ele>
        <time>2018-09-02T12:36:15Z</time>
      </trkpt>
      <trkpt lat="40.568567" lon="-5.187233">
        <ele>2143.0</ele>
        <time>2018-09-02T12:36:16Z</time>
      </trkpt>
      <trkpt lat="40.568717" lon="-5.187100">
        <ele>2140.0</ele>
        <time>2018-09-02T12:36:17Z</time>
      </trkpt>
      <trkpt lat="40.568850" lon="-5.186967">
        <ele>2138.0</ele>
        <time>2018-09-02T12:36:18Z</time>
      </trkpt>
      <trkpt lat="40.568967" lon="-5.186850">
        <ele>2137.0</ele>
        <time>2018-09-02T12:36:19Z</time>
      </trkpt>
      <trkpt lat="40.569100" lon="-5.186733">
        <ele>2139.0</ele>
        <time>2018-09-02T12:36:20Z</time>
      </trkpt>
      <trkpt lat="40.569217" lon="-5.186633">
        <ele>2140.0</ele>
        <time>2018-09-02T12:36:21Z</time>
      </trkpt>
      <trkpt lat="40.569350" lon="-5.186517">
        <ele>2141.0</ele>
        <time>2018-09-02T12:36:22Z</time>
      </trkpt>
      <trkpt lat="40.569467" lon="-5.186417">
        <ele>2147.0</ele>
        <time>2018-09-02T12:36:23Z</time>
      </trkpt>
      <trkpt lat="40.569583" lon="-5.186317">
        <ele>2149.0</ele>
        <time>2018-09-02T12:36:24Z</time>
      </trkpt>
      <trkpt lat="40.569717" lon="-5.186183">
        <ele>2150.0</ele>
        <time>2018-09-02T12:36:25Z</time>
      </trkpt>
      <trkpt lat="40.569833" lon="-5.186033">
        <ele>2152.0</ele>
        <time>2018-09-02T12:36:26Z</time>
      </trkpt>
      <trkpt lat="40.569933" lon="-5.185850">
        <ele>2154.0</ele>
        <time>2018-09-02T12:36:27Z</time>
      </trkpt>
      <trkpt lat="40.569983" lon="-5.185650">
        <ele>2156.0</ele>
        <time>2018-09-02T12:36:28Z</time>
      </trkpt>
      <trkpt lat="40.569950" lon="-5.185383">
        <ele>2163.0</ele>
        <time>2018-09-02T12:36:30Z</time>
      </trkpt>
      <trkpt lat="40.569900" lon="-5.185317">
        <ele>2164.0</ele>
        <time>2018-09-02T12:36:31Z</time>
      </trkpt>
      <trkpt lat="40.569867" lon="-5.185300">
        <ele>2157.0</ele>
        <time>2018-09-02T12:36:32Z</time>
      </trkpt>
      <trkpt lat="40.569817" lon="-5.185300">
        <ele>2157.0</ele>
        <time>2018-09-02T12:36:33Z</time>
      </trkpt>
      <trkpt lat="40.569783" lon="-5.185333">
        <ele>2157.0</ele>
        <time>2018-09-02T12:36:34Z</time>
      </trkpt>
      <trkpt lat="40.570200" lon="-5.185383">
        <ele>2158.0</ele>
        <time>2018-09-02T12:36:38Z</time>
      </trkpt>
      <trkpt lat="40.570350" lon="-5.185250">
        <ele>2158.0</ele>
        <time>2018-09-02T12:36:39Z</time>
      </trkpt>
      <trkpt lat="40.570433" lon="-5.185083">
        <ele>2159.0</ele>
        <time>2018-09-02T12:36:40Z</time>
      </trkpt>
      <trkpt lat="40.570483" lon="-5.184717">
        <ele>2160.0</ele>
        <time>2018-09-02T12:36:42Z</time>
      </trkpt>
      <trkpt lat="40.570450" lon="-5.184583">
        <ele>2161.0</ele>
        <time>2018-09-02T12:36:43Z</time>
      </trkpt>
      <trkpt lat="40.570383" lon="-5.184500">
        <ele>2162.0</ele>
        <time>2018-09-02T12:36:44Z</time>
      </trkpt>
      <trkpt lat="40.570317" lon="-5.184483">
        <ele>2163.0</ele>
        <time>2018-09-02T12:36:45Z</time>
      </trkpt>
      <trkpt lat="40.570267" lon="-5.184517">
        <ele>2162.0</ele>
        <time>2018-09-02T12:36:46Z</time>
      </trkpt>
      <trkpt lat="40.570267" lon="-5.184600">
        <ele>2163.0</ele>
        <time>2018-09-02T12:36:47Z</time>
      </trkpt>
      <trkpt lat="40.570317" lon="-5.184683">
        <ele>2163.0</ele>
        <time>2018-09-02T12:36:48Z</time>
      </trkpt>
      <trkpt lat="40.570433" lon="-5.184733">
        <ele>2164.0</ele>
        <time>2018-09-02T12:36:49Z</time>
      </trkpt>
      <trkpt lat="40.570583" lon="-5.184717">
        <ele>2164.0</ele>
        <time>2018-09-02T12:36:50Z</time>
      </trkpt>
      <trkpt lat="40.570733" lon="-5.184550">
        <ele>2164.0</ele>
        <time>2018-09-02T12:36:51Z</time>
      </trkpt>
      <trkpt lat="40.570833" lon="-5.184367">
        <ele>2165.0</ele>
        <time>2018-09-02T12:36:52Z</time>
      </trkpt>
      <trkpt lat="40.570883" lon="-5.184150">
        <ele>2166.0</ele>
        <time>2018-09-02T12:36:53Z</time>
      </trkpt>
      <trkpt lat="40.570850" lon="-5.183967">
        <ele>2166.0</ele>
        <time>2018-09-02T12:36:54Z</time>
      </trkpt>
      <trkpt lat="40.570800" lon="-5.183850">
        <ele>2167.0</ele>
        <time>2018-09-02T12:36:55Z</time>
      </trkpt>
      <trkpt lat="40.570733" lon="-5.183783">
        <ele>2167.0</ele>
        <time>2018-09-02T12:36:56Z</time>
      </trkpt>
      <trkpt lat="40.570700" lon="-5.183800">
        <ele>2167.0</ele>
        <time>2018-09-02T12:36:57Z</time>
      </trkpt>
      <trkpt lat="40.570717" lon="-5.183883">
        <ele>2167.0</ele>
        <time>2018-09-02T12:36:58Z</time>
      </trkpt>
      <trkpt lat="40.570800" lon="-5.183967">
        <ele>2168.0</ele>
        <time>2018-09-02T12:36:59Z</time>
      </trkpt>
      <trkpt lat="40.570900" lon="-5.184050">
        <ele>2168.0</ele>
        <time>2018-09-02T12:37:00Z</time>
      </trkpt>
      <trkpt lat="40.571050" lon="-5.184083">
        <ele>2170.0</ele>
        <time>2018-09-02T12:37:01Z</time>
      </trkpt>
      <trkpt lat="40.571183" lon="-5.184033">
        <ele>2171.0</ele>
        <time>2018-09-02T12:37:02Z</time>
      </trkpt>
      <trkpt lat="40.571333" lon="-5.183933">
        <ele>2172.0</ele>
        <time>2018-09-02T12:37:03Z</time>
      </trkpt>
      <trkpt lat="40.571433" lon="-5.183800">
        <ele>2173.0</ele>
        <time>2018-09-02T12:37:04Z</time>
      </trkpt>
      <trkpt lat="40.571533" lon="-5.183650">
        <ele>2175.0</ele>
        <time>2018-09-02T12:37:05Z</time>
      </trkpt>
      <trkpt lat="40.571600" lon="-5.183500">
        <ele>2179.0</ele>
        <time>2018-09-02T12:37:06Z</time>
      </trkpt>
      <trkpt lat="40.571633" lon="-5.183333">
        <ele>2181.0</ele>
        <time>2018-09-02T12:37:07Z</time>
      </trkpt>
      <trkpt lat="40.571650" lon="-5.183167">
        <ele>2183.0</ele>
        <time>2018-09-02T12:37:08Z</time>
      </trkpt>
      <trkpt lat="40.571633" lon="-5.182983">
        <ele>2184.0</ele>
        <time>2018-09-02T12:37:09Z</time>
      </trkpt>
      <trkpt lat="40.571600" lon="-5.182850">
        <ele>2187.0</ele>
        <time>2018-09-02T12:37:10Z</time>
      </trkpt>
      <trkpt lat="40.571533" lon="-5.182783">
        <ele>2188.0</ele>
        <time>2018-09-02T12:37:11Z</time>
      </trkpt>
      <trkpt lat="40.571483" lon="-5.182733">
        <ele>2186.0</ele>
        <time>2018-09-02T12:37:12Z</time>
      </trkpt>
      <trkpt lat="40.571450" lon="-5.182750">
        <ele>2187.0</ele>
        <time>2018-09-02T12:37:13Z</time>
      </trkpt>
      <trkpt lat="40.571467" lon="-5.182817">
        <ele>2188.0</ele>
        <time>2018-09-02T12:37:14Z</time>
      </trkpt>
      <trkpt lat="40.571533" lon="-5.182917">
        <ele>2188.0</ele>
        <time>2018-09-02T12:37:15Z</time>
      </trkpt>
      <trkpt lat="40.571617" lon="-5.182983">
        <ele>2189.0</ele>
        <time>2018-09-02T12:37:16Z</time>
      </trkpt>
      <trkpt lat="40.571717" lon="-5.183050">
        <ele>2190.0</ele>
        <time>2018-09-02T12:37:17Z</time>
      </trkpt>
      <trkpt lat="40.571817" lon="-5.183100">
        <ele>2192.0</ele>
        <time>2018-09-02T12:37:18Z</time>
      </trkpt>
      <trkpt lat="40.571933" lon="-5.183133">
        <ele>2195.0</ele>
        <time>2018-09-02T12:37:19Z</time>
      </trkpt>
      <trkpt lat="40.572050" lon="-5.183133">
        <ele>2198.0</ele>
        <time>2018-09-02T12:37:20Z</time>
      </trkpt>
      <trkpt lat="40.572183" lon="-5.183117">
        <ele>2199.0</ele>
        <time>2018-09-02T12:37:21Z</time>
      </trkpt>
      <trkpt lat="40.572317" lon="-5.183083">
        <ele>2201.0</ele>
        <time>2018-09-02T12:37:22Z</time>
      </trkpt>
      <trkpt lat="40.572450" lon="-5.183000">
        <ele>2202.0</ele>
        <time>2018-09-02T12:37:23Z</time>
      </trkpt>
      <trkpt lat="40.572583" lon="-5.182867">
        <ele>2205.0</ele>
        <time>2018-09-02T12:37:24Z</time>
      </trkpt>
      <trkpt lat="40.572683" lon="-5.182683">
        <ele>2206.0</ele>
        <time>2018-09-02T12:37:25Z</time>
      </trkpt>
      <trkpt lat="40.572733" lon="-5.182500">
        <ele>2207.0</ele>
        <time>2018-09-02T12:37:26Z</time>
      </trkpt>
      <trkpt lat="40.572750" lon="-5.182317">
        <ele>2208.0</ele>
        <time>2018-09-02T12:37:27Z</time>
      </trkpt>
      <trkpt lat="40.572733" lon="-5.182167">
        <ele>2209.0</ele>
        <time>2018-09-02T12:37:28Z</time>
      </trkpt>
      <trkpt lat="40.572683" lon="-5.182067">
        <ele>2211.0</ele>
        <time>2018-09-02T12:37:29Z</time>
      </trkpt>
      <trkpt lat="40.572633" lon="-5.182017">
        <ele>2210.0</ele>
        <time>2018-09-02T12:37:30Z</time>
      </trkpt>
      <trkpt lat="40.572550" lon="-5.182000">
        <ele>2210.0</ele>
        <time>2018-09-02T12:37:31Z</time>
      </trkpt>
      <trkpt lat="40.572500" lon="-5.182017">
        <ele>2210.0</ele>
        <time>2018-09-02T12:37:32Z</time>
      </trkpt>
      <trkpt lat="40.572450" lon="-5.182050">
        <ele>2210.0</ele>
        <time>2018-09-02T12:37:33Z</time>
      </trkpt>
      <trkpt lat="40.572450" lon="-5.182083">
        <ele>2210.0</ele>
        <time>2018-09-02T12:37:34Z</time>
      </trkpt>
      <trkpt lat="40.572467" lon="-5.182133">
        <ele>2211.0</ele>
        <time>2018-09-02T12:37:35Z</time>
      </trkpt>
      <trkpt lat="40.572467" lon="-5.182183">
        <ele>2211.0</ele>
        <time>2018-09-02T12:37:36Z</time>
      </trkpt>
      <trkpt lat="40.572467" lon="-5.182233">
        <ele>2212.0</ele>
        <time>2018-09-02T12:37:37Z</time>
      </trkpt>
      <trkpt lat="40.572483" lon="-5.182283">
        <ele>2212.0</ele>
        <time>2018-09-02T12:37:38Z</time>
      </trkpt>
      <trkpt lat="40.572483" lon="-5.182333">
        <ele>2212.0</ele>
        <time>2018-09-02T12:37:39Z</time>
      </trkpt>
      <trkpt lat="40.572500" lon="-5.182383">
        <ele>2213.0</ele>
        <time>2018-09-02T12:37:40Z</time>
      </trkpt>
      <trkpt lat="40.572517" lon="-5.182433">
        <ele>2215.0</ele>
        <time>2018-09-02T12:37:41Z</time>
      </trkpt>
      <trkpt lat="40.572533" lon="-5.182500">
        <ele>2217.0</ele>
        <time>2018-09-02T12:37:42Z</time>
      </trkpt>
      <trkpt lat="40.572550" lon="-5.182567">
        <ele>2220.0</ele>
        <time>2018-09-02T12:37:43Z</time>
      </trkpt>
      <trkpt lat="40.572600" lon="-5.182667">
        <ele>2222.0</ele>
        <time>2018-09-02T12:37:44Z</time>
      </trkpt>
      <trkpt lat="40.572700" lon="-5.182750">
        <ele>2224.0</ele>
        <time>2018-09-02T12:37:45Z</time>
      </trkpt>
      <trkpt lat="40.572800" lon="-5.182817">
        <ele>2228.0</ele>
        <time>2018-09-02T12:37:46Z</time>
      </trkpt>
      <trkpt lat="40.572917" lon="-5.182800">
        <ele>2230.0</ele>
        <time>2018-09-02T12:37:47Z</time>
      </trkpt>
      <trkpt lat="40.573017" lon="-5.182750">
        <ele>2233.0</ele>
        <time>2018-09-02T12:37:48Z</time>
      </trkpt>
      <trkpt lat="40.573100" lon="-5.182633">
        <ele>2235.0</ele>
        <time>2018-09-02T12:37:49Z</time>
      </trkpt>
      <trkpt lat="40.573167" lon="-5.182500">
        <ele>2237.0</ele>
        <time>2018-09-02T12:37:50Z</time>
      </trkpt>
      <trkpt lat="40.573183" lon="-5.182350">
        <ele>2238.0</ele>
        <time>2018-09-02T12:37:51Z</time>
      </trkpt>
      <trkpt lat="40.573183" lon="-5.182200">
        <ele>2240.0</ele>
        <time>2018-09-02T12:37:52Z</time>
      </trkpt>
      <trkpt lat="40.573100" lon="-5.182033">
        <ele>2244.0</ele>
        <time>2018-09-02T12:37:54Z</time>
      </trkpt>
      <trkpt lat="40.573050" lon="-5.182017">
        <ele>2237.0</ele>
        <time>2018-09-02T12:37:55Z</time>
      </trkpt>
      <trkpt lat="40.573000" lon="-5.182083">
        <ele>2237.0</ele>
        <time>2018-09-02T12:37:56Z</time>
      </trkpt>
      <trkpt lat="40.573017" lon="-5.182200">
        <ele>2237.0</ele>
        <time>2018-09-02T12:37:57Z</time>
      </trkpt>
      <trkpt lat="40.573050" lon="-5.182300">
        <ele>2238.0</ele>
        <time>2018-09-02T12:37:58Z</time>
      </trkpt>
      <trkpt lat="40.573133" lon="-5.182350">
        <ele>2238.0</ele>
        <time>2018-09-02T12:37:59Z</time>
      </trkpt>
      <trkpt lat="40.573233" lon="-5.182350">
        <ele>2239.0</ele>
        <time>2018-09-02T12:38:00Z</time>
      </trkpt>
      <trkpt lat="40.573333" lon="-5.182250">
        <ele>2240.0</ele>
        <time>2018-09-02T12:38:01Z</time>
      </trkpt>
      <trkpt lat="40.573417" lon="-5.182100">
        <ele>2240.0</ele>
        <time>2018-09-02T12:38:02Z</time>
      </trkpt>
      <trkpt lat="40.573450" lon="-5.181933">
        <ele>2240.0</ele>
        <time>2018-09-02T12:38:03Z</time>
      </trkpt>
      <trkpt lat="40.573433" lon="-5.181800">
        <ele>2240.0</ele>
        <time>2018-09-02T12:38:04Z</time>
      </trkpt>
      <trkpt lat="40.573383" lon="-5.181700">
        <ele>2241.0</ele>
        <time>2018-09-02T12:38:05Z</time>
      </trkpt>
      <trkpt lat="40.573333" lon="-5.181683">
        <ele>2242.0</ele>
        <time>2018-09-02T12:38:06Z</time>
      </trkpt>
      <trkpt lat="40.573283" lon="-5.181717">
        <ele>2242.0</ele>
        <time>2018-09-02T12:38:07Z</time>
      </trkpt>
      <trkpt lat="40.573267" lon="-5.181817">
        <ele>2243.0</ele>
        <time>2018-09-02T12:38:08Z</time>
      </trkpt>
      <trkpt lat="40.573317" lon="-5.181917">
        <ele>2244.0</ele>
        <time>2018-09-02T12:38:09Z</time>
      </trkpt>
      <trkpt lat="40.573400" lon="-5.182000">
        <ele>2244.0</ele>
        <time>2018-09-02T12:38:10Z</time>
      </trkpt>
      <trkpt lat="40.573500" lon="-5.181983">
        <ele>2245.0</ele>
        <time>2018-09-02T12:38:11Z</time>
      </trkpt>
      <trkpt lat="40.573600" lon="-5.181900">
        <ele>2246.0</ele>
        <time>2018-09-02T12:38:12Z</time>
      </trkpt>
      <trkpt lat="40.573683" lon="-5.181767">
        <ele>2246.0</ele>
        <time>2018-09-02T12:38:13Z</time>
      </trkpt>
      <trkpt lat="40.573683" lon="-5.181617">
        <ele>2246.0</ele>
        <time>2018-09-02T12:38:14Z</time>
      </trkpt>
      <trkpt lat="40.573650" lon="-5.181483">
        <ele>2247.0</ele>
        <time>2018-09-02T12:38:15Z</time>
      </trkpt>
      <trkpt lat="40.573583" lon="-5.181417">
        <ele>2249.0</ele>
        <time>2018-09-02T12:38:16Z</time>
      </trkpt>
      <trkpt lat="40.573517" lon="-5.181433">
        <ele>2250.0</ele>
        <time>2018-09-02T12:38:17Z</time>
      </trkpt>
      <trkpt lat="40.573467" lon="-5.181483">
        <ele>2251.0</ele>
        <time>2018-09-02T12:38:18Z</time>
      </trkpt>
      <trkpt lat="40.573467" lon="-5.181567">
        <ele>2252.0</ele>
        <time>2018-09-02T12:38:19Z</time>
      </trkpt>
      <trkpt lat="40.573500" lon="-5.181633">
        <ele>2253.0</ele>
        <time>2018-09-02T12:38:20Z</time>
      </trkpt>
      <trkpt lat="40.573567" lon="-5.181700">
        <ele>2254.0</ele>
        <time>2018-09-02T12:38:21Z</time>
      </trkpt>
      <trkpt lat="40.573633" lon="-5.181750">
        <ele>2255.0</ele>
        <time>2018-09-02T12:38:22Z</time>
      </trkpt>
      <trkpt lat="40.573733" lon="-5.181767">
        <ele>2255.0</ele>
        <time>2018-09-02T12:38:23Z</time>
      </trkpt>
      <trkpt lat="40.573833" lon="-5.181717">
        <ele>2256.0</ele>
        <time>2018-09-02T12:38:24Z</time>
      </trkpt>
      <trkpt lat="40.573917" lon="-5.181600">
        <ele>2256.0</ele>
        <time>2018-09-02T12:38:25Z</time>
      </trkpt>
      <trkpt lat="40.573967" lon="-5.181450">
        <ele>2257.0</ele>
        <time>2018-09-02T12:38:26Z</time>
      </trkpt>
      <trkpt lat="40.573950" lon="-5.181300">
        <ele>2257.0</ele>
        <time>2018-09-02T12:38:27Z</time>
      </trkpt>
      <trkpt lat="40.573917" lon="-5.181183">
        <ele>2258.0</ele>
        <time>2018-09-02T12:38:28Z</time>
      </trkpt>
      <trkpt lat="40.573833" lon="-5.181100">
        <ele>2259.0</ele>
        <time>2018-09-02T12:38:29Z</time>
      </trkpt>
      <trkpt lat="40.573767" lon="-5.181083">
        <ele>2262.0</ele>
        <time>2018-09-02T12:38:30Z</time>
      </trkpt>
      <trkpt lat="40.573717" lon="-5.181083">
        <ele>2266.0</ele>
        <time>2018-09-02T12:38:31Z</time>
      </trkpt>
      <trkpt lat="40.573667" lon="-5.181083">
        <ele>2270.0</ele>
        <time>2018-09-02T12:38:32Z</time>
      </trkpt>
      <trkpt lat="40.573617" lon="-5.181083">
        <ele>2266.0</ele>
        <time>2018-09-02T12:38:33Z</time>
      </trkpt>
      <trkpt lat="40.573567" lon="-5.181100">
        <ele>2267.0</ele>
        <time>2018-09-02T12:38:34Z</time>
      </trkpt>
      <trkpt lat="40.573533" lon="-5.181117">
        <ele>2268.0</ele>
        <time>2018-09-02T12:38:35Z</time>
      </trkpt>
      <trkpt lat="40.573500" lon="-5.181183">
        <ele>2269.0</ele>
        <time>2018-09-02T12:38:36Z</time>
      </trkpt>
      <trkpt lat="40.573517" lon="-5.181267">
        <ele>2270.0</ele>
        <time>2018-09-02T12:38:37Z</time>
      </trkpt>
      <trkpt lat="40.573583" lon="-5.181350">
        <ele>2270.0</ele>
        <time>2018-09-02T12:38:38Z</time>
      </trkpt>
      <trkpt lat="40.573667" lon="-5.181383">
        <ele>2271.0</ele>
        <time>2018-09-02T12:38:39Z</time>
      </trkpt>
      <trkpt lat="40.573783" lon="-5.181383">
        <ele>2271.0</ele>
        <time>2018-09-02T12:38:40Z</time>
      </trkpt>
      <trkpt lat="40.573883" lon="-5.181317">
        <ele>2271.0</ele>
        <time>2018-09-02T12:38:41Z</time>
      </trkpt>
      <trkpt lat="40.573967" lon="-5.181200">
        <ele>2272.0</ele>
        <time>2018-09-02T12:38:42Z</time>
      </trkpt>
      <trkpt lat="40.574017" lon="-5.181083">
        <ele>2272.0</ele>
        <time>2018-09-02T12:38:43Z</time>
      </trkpt>
      <trkpt lat="40.574033" lon="-5.180950">
        <ele>2273.0</ele>
        <time>2018-09-02T12:38:44Z</time>
      </trkpt>
      <trkpt lat="40.574050" lon="-5.180817">
        <ele>2275.0</ele>
        <time>2018-09-02T12:38:45Z</time>
      </trkpt>
      <trkpt lat="40.574050" lon="-5.180683">
        <ele>2277.0</ele>
        <time>2018-09-02T12:38:46Z</time>
      </trkpt>
      <trkpt lat="40.574033" lon="-5.180567">
        <ele>2278.0</ele>
        <time>2018-09-02T12:38:47Z</time>
      </trkpt>
      <trkpt lat="40.574017" lon="-5.180483">
        <ele>2280.0</ele>
        <time>2018-09-02T12:38:48Z</time>
      </trkpt>
      <trkpt lat="40.573967" lon="-5.180417">
        <ele>2280.0</ele>
        <time>2018-09-02T12:38:49Z</time>
      </trkpt>
      <trkpt lat="40.573900" lon="-5.180367">
        <ele>2282.0</ele>
        <time>2018-09-02T12:38:50Z</time>
      </trkpt>
      <trkpt lat="40.573833" lon="-5.180350">
        <ele>2283.0</ele>
        <time>2018-09-02T12:38:51Z</time>
      </trkpt>
      <trkpt lat="40.573783" lon="-5.180333">
        <ele>2286.0</ele>
        <time>2018-09-02T12:38:52Z</time>
      </trkpt>
      <trkpt lat="40.573733" lon="-5.180317">
        <ele>2289.0</ele>
        <time>2018-09-02T12:38:53Z</time>
      </trkpt>
      <trkpt lat="40.573700" lon="-5.180317">
        <ele>2291.0</ele>
        <time>2018-09-02T12:38:54Z</time>
      </trkpt>
      <trkpt lat="40.573667" lon="-5.180317">
        <ele>2293.0</ele>
        <time>2018-09-02T12:38:55Z</time>
      </trkpt>
      <trkpt lat="40.573633" lon="-5.180350">
        <ele>2294.0</ele>
        <time>2018-09-02T12:38:56Z</time>
      </trkpt>
      <trkpt lat="40.573633" lon="-5.180400">
        <ele>2293.0</ele>
        <time>2018-09-02T12:38:57Z</time>
      </trkpt>
      <trkpt lat="40.573650" lon="-5.180467">
        <ele>2293.0</ele>
        <time>2018-09-02T12:38:58Z</time>
      </trkpt>
      <trkpt lat="40.573683" lon="-5.180533">
        <ele>2293.0</ele>
        <time>2018-09-02T12:38:59Z</time>
      </trkpt>
      <trkpt lat="40.573767" lon="-5.180583">
        <ele>2292.0</ele>
        <time>2018-09-02T12:39:00Z</time>
      </trkpt>
      <trkpt lat="40.573867" lon="-5.180600">
        <ele>2291.0</ele>
        <time>2018-09-02T12:39:01Z</time>
      </trkpt>
      <trkpt lat="40.573967" lon="-5.180567">
        <ele>2291.0</ele>
        <time>2018-09-02T12:39:02Z</time>
      </trkpt>
      <trkpt lat="40.574083" lon="-5.180483">
        <ele>2290.0</ele>
        <time>2018-09-02T12:39:03Z</time>
      </trkpt>
      <trkpt lat="40.574167" lon="-5.180367">
        <ele>2289.0</ele>
        <time>2018-09-02T12:39:04Z</time>
      </trkpt>
      <trkpt lat="40.574233" lon="-5.180233">
        <ele>2288.0</ele>
        <time>2018-09-02T12:39:05Z</time>
      </trkpt>
      <trkpt lat="40.574250" lon="-5.180100">
        <ele>2285.0</ele>
        <time>2018-09-02T12:39:06Z</time>
      </trkpt>
      <trkpt lat="40.574250" lon="-5.179983">
        <ele>2282.0</ele>
        <time>2018-09-02T12:39:07Z</time>
      </trkpt>
      <trkpt lat="40.574250" lon="-5.179833">
        <ele>2280.0</ele>
        <time>2018-09-02T12:39:08Z</time>
      </trkpt>
      <trkpt lat="40.574200" lon="-5.179717">
        <ele>2279.0</ele>
        <time>2018-09-02T12:39:09Z</time>
      </trkpt>
      <trkpt lat="40.574133" lon="-5.179650">
        <ele>2278.0</ele>
        <time>2018-09-02T12:39:10Z</time>
      </trkpt>
      <trkpt lat="40.574067" lon="-5.179650">
        <ele>2276.0</ele>
        <time>2018-09-02T12:39:11Z</time>
      </trkpt>
      <trkpt lat="40.574017" lon="-5.179667">
        <ele>2275.0</ele>
        <time>2018-09-02T12:39:12Z</time>
      </trkpt>
      <trkpt lat="40.573967" lon="-5.179667">
        <ele>2275.0</ele>
        <time>2018-09-02T12:39:13Z</time>
      </trkpt>
      <trkpt lat="40.573933" lon="-5.179650">
        <ele>2278.0</ele>
        <time>2018-09-02T12:39:14Z</time>
      </trkpt>
      <trkpt lat="40.573900" lon="-5.179617">
        <ele>2279.0</ele>
        <time>2018-09-02T12:39:15Z</time>
      </trkpt>
      <trkpt lat="40.573850" lon="-5.179600">
        <ele>2279.0</ele>
        <time>2018-09-02T12:39:16Z</time>
      </trkpt>
      <trkpt lat="40.573800" lon="-5.179617">
        <ele>2278.0</ele>
        <time>2018-09-02T12:39:17Z</time>
      </trkpt>
      <trkpt lat="40.573767" lon="-5.179650">
        <ele>2277.0</ele>
        <time>2018-09-02T12:39:18Z</time>
      </trkpt>
      <trkpt lat="40.573733" lon="-5.179683">
        <ele>2277.0</ele>
        <time>2018-09-02T12:39:19Z</time>
      </trkpt>
      <trkpt lat="40.573733" lon="-5.179733">
        <ele>2278.0</ele>
        <time>2018-09-02T12:39:20Z</time>
      </trkpt>
      <trkpt lat="40.573717" lon="-5.179767">
        <ele>2279.0</ele>
        <time>2018-09-02T12:39:21Z</time>
      </trkpt>
      <trkpt lat="40.573700" lon="-5.179800">
        <ele>2279.0</ele>
        <time>2018-09-02T12:39:22Z</time>
      </trkpt>
      <trkpt lat="40.573667" lon="-5.179867">
        <ele>2278.0</ele>
        <time>2018-09-02T12:39:23Z</time>
      </trkpt>
      <trkpt lat="40.573633" lon="-5.179933">
        <ele>2278.0</ele>
        <time>2018-09-02T12:39:24Z</time>
      </trkpt>
      <trkpt lat="40.573617" lon="-5.180017">
        <ele>2277.0</ele>
        <time>2018-09-02T12:39:25Z</time>
      </trkpt>
      <trkpt lat="40.573617" lon="-5.180083">
        <ele>2276.0</ele>
        <time>2018-09-02T12:39:26Z</time>
      </trkpt>
      <trkpt lat="40.573617" lon="-5.180133">
        <ele>2275.0</ele>
        <time>2018-09-02T12:39:27Z</time>
      </trkpt>
      <trkpt lat="40.573633" lon="-5.180200">
        <ele>2273.0</ele>
        <time>2018-09-02T12:39:28Z</time>
      </trkpt>
      <trkpt lat="40.573633" lon="-5.180267">
        <ele>2272.0</ele>
        <time>2018-09-02T12:39:29Z</time>
      </trkpt>
      <trkpt lat="40.573650" lon="-5.180350">
        <ele>2270.0</ele>
        <time>2018-09-02T12:39:30Z</time>
      </trkpt>
      <trkpt lat="40.573667" lon="-5.180400">
        <ele>2268.0</ele>
        <time>2018-09-02T12:39:31Z</time>
      </trkpt>
      <trkpt lat="40.573683" lon="-5.180450">
        <ele>2264.0</ele>
        <time>2018-09-02T12:39:32Z</time>
      </trkpt>
      <trkpt lat="40.573717" lon="-5.180500">
        <ele>2261.0</ele>
        <time>2018-09-02T12:39:33Z</time>
      </trkpt>
      <trkpt lat="40.573783" lon="-5.180533">
        <ele>2257.0</ele>
        <time>2018-09-02T12:39:34Z</time>
      </trkpt>
      <trkpt lat="40.573883" lon="-5.180533">
        <ele>2251.0</ele>
        <time>2018-09-02T12:39:35Z</time>
      </trkpt>
      <trkpt lat="40.573983" lon="-5.180517">
        <ele>2246.0</ele>
        <time>2018-09-02T12:39:36Z</time>
      </trkpt>
      <trkpt lat="40.574067" lon="-5.180433">
        <ele>2243.0</ele>
        <time>2018-09-02T12:39:37Z</time>
      </trkpt>
      <trkpt lat="40.574133" lon="-5.180333">
        <ele>2239.0</ele>
        <time>2018-09-02T12:39:38Z</time>
      </trkpt>
      <trkpt lat="40.574200" lon="-5.180217">
        <ele>2236.0</ele>
        <time>2018-09-02T12:39:39Z</time>
      </trkpt>
      <trkpt lat="40.574267" lon="-5.180117">
        <ele>2232.0</ele>
        <time>2018-09-02T12:39:40Z</time>
      </trkpt>
      <trkpt lat="40.574350" lon="-5.180017">
        <ele>2229.0</ele>
        <time>2018-09-02T12:39:41Z</time>
      </trkpt>
      <trkpt lat="40.574433" lon="-5.179917">
        <ele>2227.0</ele>
        <time>2018-09-02T12:39:42Z</time>
      </trkpt>
      <trkpt lat="40.574517" lon="-5.179767">
        <ele>2224.0</ele>
        <time>2018-09-02T12:39:43Z</time>
      </trkpt>
      <trkpt lat="40.574583" lon="-5.179633">
        <ele>2222.0</ele>
        <time>2018-09-02T12:39:44Z</time>
      </trkpt>
      <trkpt lat="40.574667" lon="-5.179483">
        <ele>2221.0</ele>
        <time>2018-09-02T12:39:45Z</time>
      </trkpt>
      <trkpt lat="40.574733" lon="-5.179350">
        <ele>2219.0</ele>
        <time>2018-09-02T12:39:46Z</time>
      </trkpt>
      <trkpt lat="40.574800" lon="-5.179200">
        <ele>2220.0</ele>
        <time>2018-09-02T12:39:47Z</time>
      </trkpt>
      <trkpt lat="40.574883" lon="-5.179050">
        <ele>2222.0</ele>
        <time>2018-09-02T12:39:48Z</time>
      </trkpt>
      <trkpt lat="40.574967" lon="-5.178883">
        <ele>2223.0</ele>
        <time>2018-09-02T12:39:49Z</time>
      </trkpt>
      <trkpt lat="40.575050" lon="-5.178750">
        <ele>2227.0</ele>
        <time>2018-09-02T12:39:50Z</time>
      </trkpt>
      <trkpt lat="40.575133" lon="-5.178600">
        <ele>2229.0</ele>
        <time>2018-09-02T12:39:51Z</time>
      </trkpt>
      <trkpt lat="40.575200" lon="-5.178467">
        <ele>2232.0</ele>
        <time>2018-09-02T12:39:52Z</time>
      </trkpt>
      <trkpt lat="40.575283" lon="-5.178333">
        <ele>2235.0</ele>
        <time>2018-09-02T12:39:53Z</time>
      </trkpt>
      <trkpt lat="40.575350" lon="-5.178200">
        <ele>2238.0</ele>
        <time>2018-09-02T12:39:54Z</time>
      </trkpt>
      <trkpt lat="40.575400" lon="-5.178067">
        <ele>2241.0</ele>
        <time>2018-09-02T12:39:55Z</time>
      </trkpt>
      <trkpt lat="40.575433" lon="-5.177950">
        <ele>2243.0</ele>
        <time>2018-09-02T12:39:56Z</time>
      </trkpt>
      <trkpt lat="40.575433" lon="-5.177817">
        <ele>2245.0</ele>
        <time>2018-09-02T12:39:57Z</time>
      </trkpt>
      <trkpt lat="40.575400" lon="-5.177700">
        <ele>2247.0</ele>
        <time>2018-09-02T12:39:58Z</time>
      </trkpt>
      <trkpt lat="40.575383" lon="-5.177650">
        <ele>2249.0</ele>
        <time>2018-09-02T12:39:59Z</time>
      </trkpt>
      <trkpt lat="40.575333" lon="-5.177633">
        <ele>2245.0</ele>
        <time>2018-09-02T12:40:00Z</time>
      </trkpt>
      <trkpt lat="40.575300" lon="-5.177667">
        <ele>2245.0</ele>
        <time>2018-09-02T12:40:01Z</time>
      </trkpt>
      <trkpt lat="40.575300" lon="-5.177750">
        <ele>2246.0</ele>
        <time>2018-09-02T12:40:02Z</time>
      </trkpt>
      <trkpt lat="40.575333" lon="-5.177833">
        <ele>2246.0</ele>
        <time>2018-09-02T12:40:03Z</time>
      </trkpt>
      <trkpt lat="40.575400" lon="-5.177900">
        <ele>2246.0</ele>
        <time>2018-09-02T12:40:04Z</time>
      </trkpt>
      <trkpt lat="40.575517" lon="-5.177967">
        <ele>2247.0</ele>
        <time>2018-09-02T12:40:05Z</time>
      </trkpt>
      <trkpt lat="40.575633" lon="-5.177983">
        <ele>2247.0</ele>
        <time>2018-09-02T12:40:06Z</time>
      </trkpt>
      <trkpt lat="40.575783" lon="-5.177950">
        <ele>2248.0</ele>
        <time>2018-09-02T12:40:07Z</time>
      </trkpt>
      <trkpt lat="40.575917" lon="-5.177883">
        <ele>2248.0</ele>
        <time>2018-09-02T12:40:08Z</time>
      </trkpt>
      <trkpt lat="40.576033" lon="-5.177767">
        <ele>2250.0</ele>
        <time>2018-09-02T12:40:09Z</time>
      </trkpt>
      <trkpt lat="40.576117" lon="-5.177633">
        <ele>2251.0</ele>
        <time>2018-09-02T12:40:10Z</time>
      </trkpt>
      <trkpt lat="40.576167" lon="-5.177483">
        <ele>2252.0</ele>
        <time>2018-09-02T12:40:11Z</time>
      </trkpt>
      <trkpt lat="40.576183" lon="-5.177333">
        <ele>2254.0</ele>
        <time>2018-09-02T12:40:12Z</time>
      </trkpt>
      <trkpt lat="40.576183" lon="-5.177200">
        <ele>2257.0</ele>
        <time>2018-09-02T12:40:13Z</time>
      </trkpt>
      <trkpt lat="40.576167" lon="-5.177083">
        <ele>2260.0</ele>
        <time>2018-09-02T12:40:14Z</time>
      </trkpt>
      <trkpt lat="40.576150" lon="-5.176983">
        <ele>2264.0</ele>
        <time>2018-09-02T12:40:15Z</time>
      </trkpt>
      <trkpt lat="40.576133" lon="-5.176900">
        <ele>2267.0</ele>
        <time>2018-09-02T12:40:16Z</time>
      </trkpt>
      <trkpt lat="40.576117" lon="-5.176800">
        <ele>2270.0</ele>
        <time>2018-09-02T12:40:17Z</time>
      </trkpt>
      <trkpt lat="40.576083" lon="-5.176717">
        <ele>2272.0</ele>
        <time>2018-09-02T12:40:18Z</time>
      </trkpt>
      <trkpt lat="40.576033" lon="-5.176650">
        <ele>2274.0</ele>
        <time>2018-09-02T12:40:19Z</time>
      </trkpt>
      <trkpt lat="40.575983" lon="-5.176617">
        <ele>2276.0</ele>
        <time>2018-09-02T12:40:20Z</time>
      </trkpt>
      <trkpt lat="40.575933" lon="-5.176633">
        <ele>2278.0</ele>
        <time>2018-09-02T12:40:21Z</time>
      </trkpt>
      <trkpt lat="40.575900" lon="-5.176717">
        <ele>2280.0</ele>
        <time>2018-09-02T12:40:22Z</time>
      </trkpt>
      <trkpt lat="40.575950" lon="-5.176833">
        <ele>2281.0</ele>
        <time>2018-09-02T12:40:23Z</time>
      </trkpt>
      <trkpt lat="40.576033" lon="-5.176917">
        <ele>2283.0</ele>
        <time>2018-09-02T12:40:24Z</time>
      </trkpt>
      <trkpt lat="40.576167" lon="-5.176950">
        <ele>2286.0</ele>
        <time>2018-09-02T12:40:25Z</time>
      </trkpt>
      <trkpt lat="40.576300" lon="-5.176900">
        <ele>2289.0</ele>
        <time>2018-09-02T12:40:26Z</time>
      </trkpt>
      <trkpt lat="40.576417" lon="-5.176800">
        <ele>2292.0</ele>
        <time>2018-09-02T12:40:27Z</time>
      </trkpt>
      <trkpt lat="40.576500" lon="-5.176650">
        <ele>2294.0</ele>
        <time>2018-09-02T12:40:28Z</time>
      </trkpt>
      <trkpt lat="40.576533" lon="-5.176483">
        <ele>2296.0</ele>
        <time>2018-09-02T12:40:29Z</time>
      </trkpt>
      <trkpt lat="40.576533" lon="-5.176333">
        <ele>2299.0</ele>
        <time>2018-09-02T12:40:30Z</time>
      </trkpt>
      <trkpt lat="40.576500" lon="-5.176217">
        <ele>2302.0</ele>
        <time>2018-09-02T12:40:31Z</time>
      </trkpt>
      <trkpt lat="40.576450" lon="-5.176150">
        <ele>2304.0</ele>
        <time>2018-09-02T12:40:32Z</time>
      </trkpt>
      <trkpt lat="40.576400" lon="-5.176150">
        <ele>2306.0</ele>
        <time>2018-09-02T12:40:33Z</time>
      </trkpt>
      <trkpt lat="40.576350" lon="-5.176200">
        <ele>2308.0</ele>
        <time>2018-09-02T12:40:34Z</time>
      </trkpt>
      <trkpt lat="40.576367" lon="-5.176300">
        <ele>2303.0</ele>
        <time>2018-09-02T12:40:35Z</time>
      </trkpt>
      <trkpt lat="40.576417" lon="-5.176417">
        <ele>2302.0</ele>
        <time>2018-09-02T12:40:36Z</time>
      </trkpt>
      <trkpt lat="40.576517" lon="-5.176533">
        <ele>2303.0</ele>
        <time>2018-09-02T12:40:37Z</time>
      </trkpt>
      <trkpt lat="40.576633" lon="-5.176583">
        <ele>2304.0</ele>
        <time>2018-09-02T12:40:38Z</time>
      </trkpt>
      <trkpt lat="40.576767" lon="-5.176567">
        <ele>2306.0</ele>
        <time>2018-09-02T12:40:39Z</time>
      </trkpt>
      <trkpt lat="40.576883" lon="-5.176483">
        <ele>2307.0</ele>
        <time>2018-09-02T12:40:40Z</time>
      </trkpt>
      <trkpt lat="40.576950" lon="-5.176350">
        <ele>2309.0</ele>
        <time>2018-09-02T12:40:41Z</time>
      </trkpt>
      <trkpt lat="40.576967" lon="-5.176183">
        <ele>2311.0</ele>
        <time>2018-09-02T12:40:42Z</time>
      </trkpt>
      <trkpt lat="40.576950" lon="-5.176067">
        <ele>2314.0</ele>
        <time>2018-09-02T12:40:43Z</time>
      </trkpt>
      <trkpt lat="40.576883" lon="-5.176000">
        <ele>2314.0</ele>
        <time>2018-09-02T12:40:44Z</time>
      </trkpt>
      <trkpt lat="40.576783" lon="-5.176083">
        <ele>2315.0</ele>
        <time>2018-09-02T12:40:46Z</time>
      </trkpt>
      <trkpt lat="40.576800" lon="-5.176217">
        <ele>2315.0</ele>
        <time>2018-09-02T12:40:47Z</time>
      </trkpt>
      <trkpt lat="40.576883" lon="-5.176333">
        <ele>2316.0</ele>
        <time>2018-09-02T12:40:48Z</time>
      </trkpt>
      <trkpt lat="40.577000" lon="-5.176417">
        <ele>2317.0</ele>
        <time>2018-09-02T12:40:49Z</time>
      </trkpt>
      <trkpt lat="40.577150" lon="-5.176450">
        <ele>2320.0</ele>
        <time>2018-09-02T12:40:50Z</time>
      </trkpt>
      <trkpt lat="40.577300" lon="-5.176400">
        <ele>2322.0</ele>
        <time>2018-09-02T12:40:51Z</time>
      </trkpt>
      <trkpt lat="40.577467" lon="-5.176200">
        <ele>2326.0</ele>
        <time>2018-09-02T12:40:53Z</time>
      </trkpt>
      <trkpt lat="40.577483" lon="-5.176067">
        <ele>2328.0</ele>
        <time>2018-09-02T12:40:54Z</time>
      </trkpt>
      <trkpt lat="40.577467" lon="-5.175933">
        <ele>2330.0</ele>
        <time>2018-09-02T12:40:55Z</time>
      </trkpt>
      <trkpt lat="40.577433" lon="-5.175867">
        <ele>2332.0</ele>
        <time>2018-09-02T12:40:56Z</time>
      </trkpt>
      <trkpt lat="40.577367" lon="-5.175833">
        <ele>2331.0</ele>
        <time>2018-09-02T12:40:57Z</time>
      </trkpt>
      <trkpt lat="40.577317" lon="-5.175883">
        <ele>2331.0</ele>
        <time>2018-09-02T12:40:58Z</time>
      </trkpt>
      <trkpt lat="40.577300" lon="-5.176000">
        <ele>2332.0</ele>
        <time>2018-09-02T12:40:59Z</time>
      </trkpt>
      <trkpt lat="40.577367" lon="-5.176117">
        <ele>2333.0</ele>
        <time>2018-09-02T12:41:00Z</time>
      </trkpt>
      <trkpt lat="40.577483" lon="-5.176200">
        <ele>2334.0</ele>
        <time>2018-09-02T12:41:01Z</time>
      </trkpt>
      <trkpt lat="40.577633" lon="-5.176233">
        <ele>2335.0</ele>
        <time>2018-09-02T12:41:02Z</time>
      </trkpt>
      <trkpt lat="40.577800" lon="-5.176167">
        <ele>2336.0</ele>
        <time>2018-09-02T12:41:03Z</time>
      </trkpt>
      <trkpt lat="40.577917" lon="-5.176050">
        <ele>2338.0</ele>
        <time>2018-09-02T12:41:04Z</time>
      </trkpt>
      <trkpt lat="40.577983" lon="-5.175900">
        <ele>2340.0</ele>
        <time>2018-09-02T12:41:05Z</time>
      </trkpt>
      <trkpt lat="40.578000" lon="-5.175767">
        <ele>2342.0</ele>
        <time>2018-09-02T12:41:06Z</time>
      </trkpt>
      <trkpt lat="40.578000" lon="-5.175650">
        <ele>2346.0</ele>
        <time>2018-09-02T12:41:07Z</time>
      </trkpt>
      <trkpt lat="40.577950" lon="-5.175600">
        <ele>2349.0</ele>
        <time>2018-09-02T12:41:08Z</time>
      </trkpt>
      <trkpt lat="40.577917" lon="-5.175600">
        <ele>2351.0</ele>
        <time>2018-09-02T12:41:09Z</time>
      </trkpt>
      <trkpt lat="40.577883" lon="-5.175650">
        <ele>2353.0</ele>
        <time>2018-09-02T12:41:10Z</time>
      </trkpt>
      <trkpt lat="40.577883" lon="-5.175767">
        <ele>2355.0</ele>
        <time>2018-09-02T12:41:11Z</time>
      </trkpt>
      <trkpt lat="40.577950" lon="-5.175883">
        <ele>2351.0</ele>
        <time>2018-09-02T12:41:12Z</time>
      </trkpt>
      <trkpt lat="40.578050" lon="-5.175983">
        <ele>2353.0</ele>
        <time>2018-09-02T12:41:13Z</time>
      </trkpt>
      <trkpt lat="40.578183" lon="-5.176033">
        <ele>2354.0</ele>
        <time>2018-09-02T12:41:14Z</time>
      </trkpt>
      <trkpt lat="40.578317" lon="-5.176000">
        <ele>2356.0</ele>
        <time>2018-09-02T12:41:15Z</time>
      </trkpt>
      <trkpt lat="40.578433" lon="-5.175883">
        <ele>2357.0</ele>
        <time>2018-09-02T12:41:16Z</time>
      </trkpt>
      <trkpt lat="40.578500" lon="-5.175750">
        <ele>2359.0</ele>
        <time>2018-09-02T12:41:17Z</time>
      </trkpt>
      <trkpt lat="40.578533" lon="-5.175583">
        <ele>2362.0</ele>
        <time>2018-09-02T12:41:18Z</time>
      </trkpt>
      <trkpt lat="40.578550" lon="-5.175450">
        <ele>2366.0</ele>
        <time>2018-09-02T12:41:19Z</time>
      </trkpt>
      <trkpt lat="40.578550" lon="-5.175350">
        <ele>2370.0</ele>
        <time>2018-09-02T12:41:20Z</time>
      </trkpt>
      <trkpt lat="40.578517" lon="-5.175267">
        <ele>2369.0</ele>
        <time>2018-09-02T12:41:21Z</time>
      </trkpt>
      <trkpt lat="40.578500" lon="-5.175217">
        <ele>2371.0</ele>
        <time>2018-09-02T12:41:22Z</time>
      </trkpt>
      <trkpt lat="40.578450" lon="-5.175233">
        <ele>2371.0</ele>
        <time>2018-09-02T12:41:23Z</time>
      </trkpt>
      <trkpt lat="40.578417" lon="-5.175300">
        <ele>2371.0</ele>
        <time>2018-09-02T12:41:24Z</time>
      </trkpt>
      <trkpt lat="40.578400" lon="-5.175400">
        <ele>2372.0</ele>
        <time>2018-09-02T12:41:25Z</time>
      </trkpt>
      <trkpt lat="40.578433" lon="-5.175533">
        <ele>2372.0</ele>
        <time>2018-09-02T12:41:26Z</time>
      </trkpt>
      <trkpt lat="40.578517" lon="-5.175650">
        <ele>2373.0</ele>
        <time>2018-09-02T12:41:27Z</time>
      </trkpt>
      <trkpt lat="40.578617" lon="-5.175733">
        <ele>2374.0</ele>
        <time>2018-09-02T12:41:28Z</time>
      </trkpt>
      <trkpt lat="40.578733" lon="-5.175767">
        <ele>2376.0</ele>
        <time>2018-09-02T12:41:29Z</time>
      </trkpt>
      <trkpt lat="40.578867" lon="-5.175733">
        <ele>2378.0</ele>
        <time>2018-09-02T12:41:30Z</time>
      </trkpt>
      <trkpt lat="40.578983" lon="-5.175633">
        <ele>2380.0</ele>
        <time>2018-09-02T12:41:31Z</time>
      </trkpt>
      <trkpt lat="40.579067" lon="-5.175533">
        <ele>2383.0</ele>
        <time>2018-09-02T12:41:32Z</time>
      </trkpt>
      <trkpt lat="40.579100" lon="-5.175417">
        <ele>2386.0</ele>
        <time>2018-09-02T12:41:33Z</time>
      </trkpt>
      <trkpt lat="40.579133" lon="-5.175300">
        <ele>2390.0</ele>
        <time>2018-09-02T12:41:34Z</time>
      </trkpt>
      <trkpt lat="40.579133" lon="-5.175183">
        <ele>2392.0</ele>
        <time>2018-09-02T12:41:35Z</time>
      </trkpt>
      <trkpt lat="40.579150" lon="-5.175083">
        <ele>2395.0</ele>
        <time>2018-09-02T12:41:36Z</time>
      </trkpt>
      <trkpt lat="40.579133" lon="-5.175000">
        <ele>2397.0</ele>
        <time>2018-09-02T12:41:37Z</time>
      </trkpt>
      <trkpt lat="40.579083" lon="-5.174917">
        <ele>2399.0</ele>
        <time>2018-09-02T12:41:38Z</time>
      </trkpt>
      <trkpt lat="40.579033" lon="-5.174883">
        <ele>2401.0</ele>
        <time>2018-09-02T12:41:39Z</time>
      </trkpt>
      <trkpt lat="40.578983" lon="-5.174900">
        <ele>2403.0</ele>
        <time>2018-09-02T12:41:40Z</time>
      </trkpt>
      <trkpt lat="40.578950" lon="-5.174967">
        <ele>2405.0</ele>
        <time>2018-09-02T12:41:41Z</time>
      </trkpt>
      <trkpt lat="40.578950" lon="-5.175100">
        <ele>2399.0</ele>
        <time>2018-09-02T12:41:42Z</time>
      </trkpt>
      <trkpt lat="40.579000" lon="-5.175217">
        <ele>2401.0</ele>
        <time>2018-09-02T12:41:43Z</time>
      </trkpt>
      <trkpt lat="40.579083" lon="-5.175317">
        <ele>2402.0</ele>
        <time>2018-09-02T12:41:44Z</time>
      </trkpt>
      <trkpt lat="40.579183" lon="-5.175400">
        <ele>2403.0</ele>
        <time>2018-09-02T12:41:45Z</time>
      </trkpt>
      <trkpt lat="40.579300" lon="-5.175417">
        <ele>2405.0</ele>
        <time>2018-09-02T12:41:46Z</time>
      </trkpt>
      <trkpt lat="40.579433" lon="-5.175383">
        <ele>2406.0</ele>
        <time>2018-09-02T12:41:47Z</time>
      </trkpt>
      <trkpt lat="40.579550" lon="-5.175317">
        <ele>2407.0</ele>
        <time>2018-09-02T12:41:48Z</time>
      </trkpt>
      <trkpt lat="40.579617" lon="-5.175200">
        <ele>2408.0</ele>
        <time>2018-09-02T12:41:49Z</time>
      </trkpt>
      <trkpt lat="40.579633" lon="-5.175100">
        <ele>2409.0</ele>
        <time>2018-09-02T12:41:50Z</time>
      </trkpt>
      <trkpt lat="40.579617" lon="-5.174983">
        <ele>2408.0</ele>
        <time>2018-09-02T12:41:51Z</time>
      </trkpt>
      <trkpt lat="40.579550" lon="-5.174900">
        <ele>2409.0</ele>
        <time>2018-09-02T12:41:52Z</time>
      </trkpt>
      <trkpt lat="40.579483" lon="-5.174850">
        <ele>2410.0</ele>
        <time>2018-09-02T12:41:53Z</time>
      </trkpt>
      <trkpt lat="40.579417" lon="-5.174833">
        <ele>2413.0</ele>
        <time>2018-09-02T12:41:54Z</time>
      </trkpt>
      <trkpt lat="40.579383" lon="-5.174850">
        <ele>2416.0</ele>
        <time>2018-09-02T12:41:55Z</time>
      </trkpt>
      <trkpt lat="40.579350" lon="-5.174867">
        <ele>2420.0</ele>
        <time>2018-09-02T12:41:56Z</time>
      </trkpt>
      <trkpt lat="40.579317" lon="-5.174867">
        <ele>2423.0</ele>
        <time>2018-09-02T12:41:57Z</time>
      </trkpt>
      <trkpt lat="40.579267" lon="-5.174883">
        <ele>2424.0</ele>
        <time>2018-09-02T12:41:58Z</time>
      </trkpt>
      <trkpt lat="40.579200" lon="-5.174900">
        <ele>2425.0</ele>
        <time>2018-09-02T12:41:59Z</time>
      </trkpt>
      <trkpt lat="40.579167" lon="-5.174950">
        <ele>2427.0</ele>
        <time>2018-09-02T12:42:00Z</time>
      </trkpt>
      <trkpt lat="40.579167" lon="-5.175050">
        <ele>2428.0</ele>
        <time>2018-09-02T12:42:01Z</time>
      </trkpt>
      <trkpt lat="40.579217" lon="-5.175167">
        <ele>2429.0</ele>
        <time>2018-09-02T12:42:02Z</time>
      </trkpt>
      <trkpt lat="40.579300" lon="-5.175283">
        <ele>2429.0</ele>
        <time>2018-09-02T12:42:03Z</time>
      </trkpt>
      <trkpt lat="40.579433" lon="-5.175350">
        <ele>2430.0</ele>
        <time>2018-09-02T12:42:04Z</time>
      </trkpt>
      <trkpt lat="40.579550" lon="-5.175367">
        <ele>2431.0</ele>
        <time>2018-09-02T12:42:05Z</time>
      </trkpt>
      <trkpt lat="40.579650" lon="-5.175317">
        <ele>2431.0</ele>
        <time>2018-09-02T12:42:06Z</time>
      </trkpt>
      <trkpt lat="40.579733" lon="-5.175250">
        <ele>2431.0</ele>
        <time>2018-09-02T12:42:07Z</time>
      </trkpt>
      <trkpt lat="40.579817" lon="-5.175150">
        <ele>2430.0</ele>
        <time>2018-09-02T12:42:08Z</time>
      </trkpt>
      <trkpt lat="40.579867" lon="-5.175050">
        <ele>2429.0</ele>
        <time>2018-09-02T12:42:09Z</time>
      </trkpt>
      <trkpt lat="40.579917" lon="-5.174950">
        <ele>2428.0</ele>
        <time>2018-09-02T12:42:10Z</time>
      </trkpt>
      <trkpt lat="40.579883" lon="-5.174833">
        <ele>2426.0</ele>
        <time>2018-09-02T12:42:11Z</time>
      </trkpt>
      <trkpt lat="40.579817" lon="-5.174733">
        <ele>2422.0</ele>
        <time>2018-09-02T12:42:12Z</time>
      </trkpt>
      <trkpt lat="40.579750" lon="-5.174667">
        <ele>2420.0</ele>
        <time>2018-09-02T12:42:13Z</time>
      </trkpt>
      <trkpt lat="40.579683" lon="-5.174633">
        <ele>2419.0</ele>
        <time>2018-09-02T12:42:14Z</time>
      </trkpt>
      <trkpt lat="40.579650" lon="-5.174633">
        <ele>2419.0</ele>
        <time>2018-09-02T12:42:15Z</time>
      </trkpt>
      <trkpt lat="40.579617" lon="-5.174617">
        <ele>2421.0</ele>
        <time>2018-09-02T12:42:16Z</time>
      </trkpt>
      <trkpt lat="40.579583" lon="-5.174600">
        <ele>2423.0</ele>
        <time>2018-09-02T12:42:17Z</time>
      </trkpt>
      <trkpt lat="40.579533" lon="-5.174583">
        <ele>2421.0</ele>
        <time>2018-09-02T12:42:18Z</time>
      </trkpt>
      <trkpt lat="40.579467" lon="-5.174567">
        <ele>2420.0</ele>
        <time>2018-09-02T12:42:19Z</time>
      </trkpt>
      <trkpt lat="40.579383" lon="-5.174567">
        <ele>2418.0</ele>
        <time>2018-09-02T12:42:20Z</time>
      </trkpt>
      <trkpt lat="40.579333" lon="-5.174583">
        <ele>2419.0</ele>
        <time>2018-09-02T12:42:21Z</time>
      </trkpt>
      <trkpt lat="40.579300" lon="-5.174600">
        <ele>2419.0</ele>
        <time>2018-09-02T12:42:22Z</time>
      </trkpt>
      <trkpt lat="40.579267" lon="-5.174633">
        <ele>2419.0</ele>
        <time>2018-09-02T12:42:23Z</time>
      </trkpt>
      <trkpt lat="40.579217" lon="-5.174667">
        <ele>2420.0</ele>
        <time>2018-09-02T12:42:24Z</time>
      </trkpt>
      <trkpt lat="40.579167" lon="-5.174700">
        <ele>2420.0</ele>
        <time>2018-09-02T12:42:25Z</time>
      </trkpt>
      <trkpt lat="40.579117" lon="-5.174717">
        <ele>2419.0</ele>
        <time>2018-09-02T12:42:26Z</time>
      </trkpt>
      <trkpt lat="40.579033" lon="-5.174717">
        <ele>2419.0</ele>
        <time>2018-09-02T12:42:27Z</time>
      </trkpt>
      <trkpt lat="40.578950" lon="-5.174683">
        <ele>2418.0</ele>
        <time>2018-09-02T12:42:28Z</time>
      </trkpt>
      <trkpt lat="40.578867" lon="-5.174633">
        <ele>2416.0</ele>
        <time>2018-09-02T12:42:29Z</time>
      </trkpt>
      <trkpt lat="40.578783" lon="-5.174567">
        <ele>2414.0</ele>
        <time>2018-09-02T12:42:30Z</time>
      </trkpt>
      <trkpt lat="40.578700" lon="-5.174500">
        <ele>2411.0</ele>
        <time>2018-09-02T12:42:31Z</time>
      </trkpt>
      <trkpt lat="40.578617" lon="-5.174400">
        <ele>2408.0</ele>
        <time>2018-09-02T12:42:32Z</time>
      </trkpt>
      <trkpt lat="40.578550" lon="-5.174283">
        <ele>2406.0</ele>
        <time>2018-09-02T12:42:33Z</time>
      </trkpt>
      <trkpt lat="40.578483" lon="-5.174150">
        <ele>2403.0</ele>
        <time>2018-09-02T12:42:34Z</time>
      </trkpt>
      <trkpt lat="40.578433" lon="-5.174000">
        <ele>2399.0</ele>
        <time>2018-09-02T12:42:35Z</time>
      </trkpt>
      <trkpt lat="40.578400" lon="-5.173817">
        <ele>2395.0</ele>
        <time>2018-09-02T12:42:36Z</time>
      </trkpt>
      <trkpt lat="40.578400" lon="-5.173633">
        <ele>2393.0</ele>
        <time>2018-09-02T12:42:37Z</time>
      </trkpt>
      <trkpt lat="40.578417" lon="-5.173467">
        <ele>2389.0</ele>
        <time>2018-09-02T12:42:38Z</time>
      </trkpt>
      <trkpt lat="40.578450" lon="-5.173283">
        <ele>2386.0</ele>
        <time>2018-09-02T12:42:39Z</time>
      </trkpt>
      <trkpt lat="40.578483" lon="-5.173117">
        <ele>2382.0</ele>
        <time>2018-09-02T12:42:40Z</time>
      </trkpt>
      <trkpt lat="40.578533" lon="-5.172933">
        <ele>2378.0</ele>
        <time>2018-09-02T12:42:41Z</time>
      </trkpt>
      <trkpt lat="40.578617" lon="-5.172767">
        <ele>2374.0</ele>
        <time>2018-09-02T12:42:42Z</time>
      </trkpt>
      <trkpt lat="40.578700" lon="-5.172617">
        <ele>2370.0</ele>
        <time>2018-09-02T12:42:43Z</time>
      </trkpt>
      <trkpt lat="40.578783" lon="-5.172517">
        <ele>2367.0</ele>
        <time>2018-09-02T12:42:44Z</time>
      </trkpt>
      <trkpt lat="40.578900" lon="-5.172433">
        <ele>2364.0</ele>
        <time>2018-09-02T12:42:45Z</time>
      </trkpt>
      <trkpt lat="40.579000" lon="-5.172383">
        <ele>2361.0</ele>
        <time>2018-09-02T12:42:46Z</time>
      </trkpt>
      <trkpt lat="40.579100" lon="-5.172333">
        <ele>2357.0</ele>
        <time>2018-09-02T12:42:47Z</time>
      </trkpt>
      <trkpt lat="40.579217" lon="-5.172283">
        <ele>2354.0</ele>
        <time>2018-09-02T12:42:48Z</time>
      </trkpt>
      <trkpt lat="40.579333" lon="-5.172200">
        <ele>2352.0</ele>
        <time>2018-09-02T12:42:49Z</time>
      </trkpt>
      <trkpt lat="40.579433" lon="-5.172133">
        <ele>2349.0</ele>
        <time>2018-09-02T12:42:50Z</time>
      </trkpt>
      <trkpt lat="40.579533" lon="-5.172067">
        <ele>2346.0</ele>
        <time>2018-09-02T12:42:51Z</time>
      </trkpt>
      <trkpt lat="40.579650" lon="-5.172000">
        <ele>2344.0</ele>
        <time>2018-09-02T12:42:52Z</time>
      </trkpt>
      <trkpt lat="40.579750" lon="-5.171933">
        <ele>2342.0</ele>
        <time>2018-09-02T12:42:53Z</time>
      </trkpt>
      <trkpt lat="40.579867" lon="-5.171867">
        <ele>2340.0</ele>
        <time>2018-09-02T12:42:54Z</time>
      </trkpt>
      <trkpt lat="40.579983" lon="-5.171783">
        <ele>2339.0</ele>
        <time>2018-09-02T12:42:55Z</time>
      </trkpt>
      <trkpt lat="40.580083" lon="-5.171683">
        <ele>2337.0</ele>
        <time>2018-09-02T12:42:56Z</time>
      </trkpt>
      <trkpt lat="40.580200" lon="-5.171617">
        <ele>2336.0</ele>
        <time>2018-09-02T12:42:57Z</time>
      </trkpt>
      <trkpt lat="40.580317" lon="-5.171533">
        <ele>2334.0</ele>
        <time>2018-09-02T12:42:58Z</time>
      </trkpt>
      <trkpt lat="40.580433" lon="-5.171433">
        <ele>2332.0</ele>
        <time>2018-09-02T12:42:59Z</time>
      </trkpt>
      <trkpt lat="40.580567" lon="-5.171333">
        <ele>2331.0</ele>
        <time>2018-09-02T12:43:00Z</time>
      </trkpt>
      <trkpt lat="40.580683" lon="-5.171217">
        <ele>2333.0</ele>
        <time>2018-09-02T12:43:01Z</time>
      </trkpt>
      <trkpt lat="40.580800" lon="-5.171117">
        <ele>2339.0</ele>
        <time>2018-09-02T12:43:02Z</time>
      </trkpt>
      <trkpt lat="40.580883" lon="-5.171050">
        <ele>2342.0</ele>
        <time>2018-09-02T12:43:03Z</time>
      </trkpt>
      <trkpt lat="40.580983" lon="-5.170983">
        <ele>2345.0</ele>
        <time>2018-09-02T12:43:04Z</time>
      </trkpt>
      <trkpt lat="40.581100" lon="-5.170900">
        <ele>2347.0</ele>
        <time>2018-09-02T12:43:05Z</time>
      </trkpt>
      <trkpt lat="40.581217" lon="-5.170850">
        <ele>2349.0</ele>
        <time>2018-09-02T12:43:06Z</time>
      </trkpt>
      <trkpt lat="40.581333" lon="-5.170833">
        <ele>2352.0</ele>
        <time>2018-09-02T12:43:07Z</time>
      </trkpt>
      <trkpt lat="40.581417" lon="-5.170867">
        <ele>2356.0</ele>
        <time>2018-09-02T12:43:08Z</time>
      </trkpt>
      <trkpt lat="40.581483" lon="-5.170933">
        <ele>2357.0</ele>
        <time>2018-09-02T12:43:09Z</time>
      </trkpt>
      <trkpt lat="40.581500" lon="-5.171017">
        <ele>2359.0</ele>
        <time>2018-09-02T12:43:10Z</time>
      </trkpt>
      <trkpt lat="40.581467" lon="-5.171083">
        <ele>2361.0</ele>
        <time>2018-09-02T12:43:11Z</time>
      </trkpt>
      <trkpt lat="40.581400" lon="-5.171083">
        <ele>2363.0</ele>
        <time>2018-09-02T12:43:12Z</time>
      </trkpt>
      <trkpt lat="40.581333" lon="-5.170983">
        <ele>2364.0</ele>
        <time>2018-09-02T12:43:13Z</time>
      </trkpt>
      <trkpt lat="40.581300" lon="-5.170833">
        <ele>2366.0</ele>
        <time>2018-09-02T12:43:14Z</time>
      </trkpt>
      <trkpt lat="40.581317" lon="-5.170667">
        <ele>2369.0</ele>
        <time>2018-09-02T12:43:15Z</time>
      </trkpt>
      <trkpt lat="40.581367" lon="-5.170500">
        <ele>2372.0</ele>
        <time>2018-09-02T12:43:16Z</time>
      </trkpt>
      <trkpt lat="40.581467" lon="-5.170383">
        <ele>2374.0</ele>
        <time>2018-09-02T12:43:17Z</time>
      </trkpt>
      <trkpt lat="40.581583" lon="-5.170317">
        <ele>2377.0</ele>
        <time>2018-09-02T12:43:18Z</time>
      </trkpt>
      <trkpt lat="40.581683" lon="-5.170300">
        <ele>2380.0</ele>
        <time>2018-09-02T12:43:19Z</time>
      </trkpt>
      <trkpt lat="40.581767" lon="-5.170333">
        <ele>2382.0</ele>
        <time>2018-09-02T12:43:20Z</time>
      </trkpt>
      <trkpt lat="40.581833" lon="-5.170383">
        <ele>2384.0</ele>
        <time>2018-09-02T12:43:21Z</time>
      </trkpt>
      <trkpt lat="40.581867" lon="-5.170467">
        <ele>2386.0</ele>
        <time>2018-09-02T12:43:22Z</time>
      </trkpt>
      <trkpt lat="40.581867" lon="-5.170550">
        <ele>2389.0</ele>
        <time>2018-09-02T12:43:23Z</time>
      </trkpt>
      <trkpt lat="40.581833" lon="-5.170583">
        <ele>2391.0</ele>
        <time>2018-09-02T12:43:24Z</time>
      </trkpt>
      <trkpt lat="40.581783" lon="-5.170583">
        <ele>2394.0</ele>
        <time>2018-09-02T12:43:25Z</time>
      </trkpt>
      <trkpt lat="40.581733" lon="-5.170517">
        <ele>2396.0</ele>
        <time>2018-09-02T12:43:26Z</time>
      </trkpt>
      <trkpt lat="40.581667" lon="-5.170400">
        <ele>2398.0</ele>
        <time>2018-09-02T12:43:27Z</time>
      </trkpt>
      <trkpt lat="40.581617" lon="-5.170233">
        <ele>2399.0</ele>
        <time>2018-09-02T12:43:28Z</time>
      </trkpt>
      <trkpt lat="40.581617" lon="-5.170067">
        <ele>2403.0</ele>
        <time>2018-09-02T12:43:29Z</time>
      </trkpt>
      <trkpt lat="40.581633" lon="-5.169917">
        <ele>2407.0</ele>
        <time>2018-09-02T12:43:30Z</time>
      </trkpt>
      <trkpt lat="40.581717" lon="-5.169783">
        <ele>2411.0</ele>
        <time>2018-09-02T12:43:31Z</time>
      </trkpt>
      <trkpt lat="40.581800" lon="-5.169700">
        <ele>2413.0</ele>
        <time>2018-09-02T12:43:32Z</time>
      </trkpt>
      <trkpt lat="40.582033" lon="-5.169633">
        <ele>2417.0</ele>
        <time>2018-09-02T12:43:34Z</time>
      </trkpt>
      <trkpt lat="40.582117" lon="-5.169683">
        <ele>2419.0</ele>
        <time>2018-09-02T12:43:35Z</time>
      </trkpt>
      <trkpt lat="40.582167" lon="-5.169767">
        <ele>2422.0</ele>
        <time>2018-09-02T12:43:36Z</time>
      </trkpt>
      <trkpt lat="40.582150" lon="-5.169850">
        <ele>2424.0</ele>
        <time>2018-09-02T12:43:37Z</time>
      </trkpt>
      <trkpt lat="40.582117" lon="-5.169900">
        <ele>2426.0</ele>
        <time>2018-09-02T12:43:38Z</time>
      </trkpt>
      <trkpt lat="40.582050" lon="-5.169900">
        <ele>2429.0</ele>
        <time>2018-09-02T12:43:39Z</time>
      </trkpt>
      <trkpt lat="40.581983" lon="-5.169817">
        <ele>2431.0</ele>
        <time>2018-09-02T12:43:40Z</time>
      </trkpt>
      <trkpt lat="40.581950" lon="-5.169683">
        <ele>2433.0</ele>
        <time>2018-09-02T12:43:41Z</time>
      </trkpt>
      <trkpt lat="40.581967" lon="-5.169517">
        <ele>2435.0</ele>
        <time>2018-09-02T12:43:42Z</time>
      </trkpt>
      <trkpt lat="40.582050" lon="-5.169367">
        <ele>2438.0</ele>
        <time>2018-09-02T12:43:43Z</time>
      </trkpt>
      <trkpt lat="40.582167" lon="-5.169283">
        <ele>2442.0</ele>
        <time>2018-09-02T12:43:44Z</time>
      </trkpt>
      <trkpt lat="40.582283" lon="-5.169300">
        <ele>2444.0</ele>
        <time>2018-09-02T12:43:45Z</time>
      </trkpt>
      <trkpt lat="40.582383" lon="-5.169383">
        <ele>2445.0</ele>
        <time>2018-09-02T12:43:46Z</time>
      </trkpt>
      <trkpt lat="40.582417" lon="-5.169483">
        <ele>2446.0</ele>
        <time>2018-09-02T12:43:47Z</time>
      </trkpt>
      <trkpt lat="40.582383" lon="-5.169550">
        <ele>2448.0</ele>
        <time>2018-09-02T12:43:48Z</time>
      </trkpt>
      <trkpt lat="40.582300" lon="-5.169500">
        <ele>2449.0</ele>
        <time>2018-09-02T12:43:49Z</time>
      </trkpt>
      <trkpt lat="40.582233" lon="-5.169367">
        <ele>2448.0</ele>
        <time>2018-09-02T12:43:50Z</time>
      </trkpt>
      <trkpt lat="40.582217" lon="-5.168983">
        <ele>2451.0</ele>
        <time>2018-09-02T12:43:52Z</time>
      </trkpt>
      <trkpt lat="40.582317" lon="-5.168850">
        <ele>2456.0</ele>
        <time>2018-09-02T12:43:53Z</time>
      </trkpt>
      <trkpt lat="40.582417" lon="-5.168767">
        <ele>2462.0</ele>
        <time>2018-09-02T12:43:54Z</time>
      </trkpt>
      <trkpt lat="40.582533" lon="-5.168733">
        <ele>2466.0</ele>
        <time>2018-09-02T12:43:55Z</time>
      </trkpt>
      <trkpt lat="40.582633" lon="-5.168733">
        <ele>2470.0</ele>
        <time>2018-09-02T12:43:56Z</time>
      </trkpt>
      <trkpt lat="40.582717" lon="-5.168767">
        <ele>2473.0</ele>
        <time>2018-09-02T12:43:57Z</time>
      </trkpt>
      <trkpt lat="40.582800" lon="-5.168833">
        <ele>2476.0</ele>
        <time>2018-09-02T12:43:58Z</time>
      </trkpt>
      <trkpt lat="40.582833" lon="-5.168917">
        <ele>2477.0</ele>
        <time>2018-09-02T12:43:59Z</time>
      </trkpt>
      <trkpt lat="40.582817" lon="-5.169017">
        <ele>2479.0</ele>
        <time>2018-09-02T12:44:00Z</time>
      </trkpt>
      <trkpt lat="40.582767" lon="-5.169050">
        <ele>2481.0</ele>
        <time>2018-09-02T12:44:01Z</time>
      </trkpt>
      <trkpt lat="40.582700" lon="-5.169033">
        <ele>2482.0</ele>
        <time>2018-09-02T12:44:02Z</time>
      </trkpt>
      <trkpt lat="40.582617" lon="-5.168933">
        <ele>2483.0</ele>
        <time>2018-09-02T12:44:03Z</time>
      </trkpt>
      <trkpt lat="40.582550" lon="-5.168783">
        <ele>2484.0</ele>
        <time>2018-09-02T12:44:04Z</time>
      </trkpt>
      <trkpt lat="40.582517" lon="-5.168600">
        <ele>2486.0</ele>
        <time>2018-09-02T12:44:05Z</time>
      </trkpt>
      <trkpt lat="40.582517" lon="-5.168433">
        <ele>2490.0</ele>
        <time>2018-09-02T12:44:06Z</time>
      </trkpt>
      <trkpt lat="40.582567" lon="-5.168283">
        <ele>2493.0</ele>
        <time>2018-09-02T12:44:07Z</time>
      </trkpt>
      <trkpt lat="40.582650" lon="-5.168000">
        <ele>2499.0</ele>
        <time>2018-09-02T12:44:09Z</time>
      </trkpt>
      <trkpt lat="40.582633" lon="-5.167867">
        <ele>2502.0</ele>
        <time>2018-09-02T12:44:10Z</time>
      </trkpt>
      <trkpt lat="40.582567" lon="-5.167750">
        <ele>2505.0</ele>
        <time>2018-09-02T12:44:11Z</time>
      </trkpt>
      <trkpt lat="40.582417" lon="-5.167700">
        <ele>2510.0</ele>
        <time>2018-09-02T12:44:13Z</time>
      </trkpt>
      <trkpt lat="40.582367" lon="-5.167750">
        <ele>2503.0</ele>
        <time>2018-09-02T12:44:14Z</time>
      </trkpt>
      <trkpt lat="40.582483" lon="-5.167983">
        <ele>2502.0</ele>
        <time>2018-09-02T12:44:17Z</time>
      </trkpt>
      <trkpt lat="40.582583" lon="-5.167950">
        <ele>2503.0</ele>
        <time>2018-09-02T12:44:18Z</time>
      </trkpt>
      <trkpt lat="40.582683" lon="-5.167867">
        <ele>2503.0</ele>
        <time>2018-09-02T12:44:19Z</time>
      </trkpt>
      <trkpt lat="40.582767" lon="-5.167783">
        <ele>2504.0</ele>
        <time>2018-09-02T12:44:20Z</time>
      </trkpt>
      <trkpt lat="40.582833" lon="-5.167683">
        <ele>2504.0</ele>
        <time>2018-09-02T12:44:21Z</time>
      </trkpt>
      <trkpt lat="40.582850" lon="-5.167550">
        <ele>2504.0</ele>
        <time>2018-09-02T12:44:22Z</time>
      </trkpt>
      <trkpt lat="40.582850" lon="-5.167417">
        <ele>2506.0</ele>
        <time>2018-09-02T12:44:23Z</time>
      </trkpt>
      <trkpt lat="40.582800" lon="-5.167300">
        <ele>2507.0</ele>
        <time>2018-09-02T12:44:24Z</time>
      </trkpt>
      <trkpt lat="40.582717" lon="-5.167233">
        <ele>2508.0</ele>
        <time>2018-09-02T12:44:25Z</time>
      </trkpt>
      <trkpt lat="40.582650" lon="-5.167200">
        <ele>2508.0</ele>
        <time>2018-09-02T12:44:26Z</time>
      </trkpt>
      <trkpt lat="40.582550" lon="-5.167283">
        <ele>2508.0</ele>
        <time>2018-09-02T12:44:28Z</time>
      </trkpt>
      <trkpt lat="40.582567" lon="-5.167383">
        <ele>2509.0</ele>
        <time>2018-09-02T12:44:29Z</time>
      </trkpt>
      <trkpt lat="40.582617" lon="-5.167467">
        <ele>2510.0</ele>
        <time>2018-09-02T12:44:30Z</time>
      </trkpt>
      <trkpt lat="40.582667" lon="-5.167533">
        <ele>2511.0</ele>
        <time>2018-09-02T12:44:31Z</time>
      </trkpt>
      <trkpt lat="40.582717" lon="-5.167567">
        <ele>2512.0</ele>
        <time>2018-09-02T12:44:32Z</time>
      </trkpt>
      <trkpt lat="40.582783" lon="-5.167583">
        <ele>2513.0</ele>
        <time>2018-09-02T12:44:33Z</time>
      </trkpt>
      <trkpt lat="40.582867" lon="-5.167617">
        <ele>2514.0</ele>
        <time>2018-09-02T12:44:34Z</time>
      </trkpt>
      <trkpt lat="40.582950" lon="-5.167617">
        <ele>2515.0</ele>
        <time>2018-09-02T12:44:35Z</time>
      </trkpt>
      <trkpt lat="40.583033" lon="-5.167600">
        <ele>2516.0</ele>
        <time>2018-09-02T12:44:36Z</time>
      </trkpt>
      <trkpt lat="40.583117" lon="-5.167500">
        <ele>2516.0</ele>
        <time>2018-09-02T12:44:37Z</time>
      </trkpt>
      <trkpt lat="40.583167" lon="-5.167067">
        <ele>2519.0</ele>
        <time>2018-09-02T12:44:40Z</time>
      </trkpt>
      <trkpt lat="40.583133" lon="-5.166950">
        <ele>2520.0</ele>
        <time>2018-09-02T12:44:41Z</time>
      </trkpt>
      <trkpt lat="40.583067" lon="-5.166867">
        <ele>2522.0</ele>
        <time>2018-09-02T12:44:42Z</time>
      </trkpt>
      <trkpt lat="40.583000" lon="-5.166850">
        <ele>2522.0</ele>
        <time>2018-09-02T12:44:43Z</time>
      </trkpt>
      <trkpt lat="40.582967" lon="-5.166850">
        <ele>2523.0</ele>
        <time>2018-09-02T12:44:44Z</time>
      </trkpt>
      <trkpt lat="40.582950" lon="-5.166833">
        <ele>2525.0</ele>
        <time>2018-09-02T12:44:45Z</time>
      </trkpt>
      <trkpt lat="40.582950" lon="-5.166867">
        <ele>2527.0</ele>
        <time>2018-09-02T12:44:46Z</time>
      </trkpt>
      <trkpt lat="40.582933" lon="-5.166900">
        <ele>2529.0</ele>
        <time>2018-09-02T12:44:47Z</time>
      </trkpt>
      <trkpt lat="40.582950" lon="-5.166950">
        <ele>2530.0</ele>
        <time>2018-09-02T12:44:48Z</time>
      </trkpt>
      <trkpt lat="40.582983" lon="-5.167000">
        <ele>2533.0</ele>
        <time>2018-09-02T12:44:49Z</time>
      </trkpt>
      <trkpt lat="40.583033" lon="-5.167017">
        <ele>2535.0</ele>
        <time>2018-09-02T12:44:50Z</time>
      </trkpt>
      <trkpt lat="40.583117" lon="-5.167033">
        <ele>2538.0</ele>
        <time>2018-09-02T12:44:51Z</time>
      </trkpt>
      <trkpt lat="40.583217" lon="-5.166983">
        <ele>2539.0</ele>
        <time>2018-09-02T12:44:52Z</time>
      </trkpt>
      <trkpt lat="40.583317" lon="-5.166883">
        <ele>2540.0</ele>
        <time>2018-09-02T12:44:53Z</time>
      </trkpt>
      <trkpt lat="40.583383" lon="-5.166733">
        <ele>2541.0</ele>
        <time>2018-09-02T12:44:54Z</time>
      </trkpt>
      <trkpt lat="40.583433" lon="-5.166600">
        <ele>2542.0</ele>
        <time>2018-09-02T12:44:55Z</time>
      </trkpt>
      <trkpt lat="40.583450" lon="-5.166450">
        <ele>2544.0</ele>
        <time>2018-09-02T12:44:56Z</time>
      </trkpt>
      <trkpt lat="40.583450" lon="-5.166300">
        <ele>2546.0</ele>
        <time>2018-09-02T12:44:57Z</time>
      </trkpt>
      <trkpt lat="40.583417" lon="-5.166167">
        <ele>2548.0</ele>
        <time>2018-09-02T12:44:58Z</time>
      </trkpt>
      <trkpt lat="40.583350" lon="-5.166067">
        <ele>2549.0</ele>
        <time>2018-09-02T12:44:59Z</time>
      </trkpt>
      <trkpt lat="40.583283" lon="-5.166000">
        <ele>2552.0</ele>
        <time>2018-09-02T12:45:00Z</time>
      </trkpt>
      <trkpt lat="40.583217" lon="-5.165967">
        <ele>2556.0</ele>
        <time>2018-09-02T12:45:01Z</time>
      </trkpt>
      <trkpt lat="40.583183" lon="-5.165967">
        <ele>2564.0</ele>
        <time>2018-09-02T12:45:02Z</time>
      </trkpt>
      <trkpt lat="40.583150" lon="-5.166017">
        <ele>2562.0</ele>
        <time>2018-09-02T12:45:03Z</time>
      </trkpt>
      <trkpt lat="40.583150" lon="-5.166083">
        <ele>2562.0</ele>
        <time>2018-09-02T12:45:04Z</time>
      </trkpt>
      <trkpt lat="40.583183" lon="-5.166167">
        <ele>2562.0</ele>
        <time>2018-09-02T12:45:05Z</time>
      </trkpt>
      <trkpt lat="40.583250" lon="-5.166233">
        <ele>2564.0</ele>
        <time>2018-09-02T12:45:06Z</time>
      </trkpt>
      <trkpt lat="40.583333" lon="-5.166267">
        <ele>2565.0</ele>
        <time>2018-09-02T12:45:07Z</time>
      </trkpt>
      <trkpt lat="40.583417" lon="-5.166267">
        <ele>2565.0</ele>
        <time>2018-09-02T12:45:08Z</time>
      </trkpt>
      <trkpt lat="40.583517" lon="-5.166217">
        <ele>2566.0</ele>
        <time>2018-09-02T12:45:09Z</time>
      </trkpt>
      <trkpt lat="40.583600" lon="-5.166133">
        <ele>2568.0</ele>
        <time>2018-09-02T12:45:10Z</time>
      </trkpt>
      <trkpt lat="40.583667" lon="-5.166017">
        <ele>2570.0</ele>
        <time>2018-09-02T12:45:11Z</time>
      </trkpt>
      <trkpt lat="40.583700" lon="-5.165900">
        <ele>2572.0</ele>
        <time>2018-09-02T12:45:12Z</time>
      </trkpt>
      <trkpt lat="40.583700" lon="-5.165767">
        <ele>2575.0</ele>
        <time>2018-09-02T12:45:13Z</time>
      </trkpt>
      <trkpt lat="40.583650" lon="-5.165683">
        <ele>2579.0</ele>
        <time>2018-09-02T12:45:14Z</time>
      </trkpt>
      <trkpt lat="40.583600" lon="-5.165600">
        <ele>2582.0</ele>
        <time>2018-09-02T12:45:15Z</time>
      </trkpt>
      <trkpt lat="40.583500" lon="-5.165567">
        <ele>2590.0</ele>
        <time>2018-09-02T12:45:16Z</time>
      </trkpt>
      <trkpt lat="40.583433" lon="-5.165533">
        <ele>2595.0</ele>
        <time>2018-09-02T12:45:17Z</time>
      </trkpt>
      <trkpt lat="40.583383" lon="-5.165533">
        <ele>2601.0</ele>
        <time>2018-09-02T12:45:18Z</time>
      </trkpt>
      <trkpt lat="40.583333" lon="-5.165567">
        <ele>2606.0</ele>
        <time>2018-09-02T12:45:19Z</time>
      </trkpt>
      <trkpt lat="40.583317" lon="-5.165633">
        <ele>2611.0</ele>
        <time>2018-09-02T12:45:20Z</time>
      </trkpt>
      <trkpt lat="40.583317" lon="-5.165683">
        <ele>2615.0</ele>
        <time>2018-09-02T12:45:21Z</time>
      </trkpt>
      <trkpt lat="40.583350" lon="-5.165717">
        <ele>2619.0</ele>
        <time>2018-09-02T12:45:22Z</time>
      </trkpt>
      <trkpt lat="40.583383" lon="-5.165750">
        <ele>2619.0</ele>
        <time>2018-09-02T12:45:23Z</time>
      </trkpt>
      <trkpt lat="40.583433" lon="-5.165700">
        <ele>2624.0</ele>
        <time>2018-09-02T12:45:24Z</time>
      </trkpt>
      <trkpt lat="40.583467" lon="-5.165667">
        <ele>2627.0</ele>
        <time>2018-09-02T12:45:25Z</time>
      </trkpt>
      <trkpt lat="40.583617" lon="-5.165550">
        <ele>2632.0</ele>
        <time>2018-09-02T12:45:26Z</time>
      </trkpt>
      <trkpt lat="40.583700" lon="-5.165467">
        <ele>2634.0</ele>
        <time>2018-09-02T12:45:27Z</time>
      </trkpt>
      <trkpt lat="40.583783" lon="-5.165383">
        <ele>2640.0</ele>
        <time>2018-09-02T12:45:28Z</time>
      </trkpt>
      <trkpt lat="40.583850" lon="-5.165283">
        <ele>2646.0</ele>
        <time>2018-09-02T12:45:29Z</time>
      </trkpt>
      <trkpt lat="40.583900" lon="-5.165150">
        <ele>2653.0</ele>
        <time>2018-09-02T12:45:30Z</time>
      </trkpt>
      <trkpt lat="40.583933" lon="-5.165017">
        <ele>2658.0</ele>
        <time>2018-09-02T12:45:31Z</time>
      </trkpt>
      <trkpt lat="40.583917" lon="-5.164933">
        <ele>2663.0</ele>
        <time>2018-09-02T12:45:32Z</time>
      </trkpt>
      <trkpt lat="40.583850" lon="-5.164833">
        <ele>2662.0</ele>
        <time>2018-09-02T12:45:33Z</time>
      </trkpt>
      <trkpt lat="40.583783" lon="-5.164767">
        <ele>2665.0</ele>
        <time>2018-09-02T12:45:34Z</time>
      </trkpt>
      <trkpt lat="40.583750" lon="-5.164733">
        <ele>2670.0</ele>
        <time>2018-09-02T12:45:35Z</time>
      </trkpt>
      <trkpt lat="40.583717" lon="-5.164800">
        <ele>2675.0</ele>
        <time>2018-09-02T12:45:36Z</time>
      </trkpt>
      <trkpt lat="40.583717" lon="-5.164867">
        <ele>2678.0</ele>
        <time>2018-09-02T12:45:37Z</time>
      </trkpt>
      <trkpt lat="40.583750" lon="-5.164933">
        <ele>2683.0</ele>
        <time>2018-09-02T12:45:38Z</time>
      </trkpt>
      <trkpt lat="40.583800" lon="-5.164983">
        <ele>2687.0</ele>
        <time>2018-09-02T12:45:39Z</time>
      </trkpt>
      <trkpt lat="40.583833" lon="-5.165017">
        <ele>2691.0</ele>
        <time>2018-09-02T12:45:40Z</time>
      </trkpt>
      <trkpt lat="40.583917" lon="-5.165050">
        <ele>2695.0</ele>
        <time>2018-09-02T12:45:41Z</time>
      </trkpt>
      <trkpt lat="40.584000" lon="-5.165050">
        <ele>2694.0</ele>
        <time>2018-09-02T12:45:42Z</time>
      </trkpt>
      <trkpt lat="40.584100" lon="-5.165033">
        <ele>2696.0</ele>
        <time>2018-09-02T12:45:43Z</time>
      </trkpt>
      <trkpt lat="40.584183" lon="-5.164983">
        <ele>2700.0</ele>
        <time>2018-09-02T12:45:44Z</time>
      </trkpt>
      <trkpt lat="40.584233" lon="-5.164867">
        <ele>2703.0</ele>
        <time>2018-09-02T12:45:45Z</time>
      </trkpt>
      <trkpt lat="40.584233" lon="-5.164700">
        <ele>2707.0</ele>
        <time>2018-09-02T12:45:46Z</time>
      </trkpt>
      <trkpt lat="40.584200" lon="-5.164583">
        <ele>2710.0</ele>
        <time>2018-09-02T12:45:47Z</time>
      </trkpt>
      <trkpt lat="40.584167" lon="-5.164550">
        <ele>2713.0</ele>
        <time>2018-09-02T12:45:48Z</time>
      </trkpt>
      <trkpt lat="40.584083" lon="-5.164500">
        <ele>2712.0</ele>
        <time>2018-09-02T12:45:49Z</time>
      </trkpt>
      <trkpt lat="40.584000" lon="-5.164483">
        <ele>2715.0</ele>
        <time>2018-09-02T12:45:50Z</time>
      </trkpt>
      <trkpt lat="40.583917" lon="-5.164500">
        <ele>2717.0</ele>
        <time>2018-09-02T12:45:51Z</time>
      </trkpt>
      <trkpt lat="40.583867" lon="-5.164533">
        <ele>2720.0</ele>
        <time>2018-09-02T12:45:52Z</time>
      </trkpt>
      <trkpt lat="40.583850" lon="-5.164583">
        <ele>2723.0</ele>
        <time>2018-09-02T12:45:53Z</time>
      </trkpt>
      <trkpt lat="40.583850" lon="-5.164667">
        <ele>2727.0</ele>
        <time>2018-09-02T12:45:54Z</time>
      </trkpt>
      <trkpt lat="40.583850" lon="-5.164700">
        <ele>2729.0</ele>
        <time>2018-09-02T12:45:55Z</time>
      </trkpt>
      <trkpt lat="40.583917" lon="-5.164700">
        <ele>2733.0</ele>
        <time>2018-09-02T12:45:56Z</time>
      </trkpt>
      <trkpt lat="40.584017" lon="-5.164650">
        <ele>2734.0</ele>
        <time>2018-09-02T12:45:57Z</time>
      </trkpt>
      <trkpt lat="40.584150" lon="-5.164483">
        <ele>2735.0</ele>
        <time>2018-09-02T12:45:58Z</time>
      </trkpt>
      <trkpt lat="40.584217" lon="-5.164350">
        <ele>2733.0</ele>
        <time>2018-09-02T12:45:59Z</time>
      </trkpt>
      <trkpt lat="40.584250" lon="-5.164183">
        <ele>2736.0</ele>
        <time>2018-09-02T12:46:00Z</time>
      </trkpt>
      <trkpt lat="40.584267" lon="-5.164033">
        <ele>2739.0</ele>
        <time>2018-09-02T12:46:01Z</time>
      </trkpt>
      <trkpt lat="40.584250" lon="-5.163900">
        <ele>2743.0</ele>
        <time>2018-09-02T12:46:02Z</time>
      </trkpt>
      <trkpt lat="40.584217" lon="-5.163767">
        <ele>2745.0</ele>
        <time>2018-09-02T12:46:03Z</time>
      </trkpt>
      <trkpt lat="40.584200" lon="-5.163633">
        <ele>2749.0</ele>
        <time>2018-09-02T12:46:04Z</time>
      </trkpt>
      <trkpt lat="40.584167" lon="-5.163533">
        <ele>2752.0</ele>
        <time>2018-09-02T12:46:05Z</time>
      </trkpt>
      <trkpt lat="40.584117" lon="-5.163450">
        <ele>2753.0</ele>
        <time>2018-09-02T12:46:06Z</time>
      </trkpt>
      <trkpt lat="40.584033" lon="-5.163417">
        <ele>2754.0</ele>
        <time>2018-09-02T12:46:07Z</time>
      </trkpt>
      <trkpt lat="40.583967" lon="-5.163400">
        <ele>2756.0</ele>
        <time>2018-09-02T12:46:08Z</time>
      </trkpt>
      <trkpt lat="40.583933" lon="-5.163433">
        <ele>2758.0</ele>
        <time>2018-09-02T12:46:09Z</time>
      </trkpt>
      <trkpt lat="40.583900" lon="-5.163500">
        <ele>2759.0</ele>
        <time>2018-09-02T12:46:10Z</time>
      </trkpt>
      <trkpt lat="40.583900" lon="-5.163567">
        <ele>2761.0</ele>
        <time>2018-09-02T12:46:11Z</time>
      </trkpt>
      <trkpt lat="40.583917" lon="-5.163617">
        <ele>2763.0</ele>
        <time>2018-09-02T12:46:12Z</time>
      </trkpt>
      <trkpt lat="40.583967" lon="-5.163617">
        <ele>2765.0</ele>
        <time>2018-09-02T12:46:13Z</time>
      </trkpt>
      <trkpt lat="40.584100" lon="-5.163583">
        <ele>2766.0</ele>
        <time>2018-09-02T12:46:14Z</time>
      </trkpt>
      <trkpt lat="40.584250" lon="-5.163483">
        <ele>2765.0</ele>
        <time>2018-09-02T12:46:15Z</time>
      </trkpt>
      <trkpt lat="40.584300" lon="-5.163350">
        <ele>2764.0</ele>
        <time>2018-09-02T12:46:16Z</time>
      </trkpt>
      <trkpt lat="40.584367" lon="-5.163200">
        <ele>2764.0</ele>
        <time>2018-09-02T12:46:17Z</time>
      </trkpt>
      <trkpt lat="40.584417" lon="-5.163033">
        <ele>2765.0</ele>
        <time>2018-09-02T12:46:18Z</time>
      </trkpt>
      <trkpt lat="40.584467" lon="-5.162867">
        <ele>2767.0</ele>
        <time>2018-09-02T12:46:19Z</time>
      </trkpt>
      <trkpt lat="40.584450" lon="-5.162683">
        <ele>2769.0</ele>
        <time>2018-09-02T12:46:20Z</time>
      </trkpt>
      <trkpt lat="40.584433" lon="-5.162483">
        <ele>2772.0</ele>
        <time>2018-09-02T12:46:21Z</time>
      </trkpt>
      <trkpt lat="40.584433" lon="-5.162333">
        <ele>2776.0</ele>
        <time>2018-09-02T12:46:22Z</time>
      </trkpt>
      <trkpt lat="40.584433" lon="-5.162183">
        <ele>2780.0</ele>
        <time>2018-09-02T12:46:23Z</time>
      </trkpt>
      <trkpt lat="40.584417" lon="-5.162033">
        <ele>2783.0</ele>
        <time>2018-09-02T12:46:24Z</time>
      </trkpt>
      <trkpt lat="40.584417" lon="-5.161883">
        <ele>2787.0</ele>
        <time>2018-09-02T12:46:25Z</time>
      </trkpt>
      <trkpt lat="40.584383" lon="-5.161750">
        <ele>2791.0</ele>
        <time>2018-09-02T12:46:26Z</time>
      </trkpt>
      <trkpt lat="40.584333" lon="-5.161650">
        <ele>2794.0</ele>
        <time>2018-09-02T12:46:27Z</time>
      </trkpt>
      <trkpt lat="40.584267" lon="-5.161567">
        <ele>2796.0</ele>
        <time>2018-09-02T12:46:28Z</time>
      </trkpt>
      <trkpt lat="40.584200" lon="-5.161533">
        <ele>2799.0</ele>
        <time>2018-09-02T12:46:29Z</time>
      </trkpt>
      <trkpt lat="40.584167" lon="-5.161533">
        <ele>2802.0</ele>
        <time>2018-09-02T12:46:30Z</time>
      </trkpt>
      <trkpt lat="40.584133" lon="-5.161617">
        <ele>2804.0</ele>
        <time>2018-09-02T12:46:31Z</time>
      </trkpt>
      <trkpt lat="40.584133" lon="-5.161700">
        <ele>2805.0</ele>
        <time>2018-09-02T12:46:32Z</time>
      </trkpt>
      <trkpt lat="40.584183" lon="-5.161750">
        <ele>2807.0</ele>
        <time>2018-09-02T12:46:33Z</time>
      </trkpt>
      <trkpt lat="40.584233" lon="-5.161750">
        <ele>2810.0</ele>
        <time>2018-09-02T12:46:34Z</time>
      </trkpt>
      <trkpt lat="40.584333" lon="-5.161717">
        <ele>2812.0</ele>
        <time>2018-09-02T12:46:35Z</time>
      </trkpt>
      <trkpt lat="40.584450" lon="-5.161650">
        <ele>2814.0</ele>
        <time>2018-09-02T12:46:36Z</time>
      </trkpt>
      <trkpt lat="40.584550" lon="-5.161567">
        <ele>2816.0</ele>
        <time>2018-09-02T12:46:37Z</time>
      </trkpt>
      <trkpt lat="40.584633" lon="-5.161450">
        <ele>2819.0</ele>
        <time>2018-09-02T12:46:38Z</time>
      </trkpt>
      <trkpt lat="40.584700" lon="-5.161317">
        <ele>2821.0</ele>
        <time>2018-09-02T12:46:39Z</time>
      </trkpt>
      <trkpt lat="40.584733" lon="-5.161167">
        <ele>2824.0</ele>
        <time>2018-09-02T12:46:40Z</time>
      </trkpt>
      <trkpt lat="40.584717" lon="-5.161050">
        <ele>2826.0</ele>
        <time>2018-09-02T12:46:41Z</time>
      </trkpt>
      <trkpt lat="40.584667" lon="-5.160950">
        <ele>2827.0</ele>
        <time>2018-09-02T12:46:42Z</time>
      </trkpt>
      <trkpt lat="40.584583" lon="-5.160883">
        <ele>2834.0</ele>
        <time>2018-09-02T12:46:45Z</time>
      </trkpt>
      <trkpt lat="40.584567" lon="-5.160933">
        <ele>2836.0</ele>
        <time>2018-09-02T12:46:47Z</time>
      </trkpt>
      <trkpt lat="40.584567" lon="-5.160933">
        <ele>2838.0</ele>
        <time>2018-09-02T12:46:48Z</time>
      </trkpt>
      <trkpt lat="40.584567" lon="-5.160933">
        <ele>2840.0</ele>
        <time>2018-09-02T12:46:49Z</time>
      </trkpt>
      <trkpt lat="40.584567" lon="-5.160933">
        <ele>2842.0</ele>
        <time>2018-09-02T12:46:50Z</time>
      </trkpt>
      <trkpt lat="40.584583" lon="-5.160900">
        <ele>2845.0</ele>
        <time>2018-09-02T12:46:51Z</time>
      </trkpt>
      <trkpt lat="40.584550" lon="-5.160817">
        <ele>2847.0</ele>
        <time>2018-09-02T12:46:52Z</time>
      </trkpt>
      <trkpt lat="40.584483" lon="-5.160833">
        <ele>2850.0</ele>
        <time>2018-09-02T12:46:53Z</time>
      </trkpt>
      <trkpt lat="40.584433" lon="-5.160917">
        <ele>2853.0</ele>
        <time>2018-09-02T12:46:54Z</time>
      </trkpt>
      <trkpt lat="40.584467" lon="-5.161033">
        <ele>2856.0</ele>
        <time>2018-09-02T12:46:55Z</time>
      </trkpt>
      <trkpt lat="40.584533" lon="-5.161067">
        <ele>2859.0</ele>
        <time>2018-09-02T12:46:56Z</time>
      </trkpt>
      <trkpt lat="40.584683" lon="-5.161067">
        <ele>2862.0</ele>
        <time>2018-09-02T12:46:57Z</time>
      </trkpt>
      <trkpt lat="40.584850" lon="-5.161033">
        <ele>2865.0</ele>
        <time>2018-09-02T12:46:58Z</time>
      </trkpt>
      <trkpt lat="40.584950" lon="-5.160983">
        <ele>2869.0</ele>
        <time>2018-09-02T12:46:59Z</time>
      </trkpt>
      <trkpt lat="40.585050" lon="-5.160933">
        <ele>2872.0</ele>
        <time>2018-09-02T12:47:00Z</time>
      </trkpt>
      <trkpt lat="40.585150" lon="-5.160867">
        <ele>2875.0</ele>
        <time>2018-09-02T12:47:01Z</time>
      </trkpt>
      <trkpt lat="40.585233" lon="-5.160733">
        <ele>2878.0</ele>
        <time>2018-09-02T12:47:02Z</time>
      </trkpt>
      <trkpt lat="40.585300" lon="-5.160583">
        <ele>2879.0</ele>
        <time>2018-09-02T12:47:03Z</time>
      </trkpt>
      <trkpt lat="40.585367" lon="-5.160433">
        <ele>2882.0</ele>
        <time>2018-09-02T12:47:04Z</time>
      </trkpt>
      <trkpt lat="40.585317" lon="-5.160317">
        <ele>2885.0</ele>
        <time>2018-09-02T12:47:05Z</time>
      </trkpt>
      <trkpt lat="40.585233" lon="-5.160250">
        <ele>2883.0</ele>
        <time>2018-09-02T12:47:06Z</time>
      </trkpt>
      <trkpt lat="40.585167" lon="-5.160250">
        <ele>2884.0</ele>
        <time>2018-09-02T12:47:07Z</time>
      </trkpt>
      <trkpt lat="40.585117" lon="-5.160267">
        <ele>2886.0</ele>
        <time>2018-09-02T12:47:08Z</time>
      </trkpt>
      <trkpt lat="40.585067" lon="-5.160283">
        <ele>2889.0</ele>
        <time>2018-09-02T12:47:09Z</time>
      </trkpt>
      <trkpt lat="40.585017" lon="-5.160300">
        <ele>2892.0</ele>
        <time>2018-09-02T12:47:10Z</time>
      </trkpt>
      <trkpt lat="40.584983" lon="-5.160317">
        <ele>2894.0</ele>
        <time>2018-09-02T12:47:11Z</time>
      </trkpt>
      <trkpt lat="40.584967" lon="-5.160350">
        <ele>2898.0</ele>
        <time>2018-09-02T12:47:12Z</time>
      </trkpt>
      <trkpt lat="40.584950" lon="-5.160433">
        <ele>2902.0</ele>
        <time>2018-09-02T12:47:13Z</time>
      </trkpt>
      <trkpt lat="40.584967" lon="-5.160500">
        <ele>2906.0</ele>
        <time>2018-09-02T12:47:14Z</time>
      </trkpt>
      <trkpt lat="40.585017" lon="-5.160517">
        <ele>2911.0</ele>
        <time>2018-09-02T12:47:15Z</time>
      </trkpt>
      <trkpt lat="40.585083" lon="-5.160517">
        <ele>2914.0</ele>
        <time>2018-09-02T12:47:16Z</time>
      </trkpt>
      <trkpt lat="40.585183" lon="-5.160417">
        <ele>2916.0</ele>
        <time>2018-09-02T12:47:17Z</time>
      </trkpt>
      <trkpt lat="40.585283" lon="-5.160300">
        <ele>2916.0</ele>
        <time>2018-09-02T12:47:18Z</time>
      </trkpt>
      <trkpt lat="40.585300" lon="-5.160150">
        <ele>2919.0</ele>
        <time>2018-09-02T12:47:19Z</time>
      </trkpt>
      <trkpt lat="40.585317" lon="-5.160000">
        <ele>2921.0</ele>
        <time>2018-09-02T12:47:20Z</time>
      </trkpt>
      <trkpt lat="40.585300" lon="-5.159867">
        <ele>2924.0</ele>
        <time>2018-09-02T12:47:21Z</time>
      </trkpt>
      <trkpt lat="40.585267" lon="-5.159767">
        <ele>2928.0</ele>
        <time>2018-09-02T12:47:22Z</time>
      </trkpt>
      <trkpt lat="40.585217" lon="-5.159683">
        <ele>2931.0</ele>
        <time>2018-09-02T12:47:23Z</time>
      </trkpt>
      <trkpt lat="40.585150" lon="-5.159617">
        <ele>2934.0</ele>
        <time>2018-09-02T12:47:24Z</time>
      </trkpt>
      <trkpt lat="40.585100" lon="-5.159567">
        <ele>2939.0</ele>
        <time>2018-09-02T12:47:25Z</time>
      </trkpt>
      <trkpt lat="40.585050" lon="-5.159517">
        <ele>2944.0</ele>
        <time>2018-09-02T12:47:26Z</time>
      </trkpt>
      <trkpt lat="40.584983" lon="-5.159483">
        <ele>2947.0</ele>
        <time>2018-09-02T12:47:27Z</time>
      </trkpt>
      <trkpt lat="40.584917" lon="-5.159467">
        <ele>2950.0</ele>
        <time>2018-09-02T12:47:28Z</time>
      </trkpt>
      <trkpt lat="40.584867" lon="-5.159483">
        <ele>2954.0</ele>
        <time>2018-09-02T12:47:29Z</time>
      </trkpt>
      <trkpt lat="40.584833" lon="-5.159550">
        <ele>2958.0</ele>
        <time>2018-09-02T12:47:30Z</time>
      </trkpt>
      <trkpt lat="40.584833" lon="-5.159633">
        <ele>2962.0</ele>
        <time>2018-09-02T12:47:31Z</time>
      </trkpt>
      <trkpt lat="40.584867" lon="-5.159717">
        <ele>2965.0</ele>
        <time>2018-09-02T12:47:32Z</time>
      </trkpt>
      <trkpt lat="40.584917" lon="-5.159783">
        <ele>2967.0</ele>
        <time>2018-09-02T12:47:33Z</time>
      </trkpt>
      <trkpt lat="40.585033" lon="-5.159800">
        <ele>2971.0</ele>
        <time>2018-09-02T12:47:34Z</time>
      </trkpt>
      <trkpt lat="40.585133" lon="-5.159800">
        <ele>2970.0</ele>
        <time>2018-09-02T12:47:35Z</time>
      </trkpt>
      <trkpt lat="40.585217" lon="-5.159783">
        <ele>2973.0</ele>
        <time>2018-09-02T12:47:36Z</time>
      </trkpt>
      <trkpt lat="40.585283" lon="-5.159683">
        <ele>2975.0</ele>
        <time>2018-09-02T12:47:37Z</time>
      </trkpt>
      <trkpt lat="40.585350" lon="-5.159550">
        <ele>2977.0</ele>
        <time>2018-09-02T12:47:38Z</time>
      </trkpt>
      <trkpt lat="40.585400" lon="-5.159383">
        <ele>2979.0</ele>
        <time>2018-09-02T12:47:39Z</time>
      </trkpt>
      <trkpt lat="40.585400" lon="-5.159200">
        <ele>2980.0</ele>
        <time>2018-09-02T12:47:40Z</time>
      </trkpt>
      <trkpt lat="40.585383" lon="-5.159033">
        <ele>2982.0</ele>
        <time>2018-09-02T12:47:41Z</time>
      </trkpt>
      <trkpt lat="40.585367" lon="-5.158883">
        <ele>2985.0</ele>
        <time>2018-09-02T12:47:42Z</time>
      </trkpt>
      <trkpt lat="40.585350" lon="-5.158733">
        <ele>2988.0</ele>
        <time>2018-09-02T12:47:43Z</time>
      </trkpt>
      <trkpt lat="40.585333" lon="-5.158583">
        <ele>2992.0</ele>
        <time>2018-09-02T12:47:44Z</time>
      </trkpt>
      <trkpt lat="40.585317" lon="-5.158467">
        <ele>2996.0</ele>
        <time>2018-09-02T12:47:45Z</time>
      </trkpt>
      <trkpt lat="40.585267" lon="-5.158333">
        <ele>2999.0</ele>
        <time>2018-09-02T12:47:46Z</time>
      </trkpt>
      <trkpt lat="40.585217" lon="-5.158250">
        <ele>3002.0</ele>
        <time>2018-09-02T12:47:47Z</time>
      </trkpt>
      <trkpt lat="40.585150" lon="-5.158183">
        <ele>3004.0</ele>
        <time>2018-09-02T12:47:48Z</time>
      </trkpt>
      <trkpt lat="40.585083" lon="-5.158150">
        <ele>3006.0</ele>
        <time>2018-09-02T12:47:49Z</time>
      </trkpt>
      <trkpt lat="40.585017" lon="-5.158167">
        <ele>3008.0</ele>
        <time>2018-09-02T12:47:50Z</time>
      </trkpt>
      <trkpt lat="40.585017" lon="-5.158233">
        <ele>3010.0</ele>
        <time>2018-09-02T12:47:51Z</time>
      </trkpt>
      <trkpt lat="40.585000" lon="-5.158317">
        <ele>3011.0</ele>
        <time>2018-09-02T12:47:52Z</time>
      </trkpt>
      <trkpt lat="40.585017" lon="-5.158400">
        <ele>3013.0</ele>
        <time>2018-09-02T12:47:53Z</time>
      </trkpt>
      <trkpt lat="40.585050" lon="-5.158450">
        <ele>3014.0</ele>
        <time>2018-09-02T12:47:54Z</time>
      </trkpt>
      <trkpt lat="40.585117" lon="-5.158467">
        <ele>3016.0</ele>
        <time>2018-09-02T12:47:55Z</time>
      </trkpt>
      <trkpt lat="40.585200" lon="-5.158450">
        <ele>3019.0</ele>
        <time>2018-09-02T12:47:56Z</time>
      </trkpt>
      <trkpt lat="40.585267" lon="-5.158367">
        <ele>3021.0</ele>
        <time>2018-09-02T12:47:57Z</time>
      </trkpt>
      <trkpt lat="40.585383" lon="-5.158217">
        <ele>3021.0</ele>
        <time>2018-09-02T12:47:58Z</time>
      </trkpt>
      <trkpt lat="40.585450" lon="-5.158050">
        <ele>3022.0</ele>
        <time>2018-09-02T12:47:59Z</time>
      </trkpt>
      <trkpt lat="40.585483" lon="-5.157900">
        <ele>3024.0</ele>
        <time>2018-09-02T12:48:00Z</time>
      </trkpt>
      <trkpt lat="40.585517" lon="-5.157733">
        <ele>3026.0</ele>
        <time>2018-09-02T12:48:01Z</time>
      </trkpt>
      <trkpt lat="40.585517" lon="-5.157567">
        <ele>3029.0</ele>
        <time>2018-09-02T12:48:02Z</time>
      </trkpt>
      <trkpt lat="40.585483" lon="-5.157433">
        <ele>3031.0</ele>
        <time>2018-09-02T12:48:03Z</time>
      </trkpt>
      <trkpt lat="40.585417" lon="-5.157300">
        <ele>3033.0</ele>
        <time>2018-09-02T12:48:04Z</time>
      </trkpt>
      <trkpt lat="40.585350" lon="-5.157217">
        <ele>3036.0</ele>
        <time>2018-09-02T12:48:05Z</time>
      </trkpt>
      <trkpt lat="40.585300" lon="-5.157150">
        <ele>3038.0</ele>
        <time>2018-09-02T12:48:06Z</time>
      </trkpt>
      <trkpt lat="40.585250" lon="-5.157100">
        <ele>3040.0</ele>
        <time>2018-09-02T12:48:07Z</time>
      </trkpt>
      <trkpt lat="40.585233" lon="-5.157133">
        <ele>3045.0</ele>
        <time>2018-09-02T12:48:08Z</time>
      </trkpt>
      <trkpt lat="40.585233" lon="-5.157200">
        <ele>3048.0</ele>
        <time>2018-09-02T12:48:09Z</time>
      </trkpt>
      <trkpt lat="40.585267" lon="-5.157250">
        <ele>3050.0</ele>
        <time>2018-09-02T12:48:10Z</time>
      </trkpt>
      <trkpt lat="40.585317" lon="-5.157300">
        <ele>3052.0</ele>
        <time>2018-09-02T12:48:11Z</time>
      </trkpt>
      <trkpt lat="40.585417" lon="-5.157300">
        <ele>3055.0</ele>
        <time>2018-09-02T12:48:12Z</time>
      </trkpt>
      <trkpt lat="40.585533" lon="-5.157267">
        <ele>3057.0</ele>
        <time>2018-09-02T12:48:13Z</time>
      </trkpt>
      <trkpt lat="40.585633" lon="-5.157183">
        <ele>3061.0</ele>
        <time>2018-09-02T12:48:14Z</time>
      </trkpt>
      <trkpt lat="40.585717" lon="-5.157050">
        <ele>3065.0</ele>
        <time>2018-09-02T12:48:15Z</time>
      </trkpt>
      <trkpt lat="40.585783" lon="-5.156883">
        <ele>3069.0</ele>
        <time>2018-09-02T12:48:16Z</time>
      </trkpt>
      <trkpt lat="40.585783" lon="-5.156700">
        <ele>3074.0</ele>
        <time>2018-09-02T12:48:17Z</time>
      </trkpt>
      <trkpt lat="40.585750" lon="-5.156517">
        <ele>3078.0</ele>
        <time>2018-09-02T12:48:18Z</time>
      </trkpt>
      <trkpt lat="40.585700" lon="-5.156383">
        <ele>3082.0</ele>
        <time>2018-09-02T12:48:19Z</time>
      </trkpt>
      <trkpt lat="40.585633" lon="-5.156300">
        <ele>3088.0</ele>
        <time>2018-09-02T12:48:20Z</time>
      </trkpt>
      <trkpt lat="40.585567" lon="-5.156283">
        <ele>3093.0</ele>
        <time>2018-09-02T12:48:21Z</time>
      </trkpt>
      <trkpt lat="40.585517" lon="-5.156300">
        <ele>3096.0</ele>
        <time>2018-09-02T12:48:22Z</time>
      </trkpt>
      <trkpt lat="40.585500" lon="-5.156350">
        <ele>3099.0</ele>
        <time>2018-09-02T12:48:23Z</time>
      </trkpt>
      <trkpt lat="40.585517" lon="-5.156417">
        <ele>3102.0</ele>
        <time>2018-09-02T12:48:24Z</time>
      </trkpt>
      <trkpt lat="40.585600" lon="-5.156450">
        <ele>3104.0</ele>
        <time>2018-09-02T12:48:25Z</time>
      </trkpt>
      <trkpt lat="40.585717" lon="-5.156417">
        <ele>3106.0</ele>
        <time>2018-09-02T12:48:26Z</time>
      </trkpt>
      <trkpt lat="40.585833" lon="-5.156333">
        <ele>3109.0</ele>
        <time>2018-09-02T12:48:27Z</time>
      </trkpt>
      <trkpt lat="40.585933" lon="-5.156217">
        <ele>3112.0</ele>
        <time>2018-09-02T12:48:28Z</time>
      </trkpt>
      <trkpt lat="40.586000" lon="-5.156050">
        <ele>3115.0</ele>
        <time>2018-09-02T12:48:29Z</time>
      </trkpt>
      <trkpt lat="40.586050" lon="-5.155883">
        <ele>3118.0</ele>
        <time>2018-09-02T12:48:30Z</time>
      </trkpt>
      <trkpt lat="40.586050" lon="-5.155717">
        <ele>3122.0</ele>
        <time>2018-09-02T12:48:31Z</time>
      </trkpt>
      <trkpt lat="40.586033" lon="-5.155583">
        <ele>3126.0</ele>
        <time>2018-09-02T12:48:32Z</time>
      </trkpt>
      <trkpt lat="40.585983" lon="-5.155433">
        <ele>3130.0</ele>
        <time>2018-09-02T12:48:33Z</time>
      </trkpt>
      <trkpt lat="40.585933" lon="-5.155317">
        <ele>3133.0</ele>
        <time>2018-09-02T12:48:34Z</time>
      </trkpt>
      <trkpt lat="40.585850" lon="-5.155217">
        <ele>3137.0</ele>
        <time>2018-09-02T12:48:35Z</time>
      </trkpt>
      <trkpt lat="40.585767" lon="-5.155183">
        <ele>3140.0</ele>
        <time>2018-09-02T12:48:36Z</time>
      </trkpt>
      <trkpt lat="40.585717" lon="-5.155200">
        <ele>3143.0</ele>
        <time>2018-09-02T12:48:37Z</time>
      </trkpt>
      <trkpt lat="40.585667" lon="-5.155250">
        <ele>3145.0</ele>
        <time>2018-09-02T12:48:38Z</time>
      </trkpt>
      <trkpt lat="40.585650" lon="-5.155333">
        <ele>3147.0</ele>
        <time>2018-09-02T12:48:39Z</time>
      </trkpt>
      <trkpt lat="40.585683" lon="-5.155417">
        <ele>3150.0</ele>
        <time>2018-09-02T12:48:40Z</time>
      </trkpt>
      <trkpt lat="40.585767" lon="-5.155450">
        <ele>3152.0</ele>
        <time>2018-09-02T12:48:41Z</time>
      </trkpt>
      <trkpt lat="40.585867" lon="-5.155417">
        <ele>3153.0</ele>
        <time>2018-09-02T12:48:42Z</time>
      </trkpt>
      <trkpt lat="40.585983" lon="-5.155333">
        <ele>3155.0</ele>
        <time>2018-09-02T12:48:43Z</time>
      </trkpt>
      <trkpt lat="40.586067" lon="-5.155217">
        <ele>3157.0</ele>
        <time>2018-09-02T12:48:44Z</time>
      </trkpt>
      <trkpt lat="40.586117" lon="-5.155067">
        <ele>3159.0</ele>
        <time>2018-09-02T12:48:45Z</time>
      </trkpt>
      <trkpt lat="40.586117" lon="-5.154900">
        <ele>3163.0</ele>
        <time>2018-09-02T12:48:46Z</time>
      </trkpt>
      <trkpt lat="40.586117" lon="-5.154733">
        <ele>3166.0</ele>
        <time>2018-09-02T12:48:47Z</time>
      </trkpt>
      <trkpt lat="40.586083" lon="-5.154583">
        <ele>3170.0</ele>
        <time>2018-09-02T12:48:48Z</time>
      </trkpt>
      <trkpt lat="40.586033" lon="-5.154467">
        <ele>3173.0</ele>
        <time>2018-09-02T12:48:49Z</time>
      </trkpt>
      <trkpt lat="40.585967" lon="-5.154367">
        <ele>3177.0</ele>
        <time>2018-09-02T12:48:50Z</time>
      </trkpt>
      <trkpt lat="40.585900" lon="-5.154317">
        <ele>3179.0</ele>
        <time>2018-09-02T12:48:51Z</time>
      </trkpt>
      <trkpt lat="40.585817" lon="-5.154300">
        <ele>3183.0</ele>
        <time>2018-09-02T12:48:52Z</time>
      </trkpt>
      <trkpt lat="40.585750" lon="-5.154317">
        <ele>3185.0</ele>
        <time>2018-09-02T12:48:53Z</time>
      </trkpt>
      <trkpt lat="40.585700" lon="-5.154383">
        <ele>3188.0</ele>
        <time>2018-09-02T12:48:54Z</time>
      </trkpt>
      <trkpt lat="40.585700" lon="-5.154450">
        <ele>3190.0</ele>
        <time>2018-09-02T12:48:55Z</time>
      </trkpt>
      <trkpt lat="40.585733" lon="-5.154517">
        <ele>3192.0</ele>
        <time>2018-09-02T12:48:56Z</time>
      </trkpt>
      <trkpt lat="40.585800" lon="-5.154567">
        <ele>3193.0</ele>
        <time>2018-09-02T12:48:57Z</time>
      </trkpt>
      <trkpt lat="40.585900" lon="-5.154567">
        <ele>3195.0</ele>
        <time>2018-09-02T12:48:58Z</time>
      </trkpt>
      <trkpt lat="40.586000" lon="-5.154550">
        <ele>3198.0</ele>
        <time>2018-09-02T12:48:59Z</time>
      </trkpt>
      <trkpt lat="40.586100" lon="-5.154500">
        <ele>3200.0</ele>
        <time>2018-09-02T12:49:00Z</time>
      </trkpt>
      <trkpt lat="40.586183" lon="-5.154433">
        <ele>3202.0</ele>
        <time>2018-09-02T12:49:01Z</time>
      </trkpt>
      <trkpt lat="40.586283" lon="-5.154350">
        <ele>3205.0</ele>
        <time>2018-09-02T12:49:02Z</time>
      </trkpt>
      <trkpt lat="40.586383" lon="-5.154283">
        <ele>3207.0</ele>
        <time>2018-09-02T12:49:03Z</time>
      </trkpt>
      <trkpt lat="40.586467" lon="-5.154217">
        <ele>3210.0</ele>
        <time>2018-09-02T12:49:04Z</time>
      </trkpt>
      <trkpt lat="40.586550" lon="-5.154150">
        <ele>3212.0</ele>
        <time>2018-09-02T12:49:05Z</time>
      </trkpt>
      <trkpt lat="40.586650" lon="-5.154083">
        <ele>3216.0</ele>
        <time>2018-09-02T12:49:06Z</time>
      </trkpt>
      <trkpt lat="40.586750" lon="-5.154000">
        <ele>3220.0</ele>
        <time>2018-09-02T12:49:07Z</time>
      </trkpt>
      <trkpt lat="40.586867" lon="-5.153933">
        <ele>3227.0</ele>
        <time>2018-09-02T12:49:08Z</time>
      </trkpt>
      <trkpt lat="40.586967" lon="-5.153883">
        <ele>3233.0</ele>
        <time>2018-09-02T12:49:09Z</time>
      </trkpt>
      <trkpt lat="40.587067" lon="-5.153833">
        <ele>3238.0</ele>
        <time>2018-09-02T12:49:10Z</time>
      </trkpt>
      <trkpt lat="40.587167" lon="-5.153817">
        <ele>3242.0</ele>
        <time>2018-09-02T12:49:11Z</time>
      </trkpt>
      <trkpt lat="40.587267" lon="-5.153833">
        <ele>3246.0</ele>
        <time>2018-09-02T12:49:12Z</time>
      </trkpt>
      <trkpt lat="40.587367" lon="-5.153883">
        <ele>3250.0</ele>
        <time>2018-09-02T12:49:13Z</time>
      </trkpt>
      <trkpt lat="40.587417" lon="-5.153950">
        <ele>3254.0</ele>
        <time>2018-09-02T12:49:14Z</time>
      </trkpt>
      <trkpt lat="40.587433" lon="-5.154033">
        <ele>3259.0</ele>
        <time>2018-09-02T12:49:15Z</time>
      </trkpt>
      <trkpt lat="40.587417" lon="-5.154083">
        <ele>3264.0</ele>
        <time>2018-09-02T12:49:16Z</time>
      </trkpt>
      <trkpt lat="40.587383" lon="-5.154117">
        <ele>3268.0</ele>
        <time>2018-09-02T12:49:17Z</time>
      </trkpt>
      <trkpt lat="40.587317" lon="-5.154133">
        <ele>3272.0</ele>
        <time>2018-09-02T12:49:18Z</time>
      </trkpt>
      <trkpt lat="40.587250" lon="-5.154117">
        <ele>3277.0</ele>
        <time>2018-09-02T12:49:19Z</time>
      </trkpt>
      <trkpt lat="40.587183" lon="-5.154067">
        <ele>3281.0</ele>
        <time>2018-09-02T12:49:20Z</time>
      </trkpt>
      <trkpt lat="40.587117" lon="-5.153983">
        <ele>3285.0</ele>
        <time>2018-09-02T12:49:21Z</time>
      </trkpt>
      <trkpt lat="40.587067" lon="-5.153883">
        <ele>3290.0</ele>
        <time>2018-09-02T12:49:22Z</time>
      </trkpt>
      <trkpt lat="40.587033" lon="-5.153783">
        <ele>3294.0</ele>
        <time>2018-09-02T12:49:23Z</time>
      </trkpt>
      <trkpt lat="40.587017" lon="-5.153633">
        <ele>3297.0</ele>
        <time>2018-09-02T12:49:24Z</time>
      </trkpt>
      <trkpt lat="40.587033" lon="-5.153467">
        <ele>3300.0</ele>
        <time>2018-09-02T12:49:25Z</time>
      </trkpt>
      <trkpt lat="40.587083" lon="-5.153283">
        <ele>3302.0</ele>
        <time>2018-09-02T12:49:26Z</time>
      </trkpt>
      <trkpt lat="40.587150" lon="-5.153133">
        <ele>3305.0</ele>
        <time>2018-09-02T12:49:27Z</time>
      </trkpt>
      <trkpt lat="40.587233" lon="-5.153000">
        <ele>3311.0</ele>
        <time>2018-09-02T12:49:28Z</time>
      </trkpt>
      <trkpt lat="40.587317" lon="-5.152900">
        <ele>3318.0</ele>
        <time>2018-09-02T12:49:29Z</time>
      </trkpt>
      <trkpt lat="40.587417" lon="-5.152817">
        <ele>3323.0</ele>
        <time>2018-09-02T12:49:30Z</time>
      </trkpt>
      <trkpt lat="40.587517" lon="-5.152750">
        <ele>3328.0</ele>
        <time>2018-09-02T12:49:31Z</time>
      </trkpt>
      <trkpt lat="40.587617" lon="-5.152700">
        <ele>3333.0</ele>
        <time>2018-09-02T12:49:32Z</time>
      </trkpt>
      <trkpt lat="40.587733" lon="-5.152683">
        <ele>3336.0</ele>
        <time>2018-09-02T12:49:33Z</time>
      </trkpt>
      <trkpt lat="40.587833" lon="-5.152700">
        <ele>3339.0</ele>
        <time>2018-09-02T12:49:34Z</time>
      </trkpt>
      <trkpt lat="40.587917" lon="-5.152750">
        <ele>3343.0</ele>
        <time>2018-09-02T12:49:35Z</time>
      </trkpt>
      <trkpt lat="40.587950" lon="-5.152833">
        <ele>3347.0</ele>
        <time>2018-09-02T12:49:36Z</time>
      </trkpt>
      <trkpt lat="40.587967" lon="-5.152917">
        <ele>3351.0</ele>
        <time>2018-09-02T12:49:37Z</time>
      </trkpt>
      <trkpt lat="40.587967" lon="-5.153000">
        <ele>3355.0</ele>
        <time>2018-09-02T12:49:38Z</time>
      </trkpt>
      <trkpt lat="40.587933" lon="-5.153067">
        <ele>3359.0</ele>
        <time>2018-09-02T12:49:39Z</time>
      </trkpt>
      <trkpt lat="40.587900" lon="-5.153117">
        <ele>3363.0</ele>
        <time>2018-09-02T12:49:40Z</time>
      </trkpt>
      <trkpt lat="40.587833" lon="-5.153150">
        <ele>3367.0</ele>
        <time>2018-09-02T12:49:41Z</time>
      </trkpt>
      <trkpt lat="40.587767" lon="-5.153150">
        <ele>3370.0</ele>
        <time>2018-09-02T12:49:42Z</time>
      </trkpt>
      <trkpt lat="40.587700" lon="-5.153117">
        <ele>3375.0</ele>
        <time>2018-09-02T12:49:43Z</time>
      </trkpt>
      <trkpt lat="40.587633" lon="-5.153050">
        <ele>3380.0</ele>
        <time>2018-09-02T12:49:44Z</time>
      </trkpt>
      <trkpt lat="40.587600" lon="-5.152917">
        <ele>3384.0</ele>
        <time>2018-09-02T12:49:45Z</time>
      </trkpt>
      <trkpt lat="40.587583" lon="-5.152767">
        <ele>3387.0</ele>
        <time>2018-09-02T12:49:46Z</time>
      </trkpt>
      <trkpt lat="40.587583" lon="-5.152617">
        <ele>3391.0</ele>
        <time>2018-09-02T12:49:47Z</time>
      </trkpt>
      <trkpt lat="40.587600" lon="-5.152450">
        <ele>3395.0</ele>
        <time>2018-09-02T12:49:48Z</time>
      </trkpt>
      <trkpt lat="40.587667" lon="-5.152300">
        <ele>3399.0</ele>
        <time>2018-09-02T12:49:49Z</time>
      </trkpt>
      <trkpt lat="40.587767" lon="-5.152200">
        <ele>3403.0</ele>
        <time>2018-09-02T12:49:50Z</time>
      </trkpt>
      <trkpt lat="40.587883" lon="-5.152150">
        <ele>3406.0</ele>
        <time>2018-09-02T12:49:51Z</time>
      </trkpt>
      <trkpt lat="40.587983" lon="-5.152167">
        <ele>3409.0</ele>
        <time>2018-09-02T12:49:52Z</time>
      </trkpt>
      <trkpt lat="40.588067" lon="-5.152217">
        <ele>3413.0</ele>
        <time>2018-09-02T12:49:53Z</time>
      </trkpt>
      <trkpt lat="40.588117" lon="-5.152283">
        <ele>3417.0</ele>
        <time>2018-09-02T12:49:54Z</time>
      </trkpt>
      <trkpt lat="40.588133" lon="-5.152367">
        <ele>3421.0</ele>
        <time>2018-09-02T12:49:55Z</time>
      </trkpt>
      <trkpt lat="40.588150" lon="-5.152433">
        <ele>3425.0</ele>
        <time>2018-09-02T12:49:56Z</time>
      </trkpt>
      <trkpt lat="40.588150" lon="-5.152517">
        <ele>3428.0</ele>
        <time>2018-09-02T12:49:57Z</time>
      </trkpt>
      <trkpt lat="40.588133" lon="-5.152583">
        <ele>3431.0</ele>
        <time>2018-09-02T12:49:58Z</time>
      </trkpt>
      <trkpt lat="40.588083" lon="-5.152633">
        <ele>3434.0</ele>
        <time>2018-09-02T12:49:59Z</time>
      </trkpt>
      <trkpt lat="40.588017" lon="-5.152650">
        <ele>3435.0</ele>
        <time>2018-09-02T12:50:00Z</time>
      </trkpt>
      <trkpt lat="40.587933" lon="-5.152633">
        <ele>3438.0</ele>
        <time>2018-09-02T12:50:01Z</time>
      </trkpt>
      <trkpt lat="40.587867" lon="-5.152567">
        <ele>3441.0</ele>
        <time>2018-09-02T12:50:02Z</time>
      </trkpt>
      <trkpt lat="40.587800" lon="-5.152467">
        <ele>3444.0</ele>
        <time>2018-09-02T12:50:03Z</time>
      </trkpt>
      <trkpt lat="40.587767" lon="-5.152350">
        <ele>3448.0</ele>
        <time>2018-09-02T12:50:04Z</time>
      </trkpt>
      <trkpt lat="40.587733" lon="-5.152233">
        <ele>3451.0</ele>
        <time>2018-09-02T12:50:05Z</time>
      </trkpt>
      <trkpt lat="40.587717" lon="-5.152083">
        <ele>3454.0</ele>
        <time>2018-09-02T12:50:06Z</time>
      </trkpt>
      <trkpt lat="40.587733" lon="-5.151917">
        <ele>3457.0</ele>
        <time>2018-09-02T12:50:07Z</time>
      </trkpt>
      <trkpt lat="40.587767" lon="-5.151750">
        <ele>3459.0</ele>
        <time>2018-09-02T12:50:08Z</time>
      </trkpt>
      <trkpt lat="40.587817" lon="-5.151583">
        <ele>3461.0</ele>
        <time>2018-09-02T12:50:09Z</time>
      </trkpt>
      <trkpt lat="40.587883" lon="-5.151433">
        <ele>3463.0</ele>
        <time>2018-09-02T12:50:10Z</time>
      </trkpt>
      <trkpt lat="40.587967" lon="-5.151300">
        <ele>3466.0</ele>
        <time>2018-09-02T12:50:11Z</time>
      </trkpt>
      <trkpt lat="40.588083" lon="-5.151183">
        <ele>3470.0</ele>
        <time>2018-09-02T12:50:12Z</time>
      </trkpt>
      <trkpt lat="40.588183" lon="-5.151117">
        <ele>3473.0</ele>
        <time>2018-09-02T12:50:13Z</time>
      </trkpt>
      <trkpt lat="40.588317" lon="-5.151083">
        <ele>3476.0</ele>
        <time>2018-09-02T12:50:14Z</time>
      </trkpt>
      <trkpt lat="40.588433" lon="-5.151067">
        <ele>3479.0</ele>
        <time>2018-09-02T12:50:15Z</time>
      </trkpt>
      <trkpt lat="40.588550" lon="-5.151083">
        <ele>3483.0</ele>
        <time>2018-09-02T12:50:16Z</time>
      </trkpt>
      <trkpt lat="40.588633" lon="-5.151100">
        <ele>3488.0</ele>
        <time>2018-09-02T12:50:17Z</time>
      </trkpt>
      <trkpt lat="40.588717" lon="-5.151133">
        <ele>3493.0</ele>
        <time>2018-09-02T12:50:18Z</time>
      </trkpt>
      <trkpt lat="40.588800" lon="-5.151183">
        <ele>3497.0</ele>
        <time>2018-09-02T12:50:19Z</time>
      </trkpt>
      <trkpt lat="40.588867" lon="-5.151233">
        <ele>3501.0</ele>
        <time>2018-09-02T12:50:20Z</time>
      </trkpt>
      <trkpt lat="40.588933" lon="-5.151300">
        <ele>3504.0</ele>
        <time>2018-09-02T12:50:21Z</time>
      </trkpt>
      <trkpt lat="40.588967" lon="-5.151400">
        <ele>3508.0</ele>
        <time>2018-09-02T12:50:22Z</time>
      </trkpt>
      <trkpt lat="40.588983" lon="-5.151500">
        <ele>3511.0</ele>
        <time>2018-09-02T12:50:23Z</time>
      </trkpt>
      <trkpt lat="40.588950" lon="-5.151567">
        <ele>3514.0</ele>
        <time>2018-09-02T12:50:24Z</time>
      </trkpt>
      <trkpt lat="40.588917" lon="-5.151600">
        <ele>3518.0</ele>
        <time>2018-09-02T12:50:25Z</time>
      </trkpt>
      <trkpt lat="40.588867" lon="-5.151600">
        <ele>3521.0</ele>
        <time>2018-09-02T12:50:26Z</time>
      </trkpt>
      <trkpt lat="40.588833" lon="-5.151567">
        <ele>3524.0</ele>
        <time>2018-09-02T12:50:27Z</time>
      </trkpt>
      <trkpt lat="40.588800" lon="-5.151517">
        <ele>3526.0</ele>
        <time>2018-09-02T12:50:28Z</time>
      </trkpt>
      <trkpt lat="40.588750" lon="-5.151450">
        <ele>3527.0</ele>
        <time>2018-09-02T12:50:29Z</time>
      </trkpt>
      <trkpt lat="40.588700" lon="-5.151333">
        <ele>3528.0</ele>
        <time>2018-09-02T12:50:30Z</time>
      </trkpt>
      <trkpt lat="40.588667" lon="-5.151183">
        <ele>3527.0</ele>
        <time>2018-09-02T12:50:31Z</time>
      </trkpt>
      <trkpt lat="40.588667" lon="-5.151000">
        <ele>3528.0</ele>
        <time>2018-09-02T12:50:32Z</time>
      </trkpt>
      <trkpt lat="40.588733" lon="-5.150850">
        <ele>3530.0</ele>
        <time>2018-09-02T12:50:33Z</time>
      </trkpt>
      <trkpt lat="40.588833" lon="-5.150717">
        <ele>3533.0</ele>
        <time>2018-09-02T12:50:34Z</time>
      </trkpt>
      <trkpt lat="40.588933" lon="-5.150600">
        <ele>3536.0</ele>
        <time>2018-09-02T12:50:35Z</time>
      </trkpt>
      <trkpt lat="40.589033" lon="-5.150500">
        <ele>3540.0</ele>
        <time>2018-09-02T12:50:36Z</time>
      </trkpt>
      <trkpt lat="40.589150" lon="-5.150417">
        <ele>3544.0</ele>
        <time>2018-09-02T12:50:37Z</time>
      </trkpt>
      <trkpt lat="40.589267" lon="-5.150350">
        <ele>3548.0</ele>
        <time>2018-09-02T12:50:38Z</time>
      </trkpt>
      <trkpt lat="40.589383" lon="-5.150317">
        <ele>3551.0</ele>
        <time>2018-09-02T12:50:39Z</time>
      </trkpt>
      <trkpt lat="40.589500" lon="-5.150300">
        <ele>3554.0</ele>
        <time>2018-09-02T12:50:40Z</time>
      </trkpt>
      <trkpt lat="40.589617" lon="-5.150317">
        <ele>3557.0</ele>
        <time>2018-09-02T12:50:41Z</time>
      </trkpt>
      <trkpt lat="40.589717" lon="-5.150367">
        <ele>3560.0</ele>
        <time>2018-09-02T12:50:42Z</time>
      </trkpt>
      <trkpt lat="40.589800" lon="-5.150433">
        <ele>3563.0</ele>
        <time>2018-09-02T12:50:43Z</time>
      </trkpt>
      <trkpt lat="40.589867" lon="-5.150500">
        <ele>3566.0</ele>
        <time>2018-09-02T12:50:44Z</time>
      </trkpt>
      <trkpt lat="40.589900" lon="-5.150583">
        <ele>3569.0</ele>
        <time>2018-09-02T12:50:45Z</time>
      </trkpt>
      <trkpt lat="40.589917" lon="-5.150667">
        <ele>3571.0</ele>
        <time>2018-09-02T12:50:46Z</time>
      </trkpt>
      <trkpt lat="40.589900" lon="-5.150750">
        <ele>3574.0</ele>
        <time>2018-09-02T12:50:47Z</time>
      </trkpt>
      <trkpt lat="40.589883" lon="-5.150817">
        <ele>3576.0</ele>
        <time>2018-09-02T12:50:48Z</time>
      </trkpt>
      <trkpt lat="40.589850" lon="-5.150850">
        <ele>3579.0</ele>
        <time>2018-09-02T12:50:49Z</time>
      </trkpt>
      <trkpt lat="40.589800" lon="-5.150833">
        <ele>3582.0</ele>
        <time>2018-09-02T12:50:50Z</time>
      </trkpt>
      <trkpt lat="40.589750" lon="-5.150767">
        <ele>3583.0</ele>
        <time>2018-09-02T12:50:51Z</time>
      </trkpt>
      <trkpt lat="40.589717" lon="-5.150683">
        <ele>3584.0</ele>
        <time>2018-09-02T12:50:52Z</time>
      </trkpt>
      <trkpt lat="40.589700" lon="-5.150600">
        <ele>3586.0</ele>
        <time>2018-09-02T12:50:53Z</time>
      </trkpt>
      <trkpt lat="40.589667" lon="-5.150500">
        <ele>3589.0</ele>
        <time>2018-09-02T12:50:54Z</time>
      </trkpt>
      <trkpt lat="40.589667" lon="-5.150383">
        <ele>3591.0</ele>
        <time>2018-09-02T12:50:55Z</time>
      </trkpt>
      <trkpt lat="40.589683" lon="-5.150250">
        <ele>3593.0</ele>
        <time>2018-09-02T12:50:56Z</time>
      </trkpt>
      <trkpt lat="40.589733" lon="-5.150117">
        <ele>3595.0</ele>
        <time>2018-09-02T12:50:57Z</time>
      </trkpt>
      <trkpt lat="40.589800" lon="-5.149983">
        <ele>3597.0</ele>
        <time>2018-09-02T12:50:58Z</time>
      </trkpt>
      <trkpt lat="40.589900" lon="-5.149883">
        <ele>3600.0</ele>
        <time>2018-09-02T12:50:59Z</time>
      </trkpt>
      <trkpt lat="40.590033" lon="-5.149817">
        <ele>3603.0</ele>
        <time>2018-09-02T12:51:00Z</time>
      </trkpt>
      <trkpt lat="40.590150" lon="-5.149833">
        <ele>3606.0</ele>
        <time>2018-09-02T12:51:01Z</time>
      </trkpt>
      <trkpt lat="40.590250" lon="-5.149883">
        <ele>3608.0</ele>
        <time>2018-09-02T12:51:02Z</time>
      </trkpt>
      <trkpt lat="40.590300" lon="-5.149967">
        <ele>3610.0</ele>
        <time>2018-09-02T12:51:03Z</time>
      </trkpt>
      <trkpt lat="40.590317" lon="-5.150067">
        <ele>3611.0</ele>
        <time>2018-09-02T12:51:04Z</time>
      </trkpt>
      <trkpt lat="40.590317" lon="-5.150150">
        <ele>3612.0</ele>
        <time>2018-09-02T12:51:05Z</time>
      </trkpt>
      <trkpt lat="40.590300" lon="-5.150233">
        <ele>3614.0</ele>
        <time>2018-09-02T12:51:06Z</time>
      </trkpt>
      <trkpt lat="40.590250" lon="-5.150317">
        <ele>3616.0</ele>
        <time>2018-09-02T12:51:07Z</time>
      </trkpt>
      <trkpt lat="40.590200" lon="-5.150367">
        <ele>3619.0</ele>
        <time>2018-09-02T12:51:08Z</time>
      </trkpt>
      <trkpt lat="40.590150" lon="-5.150400">
        <ele>3623.0</ele>
        <time>2018-09-02T12:51:09Z</time>
      </trkpt>
      <trkpt lat="40.590100" lon="-5.150400">
        <ele>3626.0</ele>
        <time>2018-09-02T12:51:10Z</time>
      </trkpt>
      <trkpt lat="40.590067" lon="-5.150383">
        <ele>3628.0</ele>
        <time>2018-09-02T12:51:11Z</time>
      </trkpt>
      <trkpt lat="40.590017" lon="-5.150350">
        <ele>3629.0</ele>
        <time>2018-09-02T12:51:12Z</time>
      </trkpt>
      <trkpt lat="40.589983" lon="-5.150283">
        <ele>3629.0</ele>
        <time>2018-09-02T12:51:13Z</time>
      </trkpt>
      <trkpt lat="40.589950" lon="-5.150183">
        <ele>3628.0</ele>
        <time>2018-09-02T12:51:14Z</time>
      </trkpt>
      <trkpt lat="40.589933" lon="-5.150050">
        <ele>3626.0</ele>
        <time>2018-09-02T12:51:15Z</time>
      </trkpt>
      <trkpt lat="40.589917" lon="-5.149900">
        <ele>3622.0</ele>
        <time>2018-09-02T12:51:16Z</time>
      </trkpt>
      <trkpt lat="40.589950" lon="-5.149733">
        <ele>3619.0</ele>
        <time>2018-09-02T12:51:17Z</time>
      </trkpt>
      <trkpt lat="40.590033" lon="-5.149567">
        <ele>3616.0</ele>
        <time>2018-09-02T12:51:18Z</time>
      </trkpt>
      <trkpt lat="40.590150" lon="-5.149400">
        <ele>3614.0</ele>
        <time>2018-09-02T12:51:19Z</time>
      </trkpt>
      <trkpt lat="40.590267" lon="-5.149233">
        <ele>3612.0</ele>
        <time>2018-09-02T12:51:20Z</time>
      </trkpt>
      <trkpt lat="40.590383" lon="-5.149100">
        <ele>3612.0</ele>
        <time>2018-09-02T12:51:21Z</time>
      </trkpt>
      <trkpt lat="40.590483" lon="-5.148967">
        <ele>3615.0</ele>
        <time>2018-09-02T12:51:22Z</time>
      </trkpt>
      <trkpt lat="40.590600" lon="-5.148883">
        <ele>3618.0</ele>
        <time>2018-09-02T12:51:23Z</time>
      </trkpt>
      <trkpt lat="40.590717" lon="-5.148817">
        <ele>3619.0</ele>
        <time>2018-09-02T12:51:24Z</time>
      </trkpt>
      <trkpt lat="40.590850" lon="-5.148750">
        <ele>3619.0</ele>
        <time>2018-09-02T12:51:25Z</time>
      </trkpt>
      <trkpt lat="40.590967" lon="-5.148717">
        <ele>3618.0</ele>
        <time>2018-09-02T12:51:26Z</time>
      </trkpt>
      <trkpt lat="40.591100" lon="-5.148733">
        <ele>3618.0</ele>
        <time>2018-09-02T12:51:27Z</time>
      </trkpt>
      <trkpt lat="40.591200" lon="-5.148783">
        <ele>3618.0</ele>
        <time>2018-09-02T12:51:28Z</time>
      </trkpt>
      <trkpt lat="40.591283" lon="-5.148850">
        <ele>3618.0</ele>
        <time>2018-09-02T12:51:29Z</time>
      </trkpt>
      <trkpt lat="40.591333" lon="-5.148917">
        <ele>3620.0</ele>
        <time>2018-09-02T12:51:30Z</time>
      </trkpt>
      <trkpt lat="40.591350" lon="-5.149000">
        <ele>3621.0</ele>
        <time>2018-09-02T12:51:31Z</time>
      </trkpt>
      <trkpt lat="40.591367" lon="-5.149067">
        <ele>3622.0</ele>
        <time>2018-09-02T12:51:32Z</time>
      </trkpt>
      <trkpt lat="40.591350" lon="-5.149117">
        <ele>3623.0</ele>
        <time>2018-09-02T12:51:33Z</time>
      </trkpt>
      <trkpt lat="40.591300" lon="-5.149133">
        <ele>3622.0</ele>
        <time>2018-09-02T12:51:34Z</time>
      </trkpt>
      <trkpt lat="40.591267" lon="-5.149100">
        <ele>3622.0</ele>
        <time>2018-09-02T12:51:35Z</time>
      </trkpt>
      <trkpt lat="40.591217" lon="-5.149050">
        <ele>3621.0</ele>
        <time>2018-09-02T12:51:36Z</time>
      </trkpt>
      <trkpt lat="40.591183" lon="-5.148950">
        <ele>3621.0</ele>
        <time>2018-09-02T12:51:37Z</time>
      </trkpt>
      <trkpt lat="40.591183" lon="-5.148833">
        <ele>3621.0</ele>
        <time>2018-09-02T12:51:38Z</time>
      </trkpt>
      <trkpt lat="40.591200" lon="-5.148717">
        <ele>3621.0</ele>
        <time>2018-09-02T12:51:39Z</time>
      </trkpt>
      <trkpt lat="40.591217" lon="-5.148567">
        <ele>3620.0</ele>
        <time>2018-09-02T12:51:40Z</time>
      </trkpt>
      <trkpt lat="40.591250" lon="-5.148400">
        <ele>3620.0</ele>
        <time>2018-09-02T12:51:41Z</time>
      </trkpt>
      <trkpt lat="40.591267" lon="-5.148233">
        <ele>3619.0</ele>
        <time>2018-09-02T12:51:42Z</time>
      </trkpt>
      <trkpt lat="40.591333" lon="-5.148067">
        <ele>3618.0</ele>
        <time>2018-09-02T12:51:43Z</time>
      </trkpt>
      <trkpt lat="40.591417" lon="-5.147917">
        <ele>3618.0</ele>
        <time>2018-09-02T12:51:44Z</time>
      </trkpt>
      <trkpt lat="40.591517" lon="-5.147767">
        <ele>3616.0</ele>
        <time>2018-09-02T12:51:45Z</time>
      </trkpt>
      <trkpt lat="40.591617" lon="-5.147633">
        <ele>3615.0</ele>
        <time>2018-09-02T12:51:46Z</time>
      </trkpt>
      <trkpt lat="40.591733" lon="-5.147483">
        <ele>3614.0</ele>
        <time>2018-09-02T12:51:47Z</time>
      </trkpt>
      <trkpt lat="40.591833" lon="-5.147333">
        <ele>3613.0</ele>
        <time>2018-09-02T12:51:48Z</time>
      </trkpt>
      <trkpt lat="40.591933" lon="-5.147183">
        <ele>3613.0</ele>
        <time>2018-09-02T12:51:49Z</time>
      </trkpt>
      <trkpt lat="40.592033" lon="-5.147067">
        <ele>3615.0</ele>
        <time>2018-09-02T12:51:50Z</time>
      </trkpt>
      <trkpt lat="40.592133" lon="-5.146950">
        <ele>3616.0</ele>
        <time>2018-09-02T12:51:51Z</time>
      </trkpt>
      <trkpt lat="40.592233" lon="-5.146817">
        <ele>3617.0</ele>
        <time>2018-09-02T12:51:52Z</time>
      </trkpt>
      <trkpt lat="40.592333" lon="-5.146667">
        <ele>3618.0</ele>
        <time>2018-09-02T12:51:53Z</time>
      </trkpt>
      <trkpt lat="40.592433" lon="-5.146517">
        <ele>3619.0</ele>
        <time>2018-09-02T12:51:54Z</time>
      </trkpt>
      <trkpt lat="40.592533" lon="-5.146350">
        <ele>3623.0</ele>
        <time>2018-09-02T12:51:55Z</time>
      </trkpt>
      <trkpt lat="40.592617" lon="-5.146217">
        <ele>3630.0</ele>
        <time>2018-09-02T12:51:56Z</time>
      </trkpt>
      <trkpt lat="40.592700" lon="-5.146067">
        <ele>3633.0</ele>
        <time>2018-09-02T12:51:57Z</time>
      </trkpt>
      <trkpt lat="40.592783" lon="-5.145900">
        <ele>3636.0</ele>
        <time>2018-09-02T12:51:58Z</time>
      </trkpt>
      <trkpt lat="40.592850" lon="-5.145733">
        <ele>3641.0</ele>
        <time>2018-09-02T12:51:59Z</time>
      </trkpt>
      <trkpt lat="40.592900" lon="-5.145550">
        <ele>3645.0</ele>
        <time>2018-09-02T12:52:00Z</time>
      </trkpt>
      <trkpt lat="40.592900" lon="-5.145367">
        <ele>3648.0</ele>
        <time>2018-09-02T12:52:01Z</time>
      </trkpt>
      <trkpt lat="40.592867" lon="-5.145217">
        <ele>3651.0</ele>
        <time>2018-09-02T12:52:02Z</time>
      </trkpt>
      <trkpt lat="40.592817" lon="-5.145100">
        <ele>3653.0</ele>
        <time>2018-09-02T12:52:03Z</time>
      </trkpt>
      <trkpt lat="40.592750" lon="-5.145033">
        <ele>3656.0</ele>
        <time>2018-09-02T12:52:04Z</time>
      </trkpt>
      <trkpt lat="40.592683" lon="-5.145000">
        <ele>3659.0</ele>
        <time>2018-09-02T12:52:05Z</time>
      </trkpt>
      <trkpt lat="40.592633" lon="-5.145033">
        <ele>3662.0</ele>
        <time>2018-09-02T12:52:06Z</time>
      </trkpt>
      <trkpt lat="40.592617" lon="-5.145083">
        <ele>3665.0</ele>
        <time>2018-09-02T12:52:07Z</time>
      </trkpt>
      <trkpt lat="40.592633" lon="-5.145150">
        <ele>3668.0</ele>
        <time>2018-09-02T12:52:08Z</time>
      </trkpt>
      <trkpt lat="40.592683" lon="-5.145217">
        <ele>3670.0</ele>
        <time>2018-09-02T12:52:09Z</time>
      </trkpt>
      <trkpt lat="40.592783" lon="-5.145250">
        <ele>3672.0</ele>
        <time>2018-09-02T12:52:10Z</time>
      </trkpt>
      <trkpt lat="40.592883" lon="-5.145250">
        <ele>3674.0</ele>
        <time>2018-09-02T12:52:11Z</time>
      </trkpt>
      <trkpt lat="40.593000" lon="-5.145200">
        <ele>3676.0</ele>
        <time>2018-09-02T12:52:12Z</time>
      </trkpt>
      <trkpt lat="40.593133" lon="-5.145083">
        <ele>3679.0</ele>
        <time>2018-09-02T12:52:13Z</time>
      </trkpt>
      <trkpt lat="40.593200" lon="-5.144917">
        <ele>3681.0</ele>
        <time>2018-09-02T12:52:14Z</time>
      </trkpt>
      <trkpt lat="40.593217" lon="-5.144733">
        <ele>3682.0</ele>
        <time>2018-09-02T12:52:15Z</time>
      </trkpt>
      <trkpt lat="40.593183" lon="-5.144583">
        <ele>3683.0</ele>
        <time>2018-09-02T12:52:16Z</time>
      </trkpt>
      <trkpt lat="40.593100" lon="-5.144483">
        <ele>3684.0</ele>
        <time>2018-09-02T12:52:17Z</time>
      </trkpt>
      <trkpt lat="40.593033" lon="-5.144450">
        <ele>3686.0</ele>
        <time>2018-09-02T12:52:18Z</time>
      </trkpt>
      <trkpt lat="40.592983" lon="-5.144500">
        <ele>3688.0</ele>
        <time>2018-09-02T12:52:19Z</time>
      </trkpt>
      <trkpt lat="40.592983" lon="-5.144583">
        <ele>3690.0</ele>
        <time>2018-09-02T12:52:20Z</time>
      </trkpt>
      <trkpt lat="40.593017" lon="-5.144633">
        <ele>3691.0</ele>
        <time>2018-09-02T12:52:21Z</time>
      </trkpt>
      <trkpt lat="40.593083" lon="-5.144667">
        <ele>3693.0</ele>
        <time>2018-09-02T12:52:22Z</time>
      </trkpt>
      <trkpt lat="40.593183" lon="-5.144683">
        <ele>3696.0</ele>
        <time>2018-09-02T12:52:23Z</time>
      </trkpt>
      <trkpt lat="40.593283" lon="-5.144650">
        <ele>3698.0</ele>
        <time>2018-09-02T12:52:24Z</time>
      </trkpt>
      <trkpt lat="40.593400" lon="-5.144583">
        <ele>3701.0</ele>
        <time>2018-09-02T12:52:25Z</time>
      </trkpt>
      <trkpt lat="40.593517" lon="-5.144467">
        <ele>3703.0</ele>
        <time>2018-09-02T12:52:26Z</time>
      </trkpt>
      <trkpt lat="40.593583" lon="-5.144317">
        <ele>3705.0</ele>
        <time>2018-09-02T12:52:27Z</time>
      </trkpt>
      <trkpt lat="40.593633" lon="-5.144133">
        <ele>3707.0</ele>
        <time>2018-09-02T12:52:28Z</time>
      </trkpt>
      <trkpt lat="40.593633" lon="-5.143967">
        <ele>3710.0</ele>
        <time>2018-09-02T12:52:29Z</time>
      </trkpt>
      <trkpt lat="40.593600" lon="-5.143817">
        <ele>3712.0</ele>
        <time>2018-09-02T12:52:30Z</time>
      </trkpt>
      <trkpt lat="40.593533" lon="-5.143717">
        <ele>3715.0</ele>
        <time>2018-09-02T12:52:31Z</time>
      </trkpt>
      <trkpt lat="40.593467" lon="-5.143683">
        <ele>3718.0</ele>
        <time>2018-09-02T12:52:32Z</time>
      </trkpt>
      <trkpt lat="40.593417" lon="-5.143683">
        <ele>3720.0</ele>
        <time>2018-09-02T12:52:33Z</time>
      </trkpt>
      <trkpt lat="40.593383" lon="-5.143733">
        <ele>3722.0</ele>
        <time>2018-09-02T12:52:34Z</time>
      </trkpt>
      <trkpt lat="40.593383" lon="-5.143783">
        <ele>3724.0</ele>
        <time>2018-09-02T12:52:35Z</time>
      </trkpt>
      <trkpt lat="40.593400" lon="-5.143833">
        <ele>3727.0</ele>
        <time>2018-09-02T12:52:36Z</time>
      </trkpt>
      <trkpt lat="40.593450" lon="-5.143900">
        <ele>3729.0</ele>
        <time>2018-09-02T12:52:37Z</time>
      </trkpt>
      <trkpt lat="40.593500" lon="-5.143950">
        <ele>3731.0</ele>
        <time>2018-09-02T12:52:38Z</time>
      </trkpt>
      <trkpt lat="40.593567" lon="-5.143983">
        <ele>3734.0</ele>
        <time>2018-09-02T12:52:39Z</time>
      </trkpt>
      <trkpt lat="40.593667" lon="-5.143983">
        <ele>3736.0</ele>
        <time>2018-09-02T12:52:40Z</time>
      </trkpt>
      <trkpt lat="40.593783" lon="-5.143950">
        <ele>3739.0</ele>
        <time>2018-09-02T12:52:41Z</time>
      </trkpt>
      <trkpt lat="40.593883" lon="-5.143883">
        <ele>3742.0</ele>
        <time>2018-09-02T12:52:42Z</time>
      </trkpt>
      <trkpt lat="40.593983" lon="-5.143767">
        <ele>3745.0</ele>
        <time>2018-09-02T12:52:43Z</time>
      </trkpt>
      <trkpt lat="40.594067" lon="-5.143617">
        <ele>3748.0</ele>
        <time>2018-09-02T12:52:44Z</time>
      </trkpt>
      <trkpt lat="40.594133" lon="-5.143433">
        <ele>3750.0</ele>
        <time>2018-09-02T12:52:45Z</time>
      </trkpt>
      <trkpt lat="40.594167" lon="-5.143250">
        <ele>3753.0</ele>
        <time>2018-09-02T12:52:46Z</time>
      </trkpt>
      <trkpt lat="40.594150" lon="-5.143083">
        <ele>3755.0</ele>
        <time>2018-09-02T12:52:47Z</time>
      </trkpt>
      <trkpt lat="40.594117" lon="-5.142950">
        <ele>3758.0</ele>
        <time>2018-09-02T12:52:48Z</time>
      </trkpt>
      <trkpt lat="40.594050" lon="-5.142833">
        <ele>3760.0</ele>
        <time>2018-09-02T12:52:49Z</time>
      </trkpt>
      <trkpt lat="40.593983" lon="-5.142767">
        <ele>3762.0</ele>
        <time>2018-09-02T12:52:50Z</time>
      </trkpt>
      <trkpt lat="40.593917" lon="-5.142733">
        <ele>3764.0</ele>
        <time>2018-09-02T12:52:51Z</time>
      </trkpt>
      <trkpt lat="40.593883" lon="-5.142733">
        <ele>3767.0</ele>
        <time>2018-09-02T12:52:52Z</time>
      </trkpt>
      <trkpt lat="40.593833" lon="-5.142733">
        <ele>3769.0</ele>
        <time>2018-09-02T12:52:53Z</time>
      </trkpt>
      <trkpt lat="40.593800" lon="-5.142767">
        <ele>3771.0</ele>
        <time>2018-09-02T12:52:54Z</time>
      </trkpt>
      <trkpt lat="40.593783" lon="-5.142817">
        <ele>3772.0</ele>
        <time>2018-09-02T12:52:55Z</time>
      </trkpt>
      <trkpt lat="40.593783" lon="-5.142883">
        <ele>3773.0</ele>
        <time>2018-09-02T12:52:56Z</time>
      </trkpt>
      <trkpt lat="40.593817" lon="-5.142933">
        <ele>3775.0</ele>
        <time>2018-09-02T12:52:57Z</time>
      </trkpt>
      <trkpt lat="40.593900" lon="-5.142967">
        <ele>3777.0</ele>
        <time>2018-09-02T12:52:58Z</time>
      </trkpt>
      <trkpt lat="40.594017" lon="-5.142967">
        <ele>3778.0</ele>
        <time>2018-09-02T12:52:59Z</time>
      </trkpt>
      <trkpt lat="40.594133" lon="-5.142917">
        <ele>3780.0</ele>
        <time>2018-09-02T12:53:00Z</time>
      </trkpt>
      <trkpt lat="40.594233" lon="-5.142817">
        <ele>3782.0</ele>
        <time>2018-09-02T12:53:01Z</time>
      </trkpt>
      <trkpt lat="40.594300" lon="-5.142650">
        <ele>3784.0</ele>
        <time>2018-09-02T12:53:02Z</time>
      </trkpt>
      <trkpt lat="40.594350" lon="-5.142467">
        <ele>3786.0</ele>
        <time>2018-09-02T12:53:03Z</time>
      </trkpt>
      <trkpt lat="40.594367" lon="-5.142267">
        <ele>3788.0</ele>
        <time>2018-09-02T12:53:04Z</time>
      </trkpt>
      <trkpt lat="40.594367" lon="-5.142083">
        <ele>3790.0</ele>
        <time>2018-09-02T12:53:05Z</time>
      </trkpt>
      <trkpt lat="40.594317" lon="-5.141967">
        <ele>3793.0</ele>
        <time>2018-09-02T12:53:06Z</time>
      </trkpt>
      <trkpt lat="40.594250" lon="-5.141917">
        <ele>3793.0</ele>
        <time>2018-09-02T12:53:07Z</time>
      </trkpt>
      <trkpt lat="40.594183" lon="-5.141917">
        <ele>3793.0</ele>
        <time>2018-09-02T12:53:08Z</time>
      </trkpt>
      <trkpt lat="40.594133" lon="-5.141950">
        <ele>3794.0</ele>
        <time>2018-09-02T12:53:09Z</time>
      </trkpt>
      <trkpt lat="40.594100" lon="-5.142000">
        <ele>3796.0</ele>
        <time>2018-09-02T12:53:10Z</time>
      </trkpt>
      <trkpt lat="40.594100" lon="-5.142067">
        <ele>3798.0</ele>
        <time>2018-09-02T12:53:11Z</time>
      </trkpt>
      <trkpt lat="40.594133" lon="-5.142133">
        <ele>3800.0</ele>
        <time>2018-09-02T12:53:12Z</time>
      </trkpt>
      <trkpt lat="40.594217" lon="-5.142167">
        <ele>3801.0</ele>
        <time>2018-09-02T12:53:13Z</time>
      </trkpt>
      <trkpt lat="40.594317" lon="-5.142183">
        <ele>3803.0</ele>
        <time>2018-09-02T12:53:14Z</time>
      </trkpt>
      <trkpt lat="40.594433" lon="-5.142133">
        <ele>3805.0</ele>
        <time>2018-09-02T12:53:15Z</time>
      </trkpt>
      <trkpt lat="40.594567" lon="-5.142000">
        <ele>3807.0</ele>
        <time>2018-09-02T12:53:16Z</time>
      </trkpt>
      <trkpt lat="40.594650" lon="-5.141817">
        <ele>3808.0</ele>
        <time>2018-09-02T12:53:17Z</time>
      </trkpt>
      <trkpt lat="40.594717" lon="-5.141617">
        <ele>3810.0</ele>
        <time>2018-09-02T12:53:18Z</time>
      </trkpt>
      <trkpt lat="40.594717" lon="-5.141417">
        <ele>3813.0</ele>
        <time>2018-09-02T12:53:19Z</time>
      </trkpt>
      <trkpt lat="40.594667" lon="-5.141250">
        <ele>3814.0</ele>
        <time>2018-09-02T12:53:20Z</time>
      </trkpt>
      <trkpt lat="40.594600" lon="-5.141133">
        <ele>3816.0</ele>
        <time>2018-09-02T12:53:21Z</time>
      </trkpt>
      <trkpt lat="40.594517" lon="-5.141050">
        <ele>3818.0</ele>
        <time>2018-09-02T12:53:22Z</time>
      </trkpt>
      <trkpt lat="40.594450" lon="-5.141017">
        <ele>3821.0</ele>
        <time>2018-09-02T12:53:23Z</time>
      </trkpt>
      <trkpt lat="40.594400" lon="-5.141017">
        <ele>3823.0</ele>
        <time>2018-09-02T12:53:24Z</time>
      </trkpt>
      <trkpt lat="40.594350" lon="-5.141050">
        <ele>3825.0</ele>
        <time>2018-09-02T12:53:25Z</time>
      </trkpt>
      <trkpt lat="40.594333" lon="-5.141100">
        <ele>3826.0</ele>
        <time>2018-09-02T12:53:26Z</time>
      </trkpt>
      <trkpt lat="40.594333" lon="-5.141150">
        <ele>3826.0</ele>
        <time>2018-09-02T12:53:27Z</time>
      </trkpt>
      <trkpt lat="40.594367" lon="-5.141217">
        <ele>3827.0</ele>
        <time>2018-09-02T12:53:28Z</time>
      </trkpt>
      <trkpt lat="40.594433" lon="-5.141283">
        <ele>3829.0</ele>
        <time>2018-09-02T12:53:29Z</time>
      </trkpt>
      <trkpt lat="40.594533" lon="-5.141283">
        <ele>3831.0</ele>
        <time>2018-09-02T12:53:30Z</time>
      </trkpt>
      <trkpt lat="40.594667" lon="-5.141267">
        <ele>3833.0</ele>
        <time>2018-09-02T12:53:31Z</time>
      </trkpt>
      <trkpt lat="40.594800" lon="-5.141167">
        <ele>3834.0</ele>
        <time>2018-09-02T12:53:32Z</time>
      </trkpt>
      <trkpt lat="40.594917" lon="-5.141033">
        <ele>3835.0</ele>
        <time>2018-09-02T12:53:33Z</time>
      </trkpt>
      <trkpt lat="40.595017" lon="-5.140867">
        <ele>3836.0</ele>
        <time>2018-09-02T12:53:34Z</time>
      </trkpt>
      <trkpt lat="40.595100" lon="-5.140683">
        <ele>3837.0</ele>
        <time>2018-09-02T12:53:35Z</time>
      </trkpt>
      <trkpt lat="40.595150" lon="-5.140517">
        <ele>3840.0</ele>
        <time>2018-09-02T12:53:36Z</time>
      </trkpt>
      <trkpt lat="40.595150" lon="-5.140350">
        <ele>3843.0</ele>
        <time>2018-09-02T12:53:37Z</time>
      </trkpt>
      <trkpt lat="40.595133" lon="-5.140183">
        <ele>3845.0</ele>
        <time>2018-09-02T12:53:38Z</time>
      </trkpt>
      <trkpt lat="40.595100" lon="-5.140033">
        <ele>3847.0</ele>
        <time>2018-09-02T12:53:39Z</time>
      </trkpt>
      <trkpt lat="40.595083" lon="-5.139900">
        <ele>3850.0</ele>
        <time>2018-09-02T12:53:40Z</time>
      </trkpt>
      <trkpt lat="40.595033" lon="-5.139783">
        <ele>3851.0</ele>
        <time>2018-09-02T12:53:41Z</time>
      </trkpt>
      <trkpt lat="40.594967" lon="-5.139683">
        <ele>3851.0</ele>
        <time>2018-09-02T12:53:42Z</time>
      </trkpt>
      <trkpt lat="40.594900" lon="-5.139633">
        <ele>3851.0</ele>
        <time>2018-09-02T12:53:43Z</time>
      </trkpt>
      <trkpt lat="40.594833" lon="-5.139600">
        <ele>3851.0</ele>
        <time>2018-09-02T12:53:44Z</time>
      </trkpt>
      <trkpt lat="40.594767" lon="-5.139633">
        <ele>3850.0</ele>
        <time>2018-09-02T12:53:45Z</time>
      </trkpt>
      <trkpt lat="40.594750" lon="-5.139667">
        <ele>3850.0</ele>
        <time>2018-09-02T12:53:46Z</time>
      </trkpt>
      <trkpt lat="40.594750" lon="-5.139717">
        <ele>3851.0</ele>
        <time>2018-09-02T12:53:47Z</time>
      </trkpt>
      <trkpt lat="40.594783" lon="-5.139783">
        <ele>3853.0</ele>
        <time>2018-09-02T12:53:48Z</time>
      </trkpt>
      <trkpt lat="40.594817" lon="-5.139833">
        <ele>3854.0</ele>
        <time>2018-09-02T12:53:49Z</time>
      </trkpt>
      <trkpt lat="40.594883" lon="-5.139900">
        <ele>3856.0</ele>
        <time>2018-09-02T12:53:50Z</time>
      </trkpt>
      <trkpt lat="40.594933" lon="-5.139967">
        <ele>3859.0</ele>
        <time>2018-09-02T12:53:51Z</time>
      </trkpt>
      <trkpt lat="40.595017" lon="-5.139983">
        <ele>3863.0</ele>
        <time>2018-09-02T12:53:52Z</time>
      </trkpt>
      <trkpt lat="40.595100" lon="-5.139983">
        <ele>3866.0</ele>
        <time>2018-09-02T12:53:53Z</time>
      </trkpt>
      <trkpt lat="40.595183" lon="-5.139983">
        <ele>3868.0</ele>
        <time>2018-09-02T12:53:54Z</time>
      </trkpt>
      <trkpt lat="40.595300" lon="-5.139983">
        <ele>3869.0</ele>
        <time>2018-09-02T12:53:55Z</time>
      </trkpt>
      <trkpt lat="40.595400" lon="-5.139983">
        <ele>3871.0</ele>
        <time>2018-09-02T12:53:56Z</time>
      </trkpt>
      <trkpt lat="40.595517" lon="-5.139933">
        <ele>3872.0</ele>
        <time>2018-09-02T12:53:57Z</time>
      </trkpt>
      <trkpt lat="40.595650" lon="-5.139867">
        <ele>3871.0</ele>
        <time>2018-09-02T12:53:58Z</time>
      </trkpt>
      <trkpt lat="40.595767" lon="-5.139750">
        <ele>3870.0</ele>
        <time>2018-09-02T12:53:59Z</time>
      </trkpt>
      <trkpt lat="40.595883" lon="-5.139583">
        <ele>3868.0</ele>
        <time>2018-09-02T12:54:00Z</time>
      </trkpt>
      <trkpt lat="40.595950" lon="-5.139400">
        <ele>3869.0</ele>
        <time>2018-09-02T12:54:01Z</time>
      </trkpt>
      <trkpt lat="40.595983" lon="-5.139217">
        <ele>3869.0</ele>
        <time>2018-09-02T12:54:02Z</time>
      </trkpt>
      <trkpt lat="40.596000" lon="-5.139033">
        <ele>3870.0</ele>
        <time>2018-09-02T12:54:03Z</time>
      </trkpt>
      <trkpt lat="40.596000" lon="-5.138850">
        <ele>3871.0</ele>
        <time>2018-09-02T12:54:04Z</time>
      </trkpt>
      <trkpt lat="40.595983" lon="-5.138683">
        <ele>3872.0</ele>
        <time>2018-09-02T12:54:05Z</time>
      </trkpt>
      <trkpt lat="40.595967" lon="-5.138517">
        <ele>3873.0</ele>
        <time>2018-09-02T12:54:06Z</time>
      </trkpt>
      <trkpt lat="40.595950" lon="-5.138400">
        <ele>3876.0</ele>
        <time>2018-09-02T12:54:07Z</time>
      </trkpt>
      <trkpt lat="40.595917" lon="-5.138283">
        <ele>3878.0</ele>
        <time>2018-09-02T12:54:08Z</time>
      </trkpt>
      <trkpt lat="40.595867" lon="-5.138200">
        <ele>3880.0</ele>
        <time>2018-09-02T12:54:09Z</time>
      </trkpt>
      <trkpt lat="40.595783" lon="-5.138117">
        <ele>3881.0</ele>
        <time>2018-09-02T12:54:10Z</time>
      </trkpt>
      <trkpt lat="40.595700" lon="-5.138067">
        <ele>3883.0</ele>
        <time>2018-09-02T12:54:11Z</time>
      </trkpt>
      <trkpt lat="40.595633" lon="-5.138033">
        <ele>3885.0</ele>
        <time>2018-09-02T12:54:12Z</time>
      </trkpt>
      <trkpt lat="40.595583" lon="-5.138033">
        <ele>3888.0</ele>
        <time>2018-09-02T12:54:13Z</time>
      </trkpt>
      <trkpt lat="40.595533" lon="-5.138050">
        <ele>3890.0</ele>
        <time>2018-09-02T12:54:14Z</time>
      </trkpt>
      <trkpt lat="40.595483" lon="-5.138083">
        <ele>3891.0</ele>
        <time>2018-09-02T12:54:15Z</time>
      </trkpt>
      <trkpt lat="40.595467" lon="-5.138133">
        <ele>3891.0</ele>
        <time>2018-09-02T12:54:16Z</time>
      </trkpt>
      <trkpt lat="40.595467" lon="-5.138200">
        <ele>3892.0</ele>
        <time>2018-09-02T12:54:17Z</time>
      </trkpt>
      <trkpt lat="40.595500" lon="-5.138267">
        <ele>3893.0</ele>
        <time>2018-09-02T12:54:18Z</time>
      </trkpt>
      <trkpt lat="40.595583" lon="-5.138300">
        <ele>3893.0</ele>
        <time>2018-09-02T12:54:19Z</time>
      </trkpt>
      <trkpt lat="40.595683" lon="-5.138300">
        <ele>3894.0</ele>
        <time>2018-09-02T12:54:20Z</time>
      </trkpt>
      <trkpt lat="40.595800" lon="-5.138267">
        <ele>3894.0</ele>
        <time>2018-09-02T12:54:21Z</time>
      </trkpt>
      <trkpt lat="40.596017" lon="-5.138017">
        <ele>3896.0</ele>
        <time>2018-09-02T12:54:23Z</time>
      </trkpt>
      <trkpt lat="40.596100" lon="-5.137850">
        <ele>3897.0</ele>
        <time>2018-09-02T12:54:24Z</time>
      </trkpt>
      <trkpt lat="40.596150" lon="-5.137683">
        <ele>3898.0</ele>
        <time>2018-09-02T12:54:25Z</time>
      </trkpt>
      <trkpt lat="40.596167" lon="-5.137500">
        <ele>3899.0</ele>
        <time>2018-09-02T12:54:26Z</time>
      </trkpt>
      <trkpt lat="40.596150" lon="-5.137317">
        <ele>3900.0</ele>
        <time>2018-09-02T12:54:27Z</time>
      </trkpt>
      <trkpt lat="40.596100" lon="-5.137167">
        <ele>3902.0</ele>
        <time>2018-09-02T12:54:28Z</time>
      </trkpt>
      <trkpt lat="40.596050" lon="-5.137017">
        <ele>3902.0</ele>
        <time>2018-09-02T12:54:29Z</time>
      </trkpt>
      <trkpt lat="40.595967" lon="-5.136883">
        <ele>3903.0</ele>
        <time>2018-09-02T12:54:30Z</time>
      </trkpt>
      <trkpt lat="40.595900" lon="-5.136783">
        <ele>3906.0</ele>
        <time>2018-09-02T12:54:31Z</time>
      </trkpt>
      <trkpt lat="40.595817" lon="-5.136700">
        <ele>3908.0</ele>
        <time>2018-09-02T12:54:32Z</time>
      </trkpt>
      <trkpt lat="40.595750" lon="-5.136633">
        <ele>3911.0</ele>
        <time>2018-09-02T12:54:33Z</time>
      </trkpt>
      <trkpt lat="40.595683" lon="-5.136583">
        <ele>3913.0</ele>
        <time>2018-09-02T12:54:34Z</time>
      </trkpt>
      <trkpt lat="40.595600" lon="-5.136550">
        <ele>3914.0</ele>
        <time>2018-09-02T12:54:35Z</time>
      </trkpt>
      <trkpt lat="40.595533" lon="-5.136533">
        <ele>3915.0</ele>
        <time>2018-09-02T12:54:36Z</time>
      </trkpt>
      <trkpt lat="40.595500" lon="-5.136567">
        <ele>3916.0</ele>
        <time>2018-09-02T12:54:37Z</time>
      </trkpt>
      <trkpt lat="40.595467" lon="-5.136617">
        <ele>3917.0</ele>
        <time>2018-09-02T12:54:38Z</time>
      </trkpt>
      <trkpt lat="40.595483" lon="-5.136683">
        <ele>3918.0</ele>
        <time>2018-09-02T12:54:39Z</time>
      </trkpt>
      <trkpt lat="40.595517" lon="-5.136717">
        <ele>3919.0</ele>
        <time>2018-09-02T12:54:40Z</time>
      </trkpt>
      <trkpt lat="40.595583" lon="-5.136767">
        <ele>3919.0</ele>
        <time>2018-09-02T12:54:41Z</time>
      </trkpt>
      <trkpt lat="40.595650" lon="-5.136783">
        <ele>3920.0</ele>
        <time>2018-09-02T12:54:42Z</time>
      </trkpt>
      <trkpt lat="40.595750" lon="-5.136800">
        <ele>3920.0</ele>
        <time>2018-09-02T12:54:43Z</time>
      </trkpt>
      <trkpt lat="40.595850" lon="-5.136783">
        <ele>3921.0</ele>
        <time>2018-09-02T12:54:44Z</time>
      </trkpt>
      <trkpt lat="40.595950" lon="-5.136750">
        <ele>3920.0</ele>
        <time>2018-09-02T12:54:45Z</time>
      </trkpt>
      <trkpt lat="40.596083" lon="-5.136667">
        <ele>3920.0</ele>
        <time>2018-09-02T12:54:46Z</time>
      </trkpt>
      <trkpt lat="40.596200" lon="-5.136550">
        <ele>3919.0</ele>
        <time>2018-09-02T12:54:47Z</time>
      </trkpt>
      <trkpt lat="40.596300" lon="-5.136383">
        <ele>3920.0</ele>
        <time>2018-09-02T12:54:48Z</time>
      </trkpt>
      <trkpt lat="40.596367" lon="-5.136200">
        <ele>3920.0</ele>
        <time>2018-09-02T12:54:49Z</time>
      </trkpt>
      <trkpt lat="40.596400" lon="-5.136000">
        <ele>3920.0</ele>
        <time>2018-09-02T12:54:50Z</time>
      </trkpt>
      <trkpt lat="40.596383" lon="-5.135800">
        <ele>3920.0</ele>
        <time>2018-09-02T12:54:51Z</time>
      </trkpt>
      <trkpt lat="40.596350" lon="-5.135600">
        <ele>3921.0</ele>
        <time>2018-09-02T12:54:52Z</time>
      </trkpt>
      <trkpt lat="40.596317" lon="-5.135433">
        <ele>3924.0</ele>
        <time>2018-09-02T12:54:53Z</time>
      </trkpt>
      <trkpt lat="40.596283" lon="-5.135283">
        <ele>3928.0</ele>
        <time>2018-09-02T12:54:54Z</time>
      </trkpt>
      <trkpt lat="40.596233" lon="-5.135150">
        <ele>3931.0</ele>
        <time>2018-09-02T12:54:55Z</time>
      </trkpt>
      <trkpt lat="40.596167" lon="-5.135050">
        <ele>3933.0</ele>
        <time>2018-09-02T12:54:56Z</time>
      </trkpt>
      <trkpt lat="40.596100" lon="-5.134950">
        <ele>3934.0</ele>
        <time>2018-09-02T12:54:57Z</time>
      </trkpt>
      <trkpt lat="40.596017" lon="-5.134883">
        <ele>3935.0</ele>
        <time>2018-09-02T12:54:58Z</time>
      </trkpt>
      <trkpt lat="40.595933" lon="-5.134867">
        <ele>3935.0</ele>
        <time>2018-09-02T12:54:59Z</time>
      </trkpt>
      <trkpt lat="40.595883" lon="-5.134883">
        <ele>3934.0</ele>
        <time>2018-09-02T12:55:00Z</time>
      </trkpt>
      <trkpt lat="40.595883" lon="-5.134933">
        <ele>3935.0</ele>
        <time>2018-09-02T12:55:01Z</time>
      </trkpt>
      <trkpt lat="40.595933" lon="-5.134983">
        <ele>3935.0</ele>
        <time>2018-09-02T12:55:02Z</time>
      </trkpt>
      <trkpt lat="40.596017" lon="-5.135017">
        <ele>3936.0</ele>
        <time>2018-09-02T12:55:03Z</time>
      </trkpt>
      <trkpt lat="40.596133" lon="-5.134967">
        <ele>3936.0</ele>
        <time>2018-09-02T12:55:04Z</time>
      </trkpt>
      <trkpt lat="40.596233" lon="-5.134883">
        <ele>3938.0</ele>
        <time>2018-09-02T12:55:05Z</time>
      </trkpt>
      <trkpt lat="40.596333" lon="-5.134767">
        <ele>3941.0</ele>
        <time>2018-09-02T12:55:06Z</time>
      </trkpt>
      <trkpt lat="40.596417" lon="-5.134633">
        <ele>3942.0</ele>
        <time>2018-09-02T12:55:07Z</time>
      </trkpt>
      <trkpt lat="40.596500" lon="-5.134483">
        <ele>3944.0</ele>
        <time>2018-09-02T12:55:08Z</time>
      </trkpt>
      <trkpt lat="40.596583" lon="-5.134333">
        <ele>3944.0</ele>
        <time>2018-09-02T12:55:09Z</time>
      </trkpt>
      <trkpt lat="40.596667" lon="-5.134167">
        <ele>3946.0</ele>
        <time>2018-09-02T12:55:10Z</time>
      </trkpt>
      <trkpt lat="40.596733" lon="-5.133967">
        <ele>3946.0</ele>
        <time>2018-09-02T12:55:11Z</time>
      </trkpt>
      <trkpt lat="40.596767" lon="-5.133783">
        <ele>3947.0</ele>
        <time>2018-09-02T12:55:12Z</time>
      </trkpt>
      <trkpt lat="40.596750" lon="-5.133617">
        <ele>3947.0</ele>
        <time>2018-09-02T12:55:13Z</time>
      </trkpt>
      <trkpt lat="40.596683" lon="-5.133467">
        <ele>3944.0</ele>
        <time>2018-09-02T12:55:14Z</time>
      </trkpt>
      <trkpt lat="40.596600" lon="-5.133383">
        <ele>3943.0</ele>
        <time>2018-09-02T12:55:15Z</time>
      </trkpt>
      <trkpt lat="40.596550" lon="-5.133350">
        <ele>3944.0</ele>
        <time>2018-09-02T12:55:16Z</time>
      </trkpt>
      <trkpt lat="40.596500" lon="-5.133350">
        <ele>3945.0</ele>
        <time>2018-09-02T12:55:17Z</time>
      </trkpt>
      <trkpt lat="40.596483" lon="-5.133367">
        <ele>3945.0</ele>
        <time>2018-09-02T12:55:18Z</time>
      </trkpt>
      <trkpt lat="40.596483" lon="-5.133417">
        <ele>3945.0</ele>
        <time>2018-09-02T12:55:19Z</time>
      </trkpt>
      <trkpt lat="40.596483" lon="-5.133483">
        <ele>3945.0</ele>
        <time>2018-09-02T12:55:20Z</time>
      </trkpt>
      <trkpt lat="40.596517" lon="-5.133550">
        <ele>3943.0</ele>
        <time>2018-09-02T12:55:21Z</time>
      </trkpt>
      <trkpt lat="40.596583" lon="-5.133600">
        <ele>3943.0</ele>
        <time>2018-09-02T12:55:22Z</time>
      </trkpt>
      <trkpt lat="40.596683" lon="-5.133600">
        <ele>3943.0</ele>
        <time>2018-09-02T12:55:23Z</time>
      </trkpt>
      <trkpt lat="40.596800" lon="-5.133550">
        <ele>3942.0</ele>
        <time>2018-09-02T12:55:24Z</time>
      </trkpt>
      <trkpt lat="40.596933" lon="-5.133417">
        <ele>3942.0</ele>
        <time>2018-09-02T12:55:25Z</time>
      </trkpt>
      <trkpt lat="40.597050" lon="-5.133267">
        <ele>3941.0</ele>
        <time>2018-09-02T12:55:26Z</time>
      </trkpt>
      <trkpt lat="40.597150" lon="-5.133100">
        <ele>3942.0</ele>
        <time>2018-09-02T12:55:27Z</time>
      </trkpt>
      <trkpt lat="40.597233" lon="-5.132933">
        <ele>3943.0</ele>
        <time>2018-09-02T12:55:28Z</time>
      </trkpt>
      <trkpt lat="40.597317" lon="-5.132767">
        <ele>3944.0</ele>
        <time>2018-09-02T12:55:29Z</time>
      </trkpt>
      <trkpt lat="40.597400" lon="-5.132600">
        <ele>3946.0</ele>
        <time>2018-09-02T12:55:30Z</time>
      </trkpt>
      <trkpt lat="40.597500" lon="-5.132433">
        <ele>3948.0</ele>
        <time>2018-09-02T12:55:31Z</time>
      </trkpt>
      <trkpt lat="40.597583" lon="-5.132250">
        <ele>3949.0</ele>
        <time>2018-09-02T12:55:32Z</time>
      </trkpt>
      <trkpt lat="40.597683" lon="-5.132067">
        <ele>3950.0</ele>
        <time>2018-09-02T12:55:33Z</time>
      </trkpt>
      <trkpt lat="40.597767" lon="-5.131900">
        <ele>3951.0</ele>
        <time>2018-09-02T12:55:34Z</time>
      </trkpt>
      <trkpt lat="40.597867" lon="-5.131733">
        <ele>3952.0</ele>
        <time>2018-09-02T12:55:35Z</time>
      </trkpt>
      <trkpt lat="40.597950" lon="-5.131550">
        <ele>3954.0</ele>
        <time>2018-09-02T12:55:36Z</time>
      </trkpt>
      <trkpt lat="40.598050" lon="-5.131367">
        <ele>3955.0</ele>
        <time>2018-09-02T12:55:37Z</time>
      </trkpt>
      <trkpt lat="40.598133" lon="-5.131200">
        <ele>3957.0</ele>
        <time>2018-09-02T12:55:38Z</time>
      </trkpt>
      <trkpt lat="40.598233" lon="-5.131033">
        <ele>3958.0</ele>
        <time>2018-09-02T12:55:39Z</time>
      </trkpt>
      <trkpt lat="40.598333" lon="-5.130883">
        <ele>3960.0</ele>
        <time>2018-09-02T12:55:40Z</time>
      </trkpt>
      <trkpt lat="40.598517" lon="-5.130567">
        <ele>3964.0</ele>
        <time>2018-09-02T12:55:42Z</time>
      </trkpt>
      <trkpt lat="40.598617" lon="-5.130383">
        <ele>3966.0</ele>
        <time>2018-09-02T12:55:43Z</time>
      </trkpt>
      <trkpt lat="40.598717" lon="-5.130217">
        <ele>3968.0</ele>
        <time>2018-09-02T12:55:44Z</time>
      </trkpt>
      <trkpt lat="40.598833" lon="-5.130050">
        <ele>3969.0</ele>
        <time>2018-09-02T12:55:45Z</time>
      </trkpt>
      <trkpt lat="40.598933" lon="-5.129883">
        <ele>3971.0</ele>
        <time>2018-09-02T12:55:46Z</time>
      </trkpt>
      <trkpt lat="40.599033" lon="-5.129733">
        <ele>3974.0</ele>
        <time>2018-09-02T12:55:47Z</time>
      </trkpt>
      <trkpt lat="40.599150" lon="-5.129567">
        <ele>3976.0</ele>
        <time>2018-09-02T12:55:48Z</time>
      </trkpt>
      <trkpt lat="40.599250" lon="-5.129417">
        <ele>3978.0</ele>
        <time>2018-09-02T12:55:49Z</time>
      </trkpt>
      <trkpt lat="40.599367" lon="-5.129250">
        <ele>3980.0</ele>
        <time>2018-09-02T12:55:50Z</time>
      </trkpt>
      <trkpt lat="40.599467" lon="-5.129083">
        <ele>3982.0</ele>
        <time>2018-09-02T12:55:51Z</time>
      </trkpt>
      <trkpt lat="40.599583" lon="-5.128917">
        <ele>3984.0</ele>
        <time>2018-09-02T12:55:52Z</time>
      </trkpt>
      <trkpt lat="40.599683" lon="-5.128767">
        <ele>3987.0</ele>
        <time>2018-09-02T12:55:53Z</time>
      </trkpt>
      <trkpt lat="40.599767" lon="-5.128600">
        <ele>3991.0</ele>
        <time>2018-09-02T12:55:54Z</time>
      </trkpt>
      <trkpt lat="40.599867" lon="-5.128433">
        <ele>3994.0</ele>
        <time>2018-09-02T12:55:55Z</time>
      </trkpt>
      <trkpt lat="40.599933" lon="-5.128250">
        <ele>3996.0</ele>
        <time>2018-09-02T12:55:56Z</time>
      </trkpt>
      <trkpt lat="40.599983" lon="-5.128033">
        <ele>3997.0</ele>
        <time>2018-09-02T12:55:57Z</time>
      </trkpt>
      <trkpt lat="40.600000" lon="-5.127817">
        <ele>3998.0</ele>
        <time>2018-09-02T12:55:58Z</time>
      </trkpt>
      <trkpt lat="40.599983" lon="-5.127617">
        <ele>4000.0</ele>
        <time>2018-09-02T12:55:59Z</time>
      </trkpt>
      <trkpt lat="40.599950" lon="-5.127450">
        <ele>4002.0</ele>
        <time>2018-09-02T12:56:00Z</time>
      </trkpt>
      <trkpt lat="40.599917" lon="-5.127300">
        <ele>4004.0</ele>
        <time>2018-09-02T12:56:01Z</time>
      </trkpt>
      <trkpt lat="40.599850" lon="-5.127200">
        <ele>4005.0</ele>
        <time>2018-09-02T12:56:02Z</time>
      </trkpt>
      <trkpt lat="40.599767" lon="-5.127150">
        <ele>4006.0</ele>
        <time>2018-09-02T12:56:03Z</time>
      </trkpt>
      <trkpt lat="40.599700" lon="-5.127150">
        <ele>4006.0</ele>
        <time>2018-09-02T12:56:04Z</time>
      </trkpt>
      <trkpt lat="40.599667" lon="-5.127167">
        <ele>4007.0</ele>
        <time>2018-09-02T12:56:05Z</time>
      </trkpt>
      <trkpt lat="40.599650" lon="-5.127200">
        <ele>4008.0</ele>
        <time>2018-09-02T12:56:06Z</time>
      </trkpt>
      <trkpt lat="40.599667" lon="-5.127233">
        <ele>4009.0</ele>
        <time>2018-09-02T12:56:07Z</time>
      </trkpt>
      <trkpt lat="40.599683" lon="-5.127250">
        <ele>4010.0</ele>
        <time>2018-09-02T12:56:08Z</time>
      </trkpt>
      <trkpt lat="40.599700" lon="-5.127283">
        <ele>4012.0</ele>
        <time>2018-09-02T12:56:09Z</time>
      </trkpt>
      <trkpt lat="40.599733" lon="-5.127300">
        <ele>4013.0</ele>
        <time>2018-09-02T12:56:10Z</time>
      </trkpt>
      <trkpt lat="40.599783" lon="-5.127333">
        <ele>4015.0</ele>
        <time>2018-09-02T12:56:11Z</time>
      </trkpt>
      <trkpt lat="40.599850" lon="-5.127350">
        <ele>4016.0</ele>
        <time>2018-09-02T12:56:12Z</time>
      </trkpt>
      <trkpt lat="40.599950" lon="-5.127367">
        <ele>4017.0</ele>
        <time>2018-09-02T12:56:13Z</time>
      </trkpt>
      <trkpt lat="40.600050" lon="-5.127367">
        <ele>4018.0</ele>
        <time>2018-09-02T12:56:14Z</time>
      </trkpt>
      <trkpt lat="40.600183" lon="-5.127317">
        <ele>4019.0</ele>
        <time>2018-09-02T12:56:15Z</time>
      </trkpt>
      <trkpt lat="40.600300" lon="-5.127233">
        <ele>4021.0</ele>
        <time>2018-09-02T12:56:16Z</time>
      </trkpt>
      <trkpt lat="40.600433" lon="-5.127100">
        <ele>4022.0</ele>
        <time>2018-09-02T12:56:17Z</time>
      </trkpt>
      <trkpt lat="40.600533" lon="-5.126933">
        <ele>4023.0</ele>
        <time>2018-09-02T12:56:18Z</time>
      </trkpt>
      <trkpt lat="40.600633" lon="-5.126750">
        <ele>4025.0</ele>
        <time>2018-09-02T12:56:19Z</time>
      </trkpt>
      <trkpt lat="40.600683" lon="-5.126550">
        <ele>4026.0</ele>
        <time>2018-09-02T12:56:20Z</time>
      </trkpt>
      <trkpt lat="40.600733" lon="-5.126333">
        <ele>4027.0</ele>
        <time>2018-09-02T12:56:21Z</time>
      </trkpt>
      <trkpt lat="40.600750" lon="-5.126117">
        <ele>4028.0</ele>
        <time>2018-09-02T12:56:22Z</time>
      </trkpt>
      <trkpt lat="40.600733" lon="-5.125917">
        <ele>4029.0</ele>
        <time>2018-09-02T12:56:23Z</time>
      </trkpt>
      <trkpt lat="40.600683" lon="-5.125717">
        <ele>4029.0</ele>
        <time>2018-09-02T12:56:24Z</time>
      </trkpt>
      <trkpt lat="40.600617" lon="-5.125583">
        <ele>4029.0</ele>
        <time>2018-09-02T12:56:25Z</time>
      </trkpt>
      <trkpt lat="40.600567" lon="-5.125500">
        <ele>4030.0</ele>
        <time>2018-09-02T12:56:26Z</time>
      </trkpt>
      <trkpt lat="40.600517" lon="-5.125450">
        <ele>4031.0</ele>
        <time>2018-09-02T12:56:27Z</time>
      </trkpt>
      <trkpt lat="40.600483" lon="-5.125433">
        <ele>4032.0</ele>
        <time>2018-09-02T12:56:28Z</time>
      </trkpt>
      <trkpt lat="40.600467" lon="-5.125467">
        <ele>4033.0</ele>
        <time>2018-09-02T12:56:29Z</time>
      </trkpt>
      <trkpt lat="40.600467" lon="-5.125483">
        <ele>4034.0</ele>
        <time>2018-09-02T12:56:30Z</time>
      </trkpt>
      <trkpt lat="40.600517" lon="-5.125517">
        <ele>4033.0</ele>
        <time>2018-09-02T12:56:31Z</time>
      </trkpt>
      <trkpt lat="40.600617" lon="-5.125533">
        <ele>4032.0</ele>
        <time>2018-09-02T12:56:32Z</time>
      </trkpt>
      <trkpt lat="40.600733" lon="-5.125517">
        <ele>4033.0</ele>
        <time>2018-09-02T12:56:33Z</time>
      </trkpt>
      <trkpt lat="40.600867" lon="-5.125433">
        <ele>4032.0</ele>
        <time>2018-09-02T12:56:34Z</time>
      </trkpt>
      <trkpt lat="40.600983" lon="-5.125317">
        <ele>4032.0</ele>
        <time>2018-09-02T12:56:35Z</time>
      </trkpt>
      <trkpt lat="40.601083" lon="-5.125200">
        <ele>4034.0</ele>
        <time>2018-09-02T12:56:36Z</time>
      </trkpt>
      <trkpt lat="40.601183" lon="-5.125067">
        <ele>4035.0</ele>
        <time>2018-09-02T12:56:37Z</time>
      </trkpt>
      <trkpt lat="40.601267" lon="-5.124917">
        <ele>4036.0</ele>
        <time>2018-09-02T12:56:38Z</time>
      </trkpt>
      <trkpt lat="40.601367" lon="-5.124767">
        <ele>4036.0</ele>
        <time>2018-09-02T12:56:39Z</time>
      </trkpt>
      <trkpt lat="40.601483" lon="-5.124600">
        <ele>4035.0</ele>
        <time>2018-09-02T12:56:40Z</time>
      </trkpt>
      <trkpt lat="40.601600" lon="-5.124433">
        <ele>4035.0</ele>
        <time>2018-09-02T12:56:41Z</time>
      </trkpt>
      <trkpt lat="40.601733" lon="-5.124267">
        <ele>4035.0</ele>
        <time>2018-09-02T12:56:42Z</time>
      </trkpt>
      <trkpt lat="40.601833" lon="-5.124100">
        <ele>4035.0</ele>
        <time>2018-09-02T12:56:43Z</time>
      </trkpt>
      <trkpt lat="40.601917" lon="-5.123917">
        <ele>4035.0</ele>
        <time>2018-09-02T12:56:44Z</time>
      </trkpt>
      <trkpt lat="40.602017" lon="-5.123733">
        <ele>4033.0</ele>
        <time>2018-09-02T12:56:45Z</time>
      </trkpt>
      <trkpt lat="40.602133" lon="-5.123550">
        <ele>4033.0</ele>
        <time>2018-09-02T12:56:46Z</time>
      </trkpt>
      <trkpt lat="40.602233" lon="-5.123400">
        <ele>4032.0</ele>
        <time>2018-09-02T12:56:47Z</time>
      </trkpt>
      <trkpt lat="40.602350" lon="-5.123250">
        <ele>4032.0</ele>
        <time>2018-09-02T12:56:48Z</time>
      </trkpt>
      <trkpt lat="40.602450" lon="-5.123133">
        <ele>4032.0</ele>
        <time>2018-09-02T12:56:49Z</time>
      </trkpt>
      <trkpt lat="40.602583" lon="-5.123017">
        <ele>4030.0</ele>
        <time>2018-09-02T12:56:50Z</time>
      </trkpt>
      <trkpt lat="40.602700" lon="-5.122883">
        <ele>4030.0</ele>
        <time>2018-09-02T12:56:51Z</time>
      </trkpt>
      <trkpt lat="40.602817" lon="-5.122750">
        <ele>4030.0</ele>
        <time>2018-09-02T12:56:52Z</time>
      </trkpt>
      <trkpt lat="40.602917" lon="-5.122600">
        <ele>4028.0</ele>
        <time>2018-09-02T12:56:53Z</time>
      </trkpt>
      <trkpt lat="40.603050" lon="-5.122433">
        <ele>4025.0</ele>
        <time>2018-09-02T12:56:54Z</time>
      </trkpt>
      <trkpt lat="40.603167" lon="-5.122300">
        <ele>4023.0</ele>
        <time>2018-09-02T12:56:55Z</time>
      </trkpt>
      <trkpt lat="40.603283" lon="-5.122150">
        <ele>4022.0</ele>
        <time>2018-09-02T12:56:56Z</time>
      </trkpt>
      <trkpt lat="40.603400" lon="-5.122017">
        <ele>4020.0</ele>
        <time>2018-09-02T12:56:57Z</time>
      </trkpt>
      <trkpt lat="40.603500" lon="-5.121883">
        <ele>4020.0</ele>
        <time>2018-09-02T12:56:58Z</time>
      </trkpt>
      <trkpt lat="40.603583" lon="-5.121750">
        <ele>4019.0</ele>
        <time>2018-09-02T12:56:59Z</time>
      </trkpt>
      <trkpt lat="40.603683" lon="-5.121617">
        <ele>4017.0</ele>
        <time>2018-09-02T12:57:00Z</time>
      </trkpt>
      <trkpt lat="40.603783" lon="-5.121467">
        <ele>4014.0</ele>
        <time>2018-09-02T12:57:01Z</time>
      </trkpt>
      <trkpt lat="40.603900" lon="-5.121317">
        <ele>4012.0</ele>
        <time>2018-09-02T12:57:02Z</time>
      </trkpt>
      <trkpt lat="40.604017" lon="-5.121150">
        <ele>4010.0</ele>
        <time>2018-09-02T12:57:03Z</time>
      </trkpt>
      <trkpt lat="40.604133" lon="-5.121000">
        <ele>4006.0</ele>
        <time>2018-09-02T12:57:04Z</time>
      </trkpt>
      <trkpt lat="40.604233" lon="-5.120833">
        <ele>4003.0</ele>
        <time>2018-09-02T12:57:05Z</time>
      </trkpt>
      <trkpt lat="40.604317" lon="-5.120683">
        <ele>4000.0</ele>
        <time>2018-09-02T12:57:06Z</time>
      </trkpt>
      <trkpt lat="40.604500" lon="-5.120350">
        <ele>3992.0</ele>
        <time>2018-09-02T12:57:08Z</time>
      </trkpt>
      <trkpt lat="40.604600" lon="-5.120167">
        <ele>3988.0</ele>
        <time>2018-09-02T12:57:09Z</time>
      </trkpt>
      <trkpt lat="40.604700" lon="-5.120000">
        <ele>3985.0</ele>
        <time>2018-09-02T12:57:10Z</time>
      </trkpt>
      <trkpt lat="40.604800" lon="-5.119817">
        <ele>3981.0</ele>
        <time>2018-09-02T12:57:11Z</time>
      </trkpt>
      <trkpt lat="40.604883" lon="-5.119650">
        <ele>3978.0</ele>
        <time>2018-09-02T12:57:12Z</time>
      </trkpt>
      <trkpt lat="40.604983" lon="-5.119483">
        <ele>3975.0</ele>
        <time>2018-09-02T12:57:13Z</time>
      </trkpt>
      <trkpt lat="40.605083" lon="-5.119300">
        <ele>3971.0</ele>
        <time>2018-09-02T12:57:14Z</time>
      </trkpt>
      <trkpt lat="40.605183" lon="-5.119117">
        <ele>3968.0</ele>
        <time>2018-09-02T12:57:15Z</time>
      </trkpt>
      <trkpt lat="40.605267" lon="-5.118917">
        <ele>3965.0</ele>
        <time>2018-09-02T12:57:16Z</time>
      </trkpt>
      <trkpt lat="40.605367" lon="-5.118733">
        <ele>3963.0</ele>
        <time>2018-09-02T12:57:17Z</time>
      </trkpt>
      <trkpt lat="40.605450" lon="-5.118550">
        <ele>3961.0</ele>
        <time>2018-09-02T12:57:18Z</time>
      </trkpt>
      <trkpt lat="40.605533" lon="-5.118383">
        <ele>3958.0</ele>
        <time>2018-09-02T12:57:19Z</time>
      </trkpt>
      <trkpt lat="40.605617" lon="-5.118200">
        <ele>3955.0</ele>
        <time>2018-09-02T12:57:20Z</time>
      </trkpt>
      <trkpt lat="40.605717" lon="-5.118017">
        <ele>3952.0</ele>
        <time>2018-09-02T12:57:21Z</time>
      </trkpt>
      <trkpt lat="40.605817" lon="-5.117850">
        <ele>3949.0</ele>
        <time>2018-09-02T12:57:22Z</time>
      </trkpt>
      <trkpt lat="40.605900" lon="-5.117667">
        <ele>3946.0</ele>
        <time>2018-09-02T12:57:23Z</time>
      </trkpt>
      <trkpt lat="40.606000" lon="-5.117483">
        <ele>3943.0</ele>
        <time>2018-09-02T12:57:24Z</time>
      </trkpt>
      <trkpt lat="40.606100" lon="-5.117300">
        <ele>3940.0</ele>
        <time>2018-09-02T12:57:25Z</time>
      </trkpt>
      <trkpt lat="40.606200" lon="-5.117133">
        <ele>3937.0</ele>
        <time>2018-09-02T12:57:26Z</time>
      </trkpt>
      <trkpt lat="40.606300" lon="-5.116950">
        <ele>3934.0</ele>
        <time>2018-09-02T12:57:27Z</time>
      </trkpt>
      <trkpt lat="40.606400" lon="-5.116783">
        <ele>3931.0</ele>
        <time>2018-09-02T12:57:28Z</time>
      </trkpt>
      <trkpt lat="40.606500" lon="-5.116600">
        <ele>3928.0</ele>
        <time>2018-09-02T12:57:29Z</time>
      </trkpt>
      <trkpt lat="40.606600" lon="-5.116417">
        <ele>3924.0</ele>
        <time>2018-09-02T12:57:30Z</time>
      </trkpt>
      <trkpt lat="40.606717" lon="-5.116250">
        <ele>3921.0</ele>
        <time>2018-09-02T12:57:31Z</time>
      </trkpt>
      <trkpt lat="40.606817" lon="-5.116083">
        <ele>3919.0</ele>
        <time>2018-09-02T12:57:32Z</time>
      </trkpt>
      <trkpt lat="40.606933" lon="-5.115917">
        <ele>3916.0</ele>
        <time>2018-09-02T12:57:33Z</time>
      </trkpt>
      <trkpt lat="40.607033" lon="-5.115733">
        <ele>3913.0</ele>
        <time>2018-09-02T12:57:34Z</time>
      </trkpt>
      <trkpt lat="40.607150" lon="-5.115583">
        <ele>3912.0</ele>
        <time>2018-09-02T12:57:35Z</time>
      </trkpt>
      <trkpt lat="40.607250" lon="-5.115417">
        <ele>3910.0</ele>
        <time>2018-09-02T12:57:36Z</time>
      </trkpt>
      <trkpt lat="40.607350" lon="-5.115233">
        <ele>3907.0</ele>
        <time>2018-09-02T12:57:37Z</time>
      </trkpt>
      <trkpt lat="40.607450" lon="-5.115050">
        <ele>3905.0</ele>
        <time>2018-09-02T12:57:38Z</time>
      </trkpt>
      <trkpt lat="40.607567" lon="-5.114883">
        <ele>3903.0</ele>
        <time>2018-09-02T12:57:39Z</time>
      </trkpt>
      <trkpt lat="40.607700" lon="-5.114700">
        <ele>3900.0</ele>
        <time>2018-09-02T12:57:40Z</time>
      </trkpt>
      <trkpt lat="40.607817" lon="-5.114517">
        <ele>3897.0</ele>
        <time>2018-09-02T12:57:41Z</time>
      </trkpt>
      <trkpt lat="40.607933" lon="-5.114350">
        <ele>3894.0</ele>
        <time>2018-09-02T12:57:42Z</time>
      </trkpt>
      <trkpt lat="40.608033" lon="-5.114183">
        <ele>3891.0</ele>
        <time>2018-09-02T12:57:43Z</time>
      </trkpt>
      <trkpt lat="40.608133" lon="-5.114000">
        <ele>3888.0</ele>
        <time>2018-09-02T12:57:44Z</time>
      </trkpt>
      <trkpt lat="40.608250" lon="-5.113833">
        <ele>3885.0</ele>
        <time>2018-09-02T12:57:45Z</time>
      </trkpt>
      <trkpt lat="40.608383" lon="-5.113667">
        <ele>3880.0</ele>
        <time>2018-09-02T12:57:46Z</time>
      </trkpt>
      <trkpt lat="40.608633" lon="-5.113317">
        <ele>3871.0</ele>
        <time>2018-09-02T12:57:48Z</time>
      </trkpt>
      <trkpt lat="40.608750" lon="-5.113150">
        <ele>3867.0</ele>
        <time>2018-09-02T12:57:49Z</time>
      </trkpt>
      <trkpt lat="40.608867" lon="-5.112983">
        <ele>3864.0</ele>
        <time>2018-09-02T12:57:50Z</time>
      </trkpt>
      <trkpt lat="40.608967" lon="-5.112800">
        <ele>3860.0</ele>
        <time>2018-09-02T12:57:51Z</time>
      </trkpt>
      <trkpt lat="40.609083" lon="-5.112633">
        <ele>3856.0</ele>
        <time>2018-09-02T12:57:52Z</time>
      </trkpt>
      <trkpt lat="40.609217" lon="-5.112467">
        <ele>3851.0</ele>
        <time>2018-09-02T12:57:53Z</time>
      </trkpt>
      <trkpt lat="40.609367" lon="-5.112317">
        <ele>3846.0</ele>
        <time>2018-09-02T12:57:54Z</time>
      </trkpt>
      <trkpt lat="40.609500" lon="-5.112167">
        <ele>3842.0</ele>
        <time>2018-09-02T12:57:55Z</time>
      </trkpt>
      <trkpt lat="40.609617" lon="-5.112017">
        <ele>3838.0</ele>
        <time>2018-09-02T12:57:56Z</time>
      </trkpt>
      <trkpt lat="40.609733" lon="-5.111850">
        <ele>3836.0</ele>
        <time>2018-09-02T12:57:57Z</time>
      </trkpt>
      <trkpt lat="40.609850" lon="-5.111700">
        <ele>3832.0</ele>
        <time>2018-09-02T12:57:58Z</time>
      </trkpt>
      <trkpt lat="40.609967" lon="-5.111550">
        <ele>3828.0</ele>
        <time>2018-09-02T12:57:59Z</time>
      </trkpt>
      <trkpt lat="40.610083" lon="-5.111400">
        <ele>3825.0</ele>
        <time>2018-09-02T12:58:00Z</time>
      </trkpt>
      <trkpt lat="40.610200" lon="-5.111250">
        <ele>3821.0</ele>
        <time>2018-09-02T12:58:01Z</time>
      </trkpt>
      <trkpt lat="40.610283" lon="-5.111083">
        <ele>3817.0</ele>
        <time>2018-09-02T12:58:02Z</time>
      </trkpt>
      <trkpt lat="40.610383" lon="-5.110933">
        <ele>3814.0</ele>
        <time>2018-09-02T12:58:03Z</time>
      </trkpt>
      <trkpt lat="40.610467" lon="-5.110783">
        <ele>3811.0</ele>
        <time>2018-09-02T12:58:04Z</time>
      </trkpt>
      <trkpt lat="40.610567" lon="-5.110633">
        <ele>3807.0</ele>
        <time>2018-09-02T12:58:05Z</time>
      </trkpt>
      <trkpt lat="40.610667" lon="-5.110483">
        <ele>3804.0</ele>
        <time>2018-09-02T12:58:06Z</time>
      </trkpt>
      <trkpt lat="40.610767" lon="-5.110333">
        <ele>3801.0</ele>
        <time>2018-09-02T12:58:07Z</time>
      </trkpt>
      <trkpt lat="40.610867" lon="-5.110183">
        <ele>3799.0</ele>
        <time>2018-09-02T12:58:08Z</time>
      </trkpt>
      <trkpt lat="40.610950" lon="-5.110033">
        <ele>3797.0</ele>
        <time>2018-09-02T12:58:09Z</time>
      </trkpt>
      <trkpt lat="40.611050" lon="-5.109867">
        <ele>3795.0</ele>
        <time>2018-09-02T12:58:10Z</time>
      </trkpt>
      <trkpt lat="40.611150" lon="-5.109717">
        <ele>3793.0</ele>
        <time>2018-09-02T12:58:11Z</time>
      </trkpt>
      <trkpt lat="40.611250" lon="-5.109583">
        <ele>3791.0</ele>
        <time>2018-09-02T12:58:12Z</time>
      </trkpt>
      <trkpt lat="40.611350" lon="-5.109417">
        <ele>3788.0</ele>
        <time>2018-09-02T12:58:13Z</time>
      </trkpt>
      <trkpt lat="40.611433" lon="-5.109267">
        <ele>3786.0</ele>
        <time>2018-09-02T12:58:14Z</time>
      </trkpt>
      <trkpt lat="40.611533" lon="-5.109083">
        <ele>3782.0</ele>
        <time>2018-09-02T12:58:15Z</time>
      </trkpt>
      <trkpt lat="40.611633" lon="-5.108917">
        <ele>3780.0</ele>
        <time>2018-09-02T12:58:16Z</time>
      </trkpt>
      <trkpt lat="40.611733" lon="-5.108733">
        <ele>3777.0</ele>
        <time>2018-09-02T12:58:17Z</time>
      </trkpt>
      <trkpt lat="40.611833" lon="-5.108567">
        <ele>3774.0</ele>
        <time>2018-09-02T12:58:18Z</time>
      </trkpt>
      <trkpt lat="40.611933" lon="-5.108417">
        <ele>3772.0</ele>
        <time>2018-09-02T12:58:19Z</time>
      </trkpt>
      <trkpt lat="40.612017" lon="-5.108250">
        <ele>3769.0</ele>
        <time>2018-09-02T12:58:20Z</time>
      </trkpt>
      <trkpt lat="40.612117" lon="-5.108067">
        <ele>3767.0</ele>
        <time>2018-09-02T12:58:21Z</time>
      </trkpt>
      <trkpt lat="40.612217" lon="-5.107900">
        <ele>3764.0</ele>
        <time>2018-09-02T12:58:22Z</time>
      </trkpt>
      <trkpt lat="40.612317" lon="-5.107733">
        <ele>3761.0</ele>
        <time>2018-09-02T12:58:23Z</time>
      </trkpt>
      <trkpt lat="40.612417" lon="-5.107583">
        <ele>3759.0</ele>
        <time>2018-09-02T12:58:24Z</time>
      </trkpt>
      <trkpt lat="40.612517" lon="-5.107417">
        <ele>3757.0</ele>
        <time>2018-09-02T12:58:25Z</time>
      </trkpt>
      <trkpt lat="40.612600" lon="-5.107250">
        <ele>3756.0</ele>
        <time>2018-09-02T12:58:26Z</time>
      </trkpt>
      <trkpt lat="40.612683" lon="-5.107067">
        <ele>3754.0</ele>
        <time>2018-09-02T12:58:27Z</time>
      </trkpt>
      <trkpt lat="40.612783" lon="-5.106883">
        <ele>3752.0</ele>
        <time>2018-09-02T12:58:28Z</time>
      </trkpt>
      <trkpt lat="40.612883" lon="-5.106700">
        <ele>3750.0</ele>
        <time>2018-09-02T12:58:29Z</time>
      </trkpt>
      <trkpt lat="40.613000" lon="-5.106550">
        <ele>3749.0</ele>
        <time>2018-09-02T12:58:30Z</time>
      </trkpt>
      <trkpt lat="40.613117" lon="-5.106400">
        <ele>3748.0</ele>
        <time>2018-09-02T12:58:31Z</time>
      </trkpt>
      <trkpt lat="40.613317" lon="-5.106100">
        <ele>3745.0</ele>
        <time>2018-09-02T12:58:33Z</time>
      </trkpt>
      <trkpt lat="40.613400" lon="-5.105967">
        <ele>3744.0</ele>
        <time>2018-09-02T12:58:34Z</time>
      </trkpt>
      <trkpt lat="40.613500" lon="-5.105817">
        <ele>3743.0</ele>
        <time>2018-09-02T12:58:35Z</time>
      </trkpt>
      <trkpt lat="40.613583" lon="-5.105650">
        <ele>3741.0</ele>
        <time>2018-09-02T12:58:36Z</time>
      </trkpt>
      <trkpt lat="40.613683" lon="-5.105483">
        <ele>3739.0</ele>
        <time>2018-09-02T12:58:37Z</time>
      </trkpt>
      <trkpt lat="40.613783" lon="-5.105333">
        <ele>3738.0</ele>
        <time>2018-09-02T12:58:38Z</time>
      </trkpt>
      <trkpt lat="40.613867" lon="-5.105167">
        <ele>3736.0</ele>
        <time>2018-09-02T12:58:39Z</time>
      </trkpt>
      <trkpt lat="40.613950" lon="-5.105000">
        <ele>3735.0</ele>
        <time>2018-09-02T12:58:40Z</time>
      </trkpt>
      <trkpt lat="40.614050" lon="-5.104850">
        <ele>3734.0</ele>
        <time>2018-09-02T12:58:41Z</time>
      </trkpt>
      <trkpt lat="40.614133" lon="-5.104667">
        <ele>3732.0</ele>
        <time>2018-09-02T12:58:42Z</time>
      </trkpt>
      <trkpt lat="40.614233" lon="-5.104500">
        <ele>3731.0</ele>
        <time>2018-09-02T12:58:43Z</time>
      </trkpt>
      <trkpt lat="40.614317" lon="-5.104317">
        <ele>3729.0</ele>
        <time>2018-09-02T12:58:44Z</time>
      </trkpt>
      <trkpt lat="40.614417" lon="-5.104133">
        <ele>3728.0</ele>
        <time>2018-09-02T12:58:45Z</time>
      </trkpt>
      <trkpt lat="40.614517" lon="-5.103967">
        <ele>3728.0</ele>
        <time>2018-09-02T12:58:46Z</time>
      </trkpt>
      <trkpt lat="40.614617" lon="-5.103817">
        <ele>3728.0</ele>
        <time>2018-09-02T12:58:47Z</time>
      </trkpt>
      <trkpt lat="40.614700" lon="-5.103650">
        <ele>3727.0</ele>
        <time>2018-09-02T12:58:48Z</time>
      </trkpt>
      <trkpt lat="40.614783" lon="-5.103500">
        <ele>3727.0</ele>
        <time>2018-09-02T12:58:49Z</time>
      </trkpt>
      <trkpt lat="40.614883" lon="-5.103333">
        <ele>3726.0</ele>
        <time>2018-09-02T12:58:50Z</time>
      </trkpt>
      <trkpt lat="40.614983" lon="-5.103150">
        <ele>3725.0</ele>
        <time>2018-09-02T12:58:51Z</time>
      </trkpt>
      <trkpt lat="40.615083" lon="-5.102983">
        <ele>3724.0</ele>
        <time>2018-09-02T12:58:52Z</time>
      </trkpt>
      <trkpt lat="40.615200" lon="-5.102833">
        <ele>3723.0</ele>
        <time>2018-09-02T12:58:53Z</time>
      </trkpt>
      <trkpt lat="40.615300" lon="-5.102667">
        <ele>3722.0</ele>
        <time>2018-09-02T12:58:54Z</time>
      </trkpt>
      <trkpt lat="40.615400" lon="-5.102517">
        <ele>3722.0</ele>
        <time>2018-09-02T12:58:55Z</time>
      </trkpt>
      <trkpt lat="40.615467" lon="-5.102367">
        <ele>3722.0</ele>
        <time>2018-09-02T12:58:56Z</time>
      </trkpt>
      <trkpt lat="40.615550" lon="-5.102200">
        <ele>3721.0</ele>
        <time>2018-09-02T12:58:57Z</time>
      </trkpt>
      <trkpt lat="40.615650" lon="-5.102050">
        <ele>3720.0</ele>
        <time>2018-09-02T12:58:58Z</time>
      </trkpt>
      <trkpt lat="40.615767" lon="-5.101883">
        <ele>3717.0</ele>
        <time>2018-09-02T12:58:59Z</time>
      </trkpt>
      <trkpt lat="40.615867" lon="-5.101717">
        <ele>3716.0</ele>
        <time>2018-09-02T12:59:00Z</time>
      </trkpt>
      <trkpt lat="40.615967" lon="-5.101567">
        <ele>3715.0</ele>
        <time>2018-09-02T12:59:01Z</time>
      </trkpt>
      <trkpt lat="40.616067" lon="-5.101433">
        <ele>3714.0</ele>
        <time>2018-09-02T12:59:02Z</time>
      </trkpt>
      <trkpt lat="40.616150" lon="-5.101283">
        <ele>3714.0</ele>
        <time>2018-09-02T12:59:03Z</time>
      </trkpt>
      <trkpt lat="40.616233" lon="-5.101150">
        <ele>3713.0</ele>
        <time>2018-09-02T12:59:04Z</time>
      </trkpt>
      <trkpt lat="40.616333" lon="-5.100983">
        <ele>3711.0</ele>
        <time>2018-09-02T12:59:05Z</time>
      </trkpt>
      <trkpt lat="40.616450" lon="-5.100833">
        <ele>3709.0</ele>
        <time>2018-09-02T12:59:06Z</time>
      </trkpt>
      <trkpt lat="40.616550" lon="-5.100683">
        <ele>3708.0</ele>
        <time>2018-09-02T12:59:07Z</time>
      </trkpt>
      <trkpt lat="40.616633" lon="-5.100533">
        <ele>3707.0</ele>
        <time>2018-09-02T12:59:08Z</time>
      </trkpt>
      <trkpt lat="40.616733" lon="-5.100367">
        <ele>3706.0</ele>
        <time>2018-09-02T12:59:09Z</time>
      </trkpt>
      <trkpt lat="40.616833" lon="-5.100217">
        <ele>3705.0</ele>
        <time>2018-09-02T12:59:10Z</time>
      </trkpt>
      <trkpt lat="40.616933" lon="-5.100067">
        <ele>3704.0</ele>
        <time>2018-09-02T12:59:11Z</time>
      </trkpt>
      <trkpt lat="40.617033" lon="-5.099900">
        <ele>3703.0</ele>
        <time>2018-09-02T12:59:12Z</time>
      </trkpt>
      <trkpt lat="40.617133" lon="-5.099750">
        <ele>3702.0</ele>
        <time>2018-09-02T12:59:13Z</time>
      </trkpt>
      <trkpt lat="40.617233" lon="-5.099600">
        <ele>3701.0</ele>
        <time>2018-09-02T12:59:14Z</time>
      </trkpt>
      <trkpt lat="40.617333" lon="-5.099450">
        <ele>3701.0</ele>
        <time>2018-09-02T12:59:15Z</time>
      </trkpt>
      <trkpt lat="40.617433" lon="-5.099300">
        <ele>3700.0</ele>
        <time>2018-09-02T12:59:16Z</time>
      </trkpt>
      <trkpt lat="40.617533" lon="-5.099150">
        <ele>3700.0</ele>
        <time>2018-09-02T12:59:17Z</time>
      </trkpt>
      <trkpt lat="40.617633" lon="-5.099017">
        <ele>3701.0</ele>
        <time>2018-09-02T12:59:18Z</time>
      </trkpt>
      <trkpt lat="40.617733" lon="-5.098867">
        <ele>3700.0</ele>
        <time>2018-09-02T12:59:19Z</time>
      </trkpt>
      <trkpt lat="40.617817" lon="-5.098717">
        <ele>3700.0</ele>
        <time>2018-09-02T12:59:20Z</time>
      </trkpt>
      <trkpt lat="40.617917" lon="-5.098567">
        <ele>3698.0</ele>
        <time>2018-09-02T12:59:21Z</time>
      </trkpt>
      <trkpt lat="40.618000" lon="-5.098417">
        <ele>3698.0</ele>
        <time>2018-09-02T12:59:22Z</time>
      </trkpt>
      <trkpt lat="40.618083" lon="-5.098267">
        <ele>3697.0</ele>
        <time>2018-09-02T12:59:23Z</time>
      </trkpt>
      <trkpt lat="40.618167" lon="-5.098100">
        <ele>3696.0</ele>
        <time>2018-09-02T12:59:24Z</time>
      </trkpt>
      <trkpt lat="40.618250" lon="-5.097950">
        <ele>3694.0</ele>
        <time>2018-09-02T12:59:25Z</time>
      </trkpt>
      <trkpt lat="40.618350" lon="-5.097783">
        <ele>3693.0</ele>
        <time>2018-09-02T12:59:26Z</time>
      </trkpt>
      <trkpt lat="40.618433" lon="-5.097633">
        <ele>3692.0</ele>
        <time>2018-09-02T12:59:27Z</time>
      </trkpt>
      <trkpt lat="40.618533" lon="-5.097483">
        <ele>3691.0</ele>
        <time>2018-09-02T12:59:28Z</time>
      </trkpt>
      <trkpt lat="40.618617" lon="-5.097333">
        <ele>3690.0</ele>
        <time>2018-09-02T12:59:29Z</time>
      </trkpt>
      <trkpt lat="40.618683" lon="-5.097183">
        <ele>3689.0</ele>
        <time>2018-09-02T12:59:30Z</time>
      </trkpt>
      <trkpt lat="40.618767" lon="-5.097033">
        <ele>3688.0</ele>
        <time>2018-09-02T12:59:31Z</time>
      </trkpt>
      <trkpt lat="40.618850" lon="-5.096883">
        <ele>3687.0</ele>
        <time>2018-09-02T12:59:32Z</time>
      </trkpt>
      <trkpt lat="40.618950" lon="-5.096717">
        <ele>3685.0</ele>
        <time>2018-09-02T12:59:33Z</time>
      </trkpt>
      <trkpt lat="40.619050" lon="-5.096567">
        <ele>3683.0</ele>
        <time>2018-09-02T12:59:34Z</time>
      </trkpt>
      <trkpt lat="40.619133" lon="-5.096417">
        <ele>3682.0</ele>
        <time>2018-09-02T12:59:35Z</time>
      </trkpt>
      <trkpt lat="40.619217" lon="-5.096267">
        <ele>3681.0</ele>
        <time>2018-09-02T12:59:36Z</time>
      </trkpt>
      <trkpt lat="40.619300" lon="-5.096117">
        <ele>3680.0</ele>
        <time>2018-09-02T12:59:37Z</time>
      </trkpt>
      <trkpt lat="40.619367" lon="-5.095950">
        <ele>3679.0</ele>
        <time>2018-09-02T12:59:38Z</time>
      </trkpt>
      <trkpt lat="40.619450" lon="-5.095800">
        <ele>3677.0</ele>
        <time>2018-09-02T12:59:39Z</time>
      </trkpt>
      <trkpt lat="40.619550" lon="-5.095633">
        <ele>3676.0</ele>
        <time>2018-09-02T12:59:40Z</time>
      </trkpt>
      <trkpt lat="40.619633" lon="-5.095483">
        <ele>3674.0</ele>
        <time>2018-09-02T12:59:41Z</time>
      </trkpt>
      <trkpt lat="40.619717" lon="-5.095333">
        <ele>3673.0</ele>
        <time>2018-09-02T12:59:42Z</time>
      </trkpt>
      <trkpt lat="40.619800" lon="-5.095167">
        <ele>3671.0</ele>
        <time>2018-09-02T12:59:43Z</time>
      </trkpt>
      <trkpt lat="40.619867" lon="-5.095017">
        <ele>3670.0</ele>
        <time>2018-09-02T12:59:44Z</time>
      </trkpt>
      <trkpt lat="40.619967" lon="-5.094867">
        <ele>3668.0</ele>
        <time>2018-09-02T12:59:45Z</time>
      </trkpt>
      <trkpt lat="40.620050" lon="-5.094700">
        <ele>3665.0</ele>
        <time>2018-09-02T12:59:46Z</time>
      </trkpt>
      <trkpt lat="40.620150" lon="-5.094550">
        <ele>3663.0</ele>
        <time>2018-09-02T12:59:47Z</time>
      </trkpt>
      <trkpt lat="40.620233" lon="-5.094400">
        <ele>3661.0</ele>
        <time>2018-09-02T12:59:48Z</time>
      </trkpt>
      <trkpt lat="40.620333" lon="-5.094250">
        <ele>3659.0</ele>
        <time>2018-09-02T12:59:49Z</time>
      </trkpt>
      <trkpt lat="40.620417" lon="-5.094117">
        <ele>3658.0</ele>
        <time>2018-09-02T12:59:50Z</time>
      </trkpt>
      <trkpt lat="40.620517" lon="-5.093967">
        <ele>3656.0</ele>
        <time>2018-09-02T12:59:51Z</time>
      </trkpt>
      <trkpt lat="40.620600" lon="-5.093833">
        <ele>3654.0</ele>
        <time>2018-09-02T12:59:52Z</time>
      </trkpt>
      <trkpt lat="40.620767" lon="-5.093533">
        <ele>3651.0</ele>
        <time>2018-09-02T12:59:54Z</time>
      </trkpt>
      <trkpt lat="40.620850" lon="-5.093383">
        <ele>3649.0</ele>
        <time>2018-09-02T12:59:55Z</time>
      </trkpt>
      <trkpt lat="40.620933" lon="-5.093217">
        <ele>3648.0</ele>
        <time>2018-09-02T12:59:56Z</time>
      </trkpt>
      <trkpt lat="40.621017" lon="-5.093067">
        <ele>3646.0</ele>
        <time>2018-09-02T12:59:57Z</time>
      </trkpt>
      <trkpt lat="40.621100" lon="-5.092917">
        <ele>3645.0</ele>
        <time>2018-09-02T12:59:58Z</time>
      </trkpt>
      <trkpt lat="40.621183" lon="-5.092767">
        <ele>3644.0</ele>
        <time>2018-09-02T12:59:59Z</time>
      </trkpt>
      <trkpt lat="40.621267" lon="-5.092617">
        <ele>3642.0</ele>
        <time>2018-09-02T13:00:00Z</time>
      </trkpt>
      <trkpt lat="40.621350" lon="-5.092450">
        <ele>3641.0</ele>
        <time>2018-09-02T13:00:01Z</time>
      </trkpt>
      <trkpt lat="40.621433" lon="-5.092300">
        <ele>3639.0</ele>
        <time>2018-09-02T13:00:02Z</time>
      </trkpt>
      <trkpt lat="40.621517" lon="-5.092150">
        <ele>3638.0</ele>
        <time>2018-09-02T13:00:03Z</time>
      </trkpt>
      <trkpt lat="40.621583" lon="-5.091983">
        <ele>3637.0</ele>
        <time>2018-09-02T13:00:04Z</time>
      </trkpt>
      <trkpt lat="40.621667" lon="-5.091833">
        <ele>3636.0</ele>
        <time>2018-09-02T13:00:05Z</time>
      </trkpt>
      <trkpt lat="40.621750" lon="-5.091667">
        <ele>3635.0</ele>
        <time>2018-09-02T13:00:06Z</time>
      </trkpt>
      <trkpt lat="40.621817" lon="-5.091517">
        <ele>3633.0</ele>
        <time>2018-09-02T13:00:07Z</time>
      </trkpt>
      <trkpt lat="40.621900" lon="-5.091350">
        <ele>3632.0</ele>
        <time>2018-09-02T13:00:08Z</time>
      </trkpt>
      <trkpt lat="40.621983" lon="-5.091183">
        <ele>3630.0</ele>
        <time>2018-09-02T13:00:09Z</time>
      </trkpt>
      <trkpt lat="40.622083" lon="-5.091017">
        <ele>3628.0</ele>
        <time>2018-09-02T13:00:10Z</time>
      </trkpt>
      <trkpt lat="40.622150" lon="-5.090850">
        <ele>3627.0</ele>
        <time>2018-09-02T13:00:11Z</time>
      </trkpt>
      <trkpt lat="40.622233" lon="-5.090683">
        <ele>3626.0</ele>
        <time>2018-09-02T13:00:12Z</time>
      </trkpt>
      <trkpt lat="40.622317" lon="-5.090533">
        <ele>3625.0</ele>
        <time>2018-09-02T13:00:13Z</time>
      </trkpt>
      <trkpt lat="40.622400" lon="-5.090367">
        <ele>3623.0</ele>
        <time>2018-09-02T13:00:14Z</time>
      </trkpt>
      <trkpt lat="40.622483" lon="-5.090200">
        <ele>3621.0</ele>
        <time>2018-09-02T13:00:15Z</time>
      </trkpt>
      <trkpt lat="40.622567" lon="-5.090033">
        <ele>3619.0</ele>
        <time>2018-09-02T13:00:16Z</time>
      </trkpt>
      <trkpt lat="40.622650" lon="-5.089883">
        <ele>3618.0</ele>
        <time>2018-09-02T13:00:17Z</time>
      </trkpt>
      <trkpt lat="40.622733" lon="-5.089717">
        <ele>3616.0</ele>
        <time>2018-09-02T13:00:18Z</time>
      </trkpt>
      <trkpt lat="40.622817" lon="-5.089567">
        <ele>3614.0</ele>
        <time>2018-09-02T13:00:19Z</time>
      </trkpt>
      <trkpt lat="40.622900" lon="-5.089400">
        <ele>3613.0</ele>
        <time>2018-09-02T13:00:20Z</time>
      </trkpt>
      <trkpt lat="40.623000" lon="-5.089250">
        <ele>3611.0</ele>
        <time>2018-09-02T13:00:21Z</time>
      </trkpt>
      <trkpt lat="40.623083" lon="-5.089083">
        <ele>3609.0</ele>
        <time>2018-09-02T13:00:22Z</time>
      </trkpt>
      <trkpt lat="40.623167" lon="-5.088933">
        <ele>3608.0</ele>
        <time>2018-09-02T13:00:23Z</time>
      </trkpt>
      <trkpt lat="40.623250" lon="-5.088783">
        <ele>3606.0</ele>
        <time>2018-09-02T13:00:24Z</time>
      </trkpt>
      <trkpt lat="40.623350" lon="-5.088633">
        <ele>3605.0</ele>
        <time>2018-09-02T13:00:25Z</time>
      </trkpt>
      <trkpt lat="40.623433" lon="-5.088467">
        <ele>3603.0</ele>
        <time>2018-09-02T13:00:26Z</time>
      </trkpt>
      <trkpt lat="40.623517" lon="-5.088317">
        <ele>3602.0</ele>
        <time>2018-09-02T13:00:27Z</time>
      </trkpt>
      <trkpt lat="40.623600" lon="-5.088150">
        <ele>3600.0</ele>
        <time>2018-09-02T13:00:28Z</time>
      </trkpt>
      <trkpt lat="40.623700" lon="-5.088000">
        <ele>3599.0</ele>
        <time>2018-09-02T13:00:29Z</time>
      </trkpt>
      <trkpt lat="40.623783" lon="-5.087850">
        <ele>3597.0</ele>
        <time>2018-09-02T13:00:30Z</time>
      </trkpt>
      <trkpt lat="40.623867" lon="-5.087700">
        <ele>3595.0</ele>
        <time>2018-09-02T13:00:31Z</time>
      </trkpt>
      <trkpt lat="40.623950" lon="-5.087533">
        <ele>3594.0</ele>
        <time>2018-09-02T13:00:32Z</time>
      </trkpt>
      <trkpt lat="40.624033" lon="-5.087383">
        <ele>3593.0</ele>
        <time>2018-09-02T13:00:33Z</time>
      </trkpt>
      <trkpt lat="40.624117" lon="-5.087233">
        <ele>3592.0</ele>
        <time>2018-09-02T13:00:34Z</time>
      </trkpt>
      <trkpt lat="40.624200" lon="-5.087083">
        <ele>3590.0</ele>
        <time>2018-09-02T13:00:35Z</time>
      </trkpt>
      <trkpt lat="40.624300" lon="-5.086933">
        <ele>3588.0</ele>
        <time>2018-09-02T13:00:36Z</time>
      </trkpt>
      <trkpt lat="40.624383" lon="-5.086783">
        <ele>3586.0</ele>
        <time>2018-09-02T13:00:37Z</time>
      </trkpt>
      <trkpt lat="40.624467" lon="-5.086633">
        <ele>3585.0</ele>
        <time>2018-09-02T13:00:38Z</time>
      </trkpt>
      <trkpt lat="40.624550" lon="-5.086483">
        <ele>3583.0</ele>
        <time>2018-09-02T13:00:39Z</time>
      </trkpt>
      <trkpt lat="40.624633" lon="-5.086333">
        <ele>3581.0</ele>
        <time>2018-09-02T13:00:40Z</time>
      </trkpt>
      <trkpt lat="40.624717" lon="-5.086183">
        <ele>3580.0</ele>
        <time>2018-09-02T13:00:41Z</time>
      </trkpt>
      <trkpt lat="40.624800" lon="-5.086033">
        <ele>3578.0</ele>
        <time>2018-09-02T13:00:42Z</time>
      </trkpt>
      <trkpt lat="40.624867" lon="-5.085867">
        <ele>3576.0</ele>
        <time>2018-09-02T13:00:43Z</time>
      </trkpt>
      <trkpt lat="40.624950" lon="-5.085717">
        <ele>3575.0</ele>
        <time>2018-09-02T13:00:44Z</time>
      </trkpt>
      <trkpt lat="40.625017" lon="-5.085550">
        <ele>3573.0</ele>
        <time>2018-09-02T13:00:45Z</time>
      </trkpt>
      <trkpt lat="40.625100" lon="-5.085383">
        <ele>3571.0</ele>
        <time>2018-09-02T13:00:46Z</time>
      </trkpt>
      <trkpt lat="40.625167" lon="-5.085217">
        <ele>3569.0</ele>
        <time>2018-09-02T13:00:47Z</time>
      </trkpt>
      <trkpt lat="40.625250" lon="-5.085050">
        <ele>3567.0</ele>
        <time>2018-09-02T13:00:48Z</time>
      </trkpt>
      <trkpt lat="40.625317" lon="-5.084883">
        <ele>3565.0</ele>
        <time>2018-09-02T13:00:49Z</time>
      </trkpt>
      <trkpt lat="40.625383" lon="-5.084717">
        <ele>3563.0</ele>
        <time>2018-09-02T13:00:50Z</time>
      </trkpt>
      <trkpt lat="40.625467" lon="-5.084567">
        <ele>3561.0</ele>
        <time>2018-09-02T13:00:51Z</time>
      </trkpt>
      <trkpt lat="40.625533" lon="-5.084400">
        <ele>3559.0</ele>
        <time>2018-09-02T13:00:52Z</time>
      </trkpt>
      <trkpt lat="40.625650" lon="-5.084067">
        <ele>3556.0</ele>
        <time>2018-09-02T13:00:54Z</time>
      </trkpt>
      <trkpt lat="40.625717" lon="-5.083917">
        <ele>3554.0</ele>
        <time>2018-09-02T13:00:55Z</time>
      </trkpt>
      <trkpt lat="40.625783" lon="-5.083767">
        <ele>3552.0</ele>
        <time>2018-09-02T13:00:56Z</time>
      </trkpt>
      <trkpt lat="40.625850" lon="-5.083600">
        <ele>3549.0</ele>
        <time>2018-09-02T13:00:57Z</time>
      </trkpt>
      <trkpt lat="40.625917" lon="-5.083433">
        <ele>3546.0</ele>
        <time>2018-09-02T13:00:58Z</time>
      </trkpt>
      <trkpt lat="40.626000" lon="-5.083267">
        <ele>3543.0</ele>
        <time>2018-09-02T13:00:59Z</time>
      </trkpt>
      <trkpt lat="40.626067" lon="-5.083100">
        <ele>3541.0</ele>
        <time>2018-09-02T13:01:00Z</time>
      </trkpt>
      <trkpt lat="40.626133" lon="-5.082950">
        <ele>3539.0</ele>
        <time>2018-09-02T13:01:01Z</time>
      </trkpt>
      <trkpt lat="40.626217" lon="-5.082817">
        <ele>3538.0</ele>
        <time>2018-09-02T13:01:02Z</time>
      </trkpt>
      <trkpt lat="40.626283" lon="-5.082667">
        <ele>3536.0</ele>
        <time>2018-09-02T13:01:03Z</time>
      </trkpt>
      <trkpt lat="40.626333" lon="-5.082517">
        <ele>3533.0</ele>
        <time>2018-09-02T13:01:04Z</time>
      </trkpt>
      <trkpt lat="40.626383" lon="-5.082383">
        <ele>3531.0</ele>
        <time>2018-09-02T13:01:05Z</time>
      </trkpt>
      <trkpt lat="40.626450" lon="-5.082233">
        <ele>3528.0</ele>
        <time>2018-09-02T13:01:06Z</time>
      </trkpt>
      <trkpt lat="40.626500" lon="-5.082083">
        <ele>3525.0</ele>
        <time>2018-09-02T13:01:07Z</time>
      </trkpt>
      <trkpt lat="40.626583" lon="-5.081933">
        <ele>3522.0</ele>
        <time>2018-09-02T13:01:08Z</time>
      </trkpt>
      <trkpt lat="40.626733" lon="-5.081633">
        <ele>3516.0</ele>
        <time>2018-09-02T13:01:10Z</time>
      </trkpt>
      <trkpt lat="40.626800" lon="-5.081500">
        <ele>3514.0</ele>
        <time>2018-09-02T13:01:11Z</time>
      </trkpt>
      <trkpt lat="40.626867" lon="-5.081350">
        <ele>3512.0</ele>
        <time>2018-09-02T13:01:12Z</time>
      </trkpt>
      <trkpt lat="40.626933" lon="-5.081217">
        <ele>3510.0</ele>
        <time>2018-09-02T13:01:13Z</time>
      </trkpt>
      <trkpt lat="40.627000" lon="-5.081083">
        <ele>3508.0</ele>
        <time>2018-09-02T13:01:14Z</time>
      </trkpt>
      <trkpt lat="40.627067" lon="-5.080933">
        <ele>3505.0</ele>
        <time>2018-09-02T13:01:15Z</time>
      </trkpt>
      <trkpt lat="40.627150" lon="-5.080800">
        <ele>3503.0</ele>
        <time>2018-09-02T13:01:16Z</time>
      </trkpt>
      <trkpt lat="40.627217" lon="-5.080650">
        <ele>3500.0</ele>
        <time>2018-09-02T13:01:17Z</time>
      </trkpt>
      <trkpt lat="40.627283" lon="-5.080500">
        <ele>3498.0</ele>
        <time>2018-09-02T13:01:18Z</time>
      </trkpt>
      <trkpt lat="40.627333" lon="-5.080350">
        <ele>3497.0</ele>
        <time>2018-09-02T13:01:19Z</time>
      </trkpt>
      <trkpt lat="40.627400" lon="-5.080200">
        <ele>3494.0</ele>
        <time>2018-09-02T13:01:20Z</time>
      </trkpt>
      <trkpt lat="40.627483" lon="-5.080067">
        <ele>3492.0</ele>
        <time>2018-09-02T13:01:21Z</time>
      </trkpt>
      <trkpt lat="40.627550" lon="-5.079917">
        <ele>3489.0</ele>
        <time>2018-09-02T13:01:22Z</time>
      </trkpt>
      <trkpt lat="40.627617" lon="-5.079783">
        <ele>3487.0</ele>
        <time>2018-09-02T13:01:23Z</time>
      </trkpt>
      <trkpt lat="40.627683" lon="-5.079633">
        <ele>3485.0</ele>
        <time>2018-09-02T13:01:24Z</time>
      </trkpt>
      <trkpt lat="40.627750" lon="-5.079483">
        <ele>3483.0</ele>
        <time>2018-09-02T13:01:25Z</time>
      </trkpt>
      <trkpt lat="40.627817" lon="-5.079333">
        <ele>3481.0</ele>
        <time>2018-09-02T13:01:26Z</time>
      </trkpt>
      <trkpt lat="40.627900" lon="-5.079167">
        <ele>3479.0</ele>
        <time>2018-09-02T13:01:27Z</time>
      </trkpt>
      <trkpt lat="40.627967" lon="-5.079017">
        <ele>3477.0</ele>
        <time>2018-09-02T13:01:28Z</time>
      </trkpt>
      <trkpt lat="40.628050" lon="-5.078850">
        <ele>3476.0</ele>
        <time>2018-09-02T13:01:29Z</time>
      </trkpt>
      <trkpt lat="40.628133" lon="-5.078700">
        <ele>3474.0</ele>
        <time>2018-09-02T13:01:30Z</time>
      </trkpt>
      <trkpt lat="40.628217" lon="-5.078517">
        <ele>3472.0</ele>
        <time>2018-09-02T13:01:31Z</time>
      </trkpt>
      <trkpt lat="40.628417" lon="-5.078233">
        <ele>3471.0</ele>
        <time>2018-09-02T13:01:33Z</time>
      </trkpt>
      <trkpt lat="40.628517" lon="-5.078100">
        <ele>3473.0</ele>
        <time>2018-09-02T13:01:34Z</time>
      </trkpt>
      <trkpt lat="40.628617" lon="-5.077967">
        <ele>3476.0</ele>
        <time>2018-09-02T13:01:35Z</time>
      </trkpt>
      <trkpt lat="40.628683" lon="-5.077833">
        <ele>3477.0</ele>
        <time>2018-09-02T13:01:36Z</time>
      </trkpt>
      <trkpt lat="40.628767" lon="-5.077700">
        <ele>3478.0</ele>
        <time>2018-09-02T13:01:37Z</time>
      </trkpt>
      <trkpt lat="40.628850" lon="-5.077533">
        <ele>3479.0</ele>
        <time>2018-09-02T13:01:38Z</time>
      </trkpt>
      <trkpt lat="40.628950" lon="-5.077367">
        <ele>3479.0</ele>
        <time>2018-09-02T13:01:39Z</time>
      </trkpt>
      <trkpt lat="40.629033" lon="-5.077217">
        <ele>3479.0</ele>
        <time>2018-09-02T13:01:40Z</time>
      </trkpt>
      <trkpt lat="40.629133" lon="-5.077067">
        <ele>3481.0</ele>
        <time>2018-09-02T13:01:41Z</time>
      </trkpt>
      <trkpt lat="40.629217" lon="-5.076933">
        <ele>3484.0</ele>
        <time>2018-09-02T13:01:42Z</time>
      </trkpt>
      <trkpt lat="40.629283" lon="-5.076817">
        <ele>3487.0</ele>
        <time>2018-09-02T13:01:43Z</time>
      </trkpt>
      <trkpt lat="40.629350" lon="-5.076700">
        <ele>3491.0</ele>
        <time>2018-09-02T13:01:44Z</time>
      </trkpt>
      <trkpt lat="40.629500" lon="-5.076000">
        <ele>3493.0</ele>
        <time>2018-09-02T13:01:48Z</time>
      </trkpt>
      <trkpt lat="40.629317" lon="-5.075633">
        <ele>3489.0</ele>
        <time>2018-09-02T13:01:51Z</time>
      </trkpt>
      <trkpt lat="40.629233" lon="-5.075617">
        <ele>3487.0</ele>
        <time>2018-09-02T13:01:52Z</time>
      </trkpt>
      <trkpt lat="40.629150" lon="-5.075633">
        <ele>3488.0</ele>
        <time>2018-09-02T13:01:53Z</time>
      </trkpt>
      <trkpt lat="40.629083" lon="-5.075650">
        <ele>3488.0</ele>
        <time>2018-09-02T13:01:54Z</time>
      </trkpt>
      <trkpt lat="40.629033" lon="-5.075667">
        <ele>3488.0</ele>
        <time>2018-09-02T13:01:55Z</time>
      </trkpt>
      <trkpt lat="40.628967" lon="-5.075667">
        <ele>3487.0</ele>
        <time>2018-09-02T13:01:56Z</time>
      </trkpt>
      <trkpt lat="40.628917" lon="-5.075683">
        <ele>3488.0</ele>
        <time>2018-09-02T13:01:57Z</time>
      </trkpt>
      <trkpt lat="40.628883" lon="-5.075733">
        <ele>3488.0</ele>
        <time>2018-09-02T13:01:58Z</time>
      </trkpt>
      <trkpt lat="40.628917" lon="-5.075783">
        <ele>3488.0</ele>
        <time>2018-09-02T13:01:59Z</time>
      </trkpt>
      <trkpt lat="40.628967" lon="-5.075800">
        <ele>3488.0</ele>
        <time>2018-09-02T13:02:00Z</time>
      </trkpt>
      <trkpt lat="40.629050" lon="-5.075767">
        <ele>3488.0</ele>
        <time>2018-09-02T13:02:01Z</time>
      </trkpt>
      <trkpt lat="40.629150" lon="-5.075683">
        <ele>3489.0</ele>
        <time>2018-09-02T13:02:02Z</time>
      </trkpt>
      <trkpt lat="40.629233" lon="-5.075550">
        <ele>3489.0</ele>
        <time>2018-09-02T13:02:03Z</time>
      </trkpt>
      <trkpt lat="40.629300" lon="-5.075367">
        <ele>3489.0</ele>
        <time>2018-09-02T13:02:04Z</time>
      </trkpt>
      <trkpt lat="40.629333" lon="-5.075183">
        <ele>3490.0</ele>
        <time>2018-09-02T13:02:05Z</time>
      </trkpt>
      <trkpt lat="40.629317" lon="-5.075000">
        <ele>3490.0</ele>
        <time>2018-09-02T13:02:06Z</time>
      </trkpt>
      <trkpt lat="40.629300" lon="-5.074833">
        <ele>3490.0</ele>
        <time>2018-09-02T13:02:07Z</time>
      </trkpt>
      <trkpt lat="40.629267" lon="-5.074650">
        <ele>3490.0</ele>
        <time>2018-09-02T13:02:08Z</time>
      </trkpt>
      <trkpt lat="40.629217" lon="-5.074483">
        <ele>3491.0</ele>
        <time>2018-09-02T13:02:09Z</time>
      </trkpt>
      <trkpt lat="40.629133" lon="-5.074317">
        <ele>3491.0</ele>
        <time>2018-09-02T13:02:10Z</time>
      </trkpt>
      <trkpt lat="40.629033" lon="-5.074217">
        <ele>3490.0</ele>
        <time>2018-09-02T13:02:11Z</time>
      </trkpt>
      <trkpt lat="40.628950" lon="-5.074150">
        <ele>3490.0</ele>
        <time>2018-09-02T13:02:12Z</time>
      </trkpt>
      <trkpt lat="40.628867" lon="-5.074150">
        <ele>3490.0</ele>
        <time>2018-09-02T13:02:13Z</time>
      </trkpt>
      <trkpt lat="40.628833" lon="-5.074200">
        <ele>3491.0</ele>
        <time>2018-09-02T13:02:14Z</time>
      </trkpt>
      <trkpt lat="40.628817" lon="-5.074250">
        <ele>3491.0</ele>
        <time>2018-09-02T13:02:15Z</time>
      </trkpt>
      <trkpt lat="40.628817" lon="-5.074300">
        <ele>3491.0</ele>
        <time>2018-09-02T13:02:16Z</time>
      </trkpt>
      <trkpt lat="40.628833" lon="-5.074333">
        <ele>3491.0</ele>
        <time>2018-09-02T13:02:17Z</time>
      </trkpt>
      <trkpt lat="40.628850" lon="-5.074367">
        <ele>3491.0</ele>
        <time>2018-09-02T13:02:18Z</time>
      </trkpt>
      <trkpt lat="40.628867" lon="-5.074417">
        <ele>3491.0</ele>
        <time>2018-09-02T13:02:19Z</time>
      </trkpt>
      <trkpt lat="40.628917" lon="-5.074467">
        <ele>3491.0</ele>
        <time>2018-09-02T13:02:20Z</time>
      </trkpt>
      <trkpt lat="40.628983" lon="-5.074500">
        <ele>3491.0</ele>
        <time>2018-09-02T13:02:21Z</time>
      </trkpt>
      <trkpt lat="40.629083" lon="-5.074483">
        <ele>3491.0</ele>
        <time>2018-09-02T13:02:22Z</time>
      </trkpt>
      <trkpt lat="40.629183" lon="-5.074450">
        <ele>3491.0</ele>
        <time>2018-09-02T13:02:23Z</time>
      </trkpt>
      <trkpt lat="40.629300" lon="-5.074367">
        <ele>3491.0</ele>
        <time>2018-09-02T13:02:24Z</time>
      </trkpt>
      <trkpt lat="40.629400" lon="-5.074250">
        <ele>3492.0</ele>
        <time>2018-09-02T13:02:25Z</time>
      </trkpt>
      <trkpt lat="40.629500" lon="-5.074150">
        <ele>3494.0</ele>
        <time>2018-09-02T13:02:26Z</time>
      </trkpt>
      <trkpt lat="40.629617" lon="-5.074067">
        <ele>3496.0</ele>
        <time>2018-09-02T13:02:27Z</time>
      </trkpt>
      <trkpt lat="40.629717" lon="-5.073967">
        <ele>3498.0</ele>
        <time>2018-09-02T13:02:28Z</time>
      </trkpt>
      <trkpt lat="40.629817" lon="-5.073867">
        <ele>3500.0</ele>
        <time>2018-09-02T13:02:29Z</time>
      </trkpt>
      <trkpt lat="40.629933" lon="-5.073800">
        <ele>3502.0</ele>
        <time>2018-09-02T13:02:30Z</time>
      </trkpt>
      <trkpt lat="40.630033" lon="-5.073717">
        <ele>3503.0</ele>
        <time>2018-09-02T13:02:31Z</time>
      </trkpt>
      <trkpt lat="40.630133" lon="-5.073650">
        <ele>3504.0</ele>
        <time>2018-09-02T13:02:32Z</time>
      </trkpt>
      <trkpt lat="40.630233" lon="-5.073600">
        <ele>3505.0</ele>
        <time>2018-09-02T13:02:33Z</time>
      </trkpt>
      <trkpt lat="40.630333" lon="-5.073567">
        <ele>3506.0</ele>
        <time>2018-09-02T13:02:34Z</time>
      </trkpt>
      <trkpt lat="40.630417" lon="-5.073550">
        <ele>3507.0</ele>
        <time>2018-09-02T13:02:35Z</time>
      </trkpt>
      <trkpt lat="40.630500" lon="-5.073517">
        <ele>3508.0</ele>
        <time>2018-09-02T13:02:36Z</time>
      </trkpt>
      <trkpt lat="40.630600" lon="-5.073483">
        <ele>3508.0</ele>
        <time>2018-09-02T13:02:37Z</time>
      </trkpt>
      <trkpt lat="40.630683" lon="-5.073450">
        <ele>3507.0</ele>
        <time>2018-09-02T13:02:38Z</time>
      </trkpt>
      <trkpt lat="40.630783" lon="-5.073433">
        <ele>3505.0</ele>
        <time>2018-09-02T13:02:39Z</time>
      </trkpt>
      <trkpt lat="40.630883" lon="-5.073400">
        <ele>3503.0</ele>
        <time>2018-09-02T13:02:40Z</time>
      </trkpt>
      <trkpt lat="40.630967" lon="-5.073367">
        <ele>3502.0</ele>
        <time>2018-09-02T13:02:41Z</time>
      </trkpt>
      <trkpt lat="40.631067" lon="-5.073317">
        <ele>3500.0</ele>
        <time>2018-09-02T13:02:42Z</time>
      </trkpt>
      <trkpt lat="40.631167" lon="-5.073283">
        <ele>3499.0</ele>
        <time>2018-09-02T13:02:43Z</time>
      </trkpt>
      <trkpt lat="40.631267" lon="-5.073217">
        <ele>3497.0</ele>
        <time>2018-09-02T13:02:44Z</time>
      </trkpt>
      <trkpt lat="40.631367" lon="-5.073167">
        <ele>3495.0</ele>
        <time>2018-09-02T13:02:45Z</time>
      </trkpt>
      <trkpt lat="40.631467" lon="-5.073083">
        <ele>3493.0</ele>
        <time>2018-09-02T13:02:46Z</time>
      </trkpt>
      <trkpt lat="40.631567" lon="-5.072983">
        <ele>3490.0</ele>
        <time>2018-09-02T13:02:47Z</time>
      </trkpt>
      <trkpt lat="40.631667" lon="-5.072850">
        <ele>3488.0</ele>
        <time>2018-09-02T13:02:48Z</time>
      </trkpt>
      <trkpt lat="40.631750" lon="-5.072733">
        <ele>3486.0</ele>
        <time>2018-09-02T13:02:49Z</time>
      </trkpt>
      <trkpt lat="40.631817" lon="-5.072617">
        <ele>3484.0</ele>
        <time>2018-09-02T13:02:50Z</time>
      </trkpt>
      <trkpt lat="40.631900" lon="-5.072483">
        <ele>3482.0</ele>
        <time>2018-09-02T13:02:51Z</time>
      </trkpt>
      <trkpt lat="40.632000" lon="-5.072383">
        <ele>3480.0</ele>
        <time>2018-09-02T13:02:52Z</time>
      </trkpt>
      <trkpt lat="40.632100" lon="-5.072250">
        <ele>3478.0</ele>
        <time>2018-09-02T13:02:53Z</time>
      </trkpt>
      <trkpt lat="40.632183" lon="-5.072133">
        <ele>3476.0</ele>
        <time>2018-09-02T13:02:54Z</time>
      </trkpt>
      <trkpt lat="40.632283" lon="-5.072033">
        <ele>3475.0</ele>
        <time>2018-09-02T13:02:55Z</time>
      </trkpt>
      <trkpt lat="40.632350" lon="-5.071917">
        <ele>3474.0</ele>
        <time>2018-09-02T13:02:56Z</time>
      </trkpt>
      <trkpt lat="40.632417" lon="-5.071800">
        <ele>3473.0</ele>
        <time>2018-09-02T13:02:57Z</time>
      </trkpt>
      <trkpt lat="40.632483" lon="-5.071667">
        <ele>3472.0</ele>
        <time>2018-09-02T13:02:58Z</time>
      </trkpt>
      <trkpt lat="40.632567" lon="-5.071550">
        <ele>3471.0</ele>
        <time>2018-09-02T13:02:59Z</time>
      </trkpt>
      <trkpt lat="40.632650" lon="-5.071417">
        <ele>3470.0</ele>
        <time>2018-09-02T13:03:00Z</time>
      </trkpt>
      <trkpt lat="40.632733" lon="-5.071300">
        <ele>3470.0</ele>
        <time>2018-09-02T13:03:01Z</time>
      </trkpt>
      <trkpt lat="40.632800" lon="-5.071183">
        <ele>3470.0</ele>
        <time>2018-09-02T13:03:02Z</time>
      </trkpt>
      <trkpt lat="40.632883" lon="-5.071050">
        <ele>3471.0</ele>
        <time>2018-09-02T13:03:03Z</time>
      </trkpt>
      <trkpt lat="40.632967" lon="-5.070933">
        <ele>3473.0</ele>
        <time>2018-09-02T13:03:04Z</time>
      </trkpt>
      <trkpt lat="40.633050" lon="-5.070817">
        <ele>3475.0</ele>
        <time>2018-09-02T13:03:05Z</time>
      </trkpt>
      <trkpt lat="40.633133" lon="-5.070700">
        <ele>3476.0</ele>
        <time>2018-09-02T13:03:06Z</time>
      </trkpt>
      <trkpt lat="40.633217" lon="-5.070583">
        <ele>3477.0</ele>
        <time>2018-09-02T13:03:07Z</time>
      </trkpt>
      <trkpt lat="40.633283" lon="-5.070450">
        <ele>3478.0</ele>
        <time>2018-09-02T13:03:08Z</time>
      </trkpt>
      <trkpt lat="40.633367" lon="-5.070317">
        <ele>3479.0</ele>
        <time>2018-09-02T13:03:09Z</time>
      </trkpt>
      <trkpt lat="40.633450" lon="-5.070183">
        <ele>3479.0</ele>
        <time>2018-09-02T13:03:10Z</time>
      </trkpt>
      <trkpt lat="40.633533" lon="-5.070033">
        <ele>3479.0</ele>
        <time>2018-09-02T13:03:11Z</time>
      </trkpt>
      <trkpt lat="40.633617" lon="-5.069900">
        <ele>3479.0</ele>
        <time>2018-09-02T13:03:12Z</time>
      </trkpt>
      <trkpt lat="40.633700" lon="-5.069767">
        <ele>3479.0</ele>
        <time>2018-09-02T13:03:13Z</time>
      </trkpt>
      <trkpt lat="40.633783" lon="-5.069633">
        <ele>3479.0</ele>
        <time>2018-09-02T13:03:14Z</time>
      </trkpt>
      <trkpt lat="40.633883" lon="-5.069517">
        <ele>3479.0</ele>
        <time>2018-09-02T13:03:15Z</time>
      </trkpt>
      <trkpt lat="40.633967" lon="-5.069400">
        <ele>3478.0</ele>
        <time>2018-09-02T13:03:16Z</time>
      </trkpt>
      <trkpt lat="40.634050" lon="-5.069283">
        <ele>3478.0</ele>
        <time>2018-09-02T13:03:17Z</time>
      </trkpt>
      <trkpt lat="40.634133" lon="-5.069150">
        <ele>3477.0</ele>
        <time>2018-09-02T13:03:18Z</time>
      </trkpt>
      <trkpt lat="40.634217" lon="-5.069033">
        <ele>3475.0</ele>
        <time>2018-09-02T13:03:19Z</time>
      </trkpt>
      <trkpt lat="40.634300" lon="-5.068900">
        <ele>3474.0</ele>
        <time>2018-09-02T13:03:20Z</time>
      </trkpt>
      <trkpt lat="40.634400" lon="-5.068767">
        <ele>3472.0</ele>
        <time>2018-09-02T13:03:21Z</time>
      </trkpt>
      <trkpt lat="40.634500" lon="-5.068650">
        <ele>3470.0</ele>
        <time>2018-09-02T13:03:22Z</time>
      </trkpt>
      <trkpt lat="40.634600" lon="-5.068517">
        <ele>3468.0</ele>
        <time>2018-09-02T13:03:23Z</time>
      </trkpt>
      <trkpt lat="40.634700" lon="-5.068400">
        <ele>3466.0</ele>
        <time>2018-09-02T13:03:24Z</time>
      </trkpt>
      <trkpt lat="40.634800" lon="-5.068267">
        <ele>3464.0</ele>
        <time>2018-09-02T13:03:25Z</time>
      </trkpt>
      <trkpt lat="40.634883" lon="-5.068133">
        <ele>3464.0</ele>
        <time>2018-09-02T13:03:26Z</time>
      </trkpt>
      <trkpt lat="40.634983" lon="-5.068017">
        <ele>3463.0</ele>
        <time>2018-09-02T13:03:27Z</time>
      </trkpt>
      <trkpt lat="40.635067" lon="-5.067900">
        <ele>3461.0</ele>
        <time>2018-09-02T13:03:28Z</time>
      </trkpt>
      <trkpt lat="40.635167" lon="-5.067783">
        <ele>3459.0</ele>
        <time>2018-09-02T13:03:29Z</time>
      </trkpt>
      <trkpt lat="40.635267" lon="-5.067650">
        <ele>3458.0</ele>
        <time>2018-09-02T13:03:30Z</time>
      </trkpt>
      <trkpt lat="40.635367" lon="-5.067533">
        <ele>3455.0</ele>
        <time>2018-09-02T13:03:31Z</time>
      </trkpt>
      <trkpt lat="40.635483" lon="-5.067417">
        <ele>3453.0</ele>
        <time>2018-09-02T13:03:32Z</time>
      </trkpt>
      <trkpt lat="40.635583" lon="-5.067300">
        <ele>3451.0</ele>
        <time>2018-09-02T13:03:33Z</time>
      </trkpt>
      <trkpt lat="40.635683" lon="-5.067167">
        <ele>3450.0</ele>
        <time>2018-09-02T13:03:34Z</time>
      </trkpt>
      <trkpt lat="40.635767" lon="-5.067033">
        <ele>3448.0</ele>
        <time>2018-09-02T13:03:35Z</time>
      </trkpt>
      <trkpt lat="40.635867" lon="-5.066883">
        <ele>3446.0</ele>
        <time>2018-09-02T13:03:36Z</time>
      </trkpt>
      <trkpt lat="40.635950" lon="-5.066750">
        <ele>3445.0</ele>
        <time>2018-09-02T13:03:37Z</time>
      </trkpt>
      <trkpt lat="40.636033" lon="-5.066617">
        <ele>3443.0</ele>
        <time>2018-09-02T13:03:38Z</time>
      </trkpt>
      <trkpt lat="40.636117" lon="-5.066467">
        <ele>3442.0</ele>
        <time>2018-09-02T13:03:39Z</time>
      </trkpt>
      <trkpt lat="40.636200" lon="-5.066333">
        <ele>3439.0</ele>
        <time>2018-09-02T13:03:40Z</time>
      </trkpt>
      <trkpt lat="40.636300" lon="-5.066183">
        <ele>3437.0</ele>
        <time>2018-09-02T13:03:41Z</time>
      </trkpt>
      <trkpt lat="40.636383" lon="-5.066050">
        <ele>3435.0</ele>
        <time>2018-09-02T13:03:42Z</time>
      </trkpt>
      <trkpt lat="40.636483" lon="-5.065900">
        <ele>3432.0</ele>
        <time>2018-09-02T13:03:43Z</time>
      </trkpt>
      <trkpt lat="40.636567" lon="-5.065767">
        <ele>3430.0</ele>
        <time>2018-09-02T13:03:44Z</time>
      </trkpt>
      <trkpt lat="40.636667" lon="-5.065650">
        <ele>3427.0</ele>
        <time>2018-09-02T13:03:45Z</time>
      </trkpt>
      <trkpt lat="40.636767" lon="-5.065500">
        <ele>3424.0</ele>
        <time>2018-09-02T13:03:46Z</time>
      </trkpt>
      <trkpt lat="40.636850" lon="-5.065350">
        <ele>3421.0</ele>
        <time>2018-09-02T13:03:47Z</time>
      </trkpt>
      <trkpt lat="40.636950" lon="-5.065200">
        <ele>3418.0</ele>
        <time>2018-09-02T13:03:48Z</time>
      </trkpt>
      <trkpt lat="40.637033" lon="-5.065033">
        <ele>3416.0</ele>
        <time>2018-09-02T13:03:49Z</time>
      </trkpt>
      <trkpt lat="40.637100" lon="-5.064883">
        <ele>3413.0</ele>
        <time>2018-09-02T13:03:50Z</time>
      </trkpt>
      <trkpt lat="40.637183" lon="-5.064717">
        <ele>3412.0</ele>
        <time>2018-09-02T13:03:51Z</time>
      </trkpt>
      <trkpt lat="40.637267" lon="-5.064567">
        <ele>3411.0</ele>
        <time>2018-09-02T13:03:52Z</time>
      </trkpt>
      <trkpt lat="40.637350" lon="-5.064400">
        <ele>3410.0</ele>
        <time>2018-09-02T13:03:53Z</time>
      </trkpt>
      <trkpt lat="40.637433" lon="-5.064250">
        <ele>3408.0</ele>
        <time>2018-09-02T13:03:54Z</time>
      </trkpt>
      <trkpt lat="40.637500" lon="-5.064067">
        <ele>3406.0</ele>
        <time>2018-09-02T13:03:55Z</time>
      </trkpt>
      <trkpt lat="40.637567" lon="-5.063900">
        <ele>3405.0</ele>
        <time>2018-09-02T13:03:56Z</time>
      </trkpt>
      <trkpt lat="40.637650" lon="-5.063733">
        <ele>3403.0</ele>
        <time>2018-09-02T13:03:57Z</time>
      </trkpt>
      <trkpt lat="40.637717" lon="-5.063550">
        <ele>3401.0</ele>
        <time>2018-09-02T13:03:58Z</time>
      </trkpt>
      <trkpt lat="40.637783" lon="-5.063367">
        <ele>3400.0</ele>
        <time>2018-09-02T13:03:59Z</time>
      </trkpt>
      <trkpt lat="40.637867" lon="-5.063183">
        <ele>3399.0</ele>
        <time>2018-09-02T13:04:00Z</time>
      </trkpt>
      <trkpt lat="40.637933" lon="-5.063000">
        <ele>3398.0</ele>
        <time>2018-09-02T13:04:01Z</time>
      </trkpt>
      <trkpt lat="40.638000" lon="-5.062833">
        <ele>3397.0</ele>
        <time>2018-09-02T13:04:02Z</time>
      </trkpt>
      <trkpt lat="40.638067" lon="-5.062650">
        <ele>3395.0</ele>
        <time>2018-09-02T13:04:03Z</time>
      </trkpt>
      <trkpt lat="40.638133" lon="-5.062450">
        <ele>3393.0</ele>
        <time>2018-09-02T13:04:04Z</time>
      </trkpt>
      <trkpt lat="40.638217" lon="-5.062267">
        <ele>3391.0</ele>
        <time>2018-09-02T13:04:05Z</time>
      </trkpt>
      <trkpt lat="40.638300" lon="-5.062083">
        <ele>3389.0</ele>
        <time>2018-09-02T13:04:06Z</time>
      </trkpt>
      <trkpt lat="40.638383" lon="-5.061900">
        <ele>3388.0</ele>
        <time>2018-09-02T13:04:07Z</time>
      </trkpt>
      <trkpt lat="40.638450" lon="-5.061733">
        <ele>3387.0</ele>
        <time>2018-09-02T13:04:08Z</time>
      </trkpt>
      <trkpt lat="40.638533" lon="-5.061567">
        <ele>3386.0</ele>
        <time>2018-09-02T13:04:09Z</time>
      </trkpt>
      <trkpt lat="40.638600" lon="-5.061400">
        <ele>3384.0</ele>
        <time>2018-09-02T13:04:10Z</time>
      </trkpt>
      <trkpt lat="40.638683" lon="-5.061200">
        <ele>3380.0</ele>
        <time>2018-09-02T13:04:11Z</time>
      </trkpt>
      <trkpt lat="40.638767" lon="-5.061017">
        <ele>3378.0</ele>
        <time>2018-09-02T13:04:12Z</time>
      </trkpt>
      <trkpt lat="40.638833" lon="-5.060833">
        <ele>3376.0</ele>
        <time>2018-09-02T13:04:13Z</time>
      </trkpt>
      <trkpt lat="40.638917" lon="-5.060650">
        <ele>3374.0</ele>
        <time>2018-09-02T13:04:14Z</time>
      </trkpt>
      <trkpt lat="40.638983" lon="-5.060483">
        <ele>3372.0</ele>
        <time>2018-09-02T13:04:15Z</time>
      </trkpt>
      <trkpt lat="40.639050" lon="-5.060300">
        <ele>3369.0</ele>
        <time>2018-09-02T13:04:16Z</time>
      </trkpt>
      <trkpt lat="40.639133" lon="-5.060117">
        <ele>3366.0</ele>
        <time>2018-09-02T13:04:17Z</time>
      </trkpt>
      <trkpt lat="40.639217" lon="-5.059917">
        <ele>3363.0</ele>
        <time>2018-09-02T13:04:18Z</time>
      </trkpt>
      <trkpt lat="40.639317" lon="-5.059733">
        <ele>3360.0</ele>
        <time>2018-09-02T13:04:19Z</time>
      </trkpt>
      <trkpt lat="40.639417" lon="-5.059550">
        <ele>3357.0</ele>
        <time>2018-09-02T13:04:20Z</time>
      </trkpt>
      <trkpt lat="40.639500" lon="-5.059367">
        <ele>3353.0</ele>
        <time>2018-09-02T13:04:21Z</time>
      </trkpt>
      <trkpt lat="40.639600" lon="-5.059183">
        <ele>3350.0</ele>
        <time>2018-09-02T13:04:22Z</time>
      </trkpt>
      <trkpt lat="40.639683" lon="-5.058983">
        <ele>3348.0</ele>
        <time>2018-09-02T13:04:23Z</time>
      </trkpt>
      <trkpt lat="40.639767" lon="-5.058800">
        <ele>3345.0</ele>
        <time>2018-09-02T13:04:24Z</time>
      </trkpt>
      <trkpt lat="40.639867" lon="-5.058617">
        <ele>3342.0</ele>
        <time>2018-09-02T13:04:25Z</time>
      </trkpt>
      <trkpt lat="40.639950" lon="-5.058433">
        <ele>3340.0</ele>
        <time>2018-09-02T13:04:26Z</time>
      </trkpt>
      <trkpt lat="40.640033" lon="-5.058250">
        <ele>3337.0</ele>
        <time>2018-09-02T13:04:27Z</time>
      </trkpt>
      <trkpt lat="40.640117" lon="-5.058083">
        <ele>3335.0</ele>
        <time>2018-09-02T13:04:28Z</time>
      </trkpt>
      <trkpt lat="40.640200" lon="-5.057883">
        <ele>3332.0</ele>
        <time>2018-09-02T13:04:29Z</time>
      </trkpt>
      <trkpt lat="40.640300" lon="-5.057683">
        <ele>3329.0</ele>
        <time>2018-09-02T13:04:30Z</time>
      </trkpt>
      <trkpt lat="40.640383" lon="-5.057483">
        <ele>3326.0</ele>
        <time>2018-09-02T13:04:31Z</time>
      </trkpt>
      <trkpt lat="40.640483" lon="-5.057283">
        <ele>3323.0</ele>
        <time>2018-09-02T13:04:32Z</time>
      </trkpt>
      <trkpt lat="40.640583" lon="-5.057100">
        <ele>3320.0</ele>
        <time>2018-09-02T13:04:33Z</time>
      </trkpt>
      <trkpt lat="40.640667" lon="-5.056900">
        <ele>3317.0</ele>
        <time>2018-09-02T13:04:34Z</time>
      </trkpt>
      <trkpt lat="40.640767" lon="-5.056700">
        <ele>3314.0</ele>
        <time>2018-09-02T13:04:35Z</time>
      </trkpt>
      <trkpt lat="40.640850" lon="-5.056500">
        <ele>3310.0</ele>
        <time>2018-09-02T13:04:36Z</time>
      </trkpt>
      <trkpt lat="40.640950" lon="-5.056300">
        <ele>3308.0</ele>
        <time>2018-09-02T13:04:37Z</time>
      </trkpt>
      <trkpt lat="40.641033" lon="-5.056117">
        <ele>3305.0</ele>
        <time>2018-09-02T13:04:38Z</time>
      </trkpt>
      <trkpt lat="40.641117" lon="-5.055917">
        <ele>3303.0</ele>
        <time>2018-09-02T13:04:39Z</time>
      </trkpt>
      <trkpt lat="40.641200" lon="-5.055733">
        <ele>3300.0</ele>
        <time>2018-09-02T13:04:40Z</time>
      </trkpt>
      <trkpt lat="40.641300" lon="-5.055533">
        <ele>3298.0</ele>
        <time>2018-09-02T13:04:41Z</time>
      </trkpt>
      <trkpt lat="40.641383" lon="-5.055333">
        <ele>3295.0</ele>
        <time>2018-09-02T13:04:42Z</time>
      </trkpt>
      <trkpt lat="40.641467" lon="-5.055133">
        <ele>3292.0</ele>
        <time>2018-09-02T13:04:43Z</time>
      </trkpt>
      <trkpt lat="40.641567" lon="-5.054933">
        <ele>3290.0</ele>
        <time>2018-09-02T13:04:44Z</time>
      </trkpt>
      <trkpt lat="40.641667" lon="-5.054750">
        <ele>3288.0</ele>
        <time>2018-09-02T13:04:45Z</time>
      </trkpt>
      <trkpt lat="40.641750" lon="-5.054550">
        <ele>3287.0</ele>
        <time>2018-09-02T13:04:46Z</time>
      </trkpt>
      <trkpt lat="40.641850" lon="-5.054367">
        <ele>3285.0</ele>
        <time>2018-09-02T13:04:47Z</time>
      </trkpt>
      <trkpt lat="40.641967" lon="-5.054183">
        <ele>3283.0</ele>
        <time>2018-09-02T13:04:48Z</time>
      </trkpt>
      <trkpt lat="40.642050" lon="-5.054000">
        <ele>3281.0</ele>
        <time>2018-09-02T13:04:49Z</time>
      </trkpt>
      <trkpt lat="40.642150" lon="-5.053817">
        <ele>3279.0</ele>
        <time>2018-09-02T13:04:50Z</time>
      </trkpt>
      <trkpt lat="40.642233" lon="-5.053633">
        <ele>3277.0</ele>
        <time>2018-09-02T13:04:51Z</time>
      </trkpt>
      <trkpt lat="40.642333" lon="-5.053450">
        <ele>3274.0</ele>
        <time>2018-09-02T13:04:52Z</time>
      </trkpt>
      <trkpt lat="40.642433" lon="-5.053233">
        <ele>3271.0</ele>
        <time>2018-09-02T13:04:53Z</time>
      </trkpt>
      <trkpt lat="40.642533" lon="-5.053017">
        <ele>3267.0</ele>
        <time>2018-09-02T13:04:54Z</time>
      </trkpt>
      <trkpt lat="40.642633" lon="-5.052833">
        <ele>3265.0</ele>
        <time>2018-09-02T13:04:55Z</time>
      </trkpt>
      <trkpt lat="40.642750" lon="-5.052650">
        <ele>3263.0</ele>
        <time>2018-09-02T13:04:56Z</time>
      </trkpt>
      <trkpt lat="40.642850" lon="-5.052483">
        <ele>3261.0</ele>
        <time>2018-09-02T13:04:57Z</time>
      </trkpt>
      <trkpt lat="40.642950" lon="-5.052317">
        <ele>3258.0</ele>
        <time>2018-09-02T13:04:58Z</time>
      </trkpt>
      <trkpt lat="40.643050" lon="-5.052133">
        <ele>3254.0</ele>
        <time>2018-09-02T13:04:59Z</time>
      </trkpt>
      <trkpt lat="40.643150" lon="-5.051933">
        <ele>3250.0</ele>
        <time>2018-09-02T13:05:00Z</time>
      </trkpt>
      <trkpt lat="40.643250" lon="-5.051733">
        <ele>3245.0</ele>
        <time>2018-09-02T13:05:01Z</time>
      </trkpt>
      <trkpt lat="40.643350" lon="-5.051550">
        <ele>3241.0</ele>
        <time>2018-09-02T13:05:02Z</time>
      </trkpt>
      <trkpt lat="40.643433" lon="-5.051383">
        <ele>3237.0</ele>
        <time>2018-09-02T13:05:03Z</time>
      </trkpt>
      <trkpt lat="40.643517" lon="-5.051217">
        <ele>3234.0</ele>
        <time>2018-09-02T13:05:04Z</time>
      </trkpt>
      <trkpt lat="40.643600" lon="-5.051050">
        <ele>3230.0</ele>
        <time>2018-09-02T13:05:05Z</time>
      </trkpt>
      <trkpt lat="40.643683" lon="-5.050867">
        <ele>3224.0</ele>
        <time>2018-09-02T13:05:06Z</time>
      </trkpt>
      <trkpt lat="40.643767" lon="-5.050667">
        <ele>3219.0</ele>
        <time>2018-09-02T13:05:07Z</time>
      </trkpt>
      <trkpt lat="40.643850" lon="-5.050450">
        <ele>3213.0</ele>
        <time>2018-09-02T13:05:08Z</time>
      </trkpt>
      <trkpt lat="40.643933" lon="-5.050250">
        <ele>3208.0</ele>
        <time>2018-09-02T13:05:09Z</time>
      </trkpt>
      <trkpt lat="40.644017" lon="-5.050050">
        <ele>3203.0</ele>
        <time>2018-09-02T13:05:10Z</time>
      </trkpt>
      <trkpt lat="40.644117" lon="-5.049850">
        <ele>3200.0</ele>
        <time>2018-09-02T13:05:11Z</time>
      </trkpt>
      <trkpt lat="40.644200" lon="-5.049667">
        <ele>3197.0</ele>
        <time>2018-09-02T13:05:12Z</time>
      </trkpt>
      <trkpt lat="40.644283" lon="-5.049450">
        <ele>3193.0</ele>
        <time>2018-09-02T13:05:13Z</time>
      </trkpt>
      <trkpt lat="40.644350" lon="-5.049250">
        <ele>3189.0</ele>
        <time>2018-09-02T13:05:14Z</time>
      </trkpt>
      <trkpt lat="40.644433" lon="-5.049033">
        <ele>3185.0</ele>
        <time>2018-09-02T13:05:15Z</time>
      </trkpt>
      <trkpt lat="40.644517" lon="-5.048800">
        <ele>3181.0</ele>
        <time>2018-09-02T13:05:16Z</time>
      </trkpt>
      <trkpt lat="40.644617" lon="-5.048583">
        <ele>3177.0</ele>
        <time>2018-09-02T13:05:17Z</time>
      </trkpt>
      <trkpt lat="40.644700" lon="-5.048383">
        <ele>3173.0</ele>
        <time>2018-09-02T13:05:18Z</time>
      </trkpt>
      <trkpt lat="40.644783" lon="-5.048183">
        <ele>3169.0</ele>
        <time>2018-09-02T13:05:19Z</time>
      </trkpt>
      <trkpt lat="40.644850" lon="-5.047967">
        <ele>3165.0</ele>
        <time>2018-09-02T13:05:20Z</time>
      </trkpt>
      <trkpt lat="40.644933" lon="-5.047783">
        <ele>3161.0</ele>
        <time>2018-09-02T13:05:21Z</time>
      </trkpt>
      <trkpt lat="40.645000" lon="-5.047583">
        <ele>3157.0</ele>
        <time>2018-09-02T13:05:22Z</time>
      </trkpt>
      <trkpt lat="40.645083" lon="-5.047383">
        <ele>3153.0</ele>
        <time>2018-09-02T13:05:23Z</time>
      </trkpt>
      <trkpt lat="40.645183" lon="-5.047183">
        <ele>3149.0</ele>
        <time>2018-09-02T13:05:24Z</time>
      </trkpt>
      <trkpt lat="40.645267" lon="-5.046983">
        <ele>3144.0</ele>
        <time>2018-09-02T13:05:25Z</time>
      </trkpt>
      <trkpt lat="40.645367" lon="-5.046783">
        <ele>3141.0</ele>
        <time>2018-09-02T13:05:26Z</time>
      </trkpt>
      <trkpt lat="40.645467" lon="-5.046600">
        <ele>3138.0</ele>
        <time>2018-09-02T13:05:27Z</time>
      </trkpt>
      <trkpt lat="40.645550" lon="-5.046433">
        <ele>3135.0</ele>
        <time>2018-09-02T13:05:28Z</time>
      </trkpt>
      <trkpt lat="40.645633" lon="-5.046267">
        <ele>3132.0</ele>
        <time>2018-09-02T13:05:29Z</time>
      </trkpt>
      <trkpt lat="40.645733" lon="-5.046083">
        <ele>3128.0</ele>
        <time>2018-09-02T13:05:30Z</time>
      </trkpt>
      <trkpt lat="40.645817" lon="-5.045883">
        <ele>3124.0</ele>
        <time>2018-09-02T13:05:31Z</time>
      </trkpt>
      <trkpt lat="40.645917" lon="-5.045683">
        <ele>3119.0</ele>
        <time>2018-09-02T13:05:32Z</time>
      </trkpt>
      <trkpt lat="40.646000" lon="-5.045483">
        <ele>3116.0</ele>
        <time>2018-09-02T13:05:33Z</time>
      </trkpt>
      <trkpt lat="40.646100" lon="-5.045317">
        <ele>3114.0</ele>
        <time>2018-09-02T13:05:34Z</time>
      </trkpt>
      <trkpt lat="40.646217" lon="-5.045150">
        <ele>3111.0</ele>
        <time>2018-09-02T13:05:35Z</time>
      </trkpt>
      <trkpt lat="40.646317" lon="-5.045000">
        <ele>3109.0</ele>
        <time>2018-09-02T13:05:36Z</time>
      </trkpt>
      <trkpt lat="40.646400" lon="-5.044817">
        <ele>3106.0</ele>
        <time>2018-09-02T13:05:37Z</time>
      </trkpt>
      <trkpt lat="40.646483" lon="-5.044633">
        <ele>3102.0</ele>
        <time>2018-09-02T13:05:38Z</time>
      </trkpt>
      <trkpt lat="40.646567" lon="-5.044450">
        <ele>3098.0</ele>
        <time>2018-09-02T13:05:39Z</time>
      </trkpt>
      <trkpt lat="40.646650" lon="-5.044267">
        <ele>3095.0</ele>
        <time>2018-09-02T13:05:40Z</time>
      </trkpt>
      <trkpt lat="40.646733" lon="-5.044083">
        <ele>3091.0</ele>
        <time>2018-09-02T13:05:41Z</time>
      </trkpt>
      <trkpt lat="40.646833" lon="-5.043900">
        <ele>3088.0</ele>
        <time>2018-09-02T13:05:42Z</time>
      </trkpt>
      <trkpt lat="40.646967" lon="-5.043517">
        <ele>3081.0</ele>
        <time>2018-09-02T13:05:44Z</time>
      </trkpt>
      <trkpt lat="40.647050" lon="-5.043333">
        <ele>3077.0</ele>
        <time>2018-09-02T13:05:45Z</time>
      </trkpt>
      <trkpt lat="40.647133" lon="-5.043150">
        <ele>3073.0</ele>
        <time>2018-09-02T13:05:46Z</time>
      </trkpt>
      <trkpt lat="40.647233" lon="-5.042950">
        <ele>3068.0</ele>
        <time>2018-09-02T13:05:47Z</time>
      </trkpt>
      <trkpt lat="40.647333" lon="-5.042750">
        <ele>3063.0</ele>
        <time>2018-09-02T13:05:48Z</time>
      </trkpt>
      <trkpt lat="40.647400" lon="-5.042550">
        <ele>3059.0</ele>
        <time>2018-09-02T13:05:49Z</time>
      </trkpt>
      <trkpt lat="40.647450" lon="-5.042367">
        <ele>3056.0</ele>
        <time>2018-09-02T13:05:50Z</time>
      </trkpt>
      <trkpt lat="40.647500" lon="-5.042167">
        <ele>3053.0</ele>
        <time>2018-09-02T13:05:51Z</time>
      </trkpt>
      <trkpt lat="40.647533" lon="-5.041983">
        <ele>3051.0</ele>
        <time>2018-09-02T13:05:52Z</time>
      </trkpt>
      <trkpt lat="40.647567" lon="-5.041800">
        <ele>3048.0</ele>
        <time>2018-09-02T13:05:53Z</time>
      </trkpt>
      <trkpt lat="40.647600" lon="-5.041583">
        <ele>3045.0</ele>
        <time>2018-09-02T13:05:54Z</time>
      </trkpt>
      <trkpt lat="40.647633" lon="-5.041383">
        <ele>3042.0</ele>
        <time>2018-09-02T13:05:55Z</time>
      </trkpt>
      <trkpt lat="40.647667" lon="-5.041200">
        <ele>3039.0</ele>
        <time>2018-09-02T13:05:56Z</time>
      </trkpt>
      <trkpt lat="40.647700" lon="-5.041017">
        <ele>3036.0</ele>
        <time>2018-09-02T13:05:57Z</time>
      </trkpt>
      <trkpt lat="40.647733" lon="-5.040833">
        <ele>3033.0</ele>
        <time>2018-09-02T13:05:58Z</time>
      </trkpt>
      <trkpt lat="40.647767" lon="-5.040667">
        <ele>3031.0</ele>
        <time>2018-09-02T13:05:59Z</time>
      </trkpt>
      <trkpt lat="40.647783" lon="-5.040500">
        <ele>3028.0</ele>
        <time>2018-09-02T13:06:00Z</time>
      </trkpt>
      <trkpt lat="40.647800" lon="-5.040333">
        <ele>3026.0</ele>
        <time>2018-09-02T13:06:01Z</time>
      </trkpt>
      <trkpt lat="40.647833" lon="-5.040167">
        <ele>3024.0</ele>
        <time>2018-09-02T13:06:02Z</time>
      </trkpt>
      <trkpt lat="40.647850" lon="-5.040017">
        <ele>3022.0</ele>
        <time>2018-09-02T13:06:03Z</time>
      </trkpt>
      <trkpt lat="40.647867" lon="-5.039850">
        <ele>3019.0</ele>
        <time>2018-09-02T13:06:04Z</time>
      </trkpt>
      <trkpt lat="40.647883" lon="-5.039667">
        <ele>3016.0</ele>
        <time>2018-09-02T13:06:05Z</time>
      </trkpt>
      <trkpt lat="40.647900" lon="-5.039483">
        <ele>3014.0</ele>
        <time>2018-09-02T13:06:06Z</time>
      </trkpt>
      <trkpt lat="40.647933" lon="-5.039300">
        <ele>3011.0</ele>
        <time>2018-09-02T13:06:07Z</time>
      </trkpt>
      <trkpt lat="40.647950" lon="-5.039117">
        <ele>3009.0</ele>
        <time>2018-09-02T13:06:08Z</time>
      </trkpt>
      <trkpt lat="40.647983" lon="-5.038950">
        <ele>3008.0</ele>
        <time>2018-09-02T13:06:09Z</time>
      </trkpt>
      <trkpt lat="40.648000" lon="-5.038783">
        <ele>3006.0</ele>
        <time>2018-09-02T13:06:10Z</time>
      </trkpt>
      <trkpt lat="40.648033" lon="-5.038617">
        <ele>3004.0</ele>
        <time>2018-09-02T13:06:11Z</time>
      </trkpt>
      <trkpt lat="40.648050" lon="-5.038433">
        <ele>3002.0</ele>
        <time>2018-09-02T13:06:12Z</time>
      </trkpt>
      <trkpt lat="40.648067" lon="-5.038250">
        <ele>3000.0</ele>
        <time>2018-09-02T13:06:13Z</time>
      </trkpt>
      <trkpt lat="40.648083" lon="-5.038083">
        <ele>2998.0</ele>
        <time>2018-09-02T13:06:14Z</time>
      </trkpt>
      <trkpt lat="40.648133" lon="-5.037733">
        <ele>2992.0</ele>
        <time>2018-09-02T13:06:16Z</time>
      </trkpt>
      <trkpt lat="40.648167" lon="-5.037550">
        <ele>2989.0</ele>
        <time>2018-09-02T13:06:17Z</time>
      </trkpt>
      <trkpt lat="40.648200" lon="-5.037367">
        <ele>2986.0</ele>
        <time>2018-09-02T13:06:18Z</time>
      </trkpt>
      <trkpt lat="40.648233" lon="-5.037183">
        <ele>2983.0</ele>
        <time>2018-09-02T13:06:19Z</time>
      </trkpt>
      <trkpt lat="40.648267" lon="-5.037000">
        <ele>2981.0</ele>
        <time>2018-09-02T13:06:20Z</time>
      </trkpt>
      <trkpt lat="40.648300" lon="-5.036833">
        <ele>2978.0</ele>
        <time>2018-09-02T13:06:21Z</time>
      </trkpt>
      <trkpt lat="40.648350" lon="-5.036650">
        <ele>2976.0</ele>
        <time>2018-09-02T13:06:22Z</time>
      </trkpt>
      <trkpt lat="40.648383" lon="-5.036483">
        <ele>2974.0</ele>
        <time>2018-09-02T13:06:23Z</time>
      </trkpt>
      <trkpt lat="40.648433" lon="-5.036317">
        <ele>2971.0</ele>
        <time>2018-09-02T13:06:24Z</time>
      </trkpt>
      <trkpt lat="40.648483" lon="-5.036117">
        <ele>2968.0</ele>
        <time>2018-09-02T13:06:25Z</time>
      </trkpt>
      <trkpt lat="40.648533" lon="-5.035933">
        <ele>2965.0</ele>
        <time>2018-09-02T13:06:26Z</time>
      </trkpt>
      <trkpt lat="40.648633" lon="-5.035567">
        <ele>2959.0</ele>
        <time>2018-09-02T13:06:28Z</time>
      </trkpt>
      <trkpt lat="40.648683" lon="-5.035400">
        <ele>2956.0</ele>
        <time>2018-09-02T13:06:29Z</time>
      </trkpt>
      <trkpt lat="40.648750" lon="-5.035217">
        <ele>2953.0</ele>
        <time>2018-09-02T13:06:30Z</time>
      </trkpt>
      <trkpt lat="40.648817" lon="-5.035050">
        <ele>2949.0</ele>
        <time>2018-09-02T13:06:31Z</time>
      </trkpt>
      <trkpt lat="40.648867" lon="-5.034867">
        <ele>2946.0</ele>
        <time>2018-09-02T13:06:32Z</time>
      </trkpt>
      <trkpt lat="40.648917" lon="-5.034683">
        <ele>2943.0</ele>
        <time>2018-09-02T13:06:33Z</time>
      </trkpt>
      <trkpt lat="40.648967" lon="-5.034500">
        <ele>2939.0</ele>
        <time>2018-09-02T13:06:34Z</time>
      </trkpt>
      <trkpt lat="40.649033" lon="-5.034333">
        <ele>2936.0</ele>
        <time>2018-09-02T13:06:35Z</time>
      </trkpt>
      <trkpt lat="40.649083" lon="-5.034150">
        <ele>2933.0</ele>
        <time>2018-09-02T13:06:36Z</time>
      </trkpt>
      <trkpt lat="40.649150" lon="-5.033983">
        <ele>2930.0</ele>
        <time>2018-09-02T13:06:37Z</time>
      </trkpt>
      <trkpt lat="40.649183" lon="-5.033817">
        <ele>2927.0</ele>
        <time>2018-09-02T13:06:38Z</time>
      </trkpt>
      <trkpt lat="40.649233" lon="-5.033650">
        <ele>2924.0</ele>
        <time>2018-09-02T13:06:39Z</time>
      </trkpt>
      <trkpt lat="40.649283" lon="-5.033483">
        <ele>2921.0</ele>
        <time>2018-09-02T13:06:40Z</time>
      </trkpt>
      <trkpt lat="40.649333" lon="-5.033300">
        <ele>2917.0</ele>
        <time>2018-09-02T13:06:41Z</time>
      </trkpt>
      <trkpt lat="40.649367" lon="-5.033117">
        <ele>2913.0</ele>
        <time>2018-09-02T13:06:42Z</time>
      </trkpt>
      <trkpt lat="40.649400" lon="-5.032950">
        <ele>2910.0</ele>
        <time>2018-09-02T13:06:43Z</time>
      </trkpt>
      <trkpt lat="40.649433" lon="-5.032767">
        <ele>2907.0</ele>
        <time>2018-09-02T13:06:44Z</time>
      </trkpt>
      <trkpt lat="40.649467" lon="-5.032600">
        <ele>2904.0</ele>
        <time>2018-09-02T13:06:45Z</time>
      </trkpt>
      <trkpt lat="40.649500" lon="-5.032433">
        <ele>2901.0</ele>
        <time>2018-09-02T13:06:46Z</time>
      </trkpt>
      <trkpt lat="40.649550" lon="-5.032267">
        <ele>2898.0</ele>
        <time>2018-09-02T13:06:47Z</time>
      </trkpt>
      <trkpt lat="40.649583" lon="-5.032083">
        <ele>2895.0</ele>
        <time>2018-09-02T13:06:48Z</time>
      </trkpt>
      <trkpt lat="40.649633" lon="-5.031900">
        <ele>2893.0</ele>
        <time>2018-09-02T13:06:49Z</time>
      </trkpt>
      <trkpt lat="40.649683" lon="-5.031733">
        <ele>2890.0</ele>
        <time>2018-09-02T13:06:50Z</time>
      </trkpt>
      <trkpt lat="40.649733" lon="-5.031567">
        <ele>2888.0</ele>
        <time>2018-09-02T13:06:51Z</time>
      </trkpt>
      <trkpt lat="40.649783" lon="-5.031417">
        <ele>2886.0</ele>
        <time>2018-09-02T13:06:52Z</time>
      </trkpt>
      <trkpt lat="40.649833" lon="-5.031250">
        <ele>2883.0</ele>
        <time>2018-09-02T13:06:53Z</time>
      </trkpt>
      <trkpt lat="40.649883" lon="-5.031100">
        <ele>2880.0</ele>
        <time>2018-09-02T13:06:54Z</time>
      </trkpt>
      <trkpt lat="40.649933" lon="-5.030917">
        <ele>2877.0</ele>
        <time>2018-09-02T13:06:55Z</time>
      </trkpt>
      <trkpt lat="40.650000" lon="-5.030750">
        <ele>2874.0</ele>
        <time>2018-09-02T13:06:56Z</time>
      </trkpt>
      <trkpt lat="40.650067" lon="-5.030567">
        <ele>2870.0</ele>
        <time>2018-09-02T13:06:57Z</time>
      </trkpt>
      <trkpt lat="40.650117" lon="-5.030417">
        <ele>2867.0</ele>
        <time>2018-09-02T13:06:58Z</time>
      </trkpt>
      <trkpt lat="40.650167" lon="-5.030250">
        <ele>2864.0</ele>
        <time>2018-09-02T13:06:59Z</time>
      </trkpt>
      <trkpt lat="40.650200" lon="-5.030083">
        <ele>2861.0</ele>
        <time>2018-09-02T13:07:00Z</time>
      </trkpt>
      <trkpt lat="40.650233" lon="-5.029900">
        <ele>2858.0</ele>
        <time>2018-09-02T13:07:01Z</time>
      </trkpt>
      <trkpt lat="40.650283" lon="-5.029733">
        <ele>2855.0</ele>
        <time>2018-09-02T13:07:02Z</time>
      </trkpt>
      <trkpt lat="40.650333" lon="-5.029550">
        <ele>2851.0</ele>
        <time>2018-09-02T13:07:03Z</time>
      </trkpt>
      <trkpt lat="40.650383" lon="-5.029383">
        <ele>2847.0</ele>
        <time>2018-09-02T13:07:04Z</time>
      </trkpt>
      <trkpt lat="40.650450" lon="-5.029217">
        <ele>2844.0</ele>
        <time>2018-09-02T13:07:05Z</time>
      </trkpt>
      <trkpt lat="40.650483" lon="-5.029050">
        <ele>2841.0</ele>
        <time>2018-09-02T13:07:06Z</time>
      </trkpt>
      <trkpt lat="40.650533" lon="-5.028900">
        <ele>2837.0</ele>
        <time>2018-09-02T13:07:07Z</time>
      </trkpt>
      <trkpt lat="40.650617" lon="-5.028567">
        <ele>2830.0</ele>
        <time>2018-09-02T13:07:09Z</time>
      </trkpt>
      <trkpt lat="40.650650" lon="-5.028383">
        <ele>2825.0</ele>
        <time>2018-09-02T13:07:10Z</time>
      </trkpt>
      <trkpt lat="40.650683" lon="-5.028200">
        <ele>2821.0</ele>
        <time>2018-09-02T13:07:11Z</time>
      </trkpt>
      <trkpt lat="40.650700" lon="-5.028017">
        <ele>2818.0</ele>
        <time>2018-09-02T13:07:12Z</time>
      </trkpt>
      <trkpt lat="40.650783" lon="-5.027683">
        <ele>2813.0</ele>
        <time>2018-09-02T13:07:14Z</time>
      </trkpt>
      <trkpt lat="40.650817" lon="-5.027517">
        <ele>2809.0</ele>
        <time>2018-09-02T13:07:15Z</time>
      </trkpt>
      <trkpt lat="40.650850" lon="-5.027367">
        <ele>2805.0</ele>
        <time>2018-09-02T13:07:16Z</time>
      </trkpt>
      <trkpt lat="40.650883" lon="-5.027200">
        <ele>2800.0</ele>
        <time>2018-09-02T13:07:17Z</time>
      </trkpt>
      <trkpt lat="40.650917" lon="-5.027017">
        <ele>2796.0</ele>
        <time>2018-09-02T13:07:18Z</time>
      </trkpt>
      <trkpt lat="40.650967" lon="-5.026850">
        <ele>2792.0</ele>
        <time>2018-09-02T13:07:19Z</time>
      </trkpt>
      <trkpt lat="40.651017" lon="-5.026683">
        <ele>2787.0</ele>
        <time>2018-09-02T13:07:20Z</time>
      </trkpt>
      <trkpt lat="40.651067" lon="-5.026517">
        <ele>2783.0</ele>
        <time>2018-09-02T13:07:21Z</time>
      </trkpt>
      <trkpt lat="40.651100" lon="-5.026350">
        <ele>2778.0</ele>
        <time>2018-09-02T13:07:22Z</time>
      </trkpt>
      <trkpt lat="40.651150" lon="-5.026183">
        <ele>2774.0</ele>
        <time>2018-09-02T13:07:23Z</time>
      </trkpt>
      <trkpt lat="40.651200" lon="-5.026000">
        <ele>2770.0</ele>
        <time>2018-09-02T13:07:24Z</time>
      </trkpt>
      <trkpt lat="40.651233" lon="-5.025850">
        <ele>2766.0</ele>
        <time>2018-09-02T13:07:25Z</time>
      </trkpt>
      <trkpt lat="40.651283" lon="-5.025683">
        <ele>2762.0</ele>
        <time>2018-09-02T13:07:26Z</time>
      </trkpt>
      <trkpt lat="40.651333" lon="-5.025517">
        <ele>2758.0</ele>
        <time>2018-09-02T13:07:27Z</time>
      </trkpt>
      <trkpt lat="40.651367" lon="-5.025350">
        <ele>2754.0</ele>
        <time>2018-09-02T13:07:28Z</time>
      </trkpt>
      <trkpt lat="40.651417" lon="-5.025183">
        <ele>2750.0</ele>
        <time>2018-09-02T13:07:29Z</time>
      </trkpt>
      <trkpt lat="40.651467" lon="-5.025017">
        <ele>2745.0</ele>
        <time>2018-09-02T13:07:30Z</time>
      </trkpt>
      <trkpt lat="40.651517" lon="-5.024867">
        <ele>2741.0</ele>
        <time>2018-09-02T13:07:31Z</time>
      </trkpt>
      <trkpt lat="40.651567" lon="-5.024700">
        <ele>2736.0</ele>
        <time>2018-09-02T13:07:32Z</time>
      </trkpt>
      <trkpt lat="40.651617" lon="-5.024533">
        <ele>2731.0</ele>
        <time>2018-09-02T13:07:33Z</time>
      </trkpt>
      <trkpt lat="40.651683" lon="-5.024350">
        <ele>2727.0</ele>
        <time>2018-09-02T13:07:34Z</time>
      </trkpt>
      <trkpt lat="40.651750" lon="-5.024167">
        <ele>2723.0</ele>
        <time>2018-09-02T13:07:35Z</time>
      </trkpt>
      <trkpt lat="40.651883" lon="-5.023850">
        <ele>2715.0</ele>
        <time>2018-09-02T13:07:37Z</time>
      </trkpt>
      <trkpt lat="40.652017" lon="-5.023517">
        <ele>2708.0</ele>
        <time>2018-09-02T13:07:39Z</time>
      </trkpt>
      <trkpt lat="40.652083" lon="-5.023333">
        <ele>2705.0</ele>
        <time>2018-09-02T13:07:40Z</time>
      </trkpt>
      <trkpt lat="40.652150" lon="-5.023167">
        <ele>2702.0</ele>
        <time>2018-09-02T13:07:41Z</time>
      </trkpt>
      <trkpt lat="40.652200" lon="-5.023000">
        <ele>2699.0</ele>
        <time>2018-09-02T13:07:42Z</time>
      </trkpt>
      <trkpt lat="40.652267" lon="-5.022833">
        <ele>2695.0</ele>
        <time>2018-09-02T13:07:43Z</time>
      </trkpt>
      <trkpt lat="40.652350" lon="-5.022650">
        <ele>2692.0</ele>
        <time>2018-09-02T13:07:44Z</time>
      </trkpt>
      <trkpt lat="40.652417" lon="-5.022483">
        <ele>2689.0</ele>
        <time>2018-09-02T13:07:45Z</time>
      </trkpt>
      <trkpt lat="40.652483" lon="-5.022300">
        <ele>2687.0</ele>
        <time>2018-09-02T13:07:46Z</time>
      </trkpt>
      <trkpt lat="40.652550" lon="-5.022133">
        <ele>2685.0</ele>
        <time>2018-09-02T13:07:47Z</time>
      </trkpt>
      <trkpt lat="40.652617" lon="-5.021967">
        <ele>2682.0</ele>
        <time>2018-09-02T13:07:48Z</time>
      </trkpt>
      <trkpt lat="40.652667" lon="-5.021800">
        <ele>2680.0</ele>
        <time>2018-09-02T13:07:49Z</time>
      </trkpt>
      <trkpt lat="40.652717" lon="-5.021617">
        <ele>2677.0</ele>
        <time>2018-09-02T13:07:50Z</time>
      </trkpt>
      <trkpt lat="40.652783" lon="-5.021450">
        <ele>2674.0</ele>
        <time>2018-09-02T13:07:51Z</time>
      </trkpt>
      <trkpt lat="40.652850" lon="-5.021267">
        <ele>2672.0</ele>
        <time>2018-09-02T13:07:52Z</time>
      </trkpt>
      <trkpt lat="40.652900" lon="-5.021100">
        <ele>2669.0</ele>
        <time>2018-09-02T13:07:53Z</time>
      </trkpt>
      <trkpt lat="40.652950" lon="-5.020950">
        <ele>2668.0</ele>
        <time>2018-09-02T13:07:54Z</time>
      </trkpt>
      <trkpt lat="40.653000" lon="-5.020783">
        <ele>2666.0</ele>
        <time>2018-09-02T13:07:55Z</time>
      </trkpt>
      <trkpt lat="40.653050" lon="-5.020633">
        <ele>2664.0</ele>
        <time>2018-09-02T13:07:56Z</time>
      </trkpt>
      <trkpt lat="40.653117" lon="-5.020450">
        <ele>2661.0</ele>
        <time>2018-09-02T13:07:57Z</time>
      </trkpt>
      <trkpt lat="40.653167" lon="-5.020283">
        <ele>2658.0</ele>
        <time>2018-09-02T13:07:58Z</time>
      </trkpt>
      <trkpt lat="40.653217" lon="-5.020117">
        <ele>2655.0</ele>
        <time>2018-09-02T13:07:59Z</time>
      </trkpt>
      <trkpt lat="40.653283" lon="-5.019950">
        <ele>2653.0</ele>
        <time>2018-09-02T13:08:00Z</time>
      </trkpt>
      <trkpt lat="40.653333" lon="-5.019783">
        <ele>2651.0</ele>
        <time>2018-09-02T13:08:01Z</time>
      </trkpt>
      <trkpt lat="40.653400" lon="-5.019617">
        <ele>2649.0</ele>
        <time>2018-09-02T13:08:02Z</time>
      </trkpt>
      <trkpt lat="40.653467" lon="-5.019433">
        <ele>2647.0</ele>
        <time>2018-09-02T13:08:03Z</time>
      </trkpt>
      <trkpt lat="40.653550" lon="-5.019267">
        <ele>2645.0</ele>
        <time>2018-09-02T13:08:04Z</time>
      </trkpt>
      <trkpt lat="40.653617" lon="-5.019100">
        <ele>2643.0</ele>
        <time>2018-09-02T13:08:05Z</time>
      </trkpt>
      <trkpt lat="40.653700" lon="-5.018950">
        <ele>2641.0</ele>
        <time>2018-09-02T13:08:06Z</time>
      </trkpt>
      <trkpt lat="40.653767" lon="-5.018783">
        <ele>2639.0</ele>
        <time>2018-09-02T13:08:07Z</time>
      </trkpt>
      <trkpt lat="40.653817" lon="-5.018633">
        <ele>2637.0</ele>
        <time>2018-09-02T13:08:08Z</time>
      </trkpt>
      <trkpt lat="40.653883" lon="-5.018483">
        <ele>2635.0</ele>
        <time>2018-09-02T13:08:09Z</time>
      </trkpt>
      <trkpt lat="40.653950" lon="-5.018333">
        <ele>2633.0</ele>
        <time>2018-09-02T13:08:10Z</time>
      </trkpt>
      <trkpt lat="40.654000" lon="-5.018183">
        <ele>2631.0</ele>
        <time>2018-09-02T13:08:11Z</time>
      </trkpt>
      <trkpt lat="40.654067" lon="-5.018033">
        <ele>2629.0</ele>
        <time>2018-09-02T13:08:12Z</time>
      </trkpt>
      <trkpt lat="40.654117" lon="-5.017883">
        <ele>2626.0</ele>
        <time>2018-09-02T13:08:13Z</time>
      </trkpt>
      <trkpt lat="40.654183" lon="-5.017717">
        <ele>2623.0</ele>
        <time>2018-09-02T13:08:14Z</time>
      </trkpt>
      <trkpt lat="40.654233" lon="-5.017567">
        <ele>2619.0</ele>
        <time>2018-09-02T13:08:15Z</time>
      </trkpt>
      <trkpt lat="40.654283" lon="-5.017417">
        <ele>2616.0</ele>
        <time>2018-09-02T13:08:16Z</time>
      </trkpt>
      <trkpt lat="40.654350" lon="-5.017267">
        <ele>2612.0</ele>
        <time>2018-09-02T13:08:17Z</time>
      </trkpt>
      <trkpt lat="40.654417" lon="-5.017100">
        <ele>2609.0</ele>
        <time>2018-09-02T13:08:18Z</time>
      </trkpt>
      <trkpt lat="40.654467" lon="-5.016950">
        <ele>2606.0</ele>
        <time>2018-09-02T13:08:19Z</time>
      </trkpt>
      <trkpt lat="40.654533" lon="-5.016800">
        <ele>2603.0</ele>
        <time>2018-09-02T13:08:20Z</time>
      </trkpt>
      <trkpt lat="40.654600" lon="-5.016633">
        <ele>2600.0</ele>
        <time>2018-09-02T13:08:21Z</time>
      </trkpt>
      <trkpt lat="40.654650" lon="-5.016483">
        <ele>2598.0</ele>
        <time>2018-09-02T13:08:22Z</time>
      </trkpt>
      <trkpt lat="40.654717" lon="-5.016333">
        <ele>2596.0</ele>
        <time>2018-09-02T13:08:23Z</time>
      </trkpt>
      <trkpt lat="40.654750" lon="-5.016183">
        <ele>2594.0</ele>
        <time>2018-09-02T13:08:24Z</time>
      </trkpt>
      <trkpt lat="40.654800" lon="-5.016017">
        <ele>2590.0</ele>
        <time>2018-09-02T13:08:25Z</time>
      </trkpt>
      <trkpt lat="40.654833" lon="-5.015850">
        <ele>2588.0</ele>
        <time>2018-09-02T13:08:26Z</time>
      </trkpt>
      <trkpt lat="40.654883" lon="-5.015683">
        <ele>2584.0</ele>
        <time>2018-09-02T13:08:27Z</time>
      </trkpt>
      <trkpt lat="40.654933" lon="-5.015517">
        <ele>2581.0</ele>
        <time>2018-09-02T13:08:28Z</time>
      </trkpt>
      <trkpt lat="40.654967" lon="-5.015367">
        <ele>2578.0</ele>
        <time>2018-09-02T13:08:29Z</time>
      </trkpt>
      <trkpt lat="40.654983" lon="-5.015200">
        <ele>2575.0</ele>
        <time>2018-09-02T13:08:30Z</time>
      </trkpt>
      <trkpt lat="40.654983" lon="-5.015050">
        <ele>2572.0</ele>
        <time>2018-09-02T13:08:31Z</time>
      </trkpt>
      <trkpt lat="40.654983" lon="-5.014917">
        <ele>2569.0</ele>
        <time>2018-09-02T13:08:32Z</time>
      </trkpt>
      <trkpt lat="40.655000" lon="-5.014767">
        <ele>2566.0</ele>
        <time>2018-09-02T13:08:33Z</time>
      </trkpt>
      <trkpt lat="40.654983" lon="-5.014633">
        <ele>2563.0</ele>
        <time>2018-09-02T13:08:34Z</time>
      </trkpt>
      <trkpt lat="40.654983" lon="-5.014483">
        <ele>2560.0</ele>
        <time>2018-09-02T13:08:35Z</time>
      </trkpt>
      <trkpt lat="40.654967" lon="-5.014333">
        <ele>2557.0</ele>
        <time>2018-09-02T13:08:36Z</time>
      </trkpt>
      <trkpt lat="40.654967" lon="-5.014183">
        <ele>2554.0</ele>
        <time>2018-09-02T13:08:37Z</time>
      </trkpt>
      <trkpt lat="40.654933" lon="-5.014033">
        <ele>2551.0</ele>
        <time>2018-09-02T13:08:38Z</time>
      </trkpt>
      <trkpt lat="40.654917" lon="-5.013900">
        <ele>2548.0</ele>
        <time>2018-09-02T13:08:39Z</time>
      </trkpt>
      <trkpt lat="40.654883" lon="-5.013767">
        <ele>2545.0</ele>
        <time>2018-09-02T13:08:40Z</time>
      </trkpt>
      <trkpt lat="40.654850" lon="-5.013650">
        <ele>2542.0</ele>
        <time>2018-09-02T13:08:41Z</time>
      </trkpt>
      <trkpt lat="40.654817" lon="-5.013517">
        <ele>2538.0</ele>
        <time>2018-09-02T13:08:42Z</time>
      </trkpt>
      <trkpt lat="40.654800" lon="-5.013400">
        <ele>2534.0</ele>
        <time>2018-09-02T13:08:43Z</time>
      </trkpt>
      <trkpt lat="40.654783" lon="-5.013267">
        <ele>2530.0</ele>
        <time>2018-09-02T13:08:44Z</time>
      </trkpt>
      <trkpt lat="40.654750" lon="-5.013150">
        <ele>2527.0</ele>
        <time>2018-09-02T13:08:45Z</time>
      </trkpt>
      <trkpt lat="40.654717" lon="-5.013033">
        <ele>2523.0</ele>
        <time>2018-09-02T13:08:46Z</time>
      </trkpt>
      <trkpt lat="40.654683" lon="-5.012900">
        <ele>2518.0</ele>
        <time>2018-09-02T13:08:47Z</time>
      </trkpt>
      <trkpt lat="40.654650" lon="-5.012750">
        <ele>2514.0</ele>
        <time>2018-09-02T13:08:48Z</time>
      </trkpt>
      <trkpt lat="40.654633" lon="-5.012583">
        <ele>2510.0</ele>
        <time>2018-09-02T13:08:49Z</time>
      </trkpt>
      <trkpt lat="40.654600" lon="-5.012433">
        <ele>2507.0</ele>
        <time>2018-09-02T13:08:50Z</time>
      </trkpt>
      <trkpt lat="40.654567" lon="-5.012300">
        <ele>2504.0</ele>
        <time>2018-09-02T13:08:51Z</time>
      </trkpt>
      <trkpt lat="40.654533" lon="-5.012167">
        <ele>2501.0</ele>
        <time>2018-09-02T13:08:52Z</time>
      </trkpt>
      <trkpt lat="40.654483" lon="-5.012017">
        <ele>2498.0</ele>
        <time>2018-09-02T13:08:53Z</time>
      </trkpt>
      <trkpt lat="40.654433" lon="-5.011883">
        <ele>2494.0</ele>
        <time>2018-09-02T13:08:54Z</time>
      </trkpt>
      <trkpt lat="40.654417" lon="-5.011733">
        <ele>2491.0</ele>
        <time>2018-09-02T13:08:55Z</time>
      </trkpt>
      <trkpt lat="40.654383" lon="-5.011600">
        <ele>2487.0</ele>
        <time>2018-09-02T13:08:56Z</time>
      </trkpt>
      <trkpt lat="40.654350" lon="-5.011450">
        <ele>2484.0</ele>
        <time>2018-09-02T13:08:57Z</time>
      </trkpt>
      <trkpt lat="40.654300" lon="-5.011317">
        <ele>2481.0</ele>
        <time>2018-09-02T13:08:58Z</time>
      </trkpt>
      <trkpt lat="40.654250" lon="-5.011167">
        <ele>2478.0</ele>
        <time>2018-09-02T13:08:59Z</time>
      </trkpt>
      <trkpt lat="40.654200" lon="-5.011017">
        <ele>2477.0</ele>
        <time>2018-09-02T13:09:00Z</time>
      </trkpt>
      <trkpt lat="40.654167" lon="-5.010883">
        <ele>2476.0</ele>
        <time>2018-09-02T13:09:01Z</time>
      </trkpt>
      <trkpt lat="40.654133" lon="-5.010750">
        <ele>2474.0</ele>
        <time>2018-09-02T13:09:02Z</time>
      </trkpt>
      <trkpt lat="40.654100" lon="-5.010600">
        <ele>2472.0</ele>
        <time>2018-09-02T13:09:03Z</time>
      </trkpt>
      <trkpt lat="40.654067" lon="-5.010467">
        <ele>2469.0</ele>
        <time>2018-09-02T13:09:04Z</time>
      </trkpt>
      <trkpt lat="40.654017" lon="-5.010300">
        <ele>2465.0</ele>
        <time>2018-09-02T13:09:05Z</time>
      </trkpt>
      <trkpt lat="40.653967" lon="-5.010150">
        <ele>2461.0</ele>
        <time>2018-09-02T13:09:06Z</time>
      </trkpt>
      <trkpt lat="40.653933" lon="-5.010000">
        <ele>2459.0</ele>
        <time>2018-09-02T13:09:07Z</time>
      </trkpt>
      <trkpt lat="40.653883" lon="-5.009883">
        <ele>2457.0</ele>
        <time>2018-09-02T13:09:08Z</time>
      </trkpt>
      <trkpt lat="40.653833" lon="-5.009767">
        <ele>2455.0</ele>
        <time>2018-09-02T13:09:09Z</time>
      </trkpt>
      <trkpt lat="40.653767" lon="-5.009650">
        <ele>2452.0</ele>
        <time>2018-09-02T13:09:10Z</time>
      </trkpt>
      <trkpt lat="40.653700" lon="-5.009533">
        <ele>2450.0</ele>
        <time>2018-09-02T13:09:11Z</time>
      </trkpt>
      <trkpt lat="40.653633" lon="-5.009400">
        <ele>2447.0</ele>
        <time>2018-09-02T13:09:12Z</time>
      </trkpt>
      <trkpt lat="40.653583" lon="-5.009267">
        <ele>2446.0</ele>
        <time>2018-09-02T13:09:13Z</time>
      </trkpt>
      <trkpt lat="40.653533" lon="-5.009133">
        <ele>2444.0</ele>
        <time>2018-09-02T13:09:14Z</time>
      </trkpt>
      <trkpt lat="40.653483" lon="-5.009000">
        <ele>2442.0</ele>
        <time>2018-09-02T13:09:15Z</time>
      </trkpt>
      <trkpt lat="40.653433" lon="-5.008883">
        <ele>2440.0</ele>
        <time>2018-09-02T13:09:16Z</time>
      </trkpt>
      <trkpt lat="40.653367" lon="-5.008750">
        <ele>2437.0</ele>
        <time>2018-09-02T13:09:17Z</time>
      </trkpt>
      <trkpt lat="40.653300" lon="-5.008617">
        <ele>2435.0</ele>
        <time>2018-09-02T13:09:18Z</time>
      </trkpt>
      <trkpt lat="40.653250" lon="-5.008467">
        <ele>2434.0</ele>
        <time>2018-09-02T13:09:19Z</time>
      </trkpt>
      <trkpt lat="40.653200" lon="-5.008317">
        <ele>2432.0</ele>
        <time>2018-09-02T13:09:20Z</time>
      </trkpt>
      <trkpt lat="40.653150" lon="-5.008200">
        <ele>2432.0</ele>
        <time>2018-09-02T13:09:21Z</time>
      </trkpt>
      <trkpt lat="40.653100" lon="-5.008083">
        <ele>2432.0</ele>
        <time>2018-09-02T13:09:22Z</time>
      </trkpt>
      <trkpt lat="40.653033" lon="-5.007967">
        <ele>2432.0</ele>
        <time>2018-09-02T13:09:23Z</time>
      </trkpt>
      <trkpt lat="40.652983" lon="-5.007833">
        <ele>2432.0</ele>
        <time>2018-09-02T13:09:24Z</time>
      </trkpt>
      <trkpt lat="40.652917" lon="-5.007717">
        <ele>2431.0</ele>
        <time>2018-09-02T13:09:25Z</time>
      </trkpt>
      <trkpt lat="40.652867" lon="-5.007600">
        <ele>2431.0</ele>
        <time>2018-09-02T13:09:26Z</time>
      </trkpt>
      <trkpt lat="40.652817" lon="-5.007500">
        <ele>2430.0</ele>
        <time>2018-09-02T13:09:27Z</time>
      </trkpt>
      <trkpt lat="40.652767" lon="-5.007400">
        <ele>2430.0</ele>
        <time>2018-09-02T13:09:28Z</time>
      </trkpt>
      <trkpt lat="40.652700" lon="-5.007283">
        <ele>2430.0</ele>
        <time>2018-09-02T13:09:29Z</time>
      </trkpt>
      <trkpt lat="40.652650" lon="-5.007183">
        <ele>2429.0</ele>
        <time>2018-09-02T13:09:30Z</time>
      </trkpt>
      <trkpt lat="40.652583" lon="-5.007100">
        <ele>2429.0</ele>
        <time>2018-09-02T13:09:31Z</time>
      </trkpt>
      <trkpt lat="40.652517" lon="-5.007017">
        <ele>2430.0</ele>
        <time>2018-09-02T13:09:32Z</time>
      </trkpt>
      <trkpt lat="40.652450" lon="-5.006933">
        <ele>2430.0</ele>
        <time>2018-09-02T13:09:33Z</time>
      </trkpt>
      <trkpt lat="40.652400" lon="-5.006850">
        <ele>2430.0</ele>
        <time>2018-09-02T13:09:34Z</time>
      </trkpt>
      <trkpt lat="40.652333" lon="-5.006783">
        <ele>2430.0</ele>
        <time>2018-09-02T13:09:35Z</time>
      </trkpt>
      <trkpt lat="40.652283" lon="-5.006700">
        <ele>2429.0</ele>
        <time>2018-09-02T13:09:36Z</time>
      </trkpt>
      <trkpt lat="40.652217" lon="-5.006650">
        <ele>2429.0</ele>
        <time>2018-09-02T13:09:37Z</time>
      </trkpt>
      <trkpt lat="40.652150" lon="-5.006600">
        <ele>2429.0</ele>
        <time>2018-09-02T13:09:38Z</time>
      </trkpt>
      <trkpt lat="40.652100" lon="-5.006550">
        <ele>2428.0</ele>
        <time>2018-09-02T13:09:39Z</time>
      </trkpt>
      <trkpt lat="40.652050" lon="-5.006483">
        <ele>2428.0</ele>
        <time>2018-09-02T13:09:40Z</time>
      </trkpt>
      <trkpt lat="40.652000" lon="-5.006433">
        <ele>2426.0</ele>
        <time>2018-09-02T13:09:41Z</time>
      </trkpt>
      <trkpt lat="40.651933" lon="-5.006367">
        <ele>2424.0</ele>
        <time>2018-09-02T13:09:42Z</time>
      </trkpt>
      <trkpt lat="40.651867" lon="-5.006317">
        <ele>2422.0</ele>
        <time>2018-09-02T13:09:43Z</time>
      </trkpt>
      <trkpt lat="40.651817" lon="-5.006267">
        <ele>2421.0</ele>
        <time>2018-09-02T13:09:44Z</time>
      </trkpt>
      <trkpt lat="40.651750" lon="-5.006233">
        <ele>2421.0</ele>
        <time>2018-09-02T13:09:45Z</time>
      </trkpt>
      <trkpt lat="40.651700" lon="-5.006217">
        <ele>2420.0</ele>
        <time>2018-09-02T13:09:46Z</time>
      </trkpt>
      <trkpt lat="40.651650" lon="-5.006183">
        <ele>2419.0</ele>
        <time>2018-09-02T13:09:47Z</time>
      </trkpt>
      <trkpt lat="40.651600" lon="-5.006167">
        <ele>2418.0</ele>
        <time>2018-09-02T13:09:48Z</time>
      </trkpt>
      <trkpt lat="40.651550" lon="-5.006150">
        <ele>2417.0</ele>
        <time>2018-09-02T13:09:49Z</time>
      </trkpt>
      <trkpt lat="40.651483" lon="-5.006150">
        <ele>2416.0</ele>
        <time>2018-09-02T13:09:50Z</time>
      </trkpt>
      <trkpt lat="40.651433" lon="-5.006133">
        <ele>2415.0</ele>
        <time>2018-09-02T13:09:51Z</time>
      </trkpt>
      <trkpt lat="40.651367" lon="-5.006133">
        <ele>2414.0</ele>
        <time>2018-09-02T13:09:52Z</time>
      </trkpt>
      <trkpt lat="40.651317" lon="-5.006133">
        <ele>2413.0</ele>
        <time>2018-09-02T13:09:53Z</time>
      </trkpt>
      <trkpt lat="40.651283" lon="-5.006150">
        <ele>2412.0</ele>
        <time>2018-09-02T13:09:54Z</time>
      </trkpt>
      <trkpt lat="40.651233" lon="-5.006150">
        <ele>2412.0</ele>
        <time>2018-09-02T13:09:55Z</time>
      </trkpt>
      <trkpt lat="40.651183" lon="-5.006167">
        <ele>2412.0</ele>
        <time>2018-09-02T13:09:56Z</time>
      </trkpt>
      <trkpt lat="40.651150" lon="-5.006167">
        <ele>2411.0</ele>
        <time>2018-09-02T13:09:57Z</time>
      </trkpt>
      <trkpt lat="40.651100" lon="-5.006167">
        <ele>2410.0</ele>
        <time>2018-09-02T13:09:58Z</time>
      </trkpt>
      <trkpt lat="40.651050" lon="-5.006167">
        <ele>2410.0</ele>
        <time>2018-09-02T13:09:59Z</time>
      </trkpt>
      <trkpt lat="40.651017" lon="-5.006183">
        <ele>2409.0</ele>
        <time>2018-09-02T13:10:00Z</time>
      </trkpt>
      <trkpt lat="40.650967" lon="-5.006183">
        <ele>2408.0</ele>
        <time>2018-09-02T13:10:01Z</time>
      </trkpt>
      <trkpt lat="40.650900" lon="-5.006167">
        <ele>2407.0</ele>
        <time>2018-09-02T13:10:02Z</time>
      </trkpt>
      <trkpt lat="40.650867" lon="-5.006167">
        <ele>2408.0</ele>
        <time>2018-09-02T13:10:03Z</time>
      </trkpt>
      <trkpt lat="40.650817" lon="-5.006183">
        <ele>2407.0</ele>
        <time>2018-09-02T13:10:04Z</time>
      </trkpt>
      <trkpt lat="40.650783" lon="-5.006217">
        <ele>2407.0</ele>
        <time>2018-09-02T13:10:05Z</time>
      </trkpt>
      <trkpt lat="40.650750" lon="-5.006250">
        <ele>2406.0</ele>
        <time>2018-09-02T13:10:06Z</time>
      </trkpt>
      <trkpt lat="40.650717" lon="-5.006283">
        <ele>2405.0</ele>
        <time>2018-09-02T13:10:07Z</time>
      </trkpt>
      <trkpt lat="40.650600" lon="-5.006283">
        <ele>2405.0</ele>
        <time>2018-09-02T13:10:09Z</time>
      </trkpt>
      <trkpt lat="40.650533" lon="-5.006233">
        <ele>2405.0</ele>
        <time>2018-09-02T13:10:10Z</time>
      </trkpt>
      <trkpt lat="40.650467" lon="-5.006150">
        <ele>2404.0</ele>
        <time>2018-09-02T13:10:11Z</time>
      </trkpt>
      <trkpt lat="40.650400" lon="-5.006050">
        <ele>2403.0</ele>
        <time>2018-09-02T13:10:12Z</time>
      </trkpt>
      <trkpt lat="40.650350" lon="-5.005900">
        <ele>2402.0</ele>
        <time>2018-09-02T13:10:13Z</time>
      </trkpt>
      <trkpt lat="40.650300" lon="-5.005750">
        <ele>2401.0</ele>
        <time>2018-09-02T13:10:14Z</time>
      </trkpt>
      <trkpt lat="40.650283" lon="-5.005583">
        <ele>2399.0</ele>
        <time>2018-09-02T13:10:15Z</time>
      </trkpt>
      <trkpt lat="40.650283" lon="-5.005400">
        <ele>2397.0</ele>
        <time>2018-09-02T13:10:16Z</time>
      </trkpt>
      <trkpt lat="40.650317" lon="-5.005217">
        <ele>2396.0</ele>
        <time>2018-09-02T13:10:17Z</time>
      </trkpt>
      <trkpt lat="40.650367" lon="-5.005050">
        <ele>2394.0</ele>
        <time>2018-09-02T13:10:18Z</time>
      </trkpt>
      <trkpt lat="40.650433" lon="-5.004883">
        <ele>2394.0</ele>
        <time>2018-09-02T13:10:19Z</time>
      </trkpt>
      <trkpt lat="40.650517" lon="-5.004733">
        <ele>2393.0</ele>
        <time>2018-09-02T13:10:20Z</time>
      </trkpt>
      <trkpt lat="40.650600" lon="-5.004600">
        <ele>2393.0</ele>
        <time>2018-09-02T13:10:21Z</time>
      </trkpt>
      <trkpt lat="40.650667" lon="-5.004450">
        <ele>2392.0</ele>
        <time>2018-09-02T13:10:22Z</time>
      </trkpt>
      <trkpt lat="40.650750" lon="-5.004300">
        <ele>2391.0</ele>
        <time>2018-09-02T13:10:23Z</time>
      </trkpt>
      <trkpt lat="40.650817" lon="-5.004133">
        <ele>2391.0</ele>
        <time>2018-09-02T13:10:24Z</time>
      </trkpt>
      <trkpt lat="40.650883" lon="-5.003967">
        <ele>2390.0</ele>
        <time>2018-09-02T13:10:25Z</time>
      </trkpt>
      <trkpt lat="40.650950" lon="-5.003800">
        <ele>2389.0</ele>
        <time>2018-09-02T13:10:26Z</time>
      </trkpt>
      <trkpt lat="40.651017" lon="-5.003633">
        <ele>2389.0</ele>
        <time>2018-09-02T13:10:27Z</time>
      </trkpt>
      <trkpt lat="40.651083" lon="-5.003467">
        <ele>2389.0</ele>
        <time>2018-09-02T13:10:28Z</time>
      </trkpt>
      <trkpt lat="40.651150" lon="-5.003300">
        <ele>2390.0</ele>
        <time>2018-09-02T13:10:29Z</time>
      </trkpt>
      <trkpt lat="40.651217" lon="-5.003150">
        <ele>2391.0</ele>
        <time>2018-09-02T13:10:30Z</time>
      </trkpt>
      <trkpt lat="40.651283" lon="-5.002983">
        <ele>2392.0</ele>
        <time>2018-09-02T13:10:31Z</time>
      </trkpt>
      <trkpt lat="40.651367" lon="-5.002817">
        <ele>2392.0</ele>
        <time>2018-09-02T13:10:32Z</time>
      </trkpt>
      <trkpt lat="40.651433" lon="-5.002633">
        <ele>2391.0</ele>
        <time>2018-09-02T13:10:33Z</time>
      </trkpt>
      <trkpt lat="40.651500" lon="-5.002450">
        <ele>2391.0</ele>
        <time>2018-09-02T13:10:34Z</time>
      </trkpt>
      <trkpt lat="40.651567" lon="-5.002300">
        <ele>2391.0</ele>
        <time>2018-09-02T13:10:35Z</time>
      </trkpt>
      <trkpt lat="40.651633" lon="-5.002150">
        <ele>2392.0</ele>
        <time>2018-09-02T13:10:36Z</time>
      </trkpt>
      <trkpt lat="40.651700" lon="-5.001983">
        <ele>2392.0</ele>
        <time>2018-09-02T13:10:37Z</time>
      </trkpt>
      <trkpt lat="40.651767" lon="-5.001817">
        <ele>2391.0</ele>
        <time>2018-09-02T13:10:38Z</time>
      </trkpt>
      <trkpt lat="40.651850" lon="-5.001650">
        <ele>2390.0</ele>
        <time>2018-09-02T13:10:39Z</time>
      </trkpt>
      <trkpt lat="40.651917" lon="-5.001467">
        <ele>2389.0</ele>
        <time>2018-09-02T13:10:40Z</time>
      </trkpt>
      <trkpt lat="40.652000" lon="-5.001300">
        <ele>2388.0</ele>
        <time>2018-09-02T13:10:41Z</time>
      </trkpt>
      <trkpt lat="40.652083" lon="-5.001167">
        <ele>2388.0</ele>
        <time>2018-09-02T13:10:42Z</time>
      </trkpt>
      <trkpt lat="40.652167" lon="-5.001033">
        <ele>2389.0</ele>
        <time>2018-09-02T13:10:43Z</time>
      </trkpt>
      <trkpt lat="40.652233" lon="-5.000883">
        <ele>2388.0</ele>
        <time>2018-09-02T13:10:44Z</time>
      </trkpt>
      <trkpt lat="40.652317" lon="-5.000733">
        <ele>2387.0</ele>
        <time>2018-09-02T13:10:45Z</time>
      </trkpt>
      <trkpt lat="40.652400" lon="-5.000583">
        <ele>2386.0</ele>
        <time>2018-09-02T13:10:46Z</time>
      </trkpt>
      <trkpt lat="40.652483" lon="-5.000433">
        <ele>2385.0</ele>
        <time>2018-09-02T13:10:47Z</time>
      </trkpt>
      <trkpt lat="40.652567" lon="-5.000300">
        <ele>2384.0</ele>
        <time>2018-09-02T13:10:48Z</time>
      </trkpt>
      <trkpt lat="40.652650" lon="-5.000167">
        <ele>2384.0</ele>
        <time>2018-09-02T13:10:49Z</time>
      </trkpt>
      <trkpt lat="40.652733" lon="-5.000050">
        <ele>2384.0</ele>
        <time>2018-09-02T13:10:50Z</time>
      </trkpt>
      <trkpt lat="40.652817" lon="-4.999900">
        <ele>2383.0</ele>
        <time>2018-09-02T13:10:51Z</time>
      </trkpt>
      <trkpt lat="40.652900" lon="-4.999767">
        <ele>2382.0</ele>
        <time>2018-09-02T13:10:52Z</time>
      </trkpt>
      <trkpt lat="40.652983" lon="-4.999617">
        <ele>2381.0</ele>
        <time>2018-09-02T13:10:53Z</time>
      </trkpt>
      <trkpt lat="40.653067" lon="-4.999483">
        <ele>2381.0</ele>
        <time>2018-09-02T13:10:54Z</time>
      </trkpt>
      <trkpt lat="40.653167" lon="-4.999367">
        <ele>2380.0</ele>
        <time>2018-09-02T13:10:55Z</time>
      </trkpt>
      <trkpt lat="40.653333" lon="-4.999100">
        <ele>2378.0</ele>
        <time>2018-09-02T13:10:57Z</time>
      </trkpt>
      <trkpt lat="40.653417" lon="-4.998950">
        <ele>2376.0</ele>
        <time>2018-09-02T13:10:58Z</time>
      </trkpt>
      <trkpt lat="40.653500" lon="-4.998800">
        <ele>2374.0</ele>
        <time>2018-09-02T13:10:59Z</time>
      </trkpt>
      <trkpt lat="40.653567" lon="-4.998650">
        <ele>2374.0</ele>
        <time>2018-09-02T13:11:00Z</time>
      </trkpt>
      <trkpt lat="40.653633" lon="-4.998517">
        <ele>2374.0</ele>
        <time>2018-09-02T13:11:01Z</time>
      </trkpt>
      <trkpt lat="40.653700" lon="-4.998383">
        <ele>2373.0</ele>
        <time>2018-09-02T13:11:02Z</time>
      </trkpt>
      <trkpt lat="40.653767" lon="-4.998233">
        <ele>2372.0</ele>
        <time>2018-09-02T13:11:03Z</time>
      </trkpt>
      <trkpt lat="40.653833" lon="-4.998083">
        <ele>2371.0</ele>
        <time>2018-09-02T13:11:04Z</time>
      </trkpt>
      <trkpt lat="40.653900" lon="-4.997933">
        <ele>2370.0</ele>
        <time>2018-09-02T13:11:05Z</time>
      </trkpt>
      <trkpt lat="40.653967" lon="-4.997800">
        <ele>2370.0</ele>
        <time>2018-09-02T13:11:06Z</time>
      </trkpt>
      <trkpt lat="40.654033" lon="-4.997650">
        <ele>2369.0</ele>
        <time>2018-09-02T13:11:07Z</time>
      </trkpt>
      <trkpt lat="40.654117" lon="-4.997517">
        <ele>2369.0</ele>
        <time>2018-09-02T13:11:08Z</time>
      </trkpt>
      <trkpt lat="40.654183" lon="-4.997367">
        <ele>2368.0</ele>
        <time>2018-09-02T13:11:09Z</time>
      </trkpt>
      <trkpt lat="40.654250" lon="-4.997200">
        <ele>2367.0</ele>
        <time>2018-09-02T13:11:10Z</time>
      </trkpt>
      <trkpt lat="40.654317" lon="-4.997033">
        <ele>2365.0</ele>
        <time>2018-09-02T13:11:11Z</time>
      </trkpt>
      <trkpt lat="40.654383" lon="-4.996867">
        <ele>2364.0</ele>
        <time>2018-09-02T13:11:12Z</time>
      </trkpt>
      <trkpt lat="40.654450" lon="-4.996717">
        <ele>2363.0</ele>
        <time>2018-09-02T13:11:13Z</time>
      </trkpt>
      <trkpt lat="40.654533" lon="-4.996567">
        <ele>2362.0</ele>
        <time>2018-09-02T13:11:14Z</time>
      </trkpt>
      <trkpt lat="40.654600" lon="-4.996417">
        <ele>2361.0</ele>
        <time>2018-09-02T13:11:15Z</time>
      </trkpt>
      <trkpt lat="40.654667" lon="-4.996267">
        <ele>2360.0</ele>
        <time>2018-09-02T13:11:16Z</time>
      </trkpt>
      <trkpt lat="40.654750" lon="-4.996117">
        <ele>2359.0</ele>
        <time>2018-09-02T13:11:17Z</time>
      </trkpt>
      <trkpt lat="40.654817" lon="-4.995967">
        <ele>2358.0</ele>
        <time>2018-09-02T13:11:18Z</time>
      </trkpt>
      <trkpt lat="40.654900" lon="-4.995817">
        <ele>2356.0</ele>
        <time>2018-09-02T13:11:19Z</time>
      </trkpt>
      <trkpt lat="40.654967" lon="-4.995650">
        <ele>2354.0</ele>
        <time>2018-09-02T13:11:20Z</time>
      </trkpt>
      <trkpt lat="40.655050" lon="-4.995500">
        <ele>2351.0</ele>
        <time>2018-09-02T13:11:21Z</time>
      </trkpt>
      <trkpt lat="40.655133" lon="-4.995333">
        <ele>2349.0</ele>
        <time>2018-09-02T13:11:22Z</time>
      </trkpt>
      <trkpt lat="40.655217" lon="-4.995167">
        <ele>2346.0</ele>
        <time>2018-09-02T13:11:23Z</time>
      </trkpt>
      <trkpt lat="40.655300" lon="-4.995000">
        <ele>2345.0</ele>
        <time>2018-09-02T13:11:24Z</time>
      </trkpt>
      <trkpt lat="40.655367" lon="-4.994867">
        <ele>2344.0</ele>
        <time>2018-09-02T13:11:25Z</time>
      </trkpt>
      <trkpt lat="40.655450" lon="-4.994733">
        <ele>2343.0</ele>
        <time>2018-09-02T13:11:26Z</time>
      </trkpt>
      <trkpt lat="40.655517" lon="-4.994583">
        <ele>2342.0</ele>
        <time>2018-09-02T13:11:27Z</time>
      </trkpt>
      <trkpt lat="40.655600" lon="-4.994417">
        <ele>2339.0</ele>
        <time>2018-09-02T13:11:28Z</time>
      </trkpt>
      <trkpt lat="40.655667" lon="-4.994250">
        <ele>2336.0</ele>
        <time>2018-09-02T13:11:29Z</time>
      </trkpt>
      <trkpt lat="40.655733" lon="-4.994083">
        <ele>2334.0</ele>
        <time>2018-09-02T13:11:30Z</time>
      </trkpt>
      <trkpt lat="40.655800" lon="-4.993933">
        <ele>2333.0</ele>
        <time>2018-09-02T13:11:31Z</time>
      </trkpt>
      <trkpt lat="40.655867" lon="-4.993800">
        <ele>2332.0</ele>
        <time>2018-09-02T13:11:32Z</time>
      </trkpt>
      <trkpt lat="40.655933" lon="-4.993650">
        <ele>2331.0</ele>
        <time>2018-09-02T13:11:33Z</time>
      </trkpt>
      <trkpt lat="40.656000" lon="-4.993500">
        <ele>2330.0</ele>
        <time>2018-09-02T13:11:34Z</time>
      </trkpt>
      <trkpt lat="40.656067" lon="-4.993350">
        <ele>2328.0</ele>
        <time>2018-09-02T13:11:35Z</time>
      </trkpt>
      <trkpt lat="40.656150" lon="-4.993200">
        <ele>2325.0</ele>
        <time>2018-09-02T13:11:36Z</time>
      </trkpt>
      <trkpt lat="40.656233" lon="-4.993050">
        <ele>2324.0</ele>
        <time>2018-09-02T13:11:37Z</time>
      </trkpt>
      <trkpt lat="40.656333" lon="-4.992900">
        <ele>2323.0</ele>
        <time>2018-09-02T13:11:38Z</time>
      </trkpt>
      <trkpt lat="40.656417" lon="-4.992767">
        <ele>2323.0</ele>
        <time>2018-09-02T13:11:39Z</time>
      </trkpt>
      <trkpt lat="40.656500" lon="-4.992633">
        <ele>2322.0</ele>
        <time>2018-09-02T13:11:40Z</time>
      </trkpt>
      <trkpt lat="40.656600" lon="-4.992517">
        <ele>2321.0</ele>
        <time>2018-09-02T13:11:41Z</time>
      </trkpt>
      <trkpt lat="40.656700" lon="-4.992383">
        <ele>2320.0</ele>
        <time>2018-09-02T13:11:42Z</time>
      </trkpt>
      <trkpt lat="40.656800" lon="-4.992267">
        <ele>2319.0</ele>
        <time>2018-09-02T13:11:43Z</time>
      </trkpt>
      <trkpt lat="40.656883" lon="-4.992133">
        <ele>2319.0</ele>
        <time>2018-09-02T13:11:44Z</time>
      </trkpt>
      <trkpt lat="40.656983" lon="-4.992017">
        <ele>2317.0</ele>
        <time>2018-09-02T13:11:45Z</time>
      </trkpt>
      <trkpt lat="40.657083" lon="-4.991883">
        <ele>2315.0</ele>
        <time>2018-09-02T13:11:46Z</time>
      </trkpt>
      <trkpt lat="40.657183" lon="-4.991767">
        <ele>2314.0</ele>
        <time>2018-09-02T13:11:47Z</time>
      </trkpt>
      <trkpt lat="40.657300" lon="-4.991650">
        <ele>2312.0</ele>
        <time>2018-09-02T13:11:48Z</time>
      </trkpt>
      <trkpt lat="40.657400" lon="-4.991550">
        <ele>2311.0</ele>
        <time>2018-09-02T13:11:49Z</time>
      </trkpt>
      <trkpt lat="40.657500" lon="-4.991433">
        <ele>2310.0</ele>
        <time>2018-09-02T13:11:50Z</time>
      </trkpt>
      <trkpt lat="40.657600" lon="-4.991317">
        <ele>2309.0</ele>
        <time>2018-09-02T13:11:51Z</time>
      </trkpt>
      <trkpt lat="40.657700" lon="-4.991200">
        <ele>2308.0</ele>
        <time>2018-09-02T13:11:52Z</time>
      </trkpt>
      <trkpt lat="40.657800" lon="-4.991067">
        <ele>2307.0</ele>
        <time>2018-09-02T13:11:53Z</time>
      </trkpt>
      <trkpt lat="40.657900" lon="-4.990950">
        <ele>2305.0</ele>
        <time>2018-09-02T13:11:54Z</time>
      </trkpt>
      <trkpt lat="40.658017" lon="-4.990833">
        <ele>2303.0</ele>
        <time>2018-09-02T13:11:55Z</time>
      </trkpt>
      <trkpt lat="40.658133" lon="-4.990733">
        <ele>2301.0</ele>
        <time>2018-09-02T13:11:56Z</time>
      </trkpt>
      <trkpt lat="40.658250" lon="-4.990633">
        <ele>2299.0</ele>
        <time>2018-09-02T13:11:57Z</time>
      </trkpt>
      <trkpt lat="40.658350" lon="-4.990533">
        <ele>2297.0</ele>
        <time>2018-09-02T13:11:58Z</time>
      </trkpt>
      <trkpt lat="40.658450" lon="-4.990433">
        <ele>2295.0</ele>
        <time>2018-09-02T13:11:59Z</time>
      </trkpt>
      <trkpt lat="40.658550" lon="-4.990350">
        <ele>2294.0</ele>
        <time>2018-09-02T13:12:00Z</time>
      </trkpt>
      <trkpt lat="40.658650" lon="-4.990250">
        <ele>2292.0</ele>
        <time>2018-09-02T13:12:01Z</time>
      </trkpt>
      <trkpt lat="40.658750" lon="-4.990150">
        <ele>2289.0</ele>
        <time>2018-09-02T13:12:02Z</time>
      </trkpt>
      <trkpt lat="40.658850" lon="-4.990050">
        <ele>2287.0</ele>
        <time>2018-09-02T13:12:03Z</time>
      </trkpt>
      <trkpt lat="40.658967" lon="-4.989950">
        <ele>2284.0</ele>
        <time>2018-09-02T13:12:04Z</time>
      </trkpt>
      <trkpt lat="40.659083" lon="-4.989833">
        <ele>2282.0</ele>
        <time>2018-09-02T13:12:05Z</time>
      </trkpt>
      <trkpt lat="40.659200" lon="-4.989733">
        <ele>2280.0</ele>
        <time>2018-09-02T13:12:06Z</time>
      </trkpt>
      <trkpt lat="40.659300" lon="-4.989633">
        <ele>2278.0</ele>
        <time>2018-09-02T13:12:07Z</time>
      </trkpt>
      <trkpt lat="40.659400" lon="-4.989550">
        <ele>2275.0</ele>
        <time>2018-09-02T13:12:08Z</time>
      </trkpt>
      <trkpt lat="40.659517" lon="-4.989467">
        <ele>2272.0</ele>
        <time>2018-09-02T13:12:09Z</time>
      </trkpt>
      <trkpt lat="40.659650" lon="-4.989383">
        <ele>2269.0</ele>
        <time>2018-09-02T13:12:10Z</time>
      </trkpt>
      <trkpt lat="40.659767" lon="-4.989283">
        <ele>2267.0</ele>
        <time>2018-09-02T13:12:11Z</time>
      </trkpt>
      <trkpt lat="40.659867" lon="-4.989183">
        <ele>2267.0</ele>
        <time>2018-09-02T13:12:12Z</time>
      </trkpt>
      <trkpt lat="40.659967" lon="-4.989083">
        <ele>2267.0</ele>
        <time>2018-09-02T13:12:13Z</time>
      </trkpt>
      <trkpt lat="40.660150" lon="-4.988883">
        <ele>2266.0</ele>
        <time>2018-09-02T13:12:15Z</time>
      </trkpt>
      <trkpt lat="40.660267" lon="-4.988800">
        <ele>2264.0</ele>
        <time>2018-09-02T13:12:16Z</time>
      </trkpt>
      <trkpt lat="40.660383" lon="-4.988733">
        <ele>2263.0</ele>
        <time>2018-09-02T13:12:17Z</time>
      </trkpt>
      <trkpt lat="40.660500" lon="-4.988717">
        <ele>2262.0</ele>
        <time>2018-09-02T13:12:18Z</time>
      </trkpt>
      <trkpt lat="40.660600" lon="-4.988750">
        <ele>2262.0</ele>
        <time>2018-09-02T13:12:19Z</time>
      </trkpt>
      <trkpt lat="40.660667" lon="-4.988783">
        <ele>2262.0</ele>
        <time>2018-09-02T13:12:20Z</time>
      </trkpt>
      <trkpt lat="40.660717" lon="-4.988850">
        <ele>2261.0</ele>
        <time>2018-09-02T13:12:21Z</time>
      </trkpt>
      <trkpt lat="40.660750" lon="-4.988917">
        <ele>2260.0</ele>
        <time>2018-09-02T13:12:22Z</time>
      </trkpt>
      <trkpt lat="40.660750" lon="-4.988967">
        <ele>2258.0</ele>
        <time>2018-09-02T13:12:23Z</time>
      </trkpt>
      <trkpt lat="40.660733" lon="-4.989033">
        <ele>2257.0</ele>
        <time>2018-09-02T13:12:24Z</time>
      </trkpt>
      <trkpt lat="40.660683" lon="-4.989067">
        <ele>2255.0</ele>
        <time>2018-09-02T13:12:25Z</time>
      </trkpt>
      <trkpt lat="40.660617" lon="-4.989067">
        <ele>2254.0</ele>
        <time>2018-09-02T13:12:26Z</time>
      </trkpt>
      <trkpt lat="40.660550" lon="-4.989017">
        <ele>2254.0</ele>
        <time>2018-09-02T13:12:27Z</time>
      </trkpt>
      <trkpt lat="40.660500" lon="-4.988967">
        <ele>2253.0</ele>
        <time>2018-09-02T13:12:28Z</time>
      </trkpt>
      <trkpt lat="40.660467" lon="-4.988883">
        <ele>2253.0</ele>
        <time>2018-09-02T13:12:29Z</time>
      </trkpt>
      <trkpt lat="40.660433" lon="-4.988767">
        <ele>2251.0</ele>
        <time>2018-09-02T13:12:30Z</time>
      </trkpt>
      <trkpt lat="40.660417" lon="-4.988650">
        <ele>2249.0</ele>
        <time>2018-09-02T13:12:31Z</time>
      </trkpt>
      <trkpt lat="40.660417" lon="-4.988483">
        <ele>2247.0</ele>
        <time>2018-09-02T13:12:32Z</time>
      </trkpt>
      <trkpt lat="40.660433" lon="-4.988317">
        <ele>2245.0</ele>
        <time>2018-09-02T13:12:33Z</time>
      </trkpt>
      <trkpt lat="40.660483" lon="-4.988150">
        <ele>2242.0</ele>
        <time>2018-09-02T13:12:34Z</time>
      </trkpt>
      <trkpt lat="40.660583" lon="-4.988017">
        <ele>2240.0</ele>
        <time>2018-09-02T13:12:35Z</time>
      </trkpt>
      <trkpt lat="40.660700" lon="-4.987933">
        <ele>2238.0</ele>
        <time>2018-09-02T13:12:36Z</time>
      </trkpt>
      <trkpt lat="40.660833" lon="-4.987883">
        <ele>2236.0</ele>
        <time>2018-09-02T13:12:37Z</time>
      </trkpt>
      <trkpt lat="40.660933" lon="-4.987867">
        <ele>2234.0</ele>
        <time>2018-09-02T13:12:38Z</time>
      </trkpt>
      <trkpt lat="40.661050" lon="-4.987833">
        <ele>2233.0</ele>
        <time>2018-09-02T13:12:39Z</time>
      </trkpt>
      <trkpt lat="40.661150" lon="-4.987800">
        <ele>2231.0</ele>
        <time>2018-09-02T13:12:40Z</time>
      </trkpt>
      <trkpt lat="40.661283" lon="-4.987767">
        <ele>2229.0</ele>
        <time>2018-09-02T13:12:41Z</time>
      </trkpt>
      <trkpt lat="40.661417" lon="-4.987733">
        <ele>2226.0</ele>
        <time>2018-09-02T13:12:42Z</time>
      </trkpt>
      <trkpt lat="40.661533" lon="-4.987717">
        <ele>2224.0</ele>
        <time>2018-09-02T13:12:43Z</time>
      </trkpt>
      <trkpt lat="40.661733" lon="-4.987650">
        <ele>2223.0</ele>
        <time>2018-09-02T13:12:45Z</time>
      </trkpt>
      <trkpt lat="40.661833" lon="-4.987600">
        <ele>2223.0</ele>
        <time>2018-09-02T13:12:46Z</time>
      </trkpt>
      <trkpt lat="40.661933" lon="-4.987550">
        <ele>2221.0</ele>
        <time>2018-09-02T13:12:47Z</time>
      </trkpt>
      <trkpt lat="40.662050" lon="-4.987500">
        <ele>2219.0</ele>
        <time>2018-09-02T13:12:48Z</time>
      </trkpt>
      <trkpt lat="40.662300" lon="-4.987417">
        <ele>2215.0</ele>
        <time>2018-09-02T13:12:50Z</time>
      </trkpt>
      <trkpt lat="40.662417" lon="-4.987367">
        <ele>2215.0</ele>
        <time>2018-09-02T13:12:51Z</time>
      </trkpt>
      <trkpt lat="40.662517" lon="-4.987350">
        <ele>2215.0</ele>
        <time>2018-09-02T13:12:52Z</time>
      </trkpt>
      <trkpt lat="40.662633" lon="-4.987317">
        <ele>2214.0</ele>
        <time>2018-09-02T13:12:53Z</time>
      </trkpt>
      <trkpt lat="40.662850" lon="-4.987250">
        <ele>2210.0</ele>
        <time>2018-09-02T13:12:55Z</time>
      </trkpt>
      <trkpt lat="40.662983" lon="-4.987200">
        <ele>2207.0</ele>
        <time>2018-09-02T13:12:56Z</time>
      </trkpt>
      <trkpt lat="40.663233" lon="-4.987083">
        <ele>2203.0</ele>
        <time>2018-09-02T13:12:58Z</time>
      </trkpt>
      <trkpt lat="40.663450" lon="-4.986950">
        <ele>2200.0</ele>
        <time>2018-09-02T13:13:00Z</time>
      </trkpt>
      <trkpt lat="40.663667" lon="-4.986800">
        <ele>2197.0</ele>
        <time>2018-09-02T13:13:02Z</time>
      </trkpt>
      <trkpt lat="40.663800" lon="-4.986717">
        <ele>2195.0</ele>
        <time>2018-09-02T13:13:03Z</time>
      </trkpt>
      <trkpt lat="40.663917" lon="-4.986600">
        <ele>2191.0</ele>
        <time>2018-09-02T13:13:04Z</time>
      </trkpt>
      <trkpt lat="40.664050" lon="-4.986533">
        <ele>2189.0</ele>
        <time>2018-09-02T13:13:05Z</time>
      </trkpt>
      <trkpt lat="40.664167" lon="-4.986450">
        <ele>2188.0</ele>
        <time>2018-09-02T13:13:06Z</time>
      </trkpt>
      <trkpt lat="40.664283" lon="-4.986367">
        <ele>2186.0</ele>
        <time>2018-09-02T13:13:07Z</time>
      </trkpt>
      <trkpt lat="40.664400" lon="-4.986283">
        <ele>2184.0</ele>
        <time>2018-09-02T13:13:08Z</time>
      </trkpt>
      <trkpt lat="40.664533" lon="-4.986183">
        <ele>2182.0</ele>
        <time>2018-09-02T13:13:09Z</time>
      </trkpt>
      <trkpt lat="40.664667" lon="-4.986083">
        <ele>2179.0</ele>
        <time>2018-09-02T13:13:10Z</time>
      </trkpt>
      <trkpt lat="40.664800" lon="-4.986000">
        <ele>2177.0</ele>
        <time>2018-09-02T13:13:11Z</time>
      </trkpt>
      <trkpt lat="40.664900" lon="-4.985900">
        <ele>2175.0</ele>
        <time>2018-09-02T13:13:12Z</time>
      </trkpt>
      <trkpt lat="40.665017" lon="-4.985800">
        <ele>2174.0</ele>
        <time>2018-09-02T13:13:13Z</time>
      </trkpt>
      <trkpt lat="40.665133" lon="-4.985700">
        <ele>2173.0</ele>
        <time>2018-09-02T13:13:14Z</time>
      </trkpt>
      <trkpt lat="40.665267" lon="-4.985617">
        <ele>2171.0</ele>
        <time>2018-09-02T13:13:15Z</time>
      </trkpt>
      <trkpt lat="40.665400" lon="-4.985517">
        <ele>2170.0</ele>
        <time>2018-09-02T13:13:16Z</time>
      </trkpt>
      <trkpt lat="40.665533" lon="-4.985417">
        <ele>2168.0</ele>
        <time>2018-09-02T13:13:17Z</time>
      </trkpt>
      <trkpt lat="40.665650" lon="-4.985317">
        <ele>2167.0</ele>
        <time>2018-09-02T13:13:18Z</time>
      </trkpt>
      <trkpt lat="40.665767" lon="-4.985217">
        <ele>2166.0</ele>
        <time>2018-09-02T13:13:19Z</time>
      </trkpt>
      <trkpt lat="40.665883" lon="-4.985117">
        <ele>2166.0</ele>
        <time>2018-09-02T13:13:20Z</time>
      </trkpt>
      <trkpt lat="40.666000" lon="-4.985017">
        <ele>2165.0</ele>
        <time>2018-09-02T13:13:21Z</time>
      </trkpt>
      <trkpt lat="40.666133" lon="-4.984900">
        <ele>2164.0</ele>
        <time>2018-09-02T13:13:22Z</time>
      </trkpt>
      <trkpt lat="40.666267" lon="-4.984800">
        <ele>2163.0</ele>
        <time>2018-09-02T13:13:23Z</time>
      </trkpt>
      <trkpt lat="40.666400" lon="-4.984700">
        <ele>2162.0</ele>
        <time>2018-09-02T13:13:24Z</time>
      </trkpt>
      <trkpt lat="40.666533" lon="-4.984600">
        <ele>2161.0</ele>
        <time>2018-09-02T13:13:25Z</time>
      </trkpt>
      <trkpt lat="40.666650" lon="-4.984517">
        <ele>2161.0</ele>
        <time>2018-09-02T13:13:26Z</time>
      </trkpt>
      <trkpt lat="40.666783" lon="-4.984433">
        <ele>2161.0</ele>
        <time>2018-09-02T13:13:27Z</time>
      </trkpt>
      <trkpt lat="40.666917" lon="-4.984350">
        <ele>2161.0</ele>
        <time>2018-09-02T13:13:28Z</time>
      </trkpt>
      <trkpt lat="40.667050" lon="-4.984267">
        <ele>2161.0</ele>
        <time>2018-09-02T13:13:29Z</time>
      </trkpt>
      <trkpt lat="40.667183" lon="-4.984150">
        <ele>2161.0</ele>
        <time>2018-09-02T13:13:30Z</time>
      </trkpt>
      <trkpt lat="40.667300" lon="-4.984050">
        <ele>2161.0</ele>
        <time>2018-09-02T13:13:31Z</time>
      </trkpt>
      <trkpt lat="40.667433" lon="-4.983967">
        <ele>2161.0</ele>
        <time>2018-09-02T13:13:32Z</time>
      </trkpt>
      <trkpt lat="40.667567" lon="-4.983867">
        <ele>2161.0</ele>
        <time>2018-09-02T13:13:33Z</time>
      </trkpt>
      <trkpt lat="40.667700" lon="-4.983750">
        <ele>2160.0</ele>
        <time>2018-09-02T13:13:34Z</time>
      </trkpt>
      <trkpt lat="40.667833" lon="-4.983633">
        <ele>2159.0</ele>
        <time>2018-09-02T13:13:35Z</time>
      </trkpt>
      <trkpt lat="40.667967" lon="-4.983533">
        <ele>2158.0</ele>
        <time>2018-09-02T13:13:36Z</time>
      </trkpt>
      <trkpt lat="40.668100" lon="-4.983417">
        <ele>2159.0</ele>
        <time>2018-09-02T13:13:37Z</time>
      </trkpt>
      <trkpt lat="40.668217" lon="-4.983300">
        <ele>2158.0</ele>
        <time>2018-09-02T13:13:38Z</time>
      </trkpt>
      <trkpt lat="40.668333" lon="-4.983183">
        <ele>2157.0</ele>
        <time>2018-09-02T13:13:39Z</time>
      </trkpt>
      <trkpt lat="40.668467" lon="-4.983067">
        <ele>2155.0</ele>
        <time>2018-09-02T13:13:40Z</time>
      </trkpt>
      <trkpt lat="40.668600" lon="-4.982950">
        <ele>2154.0</ele>
        <time>2018-09-02T13:13:41Z</time>
      </trkpt>
      <trkpt lat="40.668733" lon="-4.982833">
        <ele>2153.0</ele>
        <time>2018-09-02T13:13:42Z</time>
      </trkpt>
      <trkpt lat="40.668867" lon="-4.982717">
        <ele>2152.0</ele>
        <time>2018-09-02T13:13:43Z</time>
      </trkpt>
      <trkpt lat="40.669000" lon="-4.982633">
        <ele>2151.0</ele>
        <time>2018-09-02T13:13:44Z</time>
      </trkpt>
      <trkpt lat="40.669133" lon="-4.982533">
        <ele>2151.0</ele>
        <time>2018-09-02T13:13:45Z</time>
      </trkpt>
      <trkpt lat="40.669267" lon="-4.982433">
        <ele>2150.0</ele>
        <time>2018-09-02T13:13:46Z</time>
      </trkpt>
      <trkpt lat="40.669400" lon="-4.982333">
        <ele>2148.0</ele>
        <time>2018-09-02T13:13:47Z</time>
      </trkpt>
      <trkpt lat="40.669550" lon="-4.982217">
        <ele>2146.0</ele>
        <time>2018-09-02T13:13:48Z</time>
      </trkpt>
      <trkpt lat="40.669683" lon="-4.982133">
        <ele>2146.0</ele>
        <time>2018-09-02T13:13:49Z</time>
      </trkpt>
      <trkpt lat="40.669833" lon="-4.982050">
        <ele>2146.0</ele>
        <time>2018-09-02T13:13:50Z</time>
      </trkpt>
      <trkpt lat="40.669967" lon="-4.981983">
        <ele>2145.0</ele>
        <time>2018-09-02T13:13:51Z</time>
      </trkpt>
      <trkpt lat="40.670100" lon="-4.981900">
        <ele>2144.0</ele>
        <time>2018-09-02T13:13:52Z</time>
      </trkpt>
      <trkpt lat="40.670233" lon="-4.981800">
        <ele>2143.0</ele>
        <time>2018-09-02T13:13:53Z</time>
      </trkpt>
      <trkpt lat="40.670383" lon="-4.981700">
        <ele>2142.0</ele>
        <time>2018-09-02T13:13:54Z</time>
      </trkpt>
      <trkpt lat="40.670500" lon="-4.981617">
        <ele>2142.0</ele>
        <time>2018-09-02T13:13:55Z</time>
      </trkpt>
      <trkpt lat="40.670633" lon="-4.981533">
        <ele>2142.0</ele>
        <time>2018-09-02T13:13:56Z</time>
      </trkpt>
      <trkpt lat="40.670750" lon="-4.981433">
        <ele>2142.0</ele>
        <time>2018-09-02T13:13:57Z</time>
      </trkpt>
      <trkpt lat="40.670883" lon="-4.981333">
        <ele>2141.0</ele>
        <time>2018-09-02T13:13:58Z</time>
      </trkpt>
      <trkpt lat="40.671017" lon="-4.981233">
        <ele>2139.0</ele>
        <time>2018-09-02T13:13:59Z</time>
      </trkpt>
      <trkpt lat="40.671150" lon="-4.981150">
        <ele>2137.0</ele>
        <time>2018-09-02T13:14:00Z</time>
      </trkpt>
      <trkpt lat="40.671283" lon="-4.981050">
        <ele>2137.0</ele>
        <time>2018-09-02T13:14:01Z</time>
      </trkpt>
      <trkpt lat="40.671400" lon="-4.980950">
        <ele>2137.0</ele>
        <time>2018-09-02T13:14:02Z</time>
      </trkpt>
      <trkpt lat="40.671517" lon="-4.980850">
        <ele>2136.0</ele>
        <time>2018-09-02T13:14:03Z</time>
      </trkpt>
      <trkpt lat="40.671633" lon="-4.980733">
        <ele>2135.0</ele>
        <time>2018-09-02T13:14:04Z</time>
      </trkpt>
      <trkpt lat="40.671767" lon="-4.980633">
        <ele>2133.0</ele>
        <time>2018-09-02T13:14:05Z</time>
      </trkpt>
      <trkpt lat="40.671900" lon="-4.980517">
        <ele>2131.0</ele>
        <time>2018-09-02T13:14:06Z</time>
      </trkpt>
      <trkpt lat="40.672033" lon="-4.980417">
        <ele>2129.0</ele>
        <time>2018-09-02T13:14:07Z</time>
      </trkpt>
      <trkpt lat="40.672183" lon="-4.980300">
        <ele>2127.0</ele>
        <time>2018-09-02T13:14:08Z</time>
      </trkpt>
      <trkpt lat="40.672317" lon="-4.980200">
        <ele>2126.0</ele>
        <time>2018-09-02T13:14:09Z</time>
      </trkpt>
      <trkpt lat="40.672433" lon="-4.980083">
        <ele>2125.0</ele>
        <time>2018-09-02T13:14:10Z</time>
      </trkpt>
      <trkpt lat="40.672583" lon="-4.980000">
        <ele>2125.0</ele>
        <time>2018-09-02T13:14:11Z</time>
      </trkpt>
      <trkpt lat="40.672717" lon="-4.979917">
        <ele>2125.0</ele>
        <time>2018-09-02T13:14:12Z</time>
      </trkpt>
      <trkpt lat="40.672850" lon="-4.979833">
        <ele>2127.0</ele>
        <time>2018-09-02T13:14:13Z</time>
      </trkpt>
      <trkpt lat="40.672967" lon="-4.979767">
        <ele>2128.0</ele>
        <time>2018-09-02T13:14:14Z</time>
      </trkpt>
      <trkpt lat="40.673083" lon="-4.979700">
        <ele>2129.0</ele>
        <time>2018-09-02T13:14:15Z</time>
      </trkpt>
      <trkpt lat="40.673200" lon="-4.979617">
        <ele>2129.0</ele>
        <time>2018-09-02T13:14:16Z</time>
      </trkpt>
      <trkpt lat="40.673317" lon="-4.979517">
        <ele>2128.0</ele>
        <time>2018-09-02T13:14:17Z</time>
      </trkpt>
      <trkpt lat="40.673450" lon="-4.979417">
        <ele>2128.0</ele>
        <time>2018-09-02T13:14:18Z</time>
      </trkpt>
      <trkpt lat="40.673583" lon="-4.979317">
        <ele>2127.0</ele>
        <time>2018-09-02T13:14:19Z</time>
      </trkpt>
      <trkpt lat="40.673700" lon="-4.979217">
        <ele>2126.0</ele>
        <time>2018-09-02T13:14:20Z</time>
      </trkpt>
      <trkpt lat="40.673817" lon="-4.979117">
        <ele>2127.0</ele>
        <time>2018-09-02T13:14:21Z</time>
      </trkpt>
      <trkpt lat="40.673917" lon="-4.979017">
        <ele>2126.0</ele>
        <time>2018-09-02T13:14:22Z</time>
      </trkpt>
      <trkpt lat="40.674033" lon="-4.978917">
        <ele>2126.0</ele>
        <time>2018-09-02T13:14:23Z</time>
      </trkpt>
      <trkpt lat="40.674150" lon="-4.978817">
        <ele>2125.0</ele>
        <time>2018-09-02T13:14:24Z</time>
      </trkpt>
      <trkpt lat="40.674267" lon="-4.978717">
        <ele>2123.0</ele>
        <time>2018-09-02T13:14:25Z</time>
      </trkpt>
      <trkpt lat="40.674400" lon="-4.978617">
        <ele>2120.0</ele>
        <time>2018-09-02T13:14:26Z</time>
      </trkpt>
      <trkpt lat="40.674517" lon="-4.978517">
        <ele>2118.0</ele>
        <time>2018-09-02T13:14:27Z</time>
      </trkpt>
      <trkpt lat="40.674650" lon="-4.978433">
        <ele>2116.0</ele>
        <time>2018-09-02T13:14:28Z</time>
      </trkpt>
      <trkpt lat="40.674750" lon="-4.978350">
        <ele>2114.0</ele>
        <time>2018-09-02T13:14:29Z</time>
      </trkpt>
      <trkpt lat="40.674867" lon="-4.978267">
        <ele>2113.0</ele>
        <time>2018-09-02T13:14:30Z</time>
      </trkpt>
      <trkpt lat="40.674983" lon="-4.978183">
        <ele>2110.0</ele>
        <time>2018-09-02T13:14:31Z</time>
      </trkpt>
      <trkpt lat="40.675117" lon="-4.978083">
        <ele>2107.0</ele>
        <time>2018-09-02T13:14:32Z</time>
      </trkpt>
      <trkpt lat="40.675250" lon="-4.978017">
        <ele>2105.0</ele>
        <time>2018-09-02T13:14:33Z</time>
      </trkpt>
      <trkpt lat="40.675383" lon="-4.977950">
        <ele>2103.0</ele>
        <time>2018-09-02T13:14:34Z</time>
      </trkpt>
      <trkpt lat="40.675517" lon="-4.977900">
        <ele>2102.0</ele>
        <time>2018-09-02T13:14:35Z</time>
      </trkpt>
      <trkpt lat="40.675633" lon="-4.977817">
        <ele>2101.0</ele>
        <time>2018-09-02T13:14:36Z</time>
      </trkpt>
      <trkpt lat="40.675767" lon="-4.977750">
        <ele>2101.0</ele>
        <time>2018-09-02T13:14:37Z</time>
      </trkpt>
      <trkpt lat="40.675867" lon="-4.977667">
        <ele>2102.0</ele>
        <time>2018-09-02T13:14:38Z</time>
      </trkpt>
      <trkpt lat="40.675983" lon="-4.977567">
        <ele>2103.0</ele>
        <time>2018-09-02T13:14:39Z</time>
      </trkpt>
      <trkpt lat="40.676083" lon="-4.977467">
        <ele>2103.0</ele>
        <time>2018-09-02T13:14:40Z</time>
      </trkpt>
      <trkpt lat="40.676200" lon="-4.977383">
        <ele>2104.0</ele>
        <time>2018-09-02T13:14:41Z</time>
      </trkpt>
      <trkpt lat="40.676333" lon="-4.977300">
        <ele>2105.0</ele>
        <time>2018-09-02T13:14:42Z</time>
      </trkpt>
      <trkpt lat="40.676450" lon="-4.977267">
        <ele>2106.0</ele>
        <time>2018-09-02T13:14:43Z</time>
      </trkpt>
      <trkpt lat="40.676550" lon="-4.977283">
        <ele>2109.0</ele>
        <time>2018-09-02T13:14:44Z</time>
      </trkpt>
      <trkpt lat="40.676600" lon="-4.977317">
        <ele>2112.0</ele>
        <time>2018-09-02T13:14:45Z</time>
      </trkpt>
      <trkpt lat="40.676633" lon="-4.977367">
        <ele>2114.0</ele>
        <time>2018-09-02T13:14:46Z</time>
      </trkpt>
      <trkpt lat="40.676633" lon="-4.977400">
        <ele>2114.0</ele>
        <time>2018-09-02T13:14:47Z</time>
      </trkpt>
      <trkpt lat="40.676617" lon="-4.977433">
        <ele>2114.0</ele>
        <time>2018-09-02T13:14:48Z</time>
      </trkpt>
      <trkpt lat="40.676633" lon="-4.977483">
        <ele>2114.0</ele>
        <time>2018-09-02T13:14:49Z</time>
      </trkpt>
      <trkpt lat="40.676617" lon="-4.977550">
        <ele>2113.0</ele>
        <time>2018-09-02T13:14:50Z</time>
      </trkpt>
      <trkpt lat="40.676567" lon="-4.977600">
        <ele>2112.0</ele>
        <time>2018-09-02T13:14:51Z</time>
      </trkpt>
      <trkpt lat="40.676483" lon="-4.977583">
        <ele>2111.0</ele>
        <time>2018-09-02T13:14:52Z</time>
      </trkpt>
      <trkpt lat="40.676400" lon="-4.977467">
        <ele>2109.0</ele>
        <time>2018-09-02T13:14:53Z</time>
      </trkpt>
      <trkpt lat="40.676350" lon="-4.977300">
        <ele>2108.0</ele>
        <time>2018-09-02T13:14:54Z</time>
      </trkpt>
      <trkpt lat="40.676367" lon="-4.977100">
        <ele>2107.0</ele>
        <time>2018-09-02T13:14:55Z</time>
      </trkpt>
      <trkpt lat="40.676417" lon="-4.976933">
        <ele>2107.0</ele>
        <time>2018-09-02T13:14:56Z</time>
      </trkpt>
      <trkpt lat="40.676483" lon="-4.976767">
        <ele>2107.0</ele>
        <time>2018-09-02T13:14:57Z</time>
      </trkpt>
      <trkpt lat="40.676567" lon="-4.976633">
        <ele>2107.0</ele>
        <time>2018-09-02T13:14:58Z</time>
      </trkpt>
      <trkpt lat="40.676650" lon="-4.976517">
        <ele>2107.0</ele>
        <time>2018-09-02T13:14:59Z</time>
      </trkpt>
      <trkpt lat="40.676767" lon="-4.976417">
        <ele>2106.0</ele>
        <time>2018-09-02T13:15:00Z</time>
      </trkpt>
      <trkpt lat="40.676883" lon="-4.976350">
        <ele>2106.0</ele>
        <time>2018-09-02T13:15:01Z</time>
      </trkpt>
      <trkpt lat="40.676983" lon="-4.976350">
        <ele>2106.0</ele>
        <time>2018-09-02T13:15:02Z</time>
      </trkpt>
      <trkpt lat="40.677067" lon="-4.976383">
        <ele>2106.0</ele>
        <time>2018-09-02T13:15:03Z</time>
      </trkpt>
      <trkpt lat="40.677133" lon="-4.976417">
        <ele>2106.0</ele>
        <time>2018-09-02T13:15:04Z</time>
      </trkpt>
      <trkpt lat="40.677200" lon="-4.976450">
        <ele>2106.0</ele>
        <time>2018-09-02T13:15:05Z</time>
      </trkpt>
      <trkpt lat="40.677283" lon="-4.976450">
        <ele>2106.0</ele>
        <time>2018-09-02T13:15:06Z</time>
      </trkpt>
      <trkpt lat="40.677367" lon="-4.976450">
        <ele>2105.0</ele>
        <time>2018-09-02T13:15:07Z</time>
      </trkpt>
      <trkpt lat="40.677567" lon="-4.976433">
        <ele>2101.0</ele>
        <time>2018-09-02T13:15:09Z</time>
      </trkpt>
      <trkpt lat="40.677667" lon="-4.976417">
        <ele>2100.0</ele>
        <time>2018-09-02T13:15:10Z</time>
      </trkpt>
      <trkpt lat="40.677783" lon="-4.976383">
        <ele>2098.0</ele>
        <time>2018-09-02T13:15:11Z</time>
      </trkpt>
      <trkpt lat="40.677883" lon="-4.976350">
        <ele>2097.0</ele>
        <time>2018-09-02T13:15:12Z</time>
      </trkpt>
      <trkpt lat="40.677983" lon="-4.976267">
        <ele>2096.0</ele>
        <time>2018-09-02T13:15:13Z</time>
      </trkpt>
      <trkpt lat="40.678083" lon="-4.976183">
        <ele>2095.0</ele>
        <time>2018-09-02T13:15:14Z</time>
      </trkpt>
      <trkpt lat="40.678183" lon="-4.976100">
        <ele>2093.0</ele>
        <time>2018-09-02T13:15:15Z</time>
      </trkpt>
      <trkpt lat="40.678283" lon="-4.976000">
        <ele>2091.0</ele>
        <time>2018-09-02T13:15:16Z</time>
      </trkpt>
      <trkpt lat="40.678400" lon="-4.975900">
        <ele>2089.0</ele>
        <time>2018-09-02T13:15:17Z</time>
      </trkpt>
      <trkpt lat="40.678500" lon="-4.975800">
        <ele>2088.0</ele>
        <time>2018-09-02T13:15:18Z</time>
      </trkpt>
      <trkpt lat="40.678617" lon="-4.975683">
        <ele>2086.0</ele>
        <time>2018-09-02T13:15:19Z</time>
      </trkpt>
      <trkpt lat="40.678733" lon="-4.975567">
        <ele>2084.0</ele>
        <time>2018-09-02T13:15:20Z</time>
      </trkpt>
      <trkpt lat="40.678817" lon="-4.975450">
        <ele>2083.0</ele>
        <time>2018-09-02T13:15:21Z</time>
      </trkpt>
      <trkpt lat="40.678917" lon="-4.975333">
        <ele>2082.0</ele>
        <time>2018-09-02T13:15:22Z</time>
      </trkpt>
      <trkpt lat="40.679017" lon="-4.975233">
        <ele>2080.0</ele>
        <time>2018-09-02T13:15:23Z</time>
      </trkpt>
      <trkpt lat="40.679133" lon="-4.975117">
        <ele>2079.0</ele>
        <time>2018-09-02T13:15:24Z</time>
      </trkpt>
      <trkpt lat="40.679250" lon="-4.975000">
        <ele>2078.0</ele>
        <time>2018-09-02T13:15:25Z</time>
      </trkpt>
      <trkpt lat="40.679367" lon="-4.974900">
        <ele>2075.0</ele>
        <time>2018-09-02T13:15:26Z</time>
      </trkpt>
      <trkpt lat="40.679483" lon="-4.974817">
        <ele>2073.0</ele>
        <time>2018-09-02T13:15:27Z</time>
      </trkpt>
      <trkpt lat="40.679583" lon="-4.974717">
        <ele>2072.0</ele>
        <time>2018-09-02T13:15:28Z</time>
      </trkpt>
      <trkpt lat="40.679700" lon="-4.974633">
        <ele>2071.0</ele>
        <time>2018-09-02T13:15:29Z</time>
      </trkpt>
      <trkpt lat="40.679800" lon="-4.974550">
        <ele>2069.0</ele>
        <time>2018-09-02T13:15:30Z</time>
      </trkpt>
      <trkpt lat="40.679900" lon="-4.974450">
        <ele>2067.0</ele>
        <time>2018-09-02T13:15:31Z</time>
      </trkpt>
      <trkpt lat="40.680000" lon="-4.974367">
        <ele>2065.0</ele>
        <time>2018-09-02T13:15:32Z</time>
      </trkpt>
      <trkpt lat="40.680117" lon="-4.974283">
        <ele>2063.0</ele>
        <time>2018-09-02T13:15:33Z</time>
      </trkpt>
      <trkpt lat="40.680233" lon="-4.974217">
        <ele>2061.0</ele>
        <time>2018-09-02T13:15:34Z</time>
      </trkpt>
      <trkpt lat="40.680333" lon="-4.974133">
        <ele>2060.0</ele>
        <time>2018-09-02T13:15:35Z</time>
      </trkpt>
      <trkpt lat="40.680433" lon="-4.974017">
        <ele>2059.0</ele>
        <time>2018-09-02T13:15:36Z</time>
      </trkpt>
      <trkpt lat="40.680533" lon="-4.973900">
        <ele>2059.0</ele>
        <time>2018-09-02T13:15:37Z</time>
      </trkpt>
      <trkpt lat="40.680633" lon="-4.973767">
        <ele>2057.0</ele>
        <time>2018-09-02T13:15:38Z</time>
      </trkpt>
      <trkpt lat="40.680733" lon="-4.973633">
        <ele>2056.0</ele>
        <time>2018-09-02T13:15:39Z</time>
      </trkpt>
      <trkpt lat="40.680850" lon="-4.973517">
        <ele>2055.0</ele>
        <time>2018-09-02T13:15:40Z</time>
      </trkpt>
      <trkpt lat="40.680983" lon="-4.973433">
        <ele>2053.0</ele>
        <time>2018-09-02T13:15:41Z</time>
      </trkpt>
      <trkpt lat="40.681100" lon="-4.973333">
        <ele>2051.0</ele>
        <time>2018-09-02T13:15:42Z</time>
      </trkpt>
      <trkpt lat="40.681200" lon="-4.973250">
        <ele>2051.0</ele>
        <time>2018-09-02T13:15:43Z</time>
      </trkpt>
      <trkpt lat="40.681317" lon="-4.973167">
        <ele>2050.0</ele>
        <time>2018-09-02T13:15:44Z</time>
      </trkpt>
      <trkpt lat="40.681417" lon="-4.973067">
        <ele>2048.0</ele>
        <time>2018-09-02T13:15:45Z</time>
      </trkpt>
      <trkpt lat="40.681533" lon="-4.972967">
        <ele>2044.0</ele>
        <time>2018-09-02T13:15:46Z</time>
      </trkpt>
      <trkpt lat="40.681650" lon="-4.972867">
        <ele>2041.0</ele>
        <time>2018-09-02T13:15:47Z</time>
      </trkpt>
      <trkpt lat="40.681767" lon="-4.972767">
        <ele>2039.0</ele>
        <time>2018-09-02T13:15:48Z</time>
      </trkpt>
      <trkpt lat="40.681883" lon="-4.972650">
        <ele>2036.0</ele>
        <time>2018-09-02T13:15:49Z</time>
      </trkpt>
      <trkpt lat="40.682000" lon="-4.972533">
        <ele>2034.0</ele>
        <time>2018-09-02T13:15:50Z</time>
      </trkpt>
      <trkpt lat="40.682133" lon="-4.972417">
        <ele>2031.0</ele>
        <time>2018-09-02T13:15:51Z</time>
      </trkpt>
      <trkpt lat="40.682250" lon="-4.972317">
        <ele>2029.0</ele>
        <time>2018-09-02T13:15:52Z</time>
      </trkpt>
      <trkpt lat="40.682350" lon="-4.972200">
        <ele>2027.0</ele>
        <time>2018-09-02T13:15:53Z</time>
      </trkpt>
      <trkpt lat="40.682450" lon="-4.972100">
        <ele>2026.0</ele>
        <time>2018-09-02T13:15:54Z</time>
      </trkpt>
      <trkpt lat="40.682567" lon="-4.972000">
        <ele>2024.0</ele>
        <time>2018-09-02T13:15:55Z</time>
      </trkpt>
      <trkpt lat="40.682683" lon="-4.971900">
        <ele>2023.0</ele>
        <time>2018-09-02T13:15:56Z</time>
      </trkpt>
      <trkpt lat="40.682817" lon="-4.971783">
        <ele>2021.0</ele>
        <time>2018-09-02T13:15:57Z</time>
      </trkpt>
      <trkpt lat="40.682933" lon="-4.971683">
        <ele>2019.0</ele>
        <time>2018-09-02T13:15:58Z</time>
      </trkpt>
      <trkpt lat="40.683050" lon="-4.971583">
        <ele>2019.0</ele>
        <time>2018-09-02T13:15:59Z</time>
      </trkpt>
      <trkpt lat="40.683167" lon="-4.971500">
        <ele>2018.0</ele>
        <time>2018-09-02T13:16:00Z</time>
      </trkpt>
      <trkpt lat="40.683267" lon="-4.971400">
        <ele>2018.0</ele>
        <time>2018-09-02T13:16:01Z</time>
      </trkpt>
      <trkpt lat="40.683383" lon="-4.971300">
        <ele>2017.0</ele>
        <time>2018-09-02T13:16:02Z</time>
      </trkpt>
      <trkpt lat="40.683483" lon="-4.971200">
        <ele>2016.0</ele>
        <time>2018-09-02T13:16:03Z</time>
      </trkpt>
      <trkpt lat="40.683583" lon="-4.971117">
        <ele>2014.0</ele>
        <time>2018-09-02T13:16:04Z</time>
      </trkpt>
      <trkpt lat="40.683667" lon="-4.971033">
        <ele>2013.0</ele>
        <time>2018-09-02T13:16:05Z</time>
      </trkpt>
      <trkpt lat="40.683767" lon="-4.970933">
        <ele>2011.0</ele>
        <time>2018-09-02T13:16:06Z</time>
      </trkpt>
      <trkpt lat="40.683867" lon="-4.970850">
        <ele>2009.0</ele>
        <time>2018-09-02T13:16:07Z</time>
      </trkpt>
      <trkpt lat="40.683967" lon="-4.970767">
        <ele>2007.0</ele>
        <time>2018-09-02T13:16:08Z</time>
      </trkpt>
      <trkpt lat="40.684067" lon="-4.970683">
        <ele>2006.0</ele>
        <time>2018-09-02T13:16:09Z</time>
      </trkpt>
      <trkpt lat="40.684167" lon="-4.970617">
        <ele>2004.0</ele>
        <time>2018-09-02T13:16:10Z</time>
      </trkpt>
      <trkpt lat="40.684267" lon="-4.970533">
        <ele>2002.0</ele>
        <time>2018-09-02T13:16:11Z</time>
      </trkpt>
      <trkpt lat="40.684367" lon="-4.970450">
        <ele>1999.0</ele>
        <time>2018-09-02T13:16:12Z</time>
      </trkpt>
      <trkpt lat="40.684483" lon="-4.970367">
        <ele>1997.0</ele>
        <time>2018-09-02T13:16:13Z</time>
      </trkpt>
      <trkpt lat="40.684600" lon="-4.970283">
        <ele>1995.0</ele>
        <time>2018-09-02T13:16:14Z</time>
      </trkpt>
      <trkpt lat="40.684700" lon="-4.970200">
        <ele>1993.0</ele>
        <time>2018-09-02T13:16:15Z</time>
      </trkpt>
      <trkpt lat="40.684800" lon="-4.970117">
        <ele>1992.0</ele>
        <time>2018-09-02T13:16:16Z</time>
      </trkpt>
      <trkpt lat="40.684917" lon="-4.970033">
        <ele>1990.0</ele>
        <time>2018-09-02T13:16:17Z</time>
      </trkpt>
      <trkpt lat="40.685033" lon="-4.969967">
        <ele>1989.0</ele>
        <time>2018-09-02T13:16:18Z</time>
      </trkpt>
      <trkpt lat="40.685133" lon="-4.969883">
        <ele>1987.0</ele>
        <time>2018-09-02T13:16:19Z</time>
      </trkpt>
      <trkpt lat="40.685250" lon="-4.969800">
        <ele>1986.0</ele>
        <time>2018-09-02T13:16:20Z</time>
      </trkpt>
      <trkpt lat="40.685350" lon="-4.969717">
        <ele>1984.0</ele>
        <time>2018-09-02T13:16:21Z</time>
      </trkpt>
      <trkpt lat="40.685450" lon="-4.969633">
        <ele>1982.0</ele>
        <time>2018-09-02T13:16:22Z</time>
      </trkpt>
      <trkpt lat="40.685567" lon="-4.969533">
        <ele>1980.0</ele>
        <time>2018-09-02T13:16:23Z</time>
      </trkpt>
      <trkpt lat="40.685667" lon="-4.969433">
        <ele>1978.0</ele>
        <time>2018-09-02T13:16:24Z</time>
      </trkpt>
      <trkpt lat="40.685750" lon="-4.969333">
        <ele>1976.0</ele>
        <time>2018-09-02T13:16:25Z</time>
      </trkpt>
      <trkpt lat="40.685850" lon="-4.969233">
        <ele>1974.0</ele>
        <time>2018-09-02T13:16:26Z</time>
      </trkpt>
      <trkpt lat="40.685933" lon="-4.969133">
        <ele>1973.0</ele>
        <time>2018-09-02T13:16:27Z</time>
      </trkpt>
      <trkpt lat="40.686033" lon="-4.969033">
        <ele>1971.0</ele>
        <time>2018-09-02T13:16:28Z</time>
      </trkpt>
      <trkpt lat="40.686133" lon="-4.968933">
        <ele>1968.0</ele>
        <time>2018-09-02T13:16:29Z</time>
      </trkpt>
      <trkpt lat="40.686250" lon="-4.968833">
        <ele>1965.0</ele>
        <time>2018-09-02T13:16:30Z</time>
      </trkpt>
      <trkpt lat="40.686350" lon="-4.968733">
        <ele>1963.0</ele>
        <time>2018-09-02T13:16:31Z</time>
      </trkpt>
      <trkpt lat="40.686450" lon="-4.968617">
        <ele>1960.0</ele>
        <time>2018-09-02T13:16:32Z</time>
      </trkpt>
      <trkpt lat="40.686567" lon="-4.968483">
        <ele>1957.0</ele>
        <time>2018-09-02T13:16:33Z</time>
      </trkpt>
      <trkpt lat="40.686667" lon="-4.968367">
        <ele>1954.0</ele>
        <time>2018-09-02T13:16:34Z</time>
      </trkpt>
      <trkpt lat="40.686783" lon="-4.968250">
        <ele>1952.0</ele>
        <time>2018-09-02T13:16:35Z</time>
      </trkpt>
      <trkpt lat="40.686867" lon="-4.968133">
        <ele>1949.0</ele>
        <time>2018-09-02T13:16:36Z</time>
      </trkpt>
      <trkpt lat="40.686967" lon="-4.968017">
        <ele>1948.0</ele>
        <time>2018-09-02T13:16:37Z</time>
      </trkpt>
      <trkpt lat="40.687067" lon="-4.967900">
        <ele>1946.0</ele>
        <time>2018-09-02T13:16:38Z</time>
      </trkpt>
      <trkpt lat="40.687150" lon="-4.967783">
        <ele>1944.0</ele>
        <time>2018-09-02T13:16:39Z</time>
      </trkpt>
      <trkpt lat="40.687250" lon="-4.967683">
        <ele>1942.0</ele>
        <time>2018-09-02T13:16:40Z</time>
      </trkpt>
      <trkpt lat="40.687333" lon="-4.967583">
        <ele>1940.0</ele>
        <time>2018-09-02T13:16:41Z</time>
      </trkpt>
      <trkpt lat="40.687433" lon="-4.967483">
        <ele>1938.0</ele>
        <time>2018-09-02T13:16:42Z</time>
      </trkpt>
      <trkpt lat="40.687533" lon="-4.967383">
        <ele>1937.0</ele>
        <time>2018-09-02T13:16:43Z</time>
      </trkpt>
      <trkpt lat="40.687633" lon="-4.967300">
        <ele>1935.0</ele>
        <time>2018-09-02T13:16:44Z</time>
      </trkpt>
      <trkpt lat="40.687750" lon="-4.967200">
        <ele>1934.0</ele>
        <time>2018-09-02T13:16:45Z</time>
      </trkpt>
      <trkpt lat="40.687850" lon="-4.967117">
        <ele>1932.0</ele>
        <time>2018-09-02T13:16:46Z</time>
      </trkpt>
      <trkpt lat="40.687950" lon="-4.967017">
        <ele>1931.0</ele>
        <time>2018-09-02T13:16:47Z</time>
      </trkpt>
      <trkpt lat="40.688067" lon="-4.966933">
        <ele>1930.0</ele>
        <time>2018-09-02T13:16:48Z</time>
      </trkpt>
      <trkpt lat="40.688167" lon="-4.966850">
        <ele>1928.0</ele>
        <time>2018-09-02T13:16:49Z</time>
      </trkpt>
      <trkpt lat="40.688267" lon="-4.966767">
        <ele>1926.0</ele>
        <time>2018-09-02T13:16:50Z</time>
      </trkpt>
      <trkpt lat="40.688367" lon="-4.966667">
        <ele>1925.0</ele>
        <time>2018-09-02T13:16:51Z</time>
      </trkpt>
      <trkpt lat="40.688467" lon="-4.966583">
        <ele>1923.0</ele>
        <time>2018-09-02T13:16:52Z</time>
      </trkpt>
      <trkpt lat="40.688583" lon="-4.966500">
        <ele>1921.0</ele>
        <time>2018-09-02T13:16:53Z</time>
      </trkpt>
      <trkpt lat="40.688700" lon="-4.966417">
        <ele>1918.0</ele>
        <time>2018-09-02T13:16:54Z</time>
      </trkpt>
      <trkpt lat="40.688800" lon="-4.966333">
        <ele>1914.0</ele>
        <time>2018-09-02T13:16:55Z</time>
      </trkpt>
      <trkpt lat="40.688917" lon="-4.966250">
        <ele>1911.0</ele>
        <time>2018-09-02T13:16:56Z</time>
      </trkpt>
      <trkpt lat="40.689017" lon="-4.966150">
        <ele>1908.0</ele>
        <time>2018-09-02T13:16:57Z</time>
      </trkpt>
      <trkpt lat="40.689117" lon="-4.966067">
        <ele>1905.0</ele>
        <time>2018-09-02T13:16:58Z</time>
      </trkpt>
      <trkpt lat="40.689217" lon="-4.965967">
        <ele>1902.0</ele>
        <time>2018-09-02T13:16:59Z</time>
      </trkpt>
      <trkpt lat="40.689317" lon="-4.965867">
        <ele>1899.0</ele>
        <time>2018-09-02T13:17:00Z</time>
      </trkpt>
      <trkpt lat="40.689417" lon="-4.965767">
        <ele>1896.0</ele>
        <time>2018-09-02T13:17:01Z</time>
      </trkpt>
      <trkpt lat="40.689517" lon="-4.965683">
        <ele>1893.0</ele>
        <time>2018-09-02T13:17:02Z</time>
      </trkpt>
      <trkpt lat="40.689617" lon="-4.965600">
        <ele>1891.0</ele>
        <time>2018-09-02T13:17:03Z</time>
      </trkpt>
      <trkpt lat="40.689717" lon="-4.965517">
        <ele>1888.0</ele>
        <time>2018-09-02T13:17:04Z</time>
      </trkpt>
      <trkpt lat="40.689817" lon="-4.965433">
        <ele>1885.0</ele>
        <time>2018-09-02T13:17:05Z</time>
      </trkpt>
      <trkpt lat="40.689917" lon="-4.965350">
        <ele>1884.0</ele>
        <time>2018-09-02T13:17:06Z</time>
      </trkpt>
      <trkpt lat="40.689983" lon="-4.965250">
        <ele>1882.0</ele>
        <time>2018-09-02T13:17:07Z</time>
      </trkpt>
      <trkpt lat="40.690067" lon="-4.965167">
        <ele>1881.0</ele>
        <time>2018-09-02T13:17:08Z</time>
      </trkpt>
      <trkpt lat="40.690150" lon="-4.965083">
        <ele>1878.0</ele>
        <time>2018-09-02T13:17:09Z</time>
      </trkpt>
      <trkpt lat="40.690250" lon="-4.965017">
        <ele>1874.0</ele>
        <time>2018-09-02T13:17:10Z</time>
      </trkpt>
      <trkpt lat="40.690333" lon="-4.964933">
        <ele>1871.0</ele>
        <time>2018-09-02T13:17:11Z</time>
      </trkpt>
      <trkpt lat="40.690417" lon="-4.964833">
        <ele>1869.0</ele>
        <time>2018-09-02T13:17:12Z</time>
      </trkpt>
      <trkpt lat="40.690483" lon="-4.964733">
        <ele>1868.0</ele>
        <time>2018-09-02T13:17:13Z</time>
      </trkpt>
      <trkpt lat="40.690567" lon="-4.964650">
        <ele>1866.0</ele>
        <time>2018-09-02T13:17:14Z</time>
      </trkpt>
      <trkpt lat="40.690650" lon="-4.964583">
        <ele>1865.0</ele>
        <time>2018-09-02T13:17:15Z</time>
      </trkpt>
      <trkpt lat="40.690750" lon="-4.964533">
        <ele>1862.0</ele>
        <time>2018-09-02T13:17:16Z</time>
      </trkpt>
      <trkpt lat="40.690850" lon="-4.964483">
        <ele>1858.0</ele>
        <time>2018-09-02T13:17:17Z</time>
      </trkpt>
      <trkpt lat="40.690950" lon="-4.964433">
        <ele>1856.0</ele>
        <time>2018-09-02T13:17:18Z</time>
      </trkpt>
      <trkpt lat="40.691033" lon="-4.964367">
        <ele>1856.0</ele>
        <time>2018-09-02T13:17:19Z</time>
      </trkpt>
      <trkpt lat="40.691100" lon="-4.964283">
        <ele>1855.0</ele>
        <time>2018-09-02T13:17:20Z</time>
      </trkpt>
      <trkpt lat="40.691183" lon="-4.964200">
        <ele>1853.0</ele>
        <time>2018-09-02T13:17:21Z</time>
      </trkpt>
      <trkpt lat="40.691283" lon="-4.964100">
        <ele>1850.0</ele>
        <time>2018-09-02T13:17:22Z</time>
      </trkpt>
      <trkpt lat="40.691383" lon="-4.964017">
        <ele>1846.0</ele>
        <time>2018-09-02T13:17:23Z</time>
      </trkpt>
      <trkpt lat="40.691500" lon="-4.963917">
        <ele>1843.0</ele>
        <time>2018-09-02T13:17:24Z</time>
      </trkpt>
      <trkpt lat="40.691600" lon="-4.963800">
        <ele>1841.0</ele>
        <time>2018-09-02T13:17:25Z</time>
      </trkpt>
      <trkpt lat="40.691700" lon="-4.963683">
        <ele>1839.0</ele>
        <time>2018-09-02T13:17:26Z</time>
      </trkpt>
      <trkpt lat="40.691800" lon="-4.963550">
        <ele>1838.0</ele>
        <time>2018-09-02T13:17:27Z</time>
      </trkpt>
      <trkpt lat="40.691900" lon="-4.963417">
        <ele>1836.0</ele>
        <time>2018-09-02T13:17:28Z</time>
      </trkpt>
      <trkpt lat="40.692000" lon="-4.963283">
        <ele>1834.0</ele>
        <time>2018-09-02T13:17:29Z</time>
      </trkpt>
      <trkpt lat="40.692100" lon="-4.963150">
        <ele>1832.0</ele>
        <time>2018-09-02T13:17:30Z</time>
      </trkpt>
      <trkpt lat="40.692217" lon="-4.963033">
        <ele>1830.0</ele>
        <time>2018-09-02T13:17:31Z</time>
      </trkpt>
      <trkpt lat="40.692317" lon="-4.962900">
        <ele>1829.0</ele>
        <time>2018-09-02T13:17:32Z</time>
      </trkpt>
      <trkpt lat="40.692400" lon="-4.962783">
        <ele>1827.0</ele>
        <time>2018-09-02T13:17:33Z</time>
      </trkpt>
      <trkpt lat="40.692500" lon="-4.962650">
        <ele>1825.0</ele>
        <time>2018-09-02T13:17:34Z</time>
      </trkpt>
      <trkpt lat="40.692600" lon="-4.962517">
        <ele>1822.0</ele>
        <time>2018-09-02T13:17:35Z</time>
      </trkpt>
      <trkpt lat="40.692700" lon="-4.962383">
        <ele>1820.0</ele>
        <time>2018-09-02T13:17:36Z</time>
      </trkpt>
      <trkpt lat="40.692800" lon="-4.962250">
        <ele>1817.0</ele>
        <time>2018-09-02T13:17:37Z</time>
      </trkpt>
      <trkpt lat="40.692900" lon="-4.962117">
        <ele>1814.0</ele>
        <time>2018-09-02T13:17:38Z</time>
      </trkpt>
      <trkpt lat="40.692983" lon="-4.962000">
        <ele>1812.0</ele>
        <time>2018-09-02T13:17:39Z</time>
      </trkpt>
      <trkpt lat="40.693067" lon="-4.961883">
        <ele>1811.0</ele>
        <time>2018-09-02T13:17:40Z</time>
      </trkpt>
      <trkpt lat="40.693150" lon="-4.961783">
        <ele>1809.0</ele>
        <time>2018-09-02T13:17:41Z</time>
      </trkpt>
      <trkpt lat="40.693233" lon="-4.961667">
        <ele>1806.0</ele>
        <time>2018-09-02T13:17:42Z</time>
      </trkpt>
      <trkpt lat="40.693333" lon="-4.961533">
        <ele>1802.0</ele>
        <time>2018-09-02T13:17:43Z</time>
      </trkpt>
      <trkpt lat="40.693433" lon="-4.961417">
        <ele>1799.0</ele>
        <time>2018-09-02T13:17:44Z</time>
      </trkpt>
      <trkpt lat="40.693550" lon="-4.961300">
        <ele>1795.0</ele>
        <time>2018-09-02T13:17:45Z</time>
      </trkpt>
      <trkpt lat="40.693650" lon="-4.961217">
        <ele>1792.0</ele>
        <time>2018-09-02T13:17:46Z</time>
      </trkpt>
      <trkpt lat="40.693750" lon="-4.961133">
        <ele>1790.0</ele>
        <time>2018-09-02T13:17:47Z</time>
      </trkpt>
      <trkpt lat="40.693850" lon="-4.961050">
        <ele>1787.0</ele>
        <time>2018-09-02T13:17:48Z</time>
      </trkpt>
      <trkpt lat="40.693950" lon="-4.960950">
        <ele>1784.0</ele>
        <time>2018-09-02T13:17:49Z</time>
      </trkpt>
      <trkpt lat="40.694033" lon="-4.960867">
        <ele>1781.0</ele>
        <time>2018-09-02T13:17:50Z</time>
      </trkpt>
      <trkpt lat="40.694133" lon="-4.960800">
        <ele>1778.0</ele>
        <time>2018-09-02T13:17:51Z</time>
      </trkpt>
      <trkpt lat="40.694233" lon="-4.960717">
        <ele>1775.0</ele>
        <time>2018-09-02T13:17:52Z</time>
      </trkpt>
      <trkpt lat="40.694333" lon="-4.960650">
        <ele>1773.0</ele>
        <time>2018-09-02T13:17:53Z</time>
      </trkpt>
      <trkpt lat="40.694417" lon="-4.960583">
        <ele>1770.0</ele>
        <time>2018-09-02T13:17:54Z</time>
      </trkpt>
      <trkpt lat="40.694517" lon="-4.960500">
        <ele>1768.0</ele>
        <time>2018-09-02T13:17:55Z</time>
      </trkpt>
      <trkpt lat="40.694617" lon="-4.960433">
        <ele>1765.0</ele>
        <time>2018-09-02T13:17:56Z</time>
      </trkpt>
      <trkpt lat="40.694700" lon="-4.960367">
        <ele>1763.0</ele>
        <time>2018-09-02T13:17:57Z</time>
      </trkpt>
      <trkpt lat="40.694800" lon="-4.960300">
        <ele>1760.0</ele>
        <time>2018-09-02T13:17:58Z</time>
      </trkpt>
      <trkpt lat="40.694900" lon="-4.960233">
        <ele>1757.0</ele>
        <time>2018-09-02T13:17:59Z</time>
      </trkpt>
      <trkpt lat="40.695000" lon="-4.960150">
        <ele>1754.0</ele>
        <time>2018-09-02T13:18:00Z</time>
      </trkpt>
      <trkpt lat="40.695117" lon="-4.960083">
        <ele>1752.0</ele>
        <time>2018-09-02T13:18:01Z</time>
      </trkpt>
      <trkpt lat="40.695217" lon="-4.960000">
        <ele>1751.0</ele>
        <time>2018-09-02T13:18:02Z</time>
      </trkpt>
      <trkpt lat="40.695317" lon="-4.959933">
        <ele>1749.0</ele>
        <time>2018-09-02T13:18:03Z</time>
      </trkpt>
      <trkpt lat="40.695417" lon="-4.959850">
        <ele>1748.0</ele>
        <time>2018-09-02T13:18:04Z</time>
      </trkpt>
      <trkpt lat="40.695517" lon="-4.959767">
        <ele>1747.0</ele>
        <time>2018-09-02T13:18:05Z</time>
      </trkpt>
      <trkpt lat="40.695617" lon="-4.959683">
        <ele>1745.0</ele>
        <time>2018-09-02T13:18:06Z</time>
      </trkpt>
      <trkpt lat="40.695717" lon="-4.959583">
        <ele>1744.0</ele>
        <time>2018-09-02T13:18:07Z</time>
      </trkpt>
      <trkpt lat="40.695817" lon="-4.959517">
        <ele>1743.0</ele>
        <time>2018-09-02T13:18:08Z</time>
      </trkpt>
      <trkpt lat="40.695917" lon="-4.959433">
        <ele>1742.0</ele>
        <time>2018-09-02T13:18:09Z</time>
      </trkpt>
      <trkpt lat="40.696017" lon="-4.959350">
        <ele>1741.0</ele>
        <time>2018-09-02T13:18:10Z</time>
      </trkpt>
      <trkpt lat="40.696117" lon="-4.959267">
        <ele>1740.0</ele>
        <time>2018-09-02T13:18:11Z</time>
      </trkpt>
      <trkpt lat="40.696200" lon="-4.959183">
        <ele>1739.0</ele>
        <time>2018-09-02T13:18:12Z</time>
      </trkpt>
      <trkpt lat="40.696317" lon="-4.959117">
        <ele>1737.0</ele>
        <time>2018-09-02T13:18:13Z</time>
      </trkpt>
      <trkpt lat="40.696417" lon="-4.959033">
        <ele>1735.0</ele>
        <time>2018-09-02T13:18:14Z</time>
      </trkpt>
      <trkpt lat="40.696517" lon="-4.958950">
        <ele>1734.0</ele>
        <time>2018-09-02T13:18:15Z</time>
      </trkpt>
      <trkpt lat="40.696633" lon="-4.958883">
        <ele>1732.0</ele>
        <time>2018-09-02T13:18:16Z</time>
      </trkpt>
      <trkpt lat="40.696717" lon="-4.958800">
        <ele>1730.0</ele>
        <time>2018-09-02T13:18:17Z</time>
      </trkpt>
      <trkpt lat="40.696817" lon="-4.958700">
        <ele>1728.0</ele>
        <time>2018-09-02T13:18:18Z</time>
      </trkpt>
      <trkpt lat="40.696917" lon="-4.958617">
        <ele>1724.0</ele>
        <time>2018-09-02T13:18:19Z</time>
      </trkpt>
      <trkpt lat="40.697017" lon="-4.958533">
        <ele>1722.0</ele>
        <time>2018-09-02T13:18:20Z</time>
      </trkpt>
      <trkpt lat="40.697117" lon="-4.958433">
        <ele>1719.0</ele>
        <time>2018-09-02T13:18:21Z</time>
      </trkpt>
      <trkpt lat="40.697217" lon="-4.958367">
        <ele>1717.0</ele>
        <time>2018-09-02T13:18:22Z</time>
      </trkpt>
      <trkpt lat="40.697317" lon="-4.958300">
        <ele>1714.0</ele>
        <time>2018-09-02T13:18:23Z</time>
      </trkpt>
      <trkpt lat="40.697417" lon="-4.958233">
        <ele>1710.0</ele>
        <time>2018-09-02T13:18:24Z</time>
      </trkpt>
      <trkpt lat="40.697517" lon="-4.958150">
        <ele>1706.0</ele>
        <time>2018-09-02T13:18:25Z</time>
      </trkpt>
      <trkpt lat="40.697617" lon="-4.958067">
        <ele>1702.0</ele>
        <time>2018-09-02T13:18:26Z</time>
      </trkpt>
      <trkpt lat="40.697717" lon="-4.957983">
        <ele>1699.0</ele>
        <time>2018-09-02T13:18:27Z</time>
      </trkpt>
      <trkpt lat="40.697817" lon="-4.957883">
        <ele>1695.0</ele>
        <time>2018-09-02T13:18:28Z</time>
      </trkpt>
      <trkpt lat="40.697917" lon="-4.957800">
        <ele>1692.0</ele>
        <time>2018-09-02T13:18:29Z</time>
      </trkpt>
      <trkpt lat="40.698000" lon="-4.957717">
        <ele>1688.0</ele>
        <time>2018-09-02T13:18:30Z</time>
      </trkpt>
      <trkpt lat="40.698317" lon="-4.957433">
        <ele>1679.0</ele>
        <time>2018-09-02T13:18:33Z</time>
      </trkpt>
      <trkpt lat="40.698433" lon="-4.957333">
        <ele>1675.0</ele>
        <time>2018-09-02T13:18:34Z</time>
      </trkpt>
      <trkpt lat="40.698633" lon="-4.957150">
        <ele>1669.0</ele>
        <time>2018-09-02T13:18:36Z</time>
      </trkpt>
      <trkpt lat="40.698750" lon="-4.957050">
        <ele>1666.0</ele>
        <time>2018-09-02T13:18:37Z</time>
      </trkpt>
      <trkpt lat="40.698850" lon="-4.956933">
        <ele>1663.0</ele>
        <time>2018-09-02T13:18:38Z</time>
      </trkpt>
      <trkpt lat="40.698950" lon="-4.956833">
        <ele>1660.0</ele>
        <time>2018-09-02T13:18:39Z</time>
      </trkpt>
      <trkpt lat="40.699050" lon="-4.956733">
        <ele>1657.0</ele>
        <time>2018-09-02T13:18:40Z</time>
      </trkpt>
      <trkpt lat="40.699150" lon="-4.956617">
        <ele>1653.0</ele>
        <time>2018-09-02T13:18:41Z</time>
      </trkpt>
      <trkpt lat="40.699233" lon="-4.956517">
        <ele>1650.0</ele>
        <time>2018-09-02T13:18:42Z</time>
      </trkpt>
      <trkpt lat="40.699350" lon="-4.956400">
        <ele>1646.0</ele>
        <time>2018-09-02T13:18:43Z</time>
      </trkpt>
      <trkpt lat="40.699450" lon="-4.956283">
        <ele>1642.0</ele>
        <time>2018-09-02T13:18:44Z</time>
      </trkpt>
      <trkpt lat="40.699550" lon="-4.956183">
        <ele>1639.0</ele>
        <time>2018-09-02T13:18:45Z</time>
      </trkpt>
      <trkpt lat="40.699650" lon="-4.956067">
        <ele>1636.0</ele>
        <time>2018-09-02T13:18:46Z</time>
      </trkpt>
      <trkpt lat="40.699750" lon="-4.955967">
        <ele>1635.0</ele>
        <time>2018-09-02T13:18:47Z</time>
      </trkpt>
      <trkpt lat="40.699833" lon="-4.955867">
        <ele>1632.0</ele>
        <time>2018-09-02T13:18:48Z</time>
      </trkpt>
      <trkpt lat="40.699950" lon="-4.955783">
        <ele>1629.0</ele>
        <time>2018-09-02T13:18:49Z</time>
      </trkpt>
      <trkpt lat="40.700050" lon="-4.955683">
        <ele>1626.0</ele>
        <time>2018-09-02T13:18:50Z</time>
      </trkpt>
      <trkpt lat="40.700150" lon="-4.955583">
        <ele>1622.0</ele>
        <time>2018-09-02T13:18:51Z</time>
      </trkpt>
      <trkpt lat="40.700267" lon="-4.955500">
        <ele>1620.0</ele>
        <time>2018-09-02T13:18:52Z</time>
      </trkpt>
      <trkpt lat="40.700367" lon="-4.955400">
        <ele>1617.0</ele>
        <time>2018-09-02T13:18:53Z</time>
      </trkpt>
      <trkpt lat="40.700467" lon="-4.955300">
        <ele>1614.0</ele>
        <time>2018-09-02T13:18:54Z</time>
      </trkpt>
      <trkpt lat="40.700567" lon="-4.955200">
        <ele>1611.0</ele>
        <time>2018-09-02T13:18:55Z</time>
      </trkpt>
      <trkpt lat="40.700667" lon="-4.955100">
        <ele>1608.0</ele>
        <time>2018-09-02T13:18:56Z</time>
      </trkpt>
      <trkpt lat="40.700767" lon="-4.954983">
        <ele>1605.0</ele>
        <time>2018-09-02T13:18:57Z</time>
      </trkpt>
      <trkpt lat="40.700867" lon="-4.954867">
        <ele>1602.0</ele>
        <time>2018-09-02T13:18:58Z</time>
      </trkpt>
      <trkpt lat="40.700983" lon="-4.954750">
        <ele>1599.0</ele>
        <time>2018-09-02T13:18:59Z</time>
      </trkpt>
      <trkpt lat="40.701100" lon="-4.954633">
        <ele>1596.0</ele>
        <time>2018-09-02T13:19:00Z</time>
      </trkpt>
      <trkpt lat="40.701217" lon="-4.954517">
        <ele>1594.0</ele>
        <time>2018-09-02T13:19:01Z</time>
      </trkpt>
      <trkpt lat="40.701333" lon="-4.954417">
        <ele>1592.0</ele>
        <time>2018-09-02T13:19:02Z</time>
      </trkpt>
      <trkpt lat="40.701433" lon="-4.954317">
        <ele>1591.0</ele>
        <time>2018-09-02T13:19:03Z</time>
      </trkpt>
      <trkpt lat="40.701517" lon="-4.954200">
        <ele>1590.0</ele>
        <time>2018-09-02T13:19:04Z</time>
      </trkpt>
      <trkpt lat="40.701617" lon="-4.954100">
        <ele>1588.0</ele>
        <time>2018-09-02T13:19:05Z</time>
      </trkpt>
      <trkpt lat="40.701700" lon="-4.953967">
        <ele>1586.0</ele>
        <time>2018-09-02T13:19:06Z</time>
      </trkpt>
      <trkpt lat="40.701800" lon="-4.953833">
        <ele>1584.0</ele>
        <time>2018-09-02T13:19:07Z</time>
      </trkpt>
      <trkpt lat="40.701900" lon="-4.953717">
        <ele>1583.0</ele>
        <time>2018-09-02T13:19:08Z</time>
      </trkpt>
      <trkpt lat="40.702000" lon="-4.953617">
        <ele>1582.0</ele>
        <time>2018-09-02T13:19:09Z</time>
      </trkpt>
      <trkpt lat="40.702067" lon="-4.953500">
        <ele>1581.0</ele>
        <time>2018-09-02T13:19:10Z</time>
      </trkpt>
      <trkpt lat="40.702133" lon="-4.953383">
        <ele>1580.0</ele>
        <time>2018-09-02T13:19:11Z</time>
      </trkpt>
      <trkpt lat="40.702217" lon="-4.953250">
        <ele>1578.0</ele>
        <time>2018-09-02T13:19:12Z</time>
      </trkpt>
      <trkpt lat="40.702300" lon="-4.953117">
        <ele>1576.0</ele>
        <time>2018-09-02T13:19:13Z</time>
      </trkpt>
      <trkpt lat="40.702383" lon="-4.952983">
        <ele>1574.0</ele>
        <time>2018-09-02T13:19:14Z</time>
      </trkpt>
      <trkpt lat="40.702450" lon="-4.952867">
        <ele>1573.0</ele>
        <time>2018-09-02T13:19:15Z</time>
      </trkpt>
      <trkpt lat="40.702533" lon="-4.952733">
        <ele>1571.0</ele>
        <time>2018-09-02T13:19:16Z</time>
      </trkpt>
      <trkpt lat="40.702600" lon="-4.952600">
        <ele>1570.0</ele>
        <time>2018-09-02T13:19:17Z</time>
      </trkpt>
      <trkpt lat="40.702683" lon="-4.952450">
        <ele>1568.0</ele>
        <time>2018-09-02T13:19:18Z</time>
      </trkpt>
      <trkpt lat="40.702750" lon="-4.952283">
        <ele>1566.0</ele>
        <time>2018-09-02T13:19:19Z</time>
      </trkpt>
      <trkpt lat="40.702817" lon="-4.952133">
        <ele>1564.0</ele>
        <time>2018-09-02T13:19:20Z</time>
      </trkpt>
      <trkpt lat="40.702900" lon="-4.951967">
        <ele>1562.0</ele>
        <time>2018-09-02T13:19:21Z</time>
      </trkpt>
      <trkpt lat="40.703067" lon="-4.951667">
        <ele>1558.0</ele>
        <time>2018-09-02T13:19:23Z</time>
      </trkpt>
      <trkpt lat="40.703167" lon="-4.951517">
        <ele>1555.0</ele>
        <time>2018-09-02T13:19:24Z</time>
      </trkpt>
      <trkpt lat="40.703283" lon="-4.951400">
        <ele>1554.0</ele>
        <time>2018-09-02T13:19:25Z</time>
      </trkpt>
      <trkpt lat="40.703383" lon="-4.951283">
        <ele>1552.0</ele>
        <time>2018-09-02T13:19:26Z</time>
      </trkpt>
      <trkpt lat="40.703500" lon="-4.951183">
        <ele>1550.0</ele>
        <time>2018-09-02T13:19:27Z</time>
      </trkpt>
      <trkpt lat="40.703600" lon="-4.951083">
        <ele>1548.0</ele>
        <time>2018-09-02T13:19:28Z</time>
      </trkpt>
      <trkpt lat="40.703700" lon="-4.950983">
        <ele>1545.0</ele>
        <time>2018-09-02T13:19:29Z</time>
      </trkpt>
      <trkpt lat="40.703817" lon="-4.950867">
        <ele>1543.0</ele>
        <time>2018-09-02T13:19:30Z</time>
      </trkpt>
      <trkpt lat="40.703917" lon="-4.950750">
        <ele>1541.0</ele>
        <time>2018-09-02T13:19:31Z</time>
      </trkpt>
      <trkpt lat="40.704033" lon="-4.950650">
        <ele>1538.0</ele>
        <time>2018-09-02T13:19:32Z</time>
      </trkpt>
      <trkpt lat="40.704150" lon="-4.950533">
        <ele>1535.0</ele>
        <time>2018-09-02T13:19:33Z</time>
      </trkpt>
      <trkpt lat="40.704267" lon="-4.950433">
        <ele>1533.0</ele>
        <time>2018-09-02T13:19:34Z</time>
      </trkpt>
      <trkpt lat="40.704367" lon="-4.950333">
        <ele>1532.0</ele>
        <time>2018-09-02T13:19:35Z</time>
      </trkpt>
      <trkpt lat="40.704467" lon="-4.950217">
        <ele>1530.0</ele>
        <time>2018-09-02T13:19:36Z</time>
      </trkpt>
      <trkpt lat="40.704567" lon="-4.950100">
        <ele>1527.0</ele>
        <time>2018-09-02T13:19:37Z</time>
      </trkpt>
      <trkpt lat="40.704667" lon="-4.949967">
        <ele>1525.0</ele>
        <time>2018-09-02T13:19:38Z</time>
      </trkpt>
      <trkpt lat="40.704767" lon="-4.949817">
        <ele>1522.0</ele>
        <time>2018-09-02T13:19:39Z</time>
      </trkpt>
      <trkpt lat="40.704867" lon="-4.949667">
        <ele>1519.0</ele>
        <time>2018-09-02T13:19:40Z</time>
      </trkpt>
      <trkpt lat="40.704967" lon="-4.949517">
        <ele>1517.0</ele>
        <time>2018-09-02T13:19:41Z</time>
      </trkpt>
      <trkpt lat="40.705050" lon="-4.949383">
        <ele>1516.0</ele>
        <time>2018-09-02T13:19:42Z</time>
      </trkpt>
      <trkpt lat="40.705133" lon="-4.949233">
        <ele>1514.0</ele>
        <time>2018-09-02T13:19:43Z</time>
      </trkpt>
      <trkpt lat="40.705233" lon="-4.949083">
        <ele>1512.0</ele>
        <time>2018-09-02T13:19:44Z</time>
      </trkpt>
      <trkpt lat="40.705333" lon="-4.948950">
        <ele>1511.0</ele>
        <time>2018-09-02T13:19:45Z</time>
      </trkpt>
      <trkpt lat="40.705417" lon="-4.948817">
        <ele>1509.0</ele>
        <time>2018-09-02T13:19:46Z</time>
      </trkpt>
      <trkpt lat="40.705517" lon="-4.948683">
        <ele>1508.0</ele>
        <time>2018-09-02T13:19:47Z</time>
      </trkpt>
      <trkpt lat="40.705633" lon="-4.948550">
        <ele>1507.0</ele>
        <time>2018-09-02T13:19:48Z</time>
      </trkpt>
      <trkpt lat="40.705733" lon="-4.948400">
        <ele>1507.0</ele>
        <time>2018-09-02T13:19:49Z</time>
      </trkpt>
      <trkpt lat="40.705833" lon="-4.948250">
        <ele>1507.0</ele>
        <time>2018-09-02T13:19:50Z</time>
      </trkpt>
      <trkpt lat="40.705917" lon="-4.948083">
        <ele>1507.0</ele>
        <time>2018-09-02T13:19:51Z</time>
      </trkpt>
      <trkpt lat="40.706017" lon="-4.947933">
        <ele>1507.0</ele>
        <time>2018-09-02T13:19:52Z</time>
      </trkpt>
      <trkpt lat="40.706117" lon="-4.947783">
        <ele>1507.0</ele>
        <time>2018-09-02T13:19:53Z</time>
      </trkpt>
      <trkpt lat="40.706333" lon="-4.947500">
        <ele>1507.0</ele>
        <time>2018-09-02T13:19:55Z</time>
      </trkpt>
      <trkpt lat="40.706433" lon="-4.947367">
        <ele>1506.0</ele>
        <time>2018-09-02T13:19:56Z</time>
      </trkpt>
      <trkpt lat="40.706533" lon="-4.947233">
        <ele>1505.0</ele>
        <time>2018-09-02T13:19:57Z</time>
      </trkpt>
      <trkpt lat="40.706650" lon="-4.947117">
        <ele>1503.0</ele>
        <time>2018-09-02T13:19:58Z</time>
      </trkpt>
      <trkpt lat="40.706783" lon="-4.947017">
        <ele>1502.0</ele>
        <time>2018-09-02T13:19:59Z</time>
      </trkpt>
      <trkpt lat="40.706917" lon="-4.946933">
        <ele>1500.0</ele>
        <time>2018-09-02T13:20:00Z</time>
      </trkpt>
      <trkpt lat="40.707033" lon="-4.946850">
        <ele>1499.0</ele>
        <time>2018-09-02T13:20:01Z</time>
      </trkpt>
      <trkpt lat="40.707150" lon="-4.946783">
        <ele>1497.0</ele>
        <time>2018-09-02T13:20:02Z</time>
      </trkpt>
      <trkpt lat="40.707267" lon="-4.946733">
        <ele>1496.0</ele>
        <time>2018-09-02T13:20:03Z</time>
      </trkpt>
      <trkpt lat="40.707383" lon="-4.946683">
        <ele>1495.0</ele>
        <time>2018-09-02T13:20:04Z</time>
      </trkpt>
      <trkpt lat="40.707500" lon="-4.946633">
        <ele>1494.0</ele>
        <time>2018-09-02T13:20:05Z</time>
      </trkpt>
      <trkpt lat="40.707617" lon="-4.946583">
        <ele>1492.0</ele>
        <time>2018-09-02T13:20:06Z</time>
      </trkpt>
      <trkpt lat="40.707717" lon="-4.946517">
        <ele>1492.0</ele>
        <time>2018-09-02T13:20:07Z</time>
      </trkpt>
      <trkpt lat="40.707833" lon="-4.946450">
        <ele>1490.0</ele>
        <time>2018-09-02T13:20:08Z</time>
      </trkpt>
      <trkpt lat="40.707950" lon="-4.946383">
        <ele>1489.0</ele>
        <time>2018-09-02T13:20:09Z</time>
      </trkpt>
      <trkpt lat="40.708050" lon="-4.946333">
        <ele>1488.0</ele>
        <time>2018-09-02T13:20:10Z</time>
      </trkpt>
      <trkpt lat="40.708167" lon="-4.946300">
        <ele>1486.0</ele>
        <time>2018-09-02T13:20:11Z</time>
      </trkpt>
      <trkpt lat="40.708267" lon="-4.946267">
        <ele>1484.0</ele>
        <time>2018-09-02T13:20:12Z</time>
      </trkpt>
      <trkpt lat="40.708383" lon="-4.946233">
        <ele>1482.0</ele>
        <time>2018-09-02T13:20:13Z</time>
      </trkpt>
      <trkpt lat="40.708500" lon="-4.946167">
        <ele>1481.0</ele>
        <time>2018-09-02T13:20:14Z</time>
      </trkpt>
      <trkpt lat="40.708617" lon="-4.946100">
        <ele>1480.0</ele>
        <time>2018-09-02T13:20:15Z</time>
      </trkpt>
      <trkpt lat="40.708717" lon="-4.946017">
        <ele>1479.0</ele>
        <time>2018-09-02T13:20:16Z</time>
      </trkpt>
      <trkpt lat="40.708817" lon="-4.945933">
        <ele>1478.0</ele>
        <time>2018-09-02T13:20:17Z</time>
      </trkpt>
      <trkpt lat="40.708933" lon="-4.945833">
        <ele>1477.0</ele>
        <time>2018-09-02T13:20:18Z</time>
      </trkpt>
      <trkpt lat="40.709033" lon="-4.945700">
        <ele>1476.0</ele>
        <time>2018-09-02T13:20:19Z</time>
      </trkpt>
      <trkpt lat="40.709133" lon="-4.945567">
        <ele>1475.0</ele>
        <time>2018-09-02T13:20:20Z</time>
      </trkpt>
      <trkpt lat="40.709233" lon="-4.945433">
        <ele>1474.0</ele>
        <time>2018-09-02T13:20:21Z</time>
      </trkpt>
      <trkpt lat="40.709333" lon="-4.945317">
        <ele>1473.0</ele>
        <time>2018-09-02T13:20:22Z</time>
      </trkpt>
      <trkpt lat="40.709433" lon="-4.945217">
        <ele>1472.0</ele>
        <time>2018-09-02T13:20:23Z</time>
      </trkpt>
      <trkpt lat="40.709533" lon="-4.945100">
        <ele>1471.0</ele>
        <time>2018-09-02T13:20:24Z</time>
      </trkpt>
      <trkpt lat="40.709633" lon="-4.944983">
        <ele>1471.0</ele>
        <time>2018-09-02T13:20:25Z</time>
      </trkpt>
      <trkpt lat="40.709733" lon="-4.944867">
        <ele>1470.0</ele>
        <time>2018-09-02T13:20:26Z</time>
      </trkpt>
      <trkpt lat="40.709817" lon="-4.944750">
        <ele>1469.0</ele>
        <time>2018-09-02T13:20:27Z</time>
      </trkpt>
      <trkpt lat="40.709900" lon="-4.944650">
        <ele>1468.0</ele>
        <time>2018-09-02T13:20:28Z</time>
      </trkpt>
      <trkpt lat="40.710000" lon="-4.944533">
        <ele>1466.0</ele>
        <time>2018-09-02T13:20:29Z</time>
      </trkpt>
      <trkpt lat="40.710200" lon="-4.944283">
        <ele>1463.0</ele>
        <time>2018-09-02T13:20:31Z</time>
      </trkpt>
      <trkpt lat="40.710300" lon="-4.944117">
        <ele>1461.0</ele>
        <time>2018-09-02T13:20:32Z</time>
      </trkpt>
      <trkpt lat="40.710350" lon="-4.943933">
        <ele>1459.0</ele>
        <time>2018-09-02T13:20:33Z</time>
      </trkpt>
      <trkpt lat="40.710367" lon="-4.943733">
        <ele>1457.0</ele>
        <time>2018-09-02T13:20:34Z</time>
      </trkpt>
      <trkpt lat="40.710333" lon="-4.943583">
        <ele>1455.0</ele>
        <time>2018-09-02T13:20:35Z</time>
      </trkpt>
      <trkpt lat="40.710283" lon="-4.943450">
        <ele>1454.0</ele>
        <time>2018-09-02T13:20:36Z</time>
      </trkpt>
      <trkpt lat="40.710250" lon="-4.943333">
        <ele>1454.0</ele>
        <time>2018-09-02T13:20:37Z</time>
      </trkpt>
      <trkpt lat="40.710183" lon="-4.943233">
        <ele>1454.0</ele>
        <time>2018-09-02T13:20:38Z</time>
      </trkpt>
      <trkpt lat="40.710133" lon="-4.943133">
        <ele>1453.0</ele>
        <time>2018-09-02T13:20:39Z</time>
      </trkpt>
      <trkpt lat="40.710067" lon="-4.943050">
        <ele>1452.0</ele>
        <time>2018-09-02T13:20:40Z</time>
      </trkpt>
      <trkpt lat="40.710000" lon="-4.942967">
        <ele>1451.0</ele>
        <time>2018-09-02T13:20:41Z</time>
      </trkpt>
      <trkpt lat="40.709933" lon="-4.942950">
        <ele>1451.0</ele>
        <time>2018-09-02T13:20:42Z</time>
      </trkpt>
      <trkpt lat="40.709883" lon="-4.942950">
        <ele>1450.0</ele>
        <time>2018-09-02T13:20:43Z</time>
      </trkpt>
      <trkpt lat="40.709833" lon="-4.942967">
        <ele>1450.0</ele>
        <time>2018-09-02T13:20:44Z</time>
      </trkpt>
      <trkpt lat="40.709817" lon="-4.942983">
        <ele>1451.0</ele>
        <time>2018-09-02T13:20:45Z</time>
      </trkpt>
      <trkpt lat="40.709800" lon="-4.942983">
        <ele>1452.0</ele>
        <time>2018-09-02T13:20:46Z</time>
      </trkpt>
      <trkpt lat="40.709783" lon="-4.942983">
        <ele>1452.0</ele>
        <time>2018-09-02T13:20:47Z</time>
      </trkpt>
      <trkpt lat="40.709750" lon="-4.943000">
        <ele>1452.0</ele>
        <time>2018-09-02T13:20:48Z</time>
      </trkpt>
      <trkpt lat="40.709700" lon="-4.943050">
        <ele>1451.0</ele>
        <time>2018-09-02T13:20:50Z</time>
      </trkpt>
      <trkpt lat="40.709667" lon="-4.943050">
        <ele>1450.0</ele>
        <time>2018-09-02T13:20:51Z</time>
      </trkpt>
      <trkpt lat="40.709650" lon="-4.943050">
        <ele>1450.0</ele>
        <time>2018-09-02T13:20:52Z</time>
      </trkpt>
      <trkpt lat="40.709617" lon="-4.943050">
        <ele>1449.0</ele>
        <time>2018-09-02T13:20:53Z</time>
      </trkpt>
      <trkpt lat="40.709600" lon="-4.943083">
        <ele>1446.0</ele>
        <time>2018-09-02T13:20:54Z</time>
      </trkpt>
      <trkpt lat="40.709567" lon="-4.943117">
        <ele>1443.0</ele>
        <time>2018-09-02T13:20:55Z</time>
      </trkpt>
      <trkpt lat="40.709533" lon="-4.943167">
        <ele>1441.0</ele>
        <time>2018-09-02T13:20:56Z</time>
      </trkpt>
      <trkpt lat="40.709533" lon="-4.943200">
        <ele>1439.0</ele>
        <time>2018-09-02T13:20:57Z</time>
      </trkpt>
      <trkpt lat="40.709517" lon="-4.943233">
        <ele>1441.0</ele>
        <time>2018-09-02T13:20:58Z</time>
      </trkpt>
      <trkpt lat="40.709517" lon="-4.943250">
        <ele>1440.0</ele>
        <time>2018-09-02T13:20:59Z</time>
      </trkpt>
      <trkpt lat="40.709500" lon="-4.943267">
        <ele>1440.0</ele>
        <time>2018-09-02T13:21:00Z</time>
      </trkpt>
      <trkpt lat="40.709483" lon="-4.943283">
        <ele>1438.0</ele>
        <time>2018-09-02T13:21:01Z</time>
      </trkpt>
      <trkpt lat="40.709450" lon="-4.943300">
        <ele>1436.0</ele>
        <time>2018-09-02T13:21:02Z</time>
      </trkpt>
      <trkpt lat="40.709400" lon="-4.943350">
        <ele>1434.0</ele>
        <time>2018-09-02T13:21:03Z</time>
      </trkpt>
      <trkpt lat="40.709367" lon="-4.943400">
        <ele>1434.0</ele>
        <time>2018-09-02T13:21:04Z</time>
      </trkpt>
      <trkpt lat="40.709317" lon="-4.943433">
        <ele>1432.0</ele>
        <time>2018-09-02T13:21:05Z</time>
      </trkpt>
      <trkpt lat="40.709300" lon="-4.943467">
        <ele>1431.0</ele>
        <time>2018-09-02T13:21:06Z</time>
      </trkpt>
      <trkpt lat="40.709267" lon="-4.943517">
        <ele>1430.0</ele>
        <time>2018-09-02T13:21:07Z</time>
      </trkpt>
      <trkpt lat="40.709267" lon="-4.943567">
        <ele>1429.0</ele>
        <time>2018-09-02T13:21:08Z</time>
      </trkpt>
      <trkpt lat="40.709267" lon="-4.943633">
        <ele>1428.0</ele>
        <time>2018-09-02T13:21:09Z</time>
      </trkpt>
      <trkpt lat="40.709250" lon="-4.943683">
        <ele>1429.0</ele>
        <time>2018-09-02T13:21:10Z</time>
      </trkpt>
      <trkpt lat="40.709233" lon="-4.943717">
        <ele>1428.0</ele>
        <time>2018-09-02T13:21:11Z</time>
      </trkpt>
      <trkpt lat="40.709233" lon="-4.943767">
        <ele>1428.0</ele>
        <time>2018-09-02T13:21:12Z</time>
      </trkpt>
      <trkpt lat="40.709217" lon="-4.943800">
        <ele>1428.0</ele>
        <time>2018-09-02T13:21:13Z</time>
      </trkpt>
      <trkpt lat="40.709217" lon="-4.943833">
        <ele>1428.0</ele>
        <time>2018-09-02T13:21:14Z</time>
      </trkpt>
      <trkpt lat="40.709217" lon="-4.943883">
        <ele>1427.0</ele>
        <time>2018-09-02T13:21:15Z</time>
      </trkpt>
      <trkpt lat="40.709200" lon="-4.943933">
        <ele>1427.0</ele>
        <time>2018-09-02T13:21:16Z</time>
      </trkpt>
      <trkpt lat="40.709183" lon="-4.943983">
        <ele>1427.0</ele>
        <time>2018-09-02T13:21:17Z</time>
      </trkpt>
      <trkpt lat="40.709167" lon="-4.944017">
        <ele>1427.0</ele>
        <time>2018-09-02T13:21:18Z</time>
      </trkpt>
      <trkpt lat="40.709133" lon="-4.944050">
        <ele>1426.0</ele>
        <time>2018-09-02T13:21:19Z</time>
      </trkpt>
      <trkpt lat="40.709117" lon="-4.944100">
        <ele>1426.0</ele>
        <time>2018-09-02T13:21:20Z</time>
      </trkpt>
      <trkpt lat="40.709100" lon="-4.944133">
        <ele>1426.0</ele>
        <time>2018-09-02T13:21:21Z</time>
      </trkpt>
      <trkpt lat="40.709083" lon="-4.944167">
        <ele>1425.0</ele>
        <time>2018-09-02T13:21:22Z</time>
      </trkpt>
      <trkpt lat="40.709033" lon="-4.944217">
        <ele>1424.0</ele>
        <time>2018-09-02T13:21:23Z</time>
      </trkpt>
      <trkpt lat="40.708983" lon="-4.944250">
        <ele>1423.0</ele>
        <time>2018-09-02T13:21:24Z</time>
      </trkpt>
      <trkpt lat="40.708950" lon="-4.944283">
        <ele>1424.0</ele>
        <time>2018-09-02T13:21:25Z</time>
      </trkpt>
      <trkpt lat="40.708917" lon="-4.944300">
        <ele>1425.0</ele>
        <time>2018-09-02T13:21:26Z</time>
      </trkpt>
      <trkpt lat="40.708883" lon="-4.944317">
        <ele>1426.0</ele>
        <time>2018-09-02T13:21:27Z</time>
      </trkpt>
      <trkpt lat="40.708850" lon="-4.944333">
        <ele>1426.0</ele>
        <time>2018-09-02T13:21:28Z</time>
      </trkpt>
      <trkpt lat="40.708817" lon="-4.944367">
        <ele>1426.0</ele>
        <time>2018-09-02T13:21:29Z</time>
      </trkpt>
      <trkpt lat="40.708783" lon="-4.944383">
        <ele>1426.0</ele>
        <time>2018-09-02T13:21:30Z</time>
      </trkpt>
      <trkpt lat="40.708733" lon="-4.944417">
        <ele>1426.0</ele>
        <time>2018-09-02T13:21:31Z</time>
      </trkpt>
      <trkpt lat="40.708683" lon="-4.944417">
        <ele>1427.0</ele>
        <time>2018-09-02T13:21:32Z</time>
      </trkpt>
      <trkpt lat="40.708650" lon="-4.944417">
        <ele>1429.0</ele>
        <time>2018-09-02T13:21:33Z</time>
      </trkpt>
      <trkpt lat="40.708617" lon="-4.944433">
        <ele>1430.0</ele>
        <time>2018-09-02T13:21:34Z</time>
      </trkpt>
      <trkpt lat="40.708583" lon="-4.944433">
        <ele>1431.0</ele>
        <time>2018-09-02T13:21:35Z</time>
      </trkpt>
      <trkpt lat="40.708533" lon="-4.944433">
        <ele>1431.0</ele>
        <time>2018-09-02T13:21:36Z</time>
      </trkpt>
      <trkpt lat="40.708500" lon="-4.944433">
        <ele>1432.0</ele>
        <time>2018-09-02T13:21:37Z</time>
      </trkpt>
      <trkpt lat="40.708467" lon="-4.944433">
        <ele>1432.0</ele>
        <time>2018-09-02T13:21:38Z</time>
      </trkpt>
      <trkpt lat="40.708433" lon="-4.944450">
        <ele>1432.0</ele>
        <time>2018-09-02T13:21:39Z</time>
      </trkpt>
      <trkpt lat="40.708383" lon="-4.944450">
        <ele>1432.0</ele>
        <time>2018-09-02T13:21:40Z</time>
      </trkpt>
      <trkpt lat="40.708317" lon="-4.944517">
        <ele>1432.0</ele>
        <time>2018-09-02T13:21:42Z</time>
      </trkpt>
      <trkpt lat="40.708283" lon="-4.944550">
        <ele>1433.0</ele>
        <time>2018-09-02T13:21:43Z</time>
      </trkpt>
      <trkpt lat="40.708250" lon="-4.944600">
        <ele>1433.0</ele>
        <time>2018-09-02T13:21:44Z</time>
      </trkpt>
      <trkpt lat="40.708217" lon="-4.944650">
        <ele>1434.0</ele>
        <time>2018-09-02T13:21:45Z</time>
      </trkpt>
      <trkpt lat="40.708200" lon="-4.944683">
        <ele>1434.0</ele>
        <time>2018-09-02T13:21:46Z</time>
      </trkpt>
      <trkpt lat="40.708167" lon="-4.944700">
        <ele>1435.0</ele>
        <time>2018-09-02T13:21:47Z</time>
      </trkpt>
      <trkpt lat="40.708133" lon="-4.944733">
        <ele>1435.0</ele>
        <time>2018-09-02T13:21:48Z</time>
      </trkpt>
      <trkpt lat="40.708117" lon="-4.944767">
        <ele>1436.0</ele>
        <time>2018-09-02T13:21:49Z</time>
      </trkpt>
      <trkpt lat="40.708067" lon="-4.944783">
        <ele>1435.0</ele>
        <time>2018-09-02T13:21:50Z</time>
      </trkpt>
      <trkpt lat="40.708033" lon="-4.944817">
        <ele>1434.0</ele>
        <time>2018-09-02T13:21:51Z</time>
      </trkpt>
      <trkpt lat="40.707983" lon="-4.944833">
        <ele>1433.0</ele>
        <time>2018-09-02T13:21:52Z</time>
      </trkpt>
      <trkpt lat="40.707950" lon="-4.944833">
        <ele>1431.0</ele>
        <time>2018-09-02T13:21:53Z</time>
      </trkpt>
      <trkpt lat="40.707900" lon="-4.944850">
        <ele>1429.0</ele>
        <time>2018-09-02T13:21:54Z</time>
      </trkpt>
      <trkpt lat="40.707883" lon="-4.944867">
        <ele>1427.0</ele>
        <time>2018-09-02T13:21:55Z</time>
      </trkpt>
      <trkpt lat="40.707883" lon="-4.944900">
        <ele>1425.0</ele>
        <time>2018-09-02T13:21:56Z</time>
      </trkpt>
      <trkpt lat="40.707917" lon="-4.944950">
        <ele>1423.0</ele>
        <time>2018-09-02T13:21:57Z</time>
      </trkpt>
      <trkpt lat="40.707967" lon="-4.944983">
        <ele>1421.0</ele>
        <time>2018-09-02T13:21:58Z</time>
      </trkpt>
      <trkpt lat="40.708033" lon="-4.945017">
        <ele>1419.0</ele>
        <time>2018-09-02T13:21:59Z</time>
      </trkpt>
      <trkpt lat="40.708117" lon="-4.945033">
        <ele>1417.0</ele>
        <time>2018-09-02T13:22:00Z</time>
      </trkpt>
      <trkpt lat="40.708233" lon="-4.945000">
        <ele>1419.0</ele>
        <time>2018-09-02T13:22:01Z</time>
      </trkpt>
      <trkpt lat="40.708333" lon="-4.944917">
        <ele>1418.0</ele>
        <time>2018-09-02T13:22:02Z</time>
      </trkpt>
      <trkpt lat="40.708433" lon="-4.944783">
        <ele>1418.0</ele>
        <time>2018-09-02T13:22:03Z</time>
      </trkpt>
      <trkpt lat="40.708500" lon="-4.944617">
        <ele>1417.0</ele>
        <time>2018-09-02T13:22:04Z</time>
      </trkpt>
      <trkpt lat="40.708550" lon="-4.944450">
        <ele>1416.0</ele>
        <time>2018-09-02T13:22:05Z</time>
      </trkpt>
      <trkpt lat="40.708583" lon="-4.944300">
        <ele>1416.0</ele>
        <time>2018-09-02T13:22:06Z</time>
      </trkpt>
      <trkpt lat="40.708600" lon="-4.944150">
        <ele>1416.0</ele>
        <time>2018-09-02T13:22:07Z</time>
      </trkpt>
      <trkpt lat="40.708617" lon="-4.944017">
        <ele>1416.0</ele>
        <time>2018-09-02T13:22:08Z</time>
      </trkpt>
      <trkpt lat="40.708633" lon="-4.943867">
        <ele>1416.0</ele>
        <time>2018-09-02T13:22:09Z</time>
      </trkpt>
      <trkpt lat="40.708600" lon="-4.943733">
        <ele>1416.0</ele>
        <time>2018-09-02T13:22:10Z</time>
      </trkpt>
      <trkpt lat="40.708550" lon="-4.943600">
        <ele>1415.0</ele>
        <time>2018-09-02T13:22:11Z</time>
      </trkpt>
      <trkpt lat="40.708367" lon="-4.943433">
        <ele>1413.0</ele>
        <time>2018-09-02T13:22:14Z</time>
      </trkpt>
      <trkpt lat="40.708350" lon="-4.943483">
        <ele>1412.0</ele>
        <time>2018-09-02T13:22:15Z</time>
      </trkpt>
      <trkpt lat="40.708400" lon="-4.943567">
        <ele>1410.0</ele>
        <time>2018-09-02T13:22:17Z</time>
      </trkpt>
      <trkpt lat="40.708467" lon="-4.943583">
        <ele>1409.0</ele>
        <time>2018-09-02T13:22:18Z</time>
      </trkpt>
      <trkpt lat="40.708550" lon="-4.943583">
        <ele>1409.0</ele>
        <time>2018-09-02T13:22:19Z</time>
      </trkpt>
      <trkpt lat="40.708667" lon="-4.943550">
        <ele>1408.0</ele>
        <time>2018-09-02T13:22:20Z</time>
      </trkpt>
      <trkpt lat="40.708767" lon="-4.943483">
        <ele>1407.0</ele>
        <time>2018-09-02T13:22:21Z</time>
      </trkpt>
      <trkpt lat="40.708867" lon="-4.943350">
        <ele>1407.0</ele>
        <time>2018-09-02T13:22:22Z</time>
      </trkpt>
      <trkpt lat="40.708917" lon="-4.943200">
        <ele>1406.0</ele>
        <time>2018-09-02T13:22:23Z</time>
      </trkpt>
      <trkpt lat="40.708950" lon="-4.943033">
        <ele>1406.0</ele>
        <time>2018-09-02T13:22:24Z</time>
      </trkpt>
      <trkpt lat="40.708983" lon="-4.942850">
        <ele>1405.0</ele>
        <time>2018-09-02T13:22:25Z</time>
      </trkpt>
      <trkpt lat="40.709000" lon="-4.942700">
        <ele>1405.0</ele>
        <time>2018-09-02T13:22:26Z</time>
      </trkpt>
      <trkpt lat="40.708983" lon="-4.942533">
        <ele>1404.0</ele>
        <time>2018-09-02T13:22:27Z</time>
      </trkpt>
      <trkpt lat="40.708950" lon="-4.942400">
        <ele>1404.0</ele>
        <time>2018-09-02T13:22:28Z</time>
      </trkpt>
      <trkpt lat="40.708900" lon="-4.942267">
        <ele>1404.0</ele>
        <time>2018-09-02T13:22:29Z</time>
      </trkpt>
      <trkpt lat="40.708850" lon="-4.942150">
        <ele>1402.0</ele>
        <time>2018-09-02T13:22:30Z</time>
      </trkpt>
      <trkpt lat="40.708783" lon="-4.942067">
        <ele>1401.0</ele>
        <time>2018-09-02T13:22:31Z</time>
      </trkpt>
      <trkpt lat="40.708717" lon="-4.942050">
        <ele>1399.0</ele>
        <time>2018-09-02T13:22:32Z</time>
      </trkpt>
      <trkpt lat="40.708667" lon="-4.942067">
        <ele>1400.0</ele>
        <time>2018-09-02T13:22:33Z</time>
      </trkpt>
      <trkpt lat="40.708667" lon="-4.942100">
        <ele>1400.0</ele>
        <time>2018-09-02T13:22:34Z</time>
      </trkpt>
      <trkpt lat="40.708650" lon="-4.942117">
        <ele>1398.0</ele>
        <time>2018-09-02T13:22:35Z</time>
      </trkpt>
      <trkpt lat="40.708650" lon="-4.942133">
        <ele>1398.0</ele>
        <time>2018-09-02T13:22:36Z</time>
      </trkpt>
      <trkpt lat="40.708650" lon="-4.942167">
        <ele>1397.0</ele>
        <time>2018-09-02T13:22:37Z</time>
      </trkpt>
      <trkpt lat="40.708650" lon="-4.942183">
        <ele>1397.0</ele>
        <time>2018-09-02T13:22:38Z</time>
      </trkpt>
      <trkpt lat="40.708667" lon="-4.942217">
        <ele>1397.0</ele>
        <time>2018-09-02T13:22:39Z</time>
      </trkpt>
      <trkpt lat="40.708667" lon="-4.942250">
        <ele>1397.0</ele>
        <time>2018-09-02T13:22:40Z</time>
      </trkpt>
      <trkpt lat="40.708650" lon="-4.942300">
        <ele>1396.0</ele>
        <time>2018-09-02T13:22:41Z</time>
      </trkpt>
      <trkpt lat="40.708633" lon="-4.942350">
        <ele>1396.0</ele>
        <time>2018-09-02T13:22:42Z</time>
      </trkpt>
      <trkpt lat="40.708600" lon="-4.942383">
        <ele>1397.0</ele>
        <time>2018-09-02T13:22:43Z</time>
      </trkpt>
      <trkpt lat="40.708583" lon="-4.942400">
        <ele>1397.0</ele>
        <time>2018-09-02T13:22:44Z</time>
      </trkpt>
      <trkpt lat="40.708567" lon="-4.942417">
        <ele>1397.0</ele>
        <time>2018-09-02T13:22:45Z</time>
      </trkpt>
      <trkpt lat="40.708567" lon="-4.942433">
        <ele>1397.0</ele>
        <time>2018-09-02T13:22:46Z</time>
      </trkpt>
      <trkpt lat="40.708567" lon="-4.942450">
        <ele>1396.0</ele>
        <time>2018-09-02T13:22:47Z</time>
      </trkpt>
      <trkpt lat="40.708550" lon="-4.942500">
        <ele>1395.0</ele>
        <time>2018-09-02T13:22:48Z</time>
      </trkpt>
      <trkpt lat="40.708533" lon="-4.942550">
        <ele>1394.0</ele>
        <time>2018-09-02T13:22:49Z</time>
      </trkpt>
      <trkpt lat="40.708517" lon="-4.942583">
        <ele>1393.0</ele>
        <time>2018-09-02T13:22:50Z</time>
      </trkpt>
      <trkpt lat="40.708483" lon="-4.942583">
        <ele>1392.0</ele>
        <time>2018-09-02T13:22:51Z</time>
      </trkpt>
      <trkpt lat="40.708483" lon="-4.942567">
        <ele>1392.0</ele>
        <time>2018-09-02T13:22:52Z</time>
      </trkpt>
      <trkpt lat="40.708467" lon="-4.942567">
        <ele>1390.0</ele>
        <time>2018-09-02T13:22:53Z</time>
      </trkpt>
      <trkpt lat="40.708467" lon="-4.942567">
        <ele>1391.0</ele>
        <time>2018-09-02T13:22:54Z</time>
      </trkpt>
      <trkpt lat="40.708467" lon="-4.942583">
        <ele>1390.0</ele>
        <time>2018-09-02T13:22:55Z</time>
      </trkpt>
      <trkpt lat="40.708467" lon="-4.942617">
        <ele>1388.0</ele>
        <time>2018-09-02T13:22:56Z</time>
      </trkpt>
      <trkpt lat="40.708450" lon="-4.942633">
        <ele>1387.0</ele>
        <time>2018-09-02T13:22:57Z</time>
      </trkpt>
      <trkpt lat="40.708433" lon="-4.942633">
        <ele>1386.0</ele>
        <time>2018-09-02T13:22:58Z</time>
      </trkpt>
      <trkpt lat="40.708433" lon="-4.942633">
        <ele>1386.0</ele>
        <time>2018-09-02T13:22:59Z</time>
      </trkpt>
      <trkpt lat="40.708417" lon="-4.942617">
        <ele>1386.0</ele>
        <time>2018-09-02T13:23:00Z</time>
      </trkpt>
      <trkpt lat="40.708417" lon="-4.942617">
        <ele>1385.0</ele>
        <time>2018-09-02T13:23:01Z</time>
      </trkpt>
      <trkpt lat="40.708417" lon="-4.942600">
        <ele>1384.0</ele>
        <time>2018-09-02T13:23:02Z</time>
      </trkpt>
      <trkpt lat="40.708400" lon="-4.942633">
        <ele>1380.0</ele>
        <time>2018-09-02T13:23:03Z</time>
      </trkpt>
      <trkpt lat="40.708383" lon="-4.942667">
        <ele>1378.0</ele>
        <time>2018-09-02T13:23:04Z</time>
      </trkpt>
      <trkpt lat="40.708383" lon="-4.942717">
        <ele>1375.0</ele>
        <time>2018-09-02T13:23:05Z</time>
      </trkpt>
      <trkpt lat="40.708400" lon="-4.942733">
        <ele>1376.0</ele>
        <time>2018-09-02T13:23:06Z</time>
      </trkpt>
      <trkpt lat="40.708417" lon="-4.942717">
        <ele>1380.0</ele>
        <time>2018-09-02T13:23:07Z</time>
      </trkpt>
      <trkpt lat="40.708433" lon="-4.942683">
        <ele>1380.0</ele>
        <time>2018-09-02T13:23:08Z</time>
      </trkpt>
      <trkpt lat="40.708450" lon="-4.942667">
        <ele>1380.0</ele>
        <time>2018-09-02T13:23:09Z</time>
      </trkpt>
      <trkpt lat="40.708467" lon="-4.942683">
        <ele>1378.0</ele>
        <time>2018-09-02T13:23:10Z</time>
      </trkpt>
      <trkpt lat="40.708500" lon="-4.942700">
        <ele>1378.0</ele>
        <time>2018-09-02T13:23:11Z</time>
      </trkpt>
      <trkpt lat="40.708500" lon="-4.942717">
        <ele>1377.0</ele>
        <time>2018-09-02T13:23:12Z</time>
      </trkpt>
      <trkpt lat="40.708500" lon="-4.942717">
        <ele>1376.0</ele>
        <time>2018-09-02T13:23:13Z</time>
      </trkpt>
      <trkpt lat="40.708483" lon="-4.942733">
        <ele>1375.0</ele>
        <time>2018-09-02T13:23:14Z</time>
      </trkpt>
      <trkpt lat="40.708483" lon="-4.942733">
        <ele>1374.0</ele>
        <time>2018-09-02T13:23:15Z</time>
      </trkpt>
      <trkpt lat="40.708467" lon="-4.942750">
        <ele>1372.0</ele>
        <time>2018-09-02T13:23:16Z</time>
      </trkpt>
      <trkpt lat="40.708467" lon="-4.942767">
        <ele>1371.0</ele>
        <time>2018-09-02T13:23:17Z</time>
      </trkpt>
      <trkpt lat="40.708450" lon="-4.942800">
        <ele>1370.0</ele>
        <time>2018-09-02T13:23:18Z</time>
      </trkpt>
      <trkpt lat="40.708433" lon="-4.942817">
        <ele>1367.0</ele>
        <time>2018-09-02T13:23:19Z</time>
      </trkpt>
      <trkpt lat="40.708417" lon="-4.942833">
        <ele>1366.0</ele>
        <time>2018-09-02T13:23:20Z</time>
      </trkpt>
      <trkpt lat="40.708417" lon="-4.942867">
        <ele>1365.0</ele>
        <time>2018-09-02T13:23:21Z</time>
      </trkpt>
      <trkpt lat="40.708417" lon="-4.942900">
        <ele>1363.0</ele>
        <time>2018-09-02T13:23:22Z</time>
      </trkpt>
      <trkpt lat="40.708417" lon="-4.942900">
        <ele>1362.0</ele>
        <time>2018-09-02T13:23:23Z</time>
      </trkpt>
      <trkpt lat="40.708400" lon="-4.942900">
        <ele>1361.0</ele>
        <time>2018-09-02T13:23:24Z</time>
      </trkpt>
      <trkpt lat="40.708383" lon="-4.942917">
        <ele>1358.0</ele>
        <time>2018-09-02T13:23:25Z</time>
      </trkpt>
      <trkpt lat="40.708367" lon="-4.942950">
        <ele>1356.0</ele>
        <time>2018-09-02T13:23:26Z</time>
      </trkpt>
      <trkpt lat="40.708367" lon="-4.942983">
        <ele>1354.0</ele>
        <time>2018-09-02T13:23:27Z</time>
      </trkpt>
      <trkpt lat="40.708317" lon="-4.943050">
        <ele>1350.0</ele>
        <time>2018-09-02T13:23:29Z</time>
      </trkpt>
      <trkpt lat="40.708267" lon="-4.943083">
        <ele>1349.0</ele>
        <time>2018-09-02T13:23:30Z</time>
      </trkpt>
      <trkpt lat="40.708250" lon="-4.943100">
        <ele>1350.0</ele>
        <time>2018-09-02T13:23:31Z</time>
      </trkpt>
      <trkpt lat="40.708233" lon="-4.943117">
        <ele>1351.0</ele>
        <time>2018-09-02T13:23:32Z</time>
      </trkpt>
      <trkpt lat="40.708250" lon="-4.943133">
        <ele>1352.0</ele>
        <time>2018-09-02T13:23:33Z</time>
      </trkpt>
      <trkpt lat="40.708250" lon="-4.943133">
        <ele>1352.0</ele>
        <time>2018-09-02T13:23:34Z</time>
      </trkpt>
      <trkpt lat="40.708267" lon="-4.943150">
        <ele>1353.0</ele>
        <time>2018-09-02T13:23:35Z</time>
      </trkpt>
      <trkpt lat="40.708283" lon="-4.943183">
        <ele>1354.0</ele>
        <time>2018-09-02T13:23:36Z</time>
      </trkpt>
      <trkpt lat="40.708317" lon="-4.943217">
        <ele>1354.0</ele>
        <time>2018-09-02T13:23:37Z</time>
      </trkpt>
      <trkpt lat="40.708350" lon="-4.943267">
        <ele>1355.0</ele>
        <time>2018-09-02T13:23:38Z</time>
      </trkpt>
      <trkpt lat="40.708333" lon="-4.943317">
        <ele>1355.0</ele>
        <time>2018-09-02T13:23:39Z</time>
      </trkpt>
      <trkpt lat="40.708333" lon="-4.943333">
        <ele>1356.0</ele>
        <time>2018-09-02T13:23:40Z</time>
      </trkpt>
      <trkpt lat="40.708300" lon="-4.943367">
        <ele>1356.0</ele>
        <time>2018-09-02T13:23:41Z</time>
      </trkpt>
      <trkpt lat="40.708283" lon="-4.943400">
        <ele>1357.0</ele>
        <time>2018-09-02T13:23:42Z</time>
      </trkpt>
      <trkpt lat="40.708267" lon="-4.943500">
        <ele>1359.0</ele>
        <time>2018-09-02T13:23:44Z</time>
      </trkpt>
      <trkpt lat="40.708283" lon="-4.943550">
        <ele>1361.0</ele>
        <time>2018-09-02T13:23:45Z</time>
      </trkpt>
      <trkpt lat="40.708300" lon="-4.943583">
        <ele>1363.0</ele>
        <time>2018-09-02T13:23:46Z</time>
      </trkpt>
      <trkpt lat="40.708317" lon="-4.943633">
        <ele>1364.0</ele>
        <time>2018-09-02T13:23:47Z</time>
      </trkpt>
      <trkpt lat="40.708317" lon="-4.943683">
        <ele>1365.0</ele>
        <time>2018-09-02T13:23:48Z</time>
      </trkpt>
      <trkpt lat="40.708317" lon="-4.943717">
        <ele>1366.0</ele>
        <time>2018-09-02T13:23:49Z</time>
      </trkpt>
      <trkpt lat="40.708317" lon="-4.943733">
        <ele>1367.0</ele>
        <time>2018-09-02T13:23:50Z</time>
      </trkpt>
      <trkpt lat="40.708283" lon="-4.943733">
        <ele>1368.0</ele>
        <time>2018-09-02T13:23:51Z</time>
      </trkpt>
      <trkpt lat="40.708267" lon="-4.943717">
        <ele>1368.0</ele>
        <time>2018-09-02T13:23:52Z</time>
      </trkpt>
      <trkpt lat="40.708233" lon="-4.943700">
        <ele>1368.0</ele>
        <time>2018-09-02T13:23:53Z</time>
      </trkpt>
      <trkpt lat="40.708217" lon="-4.943717">
        <ele>1368.0</ele>
        <time>2018-09-02T13:23:54Z</time>
      </trkpt>
      <trkpt lat="40.708200" lon="-4.943717">
        <ele>1368.0</ele>
        <time>2018-09-02T13:23:55Z</time>
      </trkpt>
      <trkpt lat="40.708183" lon="-4.943733">
        <ele>1368.0</ele>
        <time>2018-09-02T13:23:56Z</time>
      </trkpt>
      <trkpt lat="40.708150" lon="-4.943733">
        <ele>1368.0</ele>
        <time>2018-09-02T13:23:57Z</time>
      </trkpt>
      <trkpt lat="40.708133" lon="-4.943733">
        <ele>1369.0</ele>
        <time>2018-09-02T13:23:58Z</time>
      </trkpt>
      <trkpt lat="40.708117" lon="-4.943717">
        <ele>1368.0</ele>
        <time>2018-09-02T13:23:59Z</time>
      </trkpt>
      <trkpt lat="40.708100" lon="-4.943717">
        <ele>1367.0</ele>
        <time>2018-09-02T13:24:00Z</time>
      </trkpt>
      <trkpt lat="40.708067" lon="-4.943717">
        <ele>1366.0</ele>
        <time>2018-09-02T13:24:01Z</time>
      </trkpt>
      <trkpt lat="40.708050" lon="-4.943717">
        <ele>1364.0</ele>
        <time>2018-09-02T13:24:02Z</time>
      </trkpt>
      <trkpt lat="40.708033" lon="-4.943750">
        <ele>1363.0</ele>
        <time>2018-09-02T13:24:03Z</time>
      </trkpt>
      <trkpt lat="40.708050" lon="-4.943783">
        <ele>1362.0</ele>
        <time>2018-09-02T13:24:04Z</time>
      </trkpt>
      <trkpt lat="40.708083" lon="-4.943833">
        <ele>1361.0</ele>
        <time>2018-09-02T13:24:05Z</time>
      </trkpt>
      <trkpt lat="40.708150" lon="-4.943883">
        <ele>1361.0</ele>
        <time>2018-09-02T13:24:06Z</time>
      </trkpt>
      <trkpt lat="40.708233" lon="-4.943900">
        <ele>1361.0</ele>
        <time>2018-09-02T13:24:07Z</time>
      </trkpt>
      <trkpt lat="40.708350" lon="-4.943867">
        <ele>1361.0</ele>
        <time>2018-09-02T13:24:08Z</time>
      </trkpt>
      <trkpt lat="40.708467" lon="-4.943800">
        <ele>1361.0</ele>
        <time>2018-09-02T13:24:09Z</time>
      </trkpt>
      <trkpt lat="40.708583" lon="-4.943683">
        <ele>1360.0</ele>
        <time>2018-09-02T13:24:10Z</time>
      </trkpt>
      <trkpt lat="40.708733" lon="-4.943350">
        <ele>1358.0</ele>
        <time>2018-09-02T13:24:12Z</time>
      </trkpt>
      <trkpt lat="40.708750" lon="-4.943000">
        <ele>1356.0</ele>
        <time>2018-09-02T13:24:14Z</time>
      </trkpt>
      <trkpt lat="40.708717" lon="-4.942883">
        <ele>1356.0</ele>
        <time>2018-09-02T13:24:15Z</time>
      </trkpt>
      <trkpt lat="40.708667" lon="-4.942800">
        <ele>1355.0</ele>
        <time>2018-09-02T13:24:16Z</time>
      </trkpt>
      <trkpt lat="40.708617" lon="-4.942767">
        <ele>1356.0</ele>
        <time>2018-09-02T13:24:17Z</time>
      </trkpt>
      <trkpt lat="40.708600" lon="-4.942783">
        <ele>1356.0</ele>
        <time>2018-09-02T13:24:18Z</time>
      </trkpt>
      <trkpt lat="40.708600" lon="-4.942833">
        <ele>1356.0</ele>
        <time>2018-09-02T13:24:19Z</time>
      </trkpt>
      <trkpt lat="40.708617" lon="-4.942900">
        <ele>1355.0</ele>
        <time>2018-09-02T13:24:20Z</time>
      </trkpt>
      <trkpt lat="40.708633" lon="-4.942950">
        <ele>1354.0</ele>
        <time>2018-09-02T13:24:21Z</time>
      </trkpt>
      <trkpt lat="40.708633" lon="-4.943000">
        <ele>1353.0</ele>
        <time>2018-09-02T13:24:22Z</time>
      </trkpt>
      <trkpt lat="40.708617" lon="-4.943033">
        <ele>1352.0</ele>
        <time>2018-09-02T13:24:23Z</time>
      </trkpt>
      <trkpt lat="40.708617" lon="-4.943100">
        <ele>1352.0</ele>
        <time>2018-09-02T13:24:24Z</time>
      </trkpt>
      <trkpt lat="40.708633" lon="-4.943150">
        <ele>1351.0</ele>
        <time>2018-09-02T13:24:25Z</time>
      </trkpt>
      <trkpt lat="40.708633" lon="-4.943200">
        <ele>1351.0</ele>
        <time>2018-09-02T13:24:26Z</time>
      </trkpt>
      <trkpt lat="40.708633" lon="-4.943250">
        <ele>1350.0</ele>
        <time>2018-09-02T13:24:27Z</time>
      </trkpt>
      <trkpt lat="40.708650" lon="-4.943300">
        <ele>1349.0</ele>
        <time>2018-09-02T13:24:28Z</time>
      </trkpt>
      <trkpt lat="40.708667" lon="-4.943367">
        <ele>1347.0</ele>
        <time>2018-09-02T13:24:29Z</time>
      </trkpt>
      <trkpt lat="40.708683" lon="-4.943433">
        <ele>1346.0</ele>
        <time>2018-09-02T13:24:30Z</time>
      </trkpt>
      <trkpt lat="40.708700" lon="-4.943483">
        <ele>1344.0</ele>
        <time>2018-09-02T13:24:31Z</time>
      </trkpt>
      <trkpt lat="40.708717" lon="-4.943533">
        <ele>1341.0</ele>
        <time>2018-09-02T13:24:32Z</time>
      </trkpt>
      <trkpt lat="40.708717" lon="-4.943583">
        <ele>1339.0</ele>
        <time>2018-09-02T13:24:33Z</time>
      </trkpt>
      <trkpt lat="40.708750" lon="-4.943617">
        <ele>1337.0</ele>
        <time>2018-09-02T13:24:34Z</time>
      </trkpt>
      <trkpt lat="40.708767" lon="-4.943683">
        <ele>1335.0</ele>
        <time>2018-09-02T13:24:35Z</time>
      </trkpt>
      <trkpt lat="40.708783" lon="-4.943733">
        <ele>1337.0</ele>
        <time>2018-09-02T13:24:36Z</time>
      </trkpt>
      <trkpt lat="40.708783" lon="-4.943783">
        <ele>1336.0</ele>
        <time>2018-09-02T13:24:37Z</time>
      </trkpt>
      <trkpt lat="40.708767" lon="-4.943817">
        <ele>1335.0</ele>
        <time>2018-09-02T13:24:38Z</time>
      </trkpt>
      <trkpt lat="40.708733" lon="-4.943850">
        <ele>1334.0</ele>
        <time>2018-09-02T13:24:39Z</time>
      </trkpt>
      <trkpt lat="40.708717" lon="-4.943867">
        <ele>1331.0</ele>
        <time>2018-09-02T13:24:40Z</time>
      </trkpt>
      <trkpt lat="40.708683" lon="-4.943883">
        <ele>1329.0</ele>
        <time>2018-09-02T13:24:41Z</time>
      </trkpt>
      <trkpt lat="40.708683" lon="-4.943917">
        <ele>1326.0</ele>
        <time>2018-09-02T13:24:42Z</time>
      </trkpt>
      <trkpt lat="40.708667" lon="-4.943950">
        <ele>1324.0</ele>
        <time>2018-09-02T13:24:43Z</time>
      </trkpt>
      <trkpt lat="40.708650" lon="-4.944000">
        <ele>1325.0</ele>
        <time>2018-09-02T13:24:44Z</time>
      </trkpt>
      <trkpt lat="40.708633" lon="-4.944050">
        <ele>1324.0</ele>
        <time>2018-09-02T13:24:45Z</time>
      </trkpt>
      <trkpt lat="40.708617" lon="-4.944100">
        <ele>1324.0</ele>
        <time>2018-09-02T13:24:46Z</time>
      </trkpt>
      <trkpt lat="40.708600" lon="-4.944150">
        <ele>1324.0</ele>
        <time>2018-09-02T13:24:47Z</time>
      </trkpt>
      <trkpt lat="40.708583" lon="-4.944183">
        <ele>1323.0</ele>
        <time>2018-09-02T13:24:48Z</time>
      </trkpt>
      <trkpt lat="40.708550" lon="-4.944200">
        <ele>1322.0</ele>
        <time>2018-09-02T13:24:49Z</time>
      </trkpt>
      <trkpt lat="40.708517" lon="-4.944233">
        <ele>1321.0</ele>
        <time>2018-09-02T13:24:50Z</time>
      </trkpt>
      <trkpt lat="40.708500" lon="-4.944283">
        <ele>1320.0</ele>
        <time>2018-09-02T13:24:51Z</time>
      </trkpt>
      <trkpt lat="40.708483" lon="-4.944333">
        <ele>1319.0</ele>
        <time>2018-09-02T13:24:52Z</time>
      </trkpt>
      <trkpt lat="40.708467" lon="-4.944367">
        <ele>1318.0</ele>
        <time>2018-09-02T13:24:53Z</time>
      </trkpt>
      <trkpt lat="40.708433" lon="-4.944400">
        <ele>1317.0</ele>
        <time>2018-09-02T13:24:54Z</time>
      </trkpt>
      <trkpt lat="40.708400" lon="-4.944433">
        <ele>1316.0</ele>
        <time>2018-09-02T13:24:55Z</time>
      </trkpt>
      <trkpt lat="40.708367" lon="-4.944483">
        <ele>1314.0</ele>
        <time>2018-09-02T13:24:56Z</time>
      </trkpt>
      <trkpt lat="40.708333" lon="-4.944517">
        <ele>1312.0</ele>
        <time>2018-09-02T13:24:57Z</time>
      </trkpt>
      <trkpt lat="40.708317" lon="-4.944583">
        <ele>1309.0</ele>
        <time>2018-09-02T13:24:58Z</time>
      </trkpt>
      <trkpt lat="40.708300" lon="-4.944633">
        <ele>1310.0</ele>
        <time>2018-09-02T13:24:59Z</time>
      </trkpt>
      <trkpt lat="40.708267" lon="-4.944683">
        <ele>1307.0</ele>
        <time>2018-09-02T13:25:00Z</time>
      </trkpt>
      <trkpt lat="40.708250" lon="-4.944717">
        <ele>1304.0</ele>
        <time>2018-09-02T13:25:01Z</time>
      </trkpt>
      <trkpt lat="40.708233" lon="-4.944767">
        <ele>1301.0</ele>
        <time>2018-09-02T13:25:02Z</time>
      </trkpt>
      <trkpt lat="40.708217" lon="-4.944800">
        <ele>1300.0</ele>
        <time>2018-09-02T13:25:03Z</time>
      </trkpt>
      <trkpt lat="40.708217" lon="-4.944850">
        <ele>1298.0</ele>
        <time>2018-09-02T13:25:04Z</time>
      </trkpt>
      <trkpt lat="40.708200" lon="-4.944883">
        <ele>1296.0</ele>
        <time>2018-09-02T13:25:05Z</time>
      </trkpt>
      <trkpt lat="40.708200" lon="-4.944933">
        <ele>1294.0</ele>
        <time>2018-09-02T13:25:06Z</time>
      </trkpt>
      <trkpt lat="40.708183" lon="-4.945000">
        <ele>1292.0</ele>
        <time>2018-09-02T13:25:07Z</time>
      </trkpt>
      <trkpt lat="40.708183" lon="-4.945050">
        <ele>1288.0</ele>
        <time>2018-09-02T13:25:08Z</time>
      </trkpt>
      <trkpt lat="40.708200" lon="-4.945133">
        <ele>1285.0</ele>
        <time>2018-09-02T13:25:09Z</time>
      </trkpt>
      <trkpt lat="40.708200" lon="-4.945183">
        <ele>1286.0</ele>
        <time>2018-09-02T13:25:10Z</time>
      </trkpt>
      <trkpt lat="40.708200" lon="-4.945250">
        <ele>1284.0</ele>
        <time>2018-09-02T13:25:11Z</time>
      </trkpt>
      <trkpt lat="40.708200" lon="-4.945300">
        <ele>1283.0</ele>
        <time>2018-09-02T13:25:12Z</time>
      </trkpt>
      <trkpt lat="40.708200" lon="-4.945367">
        <ele>1282.0</ele>
        <time>2018-09-02T13:25:13Z</time>
      </trkpt>
      <trkpt lat="40.708200" lon="-4.945417">
        <ele>1281.0</ele>
        <time>2018-09-02T13:25:14Z</time>
      </trkpt>
      <trkpt lat="40.708217" lon="-4.945450">
        <ele>1281.0</ele>
        <time>2018-09-02T13:25:15Z</time>
      </trkpt>
      <trkpt lat="40.708233" lon="-4.945500">
        <ele>1281.0</ele>
        <time>2018-09-02T13:25:16Z</time>
      </trkpt>
      <trkpt lat="40.708250" lon="-4.945550">
        <ele>1281.0</ele>
        <time>2018-09-02T13:25:17Z</time>
      </trkpt>
      <trkpt lat="40.708250" lon="-4.945617">
        <ele>1280.0</ele>
        <time>2018-09-02T13:25:18Z</time>
      </trkpt>
      <trkpt lat="40.708250" lon="-4.945683">
        <ele>1279.0</ele>
        <time>2018-09-02T13:25:19Z</time>
      </trkpt>
      <trkpt lat="40.708233" lon="-4.945750">
        <ele>1278.0</ele>
        <time>2018-09-02T13:25:20Z</time>
      </trkpt>
      <trkpt lat="40.708233" lon="-4.945800">
        <ele>1277.0</ele>
        <time>2018-09-02T13:25:21Z</time>
      </trkpt>
      <trkpt lat="40.708217" lon="-4.945833">
        <ele>1277.0</ele>
        <time>2018-09-02T13:25:22Z</time>
      </trkpt>
      <trkpt lat="40.708217" lon="-4.945867">
        <ele>1276.0</ele>
        <time>2018-09-02T13:25:23Z</time>
      </trkpt>
      <trkpt lat="40.708217" lon="-4.945900">
        <ele>1276.0</ele>
        <time>2018-09-02T13:25:24Z</time>
      </trkpt>
      <trkpt lat="40.708233" lon="-4.945933">
        <ele>1275.0</ele>
        <time>2018-09-02T13:25:25Z</time>
      </trkpt>
      <trkpt lat="40.708233" lon="-4.945983">
        <ele>1275.0</ele>
        <time>2018-09-02T13:25:26Z</time>
      </trkpt>
      <trkpt lat="40.708233" lon="-4.946017">
        <ele>1275.0</ele>
        <time>2018-09-02T13:25:27Z</time>
      </trkpt>
      <trkpt lat="40.708233" lon="-4.946067">
        <ele>1274.0</ele>
        <time>2018-09-02T13:25:28Z</time>
      </trkpt>
      <trkpt lat="40.708233" lon="-4.946083">
        <ele>1274.0</ele>
        <time>2018-09-02T13:25:29Z</time>
      </trkpt>
      <trkpt lat="40.708217" lon="-4.946100">
        <ele>1274.0</ele>
        <time>2018-09-02T13:25:30Z</time>
      </trkpt>
      <trkpt lat="40.708217" lon="-4.946133">
        <ele>1274.0</ele>
        <time>2018-09-02T13:25:31Z</time>
      </trkpt>
      <trkpt lat="40.708217" lon="-4.946167">
        <ele>1274.0</ele>
        <time>2018-09-02T13:25:32Z</time>
      </trkpt>
      <trkpt lat="40.708217" lon="-4.946217">
        <ele>1274.0</ele>
        <time>2018-09-02T13:25:33Z</time>
      </trkpt>
      <trkpt lat="40.708200" lon="-4.946267">
        <ele>1274.0</ele>
        <time>2018-09-02T13:25:34Z</time>
      </trkpt>
      <trkpt lat="40.708217" lon="-4.946283">
        <ele>1274.0</ele>
        <time>2018-09-02T13:25:35Z</time>
      </trkpt>
      <trkpt lat="40.708217" lon="-4.946317">
        <ele>1274.0</ele>
        <time>2018-09-02T13:25:36Z</time>
      </trkpt>
      <trkpt lat="40.708233" lon="-4.946350">
        <ele>1274.0</ele>
        <time>2018-09-02T13:25:37Z</time>
      </trkpt>
      <trkpt lat="40.708250" lon="-4.946417">
        <ele>1274.0</ele>
        <time>2018-09-02T13:25:38Z</time>
      </trkpt>
      <trkpt lat="40.708250" lon="-4.946483">
        <ele>1273.0</ele>
        <time>2018-09-02T13:25:39Z</time>
      </trkpt>
      <trkpt lat="40.708250" lon="-4.946533">
        <ele>1272.0</ele>
        <time>2018-09-02T13:25:40Z</time>
      </trkpt>
      <trkpt lat="40.708250" lon="-4.946583">
        <ele>1271.0</ele>
        <time>2018-09-02T13:25:41Z</time>
      </trkpt>
      <trkpt lat="40.708233" lon="-4.946617">
        <ele>1270.0</ele>
        <time>2018-09-02T13:25:42Z</time>
      </trkpt>
      <trkpt lat="40.708233" lon="-4.946667">
        <ele>1270.0</ele>
        <time>2018-09-02T13:25:43Z</time>
      </trkpt>
      <trkpt lat="40.708217" lon="-4.946717">
        <ele>1269.0</ele>
        <time>2018-09-02T13:25:44Z</time>
      </trkpt>
      <trkpt lat="40.708200" lon="-4.946767">
        <ele>1268.0</ele>
        <time>2018-09-02T13:25:45Z</time>
      </trkpt>
      <trkpt lat="40.708200" lon="-4.946817">
        <ele>1268.0</ele>
        <time>2018-09-02T13:25:46Z</time>
      </trkpt>
      <trkpt lat="40.708200" lon="-4.946850">
        <ele>1267.0</ele>
        <time>2018-09-02T13:25:47Z</time>
      </trkpt>
      <trkpt lat="40.708200" lon="-4.946883">
        <ele>1267.0</ele>
        <time>2018-09-02T13:25:48Z</time>
      </trkpt>
      <trkpt lat="40.708217" lon="-4.946917">
        <ele>1267.0</ele>
        <time>2018-09-02T13:25:49Z</time>
      </trkpt>
      <trkpt lat="40.708233" lon="-4.946967">
        <ele>1266.0</ele>
        <time>2018-09-02T13:25:50Z</time>
      </trkpt>
      <trkpt lat="40.708233" lon="-4.947017">
        <ele>1266.0</ele>
        <time>2018-09-02T13:25:51Z</time>
      </trkpt>
      <trkpt lat="40.708233" lon="-4.947083">
        <ele>1265.0</ele>
        <time>2018-09-02T13:25:52Z</time>
      </trkpt>
      <trkpt lat="40.708250" lon="-4.947150">
        <ele>1264.0</ele>
        <time>2018-09-02T13:25:53Z</time>
      </trkpt>
      <trkpt lat="40.708250" lon="-4.947217">
        <ele>1263.0</ele>
        <time>2018-09-02T13:25:54Z</time>
      </trkpt>
      <trkpt lat="40.708267" lon="-4.947283">
        <ele>1263.0</ele>
        <time>2018-09-02T13:25:55Z</time>
      </trkpt>
      <trkpt lat="40.708267" lon="-4.947333">
        <ele>1262.0</ele>
        <time>2018-09-02T13:25:56Z</time>
      </trkpt>
      <trkpt lat="40.708283" lon="-4.947383">
        <ele>1261.0</ele>
        <time>2018-09-02T13:25:57Z</time>
      </trkpt>
      <trkpt lat="40.708317" lon="-4.947450">
        <ele>1260.0</ele>
        <time>2018-09-02T13:25:58Z</time>
      </trkpt>
      <trkpt lat="40.708333" lon="-4.947500">
        <ele>1258.0</ele>
        <time>2018-09-02T13:25:59Z</time>
      </trkpt>
      <trkpt lat="40.708350" lon="-4.947550">
        <ele>1257.0</ele>
        <time>2018-09-02T13:26:00Z</time>
      </trkpt>
      <trkpt lat="40.708367" lon="-4.947567">
        <ele>1255.0</ele>
        <time>2018-09-02T13:26:01Z</time>
      </trkpt>
      <trkpt lat="40.708367" lon="-4.947583">
        <ele>1255.0</ele>
        <time>2018-09-02T13:26:02Z</time>
      </trkpt>
      <trkpt lat="40.708383" lon="-4.947617">
        <ele>1253.0</ele>
        <time>2018-09-02T13:26:03Z</time>
      </trkpt>
      <trkpt lat="40.708417" lon="-4.947667">
        <ele>1252.0</ele>
        <time>2018-09-02T13:26:04Z</time>
      </trkpt>
      <trkpt lat="40.708417" lon="-4.947717">
        <ele>1250.0</ele>
        <time>2018-09-02T13:26:05Z</time>
      </trkpt>
      <trkpt lat="40.708417" lon="-4.947767">
        <ele>1249.0</ele>
        <time>2018-09-02T13:26:06Z</time>
      </trkpt>
      <trkpt lat="40.708383" lon="-4.947800">
        <ele>1248.0</ele>
        <time>2018-09-02T13:26:07Z</time>
      </trkpt>
      <trkpt lat="40.708367" lon="-4.947817">
        <ele>1247.0</ele>
        <time>2018-09-02T13:26:08Z</time>
      </trkpt>
      <trkpt lat="40.708367" lon="-4.947833">
        <ele>1245.0</ele>
        <time>2018-09-02T13:26:09Z</time>
      </trkpt>
      <trkpt lat="40.708367" lon="-4.947867">
        <ele>1242.0</ele>
        <time>2018-09-02T13:26:10Z</time>
      </trkpt>
      <trkpt lat="40.708367" lon="-4.947917">
        <ele>1240.0</ele>
        <time>2018-09-02T13:26:11Z</time>
      </trkpt>
      <trkpt lat="40.708367" lon="-4.947983">
        <ele>1237.0</ele>
        <time>2018-09-02T13:26:12Z</time>
      </trkpt>
      <trkpt lat="40.708367" lon="-4.948033">
        <ele>1236.0</ele>
        <time>2018-09-02T13:26:13Z</time>
      </trkpt>
      <trkpt lat="40.708383" lon="-4.948083">
        <ele>1235.0</ele>
        <time>2018-09-02T13:26:14Z</time>
      </trkpt>
      <trkpt lat="40.708400" lon="-4.948117">
        <ele>1233.0</ele>
        <time>2018-09-02T13:26:15Z</time>
      </trkpt>
      <trkpt lat="40.708433" lon="-4.948150">
        <ele>1233.0</ele>
        <time>2018-09-02T13:26:16Z</time>
      </trkpt>
      <trkpt lat="40.708450" lon="-4.948217">
        <ele>1232.0</ele>
        <time>2018-09-02T13:26:17Z</time>
      </trkpt>
      <trkpt lat="40.708483" lon="-4.948267">
        <ele>1231.0</ele>
        <time>2018-09-02T13:26:18Z</time>
      </trkpt>
      <trkpt lat="40.708500" lon="-4.948333">
        <ele>1230.0</ele>
        <time>2018-09-02T13:26:19Z</time>
      </trkpt>
      <trkpt lat="40.708533" lon="-4.948367">
        <ele>1230.0</ele>
        <time>2018-09-02T13:26:20Z</time>
      </trkpt>
      <trkpt lat="40.708550" lon="-4.948400">
        <ele>1231.0</ele>
        <time>2018-09-02T13:26:21Z</time>
      </trkpt>
      <trkpt lat="40.708583" lon="-4.948433">
        <ele>1230.0</ele>
        <time>2018-09-02T13:26:22Z</time>
      </trkpt>
      <trkpt lat="40.708600" lon="-4.948417">
        <ele>1231.0</ele>
        <time>2018-09-02T13:26:23Z</time>
      </trkpt>
      <trkpt lat="40.708633" lon="-4.948417">
        <ele>1230.0</ele>
        <time>2018-09-02T13:26:24Z</time>
      </trkpt>
      <trkpt lat="40.708667" lon="-4.948433">
        <ele>1228.0</ele>
        <time>2018-09-02T13:26:25Z</time>
      </trkpt>
      <trkpt lat="40.708700" lon="-4.948467">
        <ele>1226.0</ele>
        <time>2018-09-02T13:26:26Z</time>
      </trkpt>
      <trkpt lat="40.708700" lon="-4.948517">
        <ele>1224.0</ele>
        <time>2018-09-02T13:26:27Z</time>
      </trkpt>
      <trkpt lat="40.708667" lon="-4.948567">
        <ele>1223.0</ele>
        <time>2018-09-02T13:26:28Z</time>
      </trkpt>
      <trkpt lat="40.708583" lon="-4.948550">
        <ele>1221.0</ele>
        <time>2018-09-02T13:26:29Z</time>
      </trkpt>
      <trkpt lat="40.708500" lon="-4.948500">
        <ele>1220.0</ele>
        <time>2018-09-02T13:26:30Z</time>
      </trkpt>
      <trkpt lat="40.708417" lon="-4.948433">
        <ele>1219.0</ele>
        <time>2018-09-02T13:26:31Z</time>
      </trkpt>
      <trkpt lat="40.708350" lon="-4.948367">
        <ele>1218.0</ele>
        <time>2018-09-02T13:26:32Z</time>
      </trkpt>
      <trkpt lat="40.708300" lon="-4.948283">
        <ele>1218.0</ele>
        <time>2018-09-02T13:26:33Z</time>
      </trkpt>
      <trkpt lat="40.708233" lon="-4.948183">
        <ele>1217.0</ele>
        <time>2018-09-02T13:26:34Z</time>
      </trkpt>
      <trkpt lat="40.708183" lon="-4.948067">
        <ele>1218.0</ele>
        <time>2018-09-02T13:26:35Z</time>
      </trkpt>
      <trkpt lat="40.708133" lon="-4.947933">
        <ele>1217.0</ele>
        <time>2018-09-02T13:26:36Z</time>
      </trkpt>
      <trkpt lat="40.708083" lon="-4.947817">
        <ele>1216.0</ele>
        <time>2018-09-02T13:26:37Z</time>
      </trkpt>
      <trkpt lat="40.708033" lon="-4.947700">
        <ele>1216.0</ele>
        <time>2018-09-02T13:26:38Z</time>
      </trkpt>
      <trkpt lat="40.708000" lon="-4.947617">
        <ele>1215.0</ele>
        <time>2018-09-02T13:26:39Z</time>
      </trkpt>
      <trkpt lat="40.707950" lon="-4.947533">
        <ele>1213.0</ele>
        <time>2018-09-02T13:26:40Z</time>
      </trkpt>
      <trkpt lat="40.707917" lon="-4.947500">
        <ele>1211.0</ele>
        <time>2018-09-02T13:26:41Z</time>
      </trkpt>
      <trkpt lat="40.707900" lon="-4.947483">
        <ele>1207.0</ele>
        <time>2018-09-02T13:26:42Z</time>
      </trkpt>
      <trkpt lat="40.707900" lon="-4.947500">
        <ele>1211.0</ele>
        <time>2018-09-02T13:26:43Z</time>
      </trkpt>
      <trkpt lat="40.707917" lon="-4.947533">
        <ele>1210.0</ele>
        <time>2018-09-02T13:26:44Z</time>
      </trkpt>
      <trkpt lat="40.707967" lon="-4.947550">
        <ele>1210.0</ele>
        <time>2018-09-02T13:26:45Z</time>
      </trkpt>
      <trkpt lat="40.708050" lon="-4.947567">
        <ele>1209.0</ele>
        <time>2018-09-02T13:26:46Z</time>
      </trkpt>
      <trkpt lat="40.708117" lon="-4.947583">
        <ele>1207.0</ele>
        <time>2018-09-02T13:26:47Z</time>
      </trkpt>
      <trkpt lat="40.708150" lon="-4.947583">
        <ele>1204.0</ele>
        <time>2018-09-02T13:26:48Z</time>
      </trkpt>
      <trkpt lat="40.708183" lon="-4.947600">
        <ele>1201.0</ele>
        <time>2018-09-02T13:26:49Z</time>
      </trkpt>
      <trkpt lat="40.708150" lon="-4.947633">
        <ele>1199.0</ele>
        <time>2018-09-02T13:26:50Z</time>
      </trkpt>
      <trkpt lat="40.708133" lon="-4.947633">
        <ele>1197.0</ele>
        <time>2018-09-02T13:26:51Z</time>
      </trkpt>
      <trkpt lat="40.708100" lon="-4.947633">
        <ele>1194.0</ele>
        <time>2018-09-02T13:26:52Z</time>
      </trkpt>
      <trkpt lat="40.708083" lon="-4.947617">
        <ele>1188.0</ele>
        <time>2018-09-02T13:26:55Z</time>
      </trkpt>
      <trkpt lat="40.708083" lon="-4.947617">
        <ele>1190.0</ele>
        <time>2018-09-02T13:26:56Z</time>
      </trkpt>
      <trkpt lat="40.708083" lon="-4.947600">
        <ele>1189.0</ele>
        <time>2018-09-02T13:26:57Z</time>
      </trkpt>
      <trkpt lat="40.708083" lon="-4.947583">
        <ele>1189.0</ele>
        <time>2018-09-02T13:26:58Z</time>
      </trkpt>
      <trkpt lat="40.708083" lon="-4.947583">
        <ele>1188.0</ele>
        <time>2018-09-02T13:26:59Z</time>
      </trkpt>
      <trkpt lat="40.708083" lon="-4.947583">
        <ele>1188.0</ele>
        <time>2018-09-02T13:27:00Z</time>
      </trkpt>
      <trkpt lat="40.708100" lon="-4.947567">
        <ele>1187.0</ele>
        <time>2018-09-02T13:27:01Z</time>
      </trkpt>
      <trkpt lat="40.708100" lon="-4.947583">
        <ele>1187.0</ele>
        <time>2018-09-02T13:27:02Z</time>
      </trkpt>
    </trkseg>
  </trk>
</gpx>
